<?xml version="1.0" encoding="UTF-8" standalone="no" ?>
<gpx xmlns="http://www.topografix.com/GPX/1/1" xmlns:xsi="http://www.w3.org/2001/XMLSchema-instance" xsi:schemaLocation="http://www.topografix.com/GPX/1/1 http://www.topografix.com/GPX/1/1/gpx.xsd" version="1.1" creator="VisuGPX - https://www.visugpx.com">
  <metadata>
    <name>rahon moulin de creuse</name>
    <desc><![CDATA[............................................................]]></desc>
  </metadata>
  <trk>
    <name><![CDATA[[VTT] Rahon Moulin de Creuse]]></name>
    <trkseg>
      <trkpt lat="47.32413" lon="6.58973">
        <ele>548</ele>
        <time>2018-05-01T10:31:04.000Z</time>
      </trkpt>
      <trkpt lat="47.32412" lon="6.58973">
        <ele>548</ele>
        <time>2018-05-01T10:31:09.000Z</time>
      </trkpt>
      <trkpt lat="47.32411" lon="6.58965">
        <ele>548</ele>
        <time>2018-05-01T10:31:14.000Z</time>
      </trkpt>
      <trkpt lat="47.3241" lon="6.58956">
        <ele>548.20001220703</ele>
        <time>2018-05-01T10:31:18.000Z</time>
      </trkpt>
      <trkpt lat="47.3241" lon="6.58953">
        <ele>548.20001220703</ele>
        <time>2018-05-01T10:31:20.000Z</time>
      </trkpt>
      <trkpt lat="47.3241" lon="6.58951">
        <ele>548.20001220703</ele>
        <time>2018-05-01T10:31:21.000Z</time>
      </trkpt>
      <trkpt lat="47.32405" lon="6.58948">
        <ele>548</ele>
        <time>2018-05-01T10:31:24.000Z</time>
      </trkpt>
      <trkpt lat="47.32404" lon="6.58952">
        <ele>547.79998779297</ele>
        <time>2018-05-01T10:31:25.000Z</time>
      </trkpt>
      <trkpt lat="47.32402" lon="6.58956">
        <ele>547.59997558594</ele>
        <time>2018-05-01T10:31:26.000Z</time>
      </trkpt>
      <trkpt lat="47.324" lon="6.58961">
        <ele>547.40002441406</ele>
        <time>2018-05-01T10:31:27.000Z</time>
      </trkpt>
      <trkpt lat="47.32383" lon="6.58995">
        <ele>545.79998779297</ele>
        <time>2018-05-01T10:31:33.000Z</time>
      </trkpt>
      <trkpt lat="47.32377" lon="6.59007">
        <ele>545.40002441406</ele>
        <time>2018-05-01T10:31:35.000Z</time>
      </trkpt>
      <trkpt lat="47.32364" lon="6.59032">
        <ele>544.40002441406</ele>
        <time>2018-05-01T10:31:39.000Z</time>
      </trkpt>
      <trkpt lat="47.32357" lon="6.59045">
        <ele>544</ele>
        <time>2018-05-01T10:31:41.000Z</time>
      </trkpt>
      <trkpt lat="47.32349" lon="6.59056">
        <ele>543.40002441406</ele>
        <time>2018-05-01T10:31:43.000Z</time>
      </trkpt>
      <trkpt lat="47.32343" lon="6.59061">
        <ele>543</ele>
        <time>2018-05-01T10:31:44.000Z</time>
      </trkpt>
      <trkpt lat="47.32322" lon="6.59079">
        <ele>541.79998779297</ele>
        <time>2018-05-01T10:31:48.000Z</time>
      </trkpt>
      <trkpt lat="47.32316" lon="6.59083">
        <ele>541.59997558594</ele>
        <time>2018-05-01T10:31:49.000Z</time>
      </trkpt>
      <trkpt lat="47.32305" lon="6.59091">
        <ele>541</ele>
        <time>2018-05-01T10:31:51.000Z</time>
      </trkpt>
      <trkpt lat="47.3229" lon="6.59103">
        <ele>540.40002441406</ele>
        <time>2018-05-01T10:31:54.000Z</time>
      </trkpt>
      <trkpt lat="47.3228" lon="6.59112">
        <ele>540</ele>
        <time>2018-05-01T10:31:56.000Z</time>
      </trkpt>
      <trkpt lat="47.32259" lon="6.59131">
        <ele>539.79998779297</ele>
        <time>2018-05-01T10:32:00.000Z</time>
      </trkpt>
      <trkpt lat="47.32253" lon="6.59136">
        <ele>539.59997558594</ele>
        <time>2018-05-01T10:32:01.000Z</time>
      </trkpt>
      <trkpt lat="47.32248" lon="6.59141">
        <ele>539.59997558594</ele>
        <time>2018-05-01T10:32:02.000Z</time>
      </trkpt>
      <trkpt lat="47.32237" lon="6.59151">
        <ele>539.59997558594</ele>
        <time>2018-05-01T10:32:04.000Z</time>
      </trkpt>
      <trkpt lat="47.3222" lon="6.59161">
        <ele>539.40002441406</ele>
        <time>2018-05-01T10:32:07.000Z</time>
      </trkpt>
      <trkpt lat="47.32214" lon="6.59162">
        <ele>539.20001220703</ele>
        <time>2018-05-01T10:32:08.000Z</time>
      </trkpt>
      <trkpt lat="47.32196" lon="6.59165">
        <ele>538.59997558594</ele>
        <time>2018-05-01T10:32:11.000Z</time>
      </trkpt>
      <trkpt lat="47.32178" lon="6.59166">
        <ele>538</ele>
        <time>2018-05-01T10:32:14.000Z</time>
      </trkpt>
      <trkpt lat="47.32161" lon="6.59168">
        <ele>538</ele>
        <time>2018-05-01T10:32:17.000Z</time>
      </trkpt>
      <trkpt lat="47.32144" lon="6.59169">
        <ele>537.79998779297</ele>
        <time>2018-05-01T10:32:20.000Z</time>
      </trkpt>
      <trkpt lat="47.32115" lon="6.59174">
        <ele>537.79998779297</ele>
        <time>2018-05-01T10:32:25.000Z</time>
      </trkpt>
      <trkpt lat="47.32109" lon="6.59175">
        <ele>537.79998779297</ele>
        <time>2018-05-01T10:32:26.000Z</time>
      </trkpt>
      <trkpt lat="47.32078" lon="6.59187">
        <ele>537.20001220703</ele>
        <time>2018-05-01T10:32:32.000Z</time>
      </trkpt>
      <trkpt lat="47.32039" lon="6.59215">
        <ele>536.40002441406</ele>
        <time>2018-05-01T10:32:39.000Z</time>
      </trkpt>
      <trkpt lat="47.32016" lon="6.59229">
        <ele>535.20001220703</ele>
        <time>2018-05-01T10:32:43.000Z</time>
      </trkpt>
      <trkpt lat="47.32004" lon="6.59235">
        <ele>534.40002441406</ele>
        <time>2018-05-01T10:32:45.000Z</time>
      </trkpt>
      <trkpt lat="47.31973" lon="6.59245">
        <ele>533</ele>
        <time>2018-05-01T10:32:50.000Z</time>
      </trkpt>
      <trkpt lat="47.31966" lon="6.59245">
        <ele>532.59997558594</ele>
        <time>2018-05-01T10:32:51.000Z</time>
      </trkpt>
      <trkpt lat="47.3196" lon="6.59247">
        <ele>532.40002441406</ele>
        <time>2018-05-01T10:32:52.000Z</time>
      </trkpt>
      <trkpt lat="47.31934" lon="6.59253">
        <ele>531.20001220703</ele>
        <time>2018-05-01T10:32:56.000Z</time>
      </trkpt>
      <trkpt lat="47.31927" lon="6.59255">
        <ele>530.79998779297</ele>
        <time>2018-05-01T10:32:57.000Z</time>
      </trkpt>
      <trkpt lat="47.31912" lon="6.59259">
        <ele>530.20001220703</ele>
        <time>2018-05-01T10:32:59.000Z</time>
      </trkpt>
      <trkpt lat="47.3189" lon="6.59265">
        <ele>529.79998779297</ele>
        <time>2018-05-01T10:33:02.000Z</time>
      </trkpt>
      <trkpt lat="47.31869" lon="6.59272">
        <ele>529.40002441406</ele>
        <time>2018-05-01T10:33:05.000Z</time>
      </trkpt>
      <trkpt lat="47.31847" lon="6.59279">
        <ele>528.59997558594</ele>
        <time>2018-05-01T10:33:08.000Z</time>
      </trkpt>
      <trkpt lat="47.31818" lon="6.59288">
        <ele>527.59997558594</ele>
        <time>2018-05-01T10:33:12.000Z</time>
      </trkpt>
      <trkpt lat="47.31804" lon="6.59292">
        <ele>527</ele>
        <time>2018-05-01T10:33:14.000Z</time>
      </trkpt>
      <trkpt lat="47.31776" lon="6.59299">
        <ele>526.40002441406</ele>
        <time>2018-05-01T10:33:18.000Z</time>
      </trkpt>
      <trkpt lat="47.31747" lon="6.59308">
        <ele>525.79998779297</ele>
        <time>2018-05-01T10:33:22.000Z</time>
      </trkpt>
      <trkpt lat="47.31712" lon="6.59319">
        <ele>524.79998779297</ele>
        <time>2018-05-01T10:33:27.000Z</time>
      </trkpt>
      <trkpt lat="47.31697" lon="6.59323">
        <ele>524.20001220703</ele>
        <time>2018-05-01T10:33:29.000Z</time>
      </trkpt>
      <trkpt lat="47.31661" lon="6.59334">
        <ele>522.79998779297</ele>
        <time>2018-05-01T10:33:34.000Z</time>
      </trkpt>
      <trkpt lat="47.3164" lon="6.5934">
        <ele>522.20001220703</ele>
        <time>2018-05-01T10:33:37.000Z</time>
      </trkpt>
      <trkpt lat="47.31604" lon="6.59351">
        <ele>520.79998779297</ele>
        <time>2018-05-01T10:33:42.000Z</time>
      </trkpt>
      <trkpt lat="47.31589" lon="6.59355">
        <ele>520</ele>
        <time>2018-05-01T10:33:44.000Z</time>
      </trkpt>
      <trkpt lat="47.31582" lon="6.59357">
        <ele>519.59997558594</ele>
        <time>2018-05-01T10:33:45.000Z</time>
      </trkpt>
      <trkpt lat="47.31558" lon="6.59364">
        <ele>519.40002441406</ele>
        <time>2018-05-01T10:33:48.000Z</time>
      </trkpt>
      <trkpt lat="47.31527" lon="6.59373">
        <ele>519</ele>
        <time>2018-05-01T10:33:52.000Z</time>
      </trkpt>
      <trkpt lat="47.31505" lon="6.59379">
        <ele>518.59997558594</ele>
        <time>2018-05-01T10:33:55.000Z</time>
      </trkpt>
      <trkpt lat="47.31469" lon="6.59389">
        <ele>518</ele>
        <time>2018-05-01T10:34:00.000Z</time>
      </trkpt>
      <trkpt lat="47.31429" lon="6.59401">
        <ele>517.20001220703</ele>
        <time>2018-05-01T10:34:06.000Z</time>
      </trkpt>
      <trkpt lat="47.31423" lon="6.59403">
        <ele>517</ele>
        <time>2018-05-01T10:34:07.000Z</time>
      </trkpt>
      <trkpt lat="47.31382" lon="6.5942">
        <ele>517.40002441406</ele>
        <time>2018-05-01T10:34:14.000Z</time>
      </trkpt>
      <trkpt lat="47.31365" lon="6.59429">
        <ele>517.59997558594</ele>
        <time>2018-05-01T10:34:17.000Z</time>
      </trkpt>
      <trkpt lat="47.31347" lon="6.59438">
        <ele>517.20001220703</ele>
        <time>2018-05-01T10:34:20.000Z</time>
      </trkpt>
      <trkpt lat="47.31308" lon="6.59452">
        <ele>515.79998779297</ele>
        <time>2018-05-01T10:34:26.000Z</time>
      </trkpt>
      <trkpt lat="47.31301" lon="6.59454">
        <ele>515.40002441406</ele>
        <time>2018-05-01T10:34:27.000Z</time>
      </trkpt>
      <trkpt lat="47.31279" lon="6.59458">
        <ele>515</ele>
        <time>2018-05-01T10:34:30.000Z</time>
      </trkpt>
      <trkpt lat="47.31257" lon="6.59462">
        <ele>514.59997558594</ele>
        <time>2018-05-01T10:34:33.000Z</time>
      </trkpt>
      <trkpt lat="47.3122" lon="6.59467">
        <ele>513.40002441406</ele>
        <time>2018-05-01T10:34:38.000Z</time>
      </trkpt>
      <trkpt lat="47.31213" lon="6.59468">
        <ele>513</ele>
        <time>2018-05-01T10:34:39.000Z</time>
      </trkpt>
      <trkpt lat="47.31176" lon="6.59471">
        <ele>510.60000610352</ele>
        <time>2018-05-01T10:34:44.000Z</time>
      </trkpt>
      <trkpt lat="47.31169" lon="6.59471">
        <ele>510.20001220703</ele>
        <time>2018-05-01T10:34:45.000Z</time>
      </trkpt>
      <trkpt lat="47.31116" lon="6.59473">
        <ele>510.20001220703</ele>
        <time>2018-05-01T10:34:53.000Z</time>
      </trkpt>
      <trkpt lat="47.3107" lon="6.59472">
        <ele>510.60000610352</ele>
        <time>2018-05-01T10:35:00.000Z</time>
      </trkpt>
      <trkpt lat="47.31063" lon="6.59472">
        <ele>510.20001220703</ele>
        <time>2018-05-01T10:35:01.000Z</time>
      </trkpt>
      <trkpt lat="47.31041" lon="6.59471">
        <ele>508.39999389648</ele>
        <time>2018-05-01T10:35:04.000Z</time>
      </trkpt>
      <trkpt lat="47.31025" lon="6.5947">
        <ele>507</ele>
        <time>2018-05-01T10:35:06.000Z</time>
      </trkpt>
      <trkpt lat="47.31017" lon="6.59469">
        <ele>506.39999389648</ele>
        <time>2018-05-01T10:35:07.000Z</time>
      </trkpt>
      <trkpt lat="47.31009" lon="6.59469">
        <ele>505.79998779297</ele>
        <time>2018-05-01T10:35:08.000Z</time>
      </trkpt>
      <trkpt lat="47.30994" lon="6.59468">
        <ele>504.79998779297</ele>
        <time>2018-05-01T10:35:10.000Z</time>
      </trkpt>
      <trkpt lat="47.30978" lon="6.59467">
        <ele>504.20001220703</ele>
        <time>2018-05-01T10:35:12.000Z</time>
      </trkpt>
      <trkpt lat="47.30963" lon="6.59466">
        <ele>503.60000610352</ele>
        <time>2018-05-01T10:35:14.000Z</time>
      </trkpt>
      <trkpt lat="47.30939" lon="6.59464">
        <ele>503</ele>
        <time>2018-05-01T10:35:17.000Z</time>
      </trkpt>
      <trkpt lat="47.30919" lon="6.59459">
        <ele>502.39999389648</ele>
        <time>2018-05-01T10:35:20.000Z</time>
      </trkpt>
      <trkpt lat="47.30906" lon="6.59453">
        <ele>501.79998779297</ele>
        <time>2018-05-01T10:35:22.000Z</time>
      </trkpt>
      <trkpt lat="47.30892" lon="6.59446">
        <ele>500.60000610352</ele>
        <time>2018-05-01T10:35:24.000Z</time>
      </trkpt>
      <trkpt lat="47.30885" lon="6.59443">
        <ele>500</ele>
        <time>2018-05-01T10:35:25.000Z</time>
      </trkpt>
      <trkpt lat="47.30878" lon="6.5944">
        <ele>499.20001220703</ele>
        <time>2018-05-01T10:35:26.000Z</time>
      </trkpt>
      <trkpt lat="47.30861" lon="6.59435">
        <ele>497.79998779297</ele>
        <time>2018-05-01T10:35:29.000Z</time>
      </trkpt>
      <trkpt lat="47.30854" lon="6.59425">
        <ele>497.39999389648</ele>
        <time>2018-05-01T10:35:32.000Z</time>
      </trkpt>
      <trkpt lat="47.30853" lon="6.5942">
        <ele>497.60000610352</ele>
        <time>2018-05-01T10:35:33.000Z</time>
      </trkpt>
      <trkpt lat="47.30854" lon="6.59404">
        <ele>498.39999389648</ele>
        <time>2018-05-01T10:35:36.000Z</time>
      </trkpt>
      <trkpt lat="47.30855" lon="6.59386">
        <ele>499.20001220703</ele>
        <time>2018-05-01T10:35:39.000Z</time>
      </trkpt>
      <trkpt lat="47.30855" lon="6.59365">
        <ele>500</ele>
        <time>2018-05-01T10:35:42.000Z</time>
      </trkpt>
      <trkpt lat="47.30846" lon="6.59322">
        <ele>500.39999389648</ele>
        <time>2018-05-01T10:35:48.000Z</time>
      </trkpt>
      <trkpt lat="47.30836" lon="6.59295">
        <ele>500.20001220703</ele>
        <time>2018-05-01T10:35:52.000Z</time>
      </trkpt>
      <trkpt lat="47.30828" lon="6.59274">
        <ele>499.79998779297</ele>
        <time>2018-05-01T10:35:55.000Z</time>
      </trkpt>
      <trkpt lat="47.30813" lon="6.59222">
        <ele>499.39999389648</ele>
        <time>2018-05-01T10:36:02.000Z</time>
      </trkpt>
      <trkpt lat="47.30802" lon="6.59164">
        <ele>499.39999389648</ele>
        <time>2018-05-01T10:36:09.000Z</time>
      </trkpt>
      <trkpt lat="47.30794" lon="6.59088">
        <ele>499</ele>
        <time>2018-05-01T10:36:18.000Z</time>
      </trkpt>
      <trkpt lat="47.30786" lon="6.59029">
        <ele>499.20001220703</ele>
        <time>2018-05-01T10:36:25.000Z</time>
      </trkpt>
      <trkpt lat="47.30777" lon="6.5897">
        <ele>498.79998779297</ele>
        <time>2018-05-01T10:36:32.000Z</time>
      </trkpt>
      <trkpt lat="47.30776" lon="6.58954">
        <ele>498.79998779297</ele>
        <time>2018-05-01T10:36:34.000Z</time>
      </trkpt>
      <trkpt lat="47.30774" lon="6.58902">
        <ele>498.60000610352</ele>
        <time>2018-05-01T10:36:40.000Z</time>
      </trkpt>
      <trkpt lat="47.30774" lon="6.58877">
        <ele>498.20001220703</ele>
        <time>2018-05-01T10:36:43.000Z</time>
      </trkpt>
      <trkpt lat="47.30775" lon="6.58868">
        <ele>498.39999389648</ele>
        <time>2018-05-01T10:36:44.000Z</time>
      </trkpt>
      <trkpt lat="47.30784" lon="6.58835">
        <ele>499</ele>
        <time>2018-05-01T10:36:48.000Z</time>
      </trkpt>
      <trkpt lat="47.30786" lon="6.58827">
        <ele>499.20001220703</ele>
        <time>2018-05-01T10:36:49.000Z</time>
      </trkpt>
      <trkpt lat="47.30788" lon="6.58785">
        <ele>497.79998779297</ele>
        <time>2018-05-01T10:36:54.000Z</time>
      </trkpt>
      <trkpt lat="47.3079" lon="6.5876">
        <ele>496.60000610352</ele>
        <time>2018-05-01T10:36:57.000Z</time>
      </trkpt>
      <trkpt lat="47.30794" lon="6.58745">
        <ele>496.20001220703</ele>
        <time>2018-05-01T10:36:59.000Z</time>
      </trkpt>
      <trkpt lat="47.30805" lon="6.58697">
        <ele>495.39999389648</ele>
        <time>2018-05-01T10:37:05.000Z</time>
      </trkpt>
      <trkpt lat="47.30807" lon="6.5869">
        <ele>495.20001220703</ele>
        <time>2018-05-01T10:37:06.000Z</time>
      </trkpt>
      <trkpt lat="47.30819" lon="6.58662">
        <ele>494.79998779297</ele>
        <time>2018-05-01T10:37:10.000Z</time>
      </trkpt>
      <trkpt lat="47.30822" lon="6.58654">
        <ele>494.60000610352</ele>
        <time>2018-05-01T10:37:11.000Z</time>
      </trkpt>
      <trkpt lat="47.30841" lon="6.58612">
        <ele>494.60000610352</ele>
        <time>2018-05-01T10:37:17.000Z</time>
      </trkpt>
      <trkpt lat="47.30844" lon="6.58605">
        <ele>494.60000610352</ele>
        <time>2018-05-01T10:37:18.000Z</time>
      </trkpt>
      <trkpt lat="47.30859" lon="6.5858">
        <ele>494.79998779297</ele>
        <time>2018-05-01T10:37:22.000Z</time>
      </trkpt>
      <trkpt lat="47.30862" lon="6.58575">
        <ele>495</ele>
        <time>2018-05-01T10:37:23.000Z</time>
      </trkpt>
      <trkpt lat="47.30866" lon="6.58569">
        <ele>495</ele>
        <time>2018-05-01T10:37:24.000Z</time>
      </trkpt>
      <trkpt lat="47.30869" lon="6.58555">
        <ele>494.60000610352</ele>
        <time>2018-05-01T10:37:26.000Z</time>
      </trkpt>
      <trkpt lat="47.30874" lon="6.58533">
        <ele>494</ele>
        <time>2018-05-01T10:37:30.000Z</time>
      </trkpt>
      <trkpt lat="47.30875" lon="6.58529">
        <ele>493.79998779297</ele>
        <time>2018-05-01T10:37:31.000Z</time>
      </trkpt>
      <trkpt lat="47.30876" lon="6.58526">
        <ele>494</ele>
        <time>2018-05-01T10:37:32.000Z</time>
      </trkpt>
      <trkpt lat="47.3088" lon="6.58522">
        <ele>494.60000610352</ele>
        <time>2018-05-01T10:37:35.000Z</time>
      </trkpt>
      <trkpt lat="47.30881" lon="6.58521">
        <ele>494.79998779297</ele>
        <time>2018-05-01T10:37:40.000Z</time>
      </trkpt>
      <trkpt lat="47.30883" lon="6.5852">
        <ele>495</ele>
        <time>2018-05-01T10:37:45.000Z</time>
      </trkpt>
      <trkpt lat="47.30882" lon="6.58521">
        <ele>494.79998779297</ele>
        <time>2018-05-01T10:37:46.000Z</time>
      </trkpt>
      <trkpt lat="47.3088" lon="6.58521">
        <ele>494.60000610352</ele>
        <time>2018-05-01T10:37:50.000Z</time>
      </trkpt>
      <trkpt lat="47.30881" lon="6.58519">
        <ele>494.60000610352</ele>
        <time>2018-05-01T10:37:55.000Z</time>
      </trkpt>
      <trkpt lat="47.30882" lon="6.58517">
        <ele>494.79998779297</ele>
        <time>2018-05-01T10:37:57.000Z</time>
      </trkpt>
      <trkpt lat="47.30884" lon="6.58512">
        <ele>495.20001220703</ele>
        <time>2018-05-01T10:37:59.000Z</time>
      </trkpt>
      <trkpt lat="47.30887" lon="6.58504">
        <ele>495.39999389648</ele>
        <time>2018-05-01T10:38:02.000Z</time>
      </trkpt>
      <trkpt lat="47.30887" lon="6.58504">
        <ele>495.39999389648</ele>
        <time>2018-05-01T10:38:04.000Z</time>
      </trkpt>
      <trkpt lat="47.30887" lon="6.58503">
        <ele>495.39999389648</ele>
        <time>2018-05-01T10:38:05.000Z</time>
      </trkpt>
      <trkpt lat="47.30888" lon="6.58501">
        <ele>495.60000610352</ele>
        <time>2018-05-01T10:38:13.000Z</time>
      </trkpt>
      <trkpt lat="47.30888" lon="6.58499">
        <ele>495.60000610352</ele>
        <time>2018-05-01T10:38:19.000Z</time>
      </trkpt>
      <trkpt lat="47.30888" lon="6.58493">
        <ele>495.60000610352</ele>
        <time>2018-05-01T10:38:23.000Z</time>
      </trkpt>
      <trkpt lat="47.30888" lon="6.58491">
        <ele>495.60000610352</ele>
        <time>2018-05-01T10:38:29.000Z</time>
      </trkpt>
      <trkpt lat="47.30888" lon="6.5849">
        <ele>495.60000610352</ele>
        <time>2018-05-01T10:38:37.000Z</time>
      </trkpt>
      <trkpt lat="47.30889" lon="6.58489">
        <ele>495.79998779297</ele>
        <time>2018-05-01T10:38:43.000Z</time>
      </trkpt>
      <trkpt lat="47.30892" lon="6.58485">
        <ele>496.20001220703</ele>
        <time>2018-05-01T10:38:50.000Z</time>
      </trkpt>
      <trkpt lat="47.30896" lon="6.58482">
        <ele>496.39999389648</ele>
        <time>2018-05-01T10:38:52.000Z</time>
      </trkpt>
      <trkpt lat="47.30899" lon="6.58473">
        <ele>496.60000610352</ele>
        <time>2018-05-01T10:38:55.000Z</time>
      </trkpt>
      <trkpt lat="47.309" lon="6.5847">
        <ele>496.60000610352</ele>
        <time>2018-05-01T10:38:56.000Z</time>
      </trkpt>
      <trkpt lat="47.30902" lon="6.58465">
        <ele>496.39999389648</ele>
        <time>2018-05-01T10:38:58.000Z</time>
      </trkpt>
      <trkpt lat="47.30903" lon="6.58461">
        <ele>496.39999389648</ele>
        <time>2018-05-01T10:39:00.000Z</time>
      </trkpt>
      <trkpt lat="47.30903" lon="6.58459">
        <ele>496.39999389648</ele>
        <time>2018-05-01T10:39:01.000Z</time>
      </trkpt>
      <trkpt lat="47.30904" lon="6.58457">
        <ele>496.39999389648</ele>
        <time>2018-05-01T10:39:02.000Z</time>
      </trkpt>
      <trkpt lat="47.30904" lon="6.58453">
        <ele>496.20001220703</ele>
        <time>2018-05-01T10:39:03.000Z</time>
      </trkpt>
      <trkpt lat="47.30906" lon="6.58445">
        <ele>496.20001220703</ele>
        <time>2018-05-01T10:39:05.000Z</time>
      </trkpt>
      <trkpt lat="47.30908" lon="6.58439">
        <ele>496</ele>
        <time>2018-05-01T10:39:07.000Z</time>
      </trkpt>
      <trkpt lat="47.30916" lon="6.58416">
        <ele>496</ele>
        <time>2018-05-01T10:39:14.000Z</time>
      </trkpt>
      <trkpt lat="47.30923" lon="6.58399">
        <ele>496.20001220703</ele>
        <time>2018-05-01T10:39:18.000Z</time>
      </trkpt>
      <trkpt lat="47.30926" lon="6.58391">
        <ele>496.39999389648</ele>
        <time>2018-05-01T10:39:20.000Z</time>
      </trkpt>
      <trkpt lat="47.30939" lon="6.58357">
        <ele>497.20001220703</ele>
        <time>2018-05-01T10:39:27.000Z</time>
      </trkpt>
      <trkpt lat="47.30944" lon="6.58343">
        <ele>497.20001220703</ele>
        <time>2018-05-01T10:39:30.000Z</time>
      </trkpt>
      <trkpt lat="47.30947" lon="6.58336">
        <ele>497.20001220703</ele>
        <time>2018-05-01T10:39:32.000Z</time>
      </trkpt>
      <trkpt lat="47.30957" lon="6.58312">
        <ele>497.39999389648</ele>
        <time>2018-05-01T10:39:37.000Z</time>
      </trkpt>
      <trkpt lat="47.30965" lon="6.58292">
        <ele>497.60000610352</ele>
        <time>2018-05-01T10:39:41.000Z</time>
      </trkpt>
      <trkpt lat="47.30969" lon="6.58284">
        <ele>497.20001220703</ele>
        <time>2018-05-01T10:39:43.000Z</time>
      </trkpt>
      <trkpt lat="47.30978" lon="6.58261">
        <ele>495.60000610352</ele>
        <time>2018-05-01T10:39:48.000Z</time>
      </trkpt>
      <trkpt lat="47.3099" lon="6.58239">
        <ele>494</ele>
        <time>2018-05-01T10:39:54.000Z</time>
      </trkpt>
      <trkpt lat="47.31001" lon="6.58221">
        <ele>493</ele>
        <time>2018-05-01T10:39:59.000Z</time>
      </trkpt>
      <trkpt lat="47.31012" lon="6.58208">
        <ele>492</ele>
        <time>2018-05-01T10:40:04.000Z</time>
      </trkpt>
      <trkpt lat="47.31012" lon="6.58207">
        <ele>492</ele>
        <time>2018-05-01T10:40:05.000Z</time>
      </trkpt>
      <trkpt lat="47.31013" lon="6.58204">
        <ele>491.79998779297</ele>
        <time>2018-05-01T10:40:07.000Z</time>
      </trkpt>
      <trkpt lat="47.31011" lon="6.58206">
        <ele>492</ele>
        <time>2018-05-01T10:40:12.000Z</time>
      </trkpt>
      <trkpt lat="47.31013" lon="6.58202">
        <ele>491.60000610352</ele>
        <time>2018-05-01T10:40:16.000Z</time>
      </trkpt>
      <trkpt lat="47.31017" lon="6.58193">
        <ele>491</ele>
        <time>2018-05-01T10:40:22.000Z</time>
      </trkpt>
      <trkpt lat="47.31017" lon="6.58193">
        <ele>491</ele>
        <time>2018-05-01T10:40:23.000Z</time>
      </trkpt>
      <trkpt lat="47.31017" lon="6.58193">
        <ele>491</ele>
        <time>2018-05-01T10:40:30.000Z</time>
      </trkpt>
      <trkpt lat="47.31017" lon="6.58188">
        <ele>490.60000610352</ele>
        <time>2018-05-01T10:40:36.000Z</time>
      </trkpt>
      <trkpt lat="47.31016" lon="6.58188">
        <ele>490.60000610352</ele>
        <time>2018-05-01T10:40:37.000Z</time>
      </trkpt>
      <trkpt lat="47.31016" lon="6.58188">
        <ele>490.60000610352</ele>
        <time>2018-05-01T10:40:42.000Z</time>
      </trkpt>
      <trkpt lat="47.31016" lon="6.58187">
        <ele>490.39999389648</ele>
        <time>2018-05-01T10:40:51.000Z</time>
      </trkpt>
      <trkpt lat="47.31015" lon="6.58183">
        <ele>490.20001220703</ele>
        <time>2018-05-01T10:40:53.000Z</time>
      </trkpt>
      <trkpt lat="47.31013" lon="6.58176">
        <ele>489.39999389648</ele>
        <time>2018-05-01T10:40:55.000Z</time>
      </trkpt>
      <trkpt lat="47.31011" lon="6.58171">
        <ele>489</ele>
        <time>2018-05-01T10:40:56.000Z</time>
      </trkpt>
      <trkpt lat="47.31009" lon="6.58166">
        <ele>488.39999389648</ele>
        <time>2018-05-01T10:40:57.000Z</time>
      </trkpt>
      <trkpt lat="47.31005" lon="6.58156">
        <ele>487.60000610352</ele>
        <time>2018-05-01T10:40:59.000Z</time>
      </trkpt>
      <trkpt lat="47.31" lon="6.58151">
        <ele>487</ele>
        <time>2018-05-01T10:41:01.000Z</time>
      </trkpt>
      <trkpt lat="47.30997" lon="6.5815">
        <ele>487</ele>
        <time>2018-05-01T10:41:02.000Z</time>
      </trkpt>
      <trkpt lat="47.30994" lon="6.58148">
        <ele>486.79998779297</ele>
        <time>2018-05-01T10:41:03.000Z</time>
      </trkpt>
      <trkpt lat="47.30987" lon="6.58143">
        <ele>486.39999389648</ele>
        <time>2018-05-01T10:41:05.000Z</time>
      </trkpt>
      <trkpt lat="47.30985" lon="6.5814">
        <ele>486.20001220703</ele>
        <time>2018-05-01T10:41:06.000Z</time>
      </trkpt>
      <trkpt lat="47.30982" lon="6.58129">
        <ele>485.60000610352</ele>
        <time>2018-05-01T10:41:08.000Z</time>
      </trkpt>
      <trkpt lat="47.30981" lon="6.58123">
        <ele>485.20001220703</ele>
        <time>2018-05-01T10:41:09.000Z</time>
      </trkpt>
      <trkpt lat="47.3098" lon="6.58117">
        <ele>485</ele>
        <time>2018-05-01T10:41:10.000Z</time>
      </trkpt>
      <trkpt lat="47.3097" lon="6.5809">
        <ele>483.39999389648</ele>
        <time>2018-05-01T10:41:15.000Z</time>
      </trkpt>
      <trkpt lat="47.30945" lon="6.5805">
        <ele>482</ele>
        <time>2018-05-01T10:41:23.000Z</time>
      </trkpt>
      <trkpt lat="47.30943" lon="6.58044">
        <ele>482</ele>
        <time>2018-05-01T10:41:24.000Z</time>
      </trkpt>
      <trkpt lat="47.30929" lon="6.58011">
        <ele>482</ele>
        <time>2018-05-01T10:41:29.000Z</time>
      </trkpt>
      <trkpt lat="47.30927" lon="6.58004">
        <ele>482</ele>
        <time>2018-05-01T10:41:30.000Z</time>
      </trkpt>
      <trkpt lat="47.30925" lon="6.57988">
        <ele>482</ele>
        <time>2018-05-01T10:41:32.000Z</time>
      </trkpt>
      <trkpt lat="47.30923" lon="6.57972">
        <ele>481.79998779297</ele>
        <time>2018-05-01T10:41:34.000Z</time>
      </trkpt>
      <trkpt lat="47.30921" lon="6.57956">
        <ele>481.60000610352</ele>
        <time>2018-05-01T10:41:36.000Z</time>
      </trkpt>
      <trkpt lat="47.3092" lon="6.57916">
        <ele>481.20001220703</ele>
        <time>2018-05-01T10:41:41.000Z</time>
      </trkpt>
      <trkpt lat="47.30917" lon="6.57852">
        <ele>479.79998779297</ele>
        <time>2018-05-01T10:41:49.000Z</time>
      </trkpt>
      <trkpt lat="47.30917" lon="6.57789">
        <ele>481.20001220703</ele>
        <time>2018-05-01T10:41:57.000Z</time>
      </trkpt>
      <trkpt lat="47.30919" lon="6.57743">
        <ele>484.60000610352</ele>
        <time>2018-05-01T10:42:03.000Z</time>
      </trkpt>
      <trkpt lat="47.30919" lon="6.57723">
        <ele>485.39999389648</ele>
        <time>2018-05-01T10:42:06.000Z</time>
      </trkpt>
      <trkpt lat="47.30917" lon="6.57709">
        <ele>485.39999389648</ele>
        <time>2018-05-01T10:42:08.000Z</time>
      </trkpt>
      <trkpt lat="47.30915" lon="6.57702">
        <ele>485.39999389648</ele>
        <time>2018-05-01T10:42:09.000Z</time>
      </trkpt>
      <trkpt lat="47.30905" lon="6.57677">
        <ele>485</ele>
        <time>2018-05-01T10:42:13.000Z</time>
      </trkpt>
      <trkpt lat="47.30902" lon="6.57671">
        <ele>485</ele>
        <time>2018-05-01T10:42:14.000Z</time>
      </trkpt>
      <trkpt lat="47.30899" lon="6.57665">
        <ele>484.79998779297</ele>
        <time>2018-05-01T10:42:15.000Z</time>
      </trkpt>
      <trkpt lat="47.30892" lon="6.57654">
        <ele>484.39999389648</ele>
        <time>2018-05-01T10:42:17.000Z</time>
      </trkpt>
      <trkpt lat="47.30886" lon="6.57642">
        <ele>484.39999389648</ele>
        <time>2018-05-01T10:42:19.000Z</time>
      </trkpt>
      <trkpt lat="47.30881" lon="6.5763">
        <ele>484.39999389648</ele>
        <time>2018-05-01T10:42:21.000Z</time>
      </trkpt>
      <trkpt lat="47.30865" lon="6.576">
        <ele>484.39999389648</ele>
        <time>2018-05-01T10:42:26.000Z</time>
      </trkpt>
      <trkpt lat="47.30837" lon="6.57549">
        <ele>484</ele>
        <time>2018-05-01T10:42:34.000Z</time>
      </trkpt>
      <trkpt lat="47.30815" lon="6.57511">
        <ele>483.39999389648</ele>
        <time>2018-05-01T10:42:40.000Z</time>
      </trkpt>
      <trkpt lat="47.30794" lon="6.57478">
        <ele>482.79998779297</ele>
        <time>2018-05-01T10:42:46.000Z</time>
      </trkpt>
      <trkpt lat="47.30789" lon="6.57454">
        <ele>482.60000610352</ele>
        <time>2018-05-01T10:42:50.000Z</time>
      </trkpt>
      <trkpt lat="47.30787" lon="6.57428">
        <ele>483</ele>
        <time>2018-05-01T10:42:54.000Z</time>
      </trkpt>
      <trkpt lat="47.30786" lon="6.57421">
        <ele>483</ele>
        <time>2018-05-01T10:42:55.000Z</time>
      </trkpt>
      <trkpt lat="47.30777" lon="6.57371">
        <ele>482.39999389648</ele>
        <time>2018-05-01T10:43:02.000Z</time>
      </trkpt>
      <trkpt lat="47.30772" lon="6.5731">
        <ele>482</ele>
        <time>2018-05-01T10:43:10.000Z</time>
      </trkpt>
      <trkpt lat="47.3077" lon="6.5727">
        <ele>481.20001220703</ele>
        <time>2018-05-01T10:43:15.000Z</time>
      </trkpt>
      <trkpt lat="47.3077" lon="6.57252">
        <ele>480.79998779297</ele>
        <time>2018-05-01T10:43:17.000Z</time>
      </trkpt>
      <trkpt lat="47.30772" lon="6.57192">
        <ele>480.20001220703</ele>
        <time>2018-05-01T10:43:24.000Z</time>
      </trkpt>
      <trkpt lat="47.30775" lon="6.5714">
        <ele>479.39999389648</ele>
        <time>2018-05-01T10:43:30.000Z</time>
      </trkpt>
      <trkpt lat="47.30777" lon="6.57121">
        <ele>479.20001220703</ele>
        <time>2018-05-01T10:43:32.000Z</time>
      </trkpt>
      <trkpt lat="47.30779" lon="6.57102">
        <ele>479</ele>
        <time>2018-05-01T10:43:34.000Z</time>
      </trkpt>
      <trkpt lat="47.30782" lon="6.57052">
        <ele>478.60000610352</ele>
        <time>2018-05-01T10:43:39.000Z</time>
      </trkpt>
      <trkpt lat="47.3078" lon="6.57033">
        <ele>478.60000610352</ele>
        <time>2018-05-01T10:43:41.000Z</time>
      </trkpt>
      <trkpt lat="47.30777" lon="6.57016">
        <ele>478.39999389648</ele>
        <time>2018-05-01T10:43:43.000Z</time>
      </trkpt>
      <trkpt lat="47.30774" lon="6.57007">
        <ele>478.60000610352</ele>
        <time>2018-05-01T10:43:44.000Z</time>
      </trkpt>
      <trkpt lat="47.30757" lon="6.56949">
        <ele>478.39999389648</ele>
        <time>2018-05-01T10:43:51.000Z</time>
      </trkpt>
      <trkpt lat="47.30749" lon="6.56898">
        <ele>478.39999389648</ele>
        <time>2018-05-01T10:43:57.000Z</time>
      </trkpt>
      <trkpt lat="47.30743" lon="6.56836">
        <ele>479.20001220703</ele>
        <time>2018-05-01T10:44:04.000Z</time>
      </trkpt>
      <trkpt lat="47.30738" lon="6.5681">
        <ele>479.20001220703</ele>
        <time>2018-05-01T10:44:07.000Z</time>
      </trkpt>
      <trkpt lat="47.30728" lon="6.56766">
        <ele>479.20001220703</ele>
        <time>2018-05-01T10:44:12.000Z</time>
      </trkpt>
      <trkpt lat="47.30723" lon="6.56702">
        <ele>479.20001220703</ele>
        <time>2018-05-01T10:44:19.000Z</time>
      </trkpt>
      <trkpt lat="47.30728" lon="6.56648">
        <ele>477.79998779297</ele>
        <time>2018-05-01T10:44:25.000Z</time>
      </trkpt>
      <trkpt lat="47.3073" lon="6.56613">
        <ele>479.79998779297</ele>
        <time>2018-05-01T10:44:29.000Z</time>
      </trkpt>
      <trkpt lat="47.3073" lon="6.56597">
        <ele>480.79998779297</ele>
        <time>2018-05-01T10:44:31.000Z</time>
      </trkpt>
      <trkpt lat="47.30728" lon="6.56589">
        <ele>481.20001220703</ele>
        <time>2018-05-01T10:44:32.000Z</time>
      </trkpt>
      <trkpt lat="47.30723" lon="6.56567">
        <ele>482.20001220703</ele>
        <time>2018-05-01T10:44:35.000Z</time>
      </trkpt>
      <trkpt lat="47.30717" lon="6.56555">
        <ele>482.20001220703</ele>
        <time>2018-05-01T10:44:37.000Z</time>
      </trkpt>
      <trkpt lat="47.30713" lon="6.5655">
        <ele>482</ele>
        <time>2018-05-01T10:44:38.000Z</time>
      </trkpt>
      <trkpt lat="47.30702" lon="6.56536">
        <ele>481.60000610352</ele>
        <time>2018-05-01T10:44:41.000Z</time>
      </trkpt>
      <trkpt lat="47.30698" lon="6.5653">
        <ele>481.39999389648</ele>
        <time>2018-05-01T10:44:42.000Z</time>
      </trkpt>
      <trkpt lat="47.3069" lon="6.56522">
        <ele>481</ele>
        <time>2018-05-01T10:44:44.000Z</time>
      </trkpt>
      <trkpt lat="47.30677" lon="6.56512">
        <ele>480</ele>
        <time>2018-05-01T10:44:47.000Z</time>
      </trkpt>
      <trkpt lat="47.30659" lon="6.56498">
        <ele>478.79998779297</ele>
        <time>2018-05-01T10:44:51.000Z</time>
      </trkpt>
      <trkpt lat="47.30648" lon="6.56483">
        <ele>478.79998779297</ele>
        <time>2018-05-01T10:44:54.000Z</time>
      </trkpt>
      <trkpt lat="47.30644" lon="6.56477">
        <ele>478.39999389648</ele>
        <time>2018-05-01T10:44:55.000Z</time>
      </trkpt>
      <trkpt lat="47.3064" lon="6.5647">
        <ele>478</ele>
        <time>2018-05-01T10:44:56.000Z</time>
      </trkpt>
      <trkpt lat="47.30637" lon="6.56463">
        <ele>477.79998779297</ele>
        <time>2018-05-01T10:44:57.000Z</time>
      </trkpt>
      <trkpt lat="47.30632" lon="6.56448">
        <ele>477.60000610352</ele>
        <time>2018-05-01T10:44:59.000Z</time>
      </trkpt>
      <trkpt lat="47.30622" lon="6.56397">
        <ele>478.60000610352</ele>
        <time>2018-05-01T10:45:05.000Z</time>
      </trkpt>
      <trkpt lat="47.30617" lon="6.56333">
        <ele>478.79998779297</ele>
        <time>2018-05-01T10:45:12.000Z</time>
      </trkpt>
      <trkpt lat="47.30616" lon="6.56324">
        <ele>479</ele>
        <time>2018-05-01T10:45:13.000Z</time>
      </trkpt>
      <trkpt lat="47.30617" lon="6.56253">
        <ele>479.39999389648</ele>
        <time>2018-05-01T10:45:21.000Z</time>
      </trkpt>
      <trkpt lat="47.3062" lon="6.56226">
        <ele>479</ele>
        <time>2018-05-01T10:45:24.000Z</time>
      </trkpt>
      <trkpt lat="47.30627" lon="6.5617">
        <ele>476.39999389648</ele>
        <time>2018-05-01T10:45:30.000Z</time>
      </trkpt>
      <trkpt lat="47.30629" lon="6.5616">
        <ele>475.60000610352</ele>
        <time>2018-05-01T10:45:31.000Z</time>
      </trkpt>
      <trkpt lat="47.30634" lon="6.5613">
        <ele>475.20001220703</ele>
        <time>2018-05-01T10:45:34.000Z</time>
      </trkpt>
      <trkpt lat="47.30637" lon="6.56101">
        <ele>474.20001220703</ele>
        <time>2018-05-01T10:45:37.000Z</time>
      </trkpt>
      <trkpt lat="47.30637" lon="6.56083">
        <ele>473.39999389648</ele>
        <time>2018-05-01T10:45:39.000Z</time>
      </trkpt>
      <trkpt lat="47.30636" lon="6.5606">
        <ele>472.60000610352</ele>
        <time>2018-05-01T10:45:42.000Z</time>
      </trkpt>
      <trkpt lat="47.30634" lon="6.56044">
        <ele>472.39999389648</ele>
        <time>2018-05-01T10:45:45.000Z</time>
      </trkpt>
      <trkpt lat="47.30632" lon="6.56041">
        <ele>472.39999389648</ele>
        <time>2018-05-01T10:45:46.000Z</time>
      </trkpt>
      <trkpt lat="47.30615" lon="6.56024">
        <ele>471.79998779297</ele>
        <time>2018-05-01T10:45:52.000Z</time>
      </trkpt>
      <trkpt lat="47.30611" lon="6.56025">
        <ele>471.79998779297</ele>
        <time>2018-05-01T10:45:53.000Z</time>
      </trkpt>
      <trkpt lat="47.30603" lon="6.56032">
        <ele>471.79998779297</ele>
        <time>2018-05-01T10:45:55.000Z</time>
      </trkpt>
      <trkpt lat="47.30571" lon="6.56065">
        <ele>471.79998779297</ele>
        <time>2018-05-01T10:46:02.000Z</time>
      </trkpt>
      <trkpt lat="47.30534" lon="6.56088">
        <ele>471.39999389648</ele>
        <time>2018-05-01T10:46:09.000Z</time>
      </trkpt>
      <trkpt lat="47.30495" lon="6.56112">
        <ele>471</ele>
        <time>2018-05-01T10:46:16.000Z</time>
      </trkpt>
      <trkpt lat="47.30456" lon="6.56139">
        <ele>470.79998779297</ele>
        <time>2018-05-01T10:46:23.000Z</time>
      </trkpt>
      <trkpt lat="47.30428" lon="6.56173">
        <ele>470</ele>
        <time>2018-05-01T10:46:29.000Z</time>
      </trkpt>
      <trkpt lat="47.3041" lon="6.56215">
        <ele>470</ele>
        <time>2018-05-01T10:46:35.000Z</time>
      </trkpt>
      <trkpt lat="47.30399" lon="6.56239">
        <ele>470.20001220703</ele>
        <time>2018-05-01T10:46:39.000Z</time>
      </trkpt>
      <trkpt lat="47.30394" lon="6.56238">
        <ele>470.20001220703</ele>
        <time>2018-05-01T10:46:40.000Z</time>
      </trkpt>
      <trkpt lat="47.30384" lon="6.56225">
        <ele>470.20001220703</ele>
        <time>2018-05-01T10:46:43.000Z</time>
      </trkpt>
      <trkpt lat="47.30379" lon="6.56215">
        <ele>470</ele>
        <time>2018-05-01T10:46:45.000Z</time>
      </trkpt>
      <trkpt lat="47.30368" lon="6.56194">
        <ele>469.60000610352</ele>
        <time>2018-05-01T10:46:49.000Z</time>
      </trkpt>
      <trkpt lat="47.30365" lon="6.56189">
        <ele>469.39999389648</ele>
        <time>2018-05-01T10:46:50.000Z</time>
      </trkpt>
      <trkpt lat="47.30353" lon="6.56171">
        <ele>469.20001220703</ele>
        <time>2018-05-01T10:46:54.000Z</time>
      </trkpt>
      <trkpt lat="47.30343" lon="6.56163">
        <ele>469.20001220703</ele>
        <time>2018-05-01T10:46:57.000Z</time>
      </trkpt>
      <trkpt lat="47.30334" lon="6.56162">
        <ele>469.20001220703</ele>
        <time>2018-05-01T10:47:00.000Z</time>
      </trkpt>
      <trkpt lat="47.30328" lon="6.56162">
        <ele>469.79998779297</ele>
        <time>2018-05-01T10:47:02.000Z</time>
      </trkpt>
      <trkpt lat="47.30317" lon="6.56159">
        <ele>472</ele>
        <time>2018-05-01T10:47:07.000Z</time>
      </trkpt>
      <trkpt lat="47.30305" lon="6.56147">
        <ele>473.79998779297</ele>
        <time>2018-05-01T10:47:13.000Z</time>
      </trkpt>
      <trkpt lat="47.30294" lon="6.56132">
        <ele>475.20001220703</ele>
        <time>2018-05-01T10:47:18.000Z</time>
      </trkpt>
      <trkpt lat="47.30291" lon="6.56106">
        <ele>474.79998779297</ele>
        <time>2018-05-01T10:47:23.000Z</time>
      </trkpt>
      <trkpt lat="47.30282" lon="6.56064">
        <ele>476.20001220703</ele>
        <time>2018-05-01T10:47:31.000Z</time>
      </trkpt>
      <trkpt lat="47.30272" lon="6.56027">
        <ele>476.20001220703</ele>
        <time>2018-05-01T10:47:39.000Z</time>
      </trkpt>
      <trkpt lat="47.3026" lon="6.55991">
        <ele>476.79998779297</ele>
        <time>2018-05-01T10:47:48.000Z</time>
      </trkpt>
      <trkpt lat="47.30251" lon="6.55978">
        <ele>477.39999389648</ele>
        <time>2018-05-01T10:47:53.000Z</time>
      </trkpt>
      <trkpt lat="47.30241" lon="6.55955">
        <ele>478.39999389648</ele>
        <time>2018-05-01T10:48:00.000Z</time>
      </trkpt>
      <trkpt lat="47.30239" lon="6.55952">
        <ele>478.60000610352</ele>
        <time>2018-05-01T10:48:01.000Z</time>
      </trkpt>
      <trkpt lat="47.3023" lon="6.55938">
        <ele>479.79998779297</ele>
        <time>2018-05-01T10:48:06.000Z</time>
      </trkpt>
      <trkpt lat="47.30228" lon="6.55935">
        <ele>480.20001220703</ele>
        <time>2018-05-01T10:48:07.000Z</time>
      </trkpt>
      <trkpt lat="47.30215" lon="6.55923">
        <ele>482.39999389648</ele>
        <time>2018-05-01T10:48:13.000Z</time>
      </trkpt>
      <trkpt lat="47.30212" lon="6.55922">
        <ele>482.79998779297</ele>
        <time>2018-05-01T10:48:15.000Z</time>
      </trkpt>
      <trkpt lat="47.30207" lon="6.55924">
        <ele>483.79998779297</ele>
        <time>2018-05-01T10:48:18.000Z</time>
      </trkpt>
      <trkpt lat="47.30203" lon="6.55928">
        <ele>484.60000610352</ele>
        <time>2018-05-01T10:48:21.000Z</time>
      </trkpt>
      <trkpt lat="47.30201" lon="6.5593">
        <ele>485</ele>
        <time>2018-05-01T10:48:23.000Z</time>
      </trkpt>
      <trkpt lat="47.30196" lon="6.55933">
        <ele>485.79998779297</ele>
        <time>2018-05-01T10:48:28.000Z</time>
      </trkpt>
      <trkpt lat="47.30193" lon="6.55935">
        <ele>487</ele>
        <time>2018-05-01T10:48:31.000Z</time>
      </trkpt>
      <trkpt lat="47.3019" lon="6.55937">
        <ele>488</ele>
        <time>2018-05-01T10:48:34.000Z</time>
      </trkpt>
      <trkpt lat="47.30186" lon="6.55939">
        <ele>489.39999389648</ele>
        <time>2018-05-01T10:48:38.000Z</time>
      </trkpt>
      <trkpt lat="47.30185" lon="6.5594">
        <ele>489.79998779297</ele>
        <time>2018-05-01T10:48:39.000Z</time>
      </trkpt>
      <trkpt lat="47.30181" lon="6.55943">
        <ele>491.39999389648</ele>
        <time>2018-05-01T10:48:42.000Z</time>
      </trkpt>
      <trkpt lat="47.30177" lon="6.55947">
        <ele>492.79998779297</ele>
        <time>2018-05-01T10:48:45.000Z</time>
      </trkpt>
      <trkpt lat="47.30172" lon="6.55951">
        <ele>494.79998779297</ele>
        <time>2018-05-01T10:48:50.000Z</time>
      </trkpt>
      <trkpt lat="47.30169" lon="6.55953">
        <ele>495.60000610352</ele>
        <time>2018-05-01T10:48:51.000Z</time>
      </trkpt>
      <trkpt lat="47.30167" lon="6.55955">
        <ele>496.39999389648</ele>
        <time>2018-05-01T10:48:52.000Z</time>
      </trkpt>
      <trkpt lat="47.30163" lon="6.55958">
        <ele>498</ele>
        <time>2018-05-01T10:48:55.000Z</time>
      </trkpt>
      <trkpt lat="47.30159" lon="6.55961">
        <ele>499.39999389648</ele>
        <time>2018-05-01T10:48:58.000Z</time>
      </trkpt>
      <trkpt lat="47.30157" lon="6.55963">
        <ele>499.79998779297</ele>
        <time>2018-05-01T10:48:59.000Z</time>
      </trkpt>
      <trkpt lat="47.30155" lon="6.55965">
        <ele>500.79998779297</ele>
        <time>2018-05-01T10:49:01.000Z</time>
      </trkpt>
      <trkpt lat="47.30151" lon="6.5597">
        <ele>502.20001220703</ele>
        <time>2018-05-01T10:49:04.000Z</time>
      </trkpt>
      <trkpt lat="47.30145" lon="6.55981">
        <ele>503.39999389648</ele>
        <time>2018-05-01T10:49:10.000Z</time>
      </trkpt>
      <trkpt lat="47.30139" lon="6.5599">
        <ele>504.60000610352</ele>
        <time>2018-05-01T10:49:15.000Z</time>
      </trkpt>
      <trkpt lat="47.30137" lon="6.55992">
        <ele>505</ele>
        <time>2018-05-01T10:49:16.000Z</time>
      </trkpt>
      <trkpt lat="47.30133" lon="6.55997">
        <ele>505.79998779297</ele>
        <time>2018-05-01T10:49:19.000Z</time>
      </trkpt>
      <trkpt lat="47.30129" lon="6.56002">
        <ele>506.60000610352</ele>
        <time>2018-05-01T10:49:23.000Z</time>
      </trkpt>
      <trkpt lat="47.30128" lon="6.56003">
        <ele>506.79998779297</ele>
        <time>2018-05-01T10:49:24.000Z</time>
      </trkpt>
      <trkpt lat="47.30123" lon="6.56005">
        <ele>507.60000610352</ele>
        <time>2018-05-01T10:49:27.000Z</time>
      </trkpt>
      <trkpt lat="47.3012" lon="6.56006">
        <ele>508</ele>
        <time>2018-05-01T10:49:29.000Z</time>
      </trkpt>
      <trkpt lat="47.30117" lon="6.56008">
        <ele>508.60000610352</ele>
        <time>2018-05-01T10:49:31.000Z</time>
      </trkpt>
      <trkpt lat="47.30112" lon="6.5601">
        <ele>509.39999389648</ele>
        <time>2018-05-01T10:49:34.000Z</time>
      </trkpt>
      <trkpt lat="47.30111" lon="6.5601">
        <ele>509.39999389648</ele>
        <time>2018-05-01T10:49:35.000Z</time>
      </trkpt>
      <trkpt lat="47.30109" lon="6.5601">
        <ele>509.60000610352</ele>
        <time>2018-05-01T10:49:36.000Z</time>
      </trkpt>
      <trkpt lat="47.30107" lon="6.56011">
        <ele>510</ele>
        <time>2018-05-01T10:49:39.000Z</time>
      </trkpt>
      <trkpt lat="47.30101" lon="6.56011">
        <ele>510.79998779297</ele>
        <time>2018-05-01T10:49:44.000Z</time>
      </trkpt>
      <trkpt lat="47.30096" lon="6.56012">
        <ele>511.60000610352</ele>
        <time>2018-05-01T10:49:48.000Z</time>
      </trkpt>
      <trkpt lat="47.30094" lon="6.56013">
        <ele>511.79998779297</ele>
        <time>2018-05-01T10:49:49.000Z</time>
      </trkpt>
      <trkpt lat="47.30093" lon="6.56013">
        <ele>512</ele>
        <time>2018-05-01T10:49:50.000Z</time>
      </trkpt>
      <trkpt lat="47.30091" lon="6.56014">
        <ele>512.40002441406</ele>
        <time>2018-05-01T10:49:52.000Z</time>
      </trkpt>
      <trkpt lat="47.3009" lon="6.56014">
        <ele>512.40002441406</ele>
        <time>2018-05-01T10:49:53.000Z</time>
      </trkpt>
      <trkpt lat="47.30088" lon="6.56012">
        <ele>512.59997558594</ele>
        <time>2018-05-01T10:49:55.000Z</time>
      </trkpt>
      <trkpt lat="47.30087" lon="6.5601">
        <ele>512.59997558594</ele>
        <time>2018-05-01T10:49:57.000Z</time>
      </trkpt>
      <trkpt lat="47.30086" lon="6.56009">
        <ele>512.59997558594</ele>
        <time>2018-05-01T10:49:58.000Z</time>
      </trkpt>
      <trkpt lat="47.30086" lon="6.56007">
        <ele>512.59997558594</ele>
        <time>2018-05-01T10:49:59.000Z</time>
      </trkpt>
      <trkpt lat="47.30085" lon="6.56005">
        <ele>512.59997558594</ele>
        <time>2018-05-01T10:50:01.000Z</time>
      </trkpt>
      <trkpt lat="47.30084" lon="6.56001">
        <ele>512.40002441406</ele>
        <time>2018-05-01T10:50:03.000Z</time>
      </trkpt>
      <trkpt lat="47.30084" lon="6.56">
        <ele>512.40002441406</ele>
        <time>2018-05-01T10:50:04.000Z</time>
      </trkpt>
      <trkpt lat="47.30085" lon="6.55994">
        <ele>511.79998779297</ele>
        <time>2018-05-01T10:50:07.000Z</time>
      </trkpt>
      <trkpt lat="47.30085" lon="6.55992">
        <ele>511.79998779297</ele>
        <time>2018-05-01T10:50:08.000Z</time>
      </trkpt>
      <trkpt lat="47.30085" lon="6.55988">
        <ele>511.60000610352</ele>
        <time>2018-05-01T10:50:10.000Z</time>
      </trkpt>
      <trkpt lat="47.30086" lon="6.55986">
        <ele>511.39999389648</ele>
        <time>2018-05-01T10:50:12.000Z</time>
      </trkpt>
      <trkpt lat="47.30086" lon="6.55984">
        <ele>511.20001220703</ele>
        <time>2018-05-01T10:50:13.000Z</time>
      </trkpt>
      <trkpt lat="47.30085" lon="6.55978">
        <ele>511.20001220703</ele>
        <time>2018-05-01T10:50:16.000Z</time>
      </trkpt>
      <trkpt lat="47.30084" lon="6.55974">
        <ele>511.20001220703</ele>
        <time>2018-05-01T10:50:19.000Z</time>
      </trkpt>
      <trkpt lat="47.30084" lon="6.55971">
        <ele>511.20001220703</ele>
        <time>2018-05-01T10:50:20.000Z</time>
      </trkpt>
      <trkpt lat="47.30082" lon="6.55967">
        <ele>511.39999389648</ele>
        <time>2018-05-01T10:50:23.000Z</time>
      </trkpt>
      <trkpt lat="47.30081" lon="6.55963">
        <ele>511.39999389648</ele>
        <time>2018-05-01T10:50:25.000Z</time>
      </trkpt>
      <trkpt lat="47.30079" lon="6.55958">
        <ele>511.79998779297</ele>
        <time>2018-05-01T10:50:28.000Z</time>
      </trkpt>
      <trkpt lat="47.30077" lon="6.55956">
        <ele>512.20001220703</ele>
        <time>2018-05-01T10:50:30.000Z</time>
      </trkpt>
      <trkpt lat="47.30075" lon="6.55952">
        <ele>512.79998779297</ele>
        <time>2018-05-01T10:50:32.000Z</time>
      </trkpt>
      <trkpt lat="47.30068" lon="6.55941">
        <ele>514.79998779297</ele>
        <time>2018-05-01T10:50:39.000Z</time>
      </trkpt>
      <trkpt lat="47.30066" lon="6.55939">
        <ele>515.20001220703</ele>
        <time>2018-05-01T10:50:40.000Z</time>
      </trkpt>
      <trkpt lat="47.30062" lon="6.55937">
        <ele>516.40002441406</ele>
        <time>2018-05-01T10:50:43.000Z</time>
      </trkpt>
      <trkpt lat="47.3006" lon="6.55935">
        <ele>517</ele>
        <time>2018-05-01T10:50:45.000Z</time>
      </trkpt>
      <trkpt lat="47.30059" lon="6.55932">
        <ele>517.40002441406</ele>
        <time>2018-05-01T10:50:46.000Z</time>
      </trkpt>
      <trkpt lat="47.30057" lon="6.55932">
        <ele>517.79998779297</ele>
        <time>2018-05-01T10:50:47.000Z</time>
      </trkpt>
      <trkpt lat="47.30055" lon="6.55928">
        <ele>518.59997558594</ele>
        <time>2018-05-01T10:50:50.000Z</time>
      </trkpt>
      <trkpt lat="47.30051" lon="6.55927">
        <ele>519.59997558594</ele>
        <time>2018-05-01T10:50:52.000Z</time>
      </trkpt>
      <trkpt lat="47.30048" lon="6.55922">
        <ele>520.40002441406</ele>
        <time>2018-05-01T10:50:55.000Z</time>
      </trkpt>
      <trkpt lat="47.30048" lon="6.55921">
        <ele>520.59997558594</ele>
        <time>2018-05-01T10:50:56.000Z</time>
      </trkpt>
      <trkpt lat="47.30046" lon="6.55916">
        <ele>521.20001220703</ele>
        <time>2018-05-01T10:50:59.000Z</time>
      </trkpt>
      <trkpt lat="47.30044" lon="6.55911">
        <ele>521.40002441406</ele>
        <time>2018-05-01T10:51:03.000Z</time>
      </trkpt>
      <trkpt lat="47.30044" lon="6.55909">
        <ele>521.40002441406</ele>
        <time>2018-05-01T10:51:04.000Z</time>
      </trkpt>
      <trkpt lat="47.30044" lon="6.55904">
        <ele>521.40002441406</ele>
        <time>2018-05-01T10:51:07.000Z</time>
      </trkpt>
      <trkpt lat="47.30044" lon="6.55899">
        <ele>521</ele>
        <time>2018-05-01T10:51:09.000Z</time>
      </trkpt>
      <trkpt lat="47.30044" lon="6.55898">
        <ele>520.79998779297</ele>
        <time>2018-05-01T10:51:10.000Z</time>
      </trkpt>
      <trkpt lat="47.30039" lon="6.55896">
        <ele>522</ele>
        <time>2018-05-01T10:51:14.000Z</time>
      </trkpt>
      <trkpt lat="47.30038" lon="6.55895">
        <ele>522.40002441406</ele>
        <time>2018-05-01T10:51:15.000Z</time>
      </trkpt>
      <trkpt lat="47.30028" lon="6.55887">
        <ele>524.59997558594</ele>
        <time>2018-05-01T10:51:20.000Z</time>
      </trkpt>
      <trkpt lat="47.30024" lon="6.55886">
        <ele>525.59997558594</ele>
        <time>2018-05-01T10:51:22.000Z</time>
      </trkpt>
      <trkpt lat="47.30019" lon="6.55881">
        <ele>526.59997558594</ele>
        <time>2018-05-01T10:51:26.000Z</time>
      </trkpt>
      <trkpt lat="47.30017" lon="6.55878">
        <ele>527</ele>
        <time>2018-05-01T10:51:27.000Z</time>
      </trkpt>
      <trkpt lat="47.30012" lon="6.55875">
        <ele>528</ele>
        <time>2018-05-01T10:51:30.000Z</time>
      </trkpt>
      <trkpt lat="47.30008" lon="6.55873">
        <ele>529.20001220703</ele>
        <time>2018-05-01T10:51:33.000Z</time>
      </trkpt>
      <trkpt lat="47.30002" lon="6.55871">
        <ele>530.79998779297</ele>
        <time>2018-05-01T10:51:36.000Z</time>
      </trkpt>
      <trkpt lat="47.29999" lon="6.5587">
        <ele>531.59997558594</ele>
        <time>2018-05-01T10:51:38.000Z</time>
      </trkpt>
      <trkpt lat="47.29997" lon="6.55869">
        <ele>532</ele>
        <time>2018-05-01T10:51:43.000Z</time>
      </trkpt>
      <trkpt lat="47.29991" lon="6.55865">
        <ele>533.20001220703</ele>
        <time>2018-05-01T10:51:47.000Z</time>
      </trkpt>
      <trkpt lat="47.29987" lon="6.55862">
        <ele>533.79998779297</ele>
        <time>2018-05-01T10:51:50.000Z</time>
      </trkpt>
      <trkpt lat="47.29985" lon="6.55861">
        <ele>534.20001220703</ele>
        <time>2018-05-01T10:51:51.000Z</time>
      </trkpt>
      <trkpt lat="47.29982" lon="6.55858">
        <ele>534.59997558594</ele>
        <time>2018-05-01T10:51:53.000Z</time>
      </trkpt>
      <trkpt lat="47.29978" lon="6.55855">
        <ele>535.20001220703</ele>
        <time>2018-05-01T10:51:56.000Z</time>
      </trkpt>
      <trkpt lat="47.29978" lon="6.55855">
        <ele>535.20001220703</ele>
        <time>2018-05-01T10:51:57.000Z</time>
      </trkpt>
      <trkpt lat="47.29973" lon="6.55851">
        <ele>536</ele>
        <time>2018-05-01T10:52:00.000Z</time>
      </trkpt>
      <trkpt lat="47.29968" lon="6.55843">
        <ele>536.20001220703</ele>
        <time>2018-05-01T10:52:04.000Z</time>
      </trkpt>
      <trkpt lat="47.29967" lon="6.5584">
        <ele>536.20001220703</ele>
        <time>2018-05-01T10:52:05.000Z</time>
      </trkpt>
      <trkpt lat="47.29962" lon="6.55831">
        <ele>536.20001220703</ele>
        <time>2018-05-01T10:52:09.000Z</time>
      </trkpt>
      <trkpt lat="47.29961" lon="6.55826">
        <ele>536</ele>
        <time>2018-05-01T10:52:11.000Z</time>
      </trkpt>
      <trkpt lat="47.2996" lon="6.55824">
        <ele>535.79998779297</ele>
        <time>2018-05-01T10:52:12.000Z</time>
      </trkpt>
      <trkpt lat="47.29957" lon="6.55816">
        <ele>536</ele>
        <time>2018-05-01T10:52:18.000Z</time>
      </trkpt>
      <trkpt lat="47.29955" lon="6.55814">
        <ele>536.20001220703</ele>
        <time>2018-05-01T10:52:21.000Z</time>
      </trkpt>
      <trkpt lat="47.29951" lon="6.55803">
        <ele>536.40002441406</ele>
        <time>2018-05-01T10:52:25.000Z</time>
      </trkpt>
      <trkpt lat="47.2995" lon="6.55801">
        <ele>536.40002441406</ele>
        <time>2018-05-01T10:52:26.000Z</time>
      </trkpt>
      <trkpt lat="47.29947" lon="6.558">
        <ele>537</ele>
        <time>2018-05-01T10:52:30.000Z</time>
      </trkpt>
      <trkpt lat="47.2994" lon="6.55802">
        <ele>538.79998779297</ele>
        <time>2018-05-01T10:52:38.000Z</time>
      </trkpt>
      <trkpt lat="47.29937" lon="6.55806">
        <ele>540.20001220703</ele>
        <time>2018-05-01T10:52:41.000Z</time>
      </trkpt>
      <trkpt lat="47.29933" lon="6.55808">
        <ele>541.40002441406</ele>
        <time>2018-05-01T10:52:43.000Z</time>
      </trkpt>
      <trkpt lat="47.29926" lon="6.55807">
        <ele>542.79998779297</ele>
        <time>2018-05-01T10:52:46.000Z</time>
      </trkpt>
      <trkpt lat="47.29921" lon="6.55806">
        <ele>544</ele>
        <time>2018-05-01T10:52:50.000Z</time>
      </trkpt>
      <trkpt lat="47.29918" lon="6.55805">
        <ele>544.79998779297</ele>
        <time>2018-05-01T10:52:54.000Z</time>
      </trkpt>
      <trkpt lat="47.29917" lon="6.55805">
        <ele>545</ele>
        <time>2018-05-01T10:52:55.000Z</time>
      </trkpt>
      <trkpt lat="47.29913" lon="6.55802">
        <ele>545.79998779297</ele>
        <time>2018-05-01T10:53:01.000Z</time>
      </trkpt>
      <trkpt lat="47.29908" lon="6.55802">
        <ele>546.79998779297</ele>
        <time>2018-05-01T10:53:04.000Z</time>
      </trkpt>
      <trkpt lat="47.29906" lon="6.55801">
        <ele>547.20001220703</ele>
        <time>2018-05-01T10:53:07.000Z</time>
      </trkpt>
      <trkpt lat="47.29899" lon="6.55798">
        <ele>548.40002441406</ele>
        <time>2018-05-01T10:53:14.000Z</time>
      </trkpt>
      <trkpt lat="47.29893" lon="6.55796">
        <ele>549.59997558594</ele>
        <time>2018-05-01T10:53:20.000Z</time>
      </trkpt>
      <trkpt lat="47.29889" lon="6.55794">
        <ele>550.20001220703</ele>
        <time>2018-05-01T10:53:23.000Z</time>
      </trkpt>
      <trkpt lat="47.29889" lon="6.55794">
        <ele>550.20001220703</ele>
        <time>2018-05-01T10:53:26.000Z</time>
      </trkpt>
      <trkpt lat="47.29872" lon="6.5579">
        <ele>553</ele>
        <time>2018-05-01T10:53:32.000Z</time>
      </trkpt>
      <trkpt lat="47.29866" lon="6.55788">
        <ele>554</ele>
        <time>2018-05-01T10:53:34.000Z</time>
      </trkpt>
      <trkpt lat="47.29862" lon="6.55785">
        <ele>554.59997558594</ele>
        <time>2018-05-01T10:53:36.000Z</time>
      </trkpt>
      <trkpt lat="47.29859" lon="6.55783">
        <ele>555.20001220703</ele>
        <time>2018-05-01T10:53:38.000Z</time>
      </trkpt>
      <trkpt lat="47.29857" lon="6.5578">
        <ele>555.40002441406</ele>
        <time>2018-05-01T10:53:41.000Z</time>
      </trkpt>
      <trkpt lat="47.29847" lon="6.55775">
        <ele>557</ele>
        <time>2018-05-01T10:53:46.000Z</time>
      </trkpt>
      <trkpt lat="47.29842" lon="6.55772">
        <ele>557.79998779297</ele>
        <time>2018-05-01T10:53:50.000Z</time>
      </trkpt>
      <trkpt lat="47.29839" lon="6.55771">
        <ele>558.20001220703</ele>
        <time>2018-05-01T10:53:52.000Z</time>
      </trkpt>
      <trkpt lat="47.29836" lon="6.55768">
        <ele>558.59997558594</ele>
        <time>2018-05-01T10:53:55.000Z</time>
      </trkpt>
      <trkpt lat="47.29834" lon="6.55766">
        <ele>558.79998779297</ele>
        <time>2018-05-01T10:53:56.000Z</time>
      </trkpt>
      <trkpt lat="47.29833" lon="6.55765">
        <ele>559</ele>
        <time>2018-05-01T10:53:58.000Z</time>
      </trkpt>
      <trkpt lat="47.29819" lon="6.55759">
        <ele>560</ele>
        <time>2018-05-01T10:54:05.000Z</time>
      </trkpt>
      <trkpt lat="47.29817" lon="6.55757">
        <ele>560</ele>
        <time>2018-05-01T10:54:06.000Z</time>
      </trkpt>
      <trkpt lat="47.29815" lon="6.55755">
        <ele>560.20001220703</ele>
        <time>2018-05-01T10:54:07.000Z</time>
      </trkpt>
      <trkpt lat="47.29811" lon="6.55753">
        <ele>560.20001220703</ele>
        <time>2018-05-01T10:54:09.000Z</time>
      </trkpt>
      <trkpt lat="47.29806" lon="6.55749">
        <ele>560.40002441406</ele>
        <time>2018-05-01T10:54:13.000Z</time>
      </trkpt>
      <trkpt lat="47.29797" lon="6.55744">
        <ele>560.79998779297</ele>
        <time>2018-05-01T10:54:17.000Z</time>
      </trkpt>
      <trkpt lat="47.29793" lon="6.55742">
        <ele>561</ele>
        <time>2018-05-01T10:54:20.000Z</time>
      </trkpt>
      <trkpt lat="47.29781" lon="6.55729">
        <ele>561.40002441406</ele>
        <time>2018-05-01T10:54:28.000Z</time>
      </trkpt>
      <trkpt lat="47.29775" lon="6.55725">
        <ele>561.79998779297</ele>
        <time>2018-05-01T10:54:32.000Z</time>
      </trkpt>
      <trkpt lat="47.29771" lon="6.55723">
        <ele>562</ele>
        <time>2018-05-01T10:54:34.000Z</time>
      </trkpt>
      <trkpt lat="47.29767" lon="6.55723">
        <ele>562.20001220703</ele>
        <time>2018-05-01T10:54:36.000Z</time>
      </trkpt>
      <trkpt lat="47.29762" lon="6.55724">
        <ele>562.59997558594</ele>
        <time>2018-05-01T10:54:39.000Z</time>
      </trkpt>
      <trkpt lat="47.29754" lon="6.55732">
        <ele>563.40002441406</ele>
        <time>2018-05-01T10:54:46.000Z</time>
      </trkpt>
      <trkpt lat="47.29752" lon="6.55734">
        <ele>563.59997558594</ele>
        <time>2018-05-01T10:54:47.000Z</time>
      </trkpt>
      <trkpt lat="47.29748" lon="6.55742">
        <ele>564</ele>
        <time>2018-05-01T10:54:51.000Z</time>
      </trkpt>
      <trkpt lat="47.29742" lon="6.5575">
        <ele>564.40002441406</ele>
        <time>2018-05-01T10:54:55.000Z</time>
      </trkpt>
      <trkpt lat="47.29736" lon="6.55752">
        <ele>564.79998779297</ele>
        <time>2018-05-01T10:55:00.000Z</time>
      </trkpt>
      <trkpt lat="47.2973" lon="6.55751">
        <ele>565</ele>
        <time>2018-05-01T10:55:05.000Z</time>
      </trkpt>
      <trkpt lat="47.29725" lon="6.5575">
        <ele>565.20001220703</ele>
        <time>2018-05-01T10:55:08.000Z</time>
      </trkpt>
      <trkpt lat="47.29723" lon="6.55747">
        <ele>565.40002441406</ele>
        <time>2018-05-01T10:55:10.000Z</time>
      </trkpt>
      <trkpt lat="47.29722" lon="6.55746">
        <ele>565.40002441406</ele>
        <time>2018-05-01T10:55:11.000Z</time>
      </trkpt>
      <trkpt lat="47.29716" lon="6.55738">
        <ele>565.59997558594</ele>
        <time>2018-05-01T10:55:15.000Z</time>
      </trkpt>
      <trkpt lat="47.29712" lon="6.55736">
        <ele>565.59997558594</ele>
        <time>2018-05-01T10:55:17.000Z</time>
      </trkpt>
      <trkpt lat="47.29704" lon="6.55732">
        <ele>566</ele>
        <time>2018-05-01T10:55:20.000Z</time>
      </trkpt>
      <trkpt lat="47.29702" lon="6.5573">
        <ele>566.20001220703</ele>
        <time>2018-05-01T10:55:21.000Z</time>
      </trkpt>
      <trkpt lat="47.29699" lon="6.5573">
        <ele>566.20001220703</ele>
        <time>2018-05-01T10:55:22.000Z</time>
      </trkpt>
      <trkpt lat="47.29696" lon="6.55727">
        <ele>566.40002441406</ele>
        <time>2018-05-01T10:55:24.000Z</time>
      </trkpt>
      <trkpt lat="47.29694" lon="6.55726">
        <ele>566.59997558594</ele>
        <time>2018-05-01T10:55:25.000Z</time>
      </trkpt>
      <trkpt lat="47.29685" lon="6.55717">
        <ele>567</ele>
        <time>2018-05-01T10:55:30.000Z</time>
      </trkpt>
      <trkpt lat="47.29684" lon="6.55716">
        <ele>567</ele>
        <time>2018-05-01T10:55:31.000Z</time>
      </trkpt>
      <trkpt lat="47.29682" lon="6.55714">
        <ele>567</ele>
        <time>2018-05-01T10:55:32.000Z</time>
      </trkpt>
      <trkpt lat="47.29679" lon="6.55712">
        <ele>567.20001220703</ele>
        <time>2018-05-01T10:55:34.000Z</time>
      </trkpt>
      <trkpt lat="47.29677" lon="6.55711">
        <ele>567.40002441406</ele>
        <time>2018-05-01T10:55:35.000Z</time>
      </trkpt>
      <trkpt lat="47.29675" lon="6.5571">
        <ele>567.40002441406</ele>
        <time>2018-05-01T10:55:36.000Z</time>
      </trkpt>
      <trkpt lat="47.29671" lon="6.55708">
        <ele>567.59997558594</ele>
        <time>2018-05-01T10:55:38.000Z</time>
      </trkpt>
      <trkpt lat="47.29657" lon="6.55702">
        <ele>568</ele>
        <time>2018-05-01T10:55:41.000Z</time>
      </trkpt>
      <trkpt lat="47.29649" lon="6.55698">
        <ele>568.20001220703</ele>
        <time>2018-05-01T10:55:43.000Z</time>
      </trkpt>
      <trkpt lat="47.29638" lon="6.55694">
        <ele>568.40002441406</ele>
        <time>2018-05-01T10:55:47.000Z</time>
      </trkpt>
      <trkpt lat="47.29635" lon="6.55692">
        <ele>568.40002441406</ele>
        <time>2018-05-01T10:55:48.000Z</time>
      </trkpt>
      <trkpt lat="47.29619" lon="6.55684">
        <ele>568.59997558594</ele>
        <time>2018-05-01T10:55:52.000Z</time>
      </trkpt>
      <trkpt lat="47.29615" lon="6.55681">
        <ele>568.59997558594</ele>
        <time>2018-05-01T10:55:53.000Z</time>
      </trkpt>
      <trkpt lat="47.29604" lon="6.55677">
        <ele>568.59997558594</ele>
        <time>2018-05-01T10:55:57.000Z</time>
      </trkpt>
      <trkpt lat="47.29586" lon="6.55667">
        <ele>568.40002441406</ele>
        <time>2018-05-01T10:56:02.000Z</time>
      </trkpt>
      <trkpt lat="47.29579" lon="6.55663">
        <ele>568.20001220703</ele>
        <time>2018-05-01T10:56:04.000Z</time>
      </trkpt>
      <trkpt lat="47.29576" lon="6.55662">
        <ele>568.20001220703</ele>
        <time>2018-05-01T10:56:06.000Z</time>
      </trkpt>
      <trkpt lat="47.29563" lon="6.55657">
        <ele>567.79998779297</ele>
        <time>2018-05-01T10:56:11.000Z</time>
      </trkpt>
      <trkpt lat="47.2955" lon="6.55656">
        <ele>567.20001220703</ele>
        <time>2018-05-01T10:56:14.000Z</time>
      </trkpt>
      <trkpt lat="47.29546" lon="6.55655">
        <ele>567.20001220703</ele>
        <time>2018-05-01T10:56:15.000Z</time>
      </trkpt>
      <trkpt lat="47.29541" lon="6.55655">
        <ele>566.79998779297</ele>
        <time>2018-05-01T10:56:16.000Z</time>
      </trkpt>
      <trkpt lat="47.29536" lon="6.55655">
        <ele>566.59997558594</ele>
        <time>2018-05-01T10:56:17.000Z</time>
      </trkpt>
      <trkpt lat="47.29532" lon="6.55655">
        <ele>566.40002441406</ele>
        <time>2018-05-01T10:56:18.000Z</time>
      </trkpt>
      <trkpt lat="47.29525" lon="6.55657">
        <ele>566</ele>
        <time>2018-05-01T10:56:20.000Z</time>
      </trkpt>
      <trkpt lat="47.29518" lon="6.5566">
        <ele>565.59997558594</ele>
        <time>2018-05-01T10:56:22.000Z</time>
      </trkpt>
      <trkpt lat="47.29508" lon="6.55665">
        <ele>564.59997558594</ele>
        <time>2018-05-01T10:56:26.000Z</time>
      </trkpt>
      <trkpt lat="47.29492" lon="6.55664">
        <ele>564.20001220703</ele>
        <time>2018-05-01T10:56:30.000Z</time>
      </trkpt>
      <trkpt lat="47.29475" lon="6.55661">
        <ele>564.20001220703</ele>
        <time>2018-05-01T10:56:34.000Z</time>
      </trkpt>
      <trkpt lat="47.29462" lon="6.55661">
        <ele>564</ele>
        <time>2018-05-01T10:56:38.000Z</time>
      </trkpt>
      <trkpt lat="47.29458" lon="6.55659">
        <ele>564</ele>
        <time>2018-05-01T10:56:39.000Z</time>
      </trkpt>
      <trkpt lat="47.29448" lon="6.55655">
        <ele>564.20001220703</ele>
        <time>2018-05-01T10:56:42.000Z</time>
      </trkpt>
      <trkpt lat="47.29439" lon="6.55653">
        <ele>564.20001220703</ele>
        <time>2018-05-01T10:56:44.000Z</time>
      </trkpt>
      <trkpt lat="47.29431" lon="6.55651">
        <ele>564.20001220703</ele>
        <time>2018-05-01T10:56:46.000Z</time>
      </trkpt>
      <trkpt lat="47.29427" lon="6.55652">
        <ele>564</ele>
        <time>2018-05-01T10:56:47.000Z</time>
      </trkpt>
      <trkpt lat="47.29419" lon="6.55652">
        <ele>564</ele>
        <time>2018-05-01T10:56:49.000Z</time>
      </trkpt>
      <trkpt lat="47.29415" lon="6.5565">
        <ele>564.20001220703</ele>
        <time>2018-05-01T10:56:50.000Z</time>
      </trkpt>
      <trkpt lat="47.29407" lon="6.55646">
        <ele>564.40002441406</ele>
        <time>2018-05-01T10:56:53.000Z</time>
      </trkpt>
      <trkpt lat="47.29405" lon="6.55644">
        <ele>564.40002441406</ele>
        <time>2018-05-01T10:56:54.000Z</time>
      </trkpt>
      <trkpt lat="47.29396" lon="6.55641">
        <ele>564.59997558594</ele>
        <time>2018-05-01T10:56:57.000Z</time>
      </trkpt>
      <trkpt lat="47.29393" lon="6.55642">
        <ele>564.40002441406</ele>
        <time>2018-05-01T10:56:58.000Z</time>
      </trkpt>
      <trkpt lat="47.29377" lon="6.55636">
        <ele>564.59997558594</ele>
        <time>2018-05-01T10:57:03.000Z</time>
      </trkpt>
      <trkpt lat="47.29373" lon="6.55637">
        <ele>564.40002441406</ele>
        <time>2018-05-01T10:57:04.000Z</time>
      </trkpt>
      <trkpt lat="47.29365" lon="6.55636">
        <ele>564.40002441406</ele>
        <time>2018-05-01T10:57:06.000Z</time>
      </trkpt>
      <trkpt lat="47.29359" lon="6.55637">
        <ele>564</ele>
        <time>2018-05-01T10:57:08.000Z</time>
      </trkpt>
      <trkpt lat="47.29352" lon="6.55635">
        <ele>564</ele>
        <time>2018-05-01T10:57:10.000Z</time>
      </trkpt>
      <trkpt lat="47.29338" lon="6.55635">
        <ele>563.59997558594</ele>
        <time>2018-05-01T10:57:15.000Z</time>
      </trkpt>
      <trkpt lat="47.29324" lon="6.55633">
        <ele>564</ele>
        <time>2018-05-01T10:57:20.000Z</time>
      </trkpt>
      <trkpt lat="47.29309" lon="6.55629">
        <ele>565</ele>
        <time>2018-05-01T10:57:24.000Z</time>
      </trkpt>
      <trkpt lat="47.29289" lon="6.55624">
        <ele>566</ele>
        <time>2018-05-01T10:57:29.000Z</time>
      </trkpt>
      <trkpt lat="47.29272" lon="6.55621">
        <ele>566.20001220703</ele>
        <time>2018-05-01T10:57:34.000Z</time>
      </trkpt>
      <trkpt lat="47.29265" lon="6.55621">
        <ele>566.40002441406</ele>
        <time>2018-05-01T10:57:36.000Z</time>
      </trkpt>
      <trkpt lat="47.29259" lon="6.5562">
        <ele>566.40002441406</ele>
        <time>2018-05-01T10:57:38.000Z</time>
      </trkpt>
      <trkpt lat="47.29256" lon="6.5562">
        <ele>566.40002441406</ele>
        <time>2018-05-01T10:57:39.000Z</time>
      </trkpt>
      <trkpt lat="47.29249" lon="6.55621">
        <ele>566.40002441406</ele>
        <time>2018-05-01T10:57:42.000Z</time>
      </trkpt>
      <trkpt lat="47.29246" lon="6.55621">
        <ele>566.40002441406</ele>
        <time>2018-05-01T10:57:43.000Z</time>
      </trkpt>
      <trkpt lat="47.29243" lon="6.55621">
        <ele>566.20001220703</ele>
        <time>2018-05-01T10:57:44.000Z</time>
      </trkpt>
      <trkpt lat="47.29237" lon="6.55624">
        <ele>565.79998779297</ele>
        <time>2018-05-01T10:57:46.000Z</time>
      </trkpt>
      <trkpt lat="47.2923" lon="6.55627">
        <ele>565.40002441406</ele>
        <time>2018-05-01T10:57:48.000Z</time>
      </trkpt>
      <trkpt lat="47.29226" lon="6.55629">
        <ele>565.20001220703</ele>
        <time>2018-05-01T10:57:49.000Z</time>
      </trkpt>
      <trkpt lat="47.29214" lon="6.55635">
        <ele>564.20001220703</ele>
        <time>2018-05-01T10:57:52.000Z</time>
      </trkpt>
      <trkpt lat="47.29209" lon="6.55637">
        <ele>563.79998779297</ele>
        <time>2018-05-01T10:57:53.000Z</time>
      </trkpt>
      <trkpt lat="47.29201" lon="6.55642">
        <ele>562.79998779297</ele>
        <time>2018-05-01T10:57:55.000Z</time>
      </trkpt>
      <trkpt lat="47.29193" lon="6.55648">
        <ele>561.79998779297</ele>
        <time>2018-05-01T10:57:57.000Z</time>
      </trkpt>
      <trkpt lat="47.29171" lon="6.55667">
        <ele>558.79998779297</ele>
        <time>2018-05-01T10:58:03.000Z</time>
      </trkpt>
      <trkpt lat="47.29167" lon="6.55671">
        <ele>558.59997558594</ele>
        <time>2018-05-01T10:58:04.000Z</time>
      </trkpt>
      <trkpt lat="47.29144" lon="6.55682">
        <ele>556.79998779297</ele>
        <time>2018-05-01T10:58:09.000Z</time>
      </trkpt>
      <trkpt lat="47.29116" lon="6.5569">
        <ele>555.40002441406</ele>
        <time>2018-05-01T10:58:15.000Z</time>
      </trkpt>
      <trkpt lat="47.29098" lon="6.55692">
        <ele>555.79998779297</ele>
        <time>2018-05-01T10:58:20.000Z</time>
      </trkpt>
      <trkpt lat="47.2907" lon="6.55699">
        <ele>555.59997558594</ele>
        <time>2018-05-01T10:58:27.000Z</time>
      </trkpt>
      <trkpt lat="47.29059" lon="6.55696">
        <ele>555.20001220703</ele>
        <time>2018-05-01T10:58:32.000Z</time>
      </trkpt>
      <trkpt lat="47.29058" lon="6.55696">
        <ele>555.20001220703</ele>
        <time>2018-05-01T10:58:34.000Z</time>
      </trkpt>
      <trkpt lat="47.29058" lon="6.55696">
        <ele>555.20001220703</ele>
        <time>2018-05-01T10:58:36.000Z</time>
      </trkpt>
      <trkpt lat="47.29058" lon="6.55698">
        <ele>555.20001220703</ele>
        <time>2018-05-01T10:58:38.000Z</time>
      </trkpt>
      <trkpt lat="47.29056" lon="6.55697">
        <ele>555.20001220703</ele>
        <time>2018-05-01T10:58:40.000Z</time>
      </trkpt>
      <trkpt lat="47.29055" lon="6.55696">
        <ele>555</ele>
        <time>2018-05-01T10:58:41.000Z</time>
      </trkpt>
      <trkpt lat="47.29055" lon="6.55696">
        <ele>555</ele>
        <time>2018-05-01T10:58:49.000Z</time>
      </trkpt>
      <trkpt lat="47.29055" lon="6.55698">
        <ele>555</ele>
        <time>2018-05-01T10:58:50.000Z</time>
      </trkpt>
      <trkpt lat="47.29052" lon="6.55697">
        <ele>554.79998779297</ele>
        <time>2018-05-01T10:58:53.000Z</time>
      </trkpt>
      <trkpt lat="47.29051" lon="6.55696">
        <ele>554.79998779297</ele>
        <time>2018-05-01T10:58:54.000Z</time>
      </trkpt>
      <trkpt lat="47.29049" lon="6.55696">
        <ele>554.79998779297</ele>
        <time>2018-05-01T10:58:58.000Z</time>
      </trkpt>
      <trkpt lat="47.29048" lon="6.55696">
        <ele>554.79998779297</ele>
        <time>2018-05-01T10:59:02.000Z</time>
      </trkpt>
      <trkpt lat="47.29046" lon="6.55694">
        <ele>554.79998779297</ele>
        <time>2018-05-01T10:59:04.000Z</time>
      </trkpt>
      <trkpt lat="47.29043" lon="6.55693">
        <ele>554.79998779297</ele>
        <time>2018-05-01T10:59:05.000Z</time>
      </trkpt>
      <trkpt lat="47.29036" lon="6.55688">
        <ele>554.59997558594</ele>
        <time>2018-05-01T10:59:08.000Z</time>
      </trkpt>
      <trkpt lat="47.29022" lon="6.55683">
        <ele>554.40002441406</ele>
        <time>2018-05-01T10:59:12.000Z</time>
      </trkpt>
      <trkpt lat="47.29019" lon="6.55682">
        <ele>554.40002441406</ele>
        <time>2018-05-01T10:59:13.000Z</time>
      </trkpt>
      <trkpt lat="47.29009" lon="6.55677">
        <ele>554.40002441406</ele>
        <time>2018-05-01T10:59:16.000Z</time>
      </trkpt>
      <trkpt lat="47.29002" lon="6.55676">
        <ele>554.20001220703</ele>
        <time>2018-05-01T10:59:18.000Z</time>
      </trkpt>
      <trkpt lat="47.28982" lon="6.5567">
        <ele>555.20001220703</ele>
        <time>2018-05-01T10:59:24.000Z</time>
      </trkpt>
      <trkpt lat="47.28976" lon="6.55668">
        <ele>555.59997558594</ele>
        <time>2018-05-01T10:59:26.000Z</time>
      </trkpt>
      <trkpt lat="47.28973" lon="6.55666">
        <ele>555.79998779297</ele>
        <time>2018-05-01T10:59:29.000Z</time>
      </trkpt>
      <trkpt lat="47.28972" lon="6.55666">
        <ele>556</ele>
        <time>2018-05-01T10:59:30.000Z</time>
      </trkpt>
      <trkpt lat="47.28971" lon="6.55667">
        <ele>556</ele>
        <time>2018-05-01T10:59:32.000Z</time>
      </trkpt>
      <trkpt lat="47.2897" lon="6.55667">
        <ele>556</ele>
        <time>2018-05-01T10:59:38.000Z</time>
      </trkpt>
      <trkpt lat="47.2897" lon="6.55667">
        <ele>556</ele>
        <time>2018-05-01T10:59:46.000Z</time>
      </trkpt>
      <trkpt lat="47.2897" lon="6.55667">
        <ele>556</ele>
        <time>2018-05-01T10:59:51.000Z</time>
      </trkpt>
      <trkpt lat="47.28968" lon="6.55662">
        <ele>556.40002441406</ele>
        <time>2018-05-01T10:59:53.000Z</time>
      </trkpt>
      <trkpt lat="47.28969" lon="6.55656">
        <ele>556.40002441406</ele>
        <time>2018-05-01T10:59:55.000Z</time>
      </trkpt>
      <trkpt lat="47.28972" lon="6.55645">
        <ele>557.20001220703</ele>
        <time>2018-05-01T10:59:59.000Z</time>
      </trkpt>
      <trkpt lat="47.28972" lon="6.55638">
        <ele>557.79998779297</ele>
        <time>2018-05-01T11:00:01.000Z</time>
      </trkpt>
      <trkpt lat="47.28973" lon="6.55628">
        <ele>559</ele>
        <time>2018-05-01T11:00:05.000Z</time>
      </trkpt>
      <trkpt lat="47.28973" lon="6.55621">
        <ele>559.79998779297</ele>
        <time>2018-05-01T11:00:07.000Z</time>
      </trkpt>
      <trkpt lat="47.28974" lon="6.55614">
        <ele>560.59997558594</ele>
        <time>2018-05-01T11:00:09.000Z</time>
      </trkpt>
      <trkpt lat="47.28975" lon="6.55603">
        <ele>561.79998779297</ele>
        <time>2018-05-01T11:00:12.000Z</time>
      </trkpt>
      <trkpt lat="47.28976" lon="6.55595">
        <ele>562.59997558594</ele>
        <time>2018-05-01T11:00:14.000Z</time>
      </trkpt>
      <trkpt lat="47.28979" lon="6.55579">
        <ele>564.59997558594</ele>
        <time>2018-05-01T11:00:18.000Z</time>
      </trkpt>
      <trkpt lat="47.2898" lon="6.5557">
        <ele>565.40002441406</ele>
        <time>2018-05-01T11:00:20.000Z</time>
      </trkpt>
      <trkpt lat="47.28982" lon="6.55562">
        <ele>566</ele>
        <time>2018-05-01T11:00:22.000Z</time>
      </trkpt>
      <trkpt lat="47.28987" lon="6.55541">
        <ele>568.40002441406</ele>
        <time>2018-05-01T11:00:28.000Z</time>
      </trkpt>
      <trkpt lat="47.2899" lon="6.55523">
        <ele>570.59997558594</ele>
        <time>2018-05-01T11:00:33.000Z</time>
      </trkpt>
      <trkpt lat="47.28992" lon="6.55516">
        <ele>571.59997558594</ele>
        <time>2018-05-01T11:00:35.000Z</time>
      </trkpt>
      <trkpt lat="47.28993" lon="6.55511">
        <ele>572.40002441406</ele>
        <time>2018-05-01T11:00:37.000Z</time>
      </trkpt>
      <trkpt lat="47.28995" lon="6.55506">
        <ele>573</ele>
        <time>2018-05-01T11:00:39.000Z</time>
      </trkpt>
      <trkpt lat="47.28996" lon="6.55504">
        <ele>573.40002441406</ele>
        <time>2018-05-01T11:00:40.000Z</time>
      </trkpt>
      <trkpt lat="47.28999" lon="6.55499">
        <ele>574.20001220703</ele>
        <time>2018-05-01T11:00:43.000Z</time>
      </trkpt>
      <trkpt lat="47.28999" lon="6.55498">
        <ele>574.20001220703</ele>
        <time>2018-05-01T11:00:45.000Z</time>
      </trkpt>
      <trkpt lat="47.28999" lon="6.55498">
        <ele>574.20001220703</ele>
        <time>2018-05-01T11:00:53.000Z</time>
      </trkpt>
      <trkpt lat="47.28999" lon="6.55499">
        <ele>574.20001220703</ele>
        <time>2018-05-01T11:00:54.000Z</time>
      </trkpt>
      <trkpt lat="47.28998" lon="6.55497">
        <ele>574.40002441406</ele>
        <time>2018-05-01T11:00:57.000Z</time>
      </trkpt>
      <trkpt lat="47.28999" lon="6.55495">
        <ele>574.59997558594</ele>
        <time>2018-05-01T11:00:58.000Z</time>
      </trkpt>
      <trkpt lat="47.29003" lon="6.55478">
        <ele>576.59997558594</ele>
        <time>2018-05-01T11:01:06.000Z</time>
      </trkpt>
      <trkpt lat="47.29007" lon="6.55466">
        <ele>577.40002441406</ele>
        <time>2018-05-01T11:01:12.000Z</time>
      </trkpt>
      <trkpt lat="47.2901" lon="6.55458">
        <ele>578</ele>
        <time>2018-05-01T11:01:16.000Z</time>
      </trkpt>
      <trkpt lat="47.29011" lon="6.55455">
        <ele>578.40002441406</ele>
        <time>2018-05-01T11:01:18.000Z</time>
      </trkpt>
      <trkpt lat="47.29012" lon="6.55453">
        <ele>578.40002441406</ele>
        <time>2018-05-01T11:01:19.000Z</time>
      </trkpt>
      <trkpt lat="47.29014" lon="6.55447">
        <ele>578.79998779297</ele>
        <time>2018-05-01T11:01:22.000Z</time>
      </trkpt>
      <trkpt lat="47.29014" lon="6.55446">
        <ele>579</ele>
        <time>2018-05-01T11:01:23.000Z</time>
      </trkpt>
      <trkpt lat="47.29016" lon="6.55443">
        <ele>579.20001220703</ele>
        <time>2018-05-01T11:01:25.000Z</time>
      </trkpt>
      <trkpt lat="47.2902" lon="6.55436">
        <ele>579.79998779297</ele>
        <time>2018-05-01T11:01:29.000Z</time>
      </trkpt>
      <trkpt lat="47.29021" lon="6.55434">
        <ele>579.79998779297</ele>
        <time>2018-05-01T11:01:30.000Z</time>
      </trkpt>
      <trkpt lat="47.29025" lon="6.55425">
        <ele>580.59997558594</ele>
        <time>2018-05-01T11:01:35.000Z</time>
      </trkpt>
      <trkpt lat="47.2903" lon="6.55415">
        <ele>581.20001220703</ele>
        <time>2018-05-01T11:01:41.000Z</time>
      </trkpt>
      <trkpt lat="47.29031" lon="6.55413">
        <ele>581.20001220703</ele>
        <time>2018-05-01T11:01:42.000Z</time>
      </trkpt>
      <trkpt lat="47.29033" lon="6.5541">
        <ele>581.40002441406</ele>
        <time>2018-05-01T11:01:44.000Z</time>
      </trkpt>
      <trkpt lat="47.29038" lon="6.55403">
        <ele>581.79998779297</ele>
        <time>2018-05-01T11:01:48.000Z</time>
      </trkpt>
      <trkpt lat="47.29039" lon="6.554">
        <ele>582.20001220703</ele>
        <time>2018-05-01T11:01:50.000Z</time>
      </trkpt>
      <trkpt lat="47.2904" lon="6.55396">
        <ele>582.59997558594</ele>
        <time>2018-05-01T11:01:52.000Z</time>
      </trkpt>
      <trkpt lat="47.29041" lon="6.55394">
        <ele>582.79998779297</ele>
        <time>2018-05-01T11:01:53.000Z</time>
      </trkpt>
      <trkpt lat="47.29047" lon="6.55388">
        <ele>583.40002441406</ele>
        <time>2018-05-01T11:01:58.000Z</time>
      </trkpt>
      <trkpt lat="47.2905" lon="6.55384">
        <ele>583.79998779297</ele>
        <time>2018-05-01T11:02:00.000Z</time>
      </trkpt>
      <trkpt lat="47.29056" lon="6.55377">
        <ele>584.59997558594</ele>
        <time>2018-05-01T11:02:05.000Z</time>
      </trkpt>
      <trkpt lat="47.29065" lon="6.55369">
        <ele>585.20001220703</ele>
        <time>2018-05-01T11:02:11.000Z</time>
      </trkpt>
      <trkpt lat="47.29067" lon="6.55367">
        <ele>585.40002441406</ele>
        <time>2018-05-01T11:02:12.000Z</time>
      </trkpt>
      <trkpt lat="47.29071" lon="6.55359">
        <ele>586.20001220703</ele>
        <time>2018-05-01T11:02:15.000Z</time>
      </trkpt>
      <trkpt lat="47.29073" lon="6.55354">
        <ele>586.59997558594</ele>
        <time>2018-05-01T11:02:17.000Z</time>
      </trkpt>
      <trkpt lat="47.2908" lon="6.55347">
        <ele>587.20001220703</ele>
        <time>2018-05-01T11:02:20.000Z</time>
      </trkpt>
      <trkpt lat="47.29087" lon="6.55328">
        <ele>588.79998779297</ele>
        <time>2018-05-01T11:02:26.000Z</time>
      </trkpt>
      <trkpt lat="47.29088" lon="6.55325">
        <ele>589</ele>
        <time>2018-05-01T11:02:27.000Z</time>
      </trkpt>
      <trkpt lat="47.29088" lon="6.55322">
        <ele>589.20001220703</ele>
        <time>2018-05-01T11:02:28.000Z</time>
      </trkpt>
      <trkpt lat="47.2909" lon="6.55319">
        <ele>589.40002441406</ele>
        <time>2018-05-01T11:02:29.000Z</time>
      </trkpt>
      <trkpt lat="47.29094" lon="6.55307">
        <ele>590</ele>
        <time>2018-05-01T11:02:33.000Z</time>
      </trkpt>
      <trkpt lat="47.29098" lon="6.55299">
        <ele>590.40002441406</ele>
        <time>2018-05-01T11:02:36.000Z</time>
      </trkpt>
      <trkpt lat="47.29103" lon="6.5529">
        <ele>591</ele>
        <time>2018-05-01T11:02:39.000Z</time>
      </trkpt>
      <trkpt lat="47.29107" lon="6.5528">
        <ele>591.59997558594</ele>
        <time>2018-05-01T11:02:42.000Z</time>
      </trkpt>
      <trkpt lat="47.2911" lon="6.55274">
        <ele>591.79998779297</ele>
        <time>2018-05-01T11:02:44.000Z</time>
      </trkpt>
      <trkpt lat="47.29113" lon="6.55269">
        <ele>592</ele>
        <time>2018-05-01T11:02:46.000Z</time>
      </trkpt>
      <trkpt lat="47.29115" lon="6.55266">
        <ele>592</ele>
        <time>2018-05-01T11:02:47.000Z</time>
      </trkpt>
      <trkpt lat="47.29117" lon="6.55264">
        <ele>592</ele>
        <time>2018-05-01T11:02:48.000Z</time>
      </trkpt>
      <trkpt lat="47.29121" lon="6.55259">
        <ele>592</ele>
        <time>2018-05-01T11:02:50.000Z</time>
      </trkpt>
      <trkpt lat="47.29126" lon="6.55255">
        <ele>592</ele>
        <time>2018-05-01T11:02:52.000Z</time>
      </trkpt>
      <trkpt lat="47.29131" lon="6.55247">
        <ele>592</ele>
        <time>2018-05-01T11:02:55.000Z</time>
      </trkpt>
      <trkpt lat="47.29135" lon="6.55243">
        <ele>592</ele>
        <time>2018-05-01T11:02:57.000Z</time>
      </trkpt>
      <trkpt lat="47.29139" lon="6.55234">
        <ele>592</ele>
        <time>2018-05-01T11:03:00.000Z</time>
      </trkpt>
      <trkpt lat="47.29142" lon="6.55227">
        <ele>592.40002441406</ele>
        <time>2018-05-01T11:03:02.000Z</time>
      </trkpt>
      <trkpt lat="47.29144" lon="6.55216">
        <ele>593.20001220703</ele>
        <time>2018-05-01T11:03:05.000Z</time>
      </trkpt>
      <trkpt lat="47.29145" lon="6.55205">
        <ele>593.79998779297</ele>
        <time>2018-05-01T11:03:08.000Z</time>
      </trkpt>
      <trkpt lat="47.29145" lon="6.55193">
        <ele>594.59997558594</ele>
        <time>2018-05-01T11:03:11.000Z</time>
      </trkpt>
      <trkpt lat="47.29145" lon="6.55173">
        <ele>596.20001220703</ele>
        <time>2018-05-01T11:03:16.000Z</time>
      </trkpt>
      <trkpt lat="47.29145" lon="6.5517">
        <ele>596.40002441406</ele>
        <time>2018-05-01T11:03:17.000Z</time>
      </trkpt>
      <trkpt lat="47.29143" lon="6.5515">
        <ele>598</ele>
        <time>2018-05-01T11:03:22.000Z</time>
      </trkpt>
      <trkpt lat="47.29143" lon="6.55138">
        <ele>598.79998779297</ele>
        <time>2018-05-01T11:03:25.000Z</time>
      </trkpt>
      <trkpt lat="47.29141" lon="6.55125">
        <ele>599.59997558594</ele>
        <time>2018-05-01T11:03:29.000Z</time>
      </trkpt>
      <trkpt lat="47.29141" lon="6.55122">
        <ele>599.79998779297</ele>
        <time>2018-05-01T11:03:30.000Z</time>
      </trkpt>
      <trkpt lat="47.29139" lon="6.55094">
        <ele>601.40002441406</ele>
        <time>2018-05-01T11:03:37.000Z</time>
      </trkpt>
      <trkpt lat="47.29137" lon="6.5507">
        <ele>602.59997558594</ele>
        <time>2018-05-01T11:03:42.000Z</time>
      </trkpt>
      <trkpt lat="47.29136" lon="6.55055">
        <ele>603</ele>
        <time>2018-05-01T11:03:45.000Z</time>
      </trkpt>
      <trkpt lat="47.29135" lon="6.55042">
        <ele>603.40002441406</ele>
        <time>2018-05-01T11:03:48.000Z</time>
      </trkpt>
      <trkpt lat="47.29132" lon="6.55019">
        <ele>603.79998779297</ele>
        <time>2018-05-01T11:03:53.000Z</time>
      </trkpt>
      <trkpt lat="47.2913" lon="6.55016">
        <ele>604</ele>
        <time>2018-05-01T11:03:54.000Z</time>
      </trkpt>
      <trkpt lat="47.29123" lon="6.55011">
        <ele>604.79998779297</ele>
        <time>2018-05-01T11:03:57.000Z</time>
      </trkpt>
      <trkpt lat="47.29114" lon="6.55005">
        <ele>605.79998779297</ele>
        <time>2018-05-01T11:04:01.000Z</time>
      </trkpt>
      <trkpt lat="47.2911" lon="6.55001">
        <ele>606.40002441406</ele>
        <time>2018-05-01T11:04:03.000Z</time>
      </trkpt>
      <trkpt lat="47.291" lon="6.54993">
        <ele>607.59997558594</ele>
        <time>2018-05-01T11:04:08.000Z</time>
      </trkpt>
      <trkpt lat="47.29095" lon="6.54992">
        <ele>608.20001220703</ele>
        <time>2018-05-01T11:04:11.000Z</time>
      </trkpt>
      <trkpt lat="47.29091" lon="6.54991">
        <ele>608.59997558594</ele>
        <time>2018-05-01T11:04:13.000Z</time>
      </trkpt>
      <trkpt lat="47.29089" lon="6.5499">
        <ele>608.79998779297</ele>
        <time>2018-05-01T11:04:14.000Z</time>
      </trkpt>
      <trkpt lat="47.29082" lon="6.54988">
        <ele>609.79998779297</ele>
        <time>2018-05-01T11:04:18.000Z</time>
      </trkpt>
      <trkpt lat="47.29077" lon="6.54986">
        <ele>610.20001220703</ele>
        <time>2018-05-01T11:04:21.000Z</time>
      </trkpt>
      <trkpt lat="47.29076" lon="6.54985">
        <ele>610.40002441406</ele>
        <time>2018-05-01T11:04:22.000Z</time>
      </trkpt>
      <trkpt lat="47.29074" lon="6.54985">
        <ele>610.59997558594</ele>
        <time>2018-05-01T11:04:23.000Z</time>
      </trkpt>
      <trkpt lat="47.29071" lon="6.54984">
        <ele>610.79998779297</ele>
        <time>2018-05-01T11:04:24.000Z</time>
      </trkpt>
      <trkpt lat="47.29068" lon="6.54983">
        <ele>611</ele>
        <time>2018-05-01T11:04:26.000Z</time>
      </trkpt>
      <trkpt lat="47.29064" lon="6.54981">
        <ele>611.59997558594</ele>
        <time>2018-05-01T11:04:28.000Z</time>
      </trkpt>
      <trkpt lat="47.29062" lon="6.54979">
        <ele>611.79998779297</ele>
        <time>2018-05-01T11:04:29.000Z</time>
      </trkpt>
      <trkpt lat="47.29059" lon="6.54977">
        <ele>612.20001220703</ele>
        <time>2018-05-01T11:04:33.000Z</time>
      </trkpt>
      <trkpt lat="47.29058" lon="6.54976">
        <ele>612.40002441406</ele>
        <time>2018-05-01T11:04:34.000Z</time>
      </trkpt>
      <trkpt lat="47.29054" lon="6.54972">
        <ele>612.79998779297</ele>
        <time>2018-05-01T11:04:36.000Z</time>
      </trkpt>
      <trkpt lat="47.29052" lon="6.5497">
        <ele>613.20001220703</ele>
        <time>2018-05-01T11:04:37.000Z</time>
      </trkpt>
      <trkpt lat="47.29049" lon="6.54968">
        <ele>613.59997558594</ele>
        <time>2018-05-01T11:04:38.000Z</time>
      </trkpt>
      <trkpt lat="47.29042" lon="6.54958">
        <ele>614.79998779297</ele>
        <time>2018-05-01T11:04:42.000Z</time>
      </trkpt>
      <trkpt lat="47.29041" lon="6.54956">
        <ele>615</ele>
        <time>2018-05-01T11:04:43.000Z</time>
      </trkpt>
      <trkpt lat="47.29036" lon="6.54946">
        <ele>616</ele>
        <time>2018-05-01T11:04:47.000Z</time>
      </trkpt>
      <trkpt lat="47.29036" lon="6.54941">
        <ele>616.40002441406</ele>
        <time>2018-05-01T11:04:49.000Z</time>
      </trkpt>
      <trkpt lat="47.29035" lon="6.54938">
        <ele>616.40002441406</ele>
        <time>2018-05-01T11:04:50.000Z</time>
      </trkpt>
      <trkpt lat="47.29034" lon="6.54931">
        <ele>616.59997558594</ele>
        <time>2018-05-01T11:04:53.000Z</time>
      </trkpt>
      <trkpt lat="47.2903" lon="6.54915">
        <ele>616.79998779297</ele>
        <time>2018-05-01T11:04:58.000Z</time>
      </trkpt>
      <trkpt lat="47.29028" lon="6.54908">
        <ele>616.79998779297</ele>
        <time>2018-05-01T11:05:00.000Z</time>
      </trkpt>
      <trkpt lat="47.29027" lon="6.54902">
        <ele>616.79998779297</ele>
        <time>2018-05-01T11:05:02.000Z</time>
      </trkpt>
      <trkpt lat="47.29027" lon="6.54899">
        <ele>616.79998779297</ele>
        <time>2018-05-01T11:05:03.000Z</time>
      </trkpt>
      <trkpt lat="47.29027" lon="6.54892">
        <ele>617</ele>
        <time>2018-05-01T11:05:05.000Z</time>
      </trkpt>
      <trkpt lat="47.29026" lon="6.54881">
        <ele>617.20001220703</ele>
        <time>2018-05-01T11:05:08.000Z</time>
      </trkpt>
      <trkpt lat="47.29024" lon="6.54872">
        <ele>617.79998779297</ele>
        <time>2018-05-01T11:05:11.000Z</time>
      </trkpt>
      <trkpt lat="47.29023" lon="6.54867">
        <ele>617.79998779297</ele>
        <time>2018-05-01T11:05:13.000Z</time>
      </trkpt>
      <trkpt lat="47.29021" lon="6.54861">
        <ele>618.40002441406</ele>
        <time>2018-05-01T11:05:16.000Z</time>
      </trkpt>
      <trkpt lat="47.2902" lon="6.5486">
        <ele>618.59997558594</ele>
        <time>2018-05-01T11:05:17.000Z</time>
      </trkpt>
      <trkpt lat="47.29016" lon="6.54854">
        <ele>619.40002441406</ele>
        <time>2018-05-01T11:05:20.000Z</time>
      </trkpt>
      <trkpt lat="47.29009" lon="6.54849">
        <ele>620.59997558594</ele>
        <time>2018-05-01T11:05:24.000Z</time>
      </trkpt>
      <trkpt lat="47.28993" lon="6.54843">
        <ele>622.79998779297</ele>
        <time>2018-05-01T11:05:32.000Z</time>
      </trkpt>
      <trkpt lat="47.2899" lon="6.54842">
        <ele>623</ele>
        <time>2018-05-01T11:05:33.000Z</time>
      </trkpt>
      <trkpt lat="47.28988" lon="6.5484">
        <ele>623.20001220703</ele>
        <time>2018-05-01T11:05:34.000Z</time>
      </trkpt>
      <trkpt lat="47.28983" lon="6.54837">
        <ele>623.40002441406</ele>
        <time>2018-05-01T11:05:36.000Z</time>
      </trkpt>
      <trkpt lat="47.28978" lon="6.54833">
        <ele>623.59997558594</ele>
        <time>2018-05-01T11:05:38.000Z</time>
      </trkpt>
      <trkpt lat="47.28975" lon="6.54831">
        <ele>623.79998779297</ele>
        <time>2018-05-01T11:05:39.000Z</time>
      </trkpt>
      <trkpt lat="47.28965" lon="6.54826">
        <ele>624.40002441406</ele>
        <time>2018-05-01T11:05:42.000Z</time>
      </trkpt>
      <trkpt lat="47.28949" lon="6.54815">
        <ele>625.20001220703</ele>
        <time>2018-05-01T11:05:47.000Z</time>
      </trkpt>
      <trkpt lat="47.28939" lon="6.54807">
        <ele>625.20001220703</ele>
        <time>2018-05-01T11:05:51.000Z</time>
      </trkpt>
      <trkpt lat="47.28936" lon="6.54805">
        <ele>625.20001220703</ele>
        <time>2018-05-01T11:05:52.000Z</time>
      </trkpt>
      <trkpt lat="47.28923" lon="6.54787">
        <ele>624.59997558594</ele>
        <time>2018-05-01T11:05:57.000Z</time>
      </trkpt>
      <trkpt lat="47.2891" lon="6.54771">
        <ele>624.20001220703</ele>
        <time>2018-05-01T11:06:01.000Z</time>
      </trkpt>
      <trkpt lat="47.28893" lon="6.54751">
        <ele>623.20001220703</ele>
        <time>2018-05-01T11:06:06.000Z</time>
      </trkpt>
      <trkpt lat="47.28885" lon="6.54737">
        <ele>622.59997558594</ele>
        <time>2018-05-01T11:06:09.000Z</time>
      </trkpt>
      <trkpt lat="47.2888" lon="6.54721">
        <ele>622</ele>
        <time>2018-05-01T11:06:12.000Z</time>
      </trkpt>
      <trkpt lat="47.28878" lon="6.54716">
        <ele>621.79998779297</ele>
        <time>2018-05-01T11:06:13.000Z</time>
      </trkpt>
      <trkpt lat="47.28872" lon="6.54695">
        <ele>621.20001220703</ele>
        <time>2018-05-01T11:06:17.000Z</time>
      </trkpt>
      <trkpt lat="47.2886" lon="6.54673">
        <ele>619.20001220703</ele>
        <time>2018-05-01T11:06:21.000Z</time>
      </trkpt>
      <trkpt lat="47.28853" lon="6.54662">
        <ele>618</ele>
        <time>2018-05-01T11:06:23.000Z</time>
      </trkpt>
      <trkpt lat="47.28846" lon="6.54651">
        <ele>617</ele>
        <time>2018-05-01T11:06:25.000Z</time>
      </trkpt>
      <trkpt lat="47.28841" lon="6.54646">
        <ele>617.59997558594</ele>
        <time>2018-05-01T11:06:26.000Z</time>
      </trkpt>
      <trkpt lat="47.28826" lon="6.54631">
        <ele>619</ele>
        <time>2018-05-01T11:06:30.000Z</time>
      </trkpt>
      <trkpt lat="47.28817" lon="6.54625">
        <ele>619.59997558594</ele>
        <time>2018-05-01T11:06:32.000Z</time>
      </trkpt>
      <trkpt lat="47.28801" lon="6.54611">
        <ele>620.59997558594</ele>
        <time>2018-05-01T11:06:36.000Z</time>
      </trkpt>
      <trkpt lat="47.28797" lon="6.54608">
        <ele>620.79998779297</ele>
        <time>2018-05-01T11:06:37.000Z</time>
      </trkpt>
      <trkpt lat="47.28787" lon="6.54592">
        <ele>621</ele>
        <time>2018-05-01T11:06:41.000Z</time>
      </trkpt>
      <trkpt lat="47.28784" lon="6.54587">
        <ele>621</ele>
        <time>2018-05-01T11:06:42.000Z</time>
      </trkpt>
      <trkpt lat="47.28774" lon="6.54564">
        <ele>621</ele>
        <time>2018-05-01T11:06:47.000Z</time>
      </trkpt>
      <trkpt lat="47.28772" lon="6.54551">
        <ele>622.40002441406</ele>
        <time>2018-05-01T11:06:51.000Z</time>
      </trkpt>
      <trkpt lat="47.28771" lon="6.54547">
        <ele>622.79998779297</ele>
        <time>2018-05-01T11:06:52.000Z</time>
      </trkpt>
      <trkpt lat="47.28767" lon="6.54539">
        <ele>623.79998779297</ele>
        <time>2018-05-01T11:06:55.000Z</time>
      </trkpt>
      <trkpt lat="47.28764" lon="6.54534">
        <ele>624.79998779297</ele>
        <time>2018-05-01T11:06:58.000Z</time>
      </trkpt>
      <trkpt lat="47.28762" lon="6.54532">
        <ele>625.20001220703</ele>
        <time>2018-05-01T11:06:59.000Z</time>
      </trkpt>
      <trkpt lat="47.28761" lon="6.5453">
        <ele>625.40002441406</ele>
        <time>2018-05-01T11:07:00.000Z</time>
      </trkpt>
      <trkpt lat="47.2876" lon="6.54525">
        <ele>626</ele>
        <time>2018-05-01T11:07:02.000Z</time>
      </trkpt>
      <trkpt lat="47.28758" lon="6.5452">
        <ele>626.59997558594</ele>
        <time>2018-05-01T11:07:05.000Z</time>
      </trkpt>
      <trkpt lat="47.28758" lon="6.54514">
        <ele>627.20001220703</ele>
        <time>2018-05-01T11:07:07.000Z</time>
      </trkpt>
      <trkpt lat="47.28756" lon="6.54506">
        <ele>628</ele>
        <time>2018-05-01T11:07:10.000Z</time>
      </trkpt>
      <trkpt lat="47.2875" lon="6.54496">
        <ele>629.59997558594</ele>
        <time>2018-05-01T11:07:15.000Z</time>
      </trkpt>
      <trkpt lat="47.28749" lon="6.54493">
        <ele>629.79998779297</ele>
        <time>2018-05-01T11:07:16.000Z</time>
      </trkpt>
      <trkpt lat="47.28741" lon="6.54481">
        <ele>632.20001220703</ele>
        <time>2018-05-01T11:07:22.000Z</time>
      </trkpt>
      <trkpt lat="47.2874" lon="6.5448">
        <ele>632.40002441406</ele>
        <time>2018-05-01T11:07:23.000Z</time>
      </trkpt>
      <trkpt lat="47.28732" lon="6.54474">
        <ele>634.40002441406</ele>
        <time>2018-05-01T11:07:29.000Z</time>
      </trkpt>
      <trkpt lat="47.28728" lon="6.54465">
        <ele>635.20001220703</ele>
        <time>2018-05-01T11:07:35.000Z</time>
      </trkpt>
      <trkpt lat="47.28724" lon="6.54455">
        <ele>635.79998779297</ele>
        <time>2018-05-01T11:07:41.000Z</time>
      </trkpt>
      <trkpt lat="47.28723" lon="6.54454">
        <ele>636</ele>
        <time>2018-05-01T11:07:42.000Z</time>
      </trkpt>
      <trkpt lat="47.28718" lon="6.5445">
        <ele>637.20001220703</ele>
        <time>2018-05-01T11:07:46.000Z</time>
      </trkpt>
      <trkpt lat="47.28716" lon="6.54448">
        <ele>637.59997558594</ele>
        <time>2018-05-01T11:07:48.000Z</time>
      </trkpt>
      <trkpt lat="47.28714" lon="6.54446">
        <ele>638</ele>
        <time>2018-05-01T11:07:53.000Z</time>
      </trkpt>
      <trkpt lat="47.28713" lon="6.54445">
        <ele>638.40002441406</ele>
        <time>2018-05-01T11:07:59.000Z</time>
      </trkpt>
      <trkpt lat="47.28711" lon="6.54444">
        <ele>639</ele>
        <time>2018-05-01T11:08:01.000Z</time>
      </trkpt>
      <trkpt lat="47.28707" lon="6.54441">
        <ele>640</ele>
        <time>2018-05-01T11:08:05.000Z</time>
      </trkpt>
      <trkpt lat="47.28703" lon="6.5444">
        <ele>640.79998779297</ele>
        <time>2018-05-01T11:08:08.000Z</time>
      </trkpt>
      <trkpt lat="47.28701" lon="6.54439">
        <ele>641.40002441406</ele>
        <time>2018-05-01T11:08:09.000Z</time>
      </trkpt>
      <trkpt lat="47.287" lon="6.54439">
        <ele>641.59997558594</ele>
        <time>2018-05-01T11:08:10.000Z</time>
      </trkpt>
      <trkpt lat="47.28698" lon="6.54437">
        <ele>642</ele>
        <time>2018-05-01T11:08:11.000Z</time>
      </trkpt>
      <trkpt lat="47.28693" lon="6.54436">
        <ele>643</ele>
        <time>2018-05-01T11:08:14.000Z</time>
      </trkpt>
      <trkpt lat="47.28692" lon="6.54435">
        <ele>643.40002441406</ele>
        <time>2018-05-01T11:08:15.000Z</time>
      </trkpt>
      <trkpt lat="47.2869" lon="6.54434">
        <ele>643.79998779297</ele>
        <time>2018-05-01T11:08:16.000Z</time>
      </trkpt>
      <trkpt lat="47.28688" lon="6.54432">
        <ele>644.40002441406</ele>
        <time>2018-05-01T11:08:17.000Z</time>
      </trkpt>
      <trkpt lat="47.28683" lon="6.5443">
        <ele>645.20001220703</ele>
        <time>2018-05-01T11:08:19.000Z</time>
      </trkpt>
      <trkpt lat="47.28681" lon="6.54429">
        <ele>645.79998779297</ele>
        <time>2018-05-01T11:08:21.000Z</time>
      </trkpt>
      <trkpt lat="47.28677" lon="6.54428">
        <ele>646.59997558594</ele>
        <time>2018-05-01T11:08:23.000Z</time>
      </trkpt>
      <trkpt lat="47.28671" lon="6.54426">
        <ele>648</ele>
        <time>2018-05-01T11:08:26.000Z</time>
      </trkpt>
      <trkpt lat="47.28667" lon="6.54423">
        <ele>648.79998779297</ele>
        <time>2018-05-01T11:08:29.000Z</time>
      </trkpt>
      <trkpt lat="47.28663" lon="6.5442">
        <ele>649.79998779297</ele>
        <time>2018-05-01T11:08:32.000Z</time>
      </trkpt>
      <trkpt lat="47.28661" lon="6.54419">
        <ele>650.20001220703</ele>
        <time>2018-05-01T11:08:33.000Z</time>
      </trkpt>
      <trkpt lat="47.28659" lon="6.54417">
        <ele>650.40002441406</ele>
        <time>2018-05-01T11:08:34.000Z</time>
      </trkpt>
      <trkpt lat="47.28654" lon="6.54414">
        <ele>651.20001220703</ele>
        <time>2018-05-01T11:08:37.000Z</time>
      </trkpt>
      <trkpt lat="47.2865" lon="6.54412">
        <ele>652</ele>
        <time>2018-05-01T11:08:40.000Z</time>
      </trkpt>
      <trkpt lat="47.28646" lon="6.54411">
        <ele>652.59997558594</ele>
        <time>2018-05-01T11:08:43.000Z</time>
      </trkpt>
      <trkpt lat="47.28644" lon="6.5441">
        <ele>652.79998779297</ele>
        <time>2018-05-01T11:08:46.000Z</time>
      </trkpt>
      <trkpt lat="47.28642" lon="6.54409">
        <ele>653.20001220703</ele>
        <time>2018-05-01T11:08:53.000Z</time>
      </trkpt>
      <trkpt lat="47.28636" lon="6.54407">
        <ele>654.20001220703</ele>
        <time>2018-05-01T11:08:56.000Z</time>
      </trkpt>
      <trkpt lat="47.28627" lon="6.54403">
        <ele>655.59997558594</ele>
        <time>2018-05-01T11:08:59.000Z</time>
      </trkpt>
      <trkpt lat="47.28625" lon="6.54402">
        <ele>656</ele>
        <time>2018-05-01T11:09:00.000Z</time>
      </trkpt>
      <trkpt lat="47.2862" lon="6.54399">
        <ele>656.59997558594</ele>
        <time>2018-05-01T11:09:04.000Z</time>
      </trkpt>
      <trkpt lat="47.28614" lon="6.54395">
        <ele>657.59997558594</ele>
        <time>2018-05-01T11:09:09.000Z</time>
      </trkpt>
      <trkpt lat="47.28613" lon="6.54394">
        <ele>657.79998779297</ele>
        <time>2018-05-01T11:09:10.000Z</time>
      </trkpt>
      <trkpt lat="47.28606" lon="6.54391">
        <ele>658.79998779297</ele>
        <time>2018-05-01T11:09:14.000Z</time>
      </trkpt>
      <trkpt lat="47.28601" lon="6.54389">
        <ele>659.40002441406</ele>
        <time>2018-05-01T11:09:17.000Z</time>
      </trkpt>
      <trkpt lat="47.28599" lon="6.54387">
        <ele>659.79998779297</ele>
        <time>2018-05-01T11:09:18.000Z</time>
      </trkpt>
      <trkpt lat="47.2859" lon="6.54384">
        <ele>661.20001220703</ele>
        <time>2018-05-01T11:09:24.000Z</time>
      </trkpt>
      <trkpt lat="47.28585" lon="6.54381">
        <ele>662</ele>
        <time>2018-05-01T11:09:27.000Z</time>
      </trkpt>
      <trkpt lat="47.2858" lon="6.54378">
        <ele>662.79998779297</ele>
        <time>2018-05-01T11:09:30.000Z</time>
      </trkpt>
      <trkpt lat="47.28579" lon="6.54378">
        <ele>662.79998779297</ele>
        <time>2018-05-01T11:09:31.000Z</time>
      </trkpt>
      <trkpt lat="47.28579" lon="6.54378">
        <ele>662.79998779297</ele>
        <time>2018-05-01T11:09:37.000Z</time>
      </trkpt>
      <trkpt lat="47.28577" lon="6.54377">
        <ele>663.20001220703</ele>
        <time>2018-05-01T11:09:43.000Z</time>
      </trkpt>
      <trkpt lat="47.28571" lon="6.54377">
        <ele>664</ele>
        <time>2018-05-01T11:09:47.000Z</time>
      </trkpt>
      <trkpt lat="47.28568" lon="6.54376">
        <ele>664.59997558594</ele>
        <time>2018-05-01T11:09:50.000Z</time>
      </trkpt>
      <trkpt lat="47.28561" lon="6.54373">
        <ele>665.59997558594</ele>
        <time>2018-05-01T11:09:56.000Z</time>
      </trkpt>
      <trkpt lat="47.28557" lon="6.54371">
        <ele>666.20001220703</ele>
        <time>2018-05-01T11:10:01.000Z</time>
      </trkpt>
      <trkpt lat="47.28557" lon="6.54371">
        <ele>666.20001220703</ele>
        <time>2018-05-01T11:10:02.000Z</time>
      </trkpt>
      <trkpt lat="47.28551" lon="6.5437">
        <ele>667.20001220703</ele>
        <time>2018-05-01T11:10:06.000Z</time>
      </trkpt>
      <trkpt lat="47.28549" lon="6.54369">
        <ele>667.40002441406</ele>
        <time>2018-05-01T11:10:13.000Z</time>
      </trkpt>
      <trkpt lat="47.28549" lon="6.54369">
        <ele>667.40002441406</ele>
        <time>2018-05-01T11:10:20.000Z</time>
      </trkpt>
      <trkpt lat="47.28545" lon="6.54367">
        <ele>668</ele>
        <time>2018-05-01T11:10:24.000Z</time>
      </trkpt>
      <trkpt lat="47.28543" lon="6.54367">
        <ele>668.20001220703</ele>
        <time>2018-05-01T11:10:25.000Z</time>
      </trkpt>
      <trkpt lat="47.28539" lon="6.54365">
        <ele>668.79998779297</ele>
        <time>2018-05-01T11:10:27.000Z</time>
      </trkpt>
      <trkpt lat="47.28532" lon="6.54362">
        <ele>670</ele>
        <time>2018-05-01T11:10:30.000Z</time>
      </trkpt>
      <trkpt lat="47.28529" lon="6.5436">
        <ele>670.40002441406</ele>
        <time>2018-05-01T11:10:37.000Z</time>
      </trkpt>
      <trkpt lat="47.28526" lon="6.54357">
        <ele>671</ele>
        <time>2018-05-01T11:10:39.000Z</time>
      </trkpt>
      <trkpt lat="47.28521" lon="6.54355">
        <ele>671.59997558594</ele>
        <time>2018-05-01T11:10:41.000Z</time>
      </trkpt>
      <trkpt lat="47.28512" lon="6.5435">
        <ele>673</ele>
        <time>2018-05-01T11:10:44.000Z</time>
      </trkpt>
      <trkpt lat="47.28509" lon="6.54348">
        <ele>673.40002441406</ele>
        <time>2018-05-01T11:10:47.000Z</time>
      </trkpt>
      <trkpt lat="47.28505" lon="6.54346">
        <ele>674</ele>
        <time>2018-05-01T11:10:48.000Z</time>
      </trkpt>
      <trkpt lat="47.28501" lon="6.54344">
        <ele>674.59997558594</ele>
        <time>2018-05-01T11:10:49.000Z</time>
      </trkpt>
      <trkpt lat="47.28498" lon="6.54342">
        <ele>675</ele>
        <time>2018-05-01T11:10:50.000Z</time>
      </trkpt>
      <trkpt lat="47.28494" lon="6.5434">
        <ele>675.59997558594</ele>
        <time>2018-05-01T11:10:51.000Z</time>
      </trkpt>
      <trkpt lat="47.28492" lon="6.54338">
        <ele>676</ele>
        <time>2018-05-01T11:10:52.000Z</time>
      </trkpt>
      <trkpt lat="47.28489" lon="6.54336">
        <ele>676.40002441406</ele>
        <time>2018-05-01T11:10:53.000Z</time>
      </trkpt>
      <trkpt lat="47.28487" lon="6.54334">
        <ele>676.79998779297</ele>
        <time>2018-05-01T11:10:54.000Z</time>
      </trkpt>
      <trkpt lat="47.28484" lon="6.54333">
        <ele>677.20001220703</ele>
        <time>2018-05-01T11:10:55.000Z</time>
      </trkpt>
      <trkpt lat="47.28481" lon="6.54331">
        <ele>677.79998779297</ele>
        <time>2018-05-01T11:10:56.000Z</time>
      </trkpt>
      <trkpt lat="47.28477" lon="6.54329">
        <ele>678.40002441406</ele>
        <time>2018-05-01T11:10:57.000Z</time>
      </trkpt>
      <trkpt lat="47.28473" lon="6.54329">
        <ele>679</ele>
        <time>2018-05-01T11:10:58.000Z</time>
      </trkpt>
      <trkpt lat="47.2847" lon="6.54328">
        <ele>679.59997558594</ele>
        <time>2018-05-01T11:10:59.000Z</time>
      </trkpt>
      <trkpt lat="47.28467" lon="6.54328">
        <ele>680</ele>
        <time>2018-05-01T11:11:00.000Z</time>
      </trkpt>
      <trkpt lat="47.28464" lon="6.54327">
        <ele>680.59997558594</ele>
        <time>2018-05-01T11:11:01.000Z</time>
      </trkpt>
      <trkpt lat="47.28458" lon="6.54325">
        <ele>681.40002441406</ele>
        <time>2018-05-01T11:11:03.000Z</time>
      </trkpt>
      <trkpt lat="47.28456" lon="6.54324">
        <ele>681.79998779297</ele>
        <time>2018-05-01T11:11:04.000Z</time>
      </trkpt>
      <trkpt lat="47.28454" lon="6.54323">
        <ele>682.20001220703</ele>
        <time>2018-05-01T11:11:05.000Z</time>
      </trkpt>
      <trkpt lat="47.2845" lon="6.54321">
        <ele>682.79998779297</ele>
        <time>2018-05-01T11:11:06.000Z</time>
      </trkpt>
      <trkpt lat="47.28446" lon="6.54316">
        <ele>683.40002441406</ele>
        <time>2018-05-01T11:11:08.000Z</time>
      </trkpt>
      <trkpt lat="47.28442" lon="6.54314">
        <ele>683.79998779297</ele>
        <time>2018-05-01T11:11:10.000Z</time>
      </trkpt>
      <trkpt lat="47.28438" lon="6.54312">
        <ele>684.20001220703</ele>
        <time>2018-05-01T11:11:12.000Z</time>
      </trkpt>
      <trkpt lat="47.28433" lon="6.54309">
        <ele>684.79998779297</ele>
        <time>2018-05-01T11:11:18.000Z</time>
      </trkpt>
      <trkpt lat="47.28429" lon="6.54307">
        <ele>685.40002441406</ele>
        <time>2018-05-01T11:11:23.000Z</time>
      </trkpt>
      <trkpt lat="47.28429" lon="6.54307">
        <ele>685.40002441406</ele>
        <time>2018-05-01T11:11:25.000Z</time>
      </trkpt>
      <trkpt lat="47.28423" lon="6.54304">
        <ele>686.20001220703</ele>
        <time>2018-05-01T11:11:30.000Z</time>
      </trkpt>
      <trkpt lat="47.28421" lon="6.54303">
        <ele>686.40002441406</ele>
        <time>2018-05-01T11:11:31.000Z</time>
      </trkpt>
      <trkpt lat="47.28418" lon="6.543">
        <ele>686.79998779297</ele>
        <time>2018-05-01T11:11:32.000Z</time>
      </trkpt>
      <trkpt lat="47.28415" lon="6.54298">
        <ele>687</ele>
        <time>2018-05-01T11:11:33.000Z</time>
      </trkpt>
      <trkpt lat="47.28412" lon="6.54295">
        <ele>687.40002441406</ele>
        <time>2018-05-01T11:11:35.000Z</time>
      </trkpt>
      <trkpt lat="47.28408" lon="6.54292">
        <ele>687.59997558594</ele>
        <time>2018-05-01T11:11:37.000Z</time>
      </trkpt>
      <trkpt lat="47.28406" lon="6.5429">
        <ele>687.79998779297</ele>
        <time>2018-05-01T11:11:39.000Z</time>
      </trkpt>
      <trkpt lat="47.28403" lon="6.54285">
        <ele>688</ele>
        <time>2018-05-01T11:11:43.000Z</time>
      </trkpt>
      <trkpt lat="47.28402" lon="6.54284">
        <ele>688</ele>
        <time>2018-05-01T11:11:46.000Z</time>
      </trkpt>
      <trkpt lat="47.28402" lon="6.54284">
        <ele>688</ele>
        <time>2018-05-01T11:11:52.000Z</time>
      </trkpt>
      <trkpt lat="47.28401" lon="6.54283">
        <ele>688.20001220703</ele>
        <time>2018-05-01T11:11:58.000Z</time>
      </trkpt>
      <trkpt lat="47.284" lon="6.54282">
        <ele>688.20001220703</ele>
        <time>2018-05-01T11:11:59.000Z</time>
      </trkpt>
      <trkpt lat="47.28399" lon="6.54281">
        <ele>688.40002441406</ele>
        <time>2018-05-01T11:12:00.000Z</time>
      </trkpt>
      <trkpt lat="47.28396" lon="6.5428">
        <ele>688.79998779297</ele>
        <time>2018-05-01T11:12:02.000Z</time>
      </trkpt>
      <trkpt lat="47.28396" lon="6.5428">
        <ele>688.79998779297</ele>
        <time>2018-05-01T11:12:05.000Z</time>
      </trkpt>
      <trkpt lat="47.28396" lon="6.5428">
        <ele>688.79998779297</ele>
        <time>2018-05-01T11:12:12.000Z</time>
      </trkpt>
      <trkpt lat="47.28396" lon="6.5428">
        <ele>688.79998779297</ele>
        <time>2018-05-01T11:12:21.000Z</time>
      </trkpt>
      <trkpt lat="47.28396" lon="6.5428">
        <ele>688.79998779297</ele>
        <time>2018-05-01T11:12:28.000Z</time>
      </trkpt>
      <trkpt lat="47.28396" lon="6.54281">
        <ele>688.79998779297</ele>
        <time>2018-05-01T11:12:32.000Z</time>
      </trkpt>
      <trkpt lat="47.28397" lon="6.54283">
        <ele>688.79998779297</ele>
        <time>2018-05-01T11:12:34.000Z</time>
      </trkpt>
      <trkpt lat="47.28397" lon="6.54284">
        <ele>689</ele>
        <time>2018-05-01T11:12:36.000Z</time>
      </trkpt>
      <trkpt lat="47.28396" lon="6.54287">
        <ele>689.40002441406</ele>
        <time>2018-05-01T11:12:39.000Z</time>
      </trkpt>
      <trkpt lat="47.28396" lon="6.54288">
        <ele>689.40002441406</ele>
        <time>2018-05-01T11:12:41.000Z</time>
      </trkpt>
      <trkpt lat="47.28395" lon="6.54287">
        <ele>689.59997558594</ele>
        <time>2018-05-01T11:12:44.000Z</time>
      </trkpt>
      <trkpt lat="47.28394" lon="6.54288">
        <ele>689.59997558594</ele>
        <time>2018-05-01T11:12:47.000Z</time>
      </trkpt>
      <trkpt lat="47.28395" lon="6.54289">
        <ele>689.59997558594</ele>
        <time>2018-05-01T11:12:55.000Z</time>
      </trkpt>
      <trkpt lat="47.28394" lon="6.54291">
        <ele>690.20001220703</ele>
        <time>2018-05-01T11:12:59.000Z</time>
      </trkpt>
      <trkpt lat="47.28392" lon="6.54294">
        <ele>690.59997558594</ele>
        <time>2018-05-01T11:13:01.000Z</time>
      </trkpt>
      <trkpt lat="47.28391" lon="6.54299">
        <ele>691</ele>
        <time>2018-05-01T11:13:06.000Z</time>
      </trkpt>
      <trkpt lat="47.28391" lon="6.54301">
        <ele>691</ele>
        <time>2018-05-01T11:13:10.000Z</time>
      </trkpt>
      <trkpt lat="47.2839" lon="6.54304">
        <ele>691.20001220703</ele>
        <time>2018-05-01T11:13:16.000Z</time>
      </trkpt>
      <trkpt lat="47.2839" lon="6.54304">
        <ele>691.20001220703</ele>
        <time>2018-05-01T11:13:27.000Z</time>
      </trkpt>
      <trkpt lat="47.2839" lon="6.54304">
        <ele>691.20001220703</ele>
        <time>2018-05-01T11:13:30.000Z</time>
      </trkpt>
      <trkpt lat="47.28389" lon="6.5431">
        <ele>691.40002441406</ele>
        <time>2018-05-01T11:13:32.000Z</time>
      </trkpt>
      <trkpt lat="47.28389" lon="6.54313">
        <ele>691.59997558594</ele>
        <time>2018-05-01T11:13:33.000Z</time>
      </trkpt>
      <trkpt lat="47.28388" lon="6.54316">
        <ele>691.59997558594</ele>
        <time>2018-05-01T11:13:34.000Z</time>
      </trkpt>
      <trkpt lat="47.28389" lon="6.5432">
        <ele>691.59997558594</ele>
        <time>2018-05-01T11:13:35.000Z</time>
      </trkpt>
      <trkpt lat="47.28389" lon="6.54323">
        <ele>691.79998779297</ele>
        <time>2018-05-01T11:13:36.000Z</time>
      </trkpt>
      <trkpt lat="47.28389" lon="6.54326">
        <ele>691.79998779297</ele>
        <time>2018-05-01T11:13:37.000Z</time>
      </trkpt>
      <trkpt lat="47.28389" lon="6.54329">
        <ele>692</ele>
        <time>2018-05-01T11:13:38.000Z</time>
      </trkpt>
      <trkpt lat="47.2839" lon="6.54335">
        <ele>692.20001220703</ele>
        <time>2018-05-01T11:13:40.000Z</time>
      </trkpt>
      <trkpt lat="47.28391" lon="6.5434">
        <ele>692.20001220703</ele>
        <time>2018-05-01T11:13:42.000Z</time>
      </trkpt>
      <trkpt lat="47.28391" lon="6.54341">
        <ele>692.20001220703</ele>
        <time>2018-05-01T11:13:43.000Z</time>
      </trkpt>
      <trkpt lat="47.28387" lon="6.54353">
        <ele>693.20001220703</ele>
        <time>2018-05-01T11:13:49.000Z</time>
      </trkpt>
      <trkpt lat="47.28386" lon="6.54355">
        <ele>693.20001220703</ele>
        <time>2018-05-01T11:13:50.000Z</time>
      </trkpt>
      <trkpt lat="47.28384" lon="6.54359">
        <ele>693.59997558594</ele>
        <time>2018-05-01T11:13:52.000Z</time>
      </trkpt>
      <trkpt lat="47.28382" lon="6.5436">
        <ele>693.79998779297</ele>
        <time>2018-05-01T11:13:53.000Z</time>
      </trkpt>
      <trkpt lat="47.28379" lon="6.54363">
        <ele>694.20001220703</ele>
        <time>2018-05-01T11:13:55.000Z</time>
      </trkpt>
      <trkpt lat="47.28377" lon="6.54364">
        <ele>694.59997558594</ele>
        <time>2018-05-01T11:13:56.000Z</time>
      </trkpt>
      <trkpt lat="47.28376" lon="6.54365">
        <ele>694.79998779297</ele>
        <time>2018-05-01T11:13:57.000Z</time>
      </trkpt>
      <trkpt lat="47.28372" lon="6.54367">
        <ele>695.20001220703</ele>
        <time>2018-05-01T11:13:59.000Z</time>
      </trkpt>
      <trkpt lat="47.28369" lon="6.54369">
        <ele>695.59997558594</ele>
        <time>2018-05-01T11:14:01.000Z</time>
      </trkpt>
      <trkpt lat="47.28366" lon="6.54371">
        <ele>696</ele>
        <time>2018-05-01T11:14:03.000Z</time>
      </trkpt>
      <trkpt lat="47.28365" lon="6.54372">
        <ele>696.20001220703</ele>
        <time>2018-05-01T11:14:04.000Z</time>
      </trkpt>
      <trkpt lat="47.28362" lon="6.54374">
        <ele>696.59997558594</ele>
        <time>2018-05-01T11:14:06.000Z</time>
      </trkpt>
      <trkpt lat="47.28358" lon="6.54375">
        <ele>697</ele>
        <time>2018-05-01T11:14:08.000Z</time>
      </trkpt>
      <trkpt lat="47.28357" lon="6.54376">
        <ele>697.20001220703</ele>
        <time>2018-05-01T11:14:09.000Z</time>
      </trkpt>
      <trkpt lat="47.28354" lon="6.54378">
        <ele>697.59997558594</ele>
        <time>2018-05-01T11:14:11.000Z</time>
      </trkpt>
      <trkpt lat="47.28351" lon="6.54379">
        <ele>698</ele>
        <time>2018-05-01T11:14:13.000Z</time>
      </trkpt>
      <trkpt lat="47.28346" lon="6.54381">
        <ele>698.40002441406</ele>
        <time>2018-05-01T11:14:16.000Z</time>
      </trkpt>
      <trkpt lat="47.28345" lon="6.54382">
        <ele>698.79998779297</ele>
        <time>2018-05-01T11:14:17.000Z</time>
      </trkpt>
      <trkpt lat="47.28342" lon="6.54385">
        <ele>699.20001220703</ele>
        <time>2018-05-01T11:14:19.000Z</time>
      </trkpt>
      <trkpt lat="47.28337" lon="6.54395">
        <ele>700</ele>
        <time>2018-05-01T11:14:24.000Z</time>
      </trkpt>
      <trkpt lat="47.28334" lon="6.544">
        <ele>700.59997558594</ele>
        <time>2018-05-01T11:14:27.000Z</time>
      </trkpt>
      <trkpt lat="47.28328" lon="6.54407">
        <ele>700.20001220703</ele>
        <time>2018-05-01T11:14:32.000Z</time>
      </trkpt>
      <trkpt lat="47.28327" lon="6.54408">
        <ele>700</ele>
        <time>2018-05-01T11:14:33.000Z</time>
      </trkpt>
      <trkpt lat="47.2832" lon="6.54416">
        <ele>699.20001220703</ele>
        <time>2018-05-01T11:14:39.000Z</time>
      </trkpt>
      <trkpt lat="47.28316" lon="6.5442">
        <ele>699.20001220703</ele>
        <time>2018-05-01T11:14:43.000Z</time>
      </trkpt>
      <trkpt lat="47.28314" lon="6.54423">
        <ele>699</ele>
        <time>2018-05-01T11:14:46.000Z</time>
      </trkpt>
      <trkpt lat="47.28315" lon="6.54421">
        <ele>699</ele>
        <time>2018-05-01T11:14:53.000Z</time>
      </trkpt>
      <trkpt lat="47.2832" lon="6.54414">
        <ele>699.79998779297</ele>
        <time>2018-05-01T11:14:58.000Z</time>
      </trkpt>
      <trkpt lat="47.28319" lon="6.54412">
        <ele>700.20001220703</ele>
        <time>2018-05-01T11:14:59.000Z</time>
      </trkpt>
      <trkpt lat="47.28316" lon="6.5441">
        <ele>701.20001220703</ele>
        <time>2018-05-01T11:15:03.000Z</time>
      </trkpt>
      <trkpt lat="47.28313" lon="6.5441">
        <ele>701.40002441406</ele>
        <time>2018-05-01T11:15:05.000Z</time>
      </trkpt>
      <trkpt lat="47.28312" lon="6.5441">
        <ele>701.59997558594</ele>
        <time>2018-05-01T11:15:06.000Z</time>
      </trkpt>
      <trkpt lat="47.28305" lon="6.54408">
        <ele>702.79998779297</ele>
        <time>2018-05-01T11:15:11.000Z</time>
      </trkpt>
      <trkpt lat="47.28303" lon="6.54409">
        <ele>703</ele>
        <time>2018-05-01T11:15:12.000Z</time>
      </trkpt>
      <trkpt lat="47.28302" lon="6.54409">
        <ele>703.20001220703</ele>
        <time>2018-05-01T11:15:13.000Z</time>
      </trkpt>
      <trkpt lat="47.28299" lon="6.5441">
        <ele>703.40002441406</ele>
        <time>2018-05-01T11:15:15.000Z</time>
      </trkpt>
      <trkpt lat="47.28295" lon="6.54411">
        <ele>703.79998779297</ele>
        <time>2018-05-01T11:15:18.000Z</time>
      </trkpt>
      <trkpt lat="47.28293" lon="6.54411">
        <ele>704</ele>
        <time>2018-05-01T11:15:19.000Z</time>
      </trkpt>
      <trkpt lat="47.2829" lon="6.54411">
        <ele>704.40002441406</ele>
        <time>2018-05-01T11:15:21.000Z</time>
      </trkpt>
      <trkpt lat="47.28286" lon="6.54412">
        <ele>704.59997558594</ele>
        <time>2018-05-01T11:15:24.000Z</time>
      </trkpt>
      <trkpt lat="47.28284" lon="6.54412">
        <ele>704.79998779297</ele>
        <time>2018-05-01T11:15:25.000Z</time>
      </trkpt>
      <trkpt lat="47.2828" lon="6.54414">
        <ele>705</ele>
        <time>2018-05-01T11:15:28.000Z</time>
      </trkpt>
      <trkpt lat="47.28274" lon="6.54415">
        <ele>705.59997558594</ele>
        <time>2018-05-01T11:15:32.000Z</time>
      </trkpt>
      <trkpt lat="47.2827" lon="6.54416">
        <ele>705.79998779297</ele>
        <time>2018-05-01T11:15:35.000Z</time>
      </trkpt>
      <trkpt lat="47.28265" lon="6.5442">
        <ele>705.79998779297</ele>
        <time>2018-05-01T11:15:39.000Z</time>
      </trkpt>
      <trkpt lat="47.28264" lon="6.54421">
        <ele>706.20001220703</ele>
        <time>2018-05-01T11:15:40.000Z</time>
      </trkpt>
      <trkpt lat="47.2826" lon="6.54422">
        <ele>707</ele>
        <time>2018-05-01T11:15:43.000Z</time>
      </trkpt>
      <trkpt lat="47.28255" lon="6.54426">
        <ele>707.79998779297</ele>
        <time>2018-05-01T11:15:47.000Z</time>
      </trkpt>
      <trkpt lat="47.28252" lon="6.54428">
        <ele>708.20001220703</ele>
        <time>2018-05-01T11:15:49.000Z</time>
      </trkpt>
      <trkpt lat="47.28246" lon="6.5443">
        <ele>709.59997558594</ele>
        <time>2018-05-01T11:15:53.000Z</time>
      </trkpt>
      <trkpt lat="47.28244" lon="6.54431">
        <ele>709.79998779297</ele>
        <time>2018-05-01T11:15:54.000Z</time>
      </trkpt>
      <trkpt lat="47.28236" lon="6.54435">
        <ele>710.40002441406</ele>
        <time>2018-05-01T11:16:00.000Z</time>
      </trkpt>
      <trkpt lat="47.28233" lon="6.5444">
        <ele>710.40002441406</ele>
        <time>2018-05-01T11:16:05.000Z</time>
      </trkpt>
      <trkpt lat="47.28231" lon="6.54443">
        <ele>710.59997558594</ele>
        <time>2018-05-01T11:16:07.000Z</time>
      </trkpt>
      <trkpt lat="47.28227" lon="6.54446">
        <ele>710.79998779297</ele>
        <time>2018-05-01T11:16:09.000Z</time>
      </trkpt>
      <trkpt lat="47.28225" lon="6.54447">
        <ele>711</ele>
        <time>2018-05-01T11:16:11.000Z</time>
      </trkpt>
      <trkpt lat="47.28222" lon="6.54448">
        <ele>711.20001220703</ele>
        <time>2018-05-01T11:16:13.000Z</time>
      </trkpt>
      <trkpt lat="47.2822" lon="6.54449">
        <ele>711.40002441406</ele>
        <time>2018-05-01T11:16:16.000Z</time>
      </trkpt>
      <trkpt lat="47.28218" lon="6.54452">
        <ele>711.40002441406</ele>
        <time>2018-05-01T11:16:18.000Z</time>
      </trkpt>
      <trkpt lat="47.28217" lon="6.54453">
        <ele>711.40002441406</ele>
        <time>2018-05-01T11:16:19.000Z</time>
      </trkpt>
      <trkpt lat="47.28212" lon="6.54457">
        <ele>711.79998779297</ele>
        <time>2018-05-01T11:16:22.000Z</time>
      </trkpt>
      <trkpt lat="47.28211" lon="6.54458">
        <ele>712</ele>
        <time>2018-05-01T11:16:23.000Z</time>
      </trkpt>
      <trkpt lat="47.28208" lon="6.54459">
        <ele>712.20001220703</ele>
        <time>2018-05-01T11:16:25.000Z</time>
      </trkpt>
      <trkpt lat="47.28204" lon="6.54462">
        <ele>712.59997558594</ele>
        <time>2018-05-01T11:16:27.000Z</time>
      </trkpt>
      <trkpt lat="47.28199" lon="6.54465">
        <ele>713</ele>
        <time>2018-05-01T11:16:29.000Z</time>
      </trkpt>
      <trkpt lat="47.28194" lon="6.54467">
        <ele>713.40002441406</ele>
        <time>2018-05-01T11:16:31.000Z</time>
      </trkpt>
      <trkpt lat="47.28186" lon="6.54471">
        <ele>714</ele>
        <time>2018-05-01T11:16:35.000Z</time>
      </trkpt>
      <trkpt lat="47.28182" lon="6.54475">
        <ele>714.40002441406</ele>
        <time>2018-05-01T11:16:37.000Z</time>
      </trkpt>
      <trkpt lat="47.28173" lon="6.54479">
        <ele>715.20001220703</ele>
        <time>2018-05-01T11:16:41.000Z</time>
      </trkpt>
      <trkpt lat="47.28161" lon="6.5448">
        <ele>716.40002441406</ele>
        <time>2018-05-01T11:16:44.000Z</time>
      </trkpt>
      <trkpt lat="47.28154" lon="6.54481">
        <ele>717</ele>
        <time>2018-05-01T11:16:47.000Z</time>
      </trkpt>
      <trkpt lat="47.28152" lon="6.5448">
        <ele>717.20001220703</ele>
        <time>2018-05-01T11:16:48.000Z</time>
      </trkpt>
      <trkpt lat="47.2815" lon="6.54479">
        <ele>717.20001220703</ele>
        <time>2018-05-01T11:16:49.000Z</time>
      </trkpt>
      <trkpt lat="47.28147" lon="6.54478">
        <ele>717.59997558594</ele>
        <time>2018-05-01T11:16:51.000Z</time>
      </trkpt>
      <trkpt lat="47.28146" lon="6.54476">
        <ele>717.79998779297</ele>
        <time>2018-05-01T11:16:52.000Z</time>
      </trkpt>
      <trkpt lat="47.28145" lon="6.54474">
        <ele>718</ele>
        <time>2018-05-01T11:16:53.000Z</time>
      </trkpt>
      <trkpt lat="47.28137" lon="6.54472">
        <ele>718.79998779297</ele>
        <time>2018-05-01T11:16:59.000Z</time>
      </trkpt>
      <trkpt lat="47.28135" lon="6.54471">
        <ele>719</ele>
        <time>2018-05-01T11:17:00.000Z</time>
      </trkpt>
      <trkpt lat="47.28133" lon="6.5447">
        <ele>719.20001220703</ele>
        <time>2018-05-01T11:17:01.000Z</time>
      </trkpt>
      <trkpt lat="47.28128" lon="6.54468">
        <ele>719.59997558594</ele>
        <time>2018-05-01T11:17:04.000Z</time>
      </trkpt>
      <trkpt lat="47.28126" lon="6.54467">
        <ele>719.79998779297</ele>
        <time>2018-05-01T11:17:05.000Z</time>
      </trkpt>
      <trkpt lat="47.28119" lon="6.54462">
        <ele>720.79998779297</ele>
        <time>2018-05-01T11:17:10.000Z</time>
      </trkpt>
      <trkpt lat="47.2811" lon="6.54451">
        <ele>722.20001220703</ele>
        <time>2018-05-01T11:17:17.000Z</time>
      </trkpt>
      <trkpt lat="47.28097" lon="6.54445">
        <ele>723.59997558594</ele>
        <time>2018-05-01T11:17:23.000Z</time>
      </trkpt>
      <trkpt lat="47.28091" lon="6.54441">
        <ele>724.20001220703</ele>
        <time>2018-05-01T11:17:26.000Z</time>
      </trkpt>
      <trkpt lat="47.28086" lon="6.54437">
        <ele>725</ele>
        <time>2018-05-01T11:17:28.000Z</time>
      </trkpt>
      <trkpt lat="47.28076" lon="6.54433">
        <ele>725.59997558594</ele>
        <time>2018-05-01T11:17:32.000Z</time>
      </trkpt>
      <trkpt lat="47.2807" lon="6.54432">
        <ele>725.40002441406</ele>
        <time>2018-05-01T11:17:34.000Z</time>
      </trkpt>
      <trkpt lat="47.28061" lon="6.54426">
        <ele>725.40002441406</ele>
        <time>2018-05-01T11:17:38.000Z</time>
      </trkpt>
      <trkpt lat="47.28059" lon="6.54425">
        <ele>725.40002441406</ele>
        <time>2018-05-01T11:17:39.000Z</time>
      </trkpt>
      <trkpt lat="47.28053" lon="6.54422">
        <ele>725.59997558594</ele>
        <time>2018-05-01T11:17:42.000Z</time>
      </trkpt>
      <trkpt lat="47.28048" lon="6.54417">
        <ele>725.59997558594</ele>
        <time>2018-05-01T11:17:45.000Z</time>
      </trkpt>
      <trkpt lat="47.28046" lon="6.54415">
        <ele>725.79998779297</ele>
        <time>2018-05-01T11:17:46.000Z</time>
      </trkpt>
      <trkpt lat="47.28038" lon="6.54407">
        <ele>726</ele>
        <time>2018-05-01T11:17:50.000Z</time>
      </trkpt>
      <trkpt lat="47.28033" lon="6.54403">
        <ele>726.20001220703</ele>
        <time>2018-05-01T11:17:52.000Z</time>
      </trkpt>
      <trkpt lat="47.28023" lon="6.54395">
        <ele>726.59997558594</ele>
        <time>2018-05-01T11:17:57.000Z</time>
      </trkpt>
      <trkpt lat="47.2802" lon="6.54393">
        <ele>726.79998779297</ele>
        <time>2018-05-01T11:17:58.000Z</time>
      </trkpt>
      <trkpt lat="47.28015" lon="6.54388">
        <ele>727</ele>
        <time>2018-05-01T11:18:01.000Z</time>
      </trkpt>
      <trkpt lat="47.28004" lon="6.54377">
        <ele>727.79998779297</ele>
        <time>2018-05-01T11:18:07.000Z</time>
      </trkpt>
      <trkpt lat="47.27997" lon="6.54372">
        <ele>728</ele>
        <time>2018-05-01T11:18:11.000Z</time>
      </trkpt>
      <trkpt lat="47.27993" lon="6.5437">
        <ele>728.20001220703</ele>
        <time>2018-05-01T11:18:13.000Z</time>
      </trkpt>
      <trkpt lat="47.27992" lon="6.54369">
        <ele>728.20001220703</ele>
        <time>2018-05-01T11:18:15.000Z</time>
      </trkpt>
      <trkpt lat="47.27989" lon="6.54368">
        <ele>728.40002441406</ele>
        <time>2018-05-01T11:18:18.000Z</time>
      </trkpt>
      <trkpt lat="47.2799" lon="6.54369">
        <ele>728.20001220703</ele>
        <time>2018-05-01T11:18:22.000Z</time>
      </trkpt>
      <trkpt lat="47.27988" lon="6.54368">
        <ele>728.20001220703</ele>
        <time>2018-05-01T11:18:25.000Z</time>
      </trkpt>
      <trkpt lat="47.27987" lon="6.54367">
        <ele>728.20001220703</ele>
        <time>2018-05-01T11:18:32.000Z</time>
      </trkpt>
      <trkpt lat="47.27986" lon="6.54366">
        <ele>728.40002441406</ele>
        <time>2018-05-01T11:18:36.000Z</time>
      </trkpt>
      <trkpt lat="47.27979" lon="6.54363">
        <ele>728.40002441406</ele>
        <time>2018-05-01T11:18:41.000Z</time>
      </trkpt>
      <trkpt lat="47.27977" lon="6.54362">
        <ele>728.59997558594</ele>
        <time>2018-05-01T11:18:42.000Z</time>
      </trkpt>
      <trkpt lat="47.27969" lon="6.54359">
        <ele>728.40002441406</ele>
        <time>2018-05-01T11:18:46.000Z</time>
      </trkpt>
      <trkpt lat="47.27964" lon="6.54358">
        <ele>728.40002441406</ele>
        <time>2018-05-01T11:18:48.000Z</time>
      </trkpt>
      <trkpt lat="47.27961" lon="6.54357">
        <ele>728.40002441406</ele>
        <time>2018-05-01T11:18:49.000Z</time>
      </trkpt>
      <trkpt lat="47.27957" lon="6.54356">
        <ele>728.40002441406</ele>
        <time>2018-05-01T11:18:50.000Z</time>
      </trkpt>
      <trkpt lat="47.27952" lon="6.54355">
        <ele>728.40002441406</ele>
        <time>2018-05-01T11:18:51.000Z</time>
      </trkpt>
      <trkpt lat="47.27948" lon="6.54353">
        <ele>728.20001220703</ele>
        <time>2018-05-01T11:18:52.000Z</time>
      </trkpt>
      <trkpt lat="47.27942" lon="6.54352">
        <ele>727.79998779297</ele>
        <time>2018-05-01T11:18:53.000Z</time>
      </trkpt>
      <trkpt lat="47.27937" lon="6.5435">
        <ele>727.40002441406</ele>
        <time>2018-05-01T11:18:54.000Z</time>
      </trkpt>
      <trkpt lat="47.27928" lon="6.54347">
        <ele>726.40002441406</ele>
        <time>2018-05-01T11:18:56.000Z</time>
      </trkpt>
      <trkpt lat="47.27918" lon="6.54344">
        <ele>725.79998779297</ele>
        <time>2018-05-01T11:18:58.000Z</time>
      </trkpt>
      <trkpt lat="47.27908" lon="6.5434">
        <ele>725</ele>
        <time>2018-05-01T11:19:00.000Z</time>
      </trkpt>
      <trkpt lat="47.27902" lon="6.54338">
        <ele>724.20001220703</ele>
        <time>2018-05-01T11:19:01.000Z</time>
      </trkpt>
      <trkpt lat="47.27897" lon="6.54338">
        <ele>723.20001220703</ele>
        <time>2018-05-01T11:19:02.000Z</time>
      </trkpt>
      <trkpt lat="47.27891" lon="6.54337">
        <ele>722.40002441406</ele>
        <time>2018-05-01T11:19:03.000Z</time>
      </trkpt>
      <trkpt lat="47.27884" lon="6.54336">
        <ele>721.20001220703</ele>
        <time>2018-05-01T11:19:04.000Z</time>
      </trkpt>
      <trkpt lat="47.27878" lon="6.54335">
        <ele>720.40002441406</ele>
        <time>2018-05-01T11:19:05.000Z</time>
      </trkpt>
      <trkpt lat="47.27871" lon="6.54333">
        <ele>719.40002441406</ele>
        <time>2018-05-01T11:19:06.000Z</time>
      </trkpt>
      <trkpt lat="47.27865" lon="6.54332">
        <ele>718.40002441406</ele>
        <time>2018-05-01T11:19:07.000Z</time>
      </trkpt>
      <trkpt lat="47.27858" lon="6.5433">
        <ele>717.59997558594</ele>
        <time>2018-05-01T11:19:08.000Z</time>
      </trkpt>
      <trkpt lat="47.27851" lon="6.54328">
        <ele>716.59997558594</ele>
        <time>2018-05-01T11:19:09.000Z</time>
      </trkpt>
      <trkpt lat="47.27844" lon="6.54325">
        <ele>716.20001220703</ele>
        <time>2018-05-01T11:19:10.000Z</time>
      </trkpt>
      <trkpt lat="47.27839" lon="6.54322">
        <ele>715.79998779297</ele>
        <time>2018-05-01T11:19:11.000Z</time>
      </trkpt>
      <trkpt lat="47.27833" lon="6.54318">
        <ele>715.59997558594</ele>
        <time>2018-05-01T11:19:12.000Z</time>
      </trkpt>
      <trkpt lat="47.27828" lon="6.54313">
        <ele>715.20001220703</ele>
        <time>2018-05-01T11:19:13.000Z</time>
      </trkpt>
      <trkpt lat="47.27822" lon="6.54307">
        <ele>714.20001220703</ele>
        <time>2018-05-01T11:19:14.000Z</time>
      </trkpt>
      <trkpt lat="47.27818" lon="6.54301">
        <ele>713.79998779297</ele>
        <time>2018-05-01T11:19:15.000Z</time>
      </trkpt>
      <trkpt lat="47.27814" lon="6.54297">
        <ele>713</ele>
        <time>2018-05-01T11:19:16.000Z</time>
      </trkpt>
      <trkpt lat="47.27811" lon="6.54295">
        <ele>712.20001220703</ele>
        <time>2018-05-01T11:19:17.000Z</time>
      </trkpt>
      <trkpt lat="47.27807" lon="6.54294">
        <ele>711.40002441406</ele>
        <time>2018-05-01T11:19:18.000Z</time>
      </trkpt>
      <trkpt lat="47.27804" lon="6.54293">
        <ele>710.59997558594</ele>
        <time>2018-05-01T11:19:19.000Z</time>
      </trkpt>
      <trkpt lat="47.27797" lon="6.54293">
        <ele>709.59997558594</ele>
        <time>2018-05-01T11:19:21.000Z</time>
      </trkpt>
      <trkpt lat="47.27795" lon="6.54294">
        <ele>709.20001220703</ele>
        <time>2018-05-01T11:19:22.000Z</time>
      </trkpt>
      <trkpt lat="47.27794" lon="6.54294">
        <ele>709</ele>
        <time>2018-05-01T11:19:24.000Z</time>
      </trkpt>
      <trkpt lat="47.27792" lon="6.54294">
        <ele>708.59997558594</ele>
        <time>2018-05-01T11:19:30.000Z</time>
      </trkpt>
      <trkpt lat="47.27792" lon="6.54295">
        <ele>708.59997558594</ele>
        <time>2018-05-01T11:19:37.000Z</time>
      </trkpt>
      <trkpt lat="47.27788" lon="6.54295">
        <ele>708</ele>
        <time>2018-05-01T11:19:40.000Z</time>
      </trkpt>
      <trkpt lat="47.27784" lon="6.54294">
        <ele>707.40002441406</ele>
        <time>2018-05-01T11:19:41.000Z</time>
      </trkpt>
      <trkpt lat="47.2778" lon="6.54294">
        <ele>706.59997558594</ele>
        <time>2018-05-01T11:19:42.000Z</time>
      </trkpt>
      <trkpt lat="47.27763" lon="6.54291">
        <ele>703.79998779297</ele>
        <time>2018-05-01T11:19:45.000Z</time>
      </trkpt>
      <trkpt lat="47.27728" lon="6.54288">
        <ele>698.59997558594</ele>
        <time>2018-05-01T11:19:50.000Z</time>
      </trkpt>
      <trkpt lat="47.277" lon="6.5429">
        <ele>696.20001220703</ele>
        <time>2018-05-01T11:19:54.000Z</time>
      </trkpt>
      <trkpt lat="47.27687" lon="6.54291">
        <ele>695.59997558594</ele>
        <time>2018-05-01T11:19:56.000Z</time>
      </trkpt>
      <trkpt lat="47.27668" lon="6.54292">
        <ele>694.40002441406</ele>
        <time>2018-05-01T11:19:59.000Z</time>
      </trkpt>
      <trkpt lat="47.27656" lon="6.54291">
        <ele>694.20001220703</ele>
        <time>2018-05-01T11:20:01.000Z</time>
      </trkpt>
      <trkpt lat="47.27642" lon="6.5429">
        <ele>694.20001220703</ele>
        <time>2018-05-01T11:20:04.000Z</time>
      </trkpt>
      <trkpt lat="47.27633" lon="6.5429">
        <ele>694.40002441406</ele>
        <time>2018-05-01T11:20:06.000Z</time>
      </trkpt>
      <trkpt lat="47.27625" lon="6.5429">
        <ele>695</ele>
        <time>2018-05-01T11:20:08.000Z</time>
      </trkpt>
      <trkpt lat="47.27604" lon="6.54291">
        <ele>696</ele>
        <time>2018-05-01T11:20:13.000Z</time>
      </trkpt>
      <trkpt lat="47.276" lon="6.54292">
        <ele>696.20001220703</ele>
        <time>2018-05-01T11:20:14.000Z</time>
      </trkpt>
      <trkpt lat="47.27588" lon="6.54291">
        <ele>696.79998779297</ele>
        <time>2018-05-01T11:20:17.000Z</time>
      </trkpt>
      <trkpt lat="47.27585" lon="6.54291">
        <ele>697</ele>
        <time>2018-05-01T11:20:18.000Z</time>
      </trkpt>
      <trkpt lat="47.27577" lon="6.54291">
        <ele>697.20001220703</ele>
        <time>2018-05-01T11:20:20.000Z</time>
      </trkpt>
      <trkpt lat="47.27565" lon="6.54289">
        <ele>697.20001220703</ele>
        <time>2018-05-01T11:20:24.000Z</time>
      </trkpt>
      <trkpt lat="47.27551" lon="6.5429">
        <ele>697.20001220703</ele>
        <time>2018-05-01T11:20:29.000Z</time>
      </trkpt>
      <trkpt lat="47.27551" lon="6.5429">
        <ele>697.20001220703</ele>
        <time>2018-05-01T11:20:34.000Z</time>
      </trkpt>
      <trkpt lat="47.27551" lon="6.5429">
        <ele>697.20001220703</ele>
        <time>2018-05-01T11:20:40.000Z</time>
      </trkpt>
      <trkpt lat="47.27551" lon="6.5429">
        <ele>697.20001220703</ele>
        <time>2018-05-01T11:20:57.000Z</time>
      </trkpt>
      <trkpt lat="47.2755" lon="6.54291">
        <ele>697.20001220703</ele>
        <time>2018-05-01T11:21:09.000Z</time>
      </trkpt>
      <trkpt lat="47.2755" lon="6.54291">
        <ele>697.20001220703</ele>
        <time>2018-05-01T11:21:18.000Z</time>
      </trkpt>
      <trkpt lat="47.27545" lon="6.54292">
        <ele>697</ele>
        <time>2018-05-01T11:21:28.000Z</time>
      </trkpt>
      <trkpt lat="47.27542" lon="6.54292">
        <ele>696.79998779297</ele>
        <time>2018-05-01T11:21:29.000Z</time>
      </trkpt>
      <trkpt lat="47.27536" lon="6.54293">
        <ele>696.59997558594</ele>
        <time>2018-05-01T11:21:30.000Z</time>
      </trkpt>
      <trkpt lat="47.27531" lon="6.54294">
        <ele>696.20001220703</ele>
        <time>2018-05-01T11:21:31.000Z</time>
      </trkpt>
      <trkpt lat="47.27526" lon="6.54295">
        <ele>696</ele>
        <time>2018-05-01T11:21:32.000Z</time>
      </trkpt>
      <trkpt lat="47.27522" lon="6.54297">
        <ele>695.79998779297</ele>
        <time>2018-05-01T11:21:33.000Z</time>
      </trkpt>
      <trkpt lat="47.27518" lon="6.54298">
        <ele>695.59997558594</ele>
        <time>2018-05-01T11:21:34.000Z</time>
      </trkpt>
      <trkpt lat="47.2751" lon="6.54303">
        <ele>695.20001220703</ele>
        <time>2018-05-01T11:21:36.000Z</time>
      </trkpt>
      <trkpt lat="47.27503" lon="6.54308">
        <ele>695</ele>
        <time>2018-05-01T11:21:38.000Z</time>
      </trkpt>
      <trkpt lat="47.2749" lon="6.54319">
        <ele>694.40002441406</ele>
        <time>2018-05-01T11:21:41.000Z</time>
      </trkpt>
      <trkpt lat="47.27481" lon="6.54329">
        <ele>693.20001220703</ele>
        <time>2018-05-01T11:21:43.000Z</time>
      </trkpt>
      <trkpt lat="47.27477" lon="6.54334">
        <ele>692.59997558594</ele>
        <time>2018-05-01T11:21:44.000Z</time>
      </trkpt>
      <trkpt lat="47.27474" lon="6.5434">
        <ele>692</ele>
        <time>2018-05-01T11:21:45.000Z</time>
      </trkpt>
      <trkpt lat="47.27467" lon="6.54352">
        <ele>690.79998779297</ele>
        <time>2018-05-01T11:21:47.000Z</time>
      </trkpt>
      <trkpt lat="47.27462" lon="6.54365">
        <ele>689.59997558594</ele>
        <time>2018-05-01T11:21:49.000Z</time>
      </trkpt>
      <trkpt lat="47.27457" lon="6.54378">
        <ele>689.79998779297</ele>
        <time>2018-05-01T11:21:51.000Z</time>
      </trkpt>
      <trkpt lat="47.27453" lon="6.54398">
        <ele>690</ele>
        <time>2018-05-01T11:21:54.000Z</time>
      </trkpt>
      <trkpt lat="47.27451" lon="6.54404">
        <ele>690</ele>
        <time>2018-05-01T11:21:55.000Z</time>
      </trkpt>
      <trkpt lat="47.27448" lon="6.54423">
        <ele>690</ele>
        <time>2018-05-01T11:21:58.000Z</time>
      </trkpt>
      <trkpt lat="47.27444" lon="6.54454">
        <ele>690.59997558594</ele>
        <time>2018-05-01T11:22:03.000Z</time>
      </trkpt>
      <trkpt lat="47.27443" lon="6.54467">
        <ele>690.79998779297</ele>
        <time>2018-05-01T11:22:05.000Z</time>
      </trkpt>
      <trkpt lat="47.2744" lon="6.54492">
        <ele>691.20001220703</ele>
        <time>2018-05-01T11:22:09.000Z</time>
      </trkpt>
      <trkpt lat="47.27438" lon="6.54512">
        <ele>691</ele>
        <time>2018-05-01T11:22:12.000Z</time>
      </trkpt>
      <trkpt lat="47.27436" lon="6.54558">
        <ele>691.20001220703</ele>
        <time>2018-05-01T11:22:19.000Z</time>
      </trkpt>
      <trkpt lat="47.27435" lon="6.54592">
        <ele>690.79998779297</ele>
        <time>2018-05-01T11:22:24.000Z</time>
      </trkpt>
      <trkpt lat="47.27434" lon="6.5462">
        <ele>691.79998779297</ele>
        <time>2018-05-01T11:22:28.000Z</time>
      </trkpt>
      <trkpt lat="47.27434" lon="6.54674">
        <ele>692.40002441406</ele>
        <time>2018-05-01T11:22:36.000Z</time>
      </trkpt>
      <trkpt lat="47.27434" lon="6.5468">
        <ele>692.40002441406</ele>
        <time>2018-05-01T11:22:37.000Z</time>
      </trkpt>
      <trkpt lat="47.27438" lon="6.54734">
        <ele>692</ele>
        <time>2018-05-01T11:22:45.000Z</time>
      </trkpt>
      <trkpt lat="47.27439" lon="6.54741">
        <ele>692.20001220703</ele>
        <time>2018-05-01T11:22:46.000Z</time>
      </trkpt>
      <trkpt lat="47.27442" lon="6.54771">
        <ele>693</ele>
        <time>2018-05-01T11:22:50.000Z</time>
      </trkpt>
      <trkpt lat="47.27445" lon="6.548">
        <ele>693</ele>
        <time>2018-05-01T11:22:54.000Z</time>
      </trkpt>
      <trkpt lat="47.27447" lon="6.54822">
        <ele>693.20001220703</ele>
        <time>2018-05-01T11:22:57.000Z</time>
      </trkpt>
      <trkpt lat="47.2745" lon="6.54841">
        <ele>693.40002441406</ele>
        <time>2018-05-01T11:23:00.000Z</time>
      </trkpt>
      <trkpt lat="47.27451" lon="6.54849">
        <ele>693.59997558594</ele>
        <time>2018-05-01T11:23:02.000Z</time>
      </trkpt>
      <trkpt lat="47.27451" lon="6.54852">
        <ele>693.59997558594</ele>
        <time>2018-05-01T11:23:05.000Z</time>
      </trkpt>
      <trkpt lat="47.27451" lon="6.54855">
        <ele>693.59997558594</ele>
        <time>2018-05-01T11:23:11.000Z</time>
      </trkpt>
      <trkpt lat="47.27451" lon="6.54859">
        <ele>693.59997558594</ele>
        <time>2018-05-01T11:23:12.000Z</time>
      </trkpt>
      <trkpt lat="47.2745" lon="6.54875">
        <ele>693.79998779297</ele>
        <time>2018-05-01T11:23:15.000Z</time>
      </trkpt>
      <trkpt lat="47.27449" lon="6.54881">
        <ele>693.79998779297</ele>
        <time>2018-05-01T11:23:16.000Z</time>
      </trkpt>
      <trkpt lat="47.27443" lon="6.54893">
        <ele>694.20001220703</ele>
        <time>2018-05-01T11:23:18.000Z</time>
      </trkpt>
      <trkpt lat="47.27438" lon="6.54898">
        <ele>694.40002441406</ele>
        <time>2018-05-01T11:23:19.000Z</time>
      </trkpt>
      <trkpt lat="47.27429" lon="6.54906">
        <ele>694.79998779297</ele>
        <time>2018-05-01T11:23:21.000Z</time>
      </trkpt>
      <trkpt lat="47.27419" lon="6.5491">
        <ele>695.20001220703</ele>
        <time>2018-05-01T11:23:23.000Z</time>
      </trkpt>
      <trkpt lat="47.27415" lon="6.54914">
        <ele>695.20001220703</ele>
        <time>2018-05-01T11:23:24.000Z</time>
      </trkpt>
      <trkpt lat="47.27404" lon="6.54923">
        <ele>694.20001220703</ele>
        <time>2018-05-01T11:23:28.000Z</time>
      </trkpt>
      <trkpt lat="47.274" lon="6.54915">
        <ele>694.40002441406</ele>
        <time>2018-05-01T11:23:31.000Z</time>
      </trkpt>
      <trkpt lat="47.274" lon="6.54915">
        <ele>694.40002441406</ele>
        <time>2018-05-01T11:23:34.000Z</time>
      </trkpt>
      <trkpt lat="47.274" lon="6.54915">
        <ele>694.40002441406</ele>
        <time>2018-05-01T11:23:43.000Z</time>
      </trkpt>
      <trkpt lat="47.274" lon="6.54915">
        <ele>694.40002441406</ele>
        <time>2018-05-01T11:24:00.000Z</time>
      </trkpt>
      <trkpt lat="47.274" lon="6.54915">
        <ele>694.40002441406</ele>
        <time>2018-05-01T11:24:15.000Z</time>
      </trkpt>
      <trkpt lat="47.274" lon="6.54915">
        <ele>694.40002441406</ele>
        <time>2018-05-01T11:24:26.000Z</time>
      </trkpt>
      <trkpt lat="47.27399" lon="6.54915">
        <ele>694.40002441406</ele>
        <time>2018-05-01T11:24:33.000Z</time>
      </trkpt>
      <trkpt lat="47.27399" lon="6.54913">
        <ele>694.40002441406</ele>
        <time>2018-05-01T11:24:34.000Z</time>
      </trkpt>
      <trkpt lat="47.2739" lon="6.54898">
        <ele>694.20001220703</ele>
        <time>2018-05-01T11:24:38.000Z</time>
      </trkpt>
      <trkpt lat="47.27388" lon="6.54893">
        <ele>694</ele>
        <time>2018-05-01T11:24:39.000Z</time>
      </trkpt>
      <trkpt lat="47.27382" lon="6.54881">
        <ele>693.40002441406</ele>
        <time>2018-05-01T11:24:41.000Z</time>
      </trkpt>
      <trkpt lat="47.27381" lon="6.54874">
        <ele>693</ele>
        <time>2018-05-01T11:24:42.000Z</time>
      </trkpt>
      <trkpt lat="47.27379" lon="6.54867">
        <ele>692.79998779297</ele>
        <time>2018-05-01T11:24:43.000Z</time>
      </trkpt>
      <trkpt lat="47.27375" lon="6.54852">
        <ele>692.40002441406</ele>
        <time>2018-05-01T11:24:45.000Z</time>
      </trkpt>
      <trkpt lat="47.27374" lon="6.54845">
        <ele>692.20001220703</ele>
        <time>2018-05-01T11:24:46.000Z</time>
      </trkpt>
      <trkpt lat="47.2737" lon="6.54828">
        <ele>691.79998779297</ele>
        <time>2018-05-01T11:24:48.000Z</time>
      </trkpt>
      <trkpt lat="47.27369" lon="6.54819">
        <ele>691.79998779297</ele>
        <time>2018-05-01T11:24:49.000Z</time>
      </trkpt>
      <trkpt lat="47.27361" lon="6.54774">
        <ele>690</ele>
        <time>2018-05-01T11:24:54.000Z</time>
      </trkpt>
      <trkpt lat="47.27358" lon="6.54754">
        <ele>689.40002441406</ele>
        <time>2018-05-01T11:24:56.000Z</time>
      </trkpt>
      <trkpt lat="47.27356" lon="6.54735">
        <ele>688.79998779297</ele>
        <time>2018-05-01T11:24:58.000Z</time>
      </trkpt>
      <trkpt lat="47.27353" lon="6.54705">
        <ele>688.59997558594</ele>
        <time>2018-05-01T11:25:01.000Z</time>
      </trkpt>
      <trkpt lat="47.27352" lon="6.54695">
        <ele>688.40002441406</ele>
        <time>2018-05-01T11:25:02.000Z</time>
      </trkpt>
      <trkpt lat="47.27349" lon="6.54643">
        <ele>688</ele>
        <time>2018-05-01T11:25:07.000Z</time>
      </trkpt>
      <trkpt lat="47.27348" lon="6.54632">
        <ele>687.79998779297</ele>
        <time>2018-05-01T11:25:08.000Z</time>
      </trkpt>
      <trkpt lat="47.27344" lon="6.54578">
        <ele>686.59997558594</ele>
        <time>2018-05-01T11:25:13.000Z</time>
      </trkpt>
      <trkpt lat="47.27342" lon="6.54555">
        <ele>685.79998779297</ele>
        <time>2018-05-01T11:25:15.000Z</time>
      </trkpt>
      <trkpt lat="47.27339" lon="6.54522">
        <ele>684.59997558594</ele>
        <time>2018-05-01T11:25:18.000Z</time>
      </trkpt>
      <trkpt lat="47.27331" lon="6.54466">
        <ele>683.20001220703</ele>
        <time>2018-05-01T11:25:23.000Z</time>
      </trkpt>
      <trkpt lat="47.27329" lon="6.54454">
        <ele>683</ele>
        <time>2018-05-01T11:25:24.000Z</time>
      </trkpt>
      <trkpt lat="47.27322" lon="6.54407">
        <ele>683</ele>
        <time>2018-05-01T11:25:28.000Z</time>
      </trkpt>
      <trkpt lat="47.27319" lon="6.54383">
        <ele>682.79998779297</ele>
        <time>2018-05-01T11:25:30.000Z</time>
      </trkpt>
      <trkpt lat="47.2731" lon="6.54324">
        <ele>681.40002441406</ele>
        <time>2018-05-01T11:25:35.000Z</time>
      </trkpt>
      <trkpt lat="47.27307" lon="6.54299">
        <ele>680.59997558594</ele>
        <time>2018-05-01T11:25:37.000Z</time>
      </trkpt>
      <trkpt lat="47.27302" lon="6.54229">
        <ele>678.79998779297</ele>
        <time>2018-05-01T11:25:43.000Z</time>
      </trkpt>
      <trkpt lat="47.27302" lon="6.54206">
        <ele>678.40002441406</ele>
        <time>2018-05-01T11:25:45.000Z</time>
      </trkpt>
      <trkpt lat="47.273" lon="6.54151">
        <ele>677</ele>
        <time>2018-05-01T11:25:50.000Z</time>
      </trkpt>
      <trkpt lat="47.27298" lon="6.54091">
        <ele>679.20001220703</ele>
        <time>2018-05-01T11:25:56.000Z</time>
      </trkpt>
      <trkpt lat="47.27295" lon="6.54043">
        <ele>680.59997558594</ele>
        <time>2018-05-01T11:26:01.000Z</time>
      </trkpt>
      <trkpt lat="47.27294" lon="6.54034">
        <ele>681</ele>
        <time>2018-05-01T11:26:02.000Z</time>
      </trkpt>
      <trkpt lat="47.27289" lon="6.54009">
        <ele>681.40002441406</ele>
        <time>2018-05-01T11:26:05.000Z</time>
      </trkpt>
      <trkpt lat="47.27281" lon="6.53978">
        <ele>682</ele>
        <time>2018-05-01T11:26:09.000Z</time>
      </trkpt>
      <trkpt lat="47.27277" lon="6.53962">
        <ele>681.79998779297</ele>
        <time>2018-05-01T11:26:11.000Z</time>
      </trkpt>
      <trkpt lat="47.2727" lon="6.53932">
        <ele>681.79998779297</ele>
        <time>2018-05-01T11:26:15.000Z</time>
      </trkpt>
      <trkpt lat="47.27268" lon="6.53925">
        <ele>681.79998779297</ele>
        <time>2018-05-01T11:26:16.000Z</time>
      </trkpt>
      <trkpt lat="47.27256" lon="6.53872">
        <ele>681.40002441406</ele>
        <time>2018-05-01T11:26:23.000Z</time>
      </trkpt>
      <trkpt lat="47.27254" lon="6.53864">
        <ele>681.20001220703</ele>
        <time>2018-05-01T11:26:24.000Z</time>
      </trkpt>
      <trkpt lat="47.27239" lon="6.538">
        <ele>680.59997558594</ele>
        <time>2018-05-01T11:26:32.000Z</time>
      </trkpt>
      <trkpt lat="47.27223" lon="6.53734">
        <ele>682.59997558594</ele>
        <time>2018-05-01T11:26:40.000Z</time>
      </trkpt>
      <trkpt lat="47.27212" lon="6.53668">
        <ele>681.79998779297</ele>
        <time>2018-05-01T11:26:47.000Z</time>
      </trkpt>
      <trkpt lat="47.27208" lon="6.53631">
        <ele>681.59997558594</ele>
        <time>2018-05-01T11:26:51.000Z</time>
      </trkpt>
      <trkpt lat="47.27203" lon="6.53585">
        <ele>681.79998779297</ele>
        <time>2018-05-01T11:26:56.000Z</time>
      </trkpt>
      <trkpt lat="47.27194" lon="6.53503">
        <ele>682</ele>
        <time>2018-05-01T11:27:05.000Z</time>
      </trkpt>
      <trkpt lat="47.27193" lon="6.53495">
        <ele>682.40002441406</ele>
        <time>2018-05-01T11:27:06.000Z</time>
      </trkpt>
      <trkpt lat="47.27192" lon="6.53485">
        <ele>682.59997558594</ele>
        <time>2018-05-01T11:27:07.000Z</time>
      </trkpt>
      <trkpt lat="47.27184" lon="6.53415">
        <ele>683.20001220703</ele>
        <time>2018-05-01T11:27:15.000Z</time>
      </trkpt>
      <trkpt lat="47.27182" lon="6.53388">
        <ele>683.40002441406</ele>
        <time>2018-05-01T11:27:18.000Z</time>
      </trkpt>
      <trkpt lat="47.27179" lon="6.53335">
        <ele>684</ele>
        <time>2018-05-01T11:27:24.000Z</time>
      </trkpt>
      <trkpt lat="47.27186" lon="6.5328">
        <ele>685.59997558594</ele>
        <time>2018-05-01T11:27:30.000Z</time>
      </trkpt>
      <trkpt lat="47.27203" lon="6.53205">
        <ele>688.59997558594</ele>
        <time>2018-05-01T11:27:39.000Z</time>
      </trkpt>
      <trkpt lat="47.27204" lon="6.53197">
        <ele>689.20001220703</ele>
        <time>2018-05-01T11:27:40.000Z</time>
      </trkpt>
      <trkpt lat="47.27216" lon="6.53146">
        <ele>692.20001220703</ele>
        <time>2018-05-01T11:27:47.000Z</time>
      </trkpt>
      <trkpt lat="47.27217" lon="6.53139">
        <ele>692.20001220703</ele>
        <time>2018-05-01T11:27:48.000Z</time>
      </trkpt>
      <trkpt lat="47.27224" lon="6.53105">
        <ele>692.59997558594</ele>
        <time>2018-05-01T11:27:53.000Z</time>
      </trkpt>
      <trkpt lat="47.27225" lon="6.53098">
        <ele>692.79998779297</ele>
        <time>2018-05-01T11:27:54.000Z</time>
      </trkpt>
      <trkpt lat="47.27229" lon="6.53059">
        <ele>693.20001220703</ele>
        <time>2018-05-01T11:28:00.000Z</time>
      </trkpt>
      <trkpt lat="47.27229" lon="6.53032">
        <ele>693</ele>
        <time>2018-05-01T11:28:04.000Z</time>
      </trkpt>
      <trkpt lat="47.27228" lon="6.53003">
        <ele>693</ele>
        <time>2018-05-01T11:28:08.000Z</time>
      </trkpt>
      <trkpt lat="47.27224" lon="6.52949">
        <ele>692.59997558594</ele>
        <time>2018-05-01T11:28:15.000Z</time>
      </trkpt>
      <trkpt lat="47.27221" lon="6.529">
        <ele>694.20001220703</ele>
        <time>2018-05-01T11:28:21.000Z</time>
      </trkpt>
      <trkpt lat="47.2722" lon="6.52876">
        <ele>693.79998779297</ele>
        <time>2018-05-01T11:28:24.000Z</time>
      </trkpt>
      <trkpt lat="47.27218" lon="6.52801">
        <ele>691</ele>
        <time>2018-05-01T11:28:33.000Z</time>
      </trkpt>
      <trkpt lat="47.27225" lon="6.52728">
        <ele>689.59997558594</ele>
        <time>2018-05-01T11:28:42.000Z</time>
      </trkpt>
      <trkpt lat="47.27237" lon="6.52673">
        <ele>691</ele>
        <time>2018-05-01T11:28:49.000Z</time>
      </trkpt>
      <trkpt lat="47.27252" lon="6.52604">
        <ele>694.20001220703</ele>
        <time>2018-05-01T11:28:58.000Z</time>
      </trkpt>
      <trkpt lat="47.27258" lon="6.52573">
        <ele>696</ele>
        <time>2018-05-01T11:29:02.000Z</time>
      </trkpt>
      <trkpt lat="47.27262" lon="6.52552">
        <ele>696.59997558594</ele>
        <time>2018-05-01T11:29:05.000Z</time>
      </trkpt>
      <trkpt lat="47.27265" lon="6.5254">
        <ele>696.79998779297</ele>
        <time>2018-05-01T11:29:07.000Z</time>
      </trkpt>
      <trkpt lat="47.27268" lon="6.52528">
        <ele>697.20001220703</ele>
        <time>2018-05-01T11:29:09.000Z</time>
      </trkpt>
      <trkpt lat="47.2727" lon="6.52523">
        <ele>697.59997558594</ele>
        <time>2018-05-01T11:29:10.000Z</time>
      </trkpt>
      <trkpt lat="47.27273" lon="6.52517">
        <ele>698</ele>
        <time>2018-05-01T11:29:11.000Z</time>
      </trkpt>
      <trkpt lat="47.27276" lon="6.52512">
        <ele>698.20001220703</ele>
        <time>2018-05-01T11:29:12.000Z</time>
      </trkpt>
      <trkpt lat="47.27279" lon="6.52507">
        <ele>698.40002441406</ele>
        <time>2018-05-01T11:29:13.000Z</time>
      </trkpt>
      <trkpt lat="47.27289" lon="6.52495">
        <ele>699</ele>
        <time>2018-05-01T11:29:16.000Z</time>
      </trkpt>
      <trkpt lat="47.27297" lon="6.52487">
        <ele>699.59997558594</ele>
        <time>2018-05-01T11:29:18.000Z</time>
      </trkpt>
      <trkpt lat="47.27306" lon="6.5247">
        <ele>702.40002441406</ele>
        <time>2018-05-01T11:29:21.000Z</time>
      </trkpt>
      <trkpt lat="47.27308" lon="6.52464">
        <ele>703.40002441406</ele>
        <time>2018-05-01T11:29:22.000Z</time>
      </trkpt>
      <trkpt lat="47.2732" lon="6.52427">
        <ele>703.40002441406</ele>
        <time>2018-05-01T11:29:28.000Z</time>
      </trkpt>
      <trkpt lat="47.27321" lon="6.52421">
        <ele>703.20001220703</ele>
        <time>2018-05-01T11:29:29.000Z</time>
      </trkpt>
      <trkpt lat="47.27324" lon="6.52414">
        <ele>703.20001220703</ele>
        <time>2018-05-01T11:29:30.000Z</time>
      </trkpt>
      <trkpt lat="47.2733" lon="6.52391">
        <ele>703.40002441406</ele>
        <time>2018-05-01T11:29:34.000Z</time>
      </trkpt>
      <trkpt lat="47.27334" lon="6.52379">
        <ele>705</ele>
        <time>2018-05-01T11:29:36.000Z</time>
      </trkpt>
      <trkpt lat="47.27337" lon="6.52373">
        <ele>706.20001220703</ele>
        <time>2018-05-01T11:29:37.000Z</time>
      </trkpt>
      <trkpt lat="47.2734" lon="6.52361">
        <ele>707.40002441406</ele>
        <time>2018-05-01T11:29:39.000Z</time>
      </trkpt>
      <trkpt lat="47.27342" lon="6.52355">
        <ele>708.20001220703</ele>
        <time>2018-05-01T11:29:40.000Z</time>
      </trkpt>
      <trkpt lat="47.27346" lon="6.52336">
        <ele>710.20001220703</ele>
        <time>2018-05-01T11:29:43.000Z</time>
      </trkpt>
      <trkpt lat="47.27348" lon="6.5233">
        <ele>710.40002441406</ele>
        <time>2018-05-01T11:29:44.000Z</time>
      </trkpt>
      <trkpt lat="47.27351" lon="6.52317">
        <ele>710.59997558594</ele>
        <time>2018-05-01T11:29:46.000Z</time>
      </trkpt>
      <trkpt lat="47.27351" lon="6.5231">
        <ele>710.79998779297</ele>
        <time>2018-05-01T11:29:47.000Z</time>
      </trkpt>
      <trkpt lat="47.27352" lon="6.52304">
        <ele>711.20001220703</ele>
        <time>2018-05-01T11:29:48.000Z</time>
      </trkpt>
      <trkpt lat="47.27355" lon="6.52291">
        <ele>712.20001220703</ele>
        <time>2018-05-01T11:29:50.000Z</time>
      </trkpt>
      <trkpt lat="47.27358" lon="6.52277">
        <ele>712.79998779297</ele>
        <time>2018-05-01T11:29:52.000Z</time>
      </trkpt>
      <trkpt lat="47.27359" lon="6.52264">
        <ele>713.40002441406</ele>
        <time>2018-05-01T11:29:54.000Z</time>
      </trkpt>
      <trkpt lat="47.2736" lon="6.5225">
        <ele>713.59997558594</ele>
        <time>2018-05-01T11:29:56.000Z</time>
      </trkpt>
      <trkpt lat="47.2736" lon="6.52237">
        <ele>713.59997558594</ele>
        <time>2018-05-01T11:29:58.000Z</time>
      </trkpt>
      <trkpt lat="47.2736" lon="6.52223">
        <ele>713.59997558594</ele>
        <time>2018-05-01T11:30:00.000Z</time>
      </trkpt>
      <trkpt lat="47.27361" lon="6.52209">
        <ele>713.59997558594</ele>
        <time>2018-05-01T11:30:02.000Z</time>
      </trkpt>
      <trkpt lat="47.27361" lon="6.52195">
        <ele>713.40002441406</ele>
        <time>2018-05-01T11:30:04.000Z</time>
      </trkpt>
      <trkpt lat="47.27362" lon="6.52189">
        <ele>713.59997558594</ele>
        <time>2018-05-01T11:30:05.000Z</time>
      </trkpt>
      <trkpt lat="47.27362" lon="6.52182">
        <ele>713.59997558594</ele>
        <time>2018-05-01T11:30:06.000Z</time>
      </trkpt>
      <trkpt lat="47.27362" lon="6.52168">
        <ele>713.40002441406</ele>
        <time>2018-05-01T11:30:08.000Z</time>
      </trkpt>
      <trkpt lat="47.27362" lon="6.52162">
        <ele>713.40002441406</ele>
        <time>2018-05-01T11:30:09.000Z</time>
      </trkpt>
      <trkpt lat="47.27362" lon="6.52155">
        <ele>713.40002441406</ele>
        <time>2018-05-01T11:30:10.000Z</time>
      </trkpt>
      <trkpt lat="47.27363" lon="6.52142">
        <ele>713.59997558594</ele>
        <time>2018-05-01T11:30:12.000Z</time>
      </trkpt>
      <trkpt lat="47.27364" lon="6.52128">
        <ele>714.20001220703</ele>
        <time>2018-05-01T11:30:14.000Z</time>
      </trkpt>
      <trkpt lat="47.27365" lon="6.52114">
        <ele>714.79998779297</ele>
        <time>2018-05-01T11:30:16.000Z</time>
      </trkpt>
      <trkpt lat="47.27365" lon="6.52108">
        <ele>715</ele>
        <time>2018-05-01T11:30:17.000Z</time>
      </trkpt>
      <trkpt lat="47.27366" lon="6.52102">
        <ele>715.20001220703</ele>
        <time>2018-05-01T11:30:18.000Z</time>
      </trkpt>
      <trkpt lat="47.27367" lon="6.52089">
        <ele>715</ele>
        <time>2018-05-01T11:30:20.000Z</time>
      </trkpt>
      <trkpt lat="47.27369" lon="6.52076">
        <ele>715.20001220703</ele>
        <time>2018-05-01T11:30:22.000Z</time>
      </trkpt>
      <trkpt lat="47.27369" lon="6.52057">
        <ele>715.59997558594</ele>
        <time>2018-05-01T11:30:25.000Z</time>
      </trkpt>
      <trkpt lat="47.27369" lon="6.5205">
        <ele>715.79998779297</ele>
        <time>2018-05-01T11:30:26.000Z</time>
      </trkpt>
      <trkpt lat="47.27369" lon="6.52044">
        <ele>716.20001220703</ele>
        <time>2018-05-01T11:30:27.000Z</time>
      </trkpt>
      <trkpt lat="47.2737" lon="6.52031">
        <ele>717</ele>
        <time>2018-05-01T11:30:29.000Z</time>
      </trkpt>
      <trkpt lat="47.27372" lon="6.52017">
        <ele>717.59997558594</ele>
        <time>2018-05-01T11:30:31.000Z</time>
      </trkpt>
      <trkpt lat="47.27372" lon="6.52011">
        <ele>717.79998779297</ele>
        <time>2018-05-01T11:30:32.000Z</time>
      </trkpt>
      <trkpt lat="47.27373" lon="6.52004">
        <ele>718</ele>
        <time>2018-05-01T11:30:33.000Z</time>
      </trkpt>
      <trkpt lat="47.27374" lon="6.51991">
        <ele>718.40002441406</ele>
        <time>2018-05-01T11:30:35.000Z</time>
      </trkpt>
      <trkpt lat="47.27374" lon="6.51984">
        <ele>718.59997558594</ele>
        <time>2018-05-01T11:30:36.000Z</time>
      </trkpt>
      <trkpt lat="47.27375" lon="6.5197">
        <ele>719</ele>
        <time>2018-05-01T11:30:38.000Z</time>
      </trkpt>
      <trkpt lat="47.27376" lon="6.51963">
        <ele>719.40002441406</ele>
        <time>2018-05-01T11:30:39.000Z</time>
      </trkpt>
      <trkpt lat="47.27378" lon="6.5195">
        <ele>720</ele>
        <time>2018-05-01T11:30:41.000Z</time>
      </trkpt>
      <trkpt lat="47.27379" lon="6.51943">
        <ele>719.59997558594</ele>
        <time>2018-05-01T11:30:42.000Z</time>
      </trkpt>
      <trkpt lat="47.27378" lon="6.51921">
        <ele>718.40002441406</ele>
        <time>2018-05-01T11:30:45.000Z</time>
      </trkpt>
      <trkpt lat="47.27378" lon="6.51906">
        <ele>717.40002441406</ele>
        <time>2018-05-01T11:30:47.000Z</time>
      </trkpt>
      <trkpt lat="47.27379" lon="6.51899">
        <ele>717</ele>
        <time>2018-05-01T11:30:48.000Z</time>
      </trkpt>
      <trkpt lat="47.2738" lon="6.51877">
        <ele>717</ele>
        <time>2018-05-01T11:30:51.000Z</time>
      </trkpt>
      <trkpt lat="47.27381" lon="6.51861">
        <ele>716.79998779297</ele>
        <time>2018-05-01T11:30:53.000Z</time>
      </trkpt>
      <trkpt lat="47.27383" lon="6.51838">
        <ele>716.40002441406</ele>
        <time>2018-05-01T11:30:56.000Z</time>
      </trkpt>
      <trkpt lat="47.27385" lon="6.51822">
        <ele>716.20001220703</ele>
        <time>2018-05-01T11:30:58.000Z</time>
      </trkpt>
      <trkpt lat="47.27387" lon="6.51799">
        <ele>716.59997558594</ele>
        <time>2018-05-01T11:31:01.000Z</time>
      </trkpt>
      <trkpt lat="47.27387" lon="6.51783">
        <ele>716.59997558594</ele>
        <time>2018-05-01T11:31:03.000Z</time>
      </trkpt>
      <trkpt lat="47.27388" lon="6.51776">
        <ele>716.59997558594</ele>
        <time>2018-05-01T11:31:04.000Z</time>
      </trkpt>
      <trkpt lat="47.2739" lon="6.51752">
        <ele>716.40002441406</ele>
        <time>2018-05-01T11:31:07.000Z</time>
      </trkpt>
      <trkpt lat="47.27391" lon="6.51737">
        <ele>716.20001220703</ele>
        <time>2018-05-01T11:31:09.000Z</time>
      </trkpt>
      <trkpt lat="47.27391" lon="6.51729">
        <ele>716.20001220703</ele>
        <time>2018-05-01T11:31:10.000Z</time>
      </trkpt>
      <trkpt lat="47.27392" lon="6.51712">
        <ele>716.40002441406</ele>
        <time>2018-05-01T11:31:12.000Z</time>
      </trkpt>
      <trkpt lat="47.27392" lon="6.51686">
        <ele>715.79998779297</ele>
        <time>2018-05-01T11:31:15.000Z</time>
      </trkpt>
      <trkpt lat="47.27392" lon="6.51668">
        <ele>715.40002441406</ele>
        <time>2018-05-01T11:31:17.000Z</time>
      </trkpt>
      <trkpt lat="47.27392" lon="6.51659">
        <ele>715.20001220703</ele>
        <time>2018-05-01T11:31:18.000Z</time>
      </trkpt>
      <trkpt lat="47.27391" lon="6.5162">
        <ele>716.20001220703</ele>
        <time>2018-05-01T11:31:22.000Z</time>
      </trkpt>
      <trkpt lat="47.27392" lon="6.5161">
        <ele>716</ele>
        <time>2018-05-01T11:31:23.000Z</time>
      </trkpt>
      <trkpt lat="47.27392" lon="6.51599">
        <ele>716</ele>
        <time>2018-05-01T11:31:24.000Z</time>
      </trkpt>
      <trkpt lat="47.27393" lon="6.51569">
        <ele>715.40002441406</ele>
        <time>2018-05-01T11:31:27.000Z</time>
      </trkpt>
      <trkpt lat="47.27391" lon="6.5156">
        <ele>715.79998779297</ele>
        <time>2018-05-01T11:31:28.000Z</time>
      </trkpt>
      <trkpt lat="47.27389" lon="6.5154">
        <ele>716.59997558594</ele>
        <time>2018-05-01T11:31:30.000Z</time>
      </trkpt>
      <trkpt lat="47.27381" lon="6.51512">
        <ele>717.20001220703</ele>
        <time>2018-05-01T11:31:33.000Z</time>
      </trkpt>
      <trkpt lat="47.2738" lon="6.51502">
        <ele>717.20001220703</ele>
        <time>2018-05-01T11:31:34.000Z</time>
      </trkpt>
      <trkpt lat="47.2738" lon="6.51491">
        <ele>717</ele>
        <time>2018-05-01T11:31:35.000Z</time>
      </trkpt>
      <trkpt lat="47.27379" lon="6.51481">
        <ele>717</ele>
        <time>2018-05-01T11:31:36.000Z</time>
      </trkpt>
      <trkpt lat="47.2738" lon="6.51471">
        <ele>716.40002441406</ele>
        <time>2018-05-01T11:31:37.000Z</time>
      </trkpt>
      <trkpt lat="47.2738" lon="6.51459">
        <ele>716</ele>
        <time>2018-05-01T11:31:38.000Z</time>
      </trkpt>
      <trkpt lat="47.27381" lon="6.51447">
        <ele>715.40002441406</ele>
        <time>2018-05-01T11:31:39.000Z</time>
      </trkpt>
      <trkpt lat="47.27382" lon="6.51435">
        <ele>714.40002441406</ele>
        <time>2018-05-01T11:31:40.000Z</time>
      </trkpt>
      <trkpt lat="47.27382" lon="6.51423">
        <ele>713.40002441406</ele>
        <time>2018-05-01T11:31:41.000Z</time>
      </trkpt>
      <trkpt lat="47.27383" lon="6.51412">
        <ele>712.59997558594</ele>
        <time>2018-05-01T11:31:42.000Z</time>
      </trkpt>
      <trkpt lat="47.27383" lon="6.51401">
        <ele>711.59997558594</ele>
        <time>2018-05-01T11:31:43.000Z</time>
      </trkpt>
      <trkpt lat="47.27382" lon="6.5139">
        <ele>710.59997558594</ele>
        <time>2018-05-01T11:31:44.000Z</time>
      </trkpt>
      <trkpt lat="47.27382" lon="6.51378">
        <ele>709.40002441406</ele>
        <time>2018-05-01T11:31:45.000Z</time>
      </trkpt>
      <trkpt lat="47.27383" lon="6.51367">
        <ele>708.20001220703</ele>
        <time>2018-05-01T11:31:46.000Z</time>
      </trkpt>
      <trkpt lat="47.27382" lon="6.51356">
        <ele>707.59997558594</ele>
        <time>2018-05-01T11:31:47.000Z</time>
      </trkpt>
      <trkpt lat="47.27382" lon="6.51343">
        <ele>707</ele>
        <time>2018-05-01T11:31:48.000Z</time>
      </trkpt>
      <trkpt lat="47.27379" lon="6.51322">
        <ele>706</ele>
        <time>2018-05-01T11:31:50.000Z</time>
      </trkpt>
      <trkpt lat="47.27373" lon="6.51302">
        <ele>704.40002441406</ele>
        <time>2018-05-01T11:31:52.000Z</time>
      </trkpt>
      <trkpt lat="47.27371" lon="6.51293">
        <ele>703.40002441406</ele>
        <time>2018-05-01T11:31:53.000Z</time>
      </trkpt>
      <trkpt lat="47.27364" lon="6.51275">
        <ele>701.79998779297</ele>
        <time>2018-05-01T11:31:55.000Z</time>
      </trkpt>
      <trkpt lat="47.27355" lon="6.51259">
        <ele>700.59997558594</ele>
        <time>2018-05-01T11:31:57.000Z</time>
      </trkpt>
      <trkpt lat="47.2735" lon="6.51251">
        <ele>700.59997558594</ele>
        <time>2018-05-01T11:31:58.000Z</time>
      </trkpt>
      <trkpt lat="47.27345" lon="6.51243">
        <ele>700.40002441406</ele>
        <time>2018-05-01T11:31:59.000Z</time>
      </trkpt>
      <trkpt lat="47.27336" lon="6.51226">
        <ele>699.59997558594</ele>
        <time>2018-05-01T11:32:01.000Z</time>
      </trkpt>
      <trkpt lat="47.27334" lon="6.51215">
        <ele>698.40002441406</ele>
        <time>2018-05-01T11:32:02.000Z</time>
      </trkpt>
      <trkpt lat="47.2733" lon="6.51204">
        <ele>697.20001220703</ele>
        <time>2018-05-01T11:32:03.000Z</time>
      </trkpt>
      <trkpt lat="47.27328" lon="6.51193">
        <ele>696</ele>
        <time>2018-05-01T11:32:04.000Z</time>
      </trkpt>
      <trkpt lat="47.27327" lon="6.51181">
        <ele>694.79998779297</ele>
        <time>2018-05-01T11:32:05.000Z</time>
      </trkpt>
      <trkpt lat="47.27326" lon="6.5117">
        <ele>693.59997558594</ele>
        <time>2018-05-01T11:32:06.000Z</time>
      </trkpt>
      <trkpt lat="47.27327" lon="6.51159">
        <ele>692.59997558594</ele>
        <time>2018-05-01T11:32:07.000Z</time>
      </trkpt>
      <trkpt lat="47.27328" lon="6.5115">
        <ele>691.79998779297</ele>
        <time>2018-05-01T11:32:08.000Z</time>
      </trkpt>
      <trkpt lat="47.2733" lon="6.51136">
        <ele>690.79998779297</ele>
        <time>2018-05-01T11:32:10.000Z</time>
      </trkpt>
      <trkpt lat="47.27334" lon="6.51119">
        <ele>690</ele>
        <time>2018-05-01T11:32:12.000Z</time>
      </trkpt>
      <trkpt lat="47.27341" lon="6.51102">
        <ele>689.40002441406</ele>
        <time>2018-05-01T11:32:14.000Z</time>
      </trkpt>
      <trkpt lat="47.27352" lon="6.51077">
        <ele>688.79998779297</ele>
        <time>2018-05-01T11:32:17.000Z</time>
      </trkpt>
      <trkpt lat="47.27354" lon="6.51072">
        <ele>688.59997558594</ele>
        <time>2018-05-01T11:32:18.000Z</time>
      </trkpt>
      <trkpt lat="47.27356" lon="6.51068">
        <ele>688.59997558594</ele>
        <time>2018-05-01T11:32:19.000Z</time>
      </trkpt>
      <trkpt lat="47.27357" lon="6.51065">
        <ele>688.40002441406</ele>
        <time>2018-05-01T11:32:22.000Z</time>
      </trkpt>
      <trkpt lat="47.27357" lon="6.51065">
        <ele>688.40002441406</ele>
        <time>2018-05-01T11:32:30.000Z</time>
      </trkpt>
      <trkpt lat="47.27357" lon="6.51065">
        <ele>688.40002441406</ele>
        <time>2018-05-01T11:32:48.000Z</time>
      </trkpt>
      <trkpt lat="47.27358" lon="6.51064">
        <ele>688.59997558594</ele>
        <time>2018-05-01T11:33:01.000Z</time>
      </trkpt>
      <trkpt lat="47.27359" lon="6.51063">
        <ele>688.59997558594</ele>
        <time>2018-05-01T11:33:05.000Z</time>
      </trkpt>
      <trkpt lat="47.27362" lon="6.51058">
        <ele>688.59997558594</ele>
        <time>2018-05-01T11:33:07.000Z</time>
      </trkpt>
      <trkpt lat="47.27366" lon="6.5105">
        <ele>688.40002441406</ele>
        <time>2018-05-01T11:33:09.000Z</time>
      </trkpt>
      <trkpt lat="47.27378" lon="6.51026">
        <ele>687.79998779297</ele>
        <time>2018-05-01T11:33:13.000Z</time>
      </trkpt>
      <trkpt lat="47.27382" lon="6.5102">
        <ele>687.59997558594</ele>
        <time>2018-05-01T11:33:14.000Z</time>
      </trkpt>
      <trkpt lat="47.27386" lon="6.51014">
        <ele>687.40002441406</ele>
        <time>2018-05-01T11:33:15.000Z</time>
      </trkpt>
      <trkpt lat="47.27395" lon="6.51">
        <ele>686.79998779297</ele>
        <time>2018-05-01T11:33:17.000Z</time>
      </trkpt>
      <trkpt lat="47.27399" lon="6.50992">
        <ele>686.40002441406</ele>
        <time>2018-05-01T11:33:18.000Z</time>
      </trkpt>
      <trkpt lat="47.27403" lon="6.50984">
        <ele>686</ele>
        <time>2018-05-01T11:33:19.000Z</time>
      </trkpt>
      <trkpt lat="47.27412" lon="6.50969">
        <ele>685.59997558594</ele>
        <time>2018-05-01T11:33:21.000Z</time>
      </trkpt>
      <trkpt lat="47.27415" lon="6.5096">
        <ele>685</ele>
        <time>2018-05-01T11:33:22.000Z</time>
      </trkpt>
      <trkpt lat="47.27418" lon="6.50951">
        <ele>684.40002441406</ele>
        <time>2018-05-01T11:33:23.000Z</time>
      </trkpt>
      <trkpt lat="47.27422" lon="6.50943">
        <ele>683.59997558594</ele>
        <time>2018-05-01T11:33:24.000Z</time>
      </trkpt>
      <trkpt lat="47.27426" lon="6.50934">
        <ele>683</ele>
        <time>2018-05-01T11:33:25.000Z</time>
      </trkpt>
      <trkpt lat="47.27432" lon="6.50914">
        <ele>681.40002441406</ele>
        <time>2018-05-01T11:33:27.000Z</time>
      </trkpt>
      <trkpt lat="47.27437" lon="6.50892">
        <ele>679.40002441406</ele>
        <time>2018-05-01T11:33:29.000Z</time>
      </trkpt>
      <trkpt lat="47.27442" lon="6.50858">
        <ele>676.40002441406</ele>
        <time>2018-05-01T11:33:32.000Z</time>
      </trkpt>
      <trkpt lat="47.27439" lon="6.50838">
        <ele>674.79998779297</ele>
        <time>2018-05-01T11:33:34.000Z</time>
      </trkpt>
      <trkpt lat="47.27433" lon="6.5083">
        <ele>674.20001220703</ele>
        <time>2018-05-01T11:33:35.000Z</time>
      </trkpt>
      <trkpt lat="47.27426" lon="6.50825">
        <ele>673.79998779297</ele>
        <time>2018-05-01T11:33:36.000Z</time>
      </trkpt>
      <trkpt lat="47.27402" lon="6.50822">
        <ele>672.59997558594</ele>
        <time>2018-05-01T11:33:39.000Z</time>
      </trkpt>
      <trkpt lat="47.27394" lon="6.50822">
        <ele>671.79998779297</ele>
        <time>2018-05-01T11:33:40.000Z</time>
      </trkpt>
      <trkpt lat="47.27385" lon="6.50824">
        <ele>671.20001220703</ele>
        <time>2018-05-01T11:33:41.000Z</time>
      </trkpt>
      <trkpt lat="47.27368" lon="6.50829">
        <ele>670.20001220703</ele>
        <time>2018-05-01T11:33:43.000Z</time>
      </trkpt>
      <trkpt lat="47.27349" lon="6.50837">
        <ele>669.40002441406</ele>
        <time>2018-05-01T11:33:45.000Z</time>
      </trkpt>
      <trkpt lat="47.27331" lon="6.50846">
        <ele>668.20001220703</ele>
        <time>2018-05-01T11:33:47.000Z</time>
      </trkpt>
      <trkpt lat="47.27323" lon="6.5085">
        <ele>667.79998779297</ele>
        <time>2018-05-01T11:33:48.000Z</time>
      </trkpt>
      <trkpt lat="47.27297" lon="6.50866">
        <ele>666.40002441406</ele>
        <time>2018-05-01T11:33:51.000Z</time>
      </trkpt>
      <trkpt lat="47.27282" lon="6.50879">
        <ele>665.59997558594</ele>
        <time>2018-05-01T11:33:53.000Z</time>
      </trkpt>
      <trkpt lat="47.27276" lon="6.50886">
        <ele>665.40002441406</ele>
        <time>2018-05-01T11:33:54.000Z</time>
      </trkpt>
      <trkpt lat="47.27269" lon="6.50888">
        <ele>664.79998779297</ele>
        <time>2018-05-01T11:33:55.000Z</time>
      </trkpt>
      <trkpt lat="47.27262" lon="6.50887">
        <ele>664</ele>
        <time>2018-05-01T11:33:56.000Z</time>
      </trkpt>
      <trkpt lat="47.27256" lon="6.50882">
        <ele>663</ele>
        <time>2018-05-01T11:33:57.000Z</time>
      </trkpt>
      <trkpt lat="47.27252" lon="6.50872">
        <ele>662</ele>
        <time>2018-05-01T11:33:58.000Z</time>
      </trkpt>
      <trkpt lat="47.27251" lon="6.50861">
        <ele>661.20001220703</ele>
        <time>2018-05-01T11:33:59.000Z</time>
      </trkpt>
      <trkpt lat="47.27252" lon="6.50849">
        <ele>660.59997558594</ele>
        <time>2018-05-01T11:34:00.000Z</time>
      </trkpt>
      <trkpt lat="47.27255" lon="6.50839">
        <ele>660.20001220703</ele>
        <time>2018-05-01T11:34:01.000Z</time>
      </trkpt>
      <trkpt lat="47.27263" lon="6.50818">
        <ele>659.59997558594</ele>
        <time>2018-05-01T11:34:03.000Z</time>
      </trkpt>
      <trkpt lat="47.27264" lon="6.50807">
        <ele>659.40002441406</ele>
        <time>2018-05-01T11:34:04.000Z</time>
      </trkpt>
      <trkpt lat="47.27265" lon="6.50783">
        <ele>658.59997558594</ele>
        <time>2018-05-01T11:34:06.000Z</time>
      </trkpt>
      <trkpt lat="47.27264" lon="6.50771">
        <ele>658</ele>
        <time>2018-05-01T11:34:07.000Z</time>
      </trkpt>
      <trkpt lat="47.27259" lon="6.50747">
        <ele>656.79998779297</ele>
        <time>2018-05-01T11:34:09.000Z</time>
      </trkpt>
      <trkpt lat="47.27256" lon="6.50735">
        <ele>655.79998779297</ele>
        <time>2018-05-01T11:34:10.000Z</time>
      </trkpt>
      <trkpt lat="47.2725" lon="6.50725">
        <ele>655.20001220703</ele>
        <time>2018-05-01T11:34:11.000Z</time>
      </trkpt>
      <trkpt lat="47.2724" lon="6.50704">
        <ele>653.59997558594</ele>
        <time>2018-05-01T11:34:13.000Z</time>
      </trkpt>
      <trkpt lat="47.27235" lon="6.50693">
        <ele>653</ele>
        <time>2018-05-01T11:34:14.000Z</time>
      </trkpt>
      <trkpt lat="47.27224" lon="6.50669">
        <ele>651.40002441406</ele>
        <time>2018-05-01T11:34:16.000Z</time>
      </trkpt>
      <trkpt lat="47.27215" lon="6.50644">
        <ele>650</ele>
        <time>2018-05-01T11:34:18.000Z</time>
      </trkpt>
      <trkpt lat="47.2721" lon="6.50631">
        <ele>649.59997558594</ele>
        <time>2018-05-01T11:34:19.000Z</time>
      </trkpt>
      <trkpt lat="47.27206" lon="6.50619">
        <ele>649</ele>
        <time>2018-05-01T11:34:20.000Z</time>
      </trkpt>
      <trkpt lat="47.27196" lon="6.50594">
        <ele>648</ele>
        <time>2018-05-01T11:34:22.000Z</time>
      </trkpt>
      <trkpt lat="47.27182" lon="6.50556">
        <ele>646.20001220703</ele>
        <time>2018-05-01T11:34:25.000Z</time>
      </trkpt>
      <trkpt lat="47.27172" lon="6.50533">
        <ele>644.79998779297</ele>
        <time>2018-05-01T11:34:27.000Z</time>
      </trkpt>
      <trkpt lat="47.27161" lon="6.50511">
        <ele>643.59997558594</ele>
        <time>2018-05-01T11:34:29.000Z</time>
      </trkpt>
      <trkpt lat="47.27154" lon="6.50503">
        <ele>643</ele>
        <time>2018-05-01T11:34:30.000Z</time>
      </trkpt>
      <trkpt lat="47.27147" lon="6.50497">
        <ele>642.40002441406</ele>
        <time>2018-05-01T11:34:31.000Z</time>
      </trkpt>
      <trkpt lat="47.27138" lon="6.50493">
        <ele>641.79998779297</ele>
        <time>2018-05-01T11:34:32.000Z</time>
      </trkpt>
      <trkpt lat="47.2712" lon="6.50496">
        <ele>640.79998779297</ele>
        <time>2018-05-01T11:34:34.000Z</time>
      </trkpt>
      <trkpt lat="47.2711" lon="6.50499">
        <ele>640.20001220703</ele>
        <time>2018-05-01T11:34:35.000Z</time>
      </trkpt>
      <trkpt lat="47.27093" lon="6.50509">
        <ele>639.20001220703</ele>
        <time>2018-05-01T11:34:37.000Z</time>
      </trkpt>
      <trkpt lat="47.27084" lon="6.50512">
        <ele>638.59997558594</ele>
        <time>2018-05-01T11:34:38.000Z</time>
      </trkpt>
      <trkpt lat="47.27065" lon="6.5052">
        <ele>637.79998779297</ele>
        <time>2018-05-01T11:34:40.000Z</time>
      </trkpt>
      <trkpt lat="47.27046" lon="6.50526">
        <ele>637</ele>
        <time>2018-05-01T11:34:42.000Z</time>
      </trkpt>
      <trkpt lat="47.27028" lon="6.50532">
        <ele>636.20001220703</ele>
        <time>2018-05-01T11:34:44.000Z</time>
      </trkpt>
      <trkpt lat="47.27018" lon="6.50535">
        <ele>636</ele>
        <time>2018-05-01T11:34:45.000Z</time>
      </trkpt>
      <trkpt lat="47.27009" lon="6.50537">
        <ele>635.79998779297</ele>
        <time>2018-05-01T11:34:46.000Z</time>
      </trkpt>
      <trkpt lat="47.2699" lon="6.50542">
        <ele>635</ele>
        <time>2018-05-01T11:34:48.000Z</time>
      </trkpt>
      <trkpt lat="47.26972" lon="6.50542">
        <ele>634</ele>
        <time>2018-05-01T11:34:50.000Z</time>
      </trkpt>
      <trkpt lat="47.26963" lon="6.50538">
        <ele>633.20001220703</ele>
        <time>2018-05-01T11:34:51.000Z</time>
      </trkpt>
      <trkpt lat="47.26954" lon="6.50533">
        <ele>632.40002441406</ele>
        <time>2018-05-01T11:34:52.000Z</time>
      </trkpt>
      <trkpt lat="47.26939" lon="6.50514">
        <ele>631.20001220703</ele>
        <time>2018-05-01T11:34:54.000Z</time>
      </trkpt>
      <trkpt lat="47.26927" lon="6.5049">
        <ele>630</ele>
        <time>2018-05-01T11:34:56.000Z</time>
      </trkpt>
      <trkpt lat="47.26921" lon="6.50477">
        <ele>629.40002441406</ele>
        <time>2018-05-01T11:34:57.000Z</time>
      </trkpt>
      <trkpt lat="47.26915" lon="6.50465">
        <ele>629</ele>
        <time>2018-05-01T11:34:58.000Z</time>
      </trkpt>
      <trkpt lat="47.269" lon="6.50443">
        <ele>628</ele>
        <time>2018-05-01T11:35:00.000Z</time>
      </trkpt>
      <trkpt lat="47.26893" lon="6.50434">
        <ele>627.59997558594</ele>
        <time>2018-05-01T11:35:01.000Z</time>
      </trkpt>
      <trkpt lat="47.26884" lon="6.50425">
        <ele>627.20001220703</ele>
        <time>2018-05-01T11:35:02.000Z</time>
      </trkpt>
      <trkpt lat="47.26876" lon="6.50417">
        <ele>626.79998779297</ele>
        <time>2018-05-01T11:35:03.000Z</time>
      </trkpt>
      <trkpt lat="47.26843" lon="6.50385">
        <ele>625</ele>
        <time>2018-05-01T11:35:07.000Z</time>
      </trkpt>
      <trkpt lat="47.26836" lon="6.50378">
        <ele>624.40002441406</ele>
        <time>2018-05-01T11:35:08.000Z</time>
      </trkpt>
      <trkpt lat="47.26803" lon="6.50342">
        <ele>623.59997558594</ele>
        <time>2018-05-01T11:35:13.000Z</time>
      </trkpt>
      <trkpt lat="47.26769" lon="6.50302">
        <ele>622.79998779297</ele>
        <time>2018-05-01T11:35:19.000Z</time>
      </trkpt>
      <trkpt lat="47.26764" lon="6.50294">
        <ele>622.79998779297</ele>
        <time>2018-05-01T11:35:20.000Z</time>
      </trkpt>
      <trkpt lat="47.26742" lon="6.50263">
        <ele>622.20001220703</ele>
        <time>2018-05-01T11:35:24.000Z</time>
      </trkpt>
      <trkpt lat="47.26732" lon="6.50246">
        <ele>622</ele>
        <time>2018-05-01T11:35:26.000Z</time>
      </trkpt>
      <trkpt lat="47.26716" lon="6.50222">
        <ele>621.40002441406</ele>
        <time>2018-05-01T11:35:29.000Z</time>
      </trkpt>
      <trkpt lat="47.26701" lon="6.50196">
        <ele>620.40002441406</ele>
        <time>2018-05-01T11:35:32.000Z</time>
      </trkpt>
      <trkpt lat="47.26691" lon="6.50178">
        <ele>619.59997558594</ele>
        <time>2018-05-01T11:35:34.000Z</time>
      </trkpt>
      <trkpt lat="47.26682" lon="6.5016">
        <ele>619.40002441406</ele>
        <time>2018-05-01T11:35:36.000Z</time>
      </trkpt>
      <trkpt lat="47.26665" lon="6.50125">
        <ele>618.20001220703</ele>
        <time>2018-05-01T11:35:40.000Z</time>
      </trkpt>
      <trkpt lat="47.26661" lon="6.50117">
        <ele>617.79998779297</ele>
        <time>2018-05-01T11:35:41.000Z</time>
      </trkpt>
      <trkpt lat="47.26631" lon="6.50055">
        <ele>617</ele>
        <time>2018-05-01T11:35:48.000Z</time>
      </trkpt>
      <trkpt lat="47.26623" lon="6.50036">
        <ele>616.40002441406</ele>
        <time>2018-05-01T11:35:50.000Z</time>
      </trkpt>
      <trkpt lat="47.26593" lon="6.49965">
        <ele>615.40002441406</ele>
        <time>2018-05-01T11:35:58.000Z</time>
      </trkpt>
      <trkpt lat="47.26564" lon="6.49898">
        <ele>613.79998779297</ele>
        <time>2018-05-01T11:36:06.000Z</time>
      </trkpt>
      <trkpt lat="47.2656" lon="6.49891">
        <ele>613.59997558594</ele>
        <time>2018-05-01T11:36:07.000Z</time>
      </trkpt>
      <trkpt lat="47.2655" lon="6.49878">
        <ele>613.20001220703</ele>
        <time>2018-05-01T11:36:09.000Z</time>
      </trkpt>
      <trkpt lat="47.2653" lon="6.49855">
        <ele>612.79998779297</ele>
        <time>2018-05-01T11:36:13.000Z</time>
      </trkpt>
      <trkpt lat="47.26499" lon="6.49825">
        <ele>612.40002441406</ele>
        <time>2018-05-01T11:36:19.000Z</time>
      </trkpt>
      <trkpt lat="47.26471" lon="6.49782">
        <ele>611.79998779297</ele>
        <time>2018-05-01T11:36:25.000Z</time>
      </trkpt>
      <trkpt lat="47.26466" lon="6.49774">
        <ele>611.79998779297</ele>
        <time>2018-05-01T11:36:26.000Z</time>
      </trkpt>
      <trkpt lat="47.2645" lon="6.49749">
        <ele>611.79998779297</ele>
        <time>2018-05-01T11:36:29.000Z</time>
      </trkpt>
      <trkpt lat="47.2644" lon="6.4973">
        <ele>611.59997558594</ele>
        <time>2018-05-01T11:36:31.000Z</time>
      </trkpt>
      <trkpt lat="47.26433" lon="6.49722">
        <ele>611.20001220703</ele>
        <time>2018-05-01T11:36:32.000Z</time>
      </trkpt>
      <trkpt lat="47.26421" lon="6.49703">
        <ele>610.40002441406</ele>
        <time>2018-05-01T11:36:34.000Z</time>
      </trkpt>
      <trkpt lat="47.26409" lon="6.49685">
        <ele>609.59997558594</ele>
        <time>2018-05-01T11:36:36.000Z</time>
      </trkpt>
      <trkpt lat="47.26403" lon="6.49677">
        <ele>609</ele>
        <time>2018-05-01T11:36:37.000Z</time>
      </trkpt>
      <trkpt lat="47.26392" lon="6.49656">
        <ele>607.79998779297</ele>
        <time>2018-05-01T11:36:39.000Z</time>
      </trkpt>
      <trkpt lat="47.26383" lon="6.49635">
        <ele>606.40002441406</ele>
        <time>2018-05-01T11:36:41.000Z</time>
      </trkpt>
      <trkpt lat="47.26374" lon="6.49613">
        <ele>604.79998779297</ele>
        <time>2018-05-01T11:36:43.000Z</time>
      </trkpt>
      <trkpt lat="47.26365" lon="6.49589">
        <ele>603.59997558594</ele>
        <time>2018-05-01T11:36:45.000Z</time>
      </trkpt>
      <trkpt lat="47.26356" lon="6.49567">
        <ele>602.20001220703</ele>
        <time>2018-05-01T11:36:47.000Z</time>
      </trkpt>
      <trkpt lat="47.26351" lon="6.49556">
        <ele>601.59997558594</ele>
        <time>2018-05-01T11:36:48.000Z</time>
      </trkpt>
      <trkpt lat="47.26341" lon="6.49538">
        <ele>600.59997558594</ele>
        <time>2018-05-01T11:36:50.000Z</time>
      </trkpt>
      <trkpt lat="47.26331" lon="6.49522">
        <ele>599.40002441406</ele>
        <time>2018-05-01T11:36:52.000Z</time>
      </trkpt>
      <trkpt lat="47.26323" lon="6.49517">
        <ele>599.40002441406</ele>
        <time>2018-05-01T11:36:54.000Z</time>
      </trkpt>
      <trkpt lat="47.26319" lon="6.49518">
        <ele>599.40002441406</ele>
        <time>2018-05-01T11:36:55.000Z</time>
      </trkpt>
      <trkpt lat="47.26312" lon="6.49526">
        <ele>600</ele>
        <time>2018-05-01T11:36:59.000Z</time>
      </trkpt>
      <trkpt lat="47.26308" lon="6.4953">
        <ele>600.20001220703</ele>
        <time>2018-05-01T11:37:01.000Z</time>
      </trkpt>
      <trkpt lat="47.26306" lon="6.49532">
        <ele>600.40002441406</ele>
        <time>2018-05-01T11:37:02.000Z</time>
      </trkpt>
      <trkpt lat="47.26299" lon="6.49539">
        <ele>600.79998779297</ele>
        <time>2018-05-01T11:37:05.000Z</time>
      </trkpt>
      <trkpt lat="47.2629" lon="6.49548">
        <ele>601.59997558594</ele>
        <time>2018-05-01T11:37:09.000Z</time>
      </trkpt>
      <trkpt lat="47.26283" lon="6.49554">
        <ele>602</ele>
        <time>2018-05-01T11:37:12.000Z</time>
      </trkpt>
      <trkpt lat="47.26281" lon="6.49557">
        <ele>602.20001220703</ele>
        <time>2018-05-01T11:37:13.000Z</time>
      </trkpt>
      <trkpt lat="47.26267" lon="6.4957">
        <ele>603.40002441406</ele>
        <time>2018-05-01T11:37:19.000Z</time>
      </trkpt>
      <trkpt lat="47.2626" lon="6.49575">
        <ele>604</ele>
        <time>2018-05-01T11:37:22.000Z</time>
      </trkpt>
      <trkpt lat="47.26258" lon="6.49578">
        <ele>604.20001220703</ele>
        <time>2018-05-01T11:37:23.000Z</time>
      </trkpt>
      <trkpt lat="47.2625" lon="6.49586">
        <ele>605.40002441406</ele>
        <time>2018-05-01T11:37:27.000Z</time>
      </trkpt>
      <trkpt lat="47.26239" lon="6.49595">
        <ele>606.59997558594</ele>
        <time>2018-05-01T11:37:32.000Z</time>
      </trkpt>
      <trkpt lat="47.26237" lon="6.49597">
        <ele>607</ele>
        <time>2018-05-01T11:37:33.000Z</time>
      </trkpt>
      <trkpt lat="47.26224" lon="6.49609">
        <ele>608.59997558594</ele>
        <time>2018-05-01T11:37:39.000Z</time>
      </trkpt>
      <trkpt lat="47.2622" lon="6.49612">
        <ele>609</ele>
        <time>2018-05-01T11:37:41.000Z</time>
      </trkpt>
      <trkpt lat="47.26216" lon="6.49616">
        <ele>609.59997558594</ele>
        <time>2018-05-01T11:37:43.000Z</time>
      </trkpt>
      <trkpt lat="47.26208" lon="6.49624">
        <ele>610.59997558594</ele>
        <time>2018-05-01T11:37:47.000Z</time>
      </trkpt>
      <trkpt lat="47.26204" lon="6.49629">
        <ele>611.20001220703</ele>
        <time>2018-05-01T11:37:49.000Z</time>
      </trkpt>
      <trkpt lat="47.26198" lon="6.49634">
        <ele>612</ele>
        <time>2018-05-01T11:37:52.000Z</time>
      </trkpt>
      <trkpt lat="47.26192" lon="6.4964">
        <ele>612.79998779297</ele>
        <time>2018-05-01T11:37:55.000Z</time>
      </trkpt>
      <trkpt lat="47.26184" lon="6.49648">
        <ele>613.79998779297</ele>
        <time>2018-05-01T11:37:59.000Z</time>
      </trkpt>
      <trkpt lat="47.26177" lon="6.49655">
        <ele>614.79998779297</ele>
        <time>2018-05-01T11:38:03.000Z</time>
      </trkpt>
      <trkpt lat="47.26171" lon="6.49661">
        <ele>615.59997558594</ele>
        <time>2018-05-01T11:38:06.000Z</time>
      </trkpt>
      <trkpt lat="47.26167" lon="6.49664">
        <ele>616.20001220703</ele>
        <time>2018-05-01T11:38:08.000Z</time>
      </trkpt>
      <trkpt lat="47.26161" lon="6.49669">
        <ele>617</ele>
        <time>2018-05-01T11:38:11.000Z</time>
      </trkpt>
      <trkpt lat="47.26156" lon="6.49674">
        <ele>617.79998779297</ele>
        <time>2018-05-01T11:38:14.000Z</time>
      </trkpt>
      <trkpt lat="47.26154" lon="6.49676">
        <ele>618.20001220703</ele>
        <time>2018-05-01T11:38:15.000Z</time>
      </trkpt>
      <trkpt lat="47.2615" lon="6.49679">
        <ele>618.79998779297</ele>
        <time>2018-05-01T11:38:17.000Z</time>
      </trkpt>
      <trkpt lat="47.2614" lon="6.4969">
        <ele>620.40002441406</ele>
        <time>2018-05-01T11:38:23.000Z</time>
      </trkpt>
      <trkpt lat="47.26138" lon="6.49692">
        <ele>620.79998779297</ele>
        <time>2018-05-01T11:38:24.000Z</time>
      </trkpt>
      <trkpt lat="47.26133" lon="6.49698">
        <ele>621.79998779297</ele>
        <time>2018-05-01T11:38:27.000Z</time>
      </trkpt>
      <trkpt lat="47.26124" lon="6.49706">
        <ele>623</ele>
        <time>2018-05-01T11:38:32.000Z</time>
      </trkpt>
      <trkpt lat="47.26122" lon="6.49708">
        <ele>623.20001220703</ele>
        <time>2018-05-01T11:38:33.000Z</time>
      </trkpt>
      <trkpt lat="47.26115" lon="6.49715">
        <ele>624.20001220703</ele>
        <time>2018-05-01T11:38:37.000Z</time>
      </trkpt>
      <trkpt lat="47.26109" lon="6.49722">
        <ele>625.20001220703</ele>
        <time>2018-05-01T11:38:41.000Z</time>
      </trkpt>
      <trkpt lat="47.26103" lon="6.49727">
        <ele>626</ele>
        <time>2018-05-01T11:38:44.000Z</time>
      </trkpt>
      <trkpt lat="47.26096" lon="6.49733">
        <ele>627</ele>
        <time>2018-05-01T11:38:48.000Z</time>
      </trkpt>
      <trkpt lat="47.26086" lon="6.49733">
        <ele>627.59997558594</ele>
        <time>2018-05-01T11:38:53.000Z</time>
      </trkpt>
      <trkpt lat="47.26084" lon="6.49731">
        <ele>627.59997558594</ele>
        <time>2018-05-01T11:38:54.000Z</time>
      </trkpt>
      <trkpt lat="47.26075" lon="6.49718">
        <ele>627.20001220703</ele>
        <time>2018-05-01T11:38:59.000Z</time>
      </trkpt>
      <trkpt lat="47.26071" lon="6.49708">
        <ele>626.79998779297</ele>
        <time>2018-05-01T11:39:01.000Z</time>
      </trkpt>
      <trkpt lat="47.26065" lon="6.49696">
        <ele>626.59997558594</ele>
        <time>2018-05-01T11:39:03.000Z</time>
      </trkpt>
      <trkpt lat="47.26062" lon="6.4969">
        <ele>626.40002441406</ele>
        <time>2018-05-01T11:39:04.000Z</time>
      </trkpt>
      <trkpt lat="47.26053" lon="6.49669">
        <ele>625.79998779297</ele>
        <time>2018-05-01T11:39:07.000Z</time>
      </trkpt>
      <trkpt lat="47.26048" lon="6.49663">
        <ele>625.79998779297</ele>
        <time>2018-05-01T11:39:08.000Z</time>
      </trkpt>
      <trkpt lat="47.26045" lon="6.49656">
        <ele>625.59997558594</ele>
        <time>2018-05-01T11:39:09.000Z</time>
      </trkpt>
      <trkpt lat="47.26037" lon="6.4964">
        <ele>624.79998779297</ele>
        <time>2018-05-01T11:39:11.000Z</time>
      </trkpt>
      <trkpt lat="47.26024" lon="6.49615">
        <ele>623</ele>
        <time>2018-05-01T11:39:14.000Z</time>
      </trkpt>
      <trkpt lat="47.26016" lon="6.49598">
        <ele>621.79998779297</ele>
        <time>2018-05-01T11:39:16.000Z</time>
      </trkpt>
      <trkpt lat="47.26012" lon="6.4959">
        <ele>621.20001220703</ele>
        <time>2018-05-01T11:39:17.000Z</time>
      </trkpt>
      <trkpt lat="47.26003" lon="6.49573">
        <ele>620</ele>
        <time>2018-05-01T11:39:19.000Z</time>
      </trkpt>
      <trkpt lat="47.25991" lon="6.49547">
        <ele>618.79998779297</ele>
        <time>2018-05-01T11:39:22.000Z</time>
      </trkpt>
      <trkpt lat="47.25983" lon="6.4953">
        <ele>618</ele>
        <time>2018-05-01T11:39:24.000Z</time>
      </trkpt>
      <trkpt lat="47.25971" lon="6.49505">
        <ele>617</ele>
        <time>2018-05-01T11:39:27.000Z</time>
      </trkpt>
      <trkpt lat="47.2596" lon="6.4948">
        <ele>616.20001220703</ele>
        <time>2018-05-01T11:39:30.000Z</time>
      </trkpt>
      <trkpt lat="47.25953" lon="6.49466">
        <ele>616.40002441406</ele>
        <time>2018-05-01T11:39:32.000Z</time>
      </trkpt>
      <trkpt lat="47.25943" lon="6.49444">
        <ele>616.59997558594</ele>
        <time>2018-05-01T11:39:35.000Z</time>
      </trkpt>
      <trkpt lat="47.2594" lon="6.49437">
        <ele>616.59997558594</ele>
        <time>2018-05-01T11:39:36.000Z</time>
      </trkpt>
      <trkpt lat="47.25931" lon="6.49416">
        <ele>616.59997558594</ele>
        <time>2018-05-01T11:39:39.000Z</time>
      </trkpt>
      <trkpt lat="47.25918" lon="6.49389">
        <ele>617</ele>
        <time>2018-05-01T11:39:43.000Z</time>
      </trkpt>
      <trkpt lat="47.25912" lon="6.49377">
        <ele>617.59997558594</ele>
        <time>2018-05-01T11:39:45.000Z</time>
      </trkpt>
      <trkpt lat="47.2591" lon="6.4937">
        <ele>617.79998779297</ele>
        <time>2018-05-01T11:39:46.000Z</time>
      </trkpt>
      <trkpt lat="47.25908" lon="6.49364">
        <ele>618</ele>
        <time>2018-05-01T11:39:47.000Z</time>
      </trkpt>
      <trkpt lat="47.25908" lon="6.49355">
        <ele>617.59997558594</ele>
        <time>2018-05-01T11:39:48.000Z</time>
      </trkpt>
      <trkpt lat="47.25909" lon="6.49337">
        <ele>617</ele>
        <time>2018-05-01T11:39:50.000Z</time>
      </trkpt>
      <trkpt lat="47.2591" lon="6.49328">
        <ele>616.59997558594</ele>
        <time>2018-05-01T11:39:51.000Z</time>
      </trkpt>
      <trkpt lat="47.25912" lon="6.49309">
        <ele>615.40002441406</ele>
        <time>2018-05-01T11:39:53.000Z</time>
      </trkpt>
      <trkpt lat="47.25913" lon="6.49299">
        <ele>614.20001220703</ele>
        <time>2018-05-01T11:39:54.000Z</time>
      </trkpt>
      <trkpt lat="47.25913" lon="6.49289">
        <ele>613.20001220703</ele>
        <time>2018-05-01T11:39:55.000Z</time>
      </trkpt>
      <trkpt lat="47.25913" lon="6.49278">
        <ele>612.20001220703</ele>
        <time>2018-05-01T11:39:56.000Z</time>
      </trkpt>
      <trkpt lat="47.25914" lon="6.49267">
        <ele>611</ele>
        <time>2018-05-01T11:39:57.000Z</time>
      </trkpt>
      <trkpt lat="47.25916" lon="6.49257">
        <ele>609.59997558594</ele>
        <time>2018-05-01T11:39:58.000Z</time>
      </trkpt>
      <trkpt lat="47.25916" lon="6.49246">
        <ele>608.59997558594</ele>
        <time>2018-05-01T11:39:59.000Z</time>
      </trkpt>
      <trkpt lat="47.25916" lon="6.49234">
        <ele>607.59997558594</ele>
        <time>2018-05-01T11:40:00.000Z</time>
      </trkpt>
      <trkpt lat="47.25915" lon="6.49223">
        <ele>606.20001220703</ele>
        <time>2018-05-01T11:40:01.000Z</time>
      </trkpt>
      <trkpt lat="47.25914" lon="6.49212">
        <ele>605</ele>
        <time>2018-05-01T11:40:02.000Z</time>
      </trkpt>
      <trkpt lat="47.25913" lon="6.49201">
        <ele>603.79998779297</ele>
        <time>2018-05-01T11:40:03.000Z</time>
      </trkpt>
      <trkpt lat="47.25911" lon="6.4919">
        <ele>602.40002441406</ele>
        <time>2018-05-01T11:40:04.000Z</time>
      </trkpt>
      <trkpt lat="47.25911" lon="6.49167">
        <ele>599.40002441406</ele>
        <time>2018-05-01T11:40:06.000Z</time>
      </trkpt>
      <trkpt lat="47.25913" lon="6.49147">
        <ele>596.79998779297</ele>
        <time>2018-05-01T11:40:08.000Z</time>
      </trkpt>
      <trkpt lat="47.25915" lon="6.49137">
        <ele>596.20001220703</ele>
        <time>2018-05-01T11:40:09.000Z</time>
      </trkpt>
      <trkpt lat="47.25916" lon="6.49126">
        <ele>595.59997558594</ele>
        <time>2018-05-01T11:40:10.000Z</time>
      </trkpt>
      <trkpt lat="47.25918" lon="6.49104">
        <ele>594.40002441406</ele>
        <time>2018-05-01T11:40:12.000Z</time>
      </trkpt>
      <trkpt lat="47.25923" lon="6.49082">
        <ele>593.20001220703</ele>
        <time>2018-05-01T11:40:14.000Z</time>
      </trkpt>
      <trkpt lat="47.25925" lon="6.49071">
        <ele>592.59997558594</ele>
        <time>2018-05-01T11:40:15.000Z</time>
      </trkpt>
      <trkpt lat="47.25929" lon="6.49038">
        <ele>592.40002441406</ele>
        <time>2018-05-01T11:40:18.000Z</time>
      </trkpt>
      <trkpt lat="47.2593" lon="6.49017">
        <ele>592.40002441406</ele>
        <time>2018-05-01T11:40:20.000Z</time>
      </trkpt>
      <trkpt lat="47.2593" lon="6.48996">
        <ele>592.20001220703</ele>
        <time>2018-05-01T11:40:22.000Z</time>
      </trkpt>
      <trkpt lat="47.25932" lon="6.48966">
        <ele>591.40002441406</ele>
        <time>2018-05-01T11:40:25.000Z</time>
      </trkpt>
      <trkpt lat="47.25935" lon="6.48938">
        <ele>590.59997558594</ele>
        <time>2018-05-01T11:40:28.000Z</time>
      </trkpt>
      <trkpt lat="47.25937" lon="6.4893">
        <ele>590.20001220703</ele>
        <time>2018-05-01T11:40:29.000Z</time>
      </trkpt>
      <trkpt lat="47.25936" lon="6.48921">
        <ele>590.20001220703</ele>
        <time>2018-05-01T11:40:31.000Z</time>
      </trkpt>
      <trkpt lat="47.25936" lon="6.48918">
        <ele>590</ele>
        <time>2018-05-01T11:40:32.000Z</time>
      </trkpt>
      <trkpt lat="47.25933" lon="6.48916">
        <ele>590.20001220703</ele>
        <time>2018-05-01T11:40:34.000Z</time>
      </trkpt>
      <trkpt lat="47.2593" lon="6.48917">
        <ele>590.40002441406</ele>
        <time>2018-05-01T11:40:36.000Z</time>
      </trkpt>
      <trkpt lat="47.25927" lon="6.48919">
        <ele>590.59997558594</ele>
        <time>2018-05-01T11:40:38.000Z</time>
      </trkpt>
      <trkpt lat="47.25915" lon="6.48927">
        <ele>591.59997558594</ele>
        <time>2018-05-01T11:40:44.000Z</time>
      </trkpt>
      <trkpt lat="47.25904" lon="6.48932">
        <ele>593.20001220703</ele>
        <time>2018-05-01T11:40:50.000Z</time>
      </trkpt>
      <trkpt lat="47.25902" lon="6.4893">
        <ele>593.59997558594</ele>
        <time>2018-05-01T11:40:51.000Z</time>
      </trkpt>
      <trkpt lat="47.25898" lon="6.48925">
        <ele>594.20001220703</ele>
        <time>2018-05-01T11:40:54.000Z</time>
      </trkpt>
      <trkpt lat="47.25896" lon="6.48922">
        <ele>594.40002441406</ele>
        <time>2018-05-01T11:40:55.000Z</time>
      </trkpt>
      <trkpt lat="47.25893" lon="6.48915">
        <ele>594.79998779297</ele>
        <time>2018-05-01T11:40:57.000Z</time>
      </trkpt>
      <trkpt lat="47.25891" lon="6.48911">
        <ele>595</ele>
        <time>2018-05-01T11:40:58.000Z</time>
      </trkpt>
      <trkpt lat="47.25889" lon="6.48906">
        <ele>595.20001220703</ele>
        <time>2018-05-01T11:40:59.000Z</time>
      </trkpt>
      <trkpt lat="47.25873" lon="6.48882">
        <ele>596.20001220703</ele>
        <time>2018-05-01T11:41:05.000Z</time>
      </trkpt>
      <trkpt lat="47.25859" lon="6.48858">
        <ele>596.40002441406</ele>
        <time>2018-05-01T11:41:11.000Z</time>
      </trkpt>
      <trkpt lat="47.2585" lon="6.48841">
        <ele>596.59997558594</ele>
        <time>2018-05-01T11:41:15.000Z</time>
      </trkpt>
      <trkpt lat="47.25844" lon="6.48828">
        <ele>596.79998779297</ele>
        <time>2018-05-01T11:41:18.000Z</time>
      </trkpt>
      <trkpt lat="47.25842" lon="6.48824">
        <ele>596.79998779297</ele>
        <time>2018-05-01T11:41:19.000Z</time>
      </trkpt>
      <trkpt lat="47.25833" lon="6.48807">
        <ele>597</ele>
        <time>2018-05-01T11:41:23.000Z</time>
      </trkpt>
      <trkpt lat="47.25828" lon="6.48797">
        <ele>596.79998779297</ele>
        <time>2018-05-01T11:41:25.000Z</time>
      </trkpt>
      <trkpt lat="47.25823" lon="6.48786">
        <ele>596.40002441406</ele>
        <time>2018-05-01T11:41:27.000Z</time>
      </trkpt>
      <trkpt lat="47.25812" lon="6.48759">
        <ele>595.59997558594</ele>
        <time>2018-05-01T11:41:31.000Z</time>
      </trkpt>
      <trkpt lat="47.25792" lon="6.48703">
        <ele>593</ele>
        <time>2018-05-01T11:41:38.000Z</time>
      </trkpt>
      <trkpt lat="47.25789" lon="6.48694">
        <ele>592.59997558594</ele>
        <time>2018-05-01T11:41:39.000Z</time>
      </trkpt>
      <trkpt lat="47.25783" lon="6.48676">
        <ele>591.59997558594</ele>
        <time>2018-05-01T11:41:41.000Z</time>
      </trkpt>
      <trkpt lat="47.25774" lon="6.4865">
        <ele>590.20001220703</ele>
        <time>2018-05-01T11:41:44.000Z</time>
      </trkpt>
      <trkpt lat="47.25771" lon="6.4864">
        <ele>590.40002441406</ele>
        <time>2018-05-01T11:41:45.000Z</time>
      </trkpt>
      <trkpt lat="47.25765" lon="6.4862">
        <ele>590.40002441406</ele>
        <time>2018-05-01T11:41:47.000Z</time>
      </trkpt>
      <trkpt lat="47.25759" lon="6.48601">
        <ele>590.59997558594</ele>
        <time>2018-05-01T11:41:49.000Z</time>
      </trkpt>
      <trkpt lat="47.25754" lon="6.48585">
        <ele>590.59997558594</ele>
        <time>2018-05-01T11:41:51.000Z</time>
      </trkpt>
      <trkpt lat="47.25752" lon="6.48578">
        <ele>590.59997558594</ele>
        <time>2018-05-01T11:41:52.000Z</time>
      </trkpt>
      <trkpt lat="47.25749" lon="6.4857">
        <ele>590.79998779297</ele>
        <time>2018-05-01T11:41:53.000Z</time>
      </trkpt>
      <trkpt lat="47.25744" lon="6.48555">
        <ele>591.20001220703</ele>
        <time>2018-05-01T11:41:55.000Z</time>
      </trkpt>
      <trkpt lat="47.25737" lon="6.48533">
        <ele>591.79998779297</ele>
        <time>2018-05-01T11:41:58.000Z</time>
      </trkpt>
      <trkpt lat="47.25732" lon="6.48518">
        <ele>592.20001220703</ele>
        <time>2018-05-01T11:42:00.000Z</time>
      </trkpt>
      <trkpt lat="47.25724" lon="6.48487">
        <ele>593</ele>
        <time>2018-05-01T11:42:04.000Z</time>
      </trkpt>
      <trkpt lat="47.2572" lon="6.48471">
        <ele>592.79998779297</ele>
        <time>2018-05-01T11:42:06.000Z</time>
      </trkpt>
      <trkpt lat="47.2571" lon="6.48432">
        <ele>591.59997558594</ele>
        <time>2018-05-01T11:42:10.000Z</time>
      </trkpt>
      <trkpt lat="47.25705" lon="6.48411">
        <ele>591</ele>
        <time>2018-05-01T11:42:12.000Z</time>
      </trkpt>
      <trkpt lat="47.25692" lon="6.48355">
        <ele>587.40002441406</ele>
        <time>2018-05-01T11:42:17.000Z</time>
      </trkpt>
      <trkpt lat="47.25689" lon="6.48344">
        <ele>586.40002441406</ele>
        <time>2018-05-01T11:42:18.000Z</time>
      </trkpt>
      <trkpt lat="47.25681" lon="6.4831">
        <ele>585</ele>
        <time>2018-05-01T11:42:21.000Z</time>
      </trkpt>
      <trkpt lat="47.25678" lon="6.48287">
        <ele>584</ele>
        <time>2018-05-01T11:42:23.000Z</time>
      </trkpt>
      <trkpt lat="47.25677" lon="6.48275">
        <ele>583.40002441406</ele>
        <time>2018-05-01T11:42:24.000Z</time>
      </trkpt>
      <trkpt lat="47.25674" lon="6.48237">
        <ele>581.59997558594</ele>
        <time>2018-05-01T11:42:27.000Z</time>
      </trkpt>
      <trkpt lat="47.25672" lon="6.4821">
        <ele>581.59997558594</ele>
        <time>2018-05-01T11:42:29.000Z</time>
      </trkpt>
      <trkpt lat="47.25669" lon="6.48173">
        <ele>581.59997558594</ele>
        <time>2018-05-01T11:42:32.000Z</time>
      </trkpt>
      <trkpt lat="47.25668" lon="6.48163">
        <ele>581.79998779297</ele>
        <time>2018-05-01T11:42:33.000Z</time>
      </trkpt>
      <trkpt lat="47.25668" lon="6.48153">
        <ele>581.79998779297</ele>
        <time>2018-05-01T11:42:34.000Z</time>
      </trkpt>
      <trkpt lat="47.25667" lon="6.48133">
        <ele>581.40002441406</ele>
        <time>2018-05-01T11:42:36.000Z</time>
      </trkpt>
      <trkpt lat="47.25664" lon="6.48093">
        <ele>580.59997558594</ele>
        <time>2018-05-01T11:42:40.000Z</time>
      </trkpt>
      <trkpt lat="47.25663" lon="6.48073">
        <ele>580.20001220703</ele>
        <time>2018-05-01T11:42:42.000Z</time>
      </trkpt>
      <trkpt lat="47.2566" lon="6.48031">
        <ele>579.79998779297</ele>
        <time>2018-05-01T11:42:46.000Z</time>
      </trkpt>
      <trkpt lat="47.2566" lon="6.4802">
        <ele>579.79998779297</ele>
        <time>2018-05-01T11:42:47.000Z</time>
      </trkpt>
      <trkpt lat="47.25653" lon="6.47967">
        <ele>579.79998779297</ele>
        <time>2018-05-01T11:42:52.000Z</time>
      </trkpt>
      <trkpt lat="47.25648" lon="6.47947">
        <ele>579.59997558594</ele>
        <time>2018-05-01T11:42:54.000Z</time>
      </trkpt>
      <trkpt lat="47.25638" lon="6.47897">
        <ele>579.20001220703</ele>
        <time>2018-05-01T11:42:59.000Z</time>
      </trkpt>
      <trkpt lat="47.25633" lon="6.47868">
        <ele>579.59997558594</ele>
        <time>2018-05-01T11:43:02.000Z</time>
      </trkpt>
      <trkpt lat="47.25629" lon="6.47849">
        <ele>579.79998779297</ele>
        <time>2018-05-01T11:43:04.000Z</time>
      </trkpt>
      <trkpt lat="47.25617" lon="6.47795">
        <ele>580</ele>
        <time>2018-05-01T11:43:10.000Z</time>
      </trkpt>
      <trkpt lat="47.25616" lon="6.47786">
        <ele>579.79998779297</ele>
        <time>2018-05-01T11:43:11.000Z</time>
      </trkpt>
      <trkpt lat="47.25603" lon="6.47718">
        <ele>578.79998779297</ele>
        <time>2018-05-01T11:43:18.000Z</time>
      </trkpt>
      <trkpt lat="47.25594" lon="6.47669">
        <ele>576</ele>
        <time>2018-05-01T11:43:23.000Z</time>
      </trkpt>
      <trkpt lat="47.25579" lon="6.47592">
        <ele>574</ele>
        <time>2018-05-01T11:43:31.000Z</time>
      </trkpt>
      <trkpt lat="47.25577" lon="6.47582">
        <ele>573.79998779297</ele>
        <time>2018-05-01T11:43:32.000Z</time>
      </trkpt>
      <trkpt lat="47.2557" lon="6.47541">
        <ele>573.20001220703</ele>
        <time>2018-05-01T11:43:36.000Z</time>
      </trkpt>
      <trkpt lat="47.25568" lon="6.47531">
        <ele>573</ele>
        <time>2018-05-01T11:43:37.000Z</time>
      </trkpt>
      <trkpt lat="47.25564" lon="6.47508">
        <ele>572.79998779297</ele>
        <time>2018-05-01T11:43:39.000Z</time>
      </trkpt>
      <trkpt lat="47.25557" lon="6.47474">
        <ele>572.79998779297</ele>
        <time>2018-05-01T11:43:42.000Z</time>
      </trkpt>
      <trkpt lat="47.25553" lon="6.47452">
        <ele>573.20001220703</ele>
        <time>2018-05-01T11:43:44.000Z</time>
      </trkpt>
      <trkpt lat="47.25551" lon="6.47441">
        <ele>573.59997558594</ele>
        <time>2018-05-01T11:43:45.000Z</time>
      </trkpt>
      <trkpt lat="47.25545" lon="6.47409">
        <ele>574.40002441406</ele>
        <time>2018-05-01T11:43:48.000Z</time>
      </trkpt>
      <trkpt lat="47.2554" lon="6.47389">
        <ele>574.20001220703</ele>
        <time>2018-05-01T11:43:50.000Z</time>
      </trkpt>
      <trkpt lat="47.25538" lon="6.4738">
        <ele>573.79998779297</ele>
        <time>2018-05-01T11:43:51.000Z</time>
      </trkpt>
      <trkpt lat="47.25536" lon="6.4736">
        <ele>572.79998779297</ele>
        <time>2018-05-01T11:43:53.000Z</time>
      </trkpt>
      <trkpt lat="47.25538" lon="6.47349">
        <ele>572.20001220703</ele>
        <time>2018-05-01T11:43:54.000Z</time>
      </trkpt>
      <trkpt lat="47.2555" lon="6.47322">
        <ele>571.20001220703</ele>
        <time>2018-05-01T11:43:57.000Z</time>
      </trkpt>
      <trkpt lat="47.25555" lon="6.47314">
        <ele>570.79998779297</ele>
        <time>2018-05-01T11:43:58.000Z</time>
      </trkpt>
      <trkpt lat="47.25579" lon="6.47271">
        <ele>569.40002441406</ele>
        <time>2018-05-01T11:44:03.000Z</time>
      </trkpt>
      <trkpt lat="47.25585" lon="6.47252">
        <ele>569</ele>
        <time>2018-05-01T11:44:05.000Z</time>
      </trkpt>
      <trkpt lat="47.25589" lon="6.47232">
        <ele>569</ele>
        <time>2018-05-01T11:44:07.000Z</time>
      </trkpt>
      <trkpt lat="47.25595" lon="6.47182">
        <ele>568.40002441406</ele>
        <time>2018-05-01T11:44:12.000Z</time>
      </trkpt>
      <trkpt lat="47.25601" lon="6.47128">
        <ele>568.20001220703</ele>
        <time>2018-05-01T11:44:18.000Z</time>
      </trkpt>
      <trkpt lat="47.25604" lon="6.47101">
        <ele>568.20001220703</ele>
        <time>2018-05-01T11:44:21.000Z</time>
      </trkpt>
      <trkpt lat="47.25611" lon="6.47087">
        <ele>568.20001220703</ele>
        <time>2018-05-01T11:44:23.000Z</time>
      </trkpt>
      <trkpt lat="47.25622" lon="6.47079">
        <ele>568.20001220703</ele>
        <time>2018-05-01T11:44:25.000Z</time>
      </trkpt>
      <trkpt lat="47.25628" lon="6.47076">
        <ele>568.20001220703</ele>
        <time>2018-05-01T11:44:26.000Z</time>
      </trkpt>
      <trkpt lat="47.25633" lon="6.47073">
        <ele>568</ele>
        <time>2018-05-01T11:44:27.000Z</time>
      </trkpt>
      <trkpt lat="47.25662" lon="6.47059">
        <ele>568</ele>
        <time>2018-05-01T11:44:32.000Z</time>
      </trkpt>
      <trkpt lat="47.25667" lon="6.47056">
        <ele>568</ele>
        <time>2018-05-01T11:44:33.000Z</time>
      </trkpt>
      <trkpt lat="47.25693" lon="6.47043">
        <ele>567.59997558594</ele>
        <time>2018-05-01T11:44:38.000Z</time>
      </trkpt>
      <trkpt lat="47.25696" lon="6.47042">
        <ele>567.59997558594</ele>
        <time>2018-05-01T11:44:39.000Z</time>
      </trkpt>
      <trkpt lat="47.25699" lon="6.47041">
        <ele>567.59997558594</ele>
        <time>2018-05-01T11:44:40.000Z</time>
      </trkpt>
      <trkpt lat="47.25705" lon="6.47029">
        <ele>567.40002441406</ele>
        <time>2018-05-01T11:44:43.000Z</time>
      </trkpt>
      <trkpt lat="47.25705" lon="6.4701">
        <ele>567.59997558594</ele>
        <time>2018-05-01T11:44:46.000Z</time>
      </trkpt>
      <trkpt lat="47.25703" lon="6.46995">
        <ele>567.79998779297</ele>
        <time>2018-05-01T11:44:48.000Z</time>
      </trkpt>
      <trkpt lat="47.25693" lon="6.46922">
        <ele>567.40002441406</ele>
        <time>2018-05-01T11:44:58.000Z</time>
      </trkpt>
      <trkpt lat="47.2569" lon="6.46908">
        <ele>567.40002441406</ele>
        <time>2018-05-01T11:45:00.000Z</time>
      </trkpt>
      <trkpt lat="47.25685" lon="6.46894">
        <ele>567.20001220703</ele>
        <time>2018-05-01T11:45:02.000Z</time>
      </trkpt>
      <trkpt lat="47.25681" lon="6.46881">
        <ele>566.79998779297</ele>
        <time>2018-05-01T11:45:04.000Z</time>
      </trkpt>
      <trkpt lat="47.25678" lon="6.46874">
        <ele>566.59997558594</ele>
        <time>2018-05-01T11:45:05.000Z</time>
      </trkpt>
      <trkpt lat="47.25674" lon="6.46863">
        <ele>566.20001220703</ele>
        <time>2018-05-01T11:45:07.000Z</time>
      </trkpt>
      <trkpt lat="47.2567" lon="6.4686">
        <ele>566.20001220703</ele>
        <time>2018-05-01T11:45:08.000Z</time>
      </trkpt>
      <trkpt lat="47.25664" lon="6.46857">
        <ele>566</ele>
        <time>2018-05-01T11:45:11.000Z</time>
      </trkpt>
      <trkpt lat="47.25663" lon="6.46856">
        <ele>566</ele>
        <time>2018-05-01T11:45:16.000Z</time>
      </trkpt>
      <trkpt lat="47.25663" lon="6.46854">
        <ele>566</ele>
        <time>2018-05-01T11:45:20.000Z</time>
      </trkpt>
      <trkpt lat="47.25662" lon="6.46847">
        <ele>565.79998779297</ele>
        <time>2018-05-01T11:45:22.000Z</time>
      </trkpt>
      <trkpt lat="47.25663" lon="6.46825">
        <ele>565.20001220703</ele>
        <time>2018-05-01T11:45:26.000Z</time>
      </trkpt>
      <trkpt lat="47.25656" lon="6.46789">
        <ele>565.20001220703</ele>
        <time>2018-05-01T11:45:31.000Z</time>
      </trkpt>
      <trkpt lat="47.25654" lon="6.46781">
        <ele>565.20001220703</ele>
        <time>2018-05-01T11:45:32.000Z</time>
      </trkpt>
      <trkpt lat="47.25644" lon="6.46718">
        <ele>565.40002441406</ele>
        <time>2018-05-01T11:45:40.000Z</time>
      </trkpt>
      <trkpt lat="47.25634" lon="6.4665">
        <ele>564.40002441406</ele>
        <time>2018-05-01T11:45:48.000Z</time>
      </trkpt>
      <trkpt lat="47.25623" lon="6.46598">
        <ele>564</ele>
        <time>2018-05-01T11:45:54.000Z</time>
      </trkpt>
      <trkpt lat="47.25621" lon="6.4659">
        <ele>564</ele>
        <time>2018-05-01T11:45:55.000Z</time>
      </trkpt>
      <trkpt lat="47.25606" lon="6.46524">
        <ele>563.59997558594</ele>
        <time>2018-05-01T11:46:03.000Z</time>
      </trkpt>
      <trkpt lat="47.25596" lon="6.46462">
        <ele>562.40002441406</ele>
        <time>2018-05-01T11:46:10.000Z</time>
      </trkpt>
      <trkpt lat="47.25584" lon="6.46411">
        <ele>560.40002441406</ele>
        <time>2018-05-01T11:46:16.000Z</time>
      </trkpt>
      <trkpt lat="47.25581" lon="6.46403">
        <ele>560.20001220703</ele>
        <time>2018-05-01T11:46:17.000Z</time>
      </trkpt>
      <trkpt lat="47.25557" lon="6.46352">
        <ele>559.79998779297</ele>
        <time>2018-05-01T11:46:24.000Z</time>
      </trkpt>
      <trkpt lat="47.2554" lon="6.46307">
        <ele>559.79998779297</ele>
        <time>2018-05-01T11:46:30.000Z</time>
      </trkpt>
      <trkpt lat="47.25537" lon="6.46262">
        <ele>559.79998779297</ele>
        <time>2018-05-01T11:46:35.000Z</time>
      </trkpt>
      <trkpt lat="47.25543" lon="6.46197">
        <ele>560.40002441406</ele>
        <time>2018-05-01T11:46:42.000Z</time>
      </trkpt>
      <trkpt lat="47.25545" lon="6.46142">
        <ele>560.20001220703</ele>
        <time>2018-05-01T11:46:48.000Z</time>
      </trkpt>
      <trkpt lat="47.25537" lon="6.46078">
        <ele>560.59997558594</ele>
        <time>2018-05-01T11:46:55.000Z</time>
      </trkpt>
      <trkpt lat="47.25525" lon="6.4602">
        <ele>561</ele>
        <time>2018-05-01T11:47:02.000Z</time>
      </trkpt>
      <trkpt lat="47.25517" lon="6.45993">
        <ele>561.40002441406</ele>
        <time>2018-05-01T11:47:06.000Z</time>
      </trkpt>
      <trkpt lat="47.25513" lon="6.4598">
        <ele>561.59997558594</ele>
        <time>2018-05-01T11:47:08.000Z</time>
      </trkpt>
      <trkpt lat="47.25508" lon="6.45968">
        <ele>561.79998779297</ele>
        <time>2018-05-01T11:47:10.000Z</time>
      </trkpt>
      <trkpt lat="47.25495" lon="6.45941">
        <ele>562</ele>
        <time>2018-05-01T11:47:15.000Z</time>
      </trkpt>
      <trkpt lat="47.25492" lon="6.45936">
        <ele>562.20001220703</ele>
        <time>2018-05-01T11:47:16.000Z</time>
      </trkpt>
      <trkpt lat="47.25478" lon="6.45916">
        <ele>562.59997558594</ele>
        <time>2018-05-01T11:47:20.000Z</time>
      </trkpt>
      <trkpt lat="47.2547" lon="6.45906">
        <ele>563</ele>
        <time>2018-05-01T11:47:22.000Z</time>
      </trkpt>
      <trkpt lat="47.25439" lon="6.45867">
        <ele>564</ele>
        <time>2018-05-01T11:47:29.000Z</time>
      </trkpt>
      <trkpt lat="47.25429" lon="6.45856">
        <ele>564.40002441406</ele>
        <time>2018-05-01T11:47:31.000Z</time>
      </trkpt>
      <trkpt lat="47.25409" lon="6.45836">
        <ele>565</ele>
        <time>2018-05-01T11:47:35.000Z</time>
      </trkpt>
      <trkpt lat="47.25395" lon="6.45821">
        <ele>565.20001220703</ele>
        <time>2018-05-01T11:47:38.000Z</time>
      </trkpt>
      <trkpt lat="47.25362" lon="6.45775">
        <ele>565.59997558594</ele>
        <time>2018-05-01T11:47:46.000Z</time>
      </trkpt>
      <trkpt lat="47.25347" lon="6.45735">
        <ele>565.79998779297</ele>
        <time>2018-05-01T11:47:52.000Z</time>
      </trkpt>
      <trkpt lat="47.25345" lon="6.45728">
        <ele>565.79998779297</ele>
        <time>2018-05-01T11:47:53.000Z</time>
      </trkpt>
      <trkpt lat="47.25335" lon="6.45682">
        <ele>566.59997558594</ele>
        <time>2018-05-01T11:47:59.000Z</time>
      </trkpt>
      <trkpt lat="47.2532" lon="6.4561">
        <ele>566</ele>
        <time>2018-05-01T11:48:08.000Z</time>
      </trkpt>
      <trkpt lat="47.25307" lon="6.45546">
        <ele>565</ele>
        <time>2018-05-01T11:48:15.000Z</time>
      </trkpt>
      <trkpt lat="47.25297" lon="6.4548">
        <ele>565</ele>
        <time>2018-05-01T11:48:22.000Z</time>
      </trkpt>
      <trkpt lat="47.25289" lon="6.45411">
        <ele>566.20001220703</ele>
        <time>2018-05-01T11:48:30.000Z</time>
      </trkpt>
      <trkpt lat="47.25286" lon="6.4536">
        <ele>567</ele>
        <time>2018-05-01T11:48:36.000Z</time>
      </trkpt>
      <trkpt lat="47.25286" lon="6.45351">
        <ele>567</ele>
        <time>2018-05-01T11:48:37.000Z</time>
      </trkpt>
      <trkpt lat="47.25291" lon="6.45327">
        <ele>566.79998779297</ele>
        <time>2018-05-01T11:48:40.000Z</time>
      </trkpt>
      <trkpt lat="47.25296" lon="6.45312">
        <ele>567</ele>
        <time>2018-05-01T11:48:42.000Z</time>
      </trkpt>
      <trkpt lat="47.25301" lon="6.453">
        <ele>568.40002441406</ele>
        <time>2018-05-01T11:48:44.000Z</time>
      </trkpt>
      <trkpt lat="47.25305" lon="6.4528">
        <ele>569.79998779297</ele>
        <time>2018-05-01T11:48:47.000Z</time>
      </trkpt>
      <trkpt lat="47.25305" lon="6.45274">
        <ele>570</ele>
        <time>2018-05-01T11:48:48.000Z</time>
      </trkpt>
      <trkpt lat="47.25302" lon="6.45263">
        <ele>570.79998779297</ele>
        <time>2018-05-01T11:48:50.000Z</time>
      </trkpt>
      <trkpt lat="47.25293" lon="6.45251">
        <ele>572.40002441406</ele>
        <time>2018-05-01T11:48:54.000Z</time>
      </trkpt>
      <trkpt lat="47.25291" lon="6.45249">
        <ele>573</ele>
        <time>2018-05-01T11:48:55.000Z</time>
      </trkpt>
      <trkpt lat="47.25288" lon="6.45247">
        <ele>573.40002441406</ele>
        <time>2018-05-01T11:48:56.000Z</time>
      </trkpt>
      <trkpt lat="47.25288" lon="6.45242">
        <ele>573.59997558594</ele>
        <time>2018-05-01T11:48:58.000Z</time>
      </trkpt>
      <trkpt lat="47.25288" lon="6.4524">
        <ele>573.79998779297</ele>
        <time>2018-05-01T11:49:03.000Z</time>
      </trkpt>
      <trkpt lat="47.25288" lon="6.45239">
        <ele>573.79998779297</ele>
        <time>2018-05-01T11:49:12.000Z</time>
      </trkpt>
      <trkpt lat="47.25288" lon="6.45239">
        <ele>573.79998779297</ele>
        <time>2018-05-01T11:49:22.000Z</time>
      </trkpt>
      <trkpt lat="47.25288" lon="6.45239">
        <ele>573.79998779297</ele>
        <time>2018-05-01T11:49:37.000Z</time>
      </trkpt>
      <trkpt lat="47.25287" lon="6.45239">
        <ele>573.79998779297</ele>
        <time>2018-05-01T11:49:50.000Z</time>
      </trkpt>
      <trkpt lat="47.25287" lon="6.45239">
        <ele>573.79998779297</ele>
        <time>2018-05-01T11:50:07.000Z</time>
      </trkpt>
      <trkpt lat="47.25287" lon="6.45238">
        <ele>573.79998779297</ele>
        <time>2018-05-01T11:50:26.000Z</time>
      </trkpt>
      <trkpt lat="47.25287" lon="6.45238">
        <ele>573.79998779297</ele>
        <time>2018-05-01T11:50:42.000Z</time>
      </trkpt>
      <trkpt lat="47.25287" lon="6.45238">
        <ele>573.79998779297</ele>
        <time>2018-05-01T11:50:58.000Z</time>
      </trkpt>
      <trkpt lat="47.25288" lon="6.45238">
        <ele>573.79998779297</ele>
        <time>2018-05-01T11:51:19.000Z</time>
      </trkpt>
      <trkpt lat="47.25288" lon="6.45238">
        <ele>573.79998779297</ele>
        <time>2018-05-01T11:51:36.000Z</time>
      </trkpt>
      <trkpt lat="47.25287" lon="6.45237">
        <ele>573.79998779297</ele>
        <time>2018-05-01T11:52:00.000Z</time>
      </trkpt>
      <trkpt lat="47.25287" lon="6.45237">
        <ele>573.79998779297</ele>
        <time>2018-05-01T11:52:22.000Z</time>
      </trkpt>
      <trkpt lat="47.25287" lon="6.45237">
        <ele>573.79998779297</ele>
        <time>2018-05-01T11:52:51.000Z</time>
      </trkpt>
      <trkpt lat="47.25287" lon="6.45237">
        <ele>573.79998779297</ele>
        <time>2018-05-01T11:53:06.000Z</time>
      </trkpt>
      <trkpt lat="47.25287" lon="6.45237">
        <ele>573.79998779297</ele>
        <time>2018-05-01T11:53:24.000Z</time>
      </trkpt>
      <trkpt lat="47.25287" lon="6.45237">
        <ele>573.79998779297</ele>
        <time>2018-05-01T11:53:41.000Z</time>
      </trkpt>
      <trkpt lat="47.25287" lon="6.45236">
        <ele>573.79998779297</ele>
        <time>2018-05-01T11:53:48.000Z</time>
      </trkpt>
      <trkpt lat="47.25284" lon="6.45239">
        <ele>574.20001220703</ele>
        <time>2018-05-01T11:53:57.000Z</time>
      </trkpt>
      <trkpt lat="47.25283" lon="6.45239">
        <ele>574.40002441406</ele>
        <time>2018-05-01T11:53:58.000Z</time>
      </trkpt>
      <trkpt lat="47.2528" lon="6.45238">
        <ele>575</ele>
        <time>2018-05-01T11:54:00.000Z</time>
      </trkpt>
      <trkpt lat="47.25281" lon="6.45235">
        <ele>575</ele>
        <time>2018-05-01T11:54:02.000Z</time>
      </trkpt>
      <trkpt lat="47.25284" lon="6.45229">
        <ele>575.20001220703</ele>
        <time>2018-05-01T11:54:05.000Z</time>
      </trkpt>
      <trkpt lat="47.25284" lon="6.45226">
        <ele>575.59997558594</ele>
        <time>2018-05-01T11:54:06.000Z</time>
      </trkpt>
      <trkpt lat="47.25284" lon="6.45223">
        <ele>576</ele>
        <time>2018-05-01T11:54:07.000Z</time>
      </trkpt>
      <trkpt lat="47.25285" lon="6.45208">
        <ele>578.59997558594</ele>
        <time>2018-05-01T11:54:12.000Z</time>
      </trkpt>
      <trkpt lat="47.25283" lon="6.45196">
        <ele>580.79998779297</ele>
        <time>2018-05-01T11:54:16.000Z</time>
      </trkpt>
      <trkpt lat="47.25281" lon="6.45181">
        <ele>583.40002441406</ele>
        <time>2018-05-01T11:54:21.000Z</time>
      </trkpt>
      <trkpt lat="47.25282" lon="6.45171">
        <ele>584.40002441406</ele>
        <time>2018-05-01T11:54:24.000Z</time>
      </trkpt>
      <trkpt lat="47.25284" lon="6.45162">
        <ele>584.79998779297</ele>
        <time>2018-05-01T11:54:27.000Z</time>
      </trkpt>
      <trkpt lat="47.25286" lon="6.45155">
        <ele>585.20001220703</ele>
        <time>2018-05-01T11:54:29.000Z</time>
      </trkpt>
      <trkpt lat="47.25289" lon="6.45149">
        <ele>585.40002441406</ele>
        <time>2018-05-01T11:54:31.000Z</time>
      </trkpt>
      <trkpt lat="47.25289" lon="6.45146">
        <ele>585.59997558594</ele>
        <time>2018-05-01T11:54:32.000Z</time>
      </trkpt>
      <trkpt lat="47.25292" lon="6.45139">
        <ele>586</ele>
        <time>2018-05-01T11:54:34.000Z</time>
      </trkpt>
      <trkpt lat="47.25295" lon="6.45131">
        <ele>586.40002441406</ele>
        <time>2018-05-01T11:54:36.000Z</time>
      </trkpt>
      <trkpt lat="47.25296" lon="6.45128">
        <ele>587</ele>
        <time>2018-05-01T11:54:37.000Z</time>
      </trkpt>
      <trkpt lat="47.25296" lon="6.45117">
        <ele>588.40002441406</ele>
        <time>2018-05-01T11:54:40.000Z</time>
      </trkpt>
      <trkpt lat="47.25297" lon="6.4511">
        <ele>589.20001220703</ele>
        <time>2018-05-01T11:54:42.000Z</time>
      </trkpt>
      <trkpt lat="47.25298" lon="6.45095">
        <ele>590.40002441406</ele>
        <time>2018-05-01T11:54:46.000Z</time>
      </trkpt>
      <trkpt lat="47.25299" lon="6.45084">
        <ele>591.59997558594</ele>
        <time>2018-05-01T11:54:49.000Z</time>
      </trkpt>
      <trkpt lat="47.25301" lon="6.45069">
        <ele>593</ele>
        <time>2018-05-01T11:54:53.000Z</time>
      </trkpt>
      <trkpt lat="47.25302" lon="6.4506">
        <ele>593.59997558594</ele>
        <time>2018-05-01T11:54:55.000Z</time>
      </trkpt>
      <trkpt lat="47.25303" lon="6.45034">
        <ele>595.40002441406</ele>
        <time>2018-05-01T11:55:01.000Z</time>
      </trkpt>
      <trkpt lat="47.25302" lon="6.45026">
        <ele>596.20001220703</ele>
        <time>2018-05-01T11:55:03.000Z</time>
      </trkpt>
      <trkpt lat="47.25301" lon="6.45018">
        <ele>596.79998779297</ele>
        <time>2018-05-01T11:55:05.000Z</time>
      </trkpt>
      <trkpt lat="47.25302" lon="6.45009">
        <ele>597.20001220703</ele>
        <time>2018-05-01T11:55:07.000Z</time>
      </trkpt>
      <trkpt lat="47.25305" lon="6.44991">
        <ele>598</ele>
        <time>2018-05-01T11:55:11.000Z</time>
      </trkpt>
      <trkpt lat="47.25305" lon="6.44983">
        <ele>598.59997558594</ele>
        <time>2018-05-01T11:55:13.000Z</time>
      </trkpt>
      <trkpt lat="47.25305" lon="6.44979">
        <ele>598.59997558594</ele>
        <time>2018-05-01T11:55:14.000Z</time>
      </trkpt>
      <trkpt lat="47.25303" lon="6.44968">
        <ele>599.40002441406</ele>
        <time>2018-05-01T11:55:17.000Z</time>
      </trkpt>
      <trkpt lat="47.25302" lon="6.44964">
        <ele>599.59997558594</ele>
        <time>2018-05-01T11:55:18.000Z</time>
      </trkpt>
      <trkpt lat="47.25302" lon="6.4496">
        <ele>599.79998779297</ele>
        <time>2018-05-01T11:55:19.000Z</time>
      </trkpt>
      <trkpt lat="47.25303" lon="6.44956">
        <ele>599.59997558594</ele>
        <time>2018-05-01T11:55:20.000Z</time>
      </trkpt>
      <trkpt lat="47.25304" lon="6.44948">
        <ele>599.59997558594</ele>
        <time>2018-05-01T11:55:22.000Z</time>
      </trkpt>
      <trkpt lat="47.25304" lon="6.4494">
        <ele>599.79998779297</ele>
        <time>2018-05-01T11:55:24.000Z</time>
      </trkpt>
      <trkpt lat="47.25303" lon="6.44929">
        <ele>600.20001220703</ele>
        <time>2018-05-01T11:55:27.000Z</time>
      </trkpt>
      <trkpt lat="47.25304" lon="6.4492">
        <ele>600.20001220703</ele>
        <time>2018-05-01T11:55:30.000Z</time>
      </trkpt>
      <trkpt lat="47.25306" lon="6.44916">
        <ele>600</ele>
        <time>2018-05-01T11:55:32.000Z</time>
      </trkpt>
      <trkpt lat="47.25306" lon="6.44912">
        <ele>600</ele>
        <time>2018-05-01T11:55:33.000Z</time>
      </trkpt>
      <trkpt lat="47.25306" lon="6.44906">
        <ele>600</ele>
        <time>2018-05-01T11:55:35.000Z</time>
      </trkpt>
      <trkpt lat="47.25306" lon="6.44898">
        <ele>600.40002441406</ele>
        <time>2018-05-01T11:55:37.000Z</time>
      </trkpt>
      <trkpt lat="47.25307" lon="6.44889">
        <ele>601</ele>
        <time>2018-05-01T11:55:39.000Z</time>
      </trkpt>
      <trkpt lat="47.25306" lon="6.44875">
        <ele>602.20001220703</ele>
        <time>2018-05-01T11:55:42.000Z</time>
      </trkpt>
      <trkpt lat="47.25306" lon="6.4487">
        <ele>602.79998779297</ele>
        <time>2018-05-01T11:55:43.000Z</time>
      </trkpt>
      <trkpt lat="47.25306" lon="6.4484">
        <ele>605.20001220703</ele>
        <time>2018-05-01T11:55:49.000Z</time>
      </trkpt>
      <trkpt lat="47.2531" lon="6.44819">
        <ele>606.20001220703</ele>
        <time>2018-05-01T11:55:53.000Z</time>
      </trkpt>
      <trkpt lat="47.25312" lon="6.44809">
        <ele>606</ele>
        <time>2018-05-01T11:55:55.000Z</time>
      </trkpt>
      <trkpt lat="47.25314" lon="6.44804">
        <ele>605.59997558594</ele>
        <time>2018-05-01T11:55:56.000Z</time>
      </trkpt>
      <trkpt lat="47.25318" lon="6.44785">
        <ele>605.20001220703</ele>
        <time>2018-05-01T11:55:59.000Z</time>
      </trkpt>
      <trkpt lat="47.2532" lon="6.44779">
        <ele>605</ele>
        <time>2018-05-01T11:56:00.000Z</time>
      </trkpt>
      <trkpt lat="47.25322" lon="6.44766">
        <ele>604.59997558594</ele>
        <time>2018-05-01T11:56:02.000Z</time>
      </trkpt>
      <trkpt lat="47.25326" lon="6.44747">
        <ele>604.40002441406</ele>
        <time>2018-05-01T11:56:05.000Z</time>
      </trkpt>
      <trkpt lat="47.25329" lon="6.44735">
        <ele>604</ele>
        <time>2018-05-01T11:56:07.000Z</time>
      </trkpt>
      <trkpt lat="47.2533" lon="6.44723">
        <ele>603.79998779297</ele>
        <time>2018-05-01T11:56:09.000Z</time>
      </trkpt>
      <trkpt lat="47.25331" lon="6.44711">
        <ele>603.79998779297</ele>
        <time>2018-05-01T11:56:11.000Z</time>
      </trkpt>
      <trkpt lat="47.25331" lon="6.44704">
        <ele>603.79998779297</ele>
        <time>2018-05-01T11:56:12.000Z</time>
      </trkpt>
      <trkpt lat="47.25331" lon="6.44692">
        <ele>604</ele>
        <time>2018-05-01T11:56:14.000Z</time>
      </trkpt>
      <trkpt lat="47.2533" lon="6.44678">
        <ele>604.40002441406</ele>
        <time>2018-05-01T11:56:17.000Z</time>
      </trkpt>
      <trkpt lat="47.25331" lon="6.44674">
        <ele>604.20001220703</ele>
        <time>2018-05-01T11:56:18.000Z</time>
      </trkpt>
      <trkpt lat="47.25333" lon="6.44669">
        <ele>603.79998779297</ele>
        <time>2018-05-01T11:56:19.000Z</time>
      </trkpt>
      <trkpt lat="47.25334" lon="6.44664">
        <ele>603.59997558594</ele>
        <time>2018-05-01T11:56:20.000Z</time>
      </trkpt>
      <trkpt lat="47.25334" lon="6.4466">
        <ele>603.59997558594</ele>
        <time>2018-05-01T11:56:21.000Z</time>
      </trkpt>
      <trkpt lat="47.25336" lon="6.44655">
        <ele>603.40002441406</ele>
        <time>2018-05-01T11:56:22.000Z</time>
      </trkpt>
      <trkpt lat="47.25336" lon="6.44651">
        <ele>603.79998779297</ele>
        <time>2018-05-01T11:56:23.000Z</time>
      </trkpt>
      <trkpt lat="47.25337" lon="6.44647">
        <ele>604</ele>
        <time>2018-05-01T11:56:24.000Z</time>
      </trkpt>
      <trkpt lat="47.25337" lon="6.44642">
        <ele>604.20001220703</ele>
        <time>2018-05-01T11:56:25.000Z</time>
      </trkpt>
      <trkpt lat="47.25337" lon="6.44638">
        <ele>604.20001220703</ele>
        <time>2018-05-01T11:56:26.000Z</time>
      </trkpt>
      <trkpt lat="47.25338" lon="6.44634">
        <ele>604.40002441406</ele>
        <time>2018-05-01T11:56:27.000Z</time>
      </trkpt>
      <trkpt lat="47.25338" lon="6.4463">
        <ele>604.40002441406</ele>
        <time>2018-05-01T11:56:28.000Z</time>
      </trkpt>
      <trkpt lat="47.2534" lon="6.44615">
        <ele>604.59997558594</ele>
        <time>2018-05-01T11:56:32.000Z</time>
      </trkpt>
      <trkpt lat="47.25342" lon="6.44606">
        <ele>604.59997558594</ele>
        <time>2018-05-01T11:56:34.000Z</time>
      </trkpt>
      <trkpt lat="47.25344" lon="6.44598">
        <ele>604.79998779297</ele>
        <time>2018-05-01T11:56:36.000Z</time>
      </trkpt>
      <trkpt lat="47.25345" lon="6.44584">
        <ele>605</ele>
        <time>2018-05-01T11:56:39.000Z</time>
      </trkpt>
      <trkpt lat="47.25346" lon="6.4457">
        <ele>605.20001220703</ele>
        <time>2018-05-01T11:56:42.000Z</time>
      </trkpt>
      <trkpt lat="47.25348" lon="6.4456">
        <ele>605.40002441406</ele>
        <time>2018-05-01T11:56:44.000Z</time>
      </trkpt>
      <trkpt lat="47.25348" lon="6.4455">
        <ele>606</ele>
        <time>2018-05-01T11:56:46.000Z</time>
      </trkpt>
      <trkpt lat="47.25347" lon="6.44538">
        <ele>607</ele>
        <time>2018-05-01T11:56:48.000Z</time>
      </trkpt>
      <trkpt lat="47.25347" lon="6.44532">
        <ele>607.40002441406</ele>
        <time>2018-05-01T11:56:49.000Z</time>
      </trkpt>
      <trkpt lat="47.25347" lon="6.44526">
        <ele>607.79998779297</ele>
        <time>2018-05-01T11:56:50.000Z</time>
      </trkpt>
      <trkpt lat="47.25348" lon="6.4452">
        <ele>608.20001220703</ele>
        <time>2018-05-01T11:56:51.000Z</time>
      </trkpt>
      <trkpt lat="47.25348" lon="6.44514">
        <ele>608.59997558594</ele>
        <time>2018-05-01T11:56:52.000Z</time>
      </trkpt>
      <trkpt lat="47.25348" lon="6.44508">
        <ele>609</ele>
        <time>2018-05-01T11:56:53.000Z</time>
      </trkpt>
      <trkpt lat="47.25348" lon="6.44503">
        <ele>609.40002441406</ele>
        <time>2018-05-01T11:56:54.000Z</time>
      </trkpt>
      <trkpt lat="47.25348" lon="6.44491">
        <ele>609.40002441406</ele>
        <time>2018-05-01T11:56:56.000Z</time>
      </trkpt>
      <trkpt lat="47.25348" lon="6.44479">
        <ele>609.59997558594</ele>
        <time>2018-05-01T11:56:58.000Z</time>
      </trkpt>
      <trkpt lat="47.25349" lon="6.44468">
        <ele>610.40002441406</ele>
        <time>2018-05-01T11:57:00.000Z</time>
      </trkpt>
      <trkpt lat="47.2535" lon="6.44462">
        <ele>610.79998779297</ele>
        <time>2018-05-01T11:57:01.000Z</time>
      </trkpt>
      <trkpt lat="47.25356" lon="6.44437">
        <ele>611.59997558594</ele>
        <time>2018-05-01T11:57:05.000Z</time>
      </trkpt>
      <trkpt lat="47.25358" lon="6.44429">
        <ele>611.79998779297</ele>
        <time>2018-05-01T11:57:06.000Z</time>
      </trkpt>
      <trkpt lat="47.2536" lon="6.44421">
        <ele>612.20001220703</ele>
        <time>2018-05-01T11:57:07.000Z</time>
      </trkpt>
      <trkpt lat="47.25363" lon="6.44407">
        <ele>612.79998779297</ele>
        <time>2018-05-01T11:57:09.000Z</time>
      </trkpt>
      <trkpt lat="47.25364" lon="6.44392">
        <ele>613.79998779297</ele>
        <time>2018-05-01T11:57:11.000Z</time>
      </trkpt>
      <trkpt lat="47.25367" lon="6.44379">
        <ele>613.79998779297</ele>
        <time>2018-05-01T11:57:13.000Z</time>
      </trkpt>
      <trkpt lat="47.25373" lon="6.44335">
        <ele>613.79998779297</ele>
        <time>2018-05-01T11:57:20.000Z</time>
      </trkpt>
      <trkpt lat="47.25374" lon="6.44329">
        <ele>613.59997558594</ele>
        <time>2018-05-01T11:57:21.000Z</time>
      </trkpt>
      <trkpt lat="47.25375" lon="6.44305">
        <ele>613.40002441406</ele>
        <time>2018-05-01T11:57:25.000Z</time>
      </trkpt>
      <trkpt lat="47.25375" lon="6.443">
        <ele>613.20001220703</ele>
        <time>2018-05-01T11:57:26.000Z</time>
      </trkpt>
      <trkpt lat="47.25376" lon="6.44288">
        <ele>613.20001220703</ele>
        <time>2018-05-01T11:57:28.000Z</time>
      </trkpt>
      <trkpt lat="47.25377" lon="6.44275">
        <ele>613.20001220703</ele>
        <time>2018-05-01T11:57:30.000Z</time>
      </trkpt>
      <trkpt lat="47.25377" lon="6.44263">
        <ele>613.20001220703</ele>
        <time>2018-05-01T11:57:32.000Z</time>
      </trkpt>
      <trkpt lat="47.25378" lon="6.44257">
        <ele>613</ele>
        <time>2018-05-01T11:57:33.000Z</time>
      </trkpt>
      <trkpt lat="47.25379" lon="6.4425">
        <ele>613</ele>
        <time>2018-05-01T11:57:34.000Z</time>
      </trkpt>
      <trkpt lat="47.25379" lon="6.44244">
        <ele>613</ele>
        <time>2018-05-01T11:57:35.000Z</time>
      </trkpt>
      <trkpt lat="47.2538" lon="6.44232">
        <ele>613.20001220703</ele>
        <time>2018-05-01T11:57:37.000Z</time>
      </trkpt>
      <trkpt lat="47.2538" lon="6.44219">
        <ele>613.59997558594</ele>
        <time>2018-05-01T11:57:39.000Z</time>
      </trkpt>
      <trkpt lat="47.2538" lon="6.44213">
        <ele>613.79998779297</ele>
        <time>2018-05-01T11:57:40.000Z</time>
      </trkpt>
      <trkpt lat="47.2538" lon="6.44206">
        <ele>614.20001220703</ele>
        <time>2018-05-01T11:57:41.000Z</time>
      </trkpt>
      <trkpt lat="47.2538" lon="6.44199">
        <ele>614.59997558594</ele>
        <time>2018-05-01T11:57:42.000Z</time>
      </trkpt>
      <trkpt lat="47.25379" lon="6.44186">
        <ele>614.79998779297</ele>
        <time>2018-05-01T11:57:44.000Z</time>
      </trkpt>
      <trkpt lat="47.25379" lon="6.4418">
        <ele>615</ele>
        <time>2018-05-01T11:57:45.000Z</time>
      </trkpt>
      <trkpt lat="47.25379" lon="6.44174">
        <ele>615.40002441406</ele>
        <time>2018-05-01T11:57:46.000Z</time>
      </trkpt>
      <trkpt lat="47.25377" lon="6.44162">
        <ele>616.20001220703</ele>
        <time>2018-05-01T11:57:48.000Z</time>
      </trkpt>
      <trkpt lat="47.25375" lon="6.44145">
        <ele>617.20001220703</ele>
        <time>2018-05-01T11:57:51.000Z</time>
      </trkpt>
      <trkpt lat="47.25373" lon="6.44135">
        <ele>617.59997558594</ele>
        <time>2018-05-01T11:57:53.000Z</time>
      </trkpt>
      <trkpt lat="47.25372" lon="6.4413">
        <ele>617.79998779297</ele>
        <time>2018-05-01T11:57:54.000Z</time>
      </trkpt>
      <trkpt lat="47.25371" lon="6.44125">
        <ele>618</ele>
        <time>2018-05-01T11:57:55.000Z</time>
      </trkpt>
      <trkpt lat="47.25369" lon="6.44116">
        <ele>618.79998779297</ele>
        <time>2018-05-01T11:57:57.000Z</time>
      </trkpt>
      <trkpt lat="47.25368" lon="6.44112">
        <ele>619.20001220703</ele>
        <time>2018-05-01T11:57:58.000Z</time>
      </trkpt>
      <trkpt lat="47.25366" lon="6.44108">
        <ele>619.40002441406</ele>
        <time>2018-05-01T11:57:59.000Z</time>
      </trkpt>
      <trkpt lat="47.25365" lon="6.44104">
        <ele>619.79998779297</ele>
        <time>2018-05-01T11:58:00.000Z</time>
      </trkpt>
      <trkpt lat="47.25364" lon="6.441">
        <ele>620.20001220703</ele>
        <time>2018-05-01T11:58:01.000Z</time>
      </trkpt>
      <trkpt lat="47.25362" lon="6.44092">
        <ele>620.79998779297</ele>
        <time>2018-05-01T11:58:03.000Z</time>
      </trkpt>
      <trkpt lat="47.2536" lon="6.44084">
        <ele>621.40002441406</ele>
        <time>2018-05-01T11:58:05.000Z</time>
      </trkpt>
      <trkpt lat="47.25358" lon="6.44075">
        <ele>621.59997558594</ele>
        <time>2018-05-01T11:58:07.000Z</time>
      </trkpt>
      <trkpt lat="47.25356" lon="6.44067">
        <ele>622.20001220703</ele>
        <time>2018-05-01T11:58:09.000Z</time>
      </trkpt>
      <trkpt lat="47.25354" lon="6.44054">
        <ele>622.79998779297</ele>
        <time>2018-05-01T11:58:12.000Z</time>
      </trkpt>
      <trkpt lat="47.25354" lon="6.44049">
        <ele>623</ele>
        <time>2018-05-01T11:58:13.000Z</time>
      </trkpt>
      <trkpt lat="47.25351" lon="6.44036">
        <ele>623.59997558594</ele>
        <time>2018-05-01T11:58:16.000Z</time>
      </trkpt>
      <trkpt lat="47.25349" lon="6.44021">
        <ele>624.20001220703</ele>
        <time>2018-05-01T11:58:19.000Z</time>
      </trkpt>
      <trkpt lat="47.25348" lon="6.43998">
        <ele>624</ele>
        <time>2018-05-01T11:58:24.000Z</time>
      </trkpt>
      <trkpt lat="47.25346" lon="6.43986">
        <ele>624.40002441406</ele>
        <time>2018-05-01T11:58:27.000Z</time>
      </trkpt>
      <trkpt lat="47.25343" lon="6.43978">
        <ele>625.40002441406</ele>
        <time>2018-05-01T11:58:29.000Z</time>
      </trkpt>
      <trkpt lat="47.25341" lon="6.43975">
        <ele>626</ele>
        <time>2018-05-01T11:58:30.000Z</time>
      </trkpt>
      <trkpt lat="47.2534" lon="6.43972">
        <ele>626.59997558594</ele>
        <time>2018-05-01T11:58:31.000Z</time>
      </trkpt>
      <trkpt lat="47.25336" lon="6.43966">
        <ele>627.79998779297</ele>
        <time>2018-05-01T11:58:33.000Z</time>
      </trkpt>
      <trkpt lat="47.25333" lon="6.4396">
        <ele>629</ele>
        <time>2018-05-01T11:58:36.000Z</time>
      </trkpt>
      <trkpt lat="47.25331" lon="6.43956">
        <ele>629.79998779297</ele>
        <time>2018-05-01T11:58:38.000Z</time>
      </trkpt>
      <trkpt lat="47.25328" lon="6.43948">
        <ele>630.40002441406</ele>
        <time>2018-05-01T11:58:42.000Z</time>
      </trkpt>
      <trkpt lat="47.25328" lon="6.43946">
        <ele>630.59997558594</ele>
        <time>2018-05-01T11:58:43.000Z</time>
      </trkpt>
      <trkpt lat="47.25326" lon="6.4394">
        <ele>630.79998779297</ele>
        <time>2018-05-01T11:58:46.000Z</time>
      </trkpt>
      <trkpt lat="47.25327" lon="6.43935">
        <ele>630.79998779297</ele>
        <time>2018-05-01T11:58:49.000Z</time>
      </trkpt>
      <trkpt lat="47.25326" lon="6.43926">
        <ele>631</ele>
        <time>2018-05-01T11:58:53.000Z</time>
      </trkpt>
      <trkpt lat="47.25324" lon="6.43918">
        <ele>631.20001220703</ele>
        <time>2018-05-01T11:58:58.000Z</time>
      </trkpt>
      <trkpt lat="47.25323" lon="6.4391">
        <ele>631.20001220703</ele>
        <time>2018-05-01T11:59:02.000Z</time>
      </trkpt>
      <trkpt lat="47.25323" lon="6.43908">
        <ele>631.40002441406</ele>
        <time>2018-05-01T11:59:03.000Z</time>
      </trkpt>
      <trkpt lat="47.25322" lon="6.439">
        <ele>631.59997558594</ele>
        <time>2018-05-01T11:59:07.000Z</time>
      </trkpt>
      <trkpt lat="47.25321" lon="6.43895">
        <ele>631.79998779297</ele>
        <time>2018-05-01T11:59:10.000Z</time>
      </trkpt>
      <trkpt lat="47.2532" lon="6.43888">
        <ele>632</ele>
        <time>2018-05-01T11:59:14.000Z</time>
      </trkpt>
      <trkpt lat="47.2532" lon="6.43882">
        <ele>632.20001220703</ele>
        <time>2018-05-01T11:59:17.000Z</time>
      </trkpt>
      <trkpt lat="47.25318" lon="6.4387">
        <ele>633</ele>
        <time>2018-05-01T11:59:24.000Z</time>
      </trkpt>
      <trkpt lat="47.25317" lon="6.43866">
        <ele>633.20001220703</ele>
        <time>2018-05-01T11:59:26.000Z</time>
      </trkpt>
      <trkpt lat="47.25316" lon="6.43862">
        <ele>633.40002441406</ele>
        <time>2018-05-01T11:59:28.000Z</time>
      </trkpt>
      <trkpt lat="47.25315" lon="6.43859">
        <ele>633.59997558594</ele>
        <time>2018-05-01T11:59:30.000Z</time>
      </trkpt>
      <trkpt lat="47.25315" lon="6.43857">
        <ele>633.59997558594</ele>
        <time>2018-05-01T11:59:31.000Z</time>
      </trkpt>
      <trkpt lat="47.25314" lon="6.43853">
        <ele>634</ele>
        <time>2018-05-01T11:59:34.000Z</time>
      </trkpt>
      <trkpt lat="47.25312" lon="6.43851">
        <ele>634.20001220703</ele>
        <time>2018-05-01T11:59:36.000Z</time>
      </trkpt>
      <trkpt lat="47.25311" lon="6.43851">
        <ele>634.20001220703</ele>
        <time>2018-05-01T11:59:37.000Z</time>
      </trkpt>
      <trkpt lat="47.25308" lon="6.43851">
        <ele>634.40002441406</ele>
        <time>2018-05-01T11:59:39.000Z</time>
      </trkpt>
      <trkpt lat="47.25305" lon="6.43852">
        <ele>634.40002441406</ele>
        <time>2018-05-01T11:59:41.000Z</time>
      </trkpt>
      <trkpt lat="47.25302" lon="6.43856">
        <ele>634.40002441406</ele>
        <time>2018-05-01T11:59:43.000Z</time>
      </trkpt>
      <trkpt lat="47.25301" lon="6.43858">
        <ele>634.40002441406</ele>
        <time>2018-05-01T11:59:44.000Z</time>
      </trkpt>
      <trkpt lat="47.25295" lon="6.43864">
        <ele>634.40002441406</ele>
        <time>2018-05-01T11:59:48.000Z</time>
      </trkpt>
      <trkpt lat="47.25293" lon="6.43866">
        <ele>634.40002441406</ele>
        <time>2018-05-01T11:59:49.000Z</time>
      </trkpt>
      <trkpt lat="47.25288" lon="6.43873">
        <ele>634.59997558594</ele>
        <time>2018-05-01T11:59:52.000Z</time>
      </trkpt>
      <trkpt lat="47.25284" lon="6.43878">
        <ele>634.79998779297</ele>
        <time>2018-05-01T11:59:54.000Z</time>
      </trkpt>
      <trkpt lat="47.2528" lon="6.43883">
        <ele>635</ele>
        <time>2018-05-01T11:59:56.000Z</time>
      </trkpt>
      <trkpt lat="47.25276" lon="6.43888">
        <ele>635.20001220703</ele>
        <time>2018-05-01T11:59:58.000Z</time>
      </trkpt>
      <trkpt lat="47.25266" lon="6.43896">
        <ele>635.59997558594</ele>
        <time>2018-05-01T12:00:02.000Z</time>
      </trkpt>
      <trkpt lat="47.25263" lon="6.43898">
        <ele>635.79998779297</ele>
        <time>2018-05-01T12:00:03.000Z</time>
      </trkpt>
      <trkpt lat="47.25247" lon="6.43914">
        <ele>636.79998779297</ele>
        <time>2018-05-01T12:00:09.000Z</time>
      </trkpt>
      <trkpt lat="47.25225" lon="6.43933">
        <ele>635.79998779297</ele>
        <time>2018-05-01T12:00:16.000Z</time>
      </trkpt>
      <trkpt lat="47.252" lon="6.43955">
        <ele>634.59997558594</ele>
        <time>2018-05-01T12:00:23.000Z</time>
      </trkpt>
      <trkpt lat="47.2517" lon="6.43983">
        <ele>633.20001220703</ele>
        <time>2018-05-01T12:00:31.000Z</time>
      </trkpt>
      <trkpt lat="47.25164" lon="6.43985">
        <ele>633</ele>
        <time>2018-05-01T12:00:33.000Z</time>
      </trkpt>
      <trkpt lat="47.25162" lon="6.43983">
        <ele>633</ele>
        <time>2018-05-01T12:00:34.000Z</time>
      </trkpt>
      <trkpt lat="47.2516" lon="6.43967">
        <ele>633.20001220703</ele>
        <time>2018-05-01T12:00:37.000Z</time>
      </trkpt>
      <trkpt lat="47.25158" lon="6.43955">
        <ele>633.20001220703</ele>
        <time>2018-05-01T12:00:39.000Z</time>
      </trkpt>
      <trkpt lat="47.25157" lon="6.43949">
        <ele>633.20001220703</ele>
        <time>2018-05-01T12:00:40.000Z</time>
      </trkpt>
      <trkpt lat="47.25155" lon="6.4393">
        <ele>633.40002441406</ele>
        <time>2018-05-01T12:00:43.000Z</time>
      </trkpt>
      <trkpt lat="47.25149" lon="6.43899">
        <ele>633.59997558594</ele>
        <time>2018-05-01T12:00:48.000Z</time>
      </trkpt>
      <trkpt lat="47.25147" lon="6.43886">
        <ele>634.20001220703</ele>
        <time>2018-05-01T12:00:50.000Z</time>
      </trkpt>
      <trkpt lat="47.25142" lon="6.43834">
        <ele>636.59997558594</ele>
        <time>2018-05-01T12:00:59.000Z</time>
      </trkpt>
      <trkpt lat="47.2514" lon="6.43815">
        <ele>637.59997558594</ele>
        <time>2018-05-01T12:01:03.000Z</time>
      </trkpt>
      <trkpt lat="47.2514" lon="6.43802">
        <ele>638.20001220703</ele>
        <time>2018-05-01T12:01:06.000Z</time>
      </trkpt>
      <trkpt lat="47.25138" lon="6.43789">
        <ele>638.59997558594</ele>
        <time>2018-05-01T12:01:09.000Z</time>
      </trkpt>
      <trkpt lat="47.25137" lon="6.43768">
        <ele>638.79998779297</ele>
        <time>2018-05-01T12:01:14.000Z</time>
      </trkpt>
      <trkpt lat="47.25135" lon="6.43752">
        <ele>639</ele>
        <time>2018-05-01T12:01:18.000Z</time>
      </trkpt>
      <trkpt lat="47.25134" lon="6.43739">
        <ele>639.20001220703</ele>
        <time>2018-05-01T12:01:21.000Z</time>
      </trkpt>
      <trkpt lat="47.25131" lon="6.4372">
        <ele>639.79998779297</ele>
        <time>2018-05-01T12:01:25.000Z</time>
      </trkpt>
      <trkpt lat="47.2513" lon="6.437">
        <ele>640.59997558594</ele>
        <time>2018-05-01T12:01:29.000Z</time>
      </trkpt>
      <trkpt lat="47.25129" lon="6.43691">
        <ele>640.79998779297</ele>
        <time>2018-05-01T12:01:31.000Z</time>
      </trkpt>
      <trkpt lat="47.25125" lon="6.43664">
        <ele>642</ele>
        <time>2018-05-01T12:01:36.000Z</time>
      </trkpt>
      <trkpt lat="47.25115" lon="6.43616">
        <ele>643</ele>
        <time>2018-05-01T12:01:45.000Z</time>
      </trkpt>
      <trkpt lat="47.25111" lon="6.43599">
        <ele>643.20001220703</ele>
        <time>2018-05-01T12:01:48.000Z</time>
      </trkpt>
      <trkpt lat="47.25107" lon="6.43583">
        <ele>643.79998779297</ele>
        <time>2018-05-01T12:01:51.000Z</time>
      </trkpt>
      <trkpt lat="47.25102" lon="6.4356">
        <ele>644.40002441406</ele>
        <time>2018-05-01T12:01:55.000Z</time>
      </trkpt>
      <trkpt lat="47.25098" lon="6.43542">
        <ele>644.59997558594</ele>
        <time>2018-05-01T12:01:58.000Z</time>
      </trkpt>
      <trkpt lat="47.25091" lon="6.4351">
        <ele>644.79998779297</ele>
        <time>2018-05-01T12:02:04.000Z</time>
      </trkpt>
      <trkpt lat="47.25081" lon="6.43491">
        <ele>645</ele>
        <time>2018-05-01T12:02:08.000Z</time>
      </trkpt>
      <trkpt lat="47.25077" lon="6.4349">
        <ele>645.20001220703</ele>
        <time>2018-05-01T12:02:09.000Z</time>
      </trkpt>
      <trkpt lat="47.25065" lon="6.43497">
        <ele>646.20001220703</ele>
        <time>2018-05-01T12:02:12.000Z</time>
      </trkpt>
      <trkpt lat="47.25039" lon="6.43518">
        <ele>648.40002441406</ele>
        <time>2018-05-01T12:02:18.000Z</time>
      </trkpt>
      <trkpt lat="47.25033" lon="6.4352">
        <ele>649</ele>
        <time>2018-05-01T12:02:19.000Z</time>
      </trkpt>
      <trkpt lat="47.25022" lon="6.43524">
        <ele>648.79998779297</ele>
        <time>2018-05-01T12:02:21.000Z</time>
      </trkpt>
      <trkpt lat="47.25014" lon="6.43517">
        <ele>649.59997558594</ele>
        <time>2018-05-01T12:02:23.000Z</time>
      </trkpt>
      <trkpt lat="47.25008" lon="6.43499">
        <ele>651.40002441406</ele>
        <time>2018-05-01T12:02:26.000Z</time>
      </trkpt>
      <trkpt lat="47.25006" lon="6.43493">
        <ele>651.79998779297</ele>
        <time>2018-05-01T12:02:27.000Z</time>
      </trkpt>
      <trkpt lat="47.2499" lon="6.43442">
        <ele>652.40002441406</ele>
        <time>2018-05-01T12:02:36.000Z</time>
      </trkpt>
      <trkpt lat="47.24978" lon="6.4342">
        <ele>653.59997558594</ele>
        <time>2018-05-01T12:02:41.000Z</time>
      </trkpt>
      <trkpt lat="47.2497" lon="6.43422">
        <ele>654.79998779297</ele>
        <time>2018-05-01T12:02:43.000Z</time>
      </trkpt>
      <trkpt lat="47.24966" lon="6.43425">
        <ele>655.59997558594</ele>
        <time>2018-05-01T12:02:44.000Z</time>
      </trkpt>
      <trkpt lat="47.24954" lon="6.43433">
        <ele>657.79998779297</ele>
        <time>2018-05-01T12:02:47.000Z</time>
      </trkpt>
      <trkpt lat="47.24945" lon="6.43439">
        <ele>659.20001220703</ele>
        <time>2018-05-01T12:02:49.000Z</time>
      </trkpt>
      <trkpt lat="47.24927" lon="6.43451">
        <ele>662.20001220703</ele>
        <time>2018-05-01T12:02:53.000Z</time>
      </trkpt>
      <trkpt lat="47.24923" lon="6.43455">
        <ele>662.79998779297</ele>
        <time>2018-05-01T12:02:54.000Z</time>
      </trkpt>
      <trkpt lat="47.24915" lon="6.43461">
        <ele>664.20001220703</ele>
        <time>2018-05-01T12:02:56.000Z</time>
      </trkpt>
      <trkpt lat="47.24907" lon="6.43466">
        <ele>664.40002441406</ele>
        <time>2018-05-01T12:02:58.000Z</time>
      </trkpt>
      <trkpt lat="47.24903" lon="6.43467">
        <ele>664.40002441406</ele>
        <time>2018-05-01T12:02:59.000Z</time>
      </trkpt>
      <trkpt lat="47.24898" lon="6.43469">
        <ele>664.40002441406</ele>
        <time>2018-05-01T12:03:00.000Z</time>
      </trkpt>
      <trkpt lat="47.24891" lon="6.43473">
        <ele>664.20001220703</ele>
        <time>2018-05-01T12:03:02.000Z</time>
      </trkpt>
      <trkpt lat="47.24881" lon="6.4348">
        <ele>663.79998779297</ele>
        <time>2018-05-01T12:03:05.000Z</time>
      </trkpt>
      <trkpt lat="47.24875" lon="6.43485">
        <ele>663.20001220703</ele>
        <time>2018-05-01T12:03:07.000Z</time>
      </trkpt>
      <trkpt lat="47.24871" lon="6.43487">
        <ele>663</ele>
        <time>2018-05-01T12:03:08.000Z</time>
      </trkpt>
      <trkpt lat="47.24858" lon="6.43495">
        <ele>661.59997558594</ele>
        <time>2018-05-01T12:03:11.000Z</time>
      </trkpt>
      <trkpt lat="47.2484" lon="6.43508">
        <ele>660.79998779297</ele>
        <time>2018-05-01T12:03:16.000Z</time>
      </trkpt>
      <trkpt lat="47.24822" lon="6.4352">
        <ele>660.79998779297</ele>
        <time>2018-05-01T12:03:22.000Z</time>
      </trkpt>
      <trkpt lat="47.24805" lon="6.43533">
        <ele>659</ele>
        <time>2018-05-01T12:03:27.000Z</time>
      </trkpt>
      <trkpt lat="47.24791" lon="6.43546">
        <ele>657.40002441406</ele>
        <time>2018-05-01T12:03:32.000Z</time>
      </trkpt>
      <trkpt lat="47.24774" lon="6.43555">
        <ele>655.20001220703</ele>
        <time>2018-05-01T12:03:37.000Z</time>
      </trkpt>
      <trkpt lat="47.2477" lon="6.43557">
        <ele>654.79998779297</ele>
        <time>2018-05-01T12:03:38.000Z</time>
      </trkpt>
      <trkpt lat="47.24757" lon="6.43563">
        <ele>653.20001220703</ele>
        <time>2018-05-01T12:03:42.000Z</time>
      </trkpt>
      <trkpt lat="47.2475" lon="6.43566">
        <ele>652.40002441406</ele>
        <time>2018-05-01T12:03:45.000Z</time>
      </trkpt>
      <trkpt lat="47.2475" lon="6.43568">
        <ele>652.40002441406</ele>
        <time>2018-05-01T12:03:46.000Z</time>
      </trkpt>
      <trkpt lat="47.24753" lon="6.4357">
        <ele>652.59997558594</ele>
        <time>2018-05-01T12:03:48.000Z</time>
      </trkpt>
      <trkpt lat="47.24755" lon="6.43568">
        <ele>653</ele>
        <time>2018-05-01T12:03:49.000Z</time>
      </trkpt>
      <trkpt lat="47.24761" lon="6.43563">
        <ele>653.79998779297</ele>
        <time>2018-05-01T12:03:51.000Z</time>
      </trkpt>
      <trkpt lat="47.24771" lon="6.43558">
        <ele>654.79998779297</ele>
        <time>2018-05-01T12:03:54.000Z</time>
      </trkpt>
      <trkpt lat="47.24784" lon="6.43548">
        <ele>656.59997558594</ele>
        <time>2018-05-01T12:03:58.000Z</time>
      </trkpt>
      <trkpt lat="47.2479" lon="6.43544">
        <ele>657.40002441406</ele>
        <time>2018-05-01T12:04:00.000Z</time>
      </trkpt>
      <trkpt lat="47.24793" lon="6.43541">
        <ele>657.79998779297</ele>
        <time>2018-05-01T12:04:01.000Z</time>
      </trkpt>
      <trkpt lat="47.24806" lon="6.43532">
        <ele>659.20001220703</ele>
        <time>2018-05-01T12:04:05.000Z</time>
      </trkpt>
      <trkpt lat="47.24822" lon="6.43522">
        <ele>660.79998779297</ele>
        <time>2018-05-01T12:04:10.000Z</time>
      </trkpt>
      <trkpt lat="47.24837" lon="6.43512">
        <ele>661</ele>
        <time>2018-05-01T12:04:16.000Z</time>
      </trkpt>
      <trkpt lat="47.24851" lon="6.43503">
        <ele>660.20001220703</ele>
        <time>2018-05-01T12:04:21.000Z</time>
      </trkpt>
      <trkpt lat="47.24858" lon="6.43496">
        <ele>661.40002441406</ele>
        <time>2018-05-01T12:04:25.000Z</time>
      </trkpt>
      <trkpt lat="47.24859" lon="6.43494">
        <ele>661.59997558594</ele>
        <time>2018-05-01T12:04:26.000Z</time>
      </trkpt>
      <trkpt lat="47.24861" lon="6.43492">
        <ele>662</ele>
        <time>2018-05-01T12:04:27.000Z</time>
      </trkpt>
      <trkpt lat="47.24864" lon="6.4348">
        <ele>663.20001220703</ele>
        <time>2018-05-01T12:04:30.000Z</time>
      </trkpt>
      <trkpt lat="47.24865" lon="6.43472">
        <ele>663.20001220703</ele>
        <time>2018-05-01T12:04:32.000Z</time>
      </trkpt>
      <trkpt lat="47.24866" lon="6.43458">
        <ele>663</ele>
        <time>2018-05-01T12:04:35.000Z</time>
      </trkpt>
      <trkpt lat="47.24869" lon="6.4343">
        <ele>662.79998779297</ele>
        <time>2018-05-01T12:04:40.000Z</time>
      </trkpt>
      <trkpt lat="47.2487" lon="6.43415">
        <ele>662.40002441406</ele>
        <time>2018-05-01T12:04:43.000Z</time>
      </trkpt>
      <trkpt lat="47.2487" lon="6.43411">
        <ele>662.20001220703</ele>
        <time>2018-05-01T12:04:44.000Z</time>
      </trkpt>
      <trkpt lat="47.24871" lon="6.434">
        <ele>662</ele>
        <time>2018-05-01T12:04:46.000Z</time>
      </trkpt>
      <trkpt lat="47.24872" lon="6.43386">
        <ele>661.79998779297</ele>
        <time>2018-05-01T12:04:49.000Z</time>
      </trkpt>
      <trkpt lat="47.24872" lon="6.43376">
        <ele>661.79998779297</ele>
        <time>2018-05-01T12:04:51.000Z</time>
      </trkpt>
      <trkpt lat="47.24873" lon="6.43363">
        <ele>661.59997558594</ele>
        <time>2018-05-01T12:04:54.000Z</time>
      </trkpt>
      <trkpt lat="47.24873" lon="6.43358">
        <ele>661.59997558594</ele>
        <time>2018-05-01T12:04:55.000Z</time>
      </trkpt>
      <trkpt lat="47.24871" lon="6.43338">
        <ele>660.79998779297</ele>
        <time>2018-05-01T12:04:59.000Z</time>
      </trkpt>
      <trkpt lat="47.2487" lon="6.43333">
        <ele>660.59997558594</ele>
        <time>2018-05-01T12:05:00.000Z</time>
      </trkpt>
      <trkpt lat="47.24866" lon="6.43322">
        <ele>660.20001220703</ele>
        <time>2018-05-01T12:05:02.000Z</time>
      </trkpt>
      <trkpt lat="47.24859" lon="6.43314">
        <ele>660</ele>
        <time>2018-05-01T12:05:04.000Z</time>
      </trkpt>
      <trkpt lat="47.24852" lon="6.433">
        <ele>659.20001220703</ele>
        <time>2018-05-01T12:05:07.000Z</time>
      </trkpt>
      <trkpt lat="47.24851" lon="6.43295">
        <ele>659</ele>
        <time>2018-05-01T12:05:08.000Z</time>
      </trkpt>
      <trkpt lat="47.24852" lon="6.43282">
        <ele>658.40002441406</ele>
        <time>2018-05-01T12:05:10.000Z</time>
      </trkpt>
      <trkpt lat="47.24853" lon="6.43271">
        <ele>657.79998779297</ele>
        <time>2018-05-01T12:05:12.000Z</time>
      </trkpt>
      <trkpt lat="47.24856" lon="6.43254">
        <ele>657.20001220703</ele>
        <time>2018-05-01T12:05:15.000Z</time>
      </trkpt>
      <trkpt lat="47.24857" lon="6.43244">
        <ele>657</ele>
        <time>2018-05-01T12:05:17.000Z</time>
      </trkpt>
      <trkpt lat="47.24859" lon="6.43218">
        <ele>656</ele>
        <time>2018-05-01T12:05:22.000Z</time>
      </trkpt>
      <trkpt lat="47.24864" lon="6.43201">
        <ele>655.40002441406</ele>
        <time>2018-05-01T12:05:26.000Z</time>
      </trkpt>
      <trkpt lat="47.24868" lon="6.4317">
        <ele>654.20001220703</ele>
        <time>2018-05-01T12:05:31.000Z</time>
      </trkpt>
      <trkpt lat="47.24871" lon="6.43152">
        <ele>653.59997558594</ele>
        <time>2018-05-01T12:05:35.000Z</time>
      </trkpt>
      <trkpt lat="47.24872" lon="6.43148">
        <ele>653.59997558594</ele>
        <time>2018-05-01T12:05:40.000Z</time>
      </trkpt>
      <trkpt lat="47.24871" lon="6.43146">
        <ele>653.59997558594</ele>
        <time>2018-05-01T12:05:44.000Z</time>
      </trkpt>
      <trkpt lat="47.24869" lon="6.43142">
        <ele>653.59997558594</ele>
        <time>2018-05-01T12:05:46.000Z</time>
      </trkpt>
      <trkpt lat="47.24864" lon="6.4313">
        <ele>653.40002441406</ele>
        <time>2018-05-01T12:05:51.000Z</time>
      </trkpt>
      <trkpt lat="47.24857" lon="6.43115">
        <ele>653.40002441406</ele>
        <time>2018-05-01T12:05:55.000Z</time>
      </trkpt>
      <trkpt lat="47.24846" lon="6.43098">
        <ele>653.20001220703</ele>
        <time>2018-05-01T12:05:59.000Z</time>
      </trkpt>
      <trkpt lat="47.24843" lon="6.43094">
        <ele>653.20001220703</ele>
        <time>2018-05-01T12:06:00.000Z</time>
      </trkpt>
      <trkpt lat="47.24835" lon="6.43084">
        <ele>653</ele>
        <time>2018-05-01T12:06:03.000Z</time>
      </trkpt>
      <trkpt lat="47.24829" lon="6.43077">
        <ele>652.79998779297</ele>
        <time>2018-05-01T12:06:05.000Z</time>
      </trkpt>
      <trkpt lat="47.24826" lon="6.43074">
        <ele>652.59997558594</ele>
        <time>2018-05-01T12:06:06.000Z</time>
      </trkpt>
      <trkpt lat="47.24818" lon="6.43062">
        <ele>651.79998779297</ele>
        <time>2018-05-01T12:06:09.000Z</time>
      </trkpt>
      <trkpt lat="47.24814" lon="6.43058">
        <ele>651.40002441406</ele>
        <time>2018-05-01T12:06:10.000Z</time>
      </trkpt>
      <trkpt lat="47.24811" lon="6.43054">
        <ele>651.20001220703</ele>
        <time>2018-05-01T12:06:11.000Z</time>
      </trkpt>
      <trkpt lat="47.24806" lon="6.43045">
        <ele>650.79998779297</ele>
        <time>2018-05-01T12:06:13.000Z</time>
      </trkpt>
      <trkpt lat="47.24803" lon="6.43042">
        <ele>650.40002441406</ele>
        <time>2018-05-01T12:06:14.000Z</time>
      </trkpt>
      <trkpt lat="47.24799" lon="6.43034">
        <ele>650</ele>
        <time>2018-05-01T12:06:16.000Z</time>
      </trkpt>
      <trkpt lat="47.24795" lon="6.43029">
        <ele>649.59997558594</ele>
        <time>2018-05-01T12:06:18.000Z</time>
      </trkpt>
      <trkpt lat="47.24793" lon="6.43028">
        <ele>649.40002441406</ele>
        <time>2018-05-01T12:06:19.000Z</time>
      </trkpt>
      <trkpt lat="47.24792" lon="6.43026">
        <ele>649.40002441406</ele>
        <time>2018-05-01T12:06:20.000Z</time>
      </trkpt>
      <trkpt lat="47.24787" lon="6.43017">
        <ele>648.79998779297</ele>
        <time>2018-05-01T12:06:23.000Z</time>
      </trkpt>
      <trkpt lat="47.24774" lon="6.43">
        <ele>647.40002441406</ele>
        <time>2018-05-01T12:06:27.000Z</time>
      </trkpt>
      <trkpt lat="47.24763" lon="6.42984">
        <ele>646.20001220703</ele>
        <time>2018-05-01T12:06:31.000Z</time>
      </trkpt>
      <trkpt lat="47.24759" lon="6.42981">
        <ele>645.79998779297</ele>
        <time>2018-05-01T12:06:33.000Z</time>
      </trkpt>
      <trkpt lat="47.24755" lon="6.42975">
        <ele>645.20001220703</ele>
        <time>2018-05-01T12:06:35.000Z</time>
      </trkpt>
      <trkpt lat="47.24753" lon="6.42972">
        <ele>645</ele>
        <time>2018-05-01T12:06:36.000Z</time>
      </trkpt>
      <trkpt lat="47.24748" lon="6.42963">
        <ele>644.20001220703</ele>
        <time>2018-05-01T12:06:38.000Z</time>
      </trkpt>
      <trkpt lat="47.24744" lon="6.42954">
        <ele>643.59997558594</ele>
        <time>2018-05-01T12:06:40.000Z</time>
      </trkpt>
      <trkpt lat="47.24742" lon="6.4295">
        <ele>643.40002441406</ele>
        <time>2018-05-01T12:06:41.000Z</time>
      </trkpt>
      <trkpt lat="47.2474" lon="6.42945">
        <ele>643.20001220703</ele>
        <time>2018-05-01T12:06:42.000Z</time>
      </trkpt>
      <trkpt lat="47.24737" lon="6.4294">
        <ele>643.20001220703</ele>
        <time>2018-05-01T12:06:43.000Z</time>
      </trkpt>
      <trkpt lat="47.24734" lon="6.42935">
        <ele>642.79998779297</ele>
        <time>2018-05-01T12:06:44.000Z</time>
      </trkpt>
      <trkpt lat="47.24728" lon="6.42925">
        <ele>642.40002441406</ele>
        <time>2018-05-01T12:06:46.000Z</time>
      </trkpt>
      <trkpt lat="47.24722" lon="6.42914">
        <ele>642</ele>
        <time>2018-05-01T12:06:48.000Z</time>
      </trkpt>
      <trkpt lat="47.24719" lon="6.42903">
        <ele>641.59997558594</ele>
        <time>2018-05-01T12:06:50.000Z</time>
      </trkpt>
      <trkpt lat="47.24717" lon="6.42898">
        <ele>641.40002441406</ele>
        <time>2018-05-01T12:06:51.000Z</time>
      </trkpt>
      <trkpt lat="47.2471" lon="6.42883">
        <ele>641</ele>
        <time>2018-05-01T12:06:54.000Z</time>
      </trkpt>
      <trkpt lat="47.24708" lon="6.42877">
        <ele>641</ele>
        <time>2018-05-01T12:06:55.000Z</time>
      </trkpt>
      <trkpt lat="47.24706" lon="6.4287">
        <ele>640.79998779297</ele>
        <time>2018-05-01T12:06:56.000Z</time>
      </trkpt>
      <trkpt lat="47.24693" lon="6.42862">
        <ele>640.79998779297</ele>
        <time>2018-05-01T12:06:59.000Z</time>
      </trkpt>
      <trkpt lat="47.24682" lon="6.42862">
        <ele>640.79998779297</ele>
        <time>2018-05-01T12:07:03.000Z</time>
      </trkpt>
      <trkpt lat="47.24678" lon="6.42851">
        <ele>640.59997558594</ele>
        <time>2018-05-01T12:07:06.000Z</time>
      </trkpt>
      <trkpt lat="47.24675" lon="6.42836">
        <ele>640.40002441406</ele>
        <time>2018-05-01T12:07:09.000Z</time>
      </trkpt>
      <trkpt lat="47.24672" lon="6.42824">
        <ele>640</ele>
        <time>2018-05-01T12:07:11.000Z</time>
      </trkpt>
      <trkpt lat="47.24671" lon="6.42817">
        <ele>639.79998779297</ele>
        <time>2018-05-01T12:07:12.000Z</time>
      </trkpt>
      <trkpt lat="47.24664" lon="6.42791">
        <ele>639.59997558594</ele>
        <time>2018-05-01T12:07:16.000Z</time>
      </trkpt>
      <trkpt lat="47.24663" lon="6.42784">
        <ele>639.59997558594</ele>
        <time>2018-05-01T12:07:17.000Z</time>
      </trkpt>
      <trkpt lat="47.24661" lon="6.42777">
        <ele>639.59997558594</ele>
        <time>2018-05-01T12:07:18.000Z</time>
      </trkpt>
      <trkpt lat="47.2466" lon="6.4277">
        <ele>639.59997558594</ele>
        <time>2018-05-01T12:07:19.000Z</time>
      </trkpt>
      <trkpt lat="47.24657" lon="6.42756">
        <ele>639.40002441406</ele>
        <time>2018-05-01T12:07:21.000Z</time>
      </trkpt>
      <trkpt lat="47.24655" lon="6.42742">
        <ele>639.40002441406</ele>
        <time>2018-05-01T12:07:23.000Z</time>
      </trkpt>
      <trkpt lat="47.24654" lon="6.42736">
        <ele>639.40002441406</ele>
        <time>2018-05-01T12:07:24.000Z</time>
      </trkpt>
      <trkpt lat="47.24654" lon="6.42723">
        <ele>639</ele>
        <time>2018-05-01T12:07:26.000Z</time>
      </trkpt>
      <trkpt lat="47.24653" lon="6.42716">
        <ele>639</ele>
        <time>2018-05-01T12:07:27.000Z</time>
      </trkpt>
      <trkpt lat="47.24651" lon="6.42709">
        <ele>639.20001220703</ele>
        <time>2018-05-01T12:07:28.000Z</time>
      </trkpt>
      <trkpt lat="47.2465" lon="6.42702">
        <ele>639.20001220703</ele>
        <time>2018-05-01T12:07:29.000Z</time>
      </trkpt>
      <trkpt lat="47.24648" lon="6.42695">
        <ele>639.20001220703</ele>
        <time>2018-05-01T12:07:30.000Z</time>
      </trkpt>
      <trkpt lat="47.24642" lon="6.42675">
        <ele>639.40002441406</ele>
        <time>2018-05-01T12:07:33.000Z</time>
      </trkpt>
      <trkpt lat="47.24641" lon="6.42669">
        <ele>639.40002441406</ele>
        <time>2018-05-01T12:07:34.000Z</time>
      </trkpt>
      <trkpt lat="47.24639" lon="6.42663">
        <ele>639.59997558594</ele>
        <time>2018-05-01T12:07:35.000Z</time>
      </trkpt>
      <trkpt lat="47.24636" lon="6.42652">
        <ele>639.59997558594</ele>
        <time>2018-05-01T12:07:37.000Z</time>
      </trkpt>
      <trkpt lat="47.24631" lon="6.42637">
        <ele>639.20001220703</ele>
        <time>2018-05-01T12:07:39.000Z</time>
      </trkpt>
      <trkpt lat="47.24629" lon="6.42629">
        <ele>639</ele>
        <time>2018-05-01T12:07:40.000Z</time>
      </trkpt>
      <trkpt lat="47.24623" lon="6.42614">
        <ele>638.20001220703</ele>
        <time>2018-05-01T12:07:42.000Z</time>
      </trkpt>
      <trkpt lat="47.24618" lon="6.42597">
        <ele>637.40002441406</ele>
        <time>2018-05-01T12:07:44.000Z</time>
      </trkpt>
      <trkpt lat="47.24614" lon="6.42579">
        <ele>636.20001220703</ele>
        <time>2018-05-01T12:07:46.000Z</time>
      </trkpt>
      <trkpt lat="47.24613" lon="6.42568">
        <ele>635.40002441406</ele>
        <time>2018-05-01T12:07:47.000Z</time>
      </trkpt>
      <trkpt lat="47.24611" lon="6.42557">
        <ele>634.20001220703</ele>
        <time>2018-05-01T12:07:48.000Z</time>
      </trkpt>
      <trkpt lat="47.24611" lon="6.42544">
        <ele>632.79998779297</ele>
        <time>2018-05-01T12:07:49.000Z</time>
      </trkpt>
      <trkpt lat="47.24611" lon="6.42533">
        <ele>631.40002441406</ele>
        <time>2018-05-01T12:07:50.000Z</time>
      </trkpt>
      <trkpt lat="47.24612" lon="6.42522">
        <ele>630</ele>
        <time>2018-05-01T12:07:51.000Z</time>
      </trkpt>
      <trkpt lat="47.24613" lon="6.42511">
        <ele>628.40002441406</ele>
        <time>2018-05-01T12:07:52.000Z</time>
      </trkpt>
      <trkpt lat="47.24614" lon="6.42492">
        <ele>625.40002441406</ele>
        <time>2018-05-01T12:07:54.000Z</time>
      </trkpt>
      <trkpt lat="47.24613" lon="6.42482">
        <ele>624</ele>
        <time>2018-05-01T12:07:55.000Z</time>
      </trkpt>
      <trkpt lat="47.24613" lon="6.42474">
        <ele>623</ele>
        <time>2018-05-01T12:07:56.000Z</time>
      </trkpt>
      <trkpt lat="47.24607" lon="6.42458">
        <ele>621.40002441406</ele>
        <time>2018-05-01T12:07:58.000Z</time>
      </trkpt>
      <trkpt lat="47.24598" lon="6.42442">
        <ele>620</ele>
        <time>2018-05-01T12:08:00.000Z</time>
      </trkpt>
      <trkpt lat="47.24586" lon="6.42418">
        <ele>618</ele>
        <time>2018-05-01T12:08:03.000Z</time>
      </trkpt>
      <trkpt lat="47.24565" lon="6.42367">
        <ele>614.59997558594</ele>
        <time>2018-05-01T12:08:10.000Z</time>
      </trkpt>
      <trkpt lat="47.24562" lon="6.42361">
        <ele>614.40002441406</ele>
        <time>2018-05-01T12:08:11.000Z</time>
      </trkpt>
      <trkpt lat="47.24553" lon="6.42346">
        <ele>614.20001220703</ele>
        <time>2018-05-01T12:08:14.000Z</time>
      </trkpt>
      <trkpt lat="47.2455" lon="6.42341">
        <ele>614.20001220703</ele>
        <time>2018-05-01T12:08:15.000Z</time>
      </trkpt>
      <trkpt lat="47.24547" lon="6.42337">
        <ele>614.40002441406</ele>
        <time>2018-05-01T12:08:16.000Z</time>
      </trkpt>
      <trkpt lat="47.24544" lon="6.42333">
        <ele>614.59997558594</ele>
        <time>2018-05-01T12:08:17.000Z</time>
      </trkpt>
      <trkpt lat="47.24537" lon="6.42327">
        <ele>615.40002441406</ele>
        <time>2018-05-01T12:08:19.000Z</time>
      </trkpt>
      <trkpt lat="47.24534" lon="6.42326">
        <ele>616</ele>
        <time>2018-05-01T12:08:20.000Z</time>
      </trkpt>
      <trkpt lat="47.24521" lon="6.42319">
        <ele>617.79998779297</ele>
        <time>2018-05-01T12:08:25.000Z</time>
      </trkpt>
      <trkpt lat="47.24517" lon="6.42315">
        <ele>618</ele>
        <time>2018-05-01T12:08:27.000Z</time>
      </trkpt>
      <trkpt lat="47.24511" lon="6.42306">
        <ele>617.59997558594</ele>
        <time>2018-05-01T12:08:30.000Z</time>
      </trkpt>
      <trkpt lat="47.24507" lon="6.42296">
        <ele>616.59997558594</ele>
        <time>2018-05-01T12:08:34.000Z</time>
      </trkpt>
      <trkpt lat="47.24506" lon="6.42296">
        <ele>616.79998779297</ele>
        <time>2018-05-01T12:08:37.000Z</time>
      </trkpt>
      <trkpt lat="47.24506" lon="6.42295">
        <ele>616.79998779297</ele>
        <time>2018-05-01T12:08:39.000Z</time>
      </trkpt>
      <trkpt lat="47.24506" lon="6.42295">
        <ele>616.79998779297</ele>
        <time>2018-05-01T12:09:09.000Z</time>
      </trkpt>
      <trkpt lat="47.24506" lon="6.42295">
        <ele>616.79998779297</ele>
        <time>2018-05-01T12:09:20.000Z</time>
      </trkpt>
      <trkpt lat="47.24505" lon="6.42294">
        <ele>616.79998779297</ele>
        <time>2018-05-01T12:09:24.000Z</time>
      </trkpt>
      <trkpt lat="47.24501" lon="6.42289">
        <ele>616.79998779297</ele>
        <time>2018-05-01T12:09:26.000Z</time>
      </trkpt>
      <trkpt lat="47.24492" lon="6.42281">
        <ele>617</ele>
        <time>2018-05-01T12:09:29.000Z</time>
      </trkpt>
      <trkpt lat="47.24486" lon="6.42276">
        <ele>616.79998779297</ele>
        <time>2018-05-01T12:09:31.000Z</time>
      </trkpt>
      <trkpt lat="47.2448" lon="6.42272">
        <ele>616.59997558594</ele>
        <time>2018-05-01T12:09:33.000Z</time>
      </trkpt>
      <trkpt lat="47.24474" lon="6.42268">
        <ele>616.79998779297</ele>
        <time>2018-05-01T12:09:35.000Z</time>
      </trkpt>
      <trkpt lat="47.24466" lon="6.42262">
        <ele>616.59997558594</ele>
        <time>2018-05-01T12:09:38.000Z</time>
      </trkpt>
      <trkpt lat="47.24461" lon="6.42257">
        <ele>616.40002441406</ele>
        <time>2018-05-01T12:09:41.000Z</time>
      </trkpt>
      <trkpt lat="47.24458" lon="6.42253">
        <ele>616</ele>
        <time>2018-05-01T12:09:44.000Z</time>
      </trkpt>
      <trkpt lat="47.24458" lon="6.42253">
        <ele>616</ele>
        <time>2018-05-01T12:09:49.000Z</time>
      </trkpt>
      <trkpt lat="47.24459" lon="6.42255">
        <ele>616.40002441406</ele>
        <time>2018-05-01T12:09:54.000Z</time>
      </trkpt>
      <trkpt lat="47.24458" lon="6.42256">
        <ele>616.59997558594</ele>
        <time>2018-05-01T12:09:55.000Z</time>
      </trkpt>
      <trkpt lat="47.24458" lon="6.42258">
        <ele>617</ele>
        <time>2018-05-01T12:09:58.000Z</time>
      </trkpt>
      <trkpt lat="47.24458" lon="6.42259">
        <ele>617.20001220703</ele>
        <time>2018-05-01T12:10:01.000Z</time>
      </trkpt>
      <trkpt lat="47.24459" lon="6.42261">
        <ele>617.59997558594</ele>
        <time>2018-05-01T12:10:08.000Z</time>
      </trkpt>
      <trkpt lat="47.24459" lon="6.42263">
        <ele>617.79998779297</ele>
        <time>2018-05-01T12:10:09.000Z</time>
      </trkpt>
      <trkpt lat="47.2446" lon="6.42267">
        <ele>618.59997558594</ele>
        <time>2018-05-01T12:10:15.000Z</time>
      </trkpt>
      <trkpt lat="47.24459" lon="6.42265">
        <ele>618.40002441406</ele>
        <time>2018-05-01T12:10:16.000Z</time>
      </trkpt>
      <trkpt lat="47.24457" lon="6.42261">
        <ele>617.59997558594</ele>
        <time>2018-05-01T12:10:19.000Z</time>
      </trkpt>
      <trkpt lat="47.24455" lon="6.42257">
        <ele>617.20001220703</ele>
        <time>2018-05-01T12:10:21.000Z</time>
      </trkpt>
      <trkpt lat="47.24454" lon="6.42251">
        <ele>616.20001220703</ele>
        <time>2018-05-01T12:10:25.000Z</time>
      </trkpt>
      <trkpt lat="47.24454" lon="6.42251">
        <ele>616.20001220703</ele>
        <time>2018-05-01T12:10:27.000Z</time>
      </trkpt>
      <trkpt lat="47.24455" lon="6.42251">
        <ele>616.20001220703</ele>
        <time>2018-05-01T12:10:28.000Z</time>
      </trkpt>
      <trkpt lat="47.24453" lon="6.42251">
        <ele>616.20001220703</ele>
        <time>2018-05-01T12:10:30.000Z</time>
      </trkpt>
      <trkpt lat="47.24452" lon="6.4225">
        <ele>616.20001220703</ele>
        <time>2018-05-01T12:10:32.000Z</time>
      </trkpt>
      <trkpt lat="47.24452" lon="6.4225">
        <ele>616.20001220703</ele>
        <time>2018-05-01T12:10:41.000Z</time>
      </trkpt>
      <trkpt lat="47.24452" lon="6.4225">
        <ele>616.20001220703</ele>
        <time>2018-05-01T12:10:52.000Z</time>
      </trkpt>
      <trkpt lat="47.24452" lon="6.4225">
        <ele>616.20001220703</ele>
        <time>2018-05-01T12:11:04.000Z</time>
      </trkpt>
      <trkpt lat="47.24452" lon="6.42249">
        <ele>616.20001220703</ele>
        <time>2018-05-01T12:11:13.000Z</time>
      </trkpt>
      <trkpt lat="47.2445" lon="6.42245">
        <ele>615.40002441406</ele>
        <time>2018-05-01T12:11:15.000Z</time>
      </trkpt>
      <trkpt lat="47.24446" lon="6.42239">
        <ele>614.79998779297</ele>
        <time>2018-05-01T12:11:17.000Z</time>
      </trkpt>
      <trkpt lat="47.24441" lon="6.42233">
        <ele>614.40002441406</ele>
        <time>2018-05-01T12:11:19.000Z</time>
      </trkpt>
      <trkpt lat="47.24435" lon="6.42226">
        <ele>614</ele>
        <time>2018-05-01T12:11:21.000Z</time>
      </trkpt>
      <trkpt lat="47.24429" lon="6.4222">
        <ele>613.59997558594</ele>
        <time>2018-05-01T12:11:23.000Z</time>
      </trkpt>
      <trkpt lat="47.24423" lon="6.42214">
        <ele>613.20001220703</ele>
        <time>2018-05-01T12:11:25.000Z</time>
      </trkpt>
      <trkpt lat="47.24421" lon="6.42211">
        <ele>612.79998779297</ele>
        <time>2018-05-01T12:11:26.000Z</time>
      </trkpt>
      <trkpt lat="47.2441" lon="6.422">
        <ele>612</ele>
        <time>2018-05-01T12:11:30.000Z</time>
      </trkpt>
      <trkpt lat="47.24387" lon="6.42186">
        <ele>610.20001220703</ele>
        <time>2018-05-01T12:11:37.000Z</time>
      </trkpt>
      <trkpt lat="47.24383" lon="6.42188">
        <ele>610.59997558594</ele>
        <time>2018-05-01T12:11:39.000Z</time>
      </trkpt>
      <trkpt lat="47.2438" lon="6.42189">
        <ele>611</ele>
        <time>2018-05-01T12:11:41.000Z</time>
      </trkpt>
      <trkpt lat="47.24379" lon="6.42192">
        <ele>611.59997558594</ele>
        <time>2018-05-01T12:11:42.000Z</time>
      </trkpt>
      <trkpt lat="47.24377" lon="6.42196">
        <ele>612.40002441406</ele>
        <time>2018-05-01T12:11:44.000Z</time>
      </trkpt>
      <trkpt lat="47.24376" lon="6.422">
        <ele>613.79998779297</ele>
        <time>2018-05-01T12:11:46.000Z</time>
      </trkpt>
      <trkpt lat="47.24373" lon="6.42208">
        <ele>616.79998779297</ele>
        <time>2018-05-01T12:11:50.000Z</time>
      </trkpt>
      <trkpt lat="47.24372" lon="6.42212">
        <ele>618</ele>
        <time>2018-05-01T12:11:52.000Z</time>
      </trkpt>
      <trkpt lat="47.2437" lon="6.42214">
        <ele>619</ele>
        <time>2018-05-01T12:11:53.000Z</time>
      </trkpt>
      <trkpt lat="47.24369" lon="6.42215">
        <ele>619.40002441406</ele>
        <time>2018-05-01T12:11:56.000Z</time>
      </trkpt>
      <trkpt lat="47.24368" lon="6.42217">
        <ele>620.20001220703</ele>
        <time>2018-05-01T12:11:59.000Z</time>
      </trkpt>
      <trkpt lat="47.24368" lon="6.42217">
        <ele>620.40002441406</ele>
        <time>2018-05-01T12:12:00.000Z</time>
      </trkpt>
      <trkpt lat="47.24367" lon="6.42218">
        <ele>620.59997558594</ele>
        <time>2018-05-01T12:12:06.000Z</time>
      </trkpt>
      <trkpt lat="47.24367" lon="6.42218">
        <ele>620.59997558594</ele>
        <time>2018-05-01T12:12:16.000Z</time>
      </trkpt>
      <trkpt lat="47.24367" lon="6.42218">
        <ele>620.59997558594</ele>
        <time>2018-05-01T12:12:27.000Z</time>
      </trkpt>
      <trkpt lat="47.24367" lon="6.42218">
        <ele>620.59997558594</ele>
        <time>2018-05-01T12:12:32.000Z</time>
      </trkpt>
      <trkpt lat="47.24368" lon="6.42218">
        <ele>620.59997558594</ele>
        <time>2018-05-01T12:12:40.000Z</time>
      </trkpt>
      <trkpt lat="47.24367" lon="6.42219">
        <ele>621</ele>
        <time>2018-05-01T12:12:47.000Z</time>
      </trkpt>
      <trkpt lat="47.24362" lon="6.42228">
        <ele>624.59997558594</ele>
        <time>2018-05-01T12:12:52.000Z</time>
      </trkpt>
      <trkpt lat="47.24361" lon="6.42229">
        <ele>625.20001220703</ele>
        <time>2018-05-01T12:12:53.000Z</time>
      </trkpt>
      <trkpt lat="47.24357" lon="6.42235">
        <ele>627.40002441406</ele>
        <time>2018-05-01T12:12:57.000Z</time>
      </trkpt>
      <trkpt lat="47.24356" lon="6.42237">
        <ele>627.79998779297</ele>
        <time>2018-05-01T12:12:58.000Z</time>
      </trkpt>
      <trkpt lat="47.24355" lon="6.42238">
        <ele>628.20001220703</ele>
        <time>2018-05-01T12:13:00.000Z</time>
      </trkpt>
      <trkpt lat="47.24354" lon="6.4224">
        <ele>628.59997558594</ele>
        <time>2018-05-01T12:13:02.000Z</time>
      </trkpt>
      <trkpt lat="47.24353" lon="6.42241">
        <ele>629</ele>
        <time>2018-05-01T12:13:04.000Z</time>
      </trkpt>
      <trkpt lat="47.24353" lon="6.42241">
        <ele>629</ele>
        <time>2018-05-01T12:13:06.000Z</time>
      </trkpt>
      <trkpt lat="47.24353" lon="6.42239">
        <ele>628.79998779297</ele>
        <time>2018-05-01T12:13:08.000Z</time>
      </trkpt>
      <trkpt lat="47.24354" lon="6.42239">
        <ele>628.59997558594</ele>
        <time>2018-05-01T12:13:09.000Z</time>
      </trkpt>
      <trkpt lat="47.24353" lon="6.4224">
        <ele>628.79998779297</ele>
        <time>2018-05-01T12:13:10.000Z</time>
      </trkpt>
      <trkpt lat="47.24353" lon="6.4224">
        <ele>628.79998779297</ele>
        <time>2018-05-01T12:13:18.000Z</time>
      </trkpt>
      <trkpt lat="47.24353" lon="6.4224">
        <ele>628.79998779297</ele>
        <time>2018-05-01T12:13:27.000Z</time>
      </trkpt>
      <trkpt lat="47.24353" lon="6.4224">
        <ele>628.79998779297</ele>
        <time>2018-05-01T12:13:37.000Z</time>
      </trkpt>
      <trkpt lat="47.24353" lon="6.4224">
        <ele>628.79998779297</ele>
        <time>2018-05-01T12:13:48.000Z</time>
      </trkpt>
      <trkpt lat="47.24353" lon="6.4224">
        <ele>628.79998779297</ele>
        <time>2018-05-01T12:13:59.000Z</time>
      </trkpt>
      <trkpt lat="47.2435" lon="6.42242">
        <ele>629.59997558594</ele>
        <time>2018-05-01T12:14:07.000Z</time>
      </trkpt>
      <trkpt lat="47.24349" lon="6.42243">
        <ele>630.20001220703</ele>
        <time>2018-05-01T12:14:08.000Z</time>
      </trkpt>
      <trkpt lat="47.24346" lon="6.42246">
        <ele>631.20001220703</ele>
        <time>2018-05-01T12:14:10.000Z</time>
      </trkpt>
      <trkpt lat="47.24345" lon="6.42246">
        <ele>631.40002441406</ele>
        <time>2018-05-01T12:14:11.000Z</time>
      </trkpt>
      <trkpt lat="47.24342" lon="6.42247">
        <ele>632</ele>
        <time>2018-05-01T12:14:13.000Z</time>
      </trkpt>
      <trkpt lat="47.24341" lon="6.42247">
        <ele>632.20001220703</ele>
        <time>2018-05-01T12:14:14.000Z</time>
      </trkpt>
      <trkpt lat="47.24339" lon="6.42248">
        <ele>633</ele>
        <time>2018-05-01T12:14:16.000Z</time>
      </trkpt>
      <trkpt lat="47.24338" lon="6.42248">
        <ele>633</ele>
        <time>2018-05-01T12:14:17.000Z</time>
      </trkpt>
      <trkpt lat="47.24336" lon="6.42249">
        <ele>633.59997558594</ele>
        <time>2018-05-01T12:14:19.000Z</time>
      </trkpt>
      <trkpt lat="47.24336" lon="6.42249">
        <ele>633.59997558594</ele>
        <time>2018-05-01T12:14:21.000Z</time>
      </trkpt>
      <trkpt lat="47.24336" lon="6.42249">
        <ele>633.59997558594</ele>
        <time>2018-05-01T12:14:33.000Z</time>
      </trkpt>
      <trkpt lat="47.24336" lon="6.42249">
        <ele>633.59997558594</ele>
        <time>2018-05-01T12:14:40.000Z</time>
      </trkpt>
      <trkpt lat="47.24334" lon="6.4225">
        <ele>634</ele>
        <time>2018-05-01T12:14:46.000Z</time>
      </trkpt>
      <trkpt lat="47.24329" lon="6.42251">
        <ele>635.20001220703</ele>
        <time>2018-05-01T12:14:49.000Z</time>
      </trkpt>
      <trkpt lat="47.24326" lon="6.4225">
        <ele>635.40002441406</ele>
        <time>2018-05-01T12:14:50.000Z</time>
      </trkpt>
      <trkpt lat="47.24323" lon="6.42251">
        <ele>636</ele>
        <time>2018-05-01T12:14:51.000Z</time>
      </trkpt>
      <trkpt lat="47.24321" lon="6.42252">
        <ele>636.40002441406</ele>
        <time>2018-05-01T12:14:52.000Z</time>
      </trkpt>
      <trkpt lat="47.24319" lon="6.42253">
        <ele>636.79998779297</ele>
        <time>2018-05-01T12:14:53.000Z</time>
      </trkpt>
      <trkpt lat="47.24317" lon="6.42253">
        <ele>637.20001220703</ele>
        <time>2018-05-01T12:14:54.000Z</time>
      </trkpt>
      <trkpt lat="47.24315" lon="6.42253">
        <ele>637.59997558594</ele>
        <time>2018-05-01T12:14:55.000Z</time>
      </trkpt>
      <trkpt lat="47.24311" lon="6.42253">
        <ele>638</ele>
        <time>2018-05-01T12:14:57.000Z</time>
      </trkpt>
      <trkpt lat="47.24309" lon="6.42253">
        <ele>638.40002441406</ele>
        <time>2018-05-01T12:14:58.000Z</time>
      </trkpt>
      <trkpt lat="47.24305" lon="6.42252">
        <ele>638.79998779297</ele>
        <time>2018-05-01T12:15:00.000Z</time>
      </trkpt>
      <trkpt lat="47.24301" lon="6.4225">
        <ele>638.79998779297</ele>
        <time>2018-05-01T12:15:03.000Z</time>
      </trkpt>
      <trkpt lat="47.24297" lon="6.42249">
        <ele>639.40002441406</ele>
        <time>2018-05-01T12:15:05.000Z</time>
      </trkpt>
      <trkpt lat="47.24286" lon="6.42247">
        <ele>640.40002441406</ele>
        <time>2018-05-01T12:15:09.000Z</time>
      </trkpt>
      <trkpt lat="47.24276" lon="6.42242">
        <ele>640.79998779297</ele>
        <time>2018-05-01T12:15:13.000Z</time>
      </trkpt>
      <trkpt lat="47.24274" lon="6.42241">
        <ele>640.79998779297</ele>
        <time>2018-05-01T12:15:14.000Z</time>
      </trkpt>
      <trkpt lat="47.24267" lon="6.42235">
        <ele>640.59997558594</ele>
        <time>2018-05-01T12:15:17.000Z</time>
      </trkpt>
      <trkpt lat="47.24262" lon="6.42232">
        <ele>640.79998779297</ele>
        <time>2018-05-01T12:15:19.000Z</time>
      </trkpt>
      <trkpt lat="47.24259" lon="6.42231">
        <ele>640.79998779297</ele>
        <time>2018-05-01T12:15:20.000Z</time>
      </trkpt>
      <trkpt lat="47.24258" lon="6.4223">
        <ele>640.59997558594</ele>
        <time>2018-05-01T12:15:21.000Z</time>
      </trkpt>
      <trkpt lat="47.24252" lon="6.42228">
        <ele>640.79998779297</ele>
        <time>2018-05-01T12:15:23.000Z</time>
      </trkpt>
      <trkpt lat="47.24243" lon="6.42221">
        <ele>640.79998779297</ele>
        <time>2018-05-01T12:15:26.000Z</time>
      </trkpt>
      <trkpt lat="47.24237" lon="6.42217">
        <ele>641.20001220703</ele>
        <time>2018-05-01T12:15:28.000Z</time>
      </trkpt>
      <trkpt lat="47.24234" lon="6.42215">
        <ele>641.40002441406</ele>
        <time>2018-05-01T12:15:29.000Z</time>
      </trkpt>
      <trkpt lat="47.24225" lon="6.42208">
        <ele>641.79998779297</ele>
        <time>2018-05-01T12:15:33.000Z</time>
      </trkpt>
      <trkpt lat="47.24216" lon="6.42198">
        <ele>641.20001220703</ele>
        <time>2018-05-01T12:15:38.000Z</time>
      </trkpt>
      <trkpt lat="47.24203" lon="6.42184">
        <ele>641.20001220703</ele>
        <time>2018-05-01T12:15:43.000Z</time>
      </trkpt>
      <trkpt lat="47.2419" lon="6.42173">
        <ele>641.40002441406</ele>
        <time>2018-05-01T12:15:48.000Z</time>
      </trkpt>
      <trkpt lat="47.24173" lon="6.42155">
        <ele>640.79998779297</ele>
        <time>2018-05-01T12:15:55.000Z</time>
      </trkpt>
      <trkpt lat="47.24159" lon="6.42145">
        <ele>642.20001220703</ele>
        <time>2018-05-01T12:16:00.000Z</time>
      </trkpt>
      <trkpt lat="47.24157" lon="6.42142">
        <ele>642</ele>
        <time>2018-05-01T12:16:01.000Z</time>
      </trkpt>
      <trkpt lat="47.2415" lon="6.42133">
        <ele>642</ele>
        <time>2018-05-01T12:16:04.000Z</time>
      </trkpt>
      <trkpt lat="47.24147" lon="6.42129">
        <ele>642</ele>
        <time>2018-05-01T12:16:05.000Z</time>
      </trkpt>
      <trkpt lat="47.24143" lon="6.42123">
        <ele>641.79998779297</ele>
        <time>2018-05-01T12:16:07.000Z</time>
      </trkpt>
      <trkpt lat="47.24135" lon="6.42113">
        <ele>641.79998779297</ele>
        <time>2018-05-01T12:16:10.000Z</time>
      </trkpt>
      <trkpt lat="47.24131" lon="6.42106">
        <ele>641.59997558594</ele>
        <time>2018-05-01T12:16:12.000Z</time>
      </trkpt>
      <trkpt lat="47.24125" lon="6.42094">
        <ele>640.59997558594</ele>
        <time>2018-05-01T12:16:15.000Z</time>
      </trkpt>
      <trkpt lat="47.24116" lon="6.42083">
        <ele>640.59997558594</ele>
        <time>2018-05-01T12:16:18.000Z</time>
      </trkpt>
      <trkpt lat="47.24111" lon="6.42077">
        <ele>640.59997558594</ele>
        <time>2018-05-01T12:16:20.000Z</time>
      </trkpt>
      <trkpt lat="47.24096" lon="6.42061">
        <ele>641.59997558594</ele>
        <time>2018-05-01T12:16:25.000Z</time>
      </trkpt>
      <trkpt lat="47.2408" lon="6.42045">
        <ele>643.20001220703</ele>
        <time>2018-05-01T12:16:31.000Z</time>
      </trkpt>
      <trkpt lat="47.24066" lon="6.42035">
        <ele>644.79998779297</ele>
        <time>2018-05-01T12:16:37.000Z</time>
      </trkpt>
      <trkpt lat="47.24063" lon="6.42031">
        <ele>645.20001220703</ele>
        <time>2018-05-01T12:16:39.000Z</time>
      </trkpt>
      <trkpt lat="47.24059" lon="6.42027">
        <ele>645.40002441406</ele>
        <time>2018-05-01T12:16:41.000Z</time>
      </trkpt>
      <trkpt lat="47.24053" lon="6.42023">
        <ele>646.40002441406</ele>
        <time>2018-05-01T12:16:44.000Z</time>
      </trkpt>
      <trkpt lat="47.24051" lon="6.42021">
        <ele>646.59997558594</ele>
        <time>2018-05-01T12:16:45.000Z</time>
      </trkpt>
      <trkpt lat="47.24047" lon="6.42019">
        <ele>647</ele>
        <time>2018-05-01T12:16:47.000Z</time>
      </trkpt>
      <trkpt lat="47.24043" lon="6.42016">
        <ele>647.79998779297</ele>
        <time>2018-05-01T12:16:50.000Z</time>
      </trkpt>
      <trkpt lat="47.2404" lon="6.42013">
        <ele>648</ele>
        <time>2018-05-01T12:16:53.000Z</time>
      </trkpt>
      <trkpt lat="47.24031" lon="6.42008">
        <ele>649.40002441406</ele>
        <time>2018-05-01T12:17:00.000Z</time>
      </trkpt>
      <trkpt lat="47.2403" lon="6.42006">
        <ele>649.40002441406</ele>
        <time>2018-05-01T12:17:01.000Z</time>
      </trkpt>
      <trkpt lat="47.2402" lon="6.41994">
        <ele>650.20001220703</ele>
        <time>2018-05-01T12:17:06.000Z</time>
      </trkpt>
      <trkpt lat="47.24016" lon="6.41987">
        <ele>650</ele>
        <time>2018-05-01T12:17:09.000Z</time>
      </trkpt>
      <trkpt lat="47.24014" lon="6.41982">
        <ele>649.79998779297</ele>
        <time>2018-05-01T12:17:11.000Z</time>
      </trkpt>
      <trkpt lat="47.24013" lon="6.41979">
        <ele>649.79998779297</ele>
        <time>2018-05-01T12:17:12.000Z</time>
      </trkpt>
      <trkpt lat="47.24011" lon="6.41976">
        <ele>650</ele>
        <time>2018-05-01T12:17:13.000Z</time>
      </trkpt>
      <trkpt lat="47.24004" lon="6.41965">
        <ele>650.40002441406</ele>
        <time>2018-05-01T12:17:17.000Z</time>
      </trkpt>
      <trkpt lat="47.24002" lon="6.41963">
        <ele>650.40002441406</ele>
        <time>2018-05-01T12:17:18.000Z</time>
      </trkpt>
      <trkpt lat="47.23996" lon="6.41954">
        <ele>650.79998779297</ele>
        <time>2018-05-01T12:17:21.000Z</time>
      </trkpt>
      <trkpt lat="47.23992" lon="6.41949">
        <ele>650.79998779297</ele>
        <time>2018-05-01T12:17:23.000Z</time>
      </trkpt>
      <trkpt lat="47.2398" lon="6.41938">
        <ele>651.20001220703</ele>
        <time>2018-05-01T12:17:28.000Z</time>
      </trkpt>
      <trkpt lat="47.23968" lon="6.41927">
        <ele>651.40002441406</ele>
        <time>2018-05-01T12:17:33.000Z</time>
      </trkpt>
      <trkpt lat="47.23954" lon="6.41912">
        <ele>651.40002441406</ele>
        <time>2018-05-01T12:17:38.000Z</time>
      </trkpt>
      <trkpt lat="47.23944" lon="6.41901">
        <ele>651.40002441406</ele>
        <time>2018-05-01T12:17:42.000Z</time>
      </trkpt>
      <trkpt lat="47.2394" lon="6.41899">
        <ele>651.59997558594</ele>
        <time>2018-05-01T12:17:43.000Z</time>
      </trkpt>
      <trkpt lat="47.23934" lon="6.41894">
        <ele>651.79998779297</ele>
        <time>2018-05-01T12:17:45.000Z</time>
      </trkpt>
      <trkpt lat="47.23926" lon="6.41886">
        <ele>651.79998779297</ele>
        <time>2018-05-01T12:17:47.000Z</time>
      </trkpt>
      <trkpt lat="47.23918" lon="6.41881">
        <ele>652.20001220703</ele>
        <time>2018-05-01T12:17:49.000Z</time>
      </trkpt>
      <trkpt lat="47.23911" lon="6.41874">
        <ele>652</ele>
        <time>2018-05-01T12:17:51.000Z</time>
      </trkpt>
      <trkpt lat="47.23907" lon="6.4187">
        <ele>651.40002441406</ele>
        <time>2018-05-01T12:17:52.000Z</time>
      </trkpt>
      <trkpt lat="47.23901" lon="6.41867">
        <ele>650.79998779297</ele>
        <time>2018-05-01T12:17:53.000Z</time>
      </trkpt>
      <trkpt lat="47.23891" lon="6.4186">
        <ele>649.59997558594</ele>
        <time>2018-05-01T12:17:55.000Z</time>
      </trkpt>
      <trkpt lat="47.23887" lon="6.41854">
        <ele>648.79998779297</ele>
        <time>2018-05-01T12:17:56.000Z</time>
      </trkpt>
      <trkpt lat="47.23883" lon="6.41853">
        <ele>648.40002441406</ele>
        <time>2018-05-01T12:17:57.000Z</time>
      </trkpt>
      <trkpt lat="47.23877" lon="6.41853">
        <ele>648.20001220703</ele>
        <time>2018-05-01T12:17:59.000Z</time>
      </trkpt>
      <trkpt lat="47.23873" lon="6.41853">
        <ele>648</ele>
        <time>2018-05-01T12:18:00.000Z</time>
      </trkpt>
      <trkpt lat="47.23867" lon="6.41855">
        <ele>648</ele>
        <time>2018-05-01T12:18:02.000Z</time>
      </trkpt>
      <trkpt lat="47.23863" lon="6.41859">
        <ele>648</ele>
        <time>2018-05-01T12:18:04.000Z</time>
      </trkpt>
      <trkpt lat="47.23861" lon="6.41861">
        <ele>648</ele>
        <time>2018-05-01T12:18:05.000Z</time>
      </trkpt>
      <trkpt lat="47.2386" lon="6.41863">
        <ele>648</ele>
        <time>2018-05-01T12:18:06.000Z</time>
      </trkpt>
      <trkpt lat="47.23855" lon="6.41871">
        <ele>648.20001220703</ele>
        <time>2018-05-01T12:18:09.000Z</time>
      </trkpt>
      <trkpt lat="47.23854" lon="6.41874">
        <ele>648.20001220703</ele>
        <time>2018-05-01T12:18:10.000Z</time>
      </trkpt>
      <trkpt lat="47.23853" lon="6.41876">
        <ele>648.40002441406</ele>
        <time>2018-05-01T12:18:11.000Z</time>
      </trkpt>
      <trkpt lat="47.2385" lon="6.41883">
        <ele>648.59997558594</ele>
        <time>2018-05-01T12:18:13.000Z</time>
      </trkpt>
      <trkpt lat="47.23849" lon="6.4189">
        <ele>649</ele>
        <time>2018-05-01T12:18:15.000Z</time>
      </trkpt>
      <trkpt lat="47.23846" lon="6.41896">
        <ele>649.20001220703</ele>
        <time>2018-05-01T12:18:17.000Z</time>
      </trkpt>
      <trkpt lat="47.23844" lon="6.41901">
        <ele>649.40002441406</ele>
        <time>2018-05-01T12:18:19.000Z</time>
      </trkpt>
      <trkpt lat="47.23843" lon="6.41903">
        <ele>649.40002441406</ele>
        <time>2018-05-01T12:18:20.000Z</time>
      </trkpt>
      <trkpt lat="47.23833" lon="6.41919">
        <ele>649.20001220703</ele>
        <time>2018-05-01T12:18:26.000Z</time>
      </trkpt>
      <trkpt lat="47.23824" lon="6.41935">
        <ele>649.20001220703</ele>
        <time>2018-05-01T12:18:31.000Z</time>
      </trkpt>
      <trkpt lat="47.23819" lon="6.41941">
        <ele>649.20001220703</ele>
        <time>2018-05-01T12:18:33.000Z</time>
      </trkpt>
      <trkpt lat="47.23817" lon="6.41945">
        <ele>649</ele>
        <time>2018-05-01T12:18:34.000Z</time>
      </trkpt>
      <trkpt lat="47.23816" lon="6.41947">
        <ele>649</ele>
        <time>2018-05-01T12:18:35.000Z</time>
      </trkpt>
      <trkpt lat="47.23814" lon="6.41952">
        <ele>649.20001220703</ele>
        <time>2018-05-01T12:18:36.000Z</time>
      </trkpt>
      <trkpt lat="47.23812" lon="6.41956">
        <ele>649.20001220703</ele>
        <time>2018-05-01T12:18:37.000Z</time>
      </trkpt>
      <trkpt lat="47.23808" lon="6.41966">
        <ele>649.40002441406</ele>
        <time>2018-05-01T12:18:39.000Z</time>
      </trkpt>
      <trkpt lat="47.23804" lon="6.41977">
        <ele>649.79998779297</ele>
        <time>2018-05-01T12:18:42.000Z</time>
      </trkpt>
      <trkpt lat="47.23798" lon="6.41989">
        <ele>649.59997558594</ele>
        <time>2018-05-01T12:18:45.000Z</time>
      </trkpt>
      <trkpt lat="47.23793" lon="6.41997">
        <ele>649.20001220703</ele>
        <time>2018-05-01T12:18:47.000Z</time>
      </trkpt>
      <trkpt lat="47.23788" lon="6.42004">
        <ele>648.79998779297</ele>
        <time>2018-05-01T12:18:49.000Z</time>
      </trkpt>
      <trkpt lat="47.23782" lon="6.42014">
        <ele>648.20001220703</ele>
        <time>2018-05-01T12:18:52.000Z</time>
      </trkpt>
      <trkpt lat="47.2378" lon="6.42017">
        <ele>648</ele>
        <time>2018-05-01T12:18:53.000Z</time>
      </trkpt>
      <trkpt lat="47.23779" lon="6.42018">
        <ele>648.20001220703</ele>
        <time>2018-05-01T12:18:54.000Z</time>
      </trkpt>
      <trkpt lat="47.23779" lon="6.42018">
        <ele>648.20001220703</ele>
        <time>2018-05-01T12:18:57.000Z</time>
      </trkpt>
      <trkpt lat="47.23779" lon="6.42018">
        <ele>648.20001220703</ele>
        <time>2018-05-01T12:19:11.000Z</time>
      </trkpt>
      <trkpt lat="47.23779" lon="6.42018">
        <ele>648.20001220703</ele>
        <time>2018-05-01T12:19:26.000Z</time>
      </trkpt>
      <trkpt lat="47.23779" lon="6.42018">
        <ele>648.20001220703</ele>
        <time>2018-05-01T12:19:35.000Z</time>
      </trkpt>
      <trkpt lat="47.23778" lon="6.42018">
        <ele>648.20001220703</ele>
        <time>2018-05-01T12:19:37.000Z</time>
      </trkpt>
      <trkpt lat="47.23777" lon="6.42021">
        <ele>648.20001220703</ele>
        <time>2018-05-01T12:19:38.000Z</time>
      </trkpt>
      <trkpt lat="47.23776" lon="6.42026">
        <ele>648.40002441406</ele>
        <time>2018-05-01T12:19:40.000Z</time>
      </trkpt>
      <trkpt lat="47.23775" lon="6.42029">
        <ele>648.59997558594</ele>
        <time>2018-05-01T12:19:41.000Z</time>
      </trkpt>
      <trkpt lat="47.23774" lon="6.4203">
        <ele>648.59997558594</ele>
        <time>2018-05-01T12:19:42.000Z</time>
      </trkpt>
      <trkpt lat="47.23772" lon="6.42032">
        <ele>648.79998779297</ele>
        <time>2018-05-01T12:19:43.000Z</time>
      </trkpt>
      <trkpt lat="47.23768" lon="6.42036">
        <ele>648.79998779297</ele>
        <time>2018-05-01T12:19:45.000Z</time>
      </trkpt>
      <trkpt lat="47.23765" lon="6.42039">
        <ele>649</ele>
        <time>2018-05-01T12:19:46.000Z</time>
      </trkpt>
      <trkpt lat="47.2376" lon="6.42043">
        <ele>649</ele>
        <time>2018-05-01T12:19:48.000Z</time>
      </trkpt>
      <trkpt lat="47.23759" lon="6.42046">
        <ele>649.20001220703</ele>
        <time>2018-05-01T12:19:49.000Z</time>
      </trkpt>
      <trkpt lat="47.23757" lon="6.42049">
        <ele>649.40002441406</ele>
        <time>2018-05-01T12:19:50.000Z</time>
      </trkpt>
      <trkpt lat="47.23756" lon="6.42052">
        <ele>649.40002441406</ele>
        <time>2018-05-01T12:19:51.000Z</time>
      </trkpt>
      <trkpt lat="47.23754" lon="6.42055">
        <ele>649.59997558594</ele>
        <time>2018-05-01T12:19:52.000Z</time>
      </trkpt>
      <trkpt lat="47.23751" lon="6.42062">
        <ele>650</ele>
        <time>2018-05-01T12:19:54.000Z</time>
      </trkpt>
      <trkpt lat="47.23746" lon="6.4207">
        <ele>650.20001220703</ele>
        <time>2018-05-01T12:19:57.000Z</time>
      </trkpt>
      <trkpt lat="47.23744" lon="6.42073">
        <ele>650.40002441406</ele>
        <time>2018-05-01T12:19:58.000Z</time>
      </trkpt>
      <trkpt lat="47.23739" lon="6.42084">
        <ele>651</ele>
        <time>2018-05-01T12:20:01.000Z</time>
      </trkpt>
      <trkpt lat="47.23738" lon="6.42086">
        <ele>651.20001220703</ele>
        <time>2018-05-01T12:20:02.000Z</time>
      </trkpt>
      <trkpt lat="47.23733" lon="6.42092">
        <ele>651.59997558594</ele>
        <time>2018-05-01T12:20:05.000Z</time>
      </trkpt>
      <trkpt lat="47.23731" lon="6.42096">
        <ele>651.79998779297</ele>
        <time>2018-05-01T12:20:06.000Z</time>
      </trkpt>
      <trkpt lat="47.23728" lon="6.421">
        <ele>652.20001220703</ele>
        <time>2018-05-01T12:20:08.000Z</time>
      </trkpt>
      <trkpt lat="47.23722" lon="6.42109">
        <ele>652.79998779297</ele>
        <time>2018-05-01T12:20:11.000Z</time>
      </trkpt>
      <trkpt lat="47.2372" lon="6.42112">
        <ele>652.79998779297</ele>
        <time>2018-05-01T12:20:12.000Z</time>
      </trkpt>
      <trkpt lat="47.23717" lon="6.42117">
        <ele>653.20001220703</ele>
        <time>2018-05-01T12:20:14.000Z</time>
      </trkpt>
      <trkpt lat="47.23715" lon="6.42119">
        <ele>653.40002441406</ele>
        <time>2018-05-01T12:20:15.000Z</time>
      </trkpt>
      <trkpt lat="47.23712" lon="6.42121">
        <ele>653.59997558594</ele>
        <time>2018-05-01T12:20:16.000Z</time>
      </trkpt>
      <trkpt lat="47.23704" lon="6.42135">
        <ele>654.20001220703</ele>
        <time>2018-05-01T12:20:21.000Z</time>
      </trkpt>
      <trkpt lat="47.23691" lon="6.42143">
        <ele>654.79998779297</ele>
        <time>2018-05-01T12:20:26.000Z</time>
      </trkpt>
      <trkpt lat="47.23685" lon="6.42142">
        <ele>655</ele>
        <time>2018-05-01T12:20:28.000Z</time>
      </trkpt>
      <trkpt lat="47.23681" lon="6.42141">
        <ele>655.20001220703</ele>
        <time>2018-05-01T12:20:30.000Z</time>
      </trkpt>
      <trkpt lat="47.23678" lon="6.42141">
        <ele>655.20001220703</ele>
        <time>2018-05-01T12:20:31.000Z</time>
      </trkpt>
      <trkpt lat="47.23676" lon="6.4214">
        <ele>655.20001220703</ele>
        <time>2018-05-01T12:20:32.000Z</time>
      </trkpt>
      <trkpt lat="47.23669" lon="6.4214">
        <ele>655.59997558594</ele>
        <time>2018-05-01T12:20:36.000Z</time>
      </trkpt>
      <trkpt lat="47.23661" lon="6.42136">
        <ele>655.79998779297</ele>
        <time>2018-05-01T12:20:41.000Z</time>
      </trkpt>
      <trkpt lat="47.23653" lon="6.4212">
        <ele>655.59997558594</ele>
        <time>2018-05-01T12:20:46.000Z</time>
      </trkpt>
      <trkpt lat="47.23647" lon="6.42102">
        <ele>655.20001220703</ele>
        <time>2018-05-01T12:20:51.000Z</time>
      </trkpt>
      <trkpt lat="47.23646" lon="6.42098">
        <ele>655.20001220703</ele>
        <time>2018-05-01T12:20:53.000Z</time>
      </trkpt>
      <trkpt lat="47.23647" lon="6.42093">
        <ele>655</ele>
        <time>2018-05-01T12:20:57.000Z</time>
      </trkpt>
      <trkpt lat="47.23647" lon="6.42092">
        <ele>655</ele>
        <time>2018-05-01T12:20:58.000Z</time>
      </trkpt>
      <trkpt lat="47.23645" lon="6.42086">
        <ele>655</ele>
        <time>2018-05-01T12:21:03.000Z</time>
      </trkpt>
      <trkpt lat="47.2364" lon="6.42085">
        <ele>655</ele>
        <time>2018-05-01T12:21:11.000Z</time>
      </trkpt>
      <trkpt lat="47.23637" lon="6.42083">
        <ele>655</ele>
        <time>2018-05-01T12:21:14.000Z</time>
      </trkpt>
      <trkpt lat="47.23637" lon="6.42082">
        <ele>655</ele>
        <time>2018-05-01T12:21:15.000Z</time>
      </trkpt>
      <trkpt lat="47.23637" lon="6.4208">
        <ele>655</ele>
        <time>2018-05-01T12:21:16.000Z</time>
      </trkpt>
      <trkpt lat="47.23635" lon="6.42069">
        <ele>654.79998779297</ele>
        <time>2018-05-01T12:21:20.000Z</time>
      </trkpt>
      <trkpt lat="47.23629" lon="6.42052">
        <ele>655.59997558594</ele>
        <time>2018-05-01T12:21:24.000Z</time>
      </trkpt>
      <trkpt lat="47.23626" lon="6.42046">
        <ele>656</ele>
        <time>2018-05-01T12:21:28.000Z</time>
      </trkpt>
      <trkpt lat="47.23624" lon="6.42041">
        <ele>656.40002441406</ele>
        <time>2018-05-01T12:21:30.000Z</time>
      </trkpt>
      <trkpt lat="47.23622" lon="6.42037">
        <ele>656.59997558594</ele>
        <time>2018-05-01T12:21:32.000Z</time>
      </trkpt>
      <trkpt lat="47.2362" lon="6.42034">
        <ele>656.79998779297</ele>
        <time>2018-05-01T12:21:34.000Z</time>
      </trkpt>
      <trkpt lat="47.23617" lon="6.42031">
        <ele>657.20001220703</ele>
        <time>2018-05-01T12:21:38.000Z</time>
      </trkpt>
      <trkpt lat="47.23617" lon="6.42031">
        <ele>657.20001220703</ele>
        <time>2018-05-01T12:21:40.000Z</time>
      </trkpt>
      <trkpt lat="47.23615" lon="6.42028">
        <ele>657.40002441406</ele>
        <time>2018-05-01T12:21:45.000Z</time>
      </trkpt>
      <trkpt lat="47.23614" lon="6.42014">
        <ele>657.79998779297</ele>
        <time>2018-05-01T12:21:52.000Z</time>
      </trkpt>
      <trkpt lat="47.23612" lon="6.42013">
        <ele>658.20001220703</ele>
        <time>2018-05-01T12:21:57.000Z</time>
      </trkpt>
      <trkpt lat="47.23611" lon="6.42013">
        <ele>658.20001220703</ele>
        <time>2018-05-01T12:22:04.000Z</time>
      </trkpt>
      <trkpt lat="47.23611" lon="6.42008">
        <ele>658</ele>
        <time>2018-05-01T12:22:09.000Z</time>
      </trkpt>
      <trkpt lat="47.2361" lon="6.42005">
        <ele>658</ele>
        <time>2018-05-01T12:22:10.000Z</time>
      </trkpt>
      <trkpt lat="47.23605" lon="6.41998">
        <ele>658.20001220703</ele>
        <time>2018-05-01T12:22:13.000Z</time>
      </trkpt>
      <trkpt lat="47.23605" lon="6.41996">
        <ele>658.20001220703</ele>
        <time>2018-05-01T12:22:14.000Z</time>
      </trkpt>
      <trkpt lat="47.23604" lon="6.41994">
        <ele>658.20001220703</ele>
        <time>2018-05-01T12:22:15.000Z</time>
      </trkpt>
      <trkpt lat="47.23599" lon="6.41986">
        <ele>658.40002441406</ele>
        <time>2018-05-01T12:22:20.000Z</time>
      </trkpt>
      <trkpt lat="47.23593" lon="6.41978">
        <ele>659</ele>
        <time>2018-05-01T12:22:23.000Z</time>
      </trkpt>
      <trkpt lat="47.23589" lon="6.41975">
        <ele>659.40002441406</ele>
        <time>2018-05-01T12:22:25.000Z</time>
      </trkpt>
      <trkpt lat="47.23587" lon="6.41972">
        <ele>659.79998779297</ele>
        <time>2018-05-01T12:22:26.000Z</time>
      </trkpt>
      <trkpt lat="47.23582" lon="6.41965">
        <ele>660.40002441406</ele>
        <time>2018-05-01T12:22:29.000Z</time>
      </trkpt>
      <trkpt lat="47.23578" lon="6.41961">
        <ele>660.79998779297</ele>
        <time>2018-05-01T12:22:31.000Z</time>
      </trkpt>
      <trkpt lat="47.23573" lon="6.41953">
        <ele>660.79998779297</ele>
        <time>2018-05-01T12:22:34.000Z</time>
      </trkpt>
      <trkpt lat="47.23566" lon="6.41943">
        <ele>660.79998779297</ele>
        <time>2018-05-01T12:22:38.000Z</time>
      </trkpt>
      <trkpt lat="47.23566" lon="6.41941">
        <ele>660.79998779297</ele>
        <time>2018-05-01T12:22:39.000Z</time>
      </trkpt>
      <trkpt lat="47.23564" lon="6.41937">
        <ele>660.79998779297</ele>
        <time>2018-05-01T12:22:43.000Z</time>
      </trkpt>
      <trkpt lat="47.23562" lon="6.41937">
        <ele>660.79998779297</ele>
        <time>2018-05-01T12:22:44.000Z</time>
      </trkpt>
      <trkpt lat="47.23554" lon="6.41937">
        <ele>661</ele>
        <time>2018-05-01T12:22:50.000Z</time>
      </trkpt>
      <trkpt lat="47.2355" lon="6.41932">
        <ele>661</ele>
        <time>2018-05-01T12:22:56.000Z</time>
      </trkpt>
      <trkpt lat="47.2355" lon="6.41925">
        <ele>661</ele>
        <time>2018-05-01T12:23:00.000Z</time>
      </trkpt>
      <trkpt lat="47.23549" lon="6.41922">
        <ele>661</ele>
        <time>2018-05-01T12:23:01.000Z</time>
      </trkpt>
      <trkpt lat="47.23547" lon="6.4192">
        <ele>661</ele>
        <time>2018-05-01T12:23:02.000Z</time>
      </trkpt>
      <trkpt lat="47.23535" lon="6.41905">
        <ele>661.20001220703</ele>
        <time>2018-05-01T12:23:08.000Z</time>
      </trkpt>
      <trkpt lat="47.23533" lon="6.41902">
        <ele>661.20001220703</ele>
        <time>2018-05-01T12:23:09.000Z</time>
      </trkpt>
      <trkpt lat="47.23527" lon="6.41893">
        <ele>661.40002441406</ele>
        <time>2018-05-01T12:23:12.000Z</time>
      </trkpt>
      <trkpt lat="47.23511" lon="6.41883">
        <ele>661.79998779297</ele>
        <time>2018-05-01T12:23:18.000Z</time>
      </trkpt>
      <trkpt lat="47.23496" lon="6.4187">
        <ele>662.40002441406</ele>
        <time>2018-05-01T12:23:24.000Z</time>
      </trkpt>
      <trkpt lat="47.2348" lon="6.41853">
        <ele>661.79998779297</ele>
        <time>2018-05-01T12:23:31.000Z</time>
      </trkpt>
      <trkpt lat="47.23476" lon="6.41848">
        <ele>661.59997558594</ele>
        <time>2018-05-01T12:23:33.000Z</time>
      </trkpt>
      <trkpt lat="47.23475" lon="6.41845">
        <ele>661.59997558594</ele>
        <time>2018-05-01T12:23:34.000Z</time>
      </trkpt>
      <trkpt lat="47.23473" lon="6.41842">
        <ele>661.59997558594</ele>
        <time>2018-05-01T12:23:35.000Z</time>
      </trkpt>
      <trkpt lat="47.23473" lon="6.41837">
        <ele>661.59997558594</ele>
        <time>2018-05-01T12:23:37.000Z</time>
      </trkpt>
      <trkpt lat="47.23475" lon="6.41831">
        <ele>661.79998779297</ele>
        <time>2018-05-01T12:23:39.000Z</time>
      </trkpt>
      <trkpt lat="47.23475" lon="6.41829">
        <ele>661.79998779297</ele>
        <time>2018-05-01T12:23:40.000Z</time>
      </trkpt>
      <trkpt lat="47.23475" lon="6.41825">
        <ele>661.79998779297</ele>
        <time>2018-05-01T12:23:41.000Z</time>
      </trkpt>
      <trkpt lat="47.23475" lon="6.41821">
        <ele>662</ele>
        <time>2018-05-01T12:23:42.000Z</time>
      </trkpt>
      <trkpt lat="47.23473" lon="6.41814">
        <ele>662</ele>
        <time>2018-05-01T12:23:44.000Z</time>
      </trkpt>
      <trkpt lat="47.23473" lon="6.41808">
        <ele>662.20001220703</ele>
        <time>2018-05-01T12:23:46.000Z</time>
      </trkpt>
      <trkpt lat="47.23472" lon="6.41799">
        <ele>662.40002441406</ele>
        <time>2018-05-01T12:23:48.000Z</time>
      </trkpt>
      <trkpt lat="47.23471" lon="6.41794">
        <ele>662.59997558594</ele>
        <time>2018-05-01T12:23:49.000Z</time>
      </trkpt>
      <trkpt lat="47.2347" lon="6.41785">
        <ele>662.40002441406</ele>
        <time>2018-05-01T12:23:51.000Z</time>
      </trkpt>
      <trkpt lat="47.23467" lon="6.4177">
        <ele>661.59997558594</ele>
        <time>2018-05-01T12:23:53.000Z</time>
      </trkpt>
      <trkpt lat="47.23466" lon="6.41763">
        <ele>661.20001220703</ele>
        <time>2018-05-01T12:23:54.000Z</time>
      </trkpt>
      <trkpt lat="47.23464" lon="6.41747">
        <ele>660.40002441406</ele>
        <time>2018-05-01T12:23:57.000Z</time>
      </trkpt>
      <trkpt lat="47.23463" lon="6.41743">
        <ele>660.20001220703</ele>
        <time>2018-05-01T12:23:58.000Z</time>
      </trkpt>
      <trkpt lat="47.23462" lon="6.41733">
        <ele>659.59997558594</ele>
        <time>2018-05-01T12:24:00.000Z</time>
      </trkpt>
      <trkpt lat="47.23459" lon="6.41716">
        <ele>659.59997558594</ele>
        <time>2018-05-01T12:24:03.000Z</time>
      </trkpt>
      <trkpt lat="47.23457" lon="6.41711">
        <ele>659.59997558594</ele>
        <time>2018-05-01T12:24:04.000Z</time>
      </trkpt>
      <trkpt lat="47.23452" lon="6.41682">
        <ele>659.20001220703</ele>
        <time>2018-05-01T12:24:09.000Z</time>
      </trkpt>
      <trkpt lat="47.2345" lon="6.4167">
        <ele>658.59997558594</ele>
        <time>2018-05-01T12:24:11.000Z</time>
      </trkpt>
      <trkpt lat="47.23449" lon="6.41655">
        <ele>657.79998779297</ele>
        <time>2018-05-01T12:24:14.000Z</time>
      </trkpt>
      <trkpt lat="47.23449" lon="6.4165">
        <ele>657.59997558594</ele>
        <time>2018-05-01T12:24:15.000Z</time>
      </trkpt>
      <trkpt lat="47.23449" lon="6.41639">
        <ele>658.59997558594</ele>
        <time>2018-05-01T12:24:17.000Z</time>
      </trkpt>
      <trkpt lat="47.2345" lon="6.4163">
        <ele>659.40002441406</ele>
        <time>2018-05-01T12:24:19.000Z</time>
      </trkpt>
      <trkpt lat="47.23451" lon="6.41625">
        <ele>659.79998779297</ele>
        <time>2018-05-01T12:24:20.000Z</time>
      </trkpt>
      <trkpt lat="47.23456" lon="6.41613">
        <ele>660.59997558594</ele>
        <time>2018-05-01T12:24:23.000Z</time>
      </trkpt>
      <trkpt lat="47.23458" lon="6.41608">
        <ele>661</ele>
        <time>2018-05-01T12:24:25.000Z</time>
      </trkpt>
      <trkpt lat="47.23461" lon="6.41603">
        <ele>661.20001220703</ele>
        <time>2018-05-01T12:24:30.000Z</time>
      </trkpt>
      <trkpt lat="47.23462" lon="6.416">
        <ele>661.20001220703</ele>
        <time>2018-05-01T12:24:34.000Z</time>
      </trkpt>
      <trkpt lat="47.23461" lon="6.416">
        <ele>661.40002441406</ele>
        <time>2018-05-01T12:24:36.000Z</time>
      </trkpt>
      <trkpt lat="47.23461" lon="6.41601">
        <ele>661.40002441406</ele>
        <time>2018-05-01T12:24:39.000Z</time>
      </trkpt>
      <trkpt lat="47.23458" lon="6.41603">
        <ele>661.40002441406</ele>
        <time>2018-05-01T12:24:43.000Z</time>
      </trkpt>
      <trkpt lat="47.23457" lon="6.41604">
        <ele>661.40002441406</ele>
        <time>2018-05-01T12:24:46.000Z</time>
      </trkpt>
      <trkpt lat="47.23457" lon="6.41607">
        <ele>661.20001220703</ele>
        <time>2018-05-01T12:24:49.000Z</time>
      </trkpt>
      <trkpt lat="47.23457" lon="6.41608">
        <ele>661.20001220703</ele>
        <time>2018-05-01T12:24:50.000Z</time>
      </trkpt>
      <trkpt lat="47.23456" lon="6.41608">
        <ele>661.20001220703</ele>
        <time>2018-05-01T12:24:56.000Z</time>
      </trkpt>
      <trkpt lat="47.23456" lon="6.41608">
        <ele>661.20001220703</ele>
        <time>2018-05-01T12:25:03.000Z</time>
      </trkpt>
      <trkpt lat="47.23456" lon="6.41608">
        <ele>661.20001220703</ele>
        <time>2018-05-01T12:25:09.000Z</time>
      </trkpt>
      <trkpt lat="47.23456" lon="6.41608">
        <ele>661.20001220703</ele>
        <time>2018-05-01T12:25:16.000Z</time>
      </trkpt>
      <trkpt lat="47.23456" lon="6.41608">
        <ele>661.20001220703</ele>
        <time>2018-05-01T12:25:23.000Z</time>
      </trkpt>
      <trkpt lat="47.23456" lon="6.41608">
        <ele>661.20001220703</ele>
        <time>2018-05-01T12:25:30.000Z</time>
      </trkpt>
      <trkpt lat="47.23456" lon="6.41609">
        <ele>661</ele>
        <time>2018-05-01T12:25:31.000Z</time>
      </trkpt>
      <trkpt lat="47.23456" lon="6.41608">
        <ele>661.20001220703</ele>
        <time>2018-05-01T12:25:32.000Z</time>
      </trkpt>
      <trkpt lat="47.23458" lon="6.41602">
        <ele>661.40002441406</ele>
        <time>2018-05-01T12:25:35.000Z</time>
      </trkpt>
      <trkpt lat="47.2346" lon="6.41601">
        <ele>661.40002441406</ele>
        <time>2018-05-01T12:25:36.000Z</time>
      </trkpt>
      <trkpt lat="47.23463" lon="6.41598">
        <ele>661.40002441406</ele>
        <time>2018-05-01T12:25:38.000Z</time>
      </trkpt>
      <trkpt lat="47.23467" lon="6.41595">
        <ele>661.40002441406</ele>
        <time>2018-05-01T12:25:40.000Z</time>
      </trkpt>
      <trkpt lat="47.23471" lon="6.41592">
        <ele>661.20001220703</ele>
        <time>2018-05-01T12:25:42.000Z</time>
      </trkpt>
      <trkpt lat="47.23473" lon="6.4159">
        <ele>661</ele>
        <time>2018-05-01T12:25:44.000Z</time>
      </trkpt>
      <trkpt lat="47.23478" lon="6.41587">
        <ele>660.79998779297</ele>
        <time>2018-05-01T12:25:46.000Z</time>
      </trkpt>
      <trkpt lat="47.23483" lon="6.41585">
        <ele>660.40002441406</ele>
        <time>2018-05-01T12:25:48.000Z</time>
      </trkpt>
      <trkpt lat="47.23487" lon="6.41582">
        <ele>660.40002441406</ele>
        <time>2018-05-01T12:25:50.000Z</time>
      </trkpt>
      <trkpt lat="47.23492" lon="6.41578">
        <ele>660.20001220703</ele>
        <time>2018-05-01T12:25:53.000Z</time>
      </trkpt>
      <trkpt lat="47.235" lon="6.41571">
        <ele>660</ele>
        <time>2018-05-01T12:25:58.000Z</time>
      </trkpt>
      <trkpt lat="47.23502" lon="6.41567">
        <ele>659.79998779297</ele>
        <time>2018-05-01T12:26:00.000Z</time>
      </trkpt>
      <trkpt lat="47.23506" lon="6.41562">
        <ele>659.40002441406</ele>
        <time>2018-05-01T12:26:06.000Z</time>
      </trkpt>
      <trkpt lat="47.23506" lon="6.4156">
        <ele>659.40002441406</ele>
        <time>2018-05-01T12:26:07.000Z</time>
      </trkpt>
      <trkpt lat="47.23505" lon="6.41559">
        <ele>659.59997558594</ele>
        <time>2018-05-01T12:26:09.000Z</time>
      </trkpt>
      <trkpt lat="47.23504" lon="6.41559">
        <ele>659.79998779297</ele>
        <time>2018-05-01T12:26:11.000Z</time>
      </trkpt>
      <trkpt lat="47.23503" lon="6.41558">
        <ele>660</ele>
        <time>2018-05-01T12:26:12.000Z</time>
      </trkpt>
      <trkpt lat="47.23494" lon="6.41555">
        <ele>661.40002441406</ele>
        <time>2018-05-01T12:26:19.000Z</time>
      </trkpt>
      <trkpt lat="47.23487" lon="6.41556">
        <ele>662.20001220703</ele>
        <time>2018-05-01T12:26:26.000Z</time>
      </trkpt>
      <trkpt lat="47.23486" lon="6.41556">
        <ele>662.40002441406</ele>
        <time>2018-05-01T12:26:27.000Z</time>
      </trkpt>
      <trkpt lat="47.23485" lon="6.41555">
        <ele>662.40002441406</ele>
        <time>2018-05-01T12:26:35.000Z</time>
      </trkpt>
      <trkpt lat="47.23485" lon="6.41555">
        <ele>662.59997558594</ele>
        <time>2018-05-01T12:26:41.000Z</time>
      </trkpt>
      <trkpt lat="47.23482" lon="6.41553">
        <ele>662.79998779297</ele>
        <time>2018-05-01T12:26:44.000Z</time>
      </trkpt>
      <trkpt lat="47.23479" lon="6.41554">
        <ele>663.20001220703</ele>
        <time>2018-05-01T12:26:48.000Z</time>
      </trkpt>
      <trkpt lat="47.23476" lon="6.41554">
        <ele>663.59997558594</ele>
        <time>2018-05-01T12:26:51.000Z</time>
      </trkpt>
      <trkpt lat="47.23476" lon="6.41554">
        <ele>663.59997558594</ele>
        <time>2018-05-01T12:26:53.000Z</time>
      </trkpt>
      <trkpt lat="47.23476" lon="6.41553">
        <ele>663.59997558594</ele>
        <time>2018-05-01T12:26:55.000Z</time>
      </trkpt>
      <trkpt lat="47.23474" lon="6.41553">
        <ele>663.79998779297</ele>
        <time>2018-05-01T12:26:57.000Z</time>
      </trkpt>
      <trkpt lat="47.23467" lon="6.41551">
        <ele>664.59997558594</ele>
        <time>2018-05-01T12:27:02.000Z</time>
      </trkpt>
      <trkpt lat="47.23462" lon="6.41548">
        <ele>665.20001220703</ele>
        <time>2018-05-01T12:27:06.000Z</time>
      </trkpt>
      <trkpt lat="47.23456" lon="6.41536">
        <ele>666.40002441406</ele>
        <time>2018-05-01T12:27:10.000Z</time>
      </trkpt>
      <trkpt lat="47.23451" lon="6.4153">
        <ele>667.20001220703</ele>
        <time>2018-05-01T12:27:12.000Z</time>
      </trkpt>
      <trkpt lat="47.23448" lon="6.41527">
        <ele>667.59997558594</ele>
        <time>2018-05-01T12:27:13.000Z</time>
      </trkpt>
      <trkpt lat="47.2344" lon="6.4152">
        <ele>668.59997558594</ele>
        <time>2018-05-01T12:27:16.000Z</time>
      </trkpt>
      <trkpt lat="47.23438" lon="6.41518">
        <ele>669</ele>
        <time>2018-05-01T12:27:17.000Z</time>
      </trkpt>
      <trkpt lat="47.23425" lon="6.41507">
        <ele>670.59997558594</ele>
        <time>2018-05-01T12:27:21.000Z</time>
      </trkpt>
      <trkpt lat="47.23414" lon="6.41503">
        <ele>672</ele>
        <time>2018-05-01T12:27:24.000Z</time>
      </trkpt>
      <trkpt lat="47.23402" lon="6.415">
        <ele>672.40002441406</ele>
        <time>2018-05-01T12:27:27.000Z</time>
      </trkpt>
      <trkpt lat="47.23388" lon="6.41495">
        <ele>672.59997558594</ele>
        <time>2018-05-01T12:27:31.000Z</time>
      </trkpt>
      <trkpt lat="47.23381" lon="6.41493">
        <ele>672.59997558594</ele>
        <time>2018-05-01T12:27:33.000Z</time>
      </trkpt>
      <trkpt lat="47.23374" lon="6.41491">
        <ele>672.59997558594</ele>
        <time>2018-05-01T12:27:35.000Z</time>
      </trkpt>
      <trkpt lat="47.23364" lon="6.41488">
        <ele>672.79998779297</ele>
        <time>2018-05-01T12:27:38.000Z</time>
      </trkpt>
      <trkpt lat="47.23351" lon="6.41475">
        <ele>673</ele>
        <time>2018-05-01T12:27:42.000Z</time>
      </trkpt>
      <trkpt lat="47.23348" lon="6.41471">
        <ele>672.79998779297</ele>
        <time>2018-05-01T12:27:43.000Z</time>
      </trkpt>
      <trkpt lat="47.23343" lon="6.41467">
        <ele>672.79998779297</ele>
        <time>2018-05-01T12:27:44.000Z</time>
      </trkpt>
      <trkpt lat="47.23331" lon="6.41457">
        <ele>672.59997558594</ele>
        <time>2018-05-01T12:27:47.000Z</time>
      </trkpt>
      <trkpt lat="47.23314" lon="6.41433">
        <ele>671.79998779297</ele>
        <time>2018-05-01T12:27:52.000Z</time>
      </trkpt>
      <trkpt lat="47.23311" lon="6.41428">
        <ele>671.59997558594</ele>
        <time>2018-05-01T12:27:53.000Z</time>
      </trkpt>
      <trkpt lat="47.23303" lon="6.41416">
        <ele>671</ele>
        <time>2018-05-01T12:27:56.000Z</time>
      </trkpt>
      <trkpt lat="47.23292" lon="6.41406">
        <ele>670.40002441406</ele>
        <time>2018-05-01T12:27:59.000Z</time>
      </trkpt>
      <trkpt lat="47.23288" lon="6.41402">
        <ele>670</ele>
        <time>2018-05-01T12:28:00.000Z</time>
      </trkpt>
      <trkpt lat="47.2328" lon="6.41392">
        <ele>669.59997558594</ele>
        <time>2018-05-01T12:28:02.000Z</time>
      </trkpt>
      <trkpt lat="47.23272" lon="6.41384">
        <ele>669.20001220703</ele>
        <time>2018-05-01T12:28:04.000Z</time>
      </trkpt>
      <trkpt lat="47.23264" lon="6.4137">
        <ele>668.59997558594</ele>
        <time>2018-05-01T12:28:07.000Z</time>
      </trkpt>
      <trkpt lat="47.23255" lon="6.41361">
        <ele>668</ele>
        <time>2018-05-01T12:28:09.000Z</time>
      </trkpt>
      <trkpt lat="47.23251" lon="6.41357">
        <ele>667.79998779297</ele>
        <time>2018-05-01T12:28:10.000Z</time>
      </trkpt>
      <trkpt lat="47.23244" lon="6.4135">
        <ele>667.40002441406</ele>
        <time>2018-05-01T12:28:12.000Z</time>
      </trkpt>
      <trkpt lat="47.23239" lon="6.41345">
        <ele>667</ele>
        <time>2018-05-01T12:28:14.000Z</time>
      </trkpt>
      <trkpt lat="47.23233" lon="6.41339">
        <ele>666.59997558594</ele>
        <time>2018-05-01T12:28:16.000Z</time>
      </trkpt>
      <trkpt lat="47.23229" lon="6.41335">
        <ele>666.40002441406</ele>
        <time>2018-05-01T12:28:17.000Z</time>
      </trkpt>
      <trkpt lat="47.23225" lon="6.4133">
        <ele>666.20001220703</ele>
        <time>2018-05-01T12:28:18.000Z</time>
      </trkpt>
      <trkpt lat="47.23221" lon="6.41324">
        <ele>666</ele>
        <time>2018-05-01T12:28:19.000Z</time>
      </trkpt>
      <trkpt lat="47.23217" lon="6.41319">
        <ele>665.59997558594</ele>
        <time>2018-05-01T12:28:20.000Z</time>
      </trkpt>
      <trkpt lat="47.23212" lon="6.41313">
        <ele>665.40002441406</ele>
        <time>2018-05-01T12:28:21.000Z</time>
      </trkpt>
      <trkpt lat="47.23208" lon="6.41309">
        <ele>665</ele>
        <time>2018-05-01T12:28:22.000Z</time>
      </trkpt>
      <trkpt lat="47.23204" lon="6.41304">
        <ele>664.79998779297</ele>
        <time>2018-05-01T12:28:23.000Z</time>
      </trkpt>
      <trkpt lat="47.23199" lon="6.41299">
        <ele>664.40002441406</ele>
        <time>2018-05-01T12:28:24.000Z</time>
      </trkpt>
      <trkpt lat="47.23195" lon="6.41294">
        <ele>664</ele>
        <time>2018-05-01T12:28:25.000Z</time>
      </trkpt>
      <trkpt lat="47.23191" lon="6.41288">
        <ele>663.79998779297</ele>
        <time>2018-05-01T12:28:26.000Z</time>
      </trkpt>
      <trkpt lat="47.23187" lon="6.41282">
        <ele>663.40002441406</ele>
        <time>2018-05-01T12:28:27.000Z</time>
      </trkpt>
      <trkpt lat="47.23182" lon="6.41277">
        <ele>663</ele>
        <time>2018-05-01T12:28:28.000Z</time>
      </trkpt>
      <trkpt lat="47.23178" lon="6.41272">
        <ele>662.79998779297</ele>
        <time>2018-05-01T12:28:29.000Z</time>
      </trkpt>
      <trkpt lat="47.23174" lon="6.41268">
        <ele>662.40002441406</ele>
        <time>2018-05-01T12:28:30.000Z</time>
      </trkpt>
      <trkpt lat="47.2317" lon="6.41263">
        <ele>662.20001220703</ele>
        <time>2018-05-01T12:28:31.000Z</time>
      </trkpt>
      <trkpt lat="47.23166" lon="6.41258">
        <ele>661.79998779297</ele>
        <time>2018-05-01T12:28:32.000Z</time>
      </trkpt>
      <trkpt lat="47.23162" lon="6.41252">
        <ele>661.59997558594</ele>
        <time>2018-05-01T12:28:33.000Z</time>
      </trkpt>
      <trkpt lat="47.23159" lon="6.41248">
        <ele>661.20001220703</ele>
        <time>2018-05-01T12:28:34.000Z</time>
      </trkpt>
      <trkpt lat="47.23154" lon="6.41243">
        <ele>660.79998779297</ele>
        <time>2018-05-01T12:28:35.000Z</time>
      </trkpt>
      <trkpt lat="47.2315" lon="6.4124">
        <ele>660.40002441406</ele>
        <time>2018-05-01T12:28:36.000Z</time>
      </trkpt>
      <trkpt lat="47.23147" lon="6.41237">
        <ele>660.20001220703</ele>
        <time>2018-05-01T12:28:37.000Z</time>
      </trkpt>
      <trkpt lat="47.23143" lon="6.41235">
        <ele>660</ele>
        <time>2018-05-01T12:28:38.000Z</time>
      </trkpt>
      <trkpt lat="47.2314" lon="6.41233">
        <ele>659.59997558594</ele>
        <time>2018-05-01T12:28:39.000Z</time>
      </trkpt>
      <trkpt lat="47.23137" lon="6.41232">
        <ele>659.40002441406</ele>
        <time>2018-05-01T12:28:40.000Z</time>
      </trkpt>
      <trkpt lat="47.23133" lon="6.41233">
        <ele>659.20001220703</ele>
        <time>2018-05-01T12:28:41.000Z</time>
      </trkpt>
      <trkpt lat="47.2313" lon="6.41233">
        <ele>659</ele>
        <time>2018-05-01T12:28:42.000Z</time>
      </trkpt>
      <trkpt lat="47.23127" lon="6.41233">
        <ele>659</ele>
        <time>2018-05-01T12:28:43.000Z</time>
      </trkpt>
      <trkpt lat="47.23124" lon="6.41233">
        <ele>658.79998779297</ele>
        <time>2018-05-01T12:28:44.000Z</time>
      </trkpt>
      <trkpt lat="47.23121" lon="6.41234">
        <ele>658.59997558594</ele>
        <time>2018-05-01T12:28:45.000Z</time>
      </trkpt>
      <trkpt lat="47.23118" lon="6.41235">
        <ele>658.40002441406</ele>
        <time>2018-05-01T12:28:46.000Z</time>
      </trkpt>
      <trkpt lat="47.23115" lon="6.41237">
        <ele>658.20001220703</ele>
        <time>2018-05-01T12:28:47.000Z</time>
      </trkpt>
      <trkpt lat="47.23113" lon="6.41238">
        <ele>658.20001220703</ele>
        <time>2018-05-01T12:28:48.000Z</time>
      </trkpt>
      <trkpt lat="47.2311" lon="6.4124">
        <ele>658</ele>
        <time>2018-05-01T12:28:49.000Z</time>
      </trkpt>
      <trkpt lat="47.23108" lon="6.41243">
        <ele>658</ele>
        <time>2018-05-01T12:28:50.000Z</time>
      </trkpt>
      <trkpt lat="47.23105" lon="6.41246">
        <ele>658</ele>
        <time>2018-05-01T12:28:51.000Z</time>
      </trkpt>
      <trkpt lat="47.23102" lon="6.4125">
        <ele>657.79998779297</ele>
        <time>2018-05-01T12:28:52.000Z</time>
      </trkpt>
      <trkpt lat="47.231" lon="6.41253">
        <ele>657.79998779297</ele>
        <time>2018-05-01T12:28:53.000Z</time>
      </trkpt>
      <trkpt lat="47.23097" lon="6.41258">
        <ele>658.20001220703</ele>
        <time>2018-05-01T12:28:55.000Z</time>
      </trkpt>
      <trkpt lat="47.23096" lon="6.4126">
        <ele>658.20001220703</ele>
        <time>2018-05-01T12:28:56.000Z</time>
      </trkpt>
      <trkpt lat="47.23095" lon="6.41262">
        <ele>658.40002441406</ele>
        <time>2018-05-01T12:28:57.000Z</time>
      </trkpt>
      <trkpt lat="47.23092" lon="6.41266">
        <ele>658.59997558594</ele>
        <time>2018-05-01T12:28:59.000Z</time>
      </trkpt>
      <trkpt lat="47.23092" lon="6.41268">
        <ele>658.79998779297</ele>
        <time>2018-05-01T12:29:00.000Z</time>
      </trkpt>
      <trkpt lat="47.23091" lon="6.4127">
        <ele>659</ele>
        <time>2018-05-01T12:29:01.000Z</time>
      </trkpt>
      <trkpt lat="47.23087" lon="6.41278">
        <ele>659.40002441406</ele>
        <time>2018-05-01T12:29:04.000Z</time>
      </trkpt>
      <trkpt lat="47.23084" lon="6.4128">
        <ele>659.40002441406</ele>
        <time>2018-05-01T12:29:05.000Z</time>
      </trkpt>
      <trkpt lat="47.23082" lon="6.41282">
        <ele>659.59997558594</ele>
        <time>2018-05-01T12:29:06.000Z</time>
      </trkpt>
      <trkpt lat="47.2308" lon="6.41284">
        <ele>659.79998779297</ele>
        <time>2018-05-01T12:29:07.000Z</time>
      </trkpt>
      <trkpt lat="47.23078" lon="6.41286">
        <ele>659.79998779297</ele>
        <time>2018-05-01T12:29:08.000Z</time>
      </trkpt>
      <trkpt lat="47.23075" lon="6.41289">
        <ele>660</ele>
        <time>2018-05-01T12:29:09.000Z</time>
      </trkpt>
      <trkpt lat="47.23069" lon="6.41295">
        <ele>660.20001220703</ele>
        <time>2018-05-01T12:29:11.000Z</time>
      </trkpt>
      <trkpt lat="47.23062" lon="6.41299">
        <ele>660.40002441406</ele>
        <time>2018-05-01T12:29:13.000Z</time>
      </trkpt>
      <trkpt lat="47.23059" lon="6.41301">
        <ele>660.20001220703</ele>
        <time>2018-05-01T12:29:14.000Z</time>
      </trkpt>
      <trkpt lat="47.23056" lon="6.41304">
        <ele>660</ele>
        <time>2018-05-01T12:29:15.000Z</time>
      </trkpt>
      <trkpt lat="47.23052" lon="6.41307">
        <ele>659.59997558594</ele>
        <time>2018-05-01T12:29:16.000Z</time>
      </trkpt>
      <trkpt lat="47.23048" lon="6.4131">
        <ele>659.40002441406</ele>
        <time>2018-05-01T12:29:17.000Z</time>
      </trkpt>
      <trkpt lat="47.23045" lon="6.41314">
        <ele>659</ele>
        <time>2018-05-01T12:29:18.000Z</time>
      </trkpt>
      <trkpt lat="47.23038" lon="6.41321">
        <ele>658.59997558594</ele>
        <time>2018-05-01T12:29:20.000Z</time>
      </trkpt>
      <trkpt lat="47.23033" lon="6.41326">
        <ele>658.20001220703</ele>
        <time>2018-05-01T12:29:21.000Z</time>
      </trkpt>
      <trkpt lat="47.23029" lon="6.4133">
        <ele>658</ele>
        <time>2018-05-01T12:29:22.000Z</time>
      </trkpt>
      <trkpt lat="47.23017" lon="6.41339">
        <ele>657.20001220703</ele>
        <time>2018-05-01T12:29:24.000Z</time>
      </trkpt>
      <trkpt lat="47.23012" lon="6.41343">
        <ele>656.59997558594</ele>
        <time>2018-05-01T12:29:25.000Z</time>
      </trkpt>
      <trkpt lat="47.23007" lon="6.41345">
        <ele>656.40002441406</ele>
        <time>2018-05-01T12:29:26.000Z</time>
      </trkpt>
      <trkpt lat="47.23002" lon="6.41348">
        <ele>656</ele>
        <time>2018-05-01T12:29:27.000Z</time>
      </trkpt>
      <trkpt lat="47.22997" lon="6.41351">
        <ele>655.59997558594</ele>
        <time>2018-05-01T12:29:28.000Z</time>
      </trkpt>
      <trkpt lat="47.22993" lon="6.41354">
        <ele>655.20001220703</ele>
        <time>2018-05-01T12:29:29.000Z</time>
      </trkpt>
      <trkpt lat="47.22988" lon="6.41358">
        <ele>655</ele>
        <time>2018-05-01T12:29:30.000Z</time>
      </trkpt>
      <trkpt lat="47.22984" lon="6.41362">
        <ele>654.79998779297</ele>
        <time>2018-05-01T12:29:31.000Z</time>
      </trkpt>
      <trkpt lat="47.22975" lon="6.4137">
        <ele>654.20001220703</ele>
        <time>2018-05-01T12:29:33.000Z</time>
      </trkpt>
      <trkpt lat="47.22971" lon="6.41374">
        <ele>654</ele>
        <time>2018-05-01T12:29:34.000Z</time>
      </trkpt>
      <trkpt lat="47.22957" lon="6.41394">
        <ele>654.40002441406</ele>
        <time>2018-05-01T12:29:38.000Z</time>
      </trkpt>
      <trkpt lat="47.22953" lon="6.41398">
        <ele>654.40002441406</ele>
        <time>2018-05-01T12:29:39.000Z</time>
      </trkpt>
      <trkpt lat="47.2295" lon="6.41404">
        <ele>654.20001220703</ele>
        <time>2018-05-01T12:29:40.000Z</time>
      </trkpt>
      <trkpt lat="47.22943" lon="6.41411">
        <ele>653.79998779297</ele>
        <time>2018-05-01T12:29:42.000Z</time>
      </trkpt>
      <trkpt lat="47.22937" lon="6.41419">
        <ele>653.40002441406</ele>
        <time>2018-05-01T12:29:44.000Z</time>
      </trkpt>
      <trkpt lat="47.22931" lon="6.41427">
        <ele>652.79998779297</ele>
        <time>2018-05-01T12:29:46.000Z</time>
      </trkpt>
      <trkpt lat="47.22928" lon="6.41432">
        <ele>652.40002441406</ele>
        <time>2018-05-01T12:29:47.000Z</time>
      </trkpt>
      <trkpt lat="47.22923" lon="6.41442">
        <ele>651.59997558594</ele>
        <time>2018-05-01T12:29:49.000Z</time>
      </trkpt>
      <trkpt lat="47.22917" lon="6.41452">
        <ele>650.79998779297</ele>
        <time>2018-05-01T12:29:51.000Z</time>
      </trkpt>
      <trkpt lat="47.22914" lon="6.41456">
        <ele>650.40002441406</ele>
        <time>2018-05-01T12:29:52.000Z</time>
      </trkpt>
      <trkpt lat="47.22911" lon="6.41461">
        <ele>650</ele>
        <time>2018-05-01T12:29:53.000Z</time>
      </trkpt>
      <trkpt lat="47.22908" lon="6.41466">
        <ele>649.59997558594</ele>
        <time>2018-05-01T12:29:54.000Z</time>
      </trkpt>
      <trkpt lat="47.22904" lon="6.4147">
        <ele>649</ele>
        <time>2018-05-01T12:29:55.000Z</time>
      </trkpt>
      <trkpt lat="47.229" lon="6.41475">
        <ele>649.20001220703</ele>
        <time>2018-05-01T12:29:56.000Z</time>
      </trkpt>
      <trkpt lat="47.22896" lon="6.4148">
        <ele>650</ele>
        <time>2018-05-01T12:29:57.000Z</time>
      </trkpt>
      <trkpt lat="47.22893" lon="6.41485">
        <ele>650.40002441406</ele>
        <time>2018-05-01T12:29:58.000Z</time>
      </trkpt>
      <trkpt lat="47.2289" lon="6.4149">
        <ele>650.40002441406</ele>
        <time>2018-05-01T12:29:59.000Z</time>
      </trkpt>
      <trkpt lat="47.22883" lon="6.415">
        <ele>650.59997558594</ele>
        <time>2018-05-01T12:30:01.000Z</time>
      </trkpt>
      <trkpt lat="47.22877" lon="6.41511">
        <ele>650.79998779297</ele>
        <time>2018-05-01T12:30:03.000Z</time>
      </trkpt>
      <trkpt lat="47.22871" lon="6.41523">
        <ele>651</ele>
        <time>2018-05-01T12:30:05.000Z</time>
      </trkpt>
      <trkpt lat="47.22862" lon="6.41541">
        <ele>650.59997558594</ele>
        <time>2018-05-01T12:30:08.000Z</time>
      </trkpt>
      <trkpt lat="47.22854" lon="6.41561">
        <ele>650</ele>
        <time>2018-05-01T12:30:11.000Z</time>
      </trkpt>
      <trkpt lat="47.22849" lon="6.41566">
        <ele>650</ele>
        <time>2018-05-01T12:30:12.000Z</time>
      </trkpt>
      <trkpt lat="47.22835" lon="6.4158">
        <ele>650</ele>
        <time>2018-05-01T12:30:15.000Z</time>
      </trkpt>
      <trkpt lat="47.22828" lon="6.41587">
        <ele>650</ele>
        <time>2018-05-01T12:30:17.000Z</time>
      </trkpt>
      <trkpt lat="47.22825" lon="6.41591">
        <ele>649.59997558594</ele>
        <time>2018-05-01T12:30:19.000Z</time>
      </trkpt>
      <trkpt lat="47.22824" lon="6.41593">
        <ele>649.40002441406</ele>
        <time>2018-05-01T12:30:20.000Z</time>
      </trkpt>
      <trkpt lat="47.22822" lon="6.41594">
        <ele>649.20001220703</ele>
        <time>2018-05-01T12:30:21.000Z</time>
      </trkpt>
      <trkpt lat="47.22822" lon="6.41595">
        <ele>649.20001220703</ele>
        <time>2018-05-01T12:30:22.000Z</time>
      </trkpt>
      <trkpt lat="47.22815" lon="6.41603">
        <ele>648.40002441406</ele>
        <time>2018-05-01T12:30:24.000Z</time>
      </trkpt>
      <trkpt lat="47.22801" lon="6.41622">
        <ele>646.59997558594</ele>
        <time>2018-05-01T12:30:28.000Z</time>
      </trkpt>
      <trkpt lat="47.22784" lon="6.41644">
        <ele>646.40002441406</ele>
        <time>2018-05-01T12:30:33.000Z</time>
      </trkpt>
      <trkpt lat="47.22778" lon="6.41657">
        <ele>645.79998779297</ele>
        <time>2018-05-01T12:30:35.000Z</time>
      </trkpt>
      <trkpt lat="47.22775" lon="6.41664">
        <ele>645.20001220703</ele>
        <time>2018-05-01T12:30:36.000Z</time>
      </trkpt>
      <trkpt lat="47.2277" lon="6.41686">
        <ele>644.20001220703</ele>
        <time>2018-05-01T12:30:39.000Z</time>
      </trkpt>
      <trkpt lat="47.2277" lon="6.41693">
        <ele>644</ele>
        <time>2018-05-01T12:30:40.000Z</time>
      </trkpt>
      <trkpt lat="47.22769" lon="6.41701">
        <ele>643.79998779297</ele>
        <time>2018-05-01T12:30:41.000Z</time>
      </trkpt>
      <trkpt lat="47.22769" lon="6.41728">
        <ele>643.20001220703</ele>
        <time>2018-05-01T12:30:45.000Z</time>
      </trkpt>
      <trkpt lat="47.22772" lon="6.41738">
        <ele>643</ele>
        <time>2018-05-01T12:30:47.000Z</time>
      </trkpt>
      <trkpt lat="47.22778" lon="6.41755">
        <ele>642.59997558594</ele>
        <time>2018-05-01T12:30:49.000Z</time>
      </trkpt>
      <trkpt lat="47.22782" lon="6.41772">
        <ele>642</ele>
        <time>2018-05-01T12:30:52.000Z</time>
      </trkpt>
      <trkpt lat="47.22783" lon="6.4178">
        <ele>641.59997558594</ele>
        <time>2018-05-01T12:30:56.000Z</time>
      </trkpt>
      <trkpt lat="47.22783" lon="6.4178">
        <ele>641.59997558594</ele>
        <time>2018-05-01T12:31:01.000Z</time>
      </trkpt>
      <trkpt lat="47.22784" lon="6.41785">
        <ele>641.20001220703</ele>
        <time>2018-05-01T12:31:03.000Z</time>
      </trkpt>
      <trkpt lat="47.22786" lon="6.41797">
        <ele>640.59997558594</ele>
        <time>2018-05-01T12:31:06.000Z</time>
      </trkpt>
      <trkpt lat="47.2279" lon="6.41822">
        <ele>639.59997558594</ele>
        <time>2018-05-01T12:31:11.000Z</time>
      </trkpt>
      <trkpt lat="47.22791" lon="6.41832">
        <ele>639.79998779297</ele>
        <time>2018-05-01T12:31:13.000Z</time>
      </trkpt>
      <trkpt lat="47.22794" lon="6.41851">
        <ele>640</ele>
        <time>2018-05-01T12:31:17.000Z</time>
      </trkpt>
      <trkpt lat="47.22795" lon="6.41855">
        <ele>640</ele>
        <time>2018-05-01T12:31:18.000Z</time>
      </trkpt>
      <trkpt lat="47.22792" lon="6.41866">
        <ele>640.20001220703</ele>
        <time>2018-05-01T12:31:21.000Z</time>
      </trkpt>
      <trkpt lat="47.22788" lon="6.41876">
        <ele>640</ele>
        <time>2018-05-01T12:31:23.000Z</time>
      </trkpt>
      <trkpt lat="47.22783" lon="6.41885">
        <ele>639.79998779297</ele>
        <time>2018-05-01T12:31:25.000Z</time>
      </trkpt>
      <trkpt lat="47.22777" lon="6.41895">
        <ele>639.79998779297</ele>
        <time>2018-05-01T12:31:27.000Z</time>
      </trkpt>
      <trkpt lat="47.22774" lon="6.41899">
        <ele>639.59997558594</ele>
        <time>2018-05-01T12:31:28.000Z</time>
      </trkpt>
      <trkpt lat="47.22772" lon="6.41904">
        <ele>639.59997558594</ele>
        <time>2018-05-01T12:31:29.000Z</time>
      </trkpt>
      <trkpt lat="47.22769" lon="6.41909">
        <ele>639.40002441406</ele>
        <time>2018-05-01T12:31:30.000Z</time>
      </trkpt>
      <trkpt lat="47.22767" lon="6.41914">
        <ele>639.20001220703</ele>
        <time>2018-05-01T12:31:31.000Z</time>
      </trkpt>
      <trkpt lat="47.22762" lon="6.41926">
        <ele>638.79998779297</ele>
        <time>2018-05-01T12:31:33.000Z</time>
      </trkpt>
      <trkpt lat="47.22755" lon="6.41938">
        <ele>638.59997558594</ele>
        <time>2018-05-01T12:31:35.000Z</time>
      </trkpt>
      <trkpt lat="47.2275" lon="6.41949">
        <ele>638.40002441406</ele>
        <time>2018-05-01T12:31:37.000Z</time>
      </trkpt>
      <trkpt lat="47.22746" lon="6.41954">
        <ele>638.40002441406</ele>
        <time>2018-05-01T12:31:38.000Z</time>
      </trkpt>
      <trkpt lat="47.22731" lon="6.41982">
        <ele>635.79998779297</ele>
        <time>2018-05-01T12:31:43.000Z</time>
      </trkpt>
      <trkpt lat="47.22721" lon="6.42003">
        <ele>634</ele>
        <time>2018-05-01T12:31:47.000Z</time>
      </trkpt>
      <trkpt lat="47.22715" lon="6.42015">
        <ele>632.79998779297</ele>
        <time>2018-05-01T12:31:49.000Z</time>
      </trkpt>
      <trkpt lat="47.22713" lon="6.42021">
        <ele>632.40002441406</ele>
        <time>2018-05-01T12:31:50.000Z</time>
      </trkpt>
      <trkpt lat="47.22709" lon="6.42028">
        <ele>631.59997558594</ele>
        <time>2018-05-01T12:31:51.000Z</time>
      </trkpt>
      <trkpt lat="47.22705" lon="6.42035">
        <ele>632</ele>
        <time>2018-05-01T12:31:52.000Z</time>
      </trkpt>
      <trkpt lat="47.227" lon="6.42041">
        <ele>632.59997558594</ele>
        <time>2018-05-01T12:31:53.000Z</time>
      </trkpt>
      <trkpt lat="47.22689" lon="6.4206">
        <ele>634.20001220703</ele>
        <time>2018-05-01T12:31:56.000Z</time>
      </trkpt>
      <trkpt lat="47.22686" lon="6.42065">
        <ele>634.59997558594</ele>
        <time>2018-05-01T12:31:57.000Z</time>
      </trkpt>
      <trkpt lat="47.22683" lon="6.42071">
        <ele>634.59997558594</ele>
        <time>2018-05-01T12:31:58.000Z</time>
      </trkpt>
      <trkpt lat="47.2268" lon="6.42076">
        <ele>634.59997558594</ele>
        <time>2018-05-01T12:31:59.000Z</time>
      </trkpt>
      <trkpt lat="47.22676" lon="6.42087">
        <ele>635.20001220703</ele>
        <time>2018-05-01T12:32:01.000Z</time>
      </trkpt>
      <trkpt lat="47.22671" lon="6.42097">
        <ele>635.79998779297</ele>
        <time>2018-05-01T12:32:03.000Z</time>
      </trkpt>
      <trkpt lat="47.22669" lon="6.42101">
        <ele>636</ele>
        <time>2018-05-01T12:32:04.000Z</time>
      </trkpt>
      <trkpt lat="47.22667" lon="6.42106">
        <ele>636.40002441406</ele>
        <time>2018-05-01T12:32:05.000Z</time>
      </trkpt>
      <trkpt lat="47.22665" lon="6.42111">
        <ele>636.79998779297</ele>
        <time>2018-05-01T12:32:06.000Z</time>
      </trkpt>
      <trkpt lat="47.22663" lon="6.42116">
        <ele>637</ele>
        <time>2018-05-01T12:32:07.000Z</time>
      </trkpt>
      <trkpt lat="47.2266" lon="6.4212">
        <ele>637.20001220703</ele>
        <time>2018-05-01T12:32:08.000Z</time>
      </trkpt>
      <trkpt lat="47.22658" lon="6.42124">
        <ele>637.20001220703</ele>
        <time>2018-05-01T12:32:09.000Z</time>
      </trkpt>
      <trkpt lat="47.22655" lon="6.42125">
        <ele>637</ele>
        <time>2018-05-01T12:32:10.000Z</time>
      </trkpt>
      <trkpt lat="47.22654" lon="6.42127">
        <ele>637</ele>
        <time>2018-05-01T12:32:11.000Z</time>
      </trkpt>
      <trkpt lat="47.22653" lon="6.42129">
        <ele>637</ele>
        <time>2018-05-01T12:32:12.000Z</time>
      </trkpt>
      <trkpt lat="47.22653" lon="6.42128">
        <ele>637</ele>
        <time>2018-05-01T12:32:19.000Z</time>
      </trkpt>
      <trkpt lat="47.22651" lon="6.4213">
        <ele>637</ele>
        <time>2018-05-01T12:32:20.000Z</time>
      </trkpt>
      <trkpt lat="47.22649" lon="6.42131">
        <ele>636.79998779297</ele>
        <time>2018-05-01T12:32:21.000Z</time>
      </trkpt>
      <trkpt lat="47.22644" lon="6.42131">
        <ele>636.40002441406</ele>
        <time>2018-05-01T12:32:23.000Z</time>
      </trkpt>
      <trkpt lat="47.22641" lon="6.4213">
        <ele>636.40002441406</ele>
        <time>2018-05-01T12:32:24.000Z</time>
      </trkpt>
      <trkpt lat="47.22639" lon="6.4213">
        <ele>636.20001220703</ele>
        <time>2018-05-01T12:32:25.000Z</time>
      </trkpt>
      <trkpt lat="47.22633" lon="6.42129">
        <ele>636</ele>
        <time>2018-05-01T12:32:27.000Z</time>
      </trkpt>
      <trkpt lat="47.2263" lon="6.42128">
        <ele>635.79998779297</ele>
        <time>2018-05-01T12:32:28.000Z</time>
      </trkpt>
      <trkpt lat="47.22618" lon="6.42122">
        <ele>635</ele>
        <time>2018-05-01T12:32:32.000Z</time>
      </trkpt>
      <trkpt lat="47.22613" lon="6.42122">
        <ele>634.79998779297</ele>
        <time>2018-05-01T12:32:34.000Z</time>
      </trkpt>
      <trkpt lat="47.22612" lon="6.42122">
        <ele>635</ele>
        <time>2018-05-01T12:32:35.000Z</time>
      </trkpt>
      <trkpt lat="47.22611" lon="6.42123">
        <ele>635</ele>
        <time>2018-05-01T12:32:36.000Z</time>
      </trkpt>
      <trkpt lat="47.2261" lon="6.42124">
        <ele>635.20001220703</ele>
        <time>2018-05-01T12:32:37.000Z</time>
      </trkpt>
      <trkpt lat="47.2261" lon="6.42126">
        <ele>635.40002441406</ele>
        <time>2018-05-01T12:32:38.000Z</time>
      </trkpt>
      <trkpt lat="47.22608" lon="6.4213">
        <ele>635.79998779297</ele>
        <time>2018-05-01T12:32:40.000Z</time>
      </trkpt>
      <trkpt lat="47.22607" lon="6.42132">
        <ele>636.20001220703</ele>
        <time>2018-05-01T12:32:41.000Z</time>
      </trkpt>
      <trkpt lat="47.22605" lon="6.42135">
        <ele>636.59997558594</ele>
        <time>2018-05-01T12:32:42.000Z</time>
      </trkpt>
      <trkpt lat="47.22605" lon="6.42139">
        <ele>637</ele>
        <time>2018-05-01T12:32:43.000Z</time>
      </trkpt>
      <trkpt lat="47.22604" lon="6.42143">
        <ele>637.59997558594</ele>
        <time>2018-05-01T12:32:44.000Z</time>
      </trkpt>
      <trkpt lat="47.22603" lon="6.42147">
        <ele>638</ele>
        <time>2018-05-01T12:32:45.000Z</time>
      </trkpt>
      <trkpt lat="47.22602" lon="6.42154">
        <ele>638.40002441406</ele>
        <time>2018-05-01T12:32:47.000Z</time>
      </trkpt>
      <trkpt lat="47.22599" lon="6.42162">
        <ele>638.79998779297</ele>
        <time>2018-05-01T12:32:49.000Z</time>
      </trkpt>
      <trkpt lat="47.22598" lon="6.42167">
        <ele>638.79998779297</ele>
        <time>2018-05-01T12:32:50.000Z</time>
      </trkpt>
      <trkpt lat="47.22597" lon="6.42171">
        <ele>639</ele>
        <time>2018-05-01T12:32:51.000Z</time>
      </trkpt>
      <trkpt lat="47.22594" lon="6.42181">
        <ele>639.20001220703</ele>
        <time>2018-05-01T12:32:53.000Z</time>
      </trkpt>
      <trkpt lat="47.22594" lon="6.422">
        <ele>639.59997558594</ele>
        <time>2018-05-01T12:32:57.000Z</time>
      </trkpt>
      <trkpt lat="47.22593" lon="6.42205">
        <ele>639.59997558594</ele>
        <time>2018-05-01T12:32:58.000Z</time>
      </trkpt>
      <trkpt lat="47.22592" lon="6.4221">
        <ele>639.79998779297</ele>
        <time>2018-05-01T12:32:59.000Z</time>
      </trkpt>
      <trkpt lat="47.22592" lon="6.42225">
        <ele>640.20001220703</ele>
        <time>2018-05-01T12:33:02.000Z</time>
      </trkpt>
      <trkpt lat="47.22592" lon="6.4223">
        <ele>640.20001220703</ele>
        <time>2018-05-01T12:33:03.000Z</time>
      </trkpt>
      <trkpt lat="47.22591" lon="6.42236">
        <ele>640.20001220703</ele>
        <time>2018-05-01T12:33:04.000Z</time>
      </trkpt>
      <trkpt lat="47.22591" lon="6.42241">
        <ele>640</ele>
        <time>2018-05-01T12:33:05.000Z</time>
      </trkpt>
      <trkpt lat="47.22591" lon="6.42245">
        <ele>640</ele>
        <time>2018-05-01T12:33:06.000Z</time>
      </trkpt>
      <trkpt lat="47.2259" lon="6.42249">
        <ele>640</ele>
        <time>2018-05-01T12:33:07.000Z</time>
      </trkpt>
      <trkpt lat="47.2259" lon="6.42254">
        <ele>639.79998779297</ele>
        <time>2018-05-01T12:33:08.000Z</time>
      </trkpt>
      <trkpt lat="47.22589" lon="6.42258">
        <ele>639.79998779297</ele>
        <time>2018-05-01T12:33:09.000Z</time>
      </trkpt>
      <trkpt lat="47.22589" lon="6.42262">
        <ele>639.79998779297</ele>
        <time>2018-05-01T12:33:10.000Z</time>
      </trkpt>
      <trkpt lat="47.22588" lon="6.42273">
        <ele>639.59997558594</ele>
        <time>2018-05-01T12:33:12.000Z</time>
      </trkpt>
      <trkpt lat="47.22585" lon="6.42278">
        <ele>639.59997558594</ele>
        <time>2018-05-01T12:33:13.000Z</time>
      </trkpt>
      <trkpt lat="47.22581" lon="6.42283">
        <ele>639.40002441406</ele>
        <time>2018-05-01T12:33:15.000Z</time>
      </trkpt>
      <trkpt lat="47.2258" lon="6.42287">
        <ele>639.40002441406</ele>
        <time>2018-05-01T12:33:16.000Z</time>
      </trkpt>
      <trkpt lat="47.22578" lon="6.42289">
        <ele>639.20001220703</ele>
        <time>2018-05-01T12:33:17.000Z</time>
      </trkpt>
      <trkpt lat="47.22577" lon="6.42291">
        <ele>639</ele>
        <time>2018-05-01T12:33:18.000Z</time>
      </trkpt>
      <trkpt lat="47.22575" lon="6.42293">
        <ele>638.79998779297</ele>
        <time>2018-05-01T12:33:19.000Z</time>
      </trkpt>
      <trkpt lat="47.22572" lon="6.42295">
        <ele>638.40002441406</ele>
        <time>2018-05-01T12:33:20.000Z</time>
      </trkpt>
      <trkpt lat="47.22569" lon="6.42298">
        <ele>638</ele>
        <time>2018-05-01T12:33:21.000Z</time>
      </trkpt>
      <trkpt lat="47.22566" lon="6.42307">
        <ele>638.20001220703</ele>
        <time>2018-05-01T12:33:23.000Z</time>
      </trkpt>
      <trkpt lat="47.22566" lon="6.42308">
        <ele>638.59997558594</ele>
        <time>2018-05-01T12:33:27.000Z</time>
      </trkpt>
      <trkpt lat="47.22565" lon="6.4231">
        <ele>638.79998779297</ele>
        <time>2018-05-01T12:33:28.000Z</time>
      </trkpt>
      <trkpt lat="47.22563" lon="6.42314">
        <ele>640</ele>
        <time>2018-05-01T12:33:30.000Z</time>
      </trkpt>
      <trkpt lat="47.22562" lon="6.42318">
        <ele>640.20001220703</ele>
        <time>2018-05-01T12:33:31.000Z</time>
      </trkpt>
      <trkpt lat="47.22561" lon="6.4232">
        <ele>640.40002441406</ele>
        <time>2018-05-01T12:33:32.000Z</time>
      </trkpt>
      <trkpt lat="47.2256" lon="6.42322">
        <ele>640.40002441406</ele>
        <time>2018-05-01T12:33:33.000Z</time>
      </trkpt>
      <trkpt lat="47.22559" lon="6.42325">
        <ele>640.59997558594</ele>
        <time>2018-05-01T12:33:34.000Z</time>
      </trkpt>
      <trkpt lat="47.22558" lon="6.42328">
        <ele>640.59997558594</ele>
        <time>2018-05-01T12:33:35.000Z</time>
      </trkpt>
      <trkpt lat="47.22557" lon="6.42331">
        <ele>640.79998779297</ele>
        <time>2018-05-01T12:33:36.000Z</time>
      </trkpt>
      <trkpt lat="47.22555" lon="6.42333">
        <ele>640.79998779297</ele>
        <time>2018-05-01T12:33:37.000Z</time>
      </trkpt>
      <trkpt lat="47.22555" lon="6.42335">
        <ele>641</ele>
        <time>2018-05-01T12:33:38.000Z</time>
      </trkpt>
      <trkpt lat="47.22553" lon="6.42337">
        <ele>641</ele>
        <time>2018-05-01T12:33:39.000Z</time>
      </trkpt>
      <trkpt lat="47.22553" lon="6.42338">
        <ele>641.20001220703</ele>
        <time>2018-05-01T12:33:40.000Z</time>
      </trkpt>
      <trkpt lat="47.22552" lon="6.4234">
        <ele>641.20001220703</ele>
        <time>2018-05-01T12:33:41.000Z</time>
      </trkpt>
      <trkpt lat="47.22551" lon="6.4234">
        <ele>641.40002441406</ele>
        <time>2018-05-01T12:33:42.000Z</time>
      </trkpt>
      <trkpt lat="47.2255" lon="6.42342">
        <ele>641.40002441406</ele>
        <time>2018-05-01T12:33:43.000Z</time>
      </trkpt>
      <trkpt lat="47.22547" lon="6.42339">
        <ele>641.59997558594</ele>
        <time>2018-05-01T12:33:50.000Z</time>
      </trkpt>
      <trkpt lat="47.22546" lon="6.42336">
        <ele>641.59997558594</ele>
        <time>2018-05-01T12:33:51.000Z</time>
      </trkpt>
      <trkpt lat="47.22541" lon="6.42331">
        <ele>641.79998779297</ele>
        <time>2018-05-01T12:33:53.000Z</time>
      </trkpt>
      <trkpt lat="47.22539" lon="6.42329">
        <ele>642</ele>
        <time>2018-05-01T12:33:54.000Z</time>
      </trkpt>
      <trkpt lat="47.22536" lon="6.42327">
        <ele>642.20001220703</ele>
        <time>2018-05-01T12:33:55.000Z</time>
      </trkpt>
      <trkpt lat="47.22533" lon="6.42325">
        <ele>642.40002441406</ele>
        <time>2018-05-01T12:33:56.000Z</time>
      </trkpt>
      <trkpt lat="47.2253" lon="6.42323">
        <ele>642.59997558594</ele>
        <time>2018-05-01T12:33:57.000Z</time>
      </trkpt>
      <trkpt lat="47.22527" lon="6.4232">
        <ele>642.79998779297</ele>
        <time>2018-05-01T12:33:58.000Z</time>
      </trkpt>
      <trkpt lat="47.22525" lon="6.42318">
        <ele>643</ele>
        <time>2018-05-01T12:33:59.000Z</time>
      </trkpt>
      <trkpt lat="47.22522" lon="6.42314">
        <ele>643</ele>
        <time>2018-05-01T12:34:00.000Z</time>
      </trkpt>
      <trkpt lat="47.2252" lon="6.42311">
        <ele>642.40002441406</ele>
        <time>2018-05-01T12:34:01.000Z</time>
      </trkpt>
      <trkpt lat="47.22518" lon="6.42308">
        <ele>642</ele>
        <time>2018-05-01T12:34:02.000Z</time>
      </trkpt>
      <trkpt lat="47.22514" lon="6.42305">
        <ele>641.59997558594</ele>
        <time>2018-05-01T12:34:03.000Z</time>
      </trkpt>
      <trkpt lat="47.22511" lon="6.42301">
        <ele>641.20001220703</ele>
        <time>2018-05-01T12:34:04.000Z</time>
      </trkpt>
      <trkpt lat="47.22507" lon="6.42299">
        <ele>641</ele>
        <time>2018-05-01T12:34:05.000Z</time>
      </trkpt>
      <trkpt lat="47.22503" lon="6.42295">
        <ele>640.40002441406</ele>
        <time>2018-05-01T12:34:06.000Z</time>
      </trkpt>
      <trkpt lat="47.225" lon="6.42293">
        <ele>640.40002441406</ele>
        <time>2018-05-01T12:34:07.000Z</time>
      </trkpt>
      <trkpt lat="47.22496" lon="6.4229">
        <ele>640</ele>
        <time>2018-05-01T12:34:08.000Z</time>
      </trkpt>
      <trkpt lat="47.22491" lon="6.42287">
        <ele>639.59997558594</ele>
        <time>2018-05-01T12:34:09.000Z</time>
      </trkpt>
      <trkpt lat="47.22487" lon="6.42284">
        <ele>639.20001220703</ele>
        <time>2018-05-01T12:34:10.000Z</time>
      </trkpt>
      <trkpt lat="47.22482" lon="6.4228">
        <ele>638.59997558594</ele>
        <time>2018-05-01T12:34:11.000Z</time>
      </trkpt>
      <trkpt lat="47.22478" lon="6.42277">
        <ele>638</ele>
        <time>2018-05-01T12:34:12.000Z</time>
      </trkpt>
      <trkpt lat="47.22473" lon="6.42274">
        <ele>637.59997558594</ele>
        <time>2018-05-01T12:34:13.000Z</time>
      </trkpt>
      <trkpt lat="47.22465" lon="6.42266">
        <ele>636.20001220703</ele>
        <time>2018-05-01T12:34:15.000Z</time>
      </trkpt>
      <trkpt lat="47.22451" lon="6.42255">
        <ele>634.40002441406</ele>
        <time>2018-05-01T12:34:18.000Z</time>
      </trkpt>
      <trkpt lat="47.2244" lon="6.42246">
        <ele>633.20001220703</ele>
        <time>2018-05-01T12:34:20.000Z</time>
      </trkpt>
      <trkpt lat="47.22424" lon="6.42234">
        <ele>631.20001220703</ele>
        <time>2018-05-01T12:34:23.000Z</time>
      </trkpt>
      <trkpt lat="47.22418" lon="6.4223">
        <ele>630.20001220703</ele>
        <time>2018-05-01T12:34:24.000Z</time>
      </trkpt>
      <trkpt lat="47.22408" lon="6.42223">
        <ele>629.79998779297</ele>
        <time>2018-05-01T12:34:26.000Z</time>
      </trkpt>
      <trkpt lat="47.22399" lon="6.42213">
        <ele>629.59997558594</ele>
        <time>2018-05-01T12:34:28.000Z</time>
      </trkpt>
      <trkpt lat="47.2239" lon="6.42204">
        <ele>629.40002441406</ele>
        <time>2018-05-01T12:34:30.000Z</time>
      </trkpt>
      <trkpt lat="47.22384" lon="6.42191">
        <ele>627.79998779297</ele>
        <time>2018-05-01T12:34:32.000Z</time>
      </trkpt>
      <trkpt lat="47.22381" lon="6.42181">
        <ele>625.79998779297</ele>
        <time>2018-05-01T12:34:34.000Z</time>
      </trkpt>
      <trkpt lat="47.22381" lon="6.42169">
        <ele>622.59997558594</ele>
        <time>2018-05-01T12:34:37.000Z</time>
      </trkpt>
      <trkpt lat="47.22381" lon="6.42166">
        <ele>621.79998779297</ele>
        <time>2018-05-01T12:34:38.000Z</time>
      </trkpt>
      <trkpt lat="47.2238" lon="6.4216">
        <ele>620.40002441406</ele>
        <time>2018-05-01T12:34:40.000Z</time>
      </trkpt>
      <trkpt lat="47.22377" lon="6.42154">
        <ele>619.59997558594</ele>
        <time>2018-05-01T12:34:42.000Z</time>
      </trkpt>
      <trkpt lat="47.22376" lon="6.42146">
        <ele>618.20001220703</ele>
        <time>2018-05-01T12:34:45.000Z</time>
      </trkpt>
      <trkpt lat="47.22376" lon="6.42144">
        <ele>618</ele>
        <time>2018-05-01T12:34:46.000Z</time>
      </trkpt>
      <trkpt lat="47.22371" lon="6.42125">
        <ele>618.59997558594</ele>
        <time>2018-05-01T12:34:51.000Z</time>
      </trkpt>
      <trkpt lat="47.22369" lon="6.421">
        <ele>617.20001220703</ele>
        <time>2018-05-01T12:34:56.000Z</time>
      </trkpt>
      <trkpt lat="47.22369" lon="6.42094">
        <ele>615.40002441406</ele>
        <time>2018-05-01T12:34:57.000Z</time>
      </trkpt>
      <trkpt lat="47.22368" lon="6.42073">
        <ele>610.79998779297</ele>
        <time>2018-05-01T12:35:00.000Z</time>
      </trkpt>
      <trkpt lat="47.22368" lon="6.42066">
        <ele>609.59997558594</ele>
        <time>2018-05-01T12:35:01.000Z</time>
      </trkpt>
      <trkpt lat="47.22365" lon="6.4205">
        <ele>609.79998779297</ele>
        <time>2018-05-01T12:35:05.000Z</time>
      </trkpt>
      <trkpt lat="47.22363" lon="6.42035">
        <ele>610.20001220703</ele>
        <time>2018-05-01T12:35:10.000Z</time>
      </trkpt>
      <trkpt lat="47.2236" lon="6.42025">
        <ele>611.20001220703</ele>
        <time>2018-05-01T12:35:13.000Z</time>
      </trkpt>
      <trkpt lat="47.22359" lon="6.42021">
        <ele>611.59997558594</ele>
        <time>2018-05-01T12:35:14.000Z</time>
      </trkpt>
      <trkpt lat="47.22356" lon="6.42013">
        <ele>612.40002441406</ele>
        <time>2018-05-01T12:35:16.000Z</time>
      </trkpt>
      <trkpt lat="47.22352" lon="6.42002">
        <ele>613.59997558594</ele>
        <time>2018-05-01T12:35:19.000Z</time>
      </trkpt>
      <trkpt lat="47.22348" lon="6.41991">
        <ele>615</ele>
        <time>2018-05-01T12:35:22.000Z</time>
      </trkpt>
      <trkpt lat="47.22341" lon="6.41974">
        <ele>616.59997558594</ele>
        <time>2018-05-01T12:35:26.000Z</time>
      </trkpt>
      <trkpt lat="47.22339" lon="6.41969">
        <ele>616.79998779297</ele>
        <time>2018-05-01T12:35:27.000Z</time>
      </trkpt>
      <trkpt lat="47.22328" lon="6.41937">
        <ele>617.20001220703</ele>
        <time>2018-05-01T12:35:33.000Z</time>
      </trkpt>
      <trkpt lat="47.22312" lon="6.41903">
        <ele>616.40002441406</ele>
        <time>2018-05-01T12:35:40.000Z</time>
      </trkpt>
      <trkpt lat="47.22296" lon="6.41869">
        <ele>611</ele>
        <time>2018-05-01T12:35:47.000Z</time>
      </trkpt>
      <trkpt lat="47.22293" lon="6.41864">
        <ele>610.59997558594</ele>
        <time>2018-05-01T12:35:48.000Z</time>
      </trkpt>
      <trkpt lat="47.2229" lon="6.41859">
        <ele>610</ele>
        <time>2018-05-01T12:35:49.000Z</time>
      </trkpt>
      <trkpt lat="47.22283" lon="6.41848">
        <ele>608.59997558594</ele>
        <time>2018-05-01T12:35:51.000Z</time>
      </trkpt>
      <trkpt lat="47.22279" lon="6.41843">
        <ele>608.40002441406</ele>
        <time>2018-05-01T12:35:52.000Z</time>
      </trkpt>
      <trkpt lat="47.22274" lon="6.41838">
        <ele>608.20001220703</ele>
        <time>2018-05-01T12:35:53.000Z</time>
      </trkpt>
      <trkpt lat="47.22264" lon="6.41828">
        <ele>608</ele>
        <time>2018-05-01T12:35:55.000Z</time>
      </trkpt>
      <trkpt lat="47.2226" lon="6.41825">
        <ele>608</ele>
        <time>2018-05-01T12:35:56.000Z</time>
      </trkpt>
      <trkpt lat="47.22255" lon="6.41821">
        <ele>608.20001220703</ele>
        <time>2018-05-01T12:35:57.000Z</time>
      </trkpt>
      <trkpt lat="47.2225" lon="6.41818">
        <ele>608.59997558594</ele>
        <time>2018-05-01T12:35:58.000Z</time>
      </trkpt>
      <trkpt lat="47.22245" lon="6.41815">
        <ele>608.79998779297</ele>
        <time>2018-05-01T12:35:59.000Z</time>
      </trkpt>
      <trkpt lat="47.22239" lon="6.41812">
        <ele>608</ele>
        <time>2018-05-01T12:36:00.000Z</time>
      </trkpt>
      <trkpt lat="47.22234" lon="6.4181">
        <ele>607.20001220703</ele>
        <time>2018-05-01T12:36:01.000Z</time>
      </trkpt>
      <trkpt lat="47.22229" lon="6.41809">
        <ele>606.59997558594</ele>
        <time>2018-05-01T12:36:02.000Z</time>
      </trkpt>
      <trkpt lat="47.22224" lon="6.41808">
        <ele>606.20001220703</ele>
        <time>2018-05-01T12:36:03.000Z</time>
      </trkpt>
      <trkpt lat="47.22214" lon="6.41808">
        <ele>605.79998779297</ele>
        <time>2018-05-01T12:36:05.000Z</time>
      </trkpt>
      <trkpt lat="47.22204" lon="6.41808">
        <ele>605.59997558594</ele>
        <time>2018-05-01T12:36:07.000Z</time>
      </trkpt>
      <trkpt lat="47.22199" lon="6.41808">
        <ele>605.59997558594</ele>
        <time>2018-05-01T12:36:08.000Z</time>
      </trkpt>
      <trkpt lat="47.22194" lon="6.41809">
        <ele>605.79998779297</ele>
        <time>2018-05-01T12:36:09.000Z</time>
      </trkpt>
      <trkpt lat="47.22185" lon="6.4181">
        <ele>605.79998779297</ele>
        <time>2018-05-01T12:36:11.000Z</time>
      </trkpt>
      <trkpt lat="47.22176" lon="6.41811">
        <ele>606</ele>
        <time>2018-05-01T12:36:13.000Z</time>
      </trkpt>
      <trkpt lat="47.22171" lon="6.41812">
        <ele>606.20001220703</ele>
        <time>2018-05-01T12:36:14.000Z</time>
      </trkpt>
      <trkpt lat="47.22166" lon="6.41814">
        <ele>606.79998779297</ele>
        <time>2018-05-01T12:36:15.000Z</time>
      </trkpt>
      <trkpt lat="47.22159" lon="6.41816">
        <ele>606.40002441406</ele>
        <time>2018-05-01T12:36:17.000Z</time>
      </trkpt>
      <trkpt lat="47.22155" lon="6.41816">
        <ele>606</ele>
        <time>2018-05-01T12:36:18.000Z</time>
      </trkpt>
      <trkpt lat="47.22152" lon="6.41816">
        <ele>605.40002441406</ele>
        <time>2018-05-01T12:36:19.000Z</time>
      </trkpt>
      <trkpt lat="47.22146" lon="6.41817">
        <ele>604.40002441406</ele>
        <time>2018-05-01T12:36:21.000Z</time>
      </trkpt>
      <trkpt lat="47.22141" lon="6.41818">
        <ele>603.59997558594</ele>
        <time>2018-05-01T12:36:23.000Z</time>
      </trkpt>
      <trkpt lat="47.22138" lon="6.41818">
        <ele>603.20001220703</ele>
        <time>2018-05-01T12:36:24.000Z</time>
      </trkpt>
      <trkpt lat="47.22134" lon="6.41818">
        <ele>602.59997558594</ele>
        <time>2018-05-01T12:36:25.000Z</time>
      </trkpt>
      <trkpt lat="47.22127" lon="6.41819">
        <ele>601.59997558594</ele>
        <time>2018-05-01T12:36:27.000Z</time>
      </trkpt>
      <trkpt lat="47.22123" lon="6.41819">
        <ele>600.59997558594</ele>
        <time>2018-05-01T12:36:28.000Z</time>
      </trkpt>
      <trkpt lat="47.22118" lon="6.4182">
        <ele>600</ele>
        <time>2018-05-01T12:36:29.000Z</time>
      </trkpt>
      <trkpt lat="47.22113" lon="6.41822">
        <ele>599.59997558594</ele>
        <time>2018-05-01T12:36:30.000Z</time>
      </trkpt>
      <trkpt lat="47.22107" lon="6.41823">
        <ele>598.59997558594</ele>
        <time>2018-05-01T12:36:31.000Z</time>
      </trkpt>
      <trkpt lat="47.22096" lon="6.41823">
        <ele>596.79998779297</ele>
        <time>2018-05-01T12:36:33.000Z</time>
      </trkpt>
      <trkpt lat="47.22086" lon="6.41825">
        <ele>595.40002441406</ele>
        <time>2018-05-01T12:36:35.000Z</time>
      </trkpt>
      <trkpt lat="47.22074" lon="6.41826">
        <ele>593.59997558594</ele>
        <time>2018-05-01T12:36:37.000Z</time>
      </trkpt>
      <trkpt lat="47.22063" lon="6.41829">
        <ele>591.40002441406</ele>
        <time>2018-05-01T12:36:39.000Z</time>
      </trkpt>
      <trkpt lat="47.22057" lon="6.4183">
        <ele>590</ele>
        <time>2018-05-01T12:36:41.000Z</time>
      </trkpt>
      <trkpt lat="47.22054" lon="6.4183">
        <ele>589.20001220703</ele>
        <time>2018-05-01T12:36:42.000Z</time>
      </trkpt>
      <trkpt lat="47.22047" lon="6.41833">
        <ele>588.79998779297</ele>
        <time>2018-05-01T12:36:44.000Z</time>
      </trkpt>
      <trkpt lat="47.2204" lon="6.41838">
        <ele>588.59997558594</ele>
        <time>2018-05-01T12:36:46.000Z</time>
      </trkpt>
      <trkpt lat="47.22037" lon="6.41839">
        <ele>588</ele>
        <time>2018-05-01T12:36:47.000Z</time>
      </trkpt>
      <trkpt lat="47.22035" lon="6.41838">
        <ele>587.20001220703</ele>
        <time>2018-05-01T12:36:48.000Z</time>
      </trkpt>
      <trkpt lat="47.22032" lon="6.41841">
        <ele>587.40002441406</ele>
        <time>2018-05-01T12:36:49.000Z</time>
      </trkpt>
      <trkpt lat="47.22031" lon="6.41842">
        <ele>587.40002441406</ele>
        <time>2018-05-01T12:36:50.000Z</time>
      </trkpt>
      <trkpt lat="47.22032" lon="6.41842">
        <ele>587.59997558594</ele>
        <time>2018-05-01T12:36:51.000Z</time>
      </trkpt>
      <trkpt lat="47.22033" lon="6.41841">
        <ele>587.40002441406</ele>
        <time>2018-05-01T12:36:52.000Z</time>
      </trkpt>
      <trkpt lat="47.22035" lon="6.41838">
        <ele>587</ele>
        <time>2018-05-01T12:36:53.000Z</time>
      </trkpt>
      <trkpt lat="47.22037" lon="6.41835">
        <ele>586.79998779297</ele>
        <time>2018-05-01T12:36:54.000Z</time>
      </trkpt>
      <trkpt lat="47.22039" lon="6.41832">
        <ele>586.20001220703</ele>
        <time>2018-05-01T12:36:55.000Z</time>
      </trkpt>
      <trkpt lat="47.2204" lon="6.41827">
        <ele>584.59997558594</ele>
        <time>2018-05-01T12:36:56.000Z</time>
      </trkpt>
      <trkpt lat="47.2204" lon="6.41821">
        <ele>582.79998779297</ele>
        <time>2018-05-01T12:36:57.000Z</time>
      </trkpt>
      <trkpt lat="47.22039" lon="6.41818">
        <ele>581.40002441406</ele>
        <time>2018-05-01T12:36:58.000Z</time>
      </trkpt>
      <trkpt lat="47.22037" lon="6.41815">
        <ele>580</ele>
        <time>2018-05-01T12:37:00.000Z</time>
      </trkpt>
      <trkpt lat="47.22036" lon="6.41811">
        <ele>578.79998779297</ele>
        <time>2018-05-01T12:37:01.000Z</time>
      </trkpt>
      <trkpt lat="47.22035" lon="6.41809">
        <ele>578</ele>
        <time>2018-05-01T12:37:05.000Z</time>
      </trkpt>
      <trkpt lat="47.22035" lon="6.41809">
        <ele>578</ele>
        <time>2018-05-01T12:37:17.000Z</time>
      </trkpt>
      <trkpt lat="47.22035" lon="6.41809">
        <ele>578</ele>
        <time>2018-05-01T12:37:37.000Z</time>
      </trkpt>
      <trkpt lat="47.22035" lon="6.41808">
        <ele>577.79998779297</ele>
        <time>2018-05-01T12:37:43.000Z</time>
      </trkpt>
      <trkpt lat="47.22035" lon="6.41808">
        <ele>577.79998779297</ele>
        <time>2018-05-01T12:37:45.000Z</time>
      </trkpt>
      <trkpt lat="47.22035" lon="6.41808">
        <ele>577.79998779297</ele>
        <time>2018-05-01T12:37:57.000Z</time>
      </trkpt>
      <trkpt lat="47.22035" lon="6.41808">
        <ele>577.79998779297</ele>
        <time>2018-05-01T12:38:07.000Z</time>
      </trkpt>
      <trkpt lat="47.22035" lon="6.41808">
        <ele>577.79998779297</ele>
        <time>2018-05-01T12:38:20.000Z</time>
      </trkpt>
      <trkpt lat="47.22035" lon="6.41808">
        <ele>577.59997558594</ele>
        <time>2018-05-01T12:38:32.000Z</time>
      </trkpt>
      <trkpt lat="47.22035" lon="6.41808">
        <ele>577.59997558594</ele>
        <time>2018-05-01T12:38:50.000Z</time>
      </trkpt>
      <trkpt lat="47.22035" lon="6.41808">
        <ele>577.59997558594</ele>
        <time>2018-05-01T12:39:00.000Z</time>
      </trkpt>
      <trkpt lat="47.22035" lon="6.41808">
        <ele>577.79998779297</ele>
        <time>2018-05-01T12:39:08.000Z</time>
      </trkpt>
      <trkpt lat="47.22028" lon="6.41812">
        <ele>576.79998779297</ele>
        <time>2018-05-01T12:39:12.000Z</time>
      </trkpt>
      <trkpt lat="47.22022" lon="6.41817">
        <ele>576.40002441406</ele>
        <time>2018-05-01T12:39:14.000Z</time>
      </trkpt>
      <trkpt lat="47.22015" lon="6.4182">
        <ele>576</ele>
        <time>2018-05-01T12:39:16.000Z</time>
      </trkpt>
      <trkpt lat="47.22" lon="6.4183">
        <ele>575.20001220703</ele>
        <time>2018-05-01T12:39:20.000Z</time>
      </trkpt>
      <trkpt lat="47.21996" lon="6.41832">
        <ele>575</ele>
        <time>2018-05-01T12:39:21.000Z</time>
      </trkpt>
      <trkpt lat="47.21988" lon="6.41837">
        <ele>575</ele>
        <time>2018-05-01T12:39:23.000Z</time>
      </trkpt>
      <trkpt lat="47.21984" lon="6.41841">
        <ele>575.40002441406</ele>
        <time>2018-05-01T12:39:24.000Z</time>
      </trkpt>
      <trkpt lat="47.21976" lon="6.41847">
        <ele>576</ele>
        <time>2018-05-01T12:39:26.000Z</time>
      </trkpt>
      <trkpt lat="47.21972" lon="6.4185">
        <ele>576.40002441406</ele>
        <time>2018-05-01T12:39:27.000Z</time>
      </trkpt>
      <trkpt lat="47.21959" lon="6.41862">
        <ele>578</ele>
        <time>2018-05-01T12:39:30.000Z</time>
      </trkpt>
      <trkpt lat="47.21946" lon="6.41872">
        <ele>575</ele>
        <time>2018-05-01T12:39:33.000Z</time>
      </trkpt>
      <trkpt lat="47.21919" lon="6.419">
        <ele>569.79998779297</ele>
        <time>2018-05-01T12:39:40.000Z</time>
      </trkpt>
      <trkpt lat="47.21905" lon="6.41915">
        <ele>570.40002441406</ele>
        <time>2018-05-01T12:39:43.000Z</time>
      </trkpt>
      <trkpt lat="47.2189" lon="6.41932">
        <ele>572.40002441406</ele>
        <time>2018-05-01T12:39:46.000Z</time>
      </trkpt>
      <trkpt lat="47.2188" lon="6.41944">
        <ele>573.59997558594</ele>
        <time>2018-05-01T12:39:48.000Z</time>
      </trkpt>
      <trkpt lat="47.21865" lon="6.41963">
        <ele>571.40002441406</ele>
        <time>2018-05-01T12:39:51.000Z</time>
      </trkpt>
      <trkpt lat="47.21835" lon="6.42005">
        <ele>567.20001220703</ele>
        <time>2018-05-01T12:39:57.000Z</time>
      </trkpt>
      <trkpt lat="47.2182" lon="6.42023">
        <ele>567.79998779297</ele>
        <time>2018-05-01T12:40:00.000Z</time>
      </trkpt>
      <trkpt lat="47.21805" lon="6.42043">
        <ele>570</ele>
        <time>2018-05-01T12:40:03.000Z</time>
      </trkpt>
      <trkpt lat="47.2179" lon="6.42061">
        <ele>567.59997558594</ele>
        <time>2018-05-01T12:40:06.000Z</time>
      </trkpt>
      <trkpt lat="47.21782" lon="6.42069">
        <ele>566.59997558594</ele>
        <time>2018-05-01T12:40:08.000Z</time>
      </trkpt>
      <trkpt lat="47.21772" lon="6.42077">
        <ele>566.59997558594</ele>
        <time>2018-05-01T12:40:11.000Z</time>
      </trkpt>
      <trkpt lat="47.21769" lon="6.42082">
        <ele>567.79998779297</ele>
        <time>2018-05-01T12:40:12.000Z</time>
      </trkpt>
      <trkpt lat="47.21764" lon="6.42098">
        <ele>569.59997558594</ele>
        <time>2018-05-01T12:40:15.000Z</time>
      </trkpt>
      <trkpt lat="47.2176" lon="6.42112">
        <ele>570.20001220703</ele>
        <time>2018-05-01T12:40:18.000Z</time>
      </trkpt>
      <trkpt lat="47.21754" lon="6.42126">
        <ele>570.40002441406</ele>
        <time>2018-05-01T12:40:21.000Z</time>
      </trkpt>
      <trkpt lat="47.21748" lon="6.42136">
        <ele>570</ele>
        <time>2018-05-01T12:40:23.000Z</time>
      </trkpt>
      <trkpt lat="47.21746" lon="6.4214">
        <ele>569.59997558594</ele>
        <time>2018-05-01T12:40:24.000Z</time>
      </trkpt>
      <trkpt lat="47.21743" lon="6.42145">
        <ele>570.40002441406</ele>
        <time>2018-05-01T12:40:25.000Z</time>
      </trkpt>
      <trkpt lat="47.21739" lon="6.42155">
        <ele>570.79998779297</ele>
        <time>2018-05-01T12:40:27.000Z</time>
      </trkpt>
      <trkpt lat="47.21737" lon="6.42159">
        <ele>571.20001220703</ele>
        <time>2018-05-01T12:40:28.000Z</time>
      </trkpt>
      <trkpt lat="47.21734" lon="6.42172">
        <ele>572.59997558594</ele>
        <time>2018-05-01T12:40:31.000Z</time>
      </trkpt>
      <trkpt lat="47.21731" lon="6.42179">
        <ele>573.40002441406</ele>
        <time>2018-05-01T12:40:33.000Z</time>
      </trkpt>
      <trkpt lat="47.2173" lon="6.42183">
        <ele>573.79998779297</ele>
        <time>2018-05-01T12:40:34.000Z</time>
      </trkpt>
      <trkpt lat="47.21727" lon="6.42196">
        <ele>575.40002441406</ele>
        <time>2018-05-01T12:40:37.000Z</time>
      </trkpt>
      <trkpt lat="47.21725" lon="6.42203">
        <ele>576.20001220703</ele>
        <time>2018-05-01T12:40:39.000Z</time>
      </trkpt>
      <trkpt lat="47.21725" lon="6.42208">
        <ele>577</ele>
        <time>2018-05-01T12:40:40.000Z</time>
      </trkpt>
      <trkpt lat="47.21723" lon="6.42217">
        <ele>577.40002441406</ele>
        <time>2018-05-01T12:40:42.000Z</time>
      </trkpt>
      <trkpt lat="47.21722" lon="6.42222">
        <ele>577.40002441406</ele>
        <time>2018-05-01T12:40:43.000Z</time>
      </trkpt>
      <trkpt lat="47.21721" lon="6.42226">
        <ele>577.20001220703</ele>
        <time>2018-05-01T12:40:44.000Z</time>
      </trkpt>
      <trkpt lat="47.2172" lon="6.42234">
        <ele>577.40002441406</ele>
        <time>2018-05-01T12:40:46.000Z</time>
      </trkpt>
      <trkpt lat="47.21718" lon="6.42238">
        <ele>577.59997558594</ele>
        <time>2018-05-01T12:40:47.000Z</time>
      </trkpt>
      <trkpt lat="47.21716" lon="6.42246">
        <ele>578.20001220703</ele>
        <time>2018-05-01T12:40:49.000Z</time>
      </trkpt>
      <trkpt lat="47.21714" lon="6.42251">
        <ele>578.20001220703</ele>
        <time>2018-05-01T12:40:50.000Z</time>
      </trkpt>
      <trkpt lat="47.21712" lon="6.42255">
        <ele>578.40002441406</ele>
        <time>2018-05-01T12:40:51.000Z</time>
      </trkpt>
      <trkpt lat="47.21711" lon="6.42259">
        <ele>578.59997558594</ele>
        <time>2018-05-01T12:40:52.000Z</time>
      </trkpt>
      <trkpt lat="47.21709" lon="6.42268">
        <ele>579.59997558594</ele>
        <time>2018-05-01T12:40:54.000Z</time>
      </trkpt>
      <trkpt lat="47.21708" lon="6.42272">
        <ele>580</ele>
        <time>2018-05-01T12:40:55.000Z</time>
      </trkpt>
      <trkpt lat="47.21708" lon="6.42277">
        <ele>580.79998779297</ele>
        <time>2018-05-01T12:40:56.000Z</time>
      </trkpt>
      <trkpt lat="47.21707" lon="6.42282">
        <ele>580.79998779297</ele>
        <time>2018-05-01T12:40:57.000Z</time>
      </trkpt>
      <trkpt lat="47.21706" lon="6.42291">
        <ele>580.79998779297</ele>
        <time>2018-05-01T12:40:59.000Z</time>
      </trkpt>
      <trkpt lat="47.21705" lon="6.42304">
        <ele>581.20001220703</ele>
        <time>2018-05-01T12:41:01.000Z</time>
      </trkpt>
      <trkpt lat="47.21704" lon="6.42309">
        <ele>580.79998779297</ele>
        <time>2018-05-01T12:41:02.000Z</time>
      </trkpt>
      <trkpt lat="47.21704" lon="6.42315">
        <ele>581</ele>
        <time>2018-05-01T12:41:03.000Z</time>
      </trkpt>
      <trkpt lat="47.21703" lon="6.42321">
        <ele>581</ele>
        <time>2018-05-01T12:41:04.000Z</time>
      </trkpt>
      <trkpt lat="47.21703" lon="6.42327">
        <ele>581.20001220703</ele>
        <time>2018-05-01T12:41:05.000Z</time>
      </trkpt>
      <trkpt lat="47.21702" lon="6.42333">
        <ele>581.20001220703</ele>
        <time>2018-05-01T12:41:06.000Z</time>
      </trkpt>
      <trkpt lat="47.21702" lon="6.42338">
        <ele>581.40002441406</ele>
        <time>2018-05-01T12:41:07.000Z</time>
      </trkpt>
      <trkpt lat="47.21701" lon="6.42343">
        <ele>581.79998779297</ele>
        <time>2018-05-01T12:41:08.000Z</time>
      </trkpt>
      <trkpt lat="47.21702" lon="6.42348">
        <ele>582.20001220703</ele>
        <time>2018-05-01T12:41:09.000Z</time>
      </trkpt>
      <trkpt lat="47.21702" lon="6.4236">
        <ele>582.79998779297</ele>
        <time>2018-05-01T12:41:11.000Z</time>
      </trkpt>
      <trkpt lat="47.21703" lon="6.42371">
        <ele>583.79998779297</ele>
        <time>2018-05-01T12:41:13.000Z</time>
      </trkpt>
      <trkpt lat="47.21704" lon="6.42375">
        <ele>584.40002441406</ele>
        <time>2018-05-01T12:41:14.000Z</time>
      </trkpt>
      <trkpt lat="47.21703" lon="6.42381">
        <ele>584.20001220703</ele>
        <time>2018-05-01T12:41:15.000Z</time>
      </trkpt>
      <trkpt lat="47.21703" lon="6.42388">
        <ele>584.20001220703</ele>
        <time>2018-05-01T12:41:16.000Z</time>
      </trkpt>
      <trkpt lat="47.21702" lon="6.42393">
        <ele>584.20001220703</ele>
        <time>2018-05-01T12:41:17.000Z</time>
      </trkpt>
      <trkpt lat="47.21702" lon="6.42397">
        <ele>584.20001220703</ele>
        <time>2018-05-01T12:41:18.000Z</time>
      </trkpt>
      <trkpt lat="47.21701" lon="6.42404">
        <ele>583.79998779297</ele>
        <time>2018-05-01T12:41:19.000Z</time>
      </trkpt>
      <trkpt lat="47.21701" lon="6.42409">
        <ele>584</ele>
        <time>2018-05-01T12:41:20.000Z</time>
      </trkpt>
      <trkpt lat="47.21703" lon="6.42417">
        <ele>585</ele>
        <time>2018-05-01T12:41:22.000Z</time>
      </trkpt>
      <trkpt lat="47.21703" lon="6.42421">
        <ele>585.20001220703</ele>
        <time>2018-05-01T12:41:23.000Z</time>
      </trkpt>
      <trkpt lat="47.21702" lon="6.42431">
        <ele>585.20001220703</ele>
        <time>2018-05-01T12:41:26.000Z</time>
      </trkpt>
      <trkpt lat="47.21702" lon="6.42434">
        <ele>585</ele>
        <time>2018-05-01T12:41:27.000Z</time>
      </trkpt>
      <trkpt lat="47.21701" lon="6.42441">
        <ele>584.59997558594</ele>
        <time>2018-05-01T12:41:29.000Z</time>
      </trkpt>
      <trkpt lat="47.21702" lon="6.42447">
        <ele>585</ele>
        <time>2018-05-01T12:41:32.000Z</time>
      </trkpt>
      <trkpt lat="47.21703" lon="6.42454">
        <ele>585.59997558594</ele>
        <time>2018-05-01T12:41:34.000Z</time>
      </trkpt>
      <trkpt lat="47.21703" lon="6.42464">
        <ele>585.59997558594</ele>
        <time>2018-05-01T12:41:37.000Z</time>
      </trkpt>
      <trkpt lat="47.21704" lon="6.4247">
        <ele>586</ele>
        <time>2018-05-01T12:41:39.000Z</time>
      </trkpt>
      <trkpt lat="47.21705" lon="6.42473">
        <ele>586.20001220703</ele>
        <time>2018-05-01T12:41:40.000Z</time>
      </trkpt>
      <trkpt lat="47.21705" lon="6.42478">
        <ele>586.20001220703</ele>
        <time>2018-05-01T12:41:42.000Z</time>
      </trkpt>
      <trkpt lat="47.21705" lon="6.42482">
        <ele>586.40002441406</ele>
        <time>2018-05-01T12:41:43.000Z</time>
      </trkpt>
      <trkpt lat="47.21706" lon="6.42486">
        <ele>586.40002441406</ele>
        <time>2018-05-01T12:41:44.000Z</time>
      </trkpt>
      <trkpt lat="47.21706" lon="6.42489">
        <ele>586.59997558594</ele>
        <time>2018-05-01T12:41:45.000Z</time>
      </trkpt>
      <trkpt lat="47.21707" lon="6.42494">
        <ele>587</ele>
        <time>2018-05-01T12:41:47.000Z</time>
      </trkpt>
      <trkpt lat="47.21708" lon="6.42496">
        <ele>587.40002441406</ele>
        <time>2018-05-01T12:41:48.000Z</time>
      </trkpt>
      <trkpt lat="47.21709" lon="6.42499">
        <ele>587.79998779297</ele>
        <time>2018-05-01T12:41:49.000Z</time>
      </trkpt>
      <trkpt lat="47.21709" lon="6.42501">
        <ele>588</ele>
        <time>2018-05-01T12:41:50.000Z</time>
      </trkpt>
      <trkpt lat="47.21712" lon="6.42507">
        <ele>589.20001220703</ele>
        <time>2018-05-01T12:41:52.000Z</time>
      </trkpt>
      <trkpt lat="47.21713" lon="6.42515">
        <ele>589.79998779297</ele>
        <time>2018-05-01T12:41:54.000Z</time>
      </trkpt>
      <trkpt lat="47.21714" lon="6.42518">
        <ele>590.20001220703</ele>
        <time>2018-05-01T12:41:55.000Z</time>
      </trkpt>
      <trkpt lat="47.21715" lon="6.42539">
        <ele>590.79998779297</ele>
        <time>2018-05-01T12:42:01.000Z</time>
      </trkpt>
      <trkpt lat="47.21717" lon="6.4254">
        <ele>591.20001220703</ele>
        <time>2018-05-01T12:42:02.000Z</time>
      </trkpt>
      <trkpt lat="47.21716" lon="6.42543">
        <ele>591</ele>
        <time>2018-05-01T12:42:03.000Z</time>
      </trkpt>
      <trkpt lat="47.21716" lon="6.42551">
        <ele>591.20001220703</ele>
        <time>2018-05-01T12:42:06.000Z</time>
      </trkpt>
      <trkpt lat="47.21717" lon="6.42554">
        <ele>591.59997558594</ele>
        <time>2018-05-01T12:42:07.000Z</time>
      </trkpt>
      <trkpt lat="47.21717" lon="6.42556">
        <ele>591.79998779297</ele>
        <time>2018-05-01T12:42:08.000Z</time>
      </trkpt>
      <trkpt lat="47.21718" lon="6.42567">
        <ele>592</ele>
        <time>2018-05-01T12:42:12.000Z</time>
      </trkpt>
      <trkpt lat="47.21717" lon="6.4257">
        <ele>591.59997558594</ele>
        <time>2018-05-01T12:42:13.000Z</time>
      </trkpt>
      <trkpt lat="47.21719" lon="6.42575">
        <ele>592</ele>
        <time>2018-05-01T12:42:15.000Z</time>
      </trkpt>
      <trkpt lat="47.2172" lon="6.42583">
        <ele>592</ele>
        <time>2018-05-01T12:42:17.000Z</time>
      </trkpt>
      <trkpt lat="47.2172" lon="6.42585">
        <ele>592</ele>
        <time>2018-05-01T12:42:18.000Z</time>
      </trkpt>
      <trkpt lat="47.2172" lon="6.42595">
        <ele>591.40002441406</ele>
        <time>2018-05-01T12:42:21.000Z</time>
      </trkpt>
      <trkpt lat="47.2172" lon="6.42597">
        <ele>591.40002441406</ele>
        <time>2018-05-01T12:42:22.000Z</time>
      </trkpt>
      <trkpt lat="47.21721" lon="6.426">
        <ele>591.40002441406</ele>
        <time>2018-05-01T12:42:23.000Z</time>
      </trkpt>
      <trkpt lat="47.21722" lon="6.42605">
        <ele>591.40002441406</ele>
        <time>2018-05-01T12:42:25.000Z</time>
      </trkpt>
      <trkpt lat="47.21722" lon="6.42611">
        <ele>591.40002441406</ele>
        <time>2018-05-01T12:42:27.000Z</time>
      </trkpt>
      <trkpt lat="47.21723" lon="6.42618">
        <ele>591.20001220703</ele>
        <time>2018-05-01T12:42:29.000Z</time>
      </trkpt>
      <trkpt lat="47.21724" lon="6.42631">
        <ele>591.40002441406</ele>
        <time>2018-05-01T12:42:33.000Z</time>
      </trkpt>
      <trkpt lat="47.21724" lon="6.42634">
        <ele>591.59997558594</ele>
        <time>2018-05-01T12:42:34.000Z</time>
      </trkpt>
      <trkpt lat="47.21724" lon="6.42637">
        <ele>591.40002441406</ele>
        <time>2018-05-01T12:42:35.000Z</time>
      </trkpt>
      <trkpt lat="47.21725" lon="6.42644">
        <ele>592</ele>
        <time>2018-05-01T12:42:37.000Z</time>
      </trkpt>
      <trkpt lat="47.21725" lon="6.42652">
        <ele>591.59997558594</ele>
        <time>2018-05-01T12:42:39.000Z</time>
      </trkpt>
      <trkpt lat="47.21724" lon="6.42653">
        <ele>591</ele>
        <time>2018-05-01T12:42:40.000Z</time>
      </trkpt>
      <trkpt lat="47.21724" lon="6.42661">
        <ele>589.79998779297</ele>
        <time>2018-05-01T12:42:43.000Z</time>
      </trkpt>
      <trkpt lat="47.21724" lon="6.42667">
        <ele>588.79998779297</ele>
        <time>2018-05-01T12:42:45.000Z</time>
      </trkpt>
      <trkpt lat="47.21725" lon="6.42671">
        <ele>588.79998779297</ele>
        <time>2018-05-01T12:42:46.000Z</time>
      </trkpt>
      <trkpt lat="47.21726" lon="6.42673">
        <ele>588.59997558594</ele>
        <time>2018-05-01T12:42:47.000Z</time>
      </trkpt>
      <trkpt lat="47.21727" lon="6.4268">
        <ele>588</ele>
        <time>2018-05-01T12:42:49.000Z</time>
      </trkpt>
      <trkpt lat="47.21731" lon="6.42686">
        <ele>588.59997558594</ele>
        <time>2018-05-01T12:42:51.000Z</time>
      </trkpt>
      <trkpt lat="47.21732" lon="6.4269">
        <ele>588.59997558594</ele>
        <time>2018-05-01T12:42:52.000Z</time>
      </trkpt>
      <trkpt lat="47.21733" lon="6.42692">
        <ele>588.20001220703</ele>
        <time>2018-05-01T12:42:53.000Z</time>
      </trkpt>
      <trkpt lat="47.21735" lon="6.42697">
        <ele>588.59997558594</ele>
        <time>2018-05-01T12:42:55.000Z</time>
      </trkpt>
      <trkpt lat="47.21737" lon="6.427">
        <ele>588.79998779297</ele>
        <time>2018-05-01T12:42:56.000Z</time>
      </trkpt>
      <trkpt lat="47.21739" lon="6.42704">
        <ele>588.79998779297</ele>
        <time>2018-05-01T12:42:58.000Z</time>
      </trkpt>
      <trkpt lat="47.21739" lon="6.42707">
        <ele>588.59997558594</ele>
        <time>2018-05-01T12:42:59.000Z</time>
      </trkpt>
      <trkpt lat="47.2174" lon="6.4271">
        <ele>588.40002441406</ele>
        <time>2018-05-01T12:43:00.000Z</time>
      </trkpt>
      <trkpt lat="47.21741" lon="6.42714">
        <ele>588.20001220703</ele>
        <time>2018-05-01T12:43:01.000Z</time>
      </trkpt>
      <trkpt lat="47.21745" lon="6.42723">
        <ele>588.40002441406</ele>
        <time>2018-05-01T12:43:04.000Z</time>
      </trkpt>
      <trkpt lat="47.21749" lon="6.42729">
        <ele>589.20001220703</ele>
        <time>2018-05-01T12:43:07.000Z</time>
      </trkpt>
      <trkpt lat="47.21752" lon="6.42733">
        <ele>589.79998779297</ele>
        <time>2018-05-01T12:43:09.000Z</time>
      </trkpt>
      <trkpt lat="47.21764" lon="6.42746">
        <ele>592</ele>
        <time>2018-05-01T12:43:14.000Z</time>
      </trkpt>
      <trkpt lat="47.21767" lon="6.42748">
        <ele>592.79998779297</ele>
        <time>2018-05-01T12:43:15.000Z</time>
      </trkpt>
      <trkpt lat="47.21772" lon="6.42752">
        <ele>594.40002441406</ele>
        <time>2018-05-01T12:43:17.000Z</time>
      </trkpt>
      <trkpt lat="47.21776" lon="6.42755">
        <ele>595.20001220703</ele>
        <time>2018-05-01T12:43:18.000Z</time>
      </trkpt>
      <trkpt lat="47.2178" lon="6.42758">
        <ele>596.40002441406</ele>
        <time>2018-05-01T12:43:19.000Z</time>
      </trkpt>
      <trkpt lat="47.21782" lon="6.4276">
        <ele>597.20001220703</ele>
        <time>2018-05-01T12:43:20.000Z</time>
      </trkpt>
      <trkpt lat="47.21785" lon="6.42762">
        <ele>597.59997558594</ele>
        <time>2018-05-01T12:43:21.000Z</time>
      </trkpt>
      <trkpt lat="47.21787" lon="6.42764">
        <ele>598</ele>
        <time>2018-05-01T12:43:22.000Z</time>
      </trkpt>
      <trkpt lat="47.21787" lon="6.42765">
        <ele>598.20001220703</ele>
        <time>2018-05-01T12:43:23.000Z</time>
      </trkpt>
      <trkpt lat="47.21788" lon="6.42765">
        <ele>598.59997558594</ele>
        <time>2018-05-01T12:43:24.000Z</time>
      </trkpt>
      <trkpt lat="47.21791" lon="6.42768">
        <ele>599.20001220703</ele>
        <time>2018-05-01T12:43:26.000Z</time>
      </trkpt>
      <trkpt lat="47.21792" lon="6.42771">
        <ele>598.59997558594</ele>
        <time>2018-05-01T12:43:29.000Z</time>
      </trkpt>
      <trkpt lat="47.21794" lon="6.42774">
        <ele>598.79998779297</ele>
        <time>2018-05-01T12:43:30.000Z</time>
      </trkpt>
      <trkpt lat="47.21798" lon="6.42778">
        <ele>599.59997558594</ele>
        <time>2018-05-01T12:43:32.000Z</time>
      </trkpt>
      <trkpt lat="47.21799" lon="6.42781">
        <ele>599.79998779297</ele>
        <time>2018-05-01T12:43:33.000Z</time>
      </trkpt>
      <trkpt lat="47.218" lon="6.42784">
        <ele>599.59997558594</ele>
        <time>2018-05-01T12:43:34.000Z</time>
      </trkpt>
      <trkpt lat="47.21803" lon="6.42788">
        <ele>599.79998779297</ele>
        <time>2018-05-01T12:43:36.000Z</time>
      </trkpt>
      <trkpt lat="47.21804" lon="6.42789">
        <ele>600</ele>
        <time>2018-05-01T12:43:37.000Z</time>
      </trkpt>
      <trkpt lat="47.21805" lon="6.42792">
        <ele>600</ele>
        <time>2018-05-01T12:43:38.000Z</time>
      </trkpt>
      <trkpt lat="47.21806" lon="6.42797">
        <ele>599.79998779297</ele>
        <time>2018-05-01T12:43:40.000Z</time>
      </trkpt>
      <trkpt lat="47.21809" lon="6.42801">
        <ele>600</ele>
        <time>2018-05-01T12:43:42.000Z</time>
      </trkpt>
      <trkpt lat="47.21809" lon="6.42805">
        <ele>599.40002441406</ele>
        <time>2018-05-01T12:43:44.000Z</time>
      </trkpt>
      <trkpt lat="47.21809" lon="6.42808">
        <ele>599.40002441406</ele>
        <time>2018-05-01T12:43:45.000Z</time>
      </trkpt>
      <trkpt lat="47.21809" lon="6.42809">
        <ele>599</ele>
        <time>2018-05-01T12:43:46.000Z</time>
      </trkpt>
      <trkpt lat="47.21807" lon="6.42812">
        <ele>598.20001220703</ele>
        <time>2018-05-01T12:43:47.000Z</time>
      </trkpt>
      <trkpt lat="47.21809" lon="6.42815">
        <ele>598.59997558594</ele>
        <time>2018-05-01T12:43:48.000Z</time>
      </trkpt>
      <trkpt lat="47.2181" lon="6.42818">
        <ele>598.20001220703</ele>
        <time>2018-05-01T12:43:50.000Z</time>
      </trkpt>
      <trkpt lat="47.21814" lon="6.42821">
        <ele>599.20001220703</ele>
        <time>2018-05-01T12:43:52.000Z</time>
      </trkpt>
      <trkpt lat="47.21821" lon="6.42827">
        <ele>600.59997558594</ele>
        <time>2018-05-01T12:43:55.000Z</time>
      </trkpt>
      <trkpt lat="47.21825" lon="6.42831">
        <ele>601.20001220703</ele>
        <time>2018-05-01T12:43:57.000Z</time>
      </trkpt>
      <trkpt lat="47.21827" lon="6.42832">
        <ele>601.59997558594</ele>
        <time>2018-05-01T12:43:58.000Z</time>
      </trkpt>
      <trkpt lat="47.2183" lon="6.42835">
        <ele>602.20001220703</ele>
        <time>2018-05-01T12:44:00.000Z</time>
      </trkpt>
      <trkpt lat="47.21833" lon="6.42838">
        <ele>602.20001220703</ele>
        <time>2018-05-01T12:44:02.000Z</time>
      </trkpt>
      <trkpt lat="47.21837" lon="6.42844">
        <ele>602.40002441406</ele>
        <time>2018-05-01T12:44:05.000Z</time>
      </trkpt>
      <trkpt lat="47.21839" lon="6.42846">
        <ele>602.40002441406</ele>
        <time>2018-05-01T12:44:06.000Z</time>
      </trkpt>
      <trkpt lat="47.21845" lon="6.42856">
        <ele>602.40002441406</ele>
        <time>2018-05-01T12:44:11.000Z</time>
      </trkpt>
      <trkpt lat="47.21844" lon="6.42859">
        <ele>601.59997558594</ele>
        <time>2018-05-01T12:44:12.000Z</time>
      </trkpt>
      <trkpt lat="47.21845" lon="6.42862">
        <ele>601.40002441406</ele>
        <time>2018-05-01T12:44:13.000Z</time>
      </trkpt>
      <trkpt lat="47.21848" lon="6.42864">
        <ele>601.59997558594</ele>
        <time>2018-05-01T12:44:14.000Z</time>
      </trkpt>
      <trkpt lat="47.21851" lon="6.42868">
        <ele>601.79998779297</ele>
        <time>2018-05-01T12:44:16.000Z</time>
      </trkpt>
      <trkpt lat="47.21853" lon="6.42869">
        <ele>602</ele>
        <time>2018-05-01T12:44:17.000Z</time>
      </trkpt>
      <trkpt lat="47.21854" lon="6.42871">
        <ele>602</ele>
        <time>2018-05-01T12:44:18.000Z</time>
      </trkpt>
      <trkpt lat="47.21855" lon="6.42873">
        <ele>601.79998779297</ele>
        <time>2018-05-01T12:44:19.000Z</time>
      </trkpt>
      <trkpt lat="47.21859" lon="6.4288">
        <ele>601.79998779297</ele>
        <time>2018-05-01T12:44:22.000Z</time>
      </trkpt>
      <trkpt lat="47.21861" lon="6.42884">
        <ele>601.59997558594</ele>
        <time>2018-05-01T12:44:24.000Z</time>
      </trkpt>
      <trkpt lat="47.21863" lon="6.42888">
        <ele>601.59997558594</ele>
        <time>2018-05-01T12:44:26.000Z</time>
      </trkpt>
      <trkpt lat="47.21864" lon="6.4289">
        <ele>601.40002441406</ele>
        <time>2018-05-01T12:44:28.000Z</time>
      </trkpt>
      <trkpt lat="47.21874" lon="6.42898">
        <ele>602.59997558594</ele>
        <time>2018-05-01T12:44:35.000Z</time>
      </trkpt>
      <trkpt lat="47.21876" lon="6.42901">
        <ele>602.59997558594</ele>
        <time>2018-05-01T12:44:37.000Z</time>
      </trkpt>
      <trkpt lat="47.21878" lon="6.42902">
        <ele>602.79998779297</ele>
        <time>2018-05-01T12:44:38.000Z</time>
      </trkpt>
      <trkpt lat="47.2188" lon="6.42904">
        <ele>602.79998779297</ele>
        <time>2018-05-01T12:44:40.000Z</time>
      </trkpt>
      <trkpt lat="47.21882" lon="6.42906">
        <ele>603</ele>
        <time>2018-05-01T12:44:41.000Z</time>
      </trkpt>
      <trkpt lat="47.21883" lon="6.42907">
        <ele>603</ele>
        <time>2018-05-01T12:44:42.000Z</time>
      </trkpt>
      <trkpt lat="47.21885" lon="6.4291">
        <ele>602.79998779297</ele>
        <time>2018-05-01T12:44:43.000Z</time>
      </trkpt>
      <trkpt lat="47.21886" lon="6.42911">
        <ele>603</ele>
        <time>2018-05-01T12:44:44.000Z</time>
      </trkpt>
      <trkpt lat="47.2189" lon="6.42914">
        <ele>603.40002441406</ele>
        <time>2018-05-01T12:44:46.000Z</time>
      </trkpt>
      <trkpt lat="47.21891" lon="6.42914">
        <ele>603.59997558594</ele>
        <time>2018-05-01T12:44:47.000Z</time>
      </trkpt>
      <trkpt lat="47.21893" lon="6.42917">
        <ele>603.59997558594</ele>
        <time>2018-05-01T12:44:49.000Z</time>
      </trkpt>
      <trkpt lat="47.21897" lon="6.42918">
        <ele>604.20001220703</ele>
        <time>2018-05-01T12:44:51.000Z</time>
      </trkpt>
      <trkpt lat="47.21898" lon="6.42919">
        <ele>604.40002441406</ele>
        <time>2018-05-01T12:44:52.000Z</time>
      </trkpt>
      <trkpt lat="47.21906" lon="6.42926">
        <ele>605</ele>
        <time>2018-05-01T12:44:58.000Z</time>
      </trkpt>
      <trkpt lat="47.21908" lon="6.42928">
        <ele>605</ele>
        <time>2018-05-01T12:44:59.000Z</time>
      </trkpt>
      <trkpt lat="47.21916" lon="6.42933">
        <ele>605.79998779297</ele>
        <time>2018-05-01T12:45:04.000Z</time>
      </trkpt>
      <trkpt lat="47.21932" lon="6.4294">
        <ele>607.20001220703</ele>
        <time>2018-05-01T12:45:10.000Z</time>
      </trkpt>
      <trkpt lat="47.21944" lon="6.42945">
        <ele>608.40002441406</ele>
        <time>2018-05-01T12:45:15.000Z</time>
      </trkpt>
      <trkpt lat="47.21948" lon="6.42947">
        <ele>608.59997558594</ele>
        <time>2018-05-01T12:45:16.000Z</time>
      </trkpt>
      <trkpt lat="47.21956" lon="6.42953">
        <ele>609</ele>
        <time>2018-05-01T12:45:19.000Z</time>
      </trkpt>
      <trkpt lat="47.21962" lon="6.42957">
        <ele>609.20001220703</ele>
        <time>2018-05-01T12:45:21.000Z</time>
      </trkpt>
      <trkpt lat="47.21973" lon="6.42964">
        <ele>609.79998779297</ele>
        <time>2018-05-01T12:45:25.000Z</time>
      </trkpt>
      <trkpt lat="47.21978" lon="6.42966">
        <ele>610</ele>
        <time>2018-05-01T12:45:27.000Z</time>
      </trkpt>
      <trkpt lat="47.21983" lon="6.4297">
        <ele>610.20001220703</ele>
        <time>2018-05-01T12:45:29.000Z</time>
      </trkpt>
      <trkpt lat="47.21987" lon="6.42973">
        <ele>610.59997558594</ele>
        <time>2018-05-01T12:45:31.000Z</time>
      </trkpt>
      <trkpt lat="47.21988" lon="6.42973">
        <ele>610.79998779297</ele>
        <time>2018-05-01T12:45:33.000Z</time>
      </trkpt>
      <trkpt lat="47.2199" lon="6.42975">
        <ele>610.59997558594</ele>
        <time>2018-05-01T12:45:34.000Z</time>
      </trkpt>
      <trkpt lat="47.21991" lon="6.42977">
        <ele>610.59997558594</ele>
        <time>2018-05-01T12:45:39.000Z</time>
      </trkpt>
      <trkpt lat="47.21993" lon="6.42978">
        <ele>610.59997558594</ele>
        <time>2018-05-01T12:45:40.000Z</time>
      </trkpt>
      <trkpt lat="47.21996" lon="6.42979">
        <ele>610.79998779297</ele>
        <time>2018-05-01T12:45:43.000Z</time>
      </trkpt>
      <trkpt lat="47.21996" lon="6.42979">
        <ele>610.79998779297</ele>
        <time>2018-05-01T12:45:45.000Z</time>
      </trkpt>
      <trkpt lat="47.21996" lon="6.4298">
        <ele>610.59997558594</ele>
        <time>2018-05-01T12:45:55.000Z</time>
      </trkpt>
      <trkpt lat="47.22" lon="6.42983">
        <ele>610.79998779297</ele>
        <time>2018-05-01T12:45:57.000Z</time>
      </trkpt>
      <trkpt lat="47.22002" lon="6.42984">
        <ele>611</ele>
        <time>2018-05-01T12:45:58.000Z</time>
      </trkpt>
      <trkpt lat="47.22004" lon="6.42987">
        <ele>610.79998779297</ele>
        <time>2018-05-01T12:45:59.000Z</time>
      </trkpt>
      <trkpt lat="47.22006" lon="6.42988">
        <ele>610.79998779297</ele>
        <time>2018-05-01T12:46:00.000Z</time>
      </trkpt>
      <trkpt lat="47.22007" lon="6.4299">
        <ele>610.79998779297</ele>
        <time>2018-05-01T12:46:01.000Z</time>
      </trkpt>
      <trkpt lat="47.22009" lon="6.42992">
        <ele>610.79998779297</ele>
        <time>2018-05-01T12:46:02.000Z</time>
      </trkpt>
      <trkpt lat="47.22011" lon="6.42993">
        <ele>610.79998779297</ele>
        <time>2018-05-01T12:46:03.000Z</time>
      </trkpt>
      <trkpt lat="47.22012" lon="6.42993">
        <ele>611</ele>
        <time>2018-05-01T12:46:04.000Z</time>
      </trkpt>
      <trkpt lat="47.22013" lon="6.42994">
        <ele>611</ele>
        <time>2018-05-01T12:46:05.000Z</time>
      </trkpt>
      <trkpt lat="47.22013" lon="6.42995">
        <ele>610.79998779297</ele>
        <time>2018-05-01T12:46:06.000Z</time>
      </trkpt>
      <trkpt lat="47.22014" lon="6.42997">
        <ele>610.79998779297</ele>
        <time>2018-05-01T12:46:07.000Z</time>
      </trkpt>
      <trkpt lat="47.22018" lon="6.42999">
        <ele>611</ele>
        <time>2018-05-01T12:46:09.000Z</time>
      </trkpt>
      <trkpt lat="47.2202" lon="6.43001">
        <ele>611.20001220703</ele>
        <time>2018-05-01T12:46:10.000Z</time>
      </trkpt>
      <trkpt lat="47.22025" lon="6.43005">
        <ele>611.20001220703</ele>
        <time>2018-05-01T12:46:12.000Z</time>
      </trkpt>
      <trkpt lat="47.22032" lon="6.43009">
        <ele>611.79998779297</ele>
        <time>2018-05-01T12:46:15.000Z</time>
      </trkpt>
      <trkpt lat="47.22035" lon="6.43011">
        <ele>612.20001220703</ele>
        <time>2018-05-01T12:46:16.000Z</time>
      </trkpt>
      <trkpt lat="47.2205" lon="6.43016">
        <ele>614</ele>
        <time>2018-05-01T12:46:21.000Z</time>
      </trkpt>
      <trkpt lat="47.22057" lon="6.43019">
        <ele>614.79998779297</ele>
        <time>2018-05-01T12:46:24.000Z</time>
      </trkpt>
      <trkpt lat="47.22062" lon="6.4302">
        <ele>615.59997558594</ele>
        <time>2018-05-01T12:46:27.000Z</time>
      </trkpt>
      <trkpt lat="47.22077" lon="6.43023">
        <ele>617.79998779297</ele>
        <time>2018-05-01T12:46:33.000Z</time>
      </trkpt>
      <trkpt lat="47.2208" lon="6.43023">
        <ele>618.20001220703</ele>
        <time>2018-05-01T12:46:34.000Z</time>
      </trkpt>
      <trkpt lat="47.22087" lon="6.43025">
        <ele>618.79998779297</ele>
        <time>2018-05-01T12:46:38.000Z</time>
      </trkpt>
      <trkpt lat="47.22093" lon="6.43028">
        <ele>619.20001220703</ele>
        <time>2018-05-01T12:46:41.000Z</time>
      </trkpt>
      <trkpt lat="47.22099" lon="6.4303">
        <ele>619.59997558594</ele>
        <time>2018-05-01T12:46:43.000Z</time>
      </trkpt>
      <trkpt lat="47.22104" lon="6.43032">
        <ele>619.79998779297</ele>
        <time>2018-05-01T12:46:45.000Z</time>
      </trkpt>
      <trkpt lat="47.22108" lon="6.43034">
        <ele>620</ele>
        <time>2018-05-01T12:46:47.000Z</time>
      </trkpt>
      <trkpt lat="47.22111" lon="6.43033">
        <ele>620.40002441406</ele>
        <time>2018-05-01T12:46:48.000Z</time>
      </trkpt>
      <trkpt lat="47.22115" lon="6.43034">
        <ele>620.79998779297</ele>
        <time>2018-05-01T12:46:49.000Z</time>
      </trkpt>
      <trkpt lat="47.2212" lon="6.43036">
        <ele>621.20001220703</ele>
        <time>2018-05-01T12:46:51.000Z</time>
      </trkpt>
      <trkpt lat="47.22126" lon="6.43037">
        <ele>621.59997558594</ele>
        <time>2018-05-01T12:46:53.000Z</time>
      </trkpt>
      <trkpt lat="47.22128" lon="6.43038">
        <ele>621.79998779297</ele>
        <time>2018-05-01T12:46:54.000Z</time>
      </trkpt>
      <trkpt lat="47.2213" lon="6.43038">
        <ele>622</ele>
        <time>2018-05-01T12:46:55.000Z</time>
      </trkpt>
      <trkpt lat="47.22132" lon="6.43039">
        <ele>622.20001220703</ele>
        <time>2018-05-01T12:46:56.000Z</time>
      </trkpt>
      <trkpt lat="47.22143" lon="6.43042">
        <ele>623.40002441406</ele>
        <time>2018-05-01T12:47:01.000Z</time>
      </trkpt>
      <trkpt lat="47.22147" lon="6.43043">
        <ele>624</ele>
        <time>2018-05-01T12:47:03.000Z</time>
      </trkpt>
      <trkpt lat="47.22157" lon="6.43047">
        <ele>624.79998779297</ele>
        <time>2018-05-01T12:47:08.000Z</time>
      </trkpt>
      <trkpt lat="47.2216" lon="6.43049">
        <ele>625</ele>
        <time>2018-05-01T12:47:10.000Z</time>
      </trkpt>
      <trkpt lat="47.22164" lon="6.43051">
        <ele>625.40002441406</ele>
        <time>2018-05-01T12:47:12.000Z</time>
      </trkpt>
      <trkpt lat="47.22166" lon="6.43051">
        <ele>625.40002441406</ele>
        <time>2018-05-01T12:47:13.000Z</time>
      </trkpt>
      <trkpt lat="47.2217" lon="6.43053">
        <ele>625.79998779297</ele>
        <time>2018-05-01T12:47:15.000Z</time>
      </trkpt>
      <trkpt lat="47.22177" lon="6.43057">
        <ele>626.40002441406</ele>
        <time>2018-05-01T12:47:19.000Z</time>
      </trkpt>
      <trkpt lat="47.22179" lon="6.43058">
        <ele>626.40002441406</ele>
        <time>2018-05-01T12:47:20.000Z</time>
      </trkpt>
      <trkpt lat="47.22195" lon="6.43066">
        <ele>627.59997558594</ele>
        <time>2018-05-01T12:47:25.000Z</time>
      </trkpt>
      <trkpt lat="47.22212" lon="6.43077">
        <ele>628.40002441406</ele>
        <time>2018-05-01T12:47:31.000Z</time>
      </trkpt>
      <trkpt lat="47.2222" lon="6.43088">
        <ele>627.59997558594</ele>
        <time>2018-05-01T12:47:35.000Z</time>
      </trkpt>
      <trkpt lat="47.22224" lon="6.43091">
        <ele>627.40002441406</ele>
        <time>2018-05-01T12:47:36.000Z</time>
      </trkpt>
      <trkpt lat="47.22229" lon="6.43094">
        <ele>627.79998779297</ele>
        <time>2018-05-01T12:47:38.000Z</time>
      </trkpt>
      <trkpt lat="47.22238" lon="6.431">
        <ele>628.20001220703</ele>
        <time>2018-05-01T12:47:41.000Z</time>
      </trkpt>
      <trkpt lat="47.2225" lon="6.4311">
        <ele>628.40002441406</ele>
        <time>2018-05-01T12:47:46.000Z</time>
      </trkpt>
      <trkpt lat="47.22256" lon="6.43114">
        <ele>628.79998779297</ele>
        <time>2018-05-01T12:47:49.000Z</time>
      </trkpt>
      <trkpt lat="47.22261" lon="6.43117">
        <ele>629.40002441406</ele>
        <time>2018-05-01T12:47:51.000Z</time>
      </trkpt>
      <trkpt lat="47.22263" lon="6.43118">
        <ele>629.40002441406</ele>
        <time>2018-05-01T12:47:52.000Z</time>
      </trkpt>
      <trkpt lat="47.22272" lon="6.43125">
        <ele>629.79998779297</ele>
        <time>2018-05-01T12:47:56.000Z</time>
      </trkpt>
      <trkpt lat="47.22274" lon="6.43126">
        <ele>630.20001220703</ele>
        <time>2018-05-01T12:47:57.000Z</time>
      </trkpt>
      <trkpt lat="47.22277" lon="6.43128">
        <ele>630.20001220703</ele>
        <time>2018-05-01T12:47:58.000Z</time>
      </trkpt>
      <trkpt lat="47.22279" lon="6.4313">
        <ele>630.20001220703</ele>
        <time>2018-05-01T12:47:59.000Z</time>
      </trkpt>
      <trkpt lat="47.22285" lon="6.43138">
        <ele>629.59997558594</ele>
        <time>2018-05-01T12:48:02.000Z</time>
      </trkpt>
      <trkpt lat="47.22289" lon="6.43145">
        <ele>628.79998779297</ele>
        <time>2018-05-01T12:48:04.000Z</time>
      </trkpt>
      <trkpt lat="47.2229" lon="6.43148">
        <ele>628.40002441406</ele>
        <time>2018-05-01T12:48:05.000Z</time>
      </trkpt>
      <trkpt lat="47.22295" lon="6.43153">
        <ele>628.79998779297</ele>
        <time>2018-05-01T12:48:07.000Z</time>
      </trkpt>
      <trkpt lat="47.22301" lon="6.4316">
        <ele>629.20001220703</ele>
        <time>2018-05-01T12:48:10.000Z</time>
      </trkpt>
      <trkpt lat="47.2231" lon="6.43165">
        <ele>630.59997558594</ele>
        <time>2018-05-01T12:48:15.000Z</time>
      </trkpt>
      <trkpt lat="47.22319" lon="6.43172">
        <ele>632</ele>
        <time>2018-05-01T12:48:19.000Z</time>
      </trkpt>
      <trkpt lat="47.22324" lon="6.43173">
        <ele>633</ele>
        <time>2018-05-01T12:48:21.000Z</time>
      </trkpt>
      <trkpt lat="47.22326" lon="6.43175">
        <ele>633.20001220703</ele>
        <time>2018-05-01T12:48:22.000Z</time>
      </trkpt>
      <trkpt lat="47.22328" lon="6.43177">
        <ele>633.59997558594</ele>
        <time>2018-05-01T12:48:23.000Z</time>
      </trkpt>
      <trkpt lat="47.22332" lon="6.43179">
        <ele>633.79998779297</ele>
        <time>2018-05-01T12:48:25.000Z</time>
      </trkpt>
      <trkpt lat="47.22333" lon="6.43179">
        <ele>633.79998779297</ele>
        <time>2018-05-01T12:48:26.000Z</time>
      </trkpt>
      <trkpt lat="47.2234" lon="6.4318">
        <ele>634.40002441406</ele>
        <time>2018-05-01T12:48:29.000Z</time>
      </trkpt>
      <trkpt lat="47.22342" lon="6.43179">
        <ele>634.79998779297</ele>
        <time>2018-05-01T12:48:30.000Z</time>
      </trkpt>
      <trkpt lat="47.22347" lon="6.43178">
        <ele>635.59997558594</ele>
        <time>2018-05-01T12:48:32.000Z</time>
      </trkpt>
      <trkpt lat="47.22361" lon="6.43185">
        <ele>636.20001220703</ele>
        <time>2018-05-01T12:48:37.000Z</time>
      </trkpt>
      <trkpt lat="47.22371" lon="6.43201">
        <ele>635.20001220703</ele>
        <time>2018-05-01T12:48:42.000Z</time>
      </trkpt>
      <trkpt lat="47.22384" lon="6.43229">
        <ele>633.40002441406</ele>
        <time>2018-05-01T12:48:49.000Z</time>
      </trkpt>
      <trkpt lat="47.22403" lon="6.4327">
        <ele>634.20001220703</ele>
        <time>2018-05-01T12:48:59.000Z</time>
      </trkpt>
      <trkpt lat="47.22407" lon="6.43279">
        <ele>634.40002441406</ele>
        <time>2018-05-01T12:49:01.000Z</time>
      </trkpt>
      <trkpt lat="47.22423" lon="6.43312">
        <ele>634.59997558594</ele>
        <time>2018-05-01T12:49:09.000Z</time>
      </trkpt>
      <trkpt lat="47.22429" lon="6.43326">
        <ele>635</ele>
        <time>2018-05-01T12:49:12.000Z</time>
      </trkpt>
      <trkpt lat="47.22442" lon="6.43351">
        <ele>635.79998779297</ele>
        <time>2018-05-01T12:49:18.000Z</time>
      </trkpt>
      <trkpt lat="47.22458" lon="6.43387">
        <ele>636</ele>
        <time>2018-05-01T12:49:26.000Z</time>
      </trkpt>
      <trkpt lat="47.22464" lon="6.43401">
        <ele>636.20001220703</ele>
        <time>2018-05-01T12:49:29.000Z</time>
      </trkpt>
      <trkpt lat="47.22474" lon="6.43424">
        <ele>637.20001220703</ele>
        <time>2018-05-01T12:49:34.000Z</time>
      </trkpt>
      <trkpt lat="47.22489" lon="6.43455">
        <ele>638.40002441406</ele>
        <time>2018-05-01T12:49:41.000Z</time>
      </trkpt>
      <trkpt lat="47.22506" lon="6.43492">
        <ele>640</ele>
        <time>2018-05-01T12:49:49.000Z</time>
      </trkpt>
      <trkpt lat="47.22508" lon="6.43496">
        <ele>640.40002441406</ele>
        <time>2018-05-01T12:49:50.000Z</time>
      </trkpt>
      <trkpt lat="47.22517" lon="6.43519">
        <ele>641.79998779297</ele>
        <time>2018-05-01T12:49:55.000Z</time>
      </trkpt>
      <trkpt lat="47.22533" lon="6.43555">
        <ele>643.79998779297</ele>
        <time>2018-05-01T12:50:02.000Z</time>
      </trkpt>
      <trkpt lat="47.22535" lon="6.43561">
        <ele>644.20001220703</ele>
        <time>2018-05-01T12:50:03.000Z</time>
      </trkpt>
      <trkpt lat="47.22547" lon="6.43589">
        <ele>644.40002441406</ele>
        <time>2018-05-01T12:50:08.000Z</time>
      </trkpt>
      <trkpt lat="47.22558" lon="6.43619">
        <ele>644.40002441406</ele>
        <time>2018-05-01T12:50:13.000Z</time>
      </trkpt>
      <trkpt lat="47.2256" lon="6.43626">
        <ele>644.20001220703</ele>
        <time>2018-05-01T12:50:14.000Z</time>
      </trkpt>
      <trkpt lat="47.22561" lon="6.43633">
        <ele>644.20001220703</ele>
        <time>2018-05-01T12:50:15.000Z</time>
      </trkpt>
      <trkpt lat="47.22564" lon="6.43647">
        <ele>644.40002441406</ele>
        <time>2018-05-01T12:50:17.000Z</time>
      </trkpt>
      <trkpt lat="47.22567" lon="6.43675">
        <ele>644.20001220703</ele>
        <time>2018-05-01T12:50:21.000Z</time>
      </trkpt>
      <trkpt lat="47.22569" lon="6.43696">
        <ele>644</ele>
        <time>2018-05-01T12:50:24.000Z</time>
      </trkpt>
      <trkpt lat="47.22572" lon="6.43724">
        <ele>643.79998779297</ele>
        <time>2018-05-01T12:50:28.000Z</time>
      </trkpt>
      <trkpt lat="47.22574" lon="6.43783">
        <ele>645</ele>
        <time>2018-05-01T12:50:37.000Z</time>
      </trkpt>
      <trkpt lat="47.22575" lon="6.43796">
        <ele>645.20001220703</ele>
        <time>2018-05-01T12:50:39.000Z</time>
      </trkpt>
      <trkpt lat="47.22576" lon="6.43814">
        <ele>645.79998779297</ele>
        <time>2018-05-01T12:50:42.000Z</time>
      </trkpt>
      <trkpt lat="47.22576" lon="6.43833">
        <ele>647</ele>
        <time>2018-05-01T12:50:45.000Z</time>
      </trkpt>
      <trkpt lat="47.2258" lon="6.43856">
        <ele>648.40002441406</ele>
        <time>2018-05-01T12:50:49.000Z</time>
      </trkpt>
      <trkpt lat="47.22585" lon="6.43864">
        <ele>648.59997558594</ele>
        <time>2018-05-01T12:50:51.000Z</time>
      </trkpt>
      <trkpt lat="47.22588" lon="6.43868">
        <ele>648.79998779297</ele>
        <time>2018-05-01T12:50:52.000Z</time>
      </trkpt>
      <trkpt lat="47.22597" lon="6.43882">
        <ele>649.20001220703</ele>
        <time>2018-05-01T12:50:55.000Z</time>
      </trkpt>
      <trkpt lat="47.226" lon="6.43887">
        <ele>649.20001220703</ele>
        <time>2018-05-01T12:50:56.000Z</time>
      </trkpt>
      <trkpt lat="47.22602" lon="6.43892">
        <ele>649.40002441406</ele>
        <time>2018-05-01T12:50:57.000Z</time>
      </trkpt>
      <trkpt lat="47.22608" lon="6.43902">
        <ele>649.59997558594</ele>
        <time>2018-05-01T12:50:59.000Z</time>
      </trkpt>
      <trkpt lat="47.22627" lon="6.43936">
        <ele>648.20001220703</ele>
        <time>2018-05-01T12:51:06.000Z</time>
      </trkpt>
      <trkpt lat="47.22629" lon="6.43941">
        <ele>648</ele>
        <time>2018-05-01T12:51:07.000Z</time>
      </trkpt>
      <trkpt lat="47.22636" lon="6.4395">
        <ele>647.59997558594</ele>
        <time>2018-05-01T12:51:09.000Z</time>
      </trkpt>
      <trkpt lat="47.22651" lon="6.43967">
        <ele>646.79998779297</ele>
        <time>2018-05-01T12:51:13.000Z</time>
      </trkpt>
      <trkpt lat="47.22669" lon="6.43984">
        <ele>646.20001220703</ele>
        <time>2018-05-01T12:51:17.000Z</time>
      </trkpt>
      <trkpt lat="47.22675" lon="6.43987">
        <ele>646.20001220703</ele>
        <time>2018-05-01T12:51:18.000Z</time>
      </trkpt>
      <trkpt lat="47.22684" lon="6.43995">
        <ele>646.40002441406</ele>
        <time>2018-05-01T12:51:20.000Z</time>
      </trkpt>
      <trkpt lat="47.22692" lon="6.44008">
        <ele>646.59997558594</ele>
        <time>2018-05-01T12:51:22.000Z</time>
      </trkpt>
      <trkpt lat="47.22695" lon="6.44012">
        <ele>646.79998779297</ele>
        <time>2018-05-01T12:51:23.000Z</time>
      </trkpt>
      <trkpt lat="47.22704" lon="6.44024">
        <ele>647</ele>
        <time>2018-05-01T12:51:26.000Z</time>
      </trkpt>
      <trkpt lat="47.22716" lon="6.44015">
        <ele>647</ele>
        <time>2018-05-01T12:51:29.000Z</time>
      </trkpt>
      <trkpt lat="47.22719" lon="6.44011">
        <ele>647</ele>
        <time>2018-05-01T12:51:30.000Z</time>
      </trkpt>
      <trkpt lat="47.22723" lon="6.44008">
        <ele>647</ele>
        <time>2018-05-01T12:51:31.000Z</time>
      </trkpt>
      <trkpt lat="47.22732" lon="6.43996">
        <ele>647</ele>
        <time>2018-05-01T12:51:34.000Z</time>
      </trkpt>
      <trkpt lat="47.22735" lon="6.43991">
        <ele>647</ele>
        <time>2018-05-01T12:51:35.000Z</time>
      </trkpt>
      <trkpt lat="47.22755" lon="6.43968">
        <ele>646.79998779297</ele>
        <time>2018-05-01T12:51:40.000Z</time>
      </trkpt>
      <trkpt lat="47.22762" lon="6.43959">
        <ele>646.59997558594</ele>
        <time>2018-05-01T12:51:42.000Z</time>
      </trkpt>
      <trkpt lat="47.22774" lon="6.43946">
        <ele>646.20001220703</ele>
        <time>2018-05-01T12:51:45.000Z</time>
      </trkpt>
      <trkpt lat="47.22783" lon="6.4394">
        <ele>646</ele>
        <time>2018-05-01T12:51:47.000Z</time>
      </trkpt>
      <trkpt lat="47.22792" lon="6.43947">
        <ele>646</ele>
        <time>2018-05-01T12:51:49.000Z</time>
      </trkpt>
      <trkpt lat="47.22824" lon="6.43969">
        <ele>646.20001220703</ele>
        <time>2018-05-01T12:51:56.000Z</time>
      </trkpt>
      <trkpt lat="47.22842" lon="6.43975">
        <ele>646</ele>
        <time>2018-05-01T12:51:59.000Z</time>
      </trkpt>
      <trkpt lat="47.22849" lon="6.43976">
        <ele>646</ele>
        <time>2018-05-01T12:52:00.000Z</time>
      </trkpt>
      <trkpt lat="47.22855" lon="6.43977">
        <ele>645.79998779297</ele>
        <time>2018-05-01T12:52:01.000Z</time>
      </trkpt>
      <trkpt lat="47.22877" lon="6.43981">
        <ele>645.40002441406</ele>
        <time>2018-05-01T12:52:05.000Z</time>
      </trkpt>
      <trkpt lat="47.22882" lon="6.43982">
        <ele>645.40002441406</ele>
        <time>2018-05-01T12:52:06.000Z</time>
      </trkpt>
      <trkpt lat="47.22896" lon="6.43988">
        <ele>644.79998779297</ele>
        <time>2018-05-01T12:52:09.000Z</time>
      </trkpt>
      <trkpt lat="47.2291" lon="6.43995">
        <ele>644.20001220703</ele>
        <time>2018-05-01T12:52:12.000Z</time>
      </trkpt>
      <trkpt lat="47.22948" lon="6.44009">
        <ele>642.79998779297</ele>
        <time>2018-05-01T12:52:20.000Z</time>
      </trkpt>
      <trkpt lat="47.22953" lon="6.44009">
        <ele>642.79998779297</ele>
        <time>2018-05-01T12:52:21.000Z</time>
      </trkpt>
      <trkpt lat="47.22966" lon="6.44001">
        <ele>642.79998779297</ele>
        <time>2018-05-01T12:52:24.000Z</time>
      </trkpt>
      <trkpt lat="47.2297" lon="6.43996">
        <ele>643</ele>
        <time>2018-05-01T12:52:25.000Z</time>
      </trkpt>
      <trkpt lat="47.22974" lon="6.43992">
        <ele>643</ele>
        <time>2018-05-01T12:52:26.000Z</time>
      </trkpt>
      <trkpt lat="47.22991" lon="6.4397">
        <ele>643.20001220703</ele>
        <time>2018-05-01T12:52:30.000Z</time>
      </trkpt>
      <trkpt lat="47.22996" lon="6.43965">
        <ele>642.79998779297</ele>
        <time>2018-05-01T12:52:31.000Z</time>
      </trkpt>
      <trkpt lat="47.23001" lon="6.4396">
        <ele>642.59997558594</ele>
        <time>2018-05-01T12:52:32.000Z</time>
      </trkpt>
      <trkpt lat="47.23014" lon="6.43951">
        <ele>642.20001220703</ele>
        <time>2018-05-01T12:52:34.000Z</time>
      </trkpt>
      <trkpt lat="47.23026" lon="6.43942">
        <ele>641.79998779297</ele>
        <time>2018-05-01T12:52:36.000Z</time>
      </trkpt>
      <trkpt lat="47.23045" lon="6.43922">
        <ele>640.40002441406</ele>
        <time>2018-05-01T12:52:39.000Z</time>
      </trkpt>
      <trkpt lat="47.2305" lon="6.43914">
        <ele>640</ele>
        <time>2018-05-01T12:52:40.000Z</time>
      </trkpt>
      <trkpt lat="47.23056" lon="6.43907">
        <ele>639.40002441406</ele>
        <time>2018-05-01T12:52:41.000Z</time>
      </trkpt>
      <trkpt lat="47.23076" lon="6.43876">
        <ele>637.59997558594</ele>
        <time>2018-05-01T12:52:45.000Z</time>
      </trkpt>
      <trkpt lat="47.23084" lon="6.4386">
        <ele>637.40002441406</ele>
        <time>2018-05-01T12:52:47.000Z</time>
      </trkpt>
      <trkpt lat="47.23088" lon="6.43852">
        <ele>637.20001220703</ele>
        <time>2018-05-01T12:52:48.000Z</time>
      </trkpt>
      <trkpt lat="47.23102" lon="6.43819">
        <ele>636.20001220703</ele>
        <time>2018-05-01T12:52:52.000Z</time>
      </trkpt>
      <trkpt lat="47.23106" lon="6.43811">
        <ele>636.20001220703</ele>
        <time>2018-05-01T12:52:53.000Z</time>
      </trkpt>
      <trkpt lat="47.23121" lon="6.43782">
        <ele>636.40002441406</ele>
        <time>2018-05-01T12:52:57.000Z</time>
      </trkpt>
      <trkpt lat="47.23134" lon="6.43762">
        <ele>636.40002441406</ele>
        <time>2018-05-01T12:53:00.000Z</time>
      </trkpt>
      <trkpt lat="47.23143" lon="6.43747">
        <ele>636.40002441406</ele>
        <time>2018-05-01T12:53:02.000Z</time>
      </trkpt>
      <trkpt lat="47.23152" lon="6.43732">
        <ele>636.40002441406</ele>
        <time>2018-05-01T12:53:04.000Z</time>
      </trkpt>
      <trkpt lat="47.23157" lon="6.43724">
        <ele>636.20001220703</ele>
        <time>2018-05-01T12:53:05.000Z</time>
      </trkpt>
      <trkpt lat="47.23186" lon="6.43689">
        <ele>636.40002441406</ele>
        <time>2018-05-01T12:53:10.000Z</time>
      </trkpt>
      <trkpt lat="47.23204" lon="6.43672">
        <ele>636</ele>
        <time>2018-05-01T12:53:13.000Z</time>
      </trkpt>
      <trkpt lat="47.23231" lon="6.43644">
        <ele>634.59997558594</ele>
        <time>2018-05-01T12:53:18.000Z</time>
      </trkpt>
      <trkpt lat="47.23246" lon="6.43629">
        <ele>634.40002441406</ele>
        <time>2018-05-01T12:53:21.000Z</time>
      </trkpt>
      <trkpt lat="47.23266" lon="6.4361">
        <ele>635.40002441406</ele>
        <time>2018-05-01T12:53:25.000Z</time>
      </trkpt>
      <trkpt lat="47.23295" lon="6.43582">
        <ele>636</ele>
        <time>2018-05-01T12:53:31.000Z</time>
      </trkpt>
      <trkpt lat="47.23313" lon="6.43559">
        <ele>636</ele>
        <time>2018-05-01T12:53:35.000Z</time>
      </trkpt>
      <trkpt lat="47.23317" lon="6.43552">
        <ele>636</ele>
        <time>2018-05-01T12:53:36.000Z</time>
      </trkpt>
      <trkpt lat="47.23324" lon="6.43528">
        <ele>636.40002441406</ele>
        <time>2018-05-01T12:53:39.000Z</time>
      </trkpt>
      <trkpt lat="47.23324" lon="6.43502">
        <ele>636.79998779297</ele>
        <time>2018-05-01T12:53:42.000Z</time>
      </trkpt>
      <trkpt lat="47.23324" lon="6.43493">
        <ele>636.79998779297</ele>
        <time>2018-05-01T12:53:43.000Z</time>
      </trkpt>
      <trkpt lat="47.23319" lon="6.4346">
        <ele>637.20001220703</ele>
        <time>2018-05-01T12:53:47.000Z</time>
      </trkpt>
      <trkpt lat="47.23328" lon="6.43441">
        <ele>637.40002441406</ele>
        <time>2018-05-01T12:53:50.000Z</time>
      </trkpt>
      <trkpt lat="47.23344" lon="6.43441">
        <ele>638</ele>
        <time>2018-05-01T12:53:53.000Z</time>
      </trkpt>
      <trkpt lat="47.23359" lon="6.43448">
        <ele>638.59997558594</ele>
        <time>2018-05-01T12:53:56.000Z</time>
      </trkpt>
      <trkpt lat="47.23374" lon="6.43451">
        <ele>639</ele>
        <time>2018-05-01T12:53:59.000Z</time>
      </trkpt>
      <trkpt lat="47.23382" lon="6.43448">
        <ele>639.40002441406</ele>
        <time>2018-05-01T12:54:01.000Z</time>
      </trkpt>
      <trkpt lat="47.23389" lon="6.43443">
        <ele>640</ele>
        <time>2018-05-01T12:54:03.000Z</time>
      </trkpt>
      <trkpt lat="47.23392" lon="6.43439">
        <ele>640.40002441406</ele>
        <time>2018-05-01T12:54:04.000Z</time>
      </trkpt>
      <trkpt lat="47.23402" lon="6.4343">
        <ele>641.20001220703</ele>
        <time>2018-05-01T12:54:07.000Z</time>
      </trkpt>
      <trkpt lat="47.23411" lon="6.4342">
        <ele>642.20001220703</ele>
        <time>2018-05-01T12:54:10.000Z</time>
      </trkpt>
      <trkpt lat="47.23421" lon="6.4341">
        <ele>642.79998779297</ele>
        <time>2018-05-01T12:54:13.000Z</time>
      </trkpt>
      <trkpt lat="47.23431" lon="6.43401">
        <ele>643</ele>
        <time>2018-05-01T12:54:16.000Z</time>
      </trkpt>
      <trkpt lat="47.23444" lon="6.43388">
        <ele>643.20001220703</ele>
        <time>2018-05-01T12:54:20.000Z</time>
      </trkpt>
      <trkpt lat="47.2345" lon="6.4338">
        <ele>643.20001220703</ele>
        <time>2018-05-01T12:54:22.000Z</time>
      </trkpt>
      <trkpt lat="47.23462" lon="6.43357">
        <ele>643.79998779297</ele>
        <time>2018-05-01T12:54:27.000Z</time>
      </trkpt>
      <trkpt lat="47.23483" lon="6.43321">
        <ele>646.20001220703</ele>
        <time>2018-05-01T12:54:35.000Z</time>
      </trkpt>
      <trkpt lat="47.23485" lon="6.43317">
        <ele>646.59997558594</ele>
        <time>2018-05-01T12:54:36.000Z</time>
      </trkpt>
      <trkpt lat="47.23496" lon="6.43301">
        <ele>647.40002441406</ele>
        <time>2018-05-01T12:54:40.000Z</time>
      </trkpt>
      <trkpt lat="47.23509" lon="6.43285">
        <ele>648</ele>
        <time>2018-05-01T12:54:44.000Z</time>
      </trkpt>
      <trkpt lat="47.23526" lon="6.43268">
        <ele>648.79998779297</ele>
        <time>2018-05-01T12:54:49.000Z</time>
      </trkpt>
      <trkpt lat="47.23542" lon="6.4325">
        <ele>649.59997558594</ele>
        <time>2018-05-01T12:54:54.000Z</time>
      </trkpt>
      <trkpt lat="47.23549" lon="6.43243">
        <ele>650</ele>
        <time>2018-05-01T12:54:56.000Z</time>
      </trkpt>
      <trkpt lat="47.23555" lon="6.43236">
        <ele>650.40002441406</ele>
        <time>2018-05-01T12:54:58.000Z</time>
      </trkpt>
      <trkpt lat="47.23562" lon="6.43229">
        <ele>650.59997558594</ele>
        <time>2018-05-01T12:55:00.000Z</time>
      </trkpt>
      <trkpt lat="47.23585" lon="6.43204">
        <ele>651.20001220703</ele>
        <time>2018-05-01T12:55:07.000Z</time>
      </trkpt>
      <trkpt lat="47.23592" lon="6.43197">
        <ele>651.40002441406</ele>
        <time>2018-05-01T12:55:09.000Z</time>
      </trkpt>
      <trkpt lat="47.23606" lon="6.43184">
        <ele>651.59997558594</ele>
        <time>2018-05-01T12:55:13.000Z</time>
      </trkpt>
      <trkpt lat="47.2362" lon="6.43173">
        <ele>652.20001220703</ele>
        <time>2018-05-01T12:55:17.000Z</time>
      </trkpt>
      <trkpt lat="47.23635" lon="6.43167">
        <ele>652.79998779297</ele>
        <time>2018-05-01T12:55:21.000Z</time>
      </trkpt>
      <trkpt lat="47.23647" lon="6.43164">
        <ele>653.20001220703</ele>
        <time>2018-05-01T12:55:24.000Z</time>
      </trkpt>
      <trkpt lat="47.23655" lon="6.43161">
        <ele>653.59997558594</ele>
        <time>2018-05-01T12:55:26.000Z</time>
      </trkpt>
      <trkpt lat="47.23669" lon="6.43155">
        <ele>654.20001220703</ele>
        <time>2018-05-01T12:55:30.000Z</time>
      </trkpt>
      <trkpt lat="47.23676" lon="6.43151">
        <ele>654.59997558594</ele>
        <time>2018-05-01T12:55:32.000Z</time>
      </trkpt>
      <trkpt lat="47.23683" lon="6.43145">
        <ele>655</ele>
        <time>2018-05-01T12:55:34.000Z</time>
      </trkpt>
      <trkpt lat="47.23698" lon="6.43129">
        <ele>656</ele>
        <time>2018-05-01T12:55:39.000Z</time>
      </trkpt>
      <trkpt lat="47.23701" lon="6.43126">
        <ele>656.20001220703</ele>
        <time>2018-05-01T12:55:40.000Z</time>
      </trkpt>
      <trkpt lat="47.23719" lon="6.43101">
        <ele>657</ele>
        <time>2018-05-01T12:55:46.000Z</time>
      </trkpt>
      <trkpt lat="47.23722" lon="6.43097">
        <ele>657.20001220703</ele>
        <time>2018-05-01T12:55:47.000Z</time>
      </trkpt>
      <trkpt lat="47.23731" lon="6.43084">
        <ele>657.40002441406</ele>
        <time>2018-05-01T12:55:50.000Z</time>
      </trkpt>
      <trkpt lat="47.23737" lon="6.43075">
        <ele>657.79998779297</ele>
        <time>2018-05-01T12:55:52.000Z</time>
      </trkpt>
      <trkpt lat="47.23741" lon="6.4307">
        <ele>657.79998779297</ele>
        <time>2018-05-01T12:55:53.000Z</time>
      </trkpt>
      <trkpt lat="47.23772" lon="6.43036">
        <ele>656.40002441406</ele>
        <time>2018-05-01T12:56:00.000Z</time>
      </trkpt>
      <trkpt lat="47.23786" lon="6.43021">
        <ele>655.59997558594</ele>
        <time>2018-05-01T12:56:03.000Z</time>
      </trkpt>
      <trkpt lat="47.23812" lon="6.42991">
        <ele>654.59997558594</ele>
        <time>2018-05-01T12:56:08.000Z</time>
      </trkpt>
      <trkpt lat="47.23817" lon="6.42984">
        <ele>654.40002441406</ele>
        <time>2018-05-01T12:56:09.000Z</time>
      </trkpt>
      <trkpt lat="47.23831" lon="6.42963">
        <ele>654.20001220703</ele>
        <time>2018-05-01T12:56:12.000Z</time>
      </trkpt>
      <trkpt lat="47.23841" lon="6.42949">
        <ele>653.79998779297</ele>
        <time>2018-05-01T12:56:14.000Z</time>
      </trkpt>
      <trkpt lat="47.23846" lon="6.4294">
        <ele>653.79998779297</ele>
        <time>2018-05-01T12:56:15.000Z</time>
      </trkpt>
      <trkpt lat="47.23851" lon="6.42933">
        <ele>653.59997558594</ele>
        <time>2018-05-01T12:56:16.000Z</time>
      </trkpt>
      <trkpt lat="47.23857" lon="6.42926">
        <ele>653.40002441406</ele>
        <time>2018-05-01T12:56:17.000Z</time>
      </trkpt>
      <trkpt lat="47.23862" lon="6.42921">
        <ele>653</ele>
        <time>2018-05-01T12:56:18.000Z</time>
      </trkpt>
      <trkpt lat="47.23867" lon="6.42918">
        <ele>652.79998779297</ele>
        <time>2018-05-01T12:56:19.000Z</time>
      </trkpt>
      <trkpt lat="47.23877" lon="6.42921">
        <ele>652.20001220703</ele>
        <time>2018-05-01T12:56:21.000Z</time>
      </trkpt>
      <trkpt lat="47.23889" lon="6.42911">
        <ele>651.40002441406</ele>
        <time>2018-05-01T12:56:24.000Z</time>
      </trkpt>
      <trkpt lat="47.23894" lon="6.42907">
        <ele>651.20001220703</ele>
        <time>2018-05-01T12:56:25.000Z</time>
      </trkpt>
      <trkpt lat="47.23916" lon="6.42885">
        <ele>650.40002441406</ele>
        <time>2018-05-01T12:56:30.000Z</time>
      </trkpt>
      <trkpt lat="47.23919" lon="6.42879">
        <ele>650.59997558594</ele>
        <time>2018-05-01T12:56:31.000Z</time>
      </trkpt>
      <trkpt lat="47.23922" lon="6.42873">
        <ele>650.79998779297</ele>
        <time>2018-05-01T12:56:32.000Z</time>
      </trkpt>
      <trkpt lat="47.23929" lon="6.42858">
        <ele>651.20001220703</ele>
        <time>2018-05-01T12:56:35.000Z</time>
      </trkpt>
      <trkpt lat="47.23939" lon="6.42844">
        <ele>651.59997558594</ele>
        <time>2018-05-01T12:56:39.000Z</time>
      </trkpt>
      <trkpt lat="47.23944" lon="6.4284">
        <ele>651.79998779297</ele>
        <time>2018-05-01T12:56:41.000Z</time>
      </trkpt>
      <trkpt lat="47.23955" lon="6.4283">
        <ele>652.40002441406</ele>
        <time>2018-05-01T12:56:45.000Z</time>
      </trkpt>
      <trkpt lat="47.23961" lon="6.42825">
        <ele>652.59997558594</ele>
        <time>2018-05-01T12:56:47.000Z</time>
      </trkpt>
      <trkpt lat="47.23967" lon="6.42821">
        <ele>652.79998779297</ele>
        <time>2018-05-01T12:56:49.000Z</time>
      </trkpt>
      <trkpt lat="47.23983" lon="6.42814">
        <ele>653</ele>
        <time>2018-05-01T12:56:54.000Z</time>
      </trkpt>
      <trkpt lat="47.23991" lon="6.42828">
        <ele>652.40002441406</ele>
        <time>2018-05-01T12:56:57.000Z</time>
      </trkpt>
      <trkpt lat="47.24015" lon="6.42872">
        <ele>649.59997558594</ele>
        <time>2018-05-01T12:57:05.000Z</time>
      </trkpt>
      <trkpt lat="47.24041" lon="6.42916">
        <ele>648</ele>
        <time>2018-05-01T12:57:11.000Z</time>
      </trkpt>
      <trkpt lat="47.24046" lon="6.42925">
        <ele>648.20001220703</ele>
        <time>2018-05-01T12:57:12.000Z</time>
      </trkpt>
      <trkpt lat="47.24064" lon="6.42952">
        <ele>648.40002441406</ele>
        <time>2018-05-01T12:57:15.000Z</time>
      </trkpt>
      <trkpt lat="47.24069" lon="6.4296">
        <ele>648.59997558594</ele>
        <time>2018-05-01T12:57:16.000Z</time>
      </trkpt>
      <trkpt lat="47.24088" lon="6.42989">
        <ele>648.40002441406</ele>
        <time>2018-05-01T12:57:20.000Z</time>
      </trkpt>
      <trkpt lat="47.24093" lon="6.42996">
        <ele>648.40002441406</ele>
        <time>2018-05-01T12:57:21.000Z</time>
      </trkpt>
      <trkpt lat="47.24121" lon="6.43048">
        <ele>647.79998779297</ele>
        <time>2018-05-01T12:57:28.000Z</time>
      </trkpt>
      <trkpt lat="47.24156" lon="6.43109">
        <ele>647.20001220703</ele>
        <time>2018-05-01T12:57:37.000Z</time>
      </trkpt>
      <trkpt lat="47.24164" lon="6.43123">
        <ele>646.79998779297</ele>
        <time>2018-05-01T12:57:39.000Z</time>
      </trkpt>
      <trkpt lat="47.24182" lon="6.43151">
        <ele>646</ele>
        <time>2018-05-01T12:57:43.000Z</time>
      </trkpt>
      <trkpt lat="47.24214" lon="6.4321">
        <ele>645.40002441406</ele>
        <time>2018-05-01T12:57:51.000Z</time>
      </trkpt>
      <trkpt lat="47.24219" lon="6.43217">
        <ele>645.40002441406</ele>
        <time>2018-05-01T12:57:52.000Z</time>
      </trkpt>
      <trkpt lat="47.24245" lon="6.43272">
        <ele>645.79998779297</ele>
        <time>2018-05-01T12:57:59.000Z</time>
      </trkpt>
      <trkpt lat="47.24268" lon="6.43328">
        <ele>647.59997558594</ele>
        <time>2018-05-01T12:58:06.000Z</time>
      </trkpt>
      <trkpt lat="47.24291" lon="6.43373">
        <ele>649.79998779297</ele>
        <time>2018-05-01T12:58:12.000Z</time>
      </trkpt>
      <trkpt lat="47.24323" lon="6.43445">
        <ele>652</ele>
        <time>2018-05-01T12:58:21.000Z</time>
      </trkpt>
      <trkpt lat="47.24329" lon="6.43451">
        <ele>651.79998779297</ele>
        <time>2018-05-01T12:58:22.000Z</time>
      </trkpt>
      <trkpt lat="47.24334" lon="6.43455">
        <ele>651.40002441406</ele>
        <time>2018-05-01T12:58:23.000Z</time>
      </trkpt>
      <trkpt lat="47.24342" lon="6.43456">
        <ele>650.40002441406</ele>
        <time>2018-05-01T12:58:24.000Z</time>
      </trkpt>
      <trkpt lat="47.24364" lon="6.4345">
        <ele>647.20001220703</ele>
        <time>2018-05-01T12:58:27.000Z</time>
      </trkpt>
      <trkpt lat="47.24383" lon="6.43466">
        <ele>645.79998779297</ele>
        <time>2018-05-01T12:58:30.000Z</time>
      </trkpt>
      <trkpt lat="47.24388" lon="6.43472">
        <ele>645.40002441406</ele>
        <time>2018-05-01T12:58:31.000Z</time>
      </trkpt>
      <trkpt lat="47.24398" lon="6.43485">
        <ele>645</ele>
        <time>2018-05-01T12:58:33.000Z</time>
      </trkpt>
      <trkpt lat="47.24403" lon="6.43503">
        <ele>644.59997558594</ele>
        <time>2018-05-01T12:58:35.000Z</time>
      </trkpt>
      <trkpt lat="47.2441" lon="6.43519">
        <ele>644.20001220703</ele>
        <time>2018-05-01T12:58:37.000Z</time>
      </trkpt>
      <trkpt lat="47.24422" lon="6.43553">
        <ele>644.40002441406</ele>
        <time>2018-05-01T12:58:41.000Z</time>
      </trkpt>
      <trkpt lat="47.24438" lon="6.4361">
        <ele>643.79998779297</ele>
        <time>2018-05-01T12:58:47.000Z</time>
      </trkpt>
      <trkpt lat="47.24439" lon="6.43621">
        <ele>643.40002441406</ele>
        <time>2018-05-01T12:58:48.000Z</time>
      </trkpt>
      <trkpt lat="47.24429" lon="6.43651">
        <ele>642.20001220703</ele>
        <time>2018-05-01T12:58:51.000Z</time>
      </trkpt>
      <trkpt lat="47.24425" lon="6.43662">
        <ele>642</ele>
        <time>2018-05-01T12:58:52.000Z</time>
      </trkpt>
      <trkpt lat="47.24414" lon="6.43695">
        <ele>640.40002441406</ele>
        <time>2018-05-01T12:58:55.000Z</time>
      </trkpt>
      <trkpt lat="47.24413" lon="6.43706">
        <ele>640</ele>
        <time>2018-05-01T12:58:56.000Z</time>
      </trkpt>
      <trkpt lat="47.24414" lon="6.43729">
        <ele>639.20001220703</ele>
        <time>2018-05-01T12:58:58.000Z</time>
      </trkpt>
      <trkpt lat="47.24415" lon="6.43749">
        <ele>639</ele>
        <time>2018-05-01T12:59:00.000Z</time>
      </trkpt>
      <trkpt lat="47.2441" lon="6.43796">
        <ele>638.20001220703</ele>
        <time>2018-05-01T12:59:05.000Z</time>
      </trkpt>
      <trkpt lat="47.24395" lon="6.43847">
        <ele>637.40002441406</ele>
        <time>2018-05-01T12:59:11.000Z</time>
      </trkpt>
      <trkpt lat="47.24389" lon="6.43863">
        <ele>637.20001220703</ele>
        <time>2018-05-01T12:59:13.000Z</time>
      </trkpt>
      <trkpt lat="47.24377" lon="6.43896">
        <ele>637.20001220703</ele>
        <time>2018-05-01T12:59:17.000Z</time>
      </trkpt>
      <trkpt lat="47.24375" lon="6.43905">
        <ele>636.79998779297</ele>
        <time>2018-05-01T12:59:18.000Z</time>
      </trkpt>
      <trkpt lat="47.2437" lon="6.43921">
        <ele>636.20001220703</ele>
        <time>2018-05-01T12:59:20.000Z</time>
      </trkpt>
      <trkpt lat="47.24366" lon="6.43938">
        <ele>635.40002441406</ele>
        <time>2018-05-01T12:59:23.000Z</time>
      </trkpt>
      <trkpt lat="47.24364" lon="6.43949">
        <ele>635</ele>
        <time>2018-05-01T12:59:27.000Z</time>
      </trkpt>
      <trkpt lat="47.24365" lon="6.43949">
        <ele>635</ele>
        <time>2018-05-01T12:59:28.000Z</time>
      </trkpt>
      <trkpt lat="47.24365" lon="6.43949">
        <ele>635</ele>
        <time>2018-05-01T12:59:31.000Z</time>
      </trkpt>
      <trkpt lat="47.24365" lon="6.43949">
        <ele>635</ele>
        <time>2018-05-01T12:59:44.000Z</time>
      </trkpt>
      <trkpt lat="47.24365" lon="6.43949">
        <ele>635</ele>
        <time>2018-05-01T12:59:54.000Z</time>
      </trkpt>
      <trkpt lat="47.24364" lon="6.43949">
        <ele>635</ele>
        <time>2018-05-01T13:00:07.000Z</time>
      </trkpt>
      <trkpt lat="47.24363" lon="6.43953">
        <ele>634.79998779297</ele>
        <time>2018-05-01T13:00:08.000Z</time>
      </trkpt>
      <trkpt lat="47.24355" lon="6.4397">
        <ele>634</ele>
        <time>2018-05-01T13:00:12.000Z</time>
      </trkpt>
      <trkpt lat="47.24353" lon="6.43977">
        <ele>633.79998779297</ele>
        <time>2018-05-01T13:00:13.000Z</time>
      </trkpt>
      <trkpt lat="47.24345" lon="6.43996">
        <ele>632.79998779297</ele>
        <time>2018-05-01T13:00:16.000Z</time>
      </trkpt>
      <trkpt lat="47.24339" lon="6.4401">
        <ele>632.20001220703</ele>
        <time>2018-05-01T13:00:18.000Z</time>
      </trkpt>
      <trkpt lat="47.24334" lon="6.44025">
        <ele>631.59997558594</ele>
        <time>2018-05-01T13:00:20.000Z</time>
      </trkpt>
      <trkpt lat="47.24332" lon="6.44034">
        <ele>631.20001220703</ele>
        <time>2018-05-01T13:00:21.000Z</time>
      </trkpt>
      <trkpt lat="47.24331" lon="6.44043">
        <ele>630.79998779297</ele>
        <time>2018-05-01T13:00:22.000Z</time>
      </trkpt>
      <trkpt lat="47.24332" lon="6.44063">
        <ele>630.20001220703</ele>
        <time>2018-05-01T13:00:24.000Z</time>
      </trkpt>
      <trkpt lat="47.24335" lon="6.44083">
        <ele>629.40002441406</ele>
        <time>2018-05-01T13:00:26.000Z</time>
      </trkpt>
      <trkpt lat="47.24337" lon="6.44093">
        <ele>629</ele>
        <time>2018-05-01T13:00:27.000Z</time>
      </trkpt>
      <trkpt lat="47.24341" lon="6.44113">
        <ele>628.20001220703</ele>
        <time>2018-05-01T13:00:29.000Z</time>
      </trkpt>
      <trkpt lat="47.24343" lon="6.44124">
        <ele>627.79998779297</ele>
        <time>2018-05-01T13:00:30.000Z</time>
      </trkpt>
      <trkpt lat="47.24346" lon="6.44144">
        <ele>627</ele>
        <time>2018-05-01T13:00:32.000Z</time>
      </trkpt>
      <trkpt lat="47.24348" lon="6.44155">
        <ele>626.79998779297</ele>
        <time>2018-05-01T13:00:33.000Z</time>
      </trkpt>
      <trkpt lat="47.24349" lon="6.44165">
        <ele>626.59997558594</ele>
        <time>2018-05-01T13:00:34.000Z</time>
      </trkpt>
      <trkpt lat="47.24357" lon="6.44214">
        <ele>625.40002441406</ele>
        <time>2018-05-01T13:00:39.000Z</time>
      </trkpt>
      <trkpt lat="47.2436" lon="6.44224">
        <ele>625.20001220703</ele>
        <time>2018-05-01T13:00:40.000Z</time>
      </trkpt>
      <trkpt lat="47.24364" lon="6.44262">
        <ele>624.59997558594</ele>
        <time>2018-05-01T13:00:44.000Z</time>
      </trkpt>
      <trkpt lat="47.24364" lon="6.44291">
        <ele>624</ele>
        <time>2018-05-01T13:00:47.000Z</time>
      </trkpt>
      <trkpt lat="47.24361" lon="6.44309">
        <ele>623.59997558594</ele>
        <time>2018-05-01T13:00:49.000Z</time>
      </trkpt>
      <trkpt lat="47.2436" lon="6.44318">
        <ele>623.40002441406</ele>
        <time>2018-05-01T13:00:50.000Z</time>
      </trkpt>
      <trkpt lat="47.24358" lon="6.44328">
        <ele>623.40002441406</ele>
        <time>2018-05-01T13:00:51.000Z</time>
      </trkpt>
      <trkpt lat="47.2435" lon="6.44364">
        <ele>623.40002441406</ele>
        <time>2018-05-01T13:00:55.000Z</time>
      </trkpt>
      <trkpt lat="47.24346" lon="6.44384">
        <ele>623.40002441406</ele>
        <time>2018-05-01T13:00:57.000Z</time>
      </trkpt>
      <trkpt lat="47.24338" lon="6.44421">
        <ele>622.79998779297</ele>
        <time>2018-05-01T13:01:01.000Z</time>
      </trkpt>
      <trkpt lat="47.24332" lon="6.44439">
        <ele>622.20001220703</ele>
        <time>2018-05-01T13:01:03.000Z</time>
      </trkpt>
      <trkpt lat="47.24324" lon="6.44468">
        <ele>621.59997558594</ele>
        <time>2018-05-01T13:01:06.000Z</time>
      </trkpt>
      <trkpt lat="47.24301" lon="6.44535">
        <ele>621.59997558594</ele>
        <time>2018-05-01T13:01:14.000Z</time>
      </trkpt>
      <trkpt lat="47.24297" lon="6.44541">
        <ele>621.59997558594</ele>
        <time>2018-05-01T13:01:15.000Z</time>
      </trkpt>
      <trkpt lat="47.24287" lon="6.44562">
        <ele>621.59997558594</ele>
        <time>2018-05-01T13:01:18.000Z</time>
      </trkpt>
      <trkpt lat="47.24284" lon="6.44569">
        <ele>621.59997558594</ele>
        <time>2018-05-01T13:01:19.000Z</time>
      </trkpt>
      <trkpt lat="47.24278" lon="6.44599">
        <ele>622.79998779297</ele>
        <time>2018-05-01T13:01:23.000Z</time>
      </trkpt>
      <trkpt lat="47.24275" lon="6.44614">
        <ele>623</ele>
        <time>2018-05-01T13:01:25.000Z</time>
      </trkpt>
      <trkpt lat="47.24274" lon="6.44644">
        <ele>623.20001220703</ele>
        <time>2018-05-01T13:01:29.000Z</time>
      </trkpt>
      <trkpt lat="47.24276" lon="6.44651">
        <ele>623.40002441406</ele>
        <time>2018-05-01T13:01:30.000Z</time>
      </trkpt>
      <trkpt lat="47.24283" lon="6.44663">
        <ele>623.79998779297</ele>
        <time>2018-05-01T13:01:32.000Z</time>
      </trkpt>
      <trkpt lat="47.24287" lon="6.44668">
        <ele>624</ele>
        <time>2018-05-01T13:01:33.000Z</time>
      </trkpt>
      <trkpt lat="47.24309" lon="6.44702">
        <ele>625</ele>
        <time>2018-05-01T13:01:39.000Z</time>
      </trkpt>
      <trkpt lat="47.24339" lon="6.44756">
        <ele>626.20001220703</ele>
        <time>2018-05-01T13:01:48.000Z</time>
      </trkpt>
      <trkpt lat="47.24347" lon="6.44776">
        <ele>626.59997558594</ele>
        <time>2018-05-01T13:01:51.000Z</time>
      </trkpt>
      <trkpt lat="47.24348" lon="6.44791">
        <ele>626.79998779297</ele>
        <time>2018-05-01T13:01:53.000Z</time>
      </trkpt>
      <trkpt lat="47.24343" lon="6.4481">
        <ele>627</ele>
        <time>2018-05-01T13:01:56.000Z</time>
      </trkpt>
      <trkpt lat="47.24342" lon="6.4483">
        <ele>627.20001220703</ele>
        <time>2018-05-01T13:01:59.000Z</time>
      </trkpt>
      <trkpt lat="47.24352" lon="6.44845">
        <ele>627.40002441406</ele>
        <time>2018-05-01T13:02:02.000Z</time>
      </trkpt>
      <trkpt lat="47.24369" lon="6.44871">
        <ele>627.79998779297</ele>
        <time>2018-05-01T13:02:07.000Z</time>
      </trkpt>
      <trkpt lat="47.24372" lon="6.44885">
        <ele>628.20001220703</ele>
        <time>2018-05-01T13:02:09.000Z</time>
      </trkpt>
      <trkpt lat="47.24376" lon="6.44897">
        <ele>628.40002441406</ele>
        <time>2018-05-01T13:02:11.000Z</time>
      </trkpt>
      <trkpt lat="47.24388" lon="6.44934">
        <ele>628.79998779297</ele>
        <time>2018-05-01T13:02:17.000Z</time>
      </trkpt>
      <trkpt lat="47.24394" lon="6.44952">
        <ele>628.79998779297</ele>
        <time>2018-05-01T13:02:20.000Z</time>
      </trkpt>
      <trkpt lat="47.24413" lon="6.44999">
        <ele>629.40002441406</ele>
        <time>2018-05-01T13:02:28.000Z</time>
      </trkpt>
      <trkpt lat="47.24422" lon="6.45022">
        <ele>629.79998779297</ele>
        <time>2018-05-01T13:02:32.000Z</time>
      </trkpt>
      <trkpt lat="47.24428" lon="6.45039">
        <ele>630</ele>
        <time>2018-05-01T13:02:35.000Z</time>
      </trkpt>
      <trkpt lat="47.24433" lon="6.4505">
        <ele>630.20001220703</ele>
        <time>2018-05-01T13:02:37.000Z</time>
      </trkpt>
      <trkpt lat="47.24438" lon="6.45067">
        <ele>630.40002441406</ele>
        <time>2018-05-01T13:02:40.000Z</time>
      </trkpt>
      <trkpt lat="47.2444" lon="6.45073">
        <ele>630.40002441406</ele>
        <time>2018-05-01T13:02:41.000Z</time>
      </trkpt>
      <trkpt lat="47.24445" lon="6.45091">
        <ele>630.20001220703</ele>
        <time>2018-05-01T13:02:44.000Z</time>
      </trkpt>
      <trkpt lat="47.24452" lon="6.45121">
        <ele>630.59997558594</ele>
        <time>2018-05-01T13:02:49.000Z</time>
      </trkpt>
      <trkpt lat="47.24454" lon="6.45127">
        <ele>630.79998779297</ele>
        <time>2018-05-01T13:02:50.000Z</time>
      </trkpt>
      <trkpt lat="47.24457" lon="6.45152">
        <ele>631.40002441406</ele>
        <time>2018-05-01T13:02:54.000Z</time>
      </trkpt>
      <trkpt lat="47.2446" lon="6.45177">
        <ele>631.20001220703</ele>
        <time>2018-05-01T13:02:58.000Z</time>
      </trkpt>
      <trkpt lat="47.2446" lon="6.45196">
        <ele>631.20001220703</ele>
        <time>2018-05-01T13:03:01.000Z</time>
      </trkpt>
      <trkpt lat="47.2446" lon="6.45214">
        <ele>632.20001220703</ele>
        <time>2018-05-01T13:03:04.000Z</time>
      </trkpt>
      <trkpt lat="47.24459" lon="6.45225">
        <ele>633</ele>
        <time>2018-05-01T13:03:06.000Z</time>
      </trkpt>
      <trkpt lat="47.24459" lon="6.45231">
        <ele>633.40002441406</ele>
        <time>2018-05-01T13:03:07.000Z</time>
      </trkpt>
      <trkpt lat="47.24455" lon="6.45252">
        <ele>634.59997558594</ele>
        <time>2018-05-01T13:03:11.000Z</time>
      </trkpt>
      <trkpt lat="47.24454" lon="6.45263">
        <ele>635.20001220703</ele>
        <time>2018-05-01T13:03:13.000Z</time>
      </trkpt>
      <trkpt lat="47.24452" lon="6.45274">
        <ele>635.79998779297</ele>
        <time>2018-05-01T13:03:15.000Z</time>
      </trkpt>
      <trkpt lat="47.24447" lon="6.45304">
        <ele>638.40002441406</ele>
        <time>2018-05-01T13:03:20.000Z</time>
      </trkpt>
      <trkpt lat="47.24441" lon="6.45331">
        <ele>641.20001220703</ele>
        <time>2018-05-01T13:03:24.000Z</time>
      </trkpt>
      <trkpt lat="47.24435" lon="6.45343">
        <ele>642.59997558594</ele>
        <time>2018-05-01T13:03:26.000Z</time>
      </trkpt>
      <trkpt lat="47.2442" lon="6.45373">
        <ele>642.40002441406</ele>
        <time>2018-05-01T13:03:31.000Z</time>
      </trkpt>
      <trkpt lat="47.24418" lon="6.4538">
        <ele>642.20001220703</ele>
        <time>2018-05-01T13:03:32.000Z</time>
      </trkpt>
      <trkpt lat="47.24415" lon="6.45402">
        <ele>642</ele>
        <time>2018-05-01T13:03:35.000Z</time>
      </trkpt>
      <trkpt lat="47.24414" lon="6.45416">
        <ele>642.40002441406</ele>
        <time>2018-05-01T13:03:37.000Z</time>
      </trkpt>
      <trkpt lat="47.24406" lon="6.45432">
        <ele>643.40002441406</ele>
        <time>2018-05-01T13:03:40.000Z</time>
      </trkpt>
      <trkpt lat="47.24403" lon="6.45436">
        <ele>644</ele>
        <time>2018-05-01T13:03:41.000Z</time>
      </trkpt>
      <trkpt lat="47.24384" lon="6.45465">
        <ele>645.20001220703</ele>
        <time>2018-05-01T13:03:48.000Z</time>
      </trkpt>
      <trkpt lat="47.24371" lon="6.45485">
        <ele>642.59997558594</ele>
        <time>2018-05-01T13:03:53.000Z</time>
      </trkpt>
      <trkpt lat="47.24354" lon="6.45515">
        <ele>643.40002441406</ele>
        <time>2018-05-01T13:04:00.000Z</time>
      </trkpt>
      <trkpt lat="47.24351" lon="6.4552">
        <ele>643</ele>
        <time>2018-05-01T13:04:01.000Z</time>
      </trkpt>
      <trkpt lat="47.24347" lon="6.45531">
        <ele>642.20001220703</ele>
        <time>2018-05-01T13:04:03.000Z</time>
      </trkpt>
      <trkpt lat="47.24342" lon="6.45543">
        <ele>641.20001220703</ele>
        <time>2018-05-01T13:04:05.000Z</time>
      </trkpt>
      <trkpt lat="47.24337" lon="6.45577">
        <ele>639.79998779297</ele>
        <time>2018-05-01T13:04:10.000Z</time>
      </trkpt>
      <trkpt lat="47.24338" lon="6.45613">
        <ele>640</ele>
        <time>2018-05-01T13:04:15.000Z</time>
      </trkpt>
      <trkpt lat="47.24339" lon="6.45627">
        <ele>640</ele>
        <time>2018-05-01T13:04:17.000Z</time>
      </trkpt>
      <trkpt lat="47.2434" lon="6.45633">
        <ele>640.20001220703</ele>
        <time>2018-05-01T13:04:18.000Z</time>
      </trkpt>
      <trkpt lat="47.24342" lon="6.45653">
        <ele>640.40002441406</ele>
        <time>2018-05-01T13:04:21.000Z</time>
      </trkpt>
      <trkpt lat="47.24343" lon="6.4566">
        <ele>640.40002441406</ele>
        <time>2018-05-01T13:04:22.000Z</time>
      </trkpt>
      <trkpt lat="47.24344" lon="6.45673">
        <ele>641</ele>
        <time>2018-05-01T13:04:24.000Z</time>
      </trkpt>
      <trkpt lat="47.2435" lon="6.45704">
        <ele>643</ele>
        <time>2018-05-01T13:04:29.000Z</time>
      </trkpt>
      <trkpt lat="47.24353" lon="6.45729">
        <ele>644.59997558594</ele>
        <time>2018-05-01T13:04:33.000Z</time>
      </trkpt>
      <trkpt lat="47.24357" lon="6.45754">
        <ele>645.20001220703</ele>
        <time>2018-05-01T13:04:37.000Z</time>
      </trkpt>
      <trkpt lat="47.24359" lon="6.45767">
        <ele>645.79998779297</ele>
        <time>2018-05-01T13:04:39.000Z</time>
      </trkpt>
      <trkpt lat="47.24362" lon="6.45784">
        <ele>647</ele>
        <time>2018-05-01T13:04:42.000Z</time>
      </trkpt>
      <trkpt lat="47.24362" lon="6.4579">
        <ele>647.40002441406</ele>
        <time>2018-05-01T13:04:43.000Z</time>
      </trkpt>
      <trkpt lat="47.24362" lon="6.45796">
        <ele>647.79998779297</ele>
        <time>2018-05-01T13:04:44.000Z</time>
      </trkpt>
      <trkpt lat="47.24361" lon="6.45809">
        <ele>648.59997558594</ele>
        <time>2018-05-01T13:04:46.000Z</time>
      </trkpt>
      <trkpt lat="47.24357" lon="6.45834">
        <ele>650.40002441406</ele>
        <time>2018-05-01T13:04:51.000Z</time>
      </trkpt>
      <trkpt lat="47.24356" lon="6.45838">
        <ele>650.59997558594</ele>
        <time>2018-05-01T13:04:52.000Z</time>
      </trkpt>
      <trkpt lat="47.24353" lon="6.45848">
        <ele>651</ele>
        <time>2018-05-01T13:04:55.000Z</time>
      </trkpt>
      <trkpt lat="47.24351" lon="6.45854">
        <ele>651</ele>
        <time>2018-05-01T13:04:57.000Z</time>
      </trkpt>
      <trkpt lat="47.24344" lon="6.45867">
        <ele>651</ele>
        <time>2018-05-01T13:05:03.000Z</time>
      </trkpt>
      <trkpt lat="47.24342" lon="6.45874">
        <ele>651</ele>
        <time>2018-05-01T13:05:06.000Z</time>
      </trkpt>
      <trkpt lat="47.24342" lon="6.45877">
        <ele>651</ele>
        <time>2018-05-01T13:05:08.000Z</time>
      </trkpt>
      <trkpt lat="47.24344" lon="6.45874">
        <ele>651</ele>
        <time>2018-05-01T13:05:11.000Z</time>
      </trkpt>
      <trkpt lat="47.24345" lon="6.45869">
        <ele>651</ele>
        <time>2018-05-01T13:05:13.000Z</time>
      </trkpt>
      <trkpt lat="47.24348" lon="6.45864">
        <ele>651</ele>
        <time>2018-05-01T13:05:15.000Z</time>
      </trkpt>
      <trkpt lat="47.2435" lon="6.4586">
        <ele>651</ele>
        <time>2018-05-01T13:05:17.000Z</time>
      </trkpt>
      <trkpt lat="47.24352" lon="6.45859">
        <ele>651</ele>
        <time>2018-05-01T13:05:18.000Z</time>
      </trkpt>
      <trkpt lat="47.24353" lon="6.45859">
        <ele>651</ele>
        <time>2018-05-01T13:05:19.000Z</time>
      </trkpt>
      <trkpt lat="47.24356" lon="6.45859">
        <ele>651.20001220703</ele>
        <time>2018-05-01T13:05:21.000Z</time>
      </trkpt>
      <trkpt lat="47.24359" lon="6.4586">
        <ele>651.20001220703</ele>
        <time>2018-05-01T13:05:23.000Z</time>
      </trkpt>
      <trkpt lat="47.2436" lon="6.45862">
        <ele>651.20001220703</ele>
        <time>2018-05-01T13:05:24.000Z</time>
      </trkpt>
      <trkpt lat="47.24361" lon="6.45864">
        <ele>651.40002441406</ele>
        <time>2018-05-01T13:05:25.000Z</time>
      </trkpt>
      <trkpt lat="47.24363" lon="6.45869">
        <ele>651.40002441406</ele>
        <time>2018-05-01T13:05:27.000Z</time>
      </trkpt>
      <trkpt lat="47.24364" lon="6.45875">
        <ele>651.59997558594</ele>
        <time>2018-05-01T13:05:29.000Z</time>
      </trkpt>
      <trkpt lat="47.24364" lon="6.45878">
        <ele>651.59997558594</ele>
        <time>2018-05-01T13:05:30.000Z</time>
      </trkpt>
      <trkpt lat="47.24365" lon="6.45885">
        <ele>651.79998779297</ele>
        <time>2018-05-01T13:05:32.000Z</time>
      </trkpt>
      <trkpt lat="47.24364" lon="6.45891">
        <ele>651.79998779297</ele>
        <time>2018-05-01T13:05:34.000Z</time>
      </trkpt>
      <trkpt lat="47.24365" lon="6.45894">
        <ele>651.79998779297</ele>
        <time>2018-05-01T13:05:35.000Z</time>
      </trkpt>
      <trkpt lat="47.2437" lon="6.459">
        <ele>652</ele>
        <time>2018-05-01T13:05:39.000Z</time>
      </trkpt>
      <trkpt lat="47.24377" lon="6.45911">
        <ele>653.59997558594</ele>
        <time>2018-05-01T13:05:44.000Z</time>
      </trkpt>
      <trkpt lat="47.24379" lon="6.45924">
        <ele>655.20001220703</ele>
        <time>2018-05-01T13:05:49.000Z</time>
      </trkpt>
      <trkpt lat="47.2438" lon="6.45926">
        <ele>655.40002441406</ele>
        <time>2018-05-01T13:05:50.000Z</time>
      </trkpt>
      <trkpt lat="47.2439" lon="6.45942">
        <ele>657.59997558594</ele>
        <time>2018-05-01T13:05:56.000Z</time>
      </trkpt>
      <trkpt lat="47.24391" lon="6.45944">
        <ele>657.79998779297</ele>
        <time>2018-05-01T13:05:57.000Z</time>
      </trkpt>
      <trkpt lat="47.24392" lon="6.45946">
        <ele>658.20001220703</ele>
        <time>2018-05-01T13:05:58.000Z</time>
      </trkpt>
      <trkpt lat="47.24392" lon="6.4595">
        <ele>658.59997558594</ele>
        <time>2018-05-01T13:06:00.000Z</time>
      </trkpt>
      <trkpt lat="47.24394" lon="6.45952">
        <ele>658.79998779297</ele>
        <time>2018-05-01T13:06:01.000Z</time>
      </trkpt>
      <trkpt lat="47.24397" lon="6.45956">
        <ele>659.40002441406</ele>
        <time>2018-05-01T13:06:03.000Z</time>
      </trkpt>
      <trkpt lat="47.24402" lon="6.45964">
        <ele>660.59997558594</ele>
        <time>2018-05-01T13:06:07.000Z</time>
      </trkpt>
      <trkpt lat="47.24403" lon="6.45968">
        <ele>661</ele>
        <time>2018-05-01T13:06:09.000Z</time>
      </trkpt>
      <trkpt lat="47.24404" lon="6.45975">
        <ele>661.79998779297</ele>
        <time>2018-05-01T13:06:12.000Z</time>
      </trkpt>
      <trkpt lat="47.24405" lon="6.45977">
        <ele>662</ele>
        <time>2018-05-01T13:06:13.000Z</time>
      </trkpt>
      <trkpt lat="47.24408" lon="6.45981">
        <ele>662.40002441406</ele>
        <time>2018-05-01T13:06:15.000Z</time>
      </trkpt>
      <trkpt lat="47.24413" lon="6.45993">
        <ele>663.40002441406</ele>
        <time>2018-05-01T13:06:21.000Z</time>
      </trkpt>
      <trkpt lat="47.24415" lon="6.45996">
        <ele>663.59997558594</ele>
        <time>2018-05-01T13:06:23.000Z</time>
      </trkpt>
      <trkpt lat="47.24416" lon="6.45997">
        <ele>663.40002441406</ele>
        <time>2018-05-01T13:06:25.000Z</time>
      </trkpt>
      <trkpt lat="47.24417" lon="6.45997">
        <ele>663.40002441406</ele>
        <time>2018-05-01T13:06:26.000Z</time>
      </trkpt>
      <trkpt lat="47.24417" lon="6.45997">
        <ele>663.40002441406</ele>
        <time>2018-05-01T13:06:34.000Z</time>
      </trkpt>
      <trkpt lat="47.24417" lon="6.45997">
        <ele>663.40002441406</ele>
        <time>2018-05-01T13:06:40.000Z</time>
      </trkpt>
      <trkpt lat="47.24417" lon="6.45997">
        <ele>663.40002441406</ele>
        <time>2018-05-01T13:06:47.000Z</time>
      </trkpt>
      <trkpt lat="47.24417" lon="6.45998">
        <ele>663.59997558594</ele>
        <time>2018-05-01T13:06:54.000Z</time>
      </trkpt>
      <trkpt lat="47.2442" lon="6.46004">
        <ele>663.59997558594</ele>
        <time>2018-05-01T13:06:58.000Z</time>
      </trkpt>
      <trkpt lat="47.24421" lon="6.46006">
        <ele>663.59997558594</ele>
        <time>2018-05-01T13:06:59.000Z</time>
      </trkpt>
      <trkpt lat="47.24421" lon="6.46006">
        <ele>663.79998779297</ele>
        <time>2018-05-01T13:07:00.000Z</time>
      </trkpt>
      <trkpt lat="47.24421" lon="6.46006">
        <ele>663.79998779297</ele>
        <time>2018-05-01T13:07:05.000Z</time>
      </trkpt>
      <trkpt lat="47.24422" lon="6.46008">
        <ele>663.79998779297</ele>
        <time>2018-05-01T13:07:06.000Z</time>
      </trkpt>
      <trkpt lat="47.24425" lon="6.46014">
        <ele>663.79998779297</ele>
        <time>2018-05-01T13:07:08.000Z</time>
      </trkpt>
      <trkpt lat="47.24426" lon="6.46017">
        <ele>664</ele>
        <time>2018-05-01T13:07:09.000Z</time>
      </trkpt>
      <trkpt lat="47.24427" lon="6.4602">
        <ele>664</ele>
        <time>2018-05-01T13:07:10.000Z</time>
      </trkpt>
      <trkpt lat="47.24428" lon="6.46025">
        <ele>664.40002441406</ele>
        <time>2018-05-01T13:07:12.000Z</time>
      </trkpt>
      <trkpt lat="47.24429" lon="6.46028">
        <ele>664.40002441406</ele>
        <time>2018-05-01T13:07:13.000Z</time>
      </trkpt>
      <trkpt lat="47.24432" lon="6.46038">
        <ele>664.79998779297</ele>
        <time>2018-05-01T13:07:17.000Z</time>
      </trkpt>
      <trkpt lat="47.24432" lon="6.4604">
        <ele>664.79998779297</ele>
        <time>2018-05-01T13:07:18.000Z</time>
      </trkpt>
      <trkpt lat="47.24433" lon="6.46053">
        <ele>665.40002441406</ele>
        <time>2018-05-01T13:07:23.000Z</time>
      </trkpt>
      <trkpt lat="47.24435" lon="6.46063">
        <ele>665.79998779297</ele>
        <time>2018-05-01T13:07:27.000Z</time>
      </trkpt>
      <trkpt lat="47.24436" lon="6.46074">
        <ele>667.20001220703</ele>
        <time>2018-05-01T13:07:32.000Z</time>
      </trkpt>
      <trkpt lat="47.24437" lon="6.46077">
        <ele>667.59997558594</ele>
        <time>2018-05-01T13:07:33.000Z</time>
      </trkpt>
      <trkpt lat="47.24443" lon="6.46087">
        <ele>669.20001220703</ele>
        <time>2018-05-01T13:07:38.000Z</time>
      </trkpt>
      <trkpt lat="47.24444" lon="6.4609">
        <ele>669.40002441406</ele>
        <time>2018-05-01T13:07:39.000Z</time>
      </trkpt>
      <trkpt lat="47.24448" lon="6.46099">
        <ele>670.79998779297</ele>
        <time>2018-05-01T13:07:43.000Z</time>
      </trkpt>
      <trkpt lat="47.24449" lon="6.46102">
        <ele>671.20001220703</ele>
        <time>2018-05-01T13:07:44.000Z</time>
      </trkpt>
      <trkpt lat="47.24454" lon="6.46118">
        <ele>672</ele>
        <time>2018-05-01T13:07:50.000Z</time>
      </trkpt>
      <trkpt lat="47.24454" lon="6.4612">
        <ele>672.20001220703</ele>
        <time>2018-05-01T13:07:51.000Z</time>
      </trkpt>
      <trkpt lat="47.24458" lon="6.46133">
        <ele>672.79998779297</ele>
        <time>2018-05-01T13:07:56.000Z</time>
      </trkpt>
      <trkpt lat="47.24459" lon="6.46135">
        <ele>672.79998779297</ele>
        <time>2018-05-01T13:07:57.000Z</time>
      </trkpt>
      <trkpt lat="47.24461" lon="6.46149">
        <ele>673.20001220703</ele>
        <time>2018-05-01T13:08:03.000Z</time>
      </trkpt>
      <trkpt lat="47.2446" lon="6.46152">
        <ele>673.40002441406</ele>
        <time>2018-05-01T13:08:04.000Z</time>
      </trkpt>
      <trkpt lat="47.24463" lon="6.46161">
        <ele>674.79998779297</ele>
        <time>2018-05-01T13:08:08.000Z</time>
      </trkpt>
      <trkpt lat="47.24467" lon="6.46169">
        <ele>676</ele>
        <time>2018-05-01T13:08:11.000Z</time>
      </trkpt>
      <trkpt lat="47.24469" lon="6.46172">
        <ele>676.40002441406</ele>
        <time>2018-05-01T13:08:12.000Z</time>
      </trkpt>
      <trkpt lat="47.2447" lon="6.46174">
        <ele>677</ele>
        <time>2018-05-01T13:08:13.000Z</time>
      </trkpt>
      <trkpt lat="47.24474" lon="6.46183">
        <ele>678.20001220703</ele>
        <time>2018-05-01T13:08:16.000Z</time>
      </trkpt>
      <trkpt lat="47.24476" lon="6.46196">
        <ele>680</ele>
        <time>2018-05-01T13:08:22.000Z</time>
      </trkpt>
      <trkpt lat="47.24476" lon="6.46204">
        <ele>680.79998779297</ele>
        <time>2018-05-01T13:08:25.000Z</time>
      </trkpt>
      <trkpt lat="47.24478" lon="6.46211">
        <ele>681.79998779297</ele>
        <time>2018-05-01T13:08:27.000Z</time>
      </trkpt>
      <trkpt lat="47.24479" lon="6.46214">
        <ele>682.20001220703</ele>
        <time>2018-05-01T13:08:28.000Z</time>
      </trkpt>
      <trkpt lat="47.24481" lon="6.46218">
        <ele>682.79998779297</ele>
        <time>2018-05-01T13:08:30.000Z</time>
      </trkpt>
      <trkpt lat="47.24482" lon="6.46223">
        <ele>683.20001220703</ele>
        <time>2018-05-01T13:08:32.000Z</time>
      </trkpt>
      <trkpt lat="47.24485" lon="6.46238">
        <ele>684.59997558594</ele>
        <time>2018-05-01T13:08:38.000Z</time>
      </trkpt>
      <trkpt lat="47.24488" lon="6.46255">
        <ele>685.59997558594</ele>
        <time>2018-05-01T13:08:44.000Z</time>
      </trkpt>
      <trkpt lat="47.24489" lon="6.4626">
        <ele>686</ele>
        <time>2018-05-01T13:08:46.000Z</time>
      </trkpt>
      <trkpt lat="47.2449" lon="6.46262">
        <ele>686.20001220703</ele>
        <time>2018-05-01T13:08:47.000Z</time>
      </trkpt>
      <trkpt lat="47.24491" lon="6.46267">
        <ele>686.59997558594</ele>
        <time>2018-05-01T13:08:49.000Z</time>
      </trkpt>
      <trkpt lat="47.24498" lon="6.46281">
        <ele>687.40002441406</ele>
        <time>2018-05-01T13:08:55.000Z</time>
      </trkpt>
      <trkpt lat="47.245" lon="6.46287">
        <ele>687.40002441406</ele>
        <time>2018-05-01T13:08:58.000Z</time>
      </trkpt>
      <trkpt lat="47.24499" lon="6.46294">
        <ele>687.79998779297</ele>
        <time>2018-05-01T13:09:01.000Z</time>
      </trkpt>
      <trkpt lat="47.245" lon="6.463">
        <ele>687.79998779297</ele>
        <time>2018-05-01T13:09:03.000Z</time>
      </trkpt>
      <trkpt lat="47.24503" lon="6.46312">
        <ele>687.79998779297</ele>
        <time>2018-05-01T13:09:07.000Z</time>
      </trkpt>
      <trkpt lat="47.24504" lon="6.46315">
        <ele>687.79998779297</ele>
        <time>2018-05-01T13:09:08.000Z</time>
      </trkpt>
      <trkpt lat="47.24505" lon="6.46321">
        <ele>688.20001220703</ele>
        <time>2018-05-01T13:09:10.000Z</time>
      </trkpt>
      <trkpt lat="47.24505" lon="6.46323">
        <ele>688.40002441406</ele>
        <time>2018-05-01T13:09:11.000Z</time>
      </trkpt>
      <trkpt lat="47.24506" lon="6.46328">
        <ele>688.79998779297</ele>
        <time>2018-05-01T13:09:13.000Z</time>
      </trkpt>
      <trkpt lat="47.24507" lon="6.46335">
        <ele>689</ele>
        <time>2018-05-01T13:09:16.000Z</time>
      </trkpt>
      <trkpt lat="47.24508" lon="6.46338">
        <ele>689.20001220703</ele>
        <time>2018-05-01T13:09:17.000Z</time>
      </trkpt>
      <trkpt lat="47.24509" lon="6.46343">
        <ele>689.40002441406</ele>
        <time>2018-05-01T13:09:19.000Z</time>
      </trkpt>
      <trkpt lat="47.2451" lon="6.46345">
        <ele>689.40002441406</ele>
        <time>2018-05-01T13:09:20.000Z</time>
      </trkpt>
      <trkpt lat="47.24511" lon="6.46348">
        <ele>689.40002441406</ele>
        <time>2018-05-01T13:09:21.000Z</time>
      </trkpt>
      <trkpt lat="47.24512" lon="6.46357">
        <ele>689.79998779297</ele>
        <time>2018-05-01T13:09:24.000Z</time>
      </trkpt>
      <trkpt lat="47.24513" lon="6.46365">
        <ele>690</ele>
        <time>2018-05-01T13:09:26.000Z</time>
      </trkpt>
      <trkpt lat="47.24514" lon="6.46368">
        <ele>690.20001220703</ele>
        <time>2018-05-01T13:09:27.000Z</time>
      </trkpt>
      <trkpt lat="47.24514" lon="6.46372">
        <ele>690.40002441406</ele>
        <time>2018-05-01T13:09:28.000Z</time>
      </trkpt>
      <trkpt lat="47.24515" lon="6.46375">
        <ele>690.40002441406</ele>
        <time>2018-05-01T13:09:29.000Z</time>
      </trkpt>
      <trkpt lat="47.24515" lon="6.46378">
        <ele>690.59997558594</ele>
        <time>2018-05-01T13:09:30.000Z</time>
      </trkpt>
      <trkpt lat="47.24516" lon="6.4638">
        <ele>690.59997558594</ele>
        <time>2018-05-01T13:09:31.000Z</time>
      </trkpt>
      <trkpt lat="47.24519" lon="6.46388">
        <ele>690.79998779297</ele>
        <time>2018-05-01T13:09:35.000Z</time>
      </trkpt>
      <trkpt lat="47.24521" lon="6.46397">
        <ele>691</ele>
        <time>2018-05-01T13:09:39.000Z</time>
      </trkpt>
      <trkpt lat="47.24522" lon="6.46399">
        <ele>691.20001220703</ele>
        <time>2018-05-01T13:09:40.000Z</time>
      </trkpt>
      <trkpt lat="47.24522" lon="6.46402">
        <ele>691.40002441406</ele>
        <time>2018-05-01T13:09:41.000Z</time>
      </trkpt>
      <trkpt lat="47.24525" lon="6.46414">
        <ele>692.20001220703</ele>
        <time>2018-05-01T13:09:46.000Z</time>
      </trkpt>
      <trkpt lat="47.24526" lon="6.46427">
        <ele>693.20001220703</ele>
        <time>2018-05-01T13:09:51.000Z</time>
      </trkpt>
      <trkpt lat="47.24526" lon="6.46438">
        <ele>693.40002441406</ele>
        <time>2018-05-01T13:09:55.000Z</time>
      </trkpt>
      <trkpt lat="47.24526" lon="6.46441">
        <ele>693.40002441406</ele>
        <time>2018-05-01T13:09:56.000Z</time>
      </trkpt>
      <trkpt lat="47.24528" lon="6.46446">
        <ele>693.59997558594</ele>
        <time>2018-05-01T13:09:58.000Z</time>
      </trkpt>
      <trkpt lat="47.2453" lon="6.46461">
        <ele>693.79998779297</ele>
        <time>2018-05-01T13:10:02.000Z</time>
      </trkpt>
      <trkpt lat="47.24531" lon="6.46464">
        <ele>693.79998779297</ele>
        <time>2018-05-01T13:10:03.000Z</time>
      </trkpt>
      <trkpt lat="47.24532" lon="6.46471">
        <ele>693.79998779297</ele>
        <time>2018-05-01T13:10:05.000Z</time>
      </trkpt>
      <trkpt lat="47.24534" lon="6.4648">
        <ele>694</ele>
        <time>2018-05-01T13:10:07.000Z</time>
      </trkpt>
      <trkpt lat="47.24534" lon="6.46484">
        <ele>694.20001220703</ele>
        <time>2018-05-01T13:10:08.000Z</time>
      </trkpt>
      <trkpt lat="47.24535" lon="6.46493">
        <ele>695.20001220703</ele>
        <time>2018-05-01T13:10:11.000Z</time>
      </trkpt>
      <trkpt lat="47.24537" lon="6.46497">
        <ele>695.79998779297</ele>
        <time>2018-05-01T13:10:13.000Z</time>
      </trkpt>
      <trkpt lat="47.24538" lon="6.46501">
        <ele>696.20001220703</ele>
        <time>2018-05-01T13:10:15.000Z</time>
      </trkpt>
      <trkpt lat="47.24539" lon="6.46505">
        <ele>696.59997558594</ele>
        <time>2018-05-01T13:10:17.000Z</time>
      </trkpt>
      <trkpt lat="47.24541" lon="6.46513">
        <ele>697.59997558594</ele>
        <time>2018-05-01T13:10:20.000Z</time>
      </trkpt>
      <trkpt lat="47.24542" lon="6.46516">
        <ele>698</ele>
        <time>2018-05-01T13:10:21.000Z</time>
      </trkpt>
      <trkpt lat="47.24544" lon="6.4652">
        <ele>698.40002441406</ele>
        <time>2018-05-01T13:10:22.000Z</time>
      </trkpt>
      <trkpt lat="47.24547" lon="6.46529">
        <ele>699.59997558594</ele>
        <time>2018-05-01T13:10:25.000Z</time>
      </trkpt>
      <trkpt lat="47.24548" lon="6.46531">
        <ele>699.79998779297</ele>
        <time>2018-05-01T13:10:26.000Z</time>
      </trkpt>
      <trkpt lat="47.24548" lon="6.46536">
        <ele>700.40002441406</ele>
        <time>2018-05-01T13:10:28.000Z</time>
      </trkpt>
      <trkpt lat="47.24549" lon="6.46543">
        <ele>700.59997558594</ele>
        <time>2018-05-01T13:10:31.000Z</time>
      </trkpt>
      <trkpt lat="47.2455" lon="6.46546">
        <ele>700.59997558594</ele>
        <time>2018-05-01T13:10:32.000Z</time>
      </trkpt>
      <trkpt lat="47.24551" lon="6.46551">
        <ele>700.79998779297</ele>
        <time>2018-05-01T13:10:34.000Z</time>
      </trkpt>
      <trkpt lat="47.2455" lon="6.46559">
        <ele>701</ele>
        <time>2018-05-01T13:10:37.000Z</time>
      </trkpt>
      <trkpt lat="47.24551" lon="6.46576">
        <ele>701.59997558594</ele>
        <time>2018-05-01T13:10:43.000Z</time>
      </trkpt>
      <trkpt lat="47.24552" lon="6.46585">
        <ele>701.79998779297</ele>
        <time>2018-05-01T13:10:46.000Z</time>
      </trkpt>
      <trkpt lat="47.24553" lon="6.46593">
        <ele>702.20001220703</ele>
        <time>2018-05-01T13:10:49.000Z</time>
      </trkpt>
      <trkpt lat="47.24555" lon="6.46602">
        <ele>702.59997558594</ele>
        <time>2018-05-01T13:10:52.000Z</time>
      </trkpt>
      <trkpt lat="47.24557" lon="6.46612">
        <ele>703</ele>
        <time>2018-05-01T13:10:55.000Z</time>
      </trkpt>
      <trkpt lat="47.2456" lon="6.46623">
        <ele>703.40002441406</ele>
        <time>2018-05-01T13:10:58.000Z</time>
      </trkpt>
      <trkpt lat="47.24561" lon="6.46632">
        <ele>703.79998779297</ele>
        <time>2018-05-01T13:11:00.000Z</time>
      </trkpt>
      <trkpt lat="47.24561" lon="6.46636">
        <ele>703.59997558594</ele>
        <time>2018-05-01T13:11:01.000Z</time>
      </trkpt>
      <trkpt lat="47.24562" lon="6.46641">
        <ele>703.59997558594</ele>
        <time>2018-05-01T13:11:02.000Z</time>
      </trkpt>
      <trkpt lat="47.24562" lon="6.46653">
        <ele>703.40002441406</ele>
        <time>2018-05-01T13:11:05.000Z</time>
      </trkpt>
      <trkpt lat="47.24562" lon="6.46656">
        <ele>703.40002441406</ele>
        <time>2018-05-01T13:11:06.000Z</time>
      </trkpt>
      <trkpt lat="47.24563" lon="6.46663">
        <ele>703.59997558594</ele>
        <time>2018-05-01T13:11:08.000Z</time>
      </trkpt>
      <trkpt lat="47.24562" lon="6.4667">
        <ele>703.59997558594</ele>
        <time>2018-05-01T13:11:10.000Z</time>
      </trkpt>
      <trkpt lat="47.24565" lon="6.46677">
        <ele>704.20001220703</ele>
        <time>2018-05-01T13:11:12.000Z</time>
      </trkpt>
      <trkpt lat="47.24567" lon="6.46688">
        <ele>704.59997558594</ele>
        <time>2018-05-01T13:11:15.000Z</time>
      </trkpt>
      <trkpt lat="47.24568" lon="6.46695">
        <ele>704.79998779297</ele>
        <time>2018-05-01T13:11:17.000Z</time>
      </trkpt>
      <trkpt lat="47.24572" lon="6.46703">
        <ele>705.59997558594</ele>
        <time>2018-05-01T13:11:19.000Z</time>
      </trkpt>
      <trkpt lat="47.24583" lon="6.46728">
        <ele>706.59997558594</ele>
        <time>2018-05-01T13:11:25.000Z</time>
      </trkpt>
      <trkpt lat="47.24587" lon="6.46745">
        <ele>706.79998779297</ele>
        <time>2018-05-01T13:11:29.000Z</time>
      </trkpt>
      <trkpt lat="47.24589" lon="6.4675">
        <ele>706.79998779297</ele>
        <time>2018-05-01T13:11:30.000Z</time>
      </trkpt>
      <trkpt lat="47.2459" lon="6.46754">
        <ele>706.79998779297</ele>
        <time>2018-05-01T13:11:31.000Z</time>
      </trkpt>
      <trkpt lat="47.24591" lon="6.46759">
        <ele>706.59997558594</ele>
        <time>2018-05-01T13:11:32.000Z</time>
      </trkpt>
      <trkpt lat="47.24592" lon="6.46764">
        <ele>706.59997558594</ele>
        <time>2018-05-01T13:11:33.000Z</time>
      </trkpt>
      <trkpt lat="47.24595" lon="6.4677">
        <ele>706.59997558594</ele>
        <time>2018-05-01T13:11:35.000Z</time>
      </trkpt>
      <trkpt lat="47.246" lon="6.46776">
        <ele>706.40002441406</ele>
        <time>2018-05-01T13:11:37.000Z</time>
      </trkpt>
      <trkpt lat="47.24607" lon="6.46786">
        <ele>706.40002441406</ele>
        <time>2018-05-01T13:11:40.000Z</time>
      </trkpt>
      <trkpt lat="47.24616" lon="6.46803">
        <ele>706.20001220703</ele>
        <time>2018-05-01T13:11:45.000Z</time>
      </trkpt>
      <trkpt lat="47.24618" lon="6.46811">
        <ele>706</ele>
        <time>2018-05-01T13:11:47.000Z</time>
      </trkpt>
      <trkpt lat="47.24622" lon="6.46823">
        <ele>706.20001220703</ele>
        <time>2018-05-01T13:11:50.000Z</time>
      </trkpt>
      <trkpt lat="47.24624" lon="6.46837">
        <ele>706.79998779297</ele>
        <time>2018-05-01T13:11:53.000Z</time>
      </trkpt>
      <trkpt lat="47.24624" lon="6.46841">
        <ele>706.79998779297</ele>
        <time>2018-05-01T13:11:54.000Z</time>
      </trkpt>
      <trkpt lat="47.24626" lon="6.46851">
        <ele>707.20001220703</ele>
        <time>2018-05-01T13:11:57.000Z</time>
      </trkpt>
      <trkpt lat="47.24626" lon="6.46859">
        <ele>707.59997558594</ele>
        <time>2018-05-01T13:11:59.000Z</time>
      </trkpt>
      <trkpt lat="47.24625" lon="6.46883">
        <ele>706.59997558594</ele>
        <time>2018-05-01T13:12:04.000Z</time>
      </trkpt>
      <trkpt lat="47.2463" lon="6.46901">
        <ele>706.40002441406</ele>
        <time>2018-05-01T13:12:08.000Z</time>
      </trkpt>
      <trkpt lat="47.24633" lon="6.46909">
        <ele>706.59997558594</ele>
        <time>2018-05-01T13:12:10.000Z</time>
      </trkpt>
      <trkpt lat="47.24642" lon="6.46937">
        <ele>707.79998779297</ele>
        <time>2018-05-01T13:12:16.000Z</time>
      </trkpt>
      <trkpt lat="47.24645" lon="6.46947">
        <ele>708.20001220703</ele>
        <time>2018-05-01T13:12:18.000Z</time>
      </trkpt>
      <trkpt lat="47.24651" lon="6.46963">
        <ele>708.79998779297</ele>
        <time>2018-05-01T13:12:22.000Z</time>
      </trkpt>
      <trkpt lat="47.24662" lon="6.46985">
        <ele>709.79998779297</ele>
        <time>2018-05-01T13:12:27.000Z</time>
      </trkpt>
      <trkpt lat="47.24671" lon="6.47006">
        <ele>708.20001220703</ele>
        <time>2018-05-01T13:12:32.000Z</time>
      </trkpt>
      <trkpt lat="47.24673" lon="6.47009">
        <ele>707.79998779297</ele>
        <time>2018-05-01T13:12:33.000Z</time>
      </trkpt>
      <trkpt lat="47.24677" lon="6.47024">
        <ele>706.79998779297</ele>
        <time>2018-05-01T13:12:36.000Z</time>
      </trkpt>
      <trkpt lat="47.24679" lon="6.47029">
        <ele>706.40002441406</ele>
        <time>2018-05-01T13:12:37.000Z</time>
      </trkpt>
      <trkpt lat="47.24683" lon="6.47043">
        <ele>705.40002441406</ele>
        <time>2018-05-01T13:12:40.000Z</time>
      </trkpt>
      <trkpt lat="47.24684" lon="6.47047">
        <ele>705.20001220703</ele>
        <time>2018-05-01T13:12:41.000Z</time>
      </trkpt>
      <trkpt lat="47.24692" lon="6.47066">
        <ele>703.59997558594</ele>
        <time>2018-05-01T13:12:45.000Z</time>
      </trkpt>
      <trkpt lat="47.247" lon="6.47089">
        <ele>703.20001220703</ele>
        <time>2018-05-01T13:12:50.000Z</time>
      </trkpt>
      <trkpt lat="47.24702" lon="6.47096">
        <ele>703</ele>
        <time>2018-05-01T13:12:52.000Z</time>
      </trkpt>
      <trkpt lat="47.24702" lon="6.471">
        <ele>703.20001220703</ele>
        <time>2018-05-01T13:12:53.000Z</time>
      </trkpt>
      <trkpt lat="47.24701" lon="6.47106">
        <ele>703.20001220703</ele>
        <time>2018-05-01T13:12:54.000Z</time>
      </trkpt>
      <trkpt lat="47.24703" lon="6.4711">
        <ele>702.79998779297</ele>
        <time>2018-05-01T13:12:55.000Z</time>
      </trkpt>
      <trkpt lat="47.24706" lon="6.47123">
        <ele>701.59997558594</ele>
        <time>2018-05-01T13:12:58.000Z</time>
      </trkpt>
      <trkpt lat="47.24707" lon="6.47134">
        <ele>700.59997558594</ele>
        <time>2018-05-01T13:13:00.000Z</time>
      </trkpt>
      <trkpt lat="47.24712" lon="6.47149">
        <ele>699.20001220703</ele>
        <time>2018-05-01T13:13:03.000Z</time>
      </trkpt>
      <trkpt lat="47.24714" lon="6.47154">
        <ele>699.20001220703</ele>
        <time>2018-05-01T13:13:04.000Z</time>
      </trkpt>
      <trkpt lat="47.24724" lon="6.47171">
        <ele>699.79998779297</ele>
        <time>2018-05-01T13:13:08.000Z</time>
      </trkpt>
      <trkpt lat="47.24727" lon="6.47176">
        <ele>699.79998779297</ele>
        <time>2018-05-01T13:13:09.000Z</time>
      </trkpt>
      <trkpt lat="47.24738" lon="6.47201">
        <ele>700.40002441406</ele>
        <time>2018-05-01T13:13:14.000Z</time>
      </trkpt>
      <trkpt lat="47.24745" lon="6.47217">
        <ele>700.79998779297</ele>
        <time>2018-05-01T13:13:18.000Z</time>
      </trkpt>
      <trkpt lat="47.24747" lon="6.47228">
        <ele>700.79998779297</ele>
        <time>2018-05-01T13:13:20.000Z</time>
      </trkpt>
      <trkpt lat="47.24751" lon="6.47242">
        <ele>700.40002441406</ele>
        <time>2018-05-01T13:13:23.000Z</time>
      </trkpt>
      <trkpt lat="47.24753" lon="6.47251">
        <ele>700.20001220703</ele>
        <time>2018-05-01T13:13:25.000Z</time>
      </trkpt>
      <trkpt lat="47.24753" lon="6.47255">
        <ele>700</ele>
        <time>2018-05-01T13:13:26.000Z</time>
      </trkpt>
      <trkpt lat="47.24762" lon="6.47271">
        <ele>699.20001220703</ele>
        <time>2018-05-01T13:13:30.000Z</time>
      </trkpt>
      <trkpt lat="47.24765" lon="6.47285">
        <ele>698.59997558594</ele>
        <time>2018-05-01T13:13:33.000Z</time>
      </trkpt>
      <trkpt lat="47.24767" lon="6.47291">
        <ele>698.40002441406</ele>
        <time>2018-05-01T13:13:34.000Z</time>
      </trkpt>
      <trkpt lat="47.24771" lon="6.47306">
        <ele>697.79998779297</ele>
        <time>2018-05-01T13:13:37.000Z</time>
      </trkpt>
      <trkpt lat="47.24771" lon="6.47316">
        <ele>697.59997558594</ele>
        <time>2018-05-01T13:13:39.000Z</time>
      </trkpt>
      <trkpt lat="47.24769" lon="6.47333">
        <ele>698.79998779297</ele>
        <time>2018-05-01T13:13:42.000Z</time>
      </trkpt>
      <trkpt lat="47.2477" lon="6.47344">
        <ele>699.20001220703</ele>
        <time>2018-05-01T13:13:44.000Z</time>
      </trkpt>
      <trkpt lat="47.24777" lon="6.47358">
        <ele>699.40002441406</ele>
        <time>2018-05-01T13:13:47.000Z</time>
      </trkpt>
      <trkpt lat="47.24781" lon="6.47361">
        <ele>699.40002441406</ele>
        <time>2018-05-01T13:13:48.000Z</time>
      </trkpt>
      <trkpt lat="47.24789" lon="6.47375">
        <ele>699.59997558594</ele>
        <time>2018-05-01T13:13:51.000Z</time>
      </trkpt>
      <trkpt lat="47.24791" lon="6.47379">
        <ele>699.59997558594</ele>
        <time>2018-05-01T13:13:52.000Z</time>
      </trkpt>
      <trkpt lat="47.24794" lon="6.47381">
        <ele>699.59997558594</ele>
        <time>2018-05-01T13:13:53.000Z</time>
      </trkpt>
      <trkpt lat="47.24796" lon="6.47384">
        <ele>699.59997558594</ele>
        <time>2018-05-01T13:13:54.000Z</time>
      </trkpt>
      <trkpt lat="47.24802" lon="6.47399">
        <ele>699.59997558594</ele>
        <time>2018-05-01T13:13:57.000Z</time>
      </trkpt>
      <trkpt lat="47.24805" lon="6.47415">
        <ele>700</ele>
        <time>2018-05-01T13:14:01.000Z</time>
      </trkpt>
      <trkpt lat="47.24805" lon="6.47419">
        <ele>700</ele>
        <time>2018-05-01T13:14:02.000Z</time>
      </trkpt>
      <trkpt lat="47.24804" lon="6.47426">
        <ele>700</ele>
        <time>2018-05-01T13:14:04.000Z</time>
      </trkpt>
      <trkpt lat="47.24804" lon="6.47431">
        <ele>700</ele>
        <time>2018-05-01T13:14:05.000Z</time>
      </trkpt>
      <trkpt lat="47.24805" lon="6.47435">
        <ele>700.20001220703</ele>
        <time>2018-05-01T13:14:06.000Z</time>
      </trkpt>
      <trkpt lat="47.24808" lon="6.47438">
        <ele>700.20001220703</ele>
        <time>2018-05-01T13:14:07.000Z</time>
      </trkpt>
      <trkpt lat="47.2481" lon="6.47448">
        <ele>700.40002441406</ele>
        <time>2018-05-01T13:14:09.000Z</time>
      </trkpt>
      <trkpt lat="47.24812" lon="6.47457">
        <ele>700.40002441406</ele>
        <time>2018-05-01T13:14:11.000Z</time>
      </trkpt>
      <trkpt lat="47.24812" lon="6.47461">
        <ele>700.59997558594</ele>
        <time>2018-05-01T13:14:12.000Z</time>
      </trkpt>
      <trkpt lat="47.24811" lon="6.47465">
        <ele>700.59997558594</ele>
        <time>2018-05-01T13:14:13.000Z</time>
      </trkpt>
      <trkpt lat="47.24809" lon="6.47468">
        <ele>700.59997558594</ele>
        <time>2018-05-01T13:14:14.000Z</time>
      </trkpt>
      <trkpt lat="47.24806" lon="6.47475">
        <ele>700.40002441406</ele>
        <time>2018-05-01T13:14:16.000Z</time>
      </trkpt>
      <trkpt lat="47.24803" lon="6.47479">
        <ele>700.40002441406</ele>
        <time>2018-05-01T13:14:17.000Z</time>
      </trkpt>
      <trkpt lat="47.24801" lon="6.47482">
        <ele>700.40002441406</ele>
        <time>2018-05-01T13:14:18.000Z</time>
      </trkpt>
      <trkpt lat="47.24799" lon="6.47486">
        <ele>700.20001220703</ele>
        <time>2018-05-01T13:14:19.000Z</time>
      </trkpt>
      <trkpt lat="47.24796" lon="6.47489">
        <ele>700.20001220703</ele>
        <time>2018-05-01T13:14:20.000Z</time>
      </trkpt>
      <trkpt lat="47.24794" lon="6.47491">
        <ele>700.20001220703</ele>
        <time>2018-05-01T13:14:21.000Z</time>
      </trkpt>
      <trkpt lat="47.24792" lon="6.47493">
        <ele>700.20001220703</ele>
        <time>2018-05-01T13:14:22.000Z</time>
      </trkpt>
      <trkpt lat="47.24789" lon="6.47494">
        <ele>700</ele>
        <time>2018-05-01T13:14:23.000Z</time>
      </trkpt>
      <trkpt lat="47.24784" lon="6.47495">
        <ele>700</ele>
        <time>2018-05-01T13:14:25.000Z</time>
      </trkpt>
      <trkpt lat="47.24782" lon="6.47495">
        <ele>699.79998779297</ele>
        <time>2018-05-01T13:14:26.000Z</time>
      </trkpt>
      <trkpt lat="47.24781" lon="6.47494">
        <ele>699.79998779297</ele>
        <time>2018-05-01T13:14:27.000Z</time>
      </trkpt>
      <trkpt lat="47.24773" lon="6.47496">
        <ele>699.59997558594</ele>
        <time>2018-05-01T13:14:30.000Z</time>
      </trkpt>
      <trkpt lat="47.24771" lon="6.47497">
        <ele>699.59997558594</ele>
        <time>2018-05-01T13:14:31.000Z</time>
      </trkpt>
      <trkpt lat="47.24769" lon="6.47499">
        <ele>699.59997558594</ele>
        <time>2018-05-01T13:14:32.000Z</time>
      </trkpt>
      <trkpt lat="47.24762" lon="6.47507">
        <ele>699.59997558594</ele>
        <time>2018-05-01T13:14:35.000Z</time>
      </trkpt>
      <trkpt lat="47.2475" lon="6.47513">
        <ele>700</ele>
        <time>2018-05-01T13:14:40.000Z</time>
      </trkpt>
      <trkpt lat="47.24746" lon="6.47515">
        <ele>700.20001220703</ele>
        <time>2018-05-01T13:14:42.000Z</time>
      </trkpt>
      <trkpt lat="47.24742" lon="6.47518">
        <ele>700</ele>
        <time>2018-05-01T13:14:44.000Z</time>
      </trkpt>
      <trkpt lat="47.24737" lon="6.47522">
        <ele>699.79998779297</ele>
        <time>2018-05-01T13:14:46.000Z</time>
      </trkpt>
      <trkpt lat="47.24735" lon="6.47524">
        <ele>699.59997558594</ele>
        <time>2018-05-01T13:14:47.000Z</time>
      </trkpt>
      <trkpt lat="47.24732" lon="6.47527">
        <ele>699.59997558594</ele>
        <time>2018-05-01T13:14:48.000Z</time>
      </trkpt>
      <trkpt lat="47.24724" lon="6.47532">
        <ele>699.20001220703</ele>
        <time>2018-05-01T13:14:51.000Z</time>
      </trkpt>
      <trkpt lat="47.24721" lon="6.47536">
        <ele>699</ele>
        <time>2018-05-01T13:14:53.000Z</time>
      </trkpt>
      <trkpt lat="47.24703" lon="6.4755">
        <ele>698</ele>
        <time>2018-05-01T13:14:59.000Z</time>
      </trkpt>
      <trkpt lat="47.24699" lon="6.47554">
        <ele>697.79998779297</ele>
        <time>2018-05-01T13:15:01.000Z</time>
      </trkpt>
      <trkpt lat="47.24697" lon="6.47556">
        <ele>697.59997558594</ele>
        <time>2018-05-01T13:15:02.000Z</time>
      </trkpt>
      <trkpt lat="47.24695" lon="6.47557">
        <ele>697.59997558594</ele>
        <time>2018-05-01T13:15:03.000Z</time>
      </trkpt>
      <trkpt lat="47.24695" lon="6.47559">
        <ele>697.59997558594</ele>
        <time>2018-05-01T13:15:07.000Z</time>
      </trkpt>
      <trkpt lat="47.24695" lon="6.4756">
        <ele>697.59997558594</ele>
        <time>2018-05-01T13:15:09.000Z</time>
      </trkpt>
      <trkpt lat="47.24694" lon="6.47561">
        <ele>697.59997558594</ele>
        <time>2018-05-01T13:15:11.000Z</time>
      </trkpt>
      <trkpt lat="47.24695" lon="6.47561">
        <ele>697.59997558594</ele>
        <time>2018-05-01T13:15:15.000Z</time>
      </trkpt>
      <trkpt lat="47.24695" lon="6.47561">
        <ele>697.59997558594</ele>
        <time>2018-05-01T13:15:16.000Z</time>
      </trkpt>
      <trkpt lat="47.24696" lon="6.47562">
        <ele>697.59997558594</ele>
        <time>2018-05-01T13:15:17.000Z</time>
      </trkpt>
      <trkpt lat="47.2469" lon="6.47572">
        <ele>697.59997558594</ele>
        <time>2018-05-01T13:15:18.000Z</time>
      </trkpt>
      <trkpt lat="47.24689" lon="6.47577">
        <ele>697.59997558594</ele>
        <time>2018-05-01T13:15:19.000Z</time>
      </trkpt>
      <trkpt lat="47.24689" lon="6.47578">
        <ele>697.59997558594</ele>
        <time>2018-05-01T13:15:20.000Z</time>
      </trkpt>
      <trkpt lat="47.2469" lon="6.47578">
        <ele>697.79998779297</ele>
        <time>2018-05-01T13:15:21.000Z</time>
      </trkpt>
      <trkpt lat="47.24692" lon="6.47578">
        <ele>698</ele>
        <time>2018-05-01T13:15:22.000Z</time>
      </trkpt>
      <trkpt lat="47.24694" lon="6.47577">
        <ele>698</ele>
        <time>2018-05-01T13:15:23.000Z</time>
      </trkpt>
      <trkpt lat="47.24697" lon="6.47576">
        <ele>698.20001220703</ele>
        <time>2018-05-01T13:15:24.000Z</time>
      </trkpt>
      <trkpt lat="47.24698" lon="6.47575">
        <ele>698.40002441406</ele>
        <time>2018-05-01T13:15:25.000Z</time>
      </trkpt>
      <trkpt lat="47.24702" lon="6.4757">
        <ele>698.40002441406</ele>
        <time>2018-05-01T13:15:27.000Z</time>
      </trkpt>
      <trkpt lat="47.24713" lon="6.47564">
        <ele>699.20001220703</ele>
        <time>2018-05-01T13:15:31.000Z</time>
      </trkpt>
      <trkpt lat="47.24722" lon="6.47558">
        <ele>699.79998779297</ele>
        <time>2018-05-01T13:15:35.000Z</time>
      </trkpt>
      <trkpt lat="47.24726" lon="6.47555">
        <ele>700</ele>
        <time>2018-05-01T13:15:37.000Z</time>
      </trkpt>
      <trkpt lat="47.24735" lon="6.4755">
        <ele>700.59997558594</ele>
        <time>2018-05-01T13:15:40.000Z</time>
      </trkpt>
      <trkpt lat="47.24738" lon="6.47549">
        <ele>700.79998779297</ele>
        <time>2018-05-01T13:15:41.000Z</time>
      </trkpt>
      <trkpt lat="47.24741" lon="6.47544">
        <ele>700.79998779297</ele>
        <time>2018-05-01T13:15:43.000Z</time>
      </trkpt>
      <trkpt lat="47.24742" lon="6.47542">
        <ele>700.79998779297</ele>
        <time>2018-05-01T13:15:44.000Z</time>
      </trkpt>
      <trkpt lat="47.24743" lon="6.47542">
        <ele>700.79998779297</ele>
        <time>2018-05-01T13:15:46.000Z</time>
      </trkpt>
      <trkpt lat="47.24742" lon="6.47542">
        <ele>700.79998779297</ele>
        <time>2018-05-01T13:15:50.000Z</time>
      </trkpt>
      <trkpt lat="47.24742" lon="6.47542">
        <ele>700.79998779297</ele>
        <time>2018-05-01T13:16:00.000Z</time>
      </trkpt>
      <trkpt lat="47.24742" lon="6.47542">
        <ele>700.79998779297</ele>
        <time>2018-05-01T13:16:04.000Z</time>
      </trkpt>
      <trkpt lat="47.24741" lon="6.47541">
        <ele>700.79998779297</ele>
        <time>2018-05-01T13:16:05.000Z</time>
      </trkpt>
      <trkpt lat="47.2474" lon="6.47542">
        <ele>700.79998779297</ele>
        <time>2018-05-01T13:16:06.000Z</time>
      </trkpt>
      <trkpt lat="47.2474" lon="6.47542">
        <ele>700.59997558594</ele>
        <time>2018-05-01T13:16:07.000Z</time>
      </trkpt>
      <trkpt lat="47.24738" lon="6.47544">
        <ele>700.59997558594</ele>
        <time>2018-05-01T13:16:09.000Z</time>
      </trkpt>
      <trkpt lat="47.24734" lon="6.47546">
        <ele>700.40002441406</ele>
        <time>2018-05-01T13:16:11.000Z</time>
      </trkpt>
      <trkpt lat="47.24731" lon="6.47549">
        <ele>700.20001220703</ele>
        <time>2018-05-01T13:16:13.000Z</time>
      </trkpt>
      <trkpt lat="47.24728" lon="6.4755">
        <ele>700</ele>
        <time>2018-05-01T13:16:15.000Z</time>
      </trkpt>
      <trkpt lat="47.24725" lon="6.47552">
        <ele>700</ele>
        <time>2018-05-01T13:16:17.000Z</time>
      </trkpt>
      <trkpt lat="47.24724" lon="6.47553">
        <ele>699.79998779297</ele>
        <time>2018-05-01T13:16:18.000Z</time>
      </trkpt>
      <trkpt lat="47.24723" lon="6.47556">
        <ele>699.79998779297</ele>
        <time>2018-05-01T13:16:19.000Z</time>
      </trkpt>
      <trkpt lat="47.24722" lon="6.47561">
        <ele>699.79998779297</ele>
        <time>2018-05-01T13:16:21.000Z</time>
      </trkpt>
      <trkpt lat="47.24723" lon="6.47563">
        <ele>700</ele>
        <time>2018-05-01T13:16:22.000Z</time>
      </trkpt>
      <trkpt lat="47.24725" lon="6.47576">
        <ele>700.59997558594</ele>
        <time>2018-05-01T13:16:25.000Z</time>
      </trkpt>
      <trkpt lat="47.24728" lon="6.47597">
        <ele>701.59997558594</ele>
        <time>2018-05-01T13:16:30.000Z</time>
      </trkpt>
      <trkpt lat="47.24731" lon="6.4761">
        <ele>702.20001220703</ele>
        <time>2018-05-01T13:16:33.000Z</time>
      </trkpt>
      <trkpt lat="47.24731" lon="6.47614">
        <ele>702.40002441406</ele>
        <time>2018-05-01T13:16:34.000Z</time>
      </trkpt>
      <trkpt lat="47.24732" lon="6.47618">
        <ele>702.59997558594</ele>
        <time>2018-05-01T13:16:35.000Z</time>
      </trkpt>
      <trkpt lat="47.24733" lon="6.47625">
        <ele>703</ele>
        <time>2018-05-01T13:16:37.000Z</time>
      </trkpt>
      <trkpt lat="47.24734" lon="6.4763">
        <ele>703.20001220703</ele>
        <time>2018-05-01T13:16:38.000Z</time>
      </trkpt>
      <trkpt lat="47.24734" lon="6.47639">
        <ele>703.59997558594</ele>
        <time>2018-05-01T13:16:40.000Z</time>
      </trkpt>
      <trkpt lat="47.24736" lon="6.47664">
        <ele>703.40002441406</ele>
        <time>2018-05-01T13:16:45.000Z</time>
      </trkpt>
      <trkpt lat="47.2474" lon="6.47689">
        <ele>702.59997558594</ele>
        <time>2018-05-01T13:16:50.000Z</time>
      </trkpt>
      <trkpt lat="47.24748" lon="6.47714">
        <ele>701.79998779297</ele>
        <time>2018-05-01T13:16:55.000Z</time>
      </trkpt>
      <trkpt lat="47.24749" lon="6.4772">
        <ele>701.59997558594</ele>
        <time>2018-05-01T13:16:56.000Z</time>
      </trkpt>
      <trkpt lat="47.24754" lon="6.47747">
        <ele>700.79998779297</ele>
        <time>2018-05-01T13:17:01.000Z</time>
      </trkpt>
      <trkpt lat="47.24755" lon="6.47752">
        <ele>700.79998779297</ele>
        <time>2018-05-01T13:17:02.000Z</time>
      </trkpt>
      <trkpt lat="47.24755" lon="6.47767">
        <ele>700.79998779297</ele>
        <time>2018-05-01T13:17:05.000Z</time>
      </trkpt>
      <trkpt lat="47.24755" lon="6.47772">
        <ele>700.79998779297</ele>
        <time>2018-05-01T13:17:06.000Z</time>
      </trkpt>
      <trkpt lat="47.24758" lon="6.47797">
        <ele>700.79998779297</ele>
        <time>2018-05-01T13:17:11.000Z</time>
      </trkpt>
      <trkpt lat="47.24759" lon="6.4781">
        <ele>700.79998779297</ele>
        <time>2018-05-01T13:17:14.000Z</time>
      </trkpt>
      <trkpt lat="47.24759" lon="6.47819">
        <ele>700.79998779297</ele>
        <time>2018-05-01T13:17:16.000Z</time>
      </trkpt>
      <trkpt lat="47.2476" lon="6.47823">
        <ele>700.79998779297</ele>
        <time>2018-05-01T13:17:17.000Z</time>
      </trkpt>
      <trkpt lat="47.24762" lon="6.47841">
        <ele>700.40002441406</ele>
        <time>2018-05-01T13:17:20.000Z</time>
      </trkpt>
      <trkpt lat="47.24764" lon="6.47853">
        <ele>700.20001220703</ele>
        <time>2018-05-01T13:17:22.000Z</time>
      </trkpt>
      <trkpt lat="47.24767" lon="6.47863">
        <ele>699.79998779297</ele>
        <time>2018-05-01T13:17:24.000Z</time>
      </trkpt>
      <trkpt lat="47.24768" lon="6.47872">
        <ele>699.59997558594</ele>
        <time>2018-05-01T13:17:26.000Z</time>
      </trkpt>
      <trkpt lat="47.24768" lon="6.47883">
        <ele>699.40002441406</ele>
        <time>2018-05-01T13:17:28.000Z</time>
      </trkpt>
      <trkpt lat="47.24772" lon="6.47904">
        <ele>699</ele>
        <time>2018-05-01T13:17:32.000Z</time>
      </trkpt>
      <trkpt lat="47.24775" lon="6.47932">
        <ele>699</ele>
        <time>2018-05-01T13:17:37.000Z</time>
      </trkpt>
      <trkpt lat="47.24777" lon="6.4795">
        <ele>698.59997558594</ele>
        <time>2018-05-01T13:17:40.000Z</time>
      </trkpt>
      <trkpt lat="47.24778" lon="6.4796">
        <ele>698.40002441406</ele>
        <time>2018-05-01T13:17:42.000Z</time>
      </trkpt>
      <trkpt lat="47.2478" lon="6.47973">
        <ele>698</ele>
        <time>2018-05-01T13:17:45.000Z</time>
      </trkpt>
      <trkpt lat="47.24779" lon="6.47977">
        <ele>698</ele>
        <time>2018-05-01T13:17:46.000Z</time>
      </trkpt>
      <trkpt lat="47.24779" lon="6.47985">
        <ele>697.79998779297</ele>
        <time>2018-05-01T13:17:48.000Z</time>
      </trkpt>
      <trkpt lat="47.24781" lon="6.47988">
        <ele>697.79998779297</ele>
        <time>2018-05-01T13:17:49.000Z</time>
      </trkpt>
      <trkpt lat="47.24782" lon="6.47992">
        <ele>698</ele>
        <time>2018-05-01T13:17:50.000Z</time>
      </trkpt>
      <trkpt lat="47.24784" lon="6.48001">
        <ele>698.20001220703</ele>
        <time>2018-05-01T13:17:52.000Z</time>
      </trkpt>
      <trkpt lat="47.24784" lon="6.4801">
        <ele>698.20001220703</ele>
        <time>2018-05-01T13:17:54.000Z</time>
      </trkpt>
      <trkpt lat="47.24785" lon="6.48019">
        <ele>698.40002441406</ele>
        <time>2018-05-01T13:17:56.000Z</time>
      </trkpt>
      <trkpt lat="47.24786" lon="6.4803">
        <ele>698.20001220703</ele>
        <time>2018-05-01T13:17:58.000Z</time>
      </trkpt>
      <trkpt lat="47.24787" lon="6.48037">
        <ele>698.20001220703</ele>
        <time>2018-05-01T13:17:59.000Z</time>
      </trkpt>
      <trkpt lat="47.24788" lon="6.48042">
        <ele>698.20001220703</ele>
        <time>2018-05-01T13:18:00.000Z</time>
      </trkpt>
      <trkpt lat="47.24791" lon="6.48057">
        <ele>698</ele>
        <time>2018-05-01T13:18:03.000Z</time>
      </trkpt>
      <trkpt lat="47.24792" lon="6.4806">
        <ele>698</ele>
        <time>2018-05-01T13:18:04.000Z</time>
      </trkpt>
      <trkpt lat="47.24797" lon="6.48072">
        <ele>698.20001220703</ele>
        <time>2018-05-01T13:18:07.000Z</time>
      </trkpt>
      <trkpt lat="47.24798" lon="6.48078">
        <ele>698.40002441406</ele>
        <time>2018-05-01T13:18:08.000Z</time>
      </trkpt>
      <trkpt lat="47.24804" lon="6.48102">
        <ele>699.40002441406</ele>
        <time>2018-05-01T13:18:12.000Z</time>
      </trkpt>
      <trkpt lat="47.24812" lon="6.48129">
        <ele>700.40002441406</ele>
        <time>2018-05-01T13:18:17.000Z</time>
      </trkpt>
      <trkpt lat="47.24818" lon="6.48149">
        <ele>701.20001220703</ele>
        <time>2018-05-01T13:18:21.000Z</time>
      </trkpt>
      <trkpt lat="47.24827" lon="6.48174">
        <ele>701.59997558594</ele>
        <time>2018-05-01T13:18:26.000Z</time>
      </trkpt>
      <trkpt lat="47.24834" lon="6.48188">
        <ele>701.40002441406</ele>
        <time>2018-05-01T13:18:30.000Z</time>
      </trkpt>
      <trkpt lat="47.2484" lon="6.48194">
        <ele>701</ele>
        <time>2018-05-01T13:18:33.000Z</time>
      </trkpt>
      <trkpt lat="47.24844" lon="6.48196">
        <ele>700.79998779297</ele>
        <time>2018-05-01T13:18:36.000Z</time>
      </trkpt>
      <trkpt lat="47.24856" lon="6.48193">
        <ele>700.59997558594</ele>
        <time>2018-05-01T13:18:40.000Z</time>
      </trkpt>
      <trkpt lat="47.24864" lon="6.48192">
        <ele>700.20001220703</ele>
        <time>2018-05-01T13:18:42.000Z</time>
      </trkpt>
      <trkpt lat="47.2487" lon="6.48195">
        <ele>700</ele>
        <time>2018-05-01T13:18:44.000Z</time>
      </trkpt>
      <trkpt lat="47.24879" lon="6.48203">
        <ele>699.59997558594</ele>
        <time>2018-05-01T13:18:47.000Z</time>
      </trkpt>
      <trkpt lat="47.24882" lon="6.4821">
        <ele>699.40002441406</ele>
        <time>2018-05-01T13:18:49.000Z</time>
      </trkpt>
      <trkpt lat="47.24895" lon="6.4822">
        <ele>698.79998779297</ele>
        <time>2018-05-01T13:18:53.000Z</time>
      </trkpt>
      <trkpt lat="47.24899" lon="6.48232">
        <ele>698.40002441406</ele>
        <time>2018-05-01T13:18:56.000Z</time>
      </trkpt>
      <trkpt lat="47.24902" lon="6.48237">
        <ele>698.59997558594</ele>
        <time>2018-05-01T13:18:57.000Z</time>
      </trkpt>
      <trkpt lat="47.2491" lon="6.48247">
        <ele>698.79998779297</ele>
        <time>2018-05-01T13:19:00.000Z</time>
      </trkpt>
      <trkpt lat="47.24918" lon="6.48254">
        <ele>698.40002441406</ele>
        <time>2018-05-01T13:19:02.000Z</time>
      </trkpt>
      <trkpt lat="47.24923" lon="6.48263">
        <ele>698.40002441406</ele>
        <time>2018-05-01T13:19:04.000Z</time>
      </trkpt>
      <trkpt lat="47.24924" lon="6.48268">
        <ele>698.40002441406</ele>
        <time>2018-05-01T13:19:05.000Z</time>
      </trkpt>
      <trkpt lat="47.24928" lon="6.48277">
        <ele>698.40002441406</ele>
        <time>2018-05-01T13:19:07.000Z</time>
      </trkpt>
      <trkpt lat="47.24934" lon="6.4829">
        <ele>698.40002441406</ele>
        <time>2018-05-01T13:19:10.000Z</time>
      </trkpt>
      <trkpt lat="47.24937" lon="6.48294">
        <ele>698.40002441406</ele>
        <time>2018-05-01T13:19:11.000Z</time>
      </trkpt>
      <trkpt lat="47.24946" lon="6.48305">
        <ele>698</ele>
        <time>2018-05-01T13:19:14.000Z</time>
      </trkpt>
      <trkpt lat="47.24947" lon="6.4831">
        <ele>698</ele>
        <time>2018-05-01T13:19:15.000Z</time>
      </trkpt>
      <trkpt lat="47.2495" lon="6.48321">
        <ele>698</ele>
        <time>2018-05-01T13:19:18.000Z</time>
      </trkpt>
      <trkpt lat="47.24959" lon="6.48329">
        <ele>697.40002441406</ele>
        <time>2018-05-01T13:19:21.000Z</time>
      </trkpt>
      <trkpt lat="47.24964" lon="6.48335">
        <ele>696.79998779297</ele>
        <time>2018-05-01T13:19:23.000Z</time>
      </trkpt>
      <trkpt lat="47.24968" lon="6.48339">
        <ele>696.59997558594</ele>
        <time>2018-05-01T13:19:24.000Z</time>
      </trkpt>
      <trkpt lat="47.24975" lon="6.48356">
        <ele>696.20001220703</ele>
        <time>2018-05-01T13:19:27.000Z</time>
      </trkpt>
      <trkpt lat="47.24978" lon="6.48362">
        <ele>696</ele>
        <time>2018-05-01T13:19:28.000Z</time>
      </trkpt>
      <trkpt lat="47.2498" lon="6.48374">
        <ele>696.20001220703</ele>
        <time>2018-05-01T13:19:30.000Z</time>
      </trkpt>
      <trkpt lat="47.24982" lon="6.4838">
        <ele>696</ele>
        <time>2018-05-01T13:19:31.000Z</time>
      </trkpt>
      <trkpt lat="47.24984" lon="6.48387">
        <ele>696</ele>
        <time>2018-05-01T13:19:32.000Z</time>
      </trkpt>
      <trkpt lat="47.24994" lon="6.48403">
        <ele>695.20001220703</ele>
        <time>2018-05-01T13:19:35.000Z</time>
      </trkpt>
      <trkpt lat="47.24997" lon="6.48408">
        <ele>694.79998779297</ele>
        <time>2018-05-01T13:19:36.000Z</time>
      </trkpt>
      <trkpt lat="47.25001" lon="6.48414">
        <ele>694.40002441406</ele>
        <time>2018-05-01T13:19:37.000Z</time>
      </trkpt>
      <trkpt lat="47.25008" lon="6.48426">
        <ele>693.40002441406</ele>
        <time>2018-05-01T13:19:39.000Z</time>
      </trkpt>
      <trkpt lat="47.25017" lon="6.48438">
        <ele>692.20001220703</ele>
        <time>2018-05-01T13:19:41.000Z</time>
      </trkpt>
      <trkpt lat="47.25034" lon="6.48457">
        <ele>690.20001220703</ele>
        <time>2018-05-01T13:19:45.000Z</time>
      </trkpt>
      <trkpt lat="47.25038" lon="6.48461">
        <ele>689.59997558594</ele>
        <time>2018-05-01T13:19:46.000Z</time>
      </trkpt>
      <trkpt lat="47.25065" lon="6.48488">
        <ele>686.79998779297</ele>
        <time>2018-05-01T13:19:52.000Z</time>
      </trkpt>
      <trkpt lat="47.25078" lon="6.48503">
        <ele>685.59997558594</ele>
        <time>2018-05-01T13:19:55.000Z</time>
      </trkpt>
      <trkpt lat="47.25098" lon="6.48529">
        <ele>685.59997558594</ele>
        <time>2018-05-01T13:20:00.000Z</time>
      </trkpt>
      <trkpt lat="47.25102" lon="6.48534">
        <ele>685.59997558594</ele>
        <time>2018-05-01T13:20:01.000Z</time>
      </trkpt>
      <trkpt lat="47.25127" lon="6.48565">
        <ele>685.79998779297</ele>
        <time>2018-05-01T13:20:07.000Z</time>
      </trkpt>
      <trkpt lat="47.25132" lon="6.4857">
        <ele>685.79998779297</ele>
        <time>2018-05-01T13:20:08.000Z</time>
      </trkpt>
      <trkpt lat="47.2514" lon="6.48581">
        <ele>686</ele>
        <time>2018-05-01T13:20:10.000Z</time>
      </trkpt>
      <trkpt lat="47.25151" lon="6.486">
        <ele>686.40002441406</ele>
        <time>2018-05-01T13:20:13.000Z</time>
      </trkpt>
      <trkpt lat="47.25169" lon="6.48639">
        <ele>687.59997558594</ele>
        <time>2018-05-01T13:20:19.000Z</time>
      </trkpt>
      <trkpt lat="47.25176" lon="6.48658">
        <ele>688.40002441406</ele>
        <time>2018-05-01T13:20:22.000Z</time>
      </trkpt>
      <trkpt lat="47.25178" lon="6.4867">
        <ele>689</ele>
        <time>2018-05-01T13:20:24.000Z</time>
      </trkpt>
      <trkpt lat="47.25181" lon="6.48682">
        <ele>689.59997558594</ele>
        <time>2018-05-01T13:20:26.000Z</time>
      </trkpt>
      <trkpt lat="47.25187" lon="6.48696">
        <ele>690.20001220703</ele>
        <time>2018-05-01T13:20:29.000Z</time>
      </trkpt>
      <trkpt lat="47.25209" lon="6.48725">
        <ele>691.59997558594</ele>
        <time>2018-05-01T13:20:36.000Z</time>
      </trkpt>
      <trkpt lat="47.25228" lon="6.48741">
        <ele>692.20001220703</ele>
        <time>2018-05-01T13:20:41.000Z</time>
      </trkpt>
      <trkpt lat="47.25241" lon="6.48745">
        <ele>692.20001220703</ele>
        <time>2018-05-01T13:20:44.000Z</time>
      </trkpt>
      <trkpt lat="47.2525" lon="6.48745">
        <ele>692.40002441406</ele>
        <time>2018-05-01T13:20:47.000Z</time>
      </trkpt>
      <trkpt lat="47.25263" lon="6.48744">
        <ele>692.59997558594</ele>
        <time>2018-05-01T13:20:50.000Z</time>
      </trkpt>
      <trkpt lat="47.2527" lon="6.4874">
        <ele>692.59997558594</ele>
        <time>2018-05-01T13:20:52.000Z</time>
      </trkpt>
      <trkpt lat="47.25277" lon="6.4872">
        <ele>692.20001220703</ele>
        <time>2018-05-01T13:20:55.000Z</time>
      </trkpt>
      <trkpt lat="47.25279" lon="6.48713">
        <ele>691.79998779297</ele>
        <time>2018-05-01T13:20:56.000Z</time>
      </trkpt>
      <trkpt lat="47.25288" lon="6.48675">
        <ele>690.59997558594</ele>
        <time>2018-05-01T13:21:01.000Z</time>
      </trkpt>
      <trkpt lat="47.25297" lon="6.48634">
        <ele>690</ele>
        <time>2018-05-01T13:21:07.000Z</time>
      </trkpt>
      <trkpt lat="47.253" lon="6.48629">
        <ele>689.79998779297</ele>
        <time>2018-05-01T13:21:08.000Z</time>
      </trkpt>
      <trkpt lat="47.25307" lon="6.48614">
        <ele>689.79998779297</ele>
        <time>2018-05-01T13:21:12.000Z</time>
      </trkpt>
      <trkpt lat="47.2531" lon="6.48607">
        <ele>689.79998779297</ele>
        <time>2018-05-01T13:21:14.000Z</time>
      </trkpt>
      <trkpt lat="47.25317" lon="6.48586">
        <ele>689.79998779297</ele>
        <time>2018-05-01T13:21:19.000Z</time>
      </trkpt>
      <trkpt lat="47.25322" lon="6.48583">
        <ele>690</ele>
        <time>2018-05-01T13:21:21.000Z</time>
      </trkpt>
      <trkpt lat="47.25328" lon="6.48584">
        <ele>690.40002441406</ele>
        <time>2018-05-01T13:21:23.000Z</time>
      </trkpt>
      <trkpt lat="47.25332" lon="6.48587">
        <ele>690.40002441406</ele>
        <time>2018-05-01T13:21:25.000Z</time>
      </trkpt>
      <trkpt lat="47.25335" lon="6.48592">
        <ele>690.59997558594</ele>
        <time>2018-05-01T13:21:27.000Z</time>
      </trkpt>
      <trkpt lat="47.2534" lon="6.48607">
        <ele>690.79998779297</ele>
        <time>2018-05-01T13:21:32.000Z</time>
      </trkpt>
      <trkpt lat="47.25346" lon="6.48633">
        <ele>691.40002441406</ele>
        <time>2018-05-01T13:21:39.000Z</time>
      </trkpt>
      <trkpt lat="47.25352" lon="6.48657">
        <ele>692.40002441406</ele>
        <time>2018-05-01T13:21:46.000Z</time>
      </trkpt>
      <trkpt lat="47.25356" lon="6.48678">
        <ele>694</ele>
        <time>2018-05-01T13:21:52.000Z</time>
      </trkpt>
      <trkpt lat="47.25358" lon="6.48685">
        <ele>694.20001220703</ele>
        <time>2018-05-01T13:21:54.000Z</time>
      </trkpt>
      <trkpt lat="47.25362" lon="6.48701">
        <ele>694.79998779297</ele>
        <time>2018-05-01T13:21:58.000Z</time>
      </trkpt>
      <trkpt lat="47.25366" lon="6.48725">
        <ele>695.59997558594</ele>
        <time>2018-05-01T13:22:04.000Z</time>
      </trkpt>
      <trkpt lat="47.25367" lon="6.48729">
        <ele>695.79998779297</ele>
        <time>2018-05-01T13:22:05.000Z</time>
      </trkpt>
      <trkpt lat="47.25379" lon="6.48761">
        <ele>698</ele>
        <time>2018-05-01T13:22:12.000Z</time>
      </trkpt>
      <trkpt lat="47.25385" lon="6.48775">
        <ele>699.20001220703</ele>
        <time>2018-05-01T13:22:15.000Z</time>
      </trkpt>
      <trkpt lat="47.2539" lon="6.48783">
        <ele>700</ele>
        <time>2018-05-01T13:22:17.000Z</time>
      </trkpt>
      <trkpt lat="47.25391" lon="6.48788">
        <ele>700.20001220703</ele>
        <time>2018-05-01T13:22:18.000Z</time>
      </trkpt>
      <trkpt lat="47.25393" lon="6.48793">
        <ele>700.59997558594</ele>
        <time>2018-05-01T13:22:19.000Z</time>
      </trkpt>
      <trkpt lat="47.25395" lon="6.48797">
        <ele>701</ele>
        <time>2018-05-01T13:22:20.000Z</time>
      </trkpt>
      <trkpt lat="47.254" lon="6.48806">
        <ele>701.59997558594</ele>
        <time>2018-05-01T13:22:22.000Z</time>
      </trkpt>
      <trkpt lat="47.25406" lon="6.48822">
        <ele>702.20001220703</ele>
        <time>2018-05-01T13:22:25.000Z</time>
      </trkpt>
      <trkpt lat="47.25411" lon="6.48838">
        <ele>702.40002441406</ele>
        <time>2018-05-01T13:22:28.000Z</time>
      </trkpt>
      <trkpt lat="47.25412" lon="6.48843">
        <ele>702.20001220703</ele>
        <time>2018-05-01T13:22:29.000Z</time>
      </trkpt>
      <trkpt lat="47.25415" lon="6.48855">
        <ele>702.20001220703</ele>
        <time>2018-05-01T13:22:31.000Z</time>
      </trkpt>
      <trkpt lat="47.2542" lon="6.4888">
        <ele>701.59997558594</ele>
        <time>2018-05-01T13:22:35.000Z</time>
      </trkpt>
      <trkpt lat="47.25422" lon="6.48886">
        <ele>701.59997558594</ele>
        <time>2018-05-01T13:22:36.000Z</time>
      </trkpt>
      <trkpt lat="47.25427" lon="6.48905">
        <ele>701.59997558594</ele>
        <time>2018-05-01T13:22:39.000Z</time>
      </trkpt>
      <trkpt lat="47.2543" lon="6.48918">
        <ele>702</ele>
        <time>2018-05-01T13:22:41.000Z</time>
      </trkpt>
      <trkpt lat="47.25432" lon="6.4893">
        <ele>702</ele>
        <time>2018-05-01T13:22:43.000Z</time>
      </trkpt>
      <trkpt lat="47.25433" lon="6.48936">
        <ele>702</ele>
        <time>2018-05-01T13:22:44.000Z</time>
      </trkpt>
      <trkpt lat="47.25436" lon="6.48947">
        <ele>702.20001220703</ele>
        <time>2018-05-01T13:22:46.000Z</time>
      </trkpt>
      <trkpt lat="47.2544" lon="6.48963">
        <ele>702.20001220703</ele>
        <time>2018-05-01T13:22:49.000Z</time>
      </trkpt>
      <trkpt lat="47.25441" lon="6.48969">
        <ele>702.20001220703</ele>
        <time>2018-05-01T13:22:50.000Z</time>
      </trkpt>
      <trkpt lat="47.25448" lon="6.49007">
        <ele>703.59997558594</ele>
        <time>2018-05-01T13:22:57.000Z</time>
      </trkpt>
      <trkpt lat="47.25451" lon="6.49016">
        <ele>704.40002441406</ele>
        <time>2018-05-01T13:22:59.000Z</time>
      </trkpt>
      <trkpt lat="47.25455" lon="6.49029">
        <ele>705.20001220703</ele>
        <time>2018-05-01T13:23:02.000Z</time>
      </trkpt>
      <trkpt lat="47.25457" lon="6.49034">
        <ele>705.20001220703</ele>
        <time>2018-05-01T13:23:03.000Z</time>
      </trkpt>
      <trkpt lat="47.25462" lon="6.49057">
        <ele>705.79998779297</ele>
        <time>2018-05-01T13:23:08.000Z</time>
      </trkpt>
      <trkpt lat="47.25467" lon="6.49087">
        <ele>707</ele>
        <time>2018-05-01T13:23:14.000Z</time>
      </trkpt>
      <trkpt lat="47.25469" lon="6.49092">
        <ele>707.40002441406</ele>
        <time>2018-05-01T13:23:15.000Z</time>
      </trkpt>
      <trkpt lat="47.25475" lon="6.49125">
        <ele>708.79998779297</ele>
        <time>2018-05-01T13:23:21.000Z</time>
      </trkpt>
      <trkpt lat="47.25476" lon="6.49131">
        <ele>709</ele>
        <time>2018-05-01T13:23:22.000Z</time>
      </trkpt>
      <trkpt lat="47.25484" lon="6.49169">
        <ele>710.20001220703</ele>
        <time>2018-05-01T13:23:29.000Z</time>
      </trkpt>
      <trkpt lat="47.25485" lon="6.49173">
        <ele>710.20001220703</ele>
        <time>2018-05-01T13:23:30.000Z</time>
      </trkpt>
      <trkpt lat="47.25492" lon="6.49198">
        <ele>710.79998779297</ele>
        <time>2018-05-01T13:23:35.000Z</time>
      </trkpt>
      <trkpt lat="47.25495" lon="6.49207">
        <ele>711.20001220703</ele>
        <time>2018-05-01T13:23:37.000Z</time>
      </trkpt>
      <trkpt lat="47.25498" lon="6.49221">
        <ele>711.20001220703</ele>
        <time>2018-05-01T13:23:41.000Z</time>
      </trkpt>
      <trkpt lat="47.25498" lon="6.49225">
        <ele>711.20001220703</ele>
        <time>2018-05-01T13:23:42.000Z</time>
      </trkpt>
      <trkpt lat="47.25499" lon="6.49227">
        <ele>711</ele>
        <time>2018-05-01T13:23:43.000Z</time>
      </trkpt>
      <trkpt lat="47.25499" lon="6.49228">
        <ele>711</ele>
        <time>2018-05-01T13:23:44.000Z</time>
      </trkpt>
      <trkpt lat="47.255" lon="6.49229">
        <ele>711</ele>
        <time>2018-05-01T13:23:45.000Z</time>
      </trkpt>
      <trkpt lat="47.25501" lon="6.4923">
        <ele>711</ele>
        <time>2018-05-01T13:23:49.000Z</time>
      </trkpt>
      <trkpt lat="47.25502" lon="6.4923">
        <ele>711</ele>
        <time>2018-05-01T13:23:50.000Z</time>
      </trkpt>
      <trkpt lat="47.25502" lon="6.49232">
        <ele>711</ele>
        <time>2018-05-01T13:23:53.000Z</time>
      </trkpt>
      <trkpt lat="47.25502" lon="6.49232">
        <ele>711</ele>
        <time>2018-05-01T13:23:54.000Z</time>
      </trkpt>
      <trkpt lat="47.25502" lon="6.49233">
        <ele>711</ele>
        <time>2018-05-01T13:23:57.000Z</time>
      </trkpt>
      <trkpt lat="47.25502" lon="6.49233">
        <ele>711</ele>
        <time>2018-05-01T13:24:06.000Z</time>
      </trkpt>
      <trkpt lat="47.25502" lon="6.49233">
        <ele>711</ele>
        <time>2018-05-01T13:24:16.000Z</time>
      </trkpt>
      <trkpt lat="47.25502" lon="6.49233">
        <ele>711</ele>
        <time>2018-05-01T13:24:26.000Z</time>
      </trkpt>
      <trkpt lat="47.25502" lon="6.49233">
        <ele>711</ele>
        <time>2018-05-01T13:24:33.000Z</time>
      </trkpt>
      <trkpt lat="47.25502" lon="6.49233">
        <ele>711</ele>
        <time>2018-05-01T13:24:45.000Z</time>
      </trkpt>
      <trkpt lat="47.25502" lon="6.49233">
        <ele>711</ele>
        <time>2018-05-01T13:24:57.000Z</time>
      </trkpt>
      <trkpt lat="47.25502" lon="6.49233">
        <ele>711</ele>
        <time>2018-05-01T13:25:08.000Z</time>
      </trkpt>
      <trkpt lat="47.25502" lon="6.49232">
        <ele>711</ele>
        <time>2018-05-01T13:25:21.000Z</time>
      </trkpt>
      <trkpt lat="47.25502" lon="6.49232">
        <ele>711</ele>
        <time>2018-05-01T13:25:30.000Z</time>
      </trkpt>
      <trkpt lat="47.25502" lon="6.49232">
        <ele>711</ele>
        <time>2018-05-01T13:25:40.000Z</time>
      </trkpt>
      <trkpt lat="47.25502" lon="6.49232">
        <ele>711</ele>
        <time>2018-05-01T13:25:51.000Z</time>
      </trkpt>
      <trkpt lat="47.25502" lon="6.49232">
        <ele>711</ele>
        <time>2018-05-01T13:26:04.000Z</time>
      </trkpt>
      <trkpt lat="47.25502" lon="6.49232">
        <ele>711</ele>
        <time>2018-05-01T13:26:13.000Z</time>
      </trkpt>
      <trkpt lat="47.25502" lon="6.49232">
        <ele>711</ele>
        <time>2018-05-01T13:26:21.000Z</time>
      </trkpt>
      <trkpt lat="47.25502" lon="6.49232">
        <ele>711</ele>
        <time>2018-05-01T13:26:34.000Z</time>
      </trkpt>
      <trkpt lat="47.25502" lon="6.49232">
        <ele>711</ele>
        <time>2018-05-01T13:26:44.000Z</time>
      </trkpt>
      <trkpt lat="47.25502" lon="6.49232">
        <ele>711</ele>
        <time>2018-05-01T13:26:55.000Z</time>
      </trkpt>
      <trkpt lat="47.25502" lon="6.49232">
        <ele>711</ele>
        <time>2018-05-01T13:27:04.000Z</time>
      </trkpt>
      <trkpt lat="47.25502" lon="6.49233">
        <ele>711</ele>
        <time>2018-05-01T13:27:19.000Z</time>
      </trkpt>
      <trkpt lat="47.25502" lon="6.49233">
        <ele>711</ele>
        <time>2018-05-01T13:27:30.000Z</time>
      </trkpt>
      <trkpt lat="47.25502" lon="6.49233">
        <ele>711</ele>
        <time>2018-05-01T13:27:41.000Z</time>
      </trkpt>
      <trkpt lat="47.25502" lon="6.49233">
        <ele>711</ele>
        <time>2018-05-01T13:27:51.000Z</time>
      </trkpt>
      <trkpt lat="47.25502" lon="6.49233">
        <ele>711</ele>
        <time>2018-05-01T13:28:03.000Z</time>
      </trkpt>
      <trkpt lat="47.25502" lon="6.49233">
        <ele>711</ele>
        <time>2018-05-01T13:28:14.000Z</time>
      </trkpt>
      <trkpt lat="47.25502" lon="6.49233">
        <ele>711</ele>
        <time>2018-05-01T13:28:31.000Z</time>
      </trkpt>
      <trkpt lat="47.25502" lon="6.49233">
        <ele>711</ele>
        <time>2018-05-01T13:28:42.000Z</time>
      </trkpt>
      <trkpt lat="47.25502" lon="6.49233">
        <ele>711</ele>
        <time>2018-05-01T13:28:56.000Z</time>
      </trkpt>
      <trkpt lat="47.25502" lon="6.49233">
        <ele>711</ele>
        <time>2018-05-01T13:29:08.000Z</time>
      </trkpt>
      <trkpt lat="47.25502" lon="6.49233">
        <ele>711</ele>
        <time>2018-05-01T13:29:27.000Z</time>
      </trkpt>
      <trkpt lat="47.25502" lon="6.49233">
        <ele>711</ele>
        <time>2018-05-01T13:29:36.000Z</time>
      </trkpt>
      <trkpt lat="47.25502" lon="6.49233">
        <ele>711</ele>
        <time>2018-05-01T13:29:48.000Z</time>
      </trkpt>
      <trkpt lat="47.25502" lon="6.49233">
        <ele>711</ele>
        <time>2018-05-01T13:30:01.000Z</time>
      </trkpt>
      <trkpt lat="47.25502" lon="6.49233">
        <ele>711</ele>
        <time>2018-05-01T13:30:13.000Z</time>
      </trkpt>
      <trkpt lat="47.25502" lon="6.49233">
        <ele>711</ele>
        <time>2018-05-01T13:30:24.000Z</time>
      </trkpt>
      <trkpt lat="47.25502" lon="6.49233">
        <ele>711</ele>
        <time>2018-05-01T13:30:45.000Z</time>
      </trkpt>
      <trkpt lat="47.25502" lon="6.49233">
        <ele>711</ele>
        <time>2018-05-01T13:30:58.000Z</time>
      </trkpt>
      <trkpt lat="47.25502" lon="6.49233">
        <ele>711</ele>
        <time>2018-05-01T13:31:06.000Z</time>
      </trkpt>
      <trkpt lat="47.25502" lon="6.49234">
        <ele>711</ele>
        <time>2018-05-01T13:31:15.000Z</time>
      </trkpt>
      <trkpt lat="47.25505" lon="6.49242">
        <ele>711.40002441406</ele>
        <time>2018-05-01T13:31:21.000Z</time>
      </trkpt>
      <trkpt lat="47.25513" lon="6.49265">
        <ele>711.20001220703</ele>
        <time>2018-05-01T13:31:26.000Z</time>
      </trkpt>
      <trkpt lat="47.2552" lon="6.49286">
        <ele>711.20001220703</ele>
        <time>2018-05-01T13:31:30.000Z</time>
      </trkpt>
      <trkpt lat="47.25525" lon="6.49304">
        <ele>711</ele>
        <time>2018-05-01T13:31:33.000Z</time>
      </trkpt>
      <trkpt lat="47.25541" lon="6.49351">
        <ele>711.40002441406</ele>
        <time>2018-05-01T13:31:41.000Z</time>
      </trkpt>
      <trkpt lat="47.25548" lon="6.49376">
        <ele>711.20001220703</ele>
        <time>2018-05-01T13:31:46.000Z</time>
      </trkpt>
      <trkpt lat="47.25549" lon="6.49381">
        <ele>710.79998779297</ele>
        <time>2018-05-01T13:31:47.000Z</time>
      </trkpt>
      <trkpt lat="47.25553" lon="6.49392">
        <ele>710.59997558594</ele>
        <time>2018-05-01T13:31:50.000Z</time>
      </trkpt>
      <trkpt lat="47.25555" lon="6.49396">
        <ele>710.59997558594</ele>
        <time>2018-05-01T13:31:51.000Z</time>
      </trkpt>
      <trkpt lat="47.25562" lon="6.49413">
        <ele>711.40002441406</ele>
        <time>2018-05-01T13:31:55.000Z</time>
      </trkpt>
      <trkpt lat="47.25567" lon="6.49423">
        <ele>712.20001220703</ele>
        <time>2018-05-01T13:31:57.000Z</time>
      </trkpt>
      <trkpt lat="47.25572" lon="6.49439">
        <ele>713.20001220703</ele>
        <time>2018-05-01T13:32:00.000Z</time>
      </trkpt>
      <trkpt lat="47.25581" lon="6.49454">
        <ele>714.20001220703</ele>
        <time>2018-05-01T13:32:03.000Z</time>
      </trkpt>
      <trkpt lat="47.25584" lon="6.49466">
        <ele>714.40002441406</ele>
        <time>2018-05-01T13:32:05.000Z</time>
      </trkpt>
      <trkpt lat="47.25589" lon="6.49479">
        <ele>714.40002441406</ele>
        <time>2018-05-01T13:32:07.000Z</time>
      </trkpt>
      <trkpt lat="47.25592" lon="6.49497">
        <ele>714.79998779297</ele>
        <time>2018-05-01T13:32:10.000Z</time>
      </trkpt>
      <trkpt lat="47.25595" lon="6.49503">
        <ele>714.59997558594</ele>
        <time>2018-05-01T13:32:11.000Z</time>
      </trkpt>
      <trkpt lat="47.25597" lon="6.49516">
        <ele>714.40002441406</ele>
        <time>2018-05-01T13:32:13.000Z</time>
      </trkpt>
      <trkpt lat="47.25598" lon="6.49523">
        <ele>714.20001220703</ele>
        <time>2018-05-01T13:32:14.000Z</time>
      </trkpt>
      <trkpt lat="47.25601" lon="6.49535">
        <ele>714</ele>
        <time>2018-05-01T13:32:16.000Z</time>
      </trkpt>
      <trkpt lat="47.25608" lon="6.49559">
        <ele>713.59997558594</ele>
        <time>2018-05-01T13:32:20.000Z</time>
      </trkpt>
      <trkpt lat="47.25617" lon="6.4958">
        <ele>714</ele>
        <time>2018-05-01T13:32:25.000Z</time>
      </trkpt>
      <trkpt lat="47.25619" lon="6.49601">
        <ele>715.20001220703</ele>
        <time>2018-05-01T13:32:29.000Z</time>
      </trkpt>
      <trkpt lat="47.25621" lon="6.49605">
        <ele>715.40002441406</ele>
        <time>2018-05-01T13:32:30.000Z</time>
      </trkpt>
      <trkpt lat="47.25623" lon="6.49618">
        <ele>715</ele>
        <time>2018-05-01T13:32:33.000Z</time>
      </trkpt>
      <trkpt lat="47.25625" lon="6.49624">
        <ele>714.79998779297</ele>
        <time>2018-05-01T13:32:34.000Z</time>
      </trkpt>
      <trkpt lat="47.2563" lon="6.49642">
        <ele>714</ele>
        <time>2018-05-01T13:32:37.000Z</time>
      </trkpt>
      <trkpt lat="47.25631" lon="6.49654">
        <ele>713.20001220703</ele>
        <time>2018-05-01T13:32:39.000Z</time>
      </trkpt>
      <trkpt lat="47.25637" lon="6.49671">
        <ele>713.40002441406</ele>
        <time>2018-05-01T13:32:42.000Z</time>
      </trkpt>
      <trkpt lat="47.2564" lon="6.49675">
        <ele>713.79998779297</ele>
        <time>2018-05-01T13:32:43.000Z</time>
      </trkpt>
      <trkpt lat="47.25643" lon="6.49684">
        <ele>714</ele>
        <time>2018-05-01T13:32:45.000Z</time>
      </trkpt>
      <trkpt lat="47.25646" lon="6.49693">
        <ele>714</ele>
        <time>2018-05-01T13:32:47.000Z</time>
      </trkpt>
      <trkpt lat="47.25646" lon="6.49699">
        <ele>713.79998779297</ele>
        <time>2018-05-01T13:32:48.000Z</time>
      </trkpt>
      <trkpt lat="47.25648" lon="6.49713">
        <ele>713.59997558594</ele>
        <time>2018-05-01T13:32:51.000Z</time>
      </trkpt>
      <trkpt lat="47.25647" lon="6.49723">
        <ele>713</ele>
        <time>2018-05-01T13:32:53.000Z</time>
      </trkpt>
      <trkpt lat="47.25652" lon="6.49732">
        <ele>713.20001220703</ele>
        <time>2018-05-01T13:32:55.000Z</time>
      </trkpt>
      <trkpt lat="47.25657" lon="6.49751">
        <ele>714.20001220703</ele>
        <time>2018-05-01T13:32:58.000Z</time>
      </trkpt>
      <trkpt lat="47.25659" lon="6.4978">
        <ele>714.79998779297</ele>
        <time>2018-05-01T13:33:02.000Z</time>
      </trkpt>
      <trkpt lat="47.2566" lon="6.49797">
        <ele>715.40002441406</ele>
        <time>2018-05-01T13:33:05.000Z</time>
      </trkpt>
      <trkpt lat="47.25664" lon="6.4981">
        <ele>716</ele>
        <time>2018-05-01T13:33:07.000Z</time>
      </trkpt>
      <trkpt lat="47.25665" lon="6.49822">
        <ele>716.40002441406</ele>
        <time>2018-05-01T13:33:09.000Z</time>
      </trkpt>
      <trkpt lat="47.25665" lon="6.49834">
        <ele>717</ele>
        <time>2018-05-01T13:33:11.000Z</time>
      </trkpt>
      <trkpt lat="47.25666" lon="6.49845">
        <ele>717.59997558594</ele>
        <time>2018-05-01T13:33:13.000Z</time>
      </trkpt>
      <trkpt lat="47.25667" lon="6.4985">
        <ele>718</ele>
        <time>2018-05-01T13:33:14.000Z</time>
      </trkpt>
      <trkpt lat="47.25668" lon="6.49855">
        <ele>718.40002441406</ele>
        <time>2018-05-01T13:33:15.000Z</time>
      </trkpt>
      <trkpt lat="47.2567" lon="6.49865">
        <ele>719</ele>
        <time>2018-05-01T13:33:17.000Z</time>
      </trkpt>
      <trkpt lat="47.25671" lon="6.49868">
        <ele>719.20001220703</ele>
        <time>2018-05-01T13:33:18.000Z</time>
      </trkpt>
      <trkpt lat="47.25672" lon="6.49871">
        <ele>719.40002441406</ele>
        <time>2018-05-01T13:33:19.000Z</time>
      </trkpt>
      <trkpt lat="47.25673" lon="6.49874">
        <ele>719.59997558594</ele>
        <time>2018-05-01T13:33:20.000Z</time>
      </trkpt>
      <trkpt lat="47.25675" lon="6.4988">
        <ele>720</ele>
        <time>2018-05-01T13:33:22.000Z</time>
      </trkpt>
      <trkpt lat="47.25676" lon="6.49884">
        <ele>720.40002441406</ele>
        <time>2018-05-01T13:33:23.000Z</time>
      </trkpt>
      <trkpt lat="47.25677" lon="6.49888">
        <ele>720.59997558594</ele>
        <time>2018-05-01T13:33:24.000Z</time>
      </trkpt>
      <trkpt lat="47.25679" lon="6.49894">
        <ele>721</ele>
        <time>2018-05-01T13:33:26.000Z</time>
      </trkpt>
      <trkpt lat="47.2568" lon="6.49901">
        <ele>721.59997558594</ele>
        <time>2018-05-01T13:33:28.000Z</time>
      </trkpt>
      <trkpt lat="47.25681" lon="6.49908">
        <ele>722.79998779297</ele>
        <time>2018-05-01T13:33:30.000Z</time>
      </trkpt>
      <trkpt lat="47.25683" lon="6.4992">
        <ele>724.59997558594</ele>
        <time>2018-05-01T13:33:33.000Z</time>
      </trkpt>
      <trkpt lat="47.25684" lon="6.49935">
        <ele>725.20001220703</ele>
        <time>2018-05-01T13:33:37.000Z</time>
      </trkpt>
      <trkpt lat="47.25685" lon="6.49939">
        <ele>725.40002441406</ele>
        <time>2018-05-01T13:33:38.000Z</time>
      </trkpt>
      <trkpt lat="47.25684" lon="6.49943">
        <ele>725.40002441406</ele>
        <time>2018-05-01T13:33:39.000Z</time>
      </trkpt>
      <trkpt lat="47.25683" lon="6.49949">
        <ele>725.20001220703</ele>
        <time>2018-05-01T13:33:42.000Z</time>
      </trkpt>
      <trkpt lat="47.25687" lon="6.49967">
        <ele>726.59997558594</ele>
        <time>2018-05-01T13:33:46.000Z</time>
      </trkpt>
      <trkpt lat="47.25688" lon="6.49972">
        <ele>727</ele>
        <time>2018-05-01T13:33:47.000Z</time>
      </trkpt>
      <trkpt lat="47.25691" lon="6.49987">
        <ele>728</ele>
        <time>2018-05-01T13:33:50.000Z</time>
      </trkpt>
      <trkpt lat="47.25692" lon="6.49993">
        <ele>728.59997558594</ele>
        <time>2018-05-01T13:33:51.000Z</time>
      </trkpt>
      <trkpt lat="47.25696" lon="6.50016">
        <ele>731</ele>
        <time>2018-05-01T13:33:56.000Z</time>
      </trkpt>
      <trkpt lat="47.25694" lon="6.50019">
        <ele>730.79998779297</ele>
        <time>2018-05-01T13:33:57.000Z</time>
      </trkpt>
      <trkpt lat="47.25695" lon="6.50027">
        <ele>730.79998779297</ele>
        <time>2018-05-01T13:33:59.000Z</time>
      </trkpt>
      <trkpt lat="47.25696" lon="6.50036">
        <ele>731.40002441406</ele>
        <time>2018-05-01T13:34:01.000Z</time>
      </trkpt>
      <trkpt lat="47.25698" lon="6.50044">
        <ele>731.59997558594</ele>
        <time>2018-05-01T13:34:03.000Z</time>
      </trkpt>
      <trkpt lat="47.25699" lon="6.50051">
        <ele>732</ele>
        <time>2018-05-01T13:34:05.000Z</time>
      </trkpt>
      <trkpt lat="47.25703" lon="6.50067">
        <ele>733</ele>
        <time>2018-05-01T13:34:10.000Z</time>
      </trkpt>
      <trkpt lat="47.25704" lon="6.50082">
        <ele>733.79998779297</ele>
        <time>2018-05-01T13:34:14.000Z</time>
      </trkpt>
      <trkpt lat="47.25703" lon="6.50084">
        <ele>733.59997558594</ele>
        <time>2018-05-01T13:34:15.000Z</time>
      </trkpt>
      <trkpt lat="47.25704" lon="6.50092">
        <ele>734</ele>
        <time>2018-05-01T13:34:17.000Z</time>
      </trkpt>
      <trkpt lat="47.25703" lon="6.501">
        <ele>734</ele>
        <time>2018-05-01T13:34:19.000Z</time>
      </trkpt>
      <trkpt lat="47.25701" lon="6.50104">
        <ele>733.59997558594</ele>
        <time>2018-05-01T13:34:20.000Z</time>
      </trkpt>
      <trkpt lat="47.25701" lon="6.50108">
        <ele>733.40002441406</ele>
        <time>2018-05-01T13:34:21.000Z</time>
      </trkpt>
      <trkpt lat="47.257" lon="6.50111">
        <ele>733.20001220703</ele>
        <time>2018-05-01T13:34:23.000Z</time>
      </trkpt>
      <trkpt lat="47.257" lon="6.50112">
        <ele>733.40002441406</ele>
        <time>2018-05-01T13:34:24.000Z</time>
      </trkpt>
      <trkpt lat="47.25697" lon="6.50119">
        <ele>732.79998779297</ele>
        <time>2018-05-01T13:34:26.000Z</time>
      </trkpt>
      <trkpt lat="47.25697" lon="6.50122">
        <ele>732.79998779297</ele>
        <time>2018-05-01T13:34:27.000Z</time>
      </trkpt>
      <trkpt lat="47.25696" lon="6.50127">
        <ele>732.59997558594</ele>
        <time>2018-05-01T13:34:29.000Z</time>
      </trkpt>
      <trkpt lat="47.25695" lon="6.50131">
        <ele>732.40002441406</ele>
        <time>2018-05-01T13:34:30.000Z</time>
      </trkpt>
      <trkpt lat="47.25692" lon="6.50137">
        <ele>731.79998779297</ele>
        <time>2018-05-01T13:34:32.000Z</time>
      </trkpt>
      <trkpt lat="47.25691" lon="6.5014">
        <ele>731.59997558594</ele>
        <time>2018-05-01T13:34:33.000Z</time>
      </trkpt>
      <trkpt lat="47.2569" lon="6.50142">
        <ele>731.40002441406</ele>
        <time>2018-05-01T13:34:34.000Z</time>
      </trkpt>
      <trkpt lat="47.25688" lon="6.50147">
        <ele>731</ele>
        <time>2018-05-01T13:34:35.000Z</time>
      </trkpt>
      <trkpt lat="47.25687" lon="6.50153">
        <ele>730.79998779297</ele>
        <time>2018-05-01T13:34:37.000Z</time>
      </trkpt>
      <trkpt lat="47.25686" lon="6.50155">
        <ele>730.59997558594</ele>
        <time>2018-05-01T13:34:38.000Z</time>
      </trkpt>
      <trkpt lat="47.25686" lon="6.50158">
        <ele>730.79998779297</ele>
        <time>2018-05-01T13:34:39.000Z</time>
      </trkpt>
      <trkpt lat="47.25685" lon="6.5016">
        <ele>730.40002441406</ele>
        <time>2018-05-01T13:34:40.000Z</time>
      </trkpt>
      <trkpt lat="47.25685" lon="6.50163">
        <ele>730.40002441406</ele>
        <time>2018-05-01T13:34:42.000Z</time>
      </trkpt>
      <trkpt lat="47.25684" lon="6.50164">
        <ele>730.40002441406</ele>
        <time>2018-05-01T13:34:45.000Z</time>
      </trkpt>
      <trkpt lat="47.25685" lon="6.50171">
        <ele>730.59997558594</ele>
        <time>2018-05-01T13:34:48.000Z</time>
      </trkpt>
      <trkpt lat="47.25684" lon="6.50178">
        <ele>730.40002441406</ele>
        <time>2018-05-01T13:34:50.000Z</time>
      </trkpt>
      <trkpt lat="47.25684" lon="6.50187">
        <ele>730.40002441406</ele>
        <time>2018-05-01T13:34:52.000Z</time>
      </trkpt>
      <trkpt lat="47.25686" lon="6.50196">
        <ele>731</ele>
        <time>2018-05-01T13:34:54.000Z</time>
      </trkpt>
      <trkpt lat="47.25686" lon="6.50204">
        <ele>731.20001220703</ele>
        <time>2018-05-01T13:34:56.000Z</time>
      </trkpt>
      <trkpt lat="47.25686" lon="6.50212">
        <ele>731</ele>
        <time>2018-05-01T13:34:58.000Z</time>
      </trkpt>
      <trkpt lat="47.25687" lon="6.50216">
        <ele>731.40002441406</ele>
        <time>2018-05-01T13:34:59.000Z</time>
      </trkpt>
      <trkpt lat="47.25688" lon="6.5022">
        <ele>731.59997558594</ele>
        <time>2018-05-01T13:35:00.000Z</time>
      </trkpt>
      <trkpt lat="47.25688" lon="6.50228">
        <ele>731.59997558594</ele>
        <time>2018-05-01T13:35:02.000Z</time>
      </trkpt>
      <trkpt lat="47.25688" lon="6.50233">
        <ele>731.59997558594</ele>
        <time>2018-05-01T13:35:03.000Z</time>
      </trkpt>
      <trkpt lat="47.25689" lon="6.50241">
        <ele>731.79998779297</ele>
        <time>2018-05-01T13:35:05.000Z</time>
      </trkpt>
      <trkpt lat="47.2569" lon="6.50248">
        <ele>732.20001220703</ele>
        <time>2018-05-01T13:35:07.000Z</time>
      </trkpt>
      <trkpt lat="47.25692" lon="6.50255">
        <ele>732.79998779297</ele>
        <time>2018-05-01T13:35:09.000Z</time>
      </trkpt>
      <trkpt lat="47.25692" lon="6.50258">
        <ele>733</ele>
        <time>2018-05-01T13:35:10.000Z</time>
      </trkpt>
      <trkpt lat="47.25696" lon="6.50272">
        <ele>733.79998779297</ele>
        <time>2018-05-01T13:35:14.000Z</time>
      </trkpt>
      <trkpt lat="47.25697" lon="6.50275">
        <ele>734.20001220703</ele>
        <time>2018-05-01T13:35:15.000Z</time>
      </trkpt>
      <trkpt lat="47.25698" lon="6.50281">
        <ele>734.40002441406</ele>
        <time>2018-05-01T13:35:17.000Z</time>
      </trkpt>
      <trkpt lat="47.25701" lon="6.50288">
        <ele>735</ele>
        <time>2018-05-01T13:35:19.000Z</time>
      </trkpt>
      <trkpt lat="47.25711" lon="6.50314">
        <ele>737.59997558594</ele>
        <time>2018-05-01T13:35:26.000Z</time>
      </trkpt>
      <trkpt lat="47.25716" lon="6.5034">
        <ele>738.59997558594</ele>
        <time>2018-05-01T13:35:32.000Z</time>
      </trkpt>
      <trkpt lat="47.25722" lon="6.50364">
        <ele>739.59997558594</ele>
        <time>2018-05-01T13:35:37.000Z</time>
      </trkpt>
      <trkpt lat="47.25731" lon="6.50391">
        <ele>742.40002441406</ele>
        <time>2018-05-01T13:35:43.000Z</time>
      </trkpt>
      <trkpt lat="47.25738" lon="6.50404">
        <ele>744.59997558594</ele>
        <time>2018-05-01T13:35:47.000Z</time>
      </trkpt>
      <trkpt lat="47.25742" lon="6.50409">
        <ele>745.79998779297</ele>
        <time>2018-05-01T13:35:49.000Z</time>
      </trkpt>
      <trkpt lat="47.25746" lon="6.50417">
        <ele>746.79998779297</ele>
        <time>2018-05-01T13:35:52.000Z</time>
      </trkpt>
      <trkpt lat="47.2575" lon="6.50427">
        <ele>747.59997558594</ele>
        <time>2018-05-01T13:35:55.000Z</time>
      </trkpt>
      <trkpt lat="47.25753" lon="6.50436">
        <ele>748.20001220703</ele>
        <time>2018-05-01T13:35:58.000Z</time>
      </trkpt>
      <trkpt lat="47.25756" lon="6.50442">
        <ele>748.59997558594</ele>
        <time>2018-05-01T13:36:00.000Z</time>
      </trkpt>
      <trkpt lat="47.25757" lon="6.50445">
        <ele>748.79998779297</ele>
        <time>2018-05-01T13:36:01.000Z</time>
      </trkpt>
      <trkpt lat="47.25759" lon="6.50448">
        <ele>749</ele>
        <time>2018-05-01T13:36:02.000Z</time>
      </trkpt>
      <trkpt lat="47.2576" lon="6.50452">
        <ele>749.40002441406</ele>
        <time>2018-05-01T13:36:03.000Z</time>
      </trkpt>
      <trkpt lat="47.25763" lon="6.5046">
        <ele>749.79998779297</ele>
        <time>2018-05-01T13:36:05.000Z</time>
      </trkpt>
      <trkpt lat="47.25765" lon="6.50473">
        <ele>750.59997558594</ele>
        <time>2018-05-01T13:36:08.000Z</time>
      </trkpt>
      <trkpt lat="47.25766" lon="6.50477">
        <ele>750.79998779297</ele>
        <time>2018-05-01T13:36:09.000Z</time>
      </trkpt>
      <trkpt lat="47.25768" lon="6.5048">
        <ele>751.20001220703</ele>
        <time>2018-05-01T13:36:10.000Z</time>
      </trkpt>
      <trkpt lat="47.2577" lon="6.50483">
        <ele>751.40002441406</ele>
        <time>2018-05-01T13:36:11.000Z</time>
      </trkpt>
      <trkpt lat="47.25773" lon="6.50488">
        <ele>752</ele>
        <time>2018-05-01T13:36:13.000Z</time>
      </trkpt>
      <trkpt lat="47.25776" lon="6.50491">
        <ele>752.40002441406</ele>
        <time>2018-05-01T13:36:14.000Z</time>
      </trkpt>
      <trkpt lat="47.25781" lon="6.50494">
        <ele>752.79998779297</ele>
        <time>2018-05-01T13:36:16.000Z</time>
      </trkpt>
      <trkpt lat="47.25783" lon="6.50497">
        <ele>753.20001220703</ele>
        <time>2018-05-01T13:36:17.000Z</time>
      </trkpt>
      <trkpt lat="47.25785" lon="6.50501">
        <ele>753.59997558594</ele>
        <time>2018-05-01T13:36:19.000Z</time>
      </trkpt>
      <trkpt lat="47.2579" lon="6.50505">
        <ele>754.20001220703</ele>
        <time>2018-05-01T13:36:21.000Z</time>
      </trkpt>
      <trkpt lat="47.25792" lon="6.5051">
        <ele>754.59997558594</ele>
        <time>2018-05-01T13:36:23.000Z</time>
      </trkpt>
      <trkpt lat="47.25795" lon="6.50513">
        <ele>755</ele>
        <time>2018-05-01T13:36:25.000Z</time>
      </trkpt>
      <trkpt lat="47.25797" lon="6.50514">
        <ele>755.20001220703</ele>
        <time>2018-05-01T13:36:26.000Z</time>
      </trkpt>
      <trkpt lat="47.25799" lon="6.50516">
        <ele>755.59997558594</ele>
        <time>2018-05-01T13:36:27.000Z</time>
      </trkpt>
      <trkpt lat="47.25803" lon="6.50519">
        <ele>756</ele>
        <time>2018-05-01T13:36:29.000Z</time>
      </trkpt>
      <trkpt lat="47.25806" lon="6.50523">
        <ele>756.40002441406</ele>
        <time>2018-05-01T13:36:31.000Z</time>
      </trkpt>
      <trkpt lat="47.25807" lon="6.50526">
        <ele>756.59997558594</ele>
        <time>2018-05-01T13:36:32.000Z</time>
      </trkpt>
      <trkpt lat="47.25817" lon="6.50531">
        <ele>757.59997558594</ele>
        <time>2018-05-01T13:36:36.000Z</time>
      </trkpt>
      <trkpt lat="47.25829" lon="6.5054">
        <ele>759</ele>
        <time>2018-05-01T13:36:41.000Z</time>
      </trkpt>
      <trkpt lat="47.25844" lon="6.50555">
        <ele>759</ele>
        <time>2018-05-01T13:36:47.000Z</time>
      </trkpt>
      <trkpt lat="47.25861" lon="6.50568">
        <ele>758.40002441406</ele>
        <time>2018-05-01T13:36:53.000Z</time>
      </trkpt>
      <trkpt lat="47.25874" lon="6.50579">
        <ele>759</ele>
        <time>2018-05-01T13:36:58.000Z</time>
      </trkpt>
      <trkpt lat="47.25875" lon="6.50581">
        <ele>759.20001220703</ele>
        <time>2018-05-01T13:36:59.000Z</time>
      </trkpt>
      <trkpt lat="47.25878" lon="6.50587">
        <ele>759.79998779297</ele>
        <time>2018-05-01T13:37:02.000Z</time>
      </trkpt>
      <trkpt lat="47.25878" lon="6.50589">
        <ele>760.20001220703</ele>
        <time>2018-05-01T13:37:03.000Z</time>
      </trkpt>
      <trkpt lat="47.2588" lon="6.50594">
        <ele>760.79998779297</ele>
        <time>2018-05-01T13:37:05.000Z</time>
      </trkpt>
      <trkpt lat="47.25883" lon="6.506">
        <ele>761.20001220703</ele>
        <time>2018-05-01T13:37:07.000Z</time>
      </trkpt>
      <trkpt lat="47.25885" lon="6.50602">
        <ele>761.40002441406</ele>
        <time>2018-05-01T13:37:08.000Z</time>
      </trkpt>
      <trkpt lat="47.25887" lon="6.50606">
        <ele>761.79998779297</ele>
        <time>2018-05-01T13:37:10.000Z</time>
      </trkpt>
      <trkpt lat="47.25891" lon="6.50611">
        <ele>762.20001220703</ele>
        <time>2018-05-01T13:37:12.000Z</time>
      </trkpt>
      <trkpt lat="47.25896" lon="6.50622">
        <ele>763.40002441406</ele>
        <time>2018-05-01T13:37:17.000Z</time>
      </trkpt>
      <trkpt lat="47.25898" lon="6.50626">
        <ele>763.79998779297</ele>
        <time>2018-05-01T13:37:19.000Z</time>
      </trkpt>
      <trkpt lat="47.259" lon="6.5063">
        <ele>764.20001220703</ele>
        <time>2018-05-01T13:37:21.000Z</time>
      </trkpt>
      <trkpt lat="47.25901" lon="6.50632">
        <ele>764.40002441406</ele>
        <time>2018-05-01T13:37:22.000Z</time>
      </trkpt>
      <trkpt lat="47.25905" lon="6.50638">
        <ele>765</ele>
        <time>2018-05-01T13:37:25.000Z</time>
      </trkpt>
      <trkpt lat="47.25906" lon="6.50639">
        <ele>765</ele>
        <time>2018-05-01T13:37:26.000Z</time>
      </trkpt>
      <trkpt lat="47.25907" lon="6.50642">
        <ele>765.20001220703</ele>
        <time>2018-05-01T13:37:27.000Z</time>
      </trkpt>
      <trkpt lat="47.25909" lon="6.50646">
        <ele>765.79998779297</ele>
        <time>2018-05-01T13:37:29.000Z</time>
      </trkpt>
      <trkpt lat="47.2591" lon="6.50648">
        <ele>766</ele>
        <time>2018-05-01T13:37:30.000Z</time>
      </trkpt>
      <trkpt lat="47.25911" lon="6.5065">
        <ele>766.20001220703</ele>
        <time>2018-05-01T13:37:31.000Z</time>
      </trkpt>
      <trkpt lat="47.25912" lon="6.50652">
        <ele>766.40002441406</ele>
        <time>2018-05-01T13:37:32.000Z</time>
      </trkpt>
      <trkpt lat="47.25914" lon="6.50654">
        <ele>766.59997558594</ele>
        <time>2018-05-01T13:37:33.000Z</time>
      </trkpt>
      <trkpt lat="47.25917" lon="6.50658">
        <ele>766.79998779297</ele>
        <time>2018-05-01T13:37:35.000Z</time>
      </trkpt>
      <trkpt lat="47.25918" lon="6.5066">
        <ele>767</ele>
        <time>2018-05-01T13:37:36.000Z</time>
      </trkpt>
      <trkpt lat="47.2592" lon="6.50664">
        <ele>767.40002441406</ele>
        <time>2018-05-01T13:37:38.000Z</time>
      </trkpt>
      <trkpt lat="47.25922" lon="6.50666">
        <ele>767.59997558594</ele>
        <time>2018-05-01T13:37:39.000Z</time>
      </trkpt>
      <trkpt lat="47.25924" lon="6.50668">
        <ele>767.59997558594</ele>
        <time>2018-05-01T13:37:40.000Z</time>
      </trkpt>
      <trkpt lat="47.25925" lon="6.5067">
        <ele>767.79998779297</ele>
        <time>2018-05-01T13:37:41.000Z</time>
      </trkpt>
      <trkpt lat="47.25926" lon="6.50672">
        <ele>768.20001220703</ele>
        <time>2018-05-01T13:37:42.000Z</time>
      </trkpt>
      <trkpt lat="47.25929" lon="6.50676">
        <ele>768.40002441406</ele>
        <time>2018-05-01T13:37:44.000Z</time>
      </trkpt>
      <trkpt lat="47.25931" lon="6.5068">
        <ele>768.79998779297</ele>
        <time>2018-05-01T13:37:46.000Z</time>
      </trkpt>
      <trkpt lat="47.25937" lon="6.50691">
        <ele>770</ele>
        <time>2018-05-01T13:37:51.000Z</time>
      </trkpt>
      <trkpt lat="47.25938" lon="6.50693">
        <ele>770.20001220703</ele>
        <time>2018-05-01T13:37:52.000Z</time>
      </trkpt>
      <trkpt lat="47.25938" lon="6.50696">
        <ele>770.59997558594</ele>
        <time>2018-05-01T13:37:53.000Z</time>
      </trkpt>
      <trkpt lat="47.2594" lon="6.50698">
        <ele>770.79998779297</ele>
        <time>2018-05-01T13:37:54.000Z</time>
      </trkpt>
      <trkpt lat="47.25943" lon="6.50704">
        <ele>771.40002441406</ele>
        <time>2018-05-01T13:37:57.000Z</time>
      </trkpt>
      <trkpt lat="47.25945" lon="6.50707">
        <ele>771.59997558594</ele>
        <time>2018-05-01T13:37:59.000Z</time>
      </trkpt>
      <trkpt lat="47.25949" lon="6.50718">
        <ele>773</ele>
        <time>2018-05-01T13:38:04.000Z</time>
      </trkpt>
      <trkpt lat="47.25949" lon="6.5072">
        <ele>773.40002441406</ele>
        <time>2018-05-01T13:38:05.000Z</time>
      </trkpt>
      <trkpt lat="47.25949" lon="6.50729">
        <ele>774.79998779297</ele>
        <time>2018-05-01T13:38:09.000Z</time>
      </trkpt>
      <trkpt lat="47.25951" lon="6.50735">
        <ele>775.59997558594</ele>
        <time>2018-05-01T13:38:11.000Z</time>
      </trkpt>
      <trkpt lat="47.25954" lon="6.50744">
        <ele>776.59997558594</ele>
        <time>2018-05-01T13:38:16.000Z</time>
      </trkpt>
      <trkpt lat="47.25954" lon="6.50746">
        <ele>776.79998779297</ele>
        <time>2018-05-01T13:38:17.000Z</time>
      </trkpt>
      <trkpt lat="47.25955" lon="6.50747">
        <ele>776.79998779297</ele>
        <time>2018-05-01T13:38:18.000Z</time>
      </trkpt>
      <trkpt lat="47.25955" lon="6.50748">
        <ele>776.79998779297</ele>
        <time>2018-05-01T13:38:19.000Z</time>
      </trkpt>
      <trkpt lat="47.25958" lon="6.50753">
        <ele>777.20001220703</ele>
        <time>2018-05-01T13:38:22.000Z</time>
      </trkpt>
      <trkpt lat="47.25958" lon="6.50754">
        <ele>777.20001220703</ele>
        <time>2018-05-01T13:38:23.000Z</time>
      </trkpt>
      <trkpt lat="47.25959" lon="6.50756">
        <ele>777.40002441406</ele>
        <time>2018-05-01T13:38:24.000Z</time>
      </trkpt>
      <trkpt lat="47.25961" lon="6.50759">
        <ele>777.59997558594</ele>
        <time>2018-05-01T13:38:26.000Z</time>
      </trkpt>
      <trkpt lat="47.25961" lon="6.50762">
        <ele>778</ele>
        <time>2018-05-01T13:38:28.000Z</time>
      </trkpt>
      <trkpt lat="47.25962" lon="6.50766">
        <ele>778.40002441406</ele>
        <time>2018-05-01T13:38:30.000Z</time>
      </trkpt>
      <trkpt lat="47.25963" lon="6.50769">
        <ele>778.59997558594</ele>
        <time>2018-05-01T13:38:31.000Z</time>
      </trkpt>
      <trkpt lat="47.25966" lon="6.50775">
        <ele>779</ele>
        <time>2018-05-01T13:38:34.000Z</time>
      </trkpt>
      <trkpt lat="47.25968" lon="6.5078">
        <ele>779.59997558594</ele>
        <time>2018-05-01T13:38:36.000Z</time>
      </trkpt>
      <trkpt lat="47.25971" lon="6.50793">
        <ele>780.79998779297</ele>
        <time>2018-05-01T13:38:41.000Z</time>
      </trkpt>
      <trkpt lat="47.25973" lon="6.50797">
        <ele>781</ele>
        <time>2018-05-01T13:38:43.000Z</time>
      </trkpt>
      <trkpt lat="47.25974" lon="6.50799">
        <ele>781.20001220703</ele>
        <time>2018-05-01T13:38:44.000Z</time>
      </trkpt>
      <trkpt lat="47.25975" lon="6.50803">
        <ele>781.59997558594</ele>
        <time>2018-05-01T13:38:46.000Z</time>
      </trkpt>
      <trkpt lat="47.25976" lon="6.50806">
        <ele>781.79998779297</ele>
        <time>2018-05-01T13:38:47.000Z</time>
      </trkpt>
      <trkpt lat="47.25976" lon="6.50807">
        <ele>781.79998779297</ele>
        <time>2018-05-01T13:38:48.000Z</time>
      </trkpt>
      <trkpt lat="47.25977" lon="6.50813">
        <ele>782.40002441406</ele>
        <time>2018-05-01T13:38:50.000Z</time>
      </trkpt>
      <trkpt lat="47.25975" lon="6.50816">
        <ele>783</ele>
        <time>2018-05-01T13:38:51.000Z</time>
      </trkpt>
      <trkpt lat="47.25976" lon="6.50827">
        <ele>784</ele>
        <time>2018-05-01T13:38:55.000Z</time>
      </trkpt>
      <trkpt lat="47.25977" lon="6.50834">
        <ele>784.59997558594</ele>
        <time>2018-05-01T13:38:58.000Z</time>
      </trkpt>
      <trkpt lat="47.25977" lon="6.5084">
        <ele>785.20001220703</ele>
        <time>2018-05-01T13:39:01.000Z</time>
      </trkpt>
      <trkpt lat="47.25976" lon="6.50842">
        <ele>785.59997558594</ele>
        <time>2018-05-01T13:39:02.000Z</time>
      </trkpt>
      <trkpt lat="47.25975" lon="6.50845">
        <ele>786.20001220703</ele>
        <time>2018-05-01T13:39:04.000Z</time>
      </trkpt>
      <trkpt lat="47.25974" lon="6.50847">
        <ele>786.40002441406</ele>
        <time>2018-05-01T13:39:05.000Z</time>
      </trkpt>
      <trkpt lat="47.25969" lon="6.50848">
        <ele>786.79998779297</ele>
        <time>2018-05-01T13:39:09.000Z</time>
      </trkpt>
      <trkpt lat="47.25967" lon="6.50848">
        <ele>787.20001220703</ele>
        <time>2018-05-01T13:39:11.000Z</time>
      </trkpt>
      <trkpt lat="47.25959" lon="6.50846">
        <ele>787.79998779297</ele>
        <time>2018-05-01T13:39:17.000Z</time>
      </trkpt>
      <trkpt lat="47.25957" lon="6.50845">
        <ele>787.79998779297</ele>
        <time>2018-05-01T13:39:18.000Z</time>
      </trkpt>
      <trkpt lat="47.25951" lon="6.50843">
        <ele>788.20001220703</ele>
        <time>2018-05-01T13:39:23.000Z</time>
      </trkpt>
      <trkpt lat="47.25949" lon="6.50842">
        <ele>788.20001220703</ele>
        <time>2018-05-01T13:39:24.000Z</time>
      </trkpt>
      <trkpt lat="47.25942" lon="6.50839">
        <ele>788.59997558594</ele>
        <time>2018-05-01T13:39:29.000Z</time>
      </trkpt>
      <trkpt lat="47.25934" lon="6.50835">
        <ele>788.79998779297</ele>
        <time>2018-05-01T13:39:33.000Z</time>
      </trkpt>
      <trkpt lat="47.25932" lon="6.50834">
        <ele>789</ele>
        <time>2018-05-01T13:39:34.000Z</time>
      </trkpt>
      <trkpt lat="47.25927" lon="6.50834">
        <ele>789.40002441406</ele>
        <time>2018-05-01T13:39:37.000Z</time>
      </trkpt>
      <trkpt lat="47.25926" lon="6.50833">
        <ele>789.40002441406</ele>
        <time>2018-05-01T13:39:38.000Z</time>
      </trkpt>
      <trkpt lat="47.25924" lon="6.50834">
        <ele>789.79998779297</ele>
        <time>2018-05-01T13:39:39.000Z</time>
      </trkpt>
      <trkpt lat="47.25923" lon="6.50834">
        <ele>789.79998779297</ele>
        <time>2018-05-01T13:39:40.000Z</time>
      </trkpt>
      <trkpt lat="47.25922" lon="6.50834">
        <ele>789.79998779297</ele>
        <time>2018-05-01T13:39:42.000Z</time>
      </trkpt>
      <trkpt lat="47.25919" lon="6.50835">
        <ele>790.20001220703</ele>
        <time>2018-05-01T13:39:44.000Z</time>
      </trkpt>
      <trkpt lat="47.25916" lon="6.50837">
        <ele>790.59997558594</ele>
        <time>2018-05-01T13:39:46.000Z</time>
      </trkpt>
      <trkpt lat="47.25913" lon="6.50839">
        <ele>791</ele>
        <time>2018-05-01T13:39:48.000Z</time>
      </trkpt>
      <trkpt lat="47.2591" lon="6.50843">
        <ele>791.79998779297</ele>
        <time>2018-05-01T13:39:51.000Z</time>
      </trkpt>
      <trkpt lat="47.25909" lon="6.50845">
        <ele>792</ele>
        <time>2018-05-01T13:39:52.000Z</time>
      </trkpt>
      <trkpt lat="47.25908" lon="6.50845">
        <ele>792.20001220703</ele>
        <time>2018-05-01T13:39:53.000Z</time>
      </trkpt>
      <trkpt lat="47.25905" lon="6.50849">
        <ele>792.79998779297</ele>
        <time>2018-05-01T13:39:56.000Z</time>
      </trkpt>
      <trkpt lat="47.25903" lon="6.5085">
        <ele>793.20001220703</ele>
        <time>2018-05-01T13:39:57.000Z</time>
      </trkpt>
      <trkpt lat="47.25899" lon="6.50852">
        <ele>793.79998779297</ele>
        <time>2018-05-01T13:40:03.000Z</time>
      </trkpt>
      <trkpt lat="47.25898" lon="6.50853">
        <ele>794</ele>
        <time>2018-05-01T13:40:05.000Z</time>
      </trkpt>
      <trkpt lat="47.25896" lon="6.50853">
        <ele>794.20001220703</ele>
        <time>2018-05-01T13:40:08.000Z</time>
      </trkpt>
      <trkpt lat="47.25889" lon="6.50856">
        <ele>795.20001220703</ele>
        <time>2018-05-01T13:40:12.000Z</time>
      </trkpt>
      <trkpt lat="47.25887" lon="6.50857">
        <ele>795.59997558594</ele>
        <time>2018-05-01T13:40:13.000Z</time>
      </trkpt>
      <trkpt lat="47.25886" lon="6.50858">
        <ele>795.79998779297</ele>
        <time>2018-05-01T13:40:14.000Z</time>
      </trkpt>
      <trkpt lat="47.25884" lon="6.50858">
        <ele>796</ele>
        <time>2018-05-01T13:40:16.000Z</time>
      </trkpt>
      <trkpt lat="47.25881" lon="6.50859">
        <ele>796.40002441406</ele>
        <time>2018-05-01T13:40:19.000Z</time>
      </trkpt>
      <trkpt lat="47.25876" lon="6.50859">
        <ele>797</ele>
        <time>2018-05-01T13:40:21.000Z</time>
      </trkpt>
      <trkpt lat="47.25874" lon="6.50858">
        <ele>797.20001220703</ele>
        <time>2018-05-01T13:40:22.000Z</time>
      </trkpt>
      <trkpt lat="47.25871" lon="6.50859">
        <ele>797.59997558594</ele>
        <time>2018-05-01T13:40:24.000Z</time>
      </trkpt>
      <trkpt lat="47.25863" lon="6.50862">
        <ele>799</ele>
        <time>2018-05-01T13:40:28.000Z</time>
      </trkpt>
      <trkpt lat="47.25862" lon="6.50861">
        <ele>799</ele>
        <time>2018-05-01T13:40:29.000Z</time>
      </trkpt>
      <trkpt lat="47.25859" lon="6.50861">
        <ele>799.40002441406</ele>
        <time>2018-05-01T13:40:31.000Z</time>
      </trkpt>
      <trkpt lat="47.25858" lon="6.50862">
        <ele>799.59997558594</ele>
        <time>2018-05-01T13:40:32.000Z</time>
      </trkpt>
      <trkpt lat="47.25853" lon="6.50862">
        <ele>800.20001220703</ele>
        <time>2018-05-01T13:40:35.000Z</time>
      </trkpt>
      <trkpt lat="47.25852" lon="6.50862">
        <ele>800.40002441406</ele>
        <time>2018-05-01T13:40:36.000Z</time>
      </trkpt>
      <trkpt lat="47.25851" lon="6.50862">
        <ele>800.59997558594</ele>
        <time>2018-05-01T13:40:37.000Z</time>
      </trkpt>
      <trkpt lat="47.25847" lon="6.50862">
        <ele>801</ele>
        <time>2018-05-01T13:40:39.000Z</time>
      </trkpt>
      <trkpt lat="47.25846" lon="6.50864">
        <ele>801.40002441406</ele>
        <time>2018-05-01T13:40:40.000Z</time>
      </trkpt>
      <trkpt lat="47.25844" lon="6.50864">
        <ele>801.79998779297</ele>
        <time>2018-05-01T13:40:42.000Z</time>
      </trkpt>
      <trkpt lat="47.25841" lon="6.50863">
        <ele>802</ele>
        <time>2018-05-01T13:40:43.000Z</time>
      </trkpt>
      <trkpt lat="47.25838" lon="6.50864">
        <ele>802.59997558594</ele>
        <time>2018-05-01T13:40:45.000Z</time>
      </trkpt>
      <trkpt lat="47.25837" lon="6.50864">
        <ele>802.59997558594</ele>
        <time>2018-05-01T13:40:47.000Z</time>
      </trkpt>
      <trkpt lat="47.2583" lon="6.50864">
        <ele>803.59997558594</ele>
        <time>2018-05-01T13:40:51.000Z</time>
      </trkpt>
      <trkpt lat="47.25827" lon="6.50864">
        <ele>803.79998779297</ele>
        <time>2018-05-01T13:40:52.000Z</time>
      </trkpt>
      <trkpt lat="47.25822" lon="6.50863">
        <ele>803.79998779297</ele>
        <time>2018-05-01T13:40:54.000Z</time>
      </trkpt>
      <trkpt lat="47.2582" lon="6.50862">
        <ele>803.79998779297</ele>
        <time>2018-05-01T13:40:55.000Z</time>
      </trkpt>
      <trkpt lat="47.25814" lon="6.5086">
        <ele>804</ele>
        <time>2018-05-01T13:40:58.000Z</time>
      </trkpt>
      <trkpt lat="47.25812" lon="6.5086">
        <ele>804</ele>
        <time>2018-05-01T13:40:59.000Z</time>
      </trkpt>
      <trkpt lat="47.25807" lon="6.50862">
        <ele>804.40002441406</ele>
        <time>2018-05-01T13:41:01.000Z</time>
      </trkpt>
      <trkpt lat="47.25805" lon="6.50862">
        <ele>804.59997558594</ele>
        <time>2018-05-01T13:41:02.000Z</time>
      </trkpt>
      <trkpt lat="47.25802" lon="6.50861">
        <ele>804.59997558594</ele>
        <time>2018-05-01T13:41:03.000Z</time>
      </trkpt>
      <trkpt lat="47.25797" lon="6.5086">
        <ele>804.79998779297</ele>
        <time>2018-05-01T13:41:06.000Z</time>
      </trkpt>
      <trkpt lat="47.25792" lon="6.5086">
        <ele>805</ele>
        <time>2018-05-01T13:41:09.000Z</time>
      </trkpt>
      <trkpt lat="47.25782" lon="6.50862">
        <ele>805.40002441406</ele>
        <time>2018-05-01T13:41:15.000Z</time>
      </trkpt>
      <trkpt lat="47.25772" lon="6.50871">
        <ele>806.59997558594</ele>
        <time>2018-05-01T13:41:21.000Z</time>
      </trkpt>
      <trkpt lat="47.2577" lon="6.50872">
        <ele>806.79998779297</ele>
        <time>2018-05-01T13:41:22.000Z</time>
      </trkpt>
      <trkpt lat="47.25769" lon="6.50873">
        <ele>806.79998779297</ele>
        <time>2018-05-01T13:41:27.000Z</time>
      </trkpt>
      <trkpt lat="47.25765" lon="6.50876">
        <ele>807.20001220703</ele>
        <time>2018-05-01T13:41:33.000Z</time>
      </trkpt>
      <trkpt lat="47.25761" lon="6.5088">
        <ele>807.59997558594</ele>
        <time>2018-05-01T13:41:37.000Z</time>
      </trkpt>
      <trkpt lat="47.25759" lon="6.50881">
        <ele>807.79998779297</ele>
        <time>2018-05-01T13:41:38.000Z</time>
      </trkpt>
      <trkpt lat="47.25752" lon="6.50886">
        <ele>808.40002441406</ele>
        <time>2018-05-01T13:41:40.000Z</time>
      </trkpt>
      <trkpt lat="47.2575" lon="6.50887">
        <ele>808.59997558594</ele>
        <time>2018-05-01T13:41:41.000Z</time>
      </trkpt>
      <trkpt lat="47.25746" lon="6.5089">
        <ele>809</ele>
        <time>2018-05-01T13:41:45.000Z</time>
      </trkpt>
      <trkpt lat="47.25744" lon="6.50892">
        <ele>809.20001220703</ele>
        <time>2018-05-01T13:41:46.000Z</time>
      </trkpt>
      <trkpt lat="47.25739" lon="6.50895">
        <ele>809.40002441406</ele>
        <time>2018-05-01T13:41:48.000Z</time>
      </trkpt>
      <trkpt lat="47.25737" lon="6.50897">
        <ele>809.40002441406</ele>
        <time>2018-05-01T13:41:50.000Z</time>
      </trkpt>
      <trkpt lat="47.25736" lon="6.50899">
        <ele>809.40002441406</ele>
        <time>2018-05-01T13:41:51.000Z</time>
      </trkpt>
      <trkpt lat="47.25733" lon="6.509">
        <ele>809.40002441406</ele>
        <time>2018-05-01T13:41:53.000Z</time>
      </trkpt>
      <trkpt lat="47.25732" lon="6.50901">
        <ele>809.40002441406</ele>
        <time>2018-05-01T13:41:54.000Z</time>
      </trkpt>
      <trkpt lat="47.25732" lon="6.50901">
        <ele>809.40002441406</ele>
        <time>2018-05-01T13:41:59.000Z</time>
      </trkpt>
      <trkpt lat="47.2573" lon="6.50901">
        <ele>809.40002441406</ele>
        <time>2018-05-01T13:42:02.000Z</time>
      </trkpt>
      <trkpt lat="47.25728" lon="6.50903">
        <ele>809.40002441406</ele>
        <time>2018-05-01T13:42:04.000Z</time>
      </trkpt>
      <trkpt lat="47.25726" lon="6.50905">
        <ele>809.59997558594</ele>
        <time>2018-05-01T13:42:06.000Z</time>
      </trkpt>
      <trkpt lat="47.25724" lon="6.50907">
        <ele>809.79998779297</ele>
        <time>2018-05-01T13:42:07.000Z</time>
      </trkpt>
      <trkpt lat="47.25722" lon="6.5091">
        <ele>810</ele>
        <time>2018-05-01T13:42:08.000Z</time>
      </trkpt>
      <trkpt lat="47.25716" lon="6.50915">
        <ele>810.40002441406</ele>
        <time>2018-05-01T13:42:11.000Z</time>
      </trkpt>
      <trkpt lat="47.25714" lon="6.50918">
        <ele>810.59997558594</ele>
        <time>2018-05-01T13:42:12.000Z</time>
      </trkpt>
      <trkpt lat="47.25711" lon="6.5092">
        <ele>810.79998779297</ele>
        <time>2018-05-01T13:42:13.000Z</time>
      </trkpt>
      <trkpt lat="47.25707" lon="6.50927">
        <ele>811.40002441406</ele>
        <time>2018-05-01T13:42:16.000Z</time>
      </trkpt>
      <trkpt lat="47.25702" lon="6.50935">
        <ele>812</ele>
        <time>2018-05-01T13:42:19.000Z</time>
      </trkpt>
      <trkpt lat="47.257" lon="6.50938">
        <ele>812.40002441406</ele>
        <time>2018-05-01T13:42:20.000Z</time>
      </trkpt>
      <trkpt lat="47.25693" lon="6.50948">
        <ele>813</ele>
        <time>2018-05-01T13:42:22.000Z</time>
      </trkpt>
      <trkpt lat="47.25689" lon="6.50953">
        <ele>813.20001220703</ele>
        <time>2018-05-01T13:42:23.000Z</time>
      </trkpt>
      <trkpt lat="47.25684" lon="6.50959">
        <ele>813.59997558594</ele>
        <time>2018-05-01T13:42:24.000Z</time>
      </trkpt>
      <trkpt lat="47.2568" lon="6.50965">
        <ele>814</ele>
        <time>2018-05-01T13:42:25.000Z</time>
      </trkpt>
      <trkpt lat="47.25677" lon="6.50971">
        <ele>814.59997558594</ele>
        <time>2018-05-01T13:42:27.000Z</time>
      </trkpt>
      <trkpt lat="47.25676" lon="6.50975">
        <ele>814.79998779297</ele>
        <time>2018-05-01T13:42:28.000Z</time>
      </trkpt>
      <trkpt lat="47.25675" lon="6.50978">
        <ele>815.20001220703</ele>
        <time>2018-05-01T13:42:29.000Z</time>
      </trkpt>
      <trkpt lat="47.25674" lon="6.50981">
        <ele>815.40002441406</ele>
        <time>2018-05-01T13:42:30.000Z</time>
      </trkpt>
      <trkpt lat="47.2567" lon="6.50987">
        <ele>815.79998779297</ele>
        <time>2018-05-01T13:42:33.000Z</time>
      </trkpt>
      <trkpt lat="47.25668" lon="6.50989">
        <ele>815.79998779297</ele>
        <time>2018-05-01T13:42:34.000Z</time>
      </trkpt>
      <trkpt lat="47.25668" lon="6.5099">
        <ele>815.79998779297</ele>
        <time>2018-05-01T13:42:35.000Z</time>
      </trkpt>
      <trkpt lat="47.25667" lon="6.50995">
        <ele>816.40002441406</ele>
        <time>2018-05-01T13:42:37.000Z</time>
      </trkpt>
      <trkpt lat="47.25665" lon="6.50999">
        <ele>816.59997558594</ele>
        <time>2018-05-01T13:42:38.000Z</time>
      </trkpt>
      <trkpt lat="47.25663" lon="6.51005">
        <ele>817.20001220703</ele>
        <time>2018-05-01T13:42:41.000Z</time>
      </trkpt>
      <trkpt lat="47.25662" lon="6.51007">
        <ele>817.40002441406</ele>
        <time>2018-05-01T13:42:42.000Z</time>
      </trkpt>
      <trkpt lat="47.25661" lon="6.51009">
        <ele>817.59997558594</ele>
        <time>2018-05-01T13:42:43.000Z</time>
      </trkpt>
      <trkpt lat="47.25658" lon="6.51013">
        <ele>818</ele>
        <time>2018-05-01T13:42:45.000Z</time>
      </trkpt>
      <trkpt lat="47.25657" lon="6.51017">
        <ele>818.20001220703</ele>
        <time>2018-05-01T13:42:47.000Z</time>
      </trkpt>
      <trkpt lat="47.25654" lon="6.51026">
        <ele>819</ele>
        <time>2018-05-01T13:42:51.000Z</time>
      </trkpt>
      <trkpt lat="47.25652" lon="6.51031">
        <ele>819.40002441406</ele>
        <time>2018-05-01T13:42:53.000Z</time>
      </trkpt>
      <trkpt lat="47.25652" lon="6.51033">
        <ele>819.59997558594</ele>
        <time>2018-05-01T13:42:54.000Z</time>
      </trkpt>
      <trkpt lat="47.25652" lon="6.51035">
        <ele>820</ele>
        <time>2018-05-01T13:42:55.000Z</time>
      </trkpt>
      <trkpt lat="47.25651" lon="6.51039">
        <ele>820.40002441406</ele>
        <time>2018-05-01T13:42:57.000Z</time>
      </trkpt>
      <trkpt lat="47.2565" lon="6.51041">
        <ele>820.40002441406</ele>
        <time>2018-05-01T13:42:58.000Z</time>
      </trkpt>
      <trkpt lat="47.2565" lon="6.51046">
        <ele>821</ele>
        <time>2018-05-01T13:43:00.000Z</time>
      </trkpt>
      <trkpt lat="47.25649" lon="6.51048">
        <ele>821.20001220703</ele>
        <time>2018-05-01T13:43:01.000Z</time>
      </trkpt>
      <trkpt lat="47.25649" lon="6.51053">
        <ele>821.59997558594</ele>
        <time>2018-05-01T13:43:03.000Z</time>
      </trkpt>
      <trkpt lat="47.25649" lon="6.51057">
        <ele>822.20001220703</ele>
        <time>2018-05-01T13:43:05.000Z</time>
      </trkpt>
      <trkpt lat="47.25649" lon="6.51059">
        <ele>822.40002441406</ele>
        <time>2018-05-01T13:43:06.000Z</time>
      </trkpt>
      <trkpt lat="47.25648" lon="6.51072">
        <ele>824.20001220703</ele>
        <time>2018-05-01T13:43:12.000Z</time>
      </trkpt>
      <trkpt lat="47.25648" lon="6.51074">
        <ele>824.40002441406</ele>
        <time>2018-05-01T13:43:13.000Z</time>
      </trkpt>
      <trkpt lat="47.25647" lon="6.51079">
        <ele>825</ele>
        <time>2018-05-01T13:43:16.000Z</time>
      </trkpt>
      <trkpt lat="47.25647" lon="6.51085">
        <ele>825.79998779297</ele>
        <time>2018-05-01T13:43:19.000Z</time>
      </trkpt>
      <trkpt lat="47.25647" lon="6.51087">
        <ele>826</ele>
        <time>2018-05-01T13:43:20.000Z</time>
      </trkpt>
      <trkpt lat="47.25647" lon="6.51088">
        <ele>826.20001220703</ele>
        <time>2018-05-01T13:43:21.000Z</time>
      </trkpt>
      <trkpt lat="47.25653" lon="6.51096">
        <ele>827.59997558594</ele>
        <time>2018-05-01T13:43:26.000Z</time>
      </trkpt>
      <trkpt lat="47.25654" lon="6.51097">
        <ele>827.79998779297</ele>
        <time>2018-05-01T13:43:27.000Z</time>
      </trkpt>
      <trkpt lat="47.25656" lon="6.51099">
        <ele>828</ele>
        <time>2018-05-01T13:43:29.000Z</time>
      </trkpt>
      <trkpt lat="47.2566" lon="6.51105">
        <ele>828.79998779297</ele>
        <time>2018-05-01T13:43:33.000Z</time>
      </trkpt>
      <trkpt lat="47.25661" lon="6.51106">
        <ele>829</ele>
        <time>2018-05-01T13:43:34.000Z</time>
      </trkpt>
      <trkpt lat="47.25665" lon="6.51111">
        <ele>829.79998779297</ele>
        <time>2018-05-01T13:43:38.000Z</time>
      </trkpt>
      <trkpt lat="47.25666" lon="6.51114">
        <ele>830.40002441406</ele>
        <time>2018-05-01T13:43:40.000Z</time>
      </trkpt>
      <trkpt lat="47.25667" lon="6.51118">
        <ele>830.79998779297</ele>
        <time>2018-05-01T13:43:42.000Z</time>
      </trkpt>
      <trkpt lat="47.25666" lon="6.51122">
        <ele>831.40002441406</ele>
        <time>2018-05-01T13:43:44.000Z</time>
      </trkpt>
      <trkpt lat="47.25665" lon="6.51126">
        <ele>831.79998779297</ele>
        <time>2018-05-01T13:43:46.000Z</time>
      </trkpt>
      <trkpt lat="47.25665" lon="6.51129">
        <ele>832.20001220703</ele>
        <time>2018-05-01T13:43:48.000Z</time>
      </trkpt>
      <trkpt lat="47.25664" lon="6.51133">
        <ele>832.79998779297</ele>
        <time>2018-05-01T13:43:51.000Z</time>
      </trkpt>
      <trkpt lat="47.25663" lon="6.51135">
        <ele>833</ele>
        <time>2018-05-01T13:43:52.000Z</time>
      </trkpt>
      <trkpt lat="47.25662" lon="6.51142">
        <ele>834</ele>
        <time>2018-05-01T13:43:56.000Z</time>
      </trkpt>
      <trkpt lat="47.25662" lon="6.51144">
        <ele>834.20001220703</ele>
        <time>2018-05-01T13:43:57.000Z</time>
      </trkpt>
      <trkpt lat="47.25663" lon="6.51149">
        <ele>834.79998779297</ele>
        <time>2018-05-01T13:44:00.000Z</time>
      </trkpt>
      <trkpt lat="47.25662" lon="6.51157">
        <ele>835.59997558594</ele>
        <time>2018-05-01T13:44:04.000Z</time>
      </trkpt>
      <trkpt lat="47.25662" lon="6.51163">
        <ele>836.40002441406</ele>
        <time>2018-05-01T13:44:08.000Z</time>
      </trkpt>
      <trkpt lat="47.25661" lon="6.51167">
        <ele>836.79998779297</ele>
        <time>2018-05-01T13:44:10.000Z</time>
      </trkpt>
      <trkpt lat="47.25661" lon="6.51169">
        <ele>836.79998779297</ele>
        <time>2018-05-01T13:44:11.000Z</time>
      </trkpt>
      <trkpt lat="47.25663" lon="6.51177">
        <ele>838</ele>
        <time>2018-05-01T13:44:16.000Z</time>
      </trkpt>
      <trkpt lat="47.25665" lon="6.5118">
        <ele>838.40002441406</ele>
        <time>2018-05-01T13:44:18.000Z</time>
      </trkpt>
      <trkpt lat="47.25666" lon="6.51182">
        <ele>838.59997558594</ele>
        <time>2018-05-01T13:44:19.000Z</time>
      </trkpt>
      <trkpt lat="47.25669" lon="6.51184">
        <ele>839</ele>
        <time>2018-05-01T13:44:21.000Z</time>
      </trkpt>
      <trkpt lat="47.25671" lon="6.51186">
        <ele>839.40002441406</ele>
        <time>2018-05-01T13:44:23.000Z</time>
      </trkpt>
      <trkpt lat="47.25672" lon="6.51187">
        <ele>839.59997558594</ele>
        <time>2018-05-01T13:44:24.000Z</time>
      </trkpt>
      <trkpt lat="47.25677" lon="6.51191">
        <ele>840.20001220703</ele>
        <time>2018-05-01T13:44:28.000Z</time>
      </trkpt>
      <trkpt lat="47.25679" lon="6.51195">
        <ele>840.79998779297</ele>
        <time>2018-05-01T13:44:31.000Z</time>
      </trkpt>
      <trkpt lat="47.25684" lon="6.51203">
        <ele>842</ele>
        <time>2018-05-01T13:44:37.000Z</time>
      </trkpt>
      <trkpt lat="47.25688" lon="6.5121">
        <ele>843</ele>
        <time>2018-05-01T13:44:42.000Z</time>
      </trkpt>
      <trkpt lat="47.25689" lon="6.51211">
        <ele>843.20001220703</ele>
        <time>2018-05-01T13:44:43.000Z</time>
      </trkpt>
      <trkpt lat="47.25695" lon="6.51219">
        <ele>844.40002441406</ele>
        <time>2018-05-01T13:44:49.000Z</time>
      </trkpt>
      <trkpt lat="47.25696" lon="6.51221">
        <ele>844.59997558594</ele>
        <time>2018-05-01T13:44:50.000Z</time>
      </trkpt>
      <trkpt lat="47.25702" lon="6.51228">
        <ele>845.79998779297</ele>
        <time>2018-05-01T13:44:54.000Z</time>
      </trkpt>
      <trkpt lat="47.25704" lon="6.51229">
        <ele>846</ele>
        <time>2018-05-01T13:44:55.000Z</time>
      </trkpt>
      <trkpt lat="47.2571" lon="6.51237">
        <ele>847</ele>
        <time>2018-05-01T13:45:00.000Z</time>
      </trkpt>
      <trkpt lat="47.25713" lon="6.51242">
        <ele>847.40002441406</ele>
        <time>2018-05-01T13:45:03.000Z</time>
      </trkpt>
      <trkpt lat="47.25716" lon="6.51245">
        <ele>847.59997558594</ele>
        <time>2018-05-01T13:45:05.000Z</time>
      </trkpt>
      <trkpt lat="47.25717" lon="6.51246">
        <ele>847.79998779297</ele>
        <time>2018-05-01T13:45:06.000Z</time>
      </trkpt>
      <trkpt lat="47.25722" lon="6.51251">
        <ele>848.20001220703</ele>
        <time>2018-05-01T13:45:09.000Z</time>
      </trkpt>
      <trkpt lat="47.25723" lon="6.51253">
        <ele>848.40002441406</ele>
        <time>2018-05-01T13:45:10.000Z</time>
      </trkpt>
      <trkpt lat="47.25732" lon="6.51267">
        <ele>849.40002441406</ele>
        <time>2018-05-01T13:45:17.000Z</time>
      </trkpt>
      <trkpt lat="47.2574" lon="6.51276">
        <ele>850.20001220703</ele>
        <time>2018-05-01T13:45:22.000Z</time>
      </trkpt>
      <trkpt lat="47.25744" lon="6.51281">
        <ele>850.59997558594</ele>
        <time>2018-05-01T13:45:25.000Z</time>
      </trkpt>
      <trkpt lat="47.25757" lon="6.51292">
        <ele>851.79998779297</ele>
        <time>2018-05-01T13:45:33.000Z</time>
      </trkpt>
      <trkpt lat="47.25762" lon="6.513">
        <ele>852.59997558594</ele>
        <time>2018-05-01T13:45:37.000Z</time>
      </trkpt>
      <trkpt lat="47.25763" lon="6.51302">
        <ele>852.79998779297</ele>
        <time>2018-05-01T13:45:38.000Z</time>
      </trkpt>
      <trkpt lat="47.25768" lon="6.51309">
        <ele>853.20001220703</ele>
        <time>2018-05-01T13:45:41.000Z</time>
      </trkpt>
      <trkpt lat="47.25771" lon="6.51313">
        <ele>853.59997558594</ele>
        <time>2018-05-01T13:45:43.000Z</time>
      </trkpt>
      <trkpt lat="47.25774" lon="6.51316">
        <ele>854</ele>
        <time>2018-05-01T13:45:45.000Z</time>
      </trkpt>
      <trkpt lat="47.25786" lon="6.51327">
        <ele>854.20001220703</ele>
        <time>2018-05-01T13:45:52.000Z</time>
      </trkpt>
      <trkpt lat="47.25799" lon="6.51335">
        <ele>854.59997558594</ele>
        <time>2018-05-01T13:45:59.000Z</time>
      </trkpt>
      <trkpt lat="47.25807" lon="6.51343">
        <ele>854.59997558594</ele>
        <time>2018-05-01T13:46:04.000Z</time>
      </trkpt>
      <trkpt lat="47.25815" lon="6.51347">
        <ele>854.79998779297</ele>
        <time>2018-05-01T13:46:08.000Z</time>
      </trkpt>
      <trkpt lat="47.25817" lon="6.51348">
        <ele>855</ele>
        <time>2018-05-01T13:46:09.000Z</time>
      </trkpt>
      <trkpt lat="47.25829" lon="6.51347">
        <ele>855.79998779297</ele>
        <time>2018-05-01T13:46:15.000Z</time>
      </trkpt>
      <trkpt lat="47.2584" lon="6.5135">
        <ele>855.40002441406</ele>
        <time>2018-05-01T13:46:21.000Z</time>
      </trkpt>
      <trkpt lat="47.25845" lon="6.5135">
        <ele>855.20001220703</ele>
        <time>2018-05-01T13:46:23.000Z</time>
      </trkpt>
      <trkpt lat="47.25849" lon="6.51351">
        <ele>855</ele>
        <time>2018-05-01T13:46:24.000Z</time>
      </trkpt>
      <trkpt lat="47.25853" lon="6.51351">
        <ele>855</ele>
        <time>2018-05-01T13:46:25.000Z</time>
      </trkpt>
      <trkpt lat="47.25857" lon="6.51352">
        <ele>854.79998779297</ele>
        <time>2018-05-01T13:46:26.000Z</time>
      </trkpt>
      <trkpt lat="47.25861" lon="6.51351">
        <ele>854.79998779297</ele>
        <time>2018-05-01T13:46:27.000Z</time>
      </trkpt>
      <trkpt lat="47.25869" lon="6.51348">
        <ele>855</ele>
        <time>2018-05-01T13:46:29.000Z</time>
      </trkpt>
      <trkpt lat="47.25873" lon="6.51346">
        <ele>855</ele>
        <time>2018-05-01T13:46:30.000Z</time>
      </trkpt>
      <trkpt lat="47.25876" lon="6.51344">
        <ele>855.20001220703</ele>
        <time>2018-05-01T13:46:31.000Z</time>
      </trkpt>
      <trkpt lat="47.25879" lon="6.51342">
        <ele>855.40002441406</ele>
        <time>2018-05-01T13:46:33.000Z</time>
      </trkpt>
      <trkpt lat="47.25881" lon="6.51341">
        <ele>855.40002441406</ele>
        <time>2018-05-01T13:46:34.000Z</time>
      </trkpt>
      <trkpt lat="47.25883" lon="6.51341">
        <ele>855.20001220703</ele>
        <time>2018-05-01T13:46:35.000Z</time>
      </trkpt>
      <trkpt lat="47.25891" lon="6.51343">
        <ele>855.20001220703</ele>
        <time>2018-05-01T13:46:39.000Z</time>
      </trkpt>
      <trkpt lat="47.25903" lon="6.51342">
        <ele>855</ele>
        <time>2018-05-01T13:46:45.000Z</time>
      </trkpt>
      <trkpt lat="47.25912" lon="6.51348">
        <ele>854.40002441406</ele>
        <time>2018-05-01T13:46:50.000Z</time>
      </trkpt>
      <trkpt lat="47.25921" lon="6.51359">
        <ele>854</ele>
        <time>2018-05-01T13:46:55.000Z</time>
      </trkpt>
      <trkpt lat="47.25922" lon="6.51361">
        <ele>853.79998779297</ele>
        <time>2018-05-01T13:46:56.000Z</time>
      </trkpt>
      <trkpt lat="47.25929" lon="6.51371">
        <ele>853.40002441406</ele>
        <time>2018-05-01T13:47:00.000Z</time>
      </trkpt>
      <trkpt lat="47.25931" lon="6.51374">
        <ele>853.40002441406</ele>
        <time>2018-05-01T13:47:01.000Z</time>
      </trkpt>
      <trkpt lat="47.25941" lon="6.51395">
        <ele>852.20001220703</ele>
        <time>2018-05-01T13:47:07.000Z</time>
      </trkpt>
      <trkpt lat="47.25948" lon="6.51409">
        <ele>851.59997558594</ele>
        <time>2018-05-01T13:47:11.000Z</time>
      </trkpt>
      <trkpt lat="47.2595" lon="6.51411">
        <ele>851.59997558594</ele>
        <time>2018-05-01T13:47:12.000Z</time>
      </trkpt>
      <trkpt lat="47.25964" lon="6.51425">
        <ele>851.59997558594</ele>
        <time>2018-05-01T13:47:18.000Z</time>
      </trkpt>
      <trkpt lat="47.25973" lon="6.51435">
        <ele>851.59997558594</ele>
        <time>2018-05-01T13:47:22.000Z</time>
      </trkpt>
      <trkpt lat="47.2598" lon="6.51441">
        <ele>851.59997558594</ele>
        <time>2018-05-01T13:47:25.000Z</time>
      </trkpt>
      <trkpt lat="47.25997" lon="6.5146">
        <ele>851.40002441406</ele>
        <time>2018-05-01T13:47:32.000Z</time>
      </trkpt>
      <trkpt lat="47.25998" lon="6.51461">
        <ele>851.20001220703</ele>
        <time>2018-05-01T13:47:33.000Z</time>
      </trkpt>
      <trkpt lat="47.26" lon="6.51462">
        <ele>851</ele>
        <time>2018-05-01T13:47:34.000Z</time>
      </trkpt>
      <trkpt lat="47.26004" lon="6.51463">
        <ele>850.40002441406</ele>
        <time>2018-05-01T13:47:36.000Z</time>
      </trkpt>
      <trkpt lat="47.26008" lon="6.51467">
        <ele>849.79998779297</ele>
        <time>2018-05-01T13:47:38.000Z</time>
      </trkpt>
      <trkpt lat="47.26012" lon="6.51475">
        <ele>849</ele>
        <time>2018-05-01T13:47:41.000Z</time>
      </trkpt>
      <trkpt lat="47.26019" lon="6.51486">
        <ele>847.79998779297</ele>
        <time>2018-05-01T13:47:46.000Z</time>
      </trkpt>
      <trkpt lat="47.26028" lon="6.51497">
        <ele>846.79998779297</ele>
        <time>2018-05-01T13:47:51.000Z</time>
      </trkpt>
      <trkpt lat="47.26034" lon="6.51505">
        <ele>846.20001220703</ele>
        <time>2018-05-01T13:47:55.000Z</time>
      </trkpt>
      <trkpt lat="47.26047" lon="6.5152">
        <ele>844.79998779297</ele>
        <time>2018-05-01T13:48:01.000Z</time>
      </trkpt>
      <trkpt lat="47.26049" lon="6.51521">
        <ele>844.40002441406</ele>
        <time>2018-05-01T13:48:02.000Z</time>
      </trkpt>
      <trkpt lat="47.26051" lon="6.51525">
        <ele>844.20001220703</ele>
        <time>2018-05-01T13:48:03.000Z</time>
      </trkpt>
      <trkpt lat="47.26056" lon="6.51533">
        <ele>843.59997558594</ele>
        <time>2018-05-01T13:48:05.000Z</time>
      </trkpt>
      <trkpt lat="47.26059" lon="6.51537">
        <ele>843.20001220703</ele>
        <time>2018-05-01T13:48:08.000Z</time>
      </trkpt>
      <trkpt lat="47.26059" lon="6.51537">
        <ele>843.20001220703</ele>
        <time>2018-05-01T13:48:14.000Z</time>
      </trkpt>
      <trkpt lat="47.26059" lon="6.51537">
        <ele>843.20001220703</ele>
        <time>2018-05-01T13:48:28.000Z</time>
      </trkpt>
      <trkpt lat="47.26059" lon="6.51537">
        <ele>843.20001220703</ele>
        <time>2018-05-01T13:48:38.000Z</time>
      </trkpt>
      <trkpt lat="47.26059" lon="6.51537">
        <ele>843.20001220703</ele>
        <time>2018-05-01T13:48:50.000Z</time>
      </trkpt>
      <trkpt lat="47.26059" lon="6.51537">
        <ele>843.20001220703</ele>
        <time>2018-05-01T13:49:02.000Z</time>
      </trkpt>
      <trkpt lat="47.26059" lon="6.51537">
        <ele>843.20001220703</ele>
        <time>2018-05-01T13:49:11.000Z</time>
      </trkpt>
      <trkpt lat="47.26059" lon="6.51537">
        <ele>843.20001220703</ele>
        <time>2018-05-01T13:49:26.000Z</time>
      </trkpt>
      <trkpt lat="47.26059" lon="6.51537">
        <ele>843.20001220703</ele>
        <time>2018-05-01T13:49:31.000Z</time>
      </trkpt>
      <trkpt lat="47.26059" lon="6.51538">
        <ele>843.20001220703</ele>
        <time>2018-05-01T13:49:36.000Z</time>
      </trkpt>
      <trkpt lat="47.2606" lon="6.51543">
        <ele>843.20001220703</ele>
        <time>2018-05-01T13:49:38.000Z</time>
      </trkpt>
      <trkpt lat="47.26061" lon="6.51552">
        <ele>842.79998779297</ele>
        <time>2018-05-01T13:49:41.000Z</time>
      </trkpt>
      <trkpt lat="47.26063" lon="6.51561">
        <ele>842.20001220703</ele>
        <time>2018-05-01T13:49:43.000Z</time>
      </trkpt>
      <trkpt lat="47.26068" lon="6.51581">
        <ele>842.40002441406</ele>
        <time>2018-05-01T13:49:48.000Z</time>
      </trkpt>
      <trkpt lat="47.26069" lon="6.51586">
        <ele>842.59997558594</ele>
        <time>2018-05-01T13:49:49.000Z</time>
      </trkpt>
      <trkpt lat="47.26076" lon="6.51612">
        <ele>843.40002441406</ele>
        <time>2018-05-01T13:49:55.000Z</time>
      </trkpt>
      <trkpt lat="47.26079" lon="6.51629">
        <ele>844</ele>
        <time>2018-05-01T13:49:59.000Z</time>
      </trkpt>
      <trkpt lat="47.26082" lon="6.51645">
        <ele>844.40002441406</ele>
        <time>2018-05-01T13:50:03.000Z</time>
      </trkpt>
      <trkpt lat="47.26083" lon="6.51649">
        <ele>844.40002441406</ele>
        <time>2018-05-01T13:50:04.000Z</time>
      </trkpt>
      <trkpt lat="47.26081" lon="6.51662">
        <ele>844.59997558594</ele>
        <time>2018-05-01T13:50:08.000Z</time>
      </trkpt>
      <trkpt lat="47.2608" lon="6.51664">
        <ele>844.59997558594</ele>
        <time>2018-05-01T13:50:09.000Z</time>
      </trkpt>
      <trkpt lat="47.26074" lon="6.51668">
        <ele>844.59997558594</ele>
        <time>2018-05-01T13:50:12.000Z</time>
      </trkpt>
      <trkpt lat="47.2607" lon="6.51673">
        <ele>844.59997558594</ele>
        <time>2018-05-01T13:50:14.000Z</time>
      </trkpt>
      <trkpt lat="47.26068" lon="6.51676">
        <ele>844.59997558594</ele>
        <time>2018-05-01T13:50:15.000Z</time>
      </trkpt>
      <trkpt lat="47.26066" lon="6.51678">
        <ele>844.40002441406</ele>
        <time>2018-05-01T13:50:16.000Z</time>
      </trkpt>
      <trkpt lat="47.26055" lon="6.51687">
        <ele>844.40002441406</ele>
        <time>2018-05-01T13:50:20.000Z</time>
      </trkpt>
      <trkpt lat="47.26041" lon="6.51705">
        <ele>844.20001220703</ele>
        <time>2018-05-01T13:50:27.000Z</time>
      </trkpt>
      <trkpt lat="47.26026" lon="6.51723">
        <ele>844.40002441406</ele>
        <time>2018-05-01T13:50:33.000Z</time>
      </trkpt>
      <trkpt lat="47.26017" lon="6.51733">
        <ele>844.59997558594</ele>
        <time>2018-05-01T13:50:36.000Z</time>
      </trkpt>
      <trkpt lat="47.26006" lon="6.51745">
        <ele>844</ele>
        <time>2018-05-01T13:50:39.000Z</time>
      </trkpt>
      <trkpt lat="47.26002" lon="6.5175">
        <ele>844.40002441406</ele>
        <time>2018-05-01T13:50:40.000Z</time>
      </trkpt>
      <trkpt lat="47.25982" lon="6.51772">
        <ele>844.79998779297</ele>
        <time>2018-05-01T13:50:45.000Z</time>
      </trkpt>
      <trkpt lat="47.25979" lon="6.51776">
        <ele>844.79998779297</ele>
        <time>2018-05-01T13:50:46.000Z</time>
      </trkpt>
      <trkpt lat="47.25975" lon="6.5178">
        <ele>844.79998779297</ele>
        <time>2018-05-01T13:50:47.000Z</time>
      </trkpt>
      <trkpt lat="47.25965" lon="6.51778">
        <ele>844.59997558594</ele>
        <time>2018-05-01T13:50:50.000Z</time>
      </trkpt>
      <trkpt lat="47.25962" lon="6.51773">
        <ele>844.59997558594</ele>
        <time>2018-05-01T13:50:51.000Z</time>
      </trkpt>
      <trkpt lat="47.25959" lon="6.51769">
        <ele>844.59997558594</ele>
        <time>2018-05-01T13:50:52.000Z</time>
      </trkpt>
      <trkpt lat="47.25949" lon="6.51757">
        <ele>844.40002441406</ele>
        <time>2018-05-01T13:50:55.000Z</time>
      </trkpt>
      <trkpt lat="47.25945" lon="6.51754">
        <ele>844.40002441406</ele>
        <time>2018-05-01T13:50:56.000Z</time>
      </trkpt>
      <trkpt lat="47.25919" lon="6.51729">
        <ele>844</ele>
        <time>2018-05-01T13:51:02.000Z</time>
      </trkpt>
      <trkpt lat="47.259" lon="6.51713">
        <ele>843.40002441406</ele>
        <time>2018-05-01T13:51:06.000Z</time>
      </trkpt>
      <trkpt lat="47.25891" lon="6.51705">
        <ele>843.20001220703</ele>
        <time>2018-05-01T13:51:08.000Z</time>
      </trkpt>
      <trkpt lat="47.25886" lon="6.51702">
        <ele>843</ele>
        <time>2018-05-01T13:51:09.000Z</time>
      </trkpt>
      <trkpt lat="47.25876" lon="6.51696">
        <ele>842.59997558594</ele>
        <time>2018-05-01T13:51:11.000Z</time>
      </trkpt>
      <trkpt lat="47.25866" lon="6.5169">
        <ele>842.59997558594</ele>
        <time>2018-05-01T13:51:13.000Z</time>
      </trkpt>
      <trkpt lat="47.2585" lon="6.51683">
        <ele>843</ele>
        <time>2018-05-01T13:51:16.000Z</time>
      </trkpt>
      <trkpt lat="47.25834" lon="6.51677">
        <ele>843.20001220703</ele>
        <time>2018-05-01T13:51:19.000Z</time>
      </trkpt>
      <trkpt lat="47.25829" lon="6.51675">
        <ele>843.40002441406</ele>
        <time>2018-05-01T13:51:20.000Z</time>
      </trkpt>
      <trkpt lat="47.25819" lon="6.51671">
        <ele>843.40002441406</ele>
        <time>2018-05-01T13:51:22.000Z</time>
      </trkpt>
      <trkpt lat="47.25813" lon="6.51668">
        <ele>843.40002441406</ele>
        <time>2018-05-01T13:51:24.000Z</time>
      </trkpt>
      <trkpt lat="47.25806" lon="6.51665">
        <ele>843.59997558594</ele>
        <time>2018-05-01T13:51:27.000Z</time>
      </trkpt>
      <trkpt lat="47.25798" lon="6.51662">
        <ele>843.59997558594</ele>
        <time>2018-05-01T13:51:30.000Z</time>
      </trkpt>
      <trkpt lat="47.25784" lon="6.51657">
        <ele>843.79998779297</ele>
        <time>2018-05-01T13:51:35.000Z</time>
      </trkpt>
      <trkpt lat="47.25783" lon="6.51659">
        <ele>844.20001220703</ele>
        <time>2018-05-01T13:51:36.000Z</time>
      </trkpt>
      <trkpt lat="47.25783" lon="6.5167">
        <ele>845.20001220703</ele>
        <time>2018-05-01T13:51:40.000Z</time>
      </trkpt>
      <trkpt lat="47.25783" lon="6.51682">
        <ele>846.20001220703</ele>
        <time>2018-05-01T13:51:45.000Z</time>
      </trkpt>
      <trkpt lat="47.25792" lon="6.51702">
        <ele>847.40002441406</ele>
        <time>2018-05-01T13:51:51.000Z</time>
      </trkpt>
      <trkpt lat="47.25798" lon="6.51718">
        <ele>847.79998779297</ele>
        <time>2018-05-01T13:51:55.000Z</time>
      </trkpt>
      <trkpt lat="47.25799" lon="6.51735">
        <ele>848.40002441406</ele>
        <time>2018-05-01T13:52:00.000Z</time>
      </trkpt>
      <trkpt lat="47.25799" lon="6.51744">
        <ele>849.40002441406</ele>
        <time>2018-05-01T13:52:03.000Z</time>
      </trkpt>
      <trkpt lat="47.25801" lon="6.51751">
        <ele>850.20001220703</ele>
        <time>2018-05-01T13:52:06.000Z</time>
      </trkpt>
      <trkpt lat="47.25801" lon="6.51754">
        <ele>850.59997558594</ele>
        <time>2018-05-01T13:52:07.000Z</time>
      </trkpt>
      <trkpt lat="47.25804" lon="6.51761">
        <ele>851.40002441406</ele>
        <time>2018-05-01T13:52:10.000Z</time>
      </trkpt>
      <trkpt lat="47.25807" lon="6.51766">
        <ele>852</ele>
        <time>2018-05-01T13:52:12.000Z</time>
      </trkpt>
      <trkpt lat="47.25809" lon="6.51768">
        <ele>852.20001220703</ele>
        <time>2018-05-01T13:52:13.000Z</time>
      </trkpt>
      <trkpt lat="47.25811" lon="6.5177">
        <ele>852.40002441406</ele>
        <time>2018-05-01T13:52:14.000Z</time>
      </trkpt>
      <trkpt lat="47.25819" lon="6.51775">
        <ele>853.20001220703</ele>
        <time>2018-05-01T13:52:17.000Z</time>
      </trkpt>
      <trkpt lat="47.25821" lon="6.51776">
        <ele>853.40002441406</ele>
        <time>2018-05-01T13:52:18.000Z</time>
      </trkpt>
      <trkpt lat="47.25824" lon="6.51779">
        <ele>853.79998779297</ele>
        <time>2018-05-01T13:52:19.000Z</time>
      </trkpt>
      <trkpt lat="47.25829" lon="6.51788">
        <ele>854.79998779297</ele>
        <time>2018-05-01T13:52:22.000Z</time>
      </trkpt>
      <trkpt lat="47.25834" lon="6.51801">
        <ele>856</ele>
        <time>2018-05-01T13:52:26.000Z</time>
      </trkpt>
      <trkpt lat="47.25834" lon="6.51806">
        <ele>856.40002441406</ele>
        <time>2018-05-01T13:52:28.000Z</time>
      </trkpt>
      <trkpt lat="47.25834" lon="6.51813">
        <ele>857.20001220703</ele>
        <time>2018-05-01T13:52:31.000Z</time>
      </trkpt>
      <trkpt lat="47.25836" lon="6.5182">
        <ele>857.79998779297</ele>
        <time>2018-05-01T13:52:34.000Z</time>
      </trkpt>
      <trkpt lat="47.25836" lon="6.51823">
        <ele>858</ele>
        <time>2018-05-01T13:52:35.000Z</time>
      </trkpt>
      <trkpt lat="47.25836" lon="6.51825">
        <ele>858</ele>
        <time>2018-05-01T13:52:36.000Z</time>
      </trkpt>
      <trkpt lat="47.25836" lon="6.51837">
        <ele>858</ele>
        <time>2018-05-01T13:52:41.000Z</time>
      </trkpt>
      <trkpt lat="47.25836" lon="6.51842">
        <ele>858</ele>
        <time>2018-05-01T13:52:44.000Z</time>
      </trkpt>
      <trkpt lat="47.25837" lon="6.51846">
        <ele>858</ele>
        <time>2018-05-01T13:52:46.000Z</time>
      </trkpt>
      <trkpt lat="47.25837" lon="6.51849">
        <ele>858</ele>
        <time>2018-05-01T13:52:47.000Z</time>
      </trkpt>
      <trkpt lat="47.25836" lon="6.51855">
        <ele>858</ele>
        <time>2018-05-01T13:52:49.000Z</time>
      </trkpt>
      <trkpt lat="47.25833" lon="6.51861">
        <ele>858</ele>
        <time>2018-05-01T13:52:52.000Z</time>
      </trkpt>
      <trkpt lat="47.25831" lon="6.51866">
        <ele>858</ele>
        <time>2018-05-01T13:52:54.000Z</time>
      </trkpt>
      <trkpt lat="47.2583" lon="6.51869">
        <ele>858</ele>
        <time>2018-05-01T13:52:55.000Z</time>
      </trkpt>
      <trkpt lat="47.25828" lon="6.51878">
        <ele>857.79998779297</ele>
        <time>2018-05-01T13:52:58.000Z</time>
      </trkpt>
      <trkpt lat="47.25828" lon="6.5188">
        <ele>857.79998779297</ele>
        <time>2018-05-01T13:52:59.000Z</time>
      </trkpt>
      <trkpt lat="47.25827" lon="6.51883">
        <ele>857.79998779297</ele>
        <time>2018-05-01T13:53:00.000Z</time>
      </trkpt>
      <trkpt lat="47.25827" lon="6.51891">
        <ele>857.59997558594</ele>
        <time>2018-05-01T13:53:02.000Z</time>
      </trkpt>
      <trkpt lat="47.25824" lon="6.51897">
        <ele>857.20001220703</ele>
        <time>2018-05-01T13:53:04.000Z</time>
      </trkpt>
      <trkpt lat="47.25822" lon="6.519">
        <ele>856.59997558594</ele>
        <time>2018-05-01T13:53:05.000Z</time>
      </trkpt>
      <trkpt lat="47.25819" lon="6.51901">
        <ele>856</ele>
        <time>2018-05-01T13:53:06.000Z</time>
      </trkpt>
      <trkpt lat="47.25809" lon="6.51911">
        <ele>853</ele>
        <time>2018-05-01T13:53:10.000Z</time>
      </trkpt>
      <trkpt lat="47.25803" lon="6.51916">
        <ele>851</ele>
        <time>2018-05-01T13:53:12.000Z</time>
      </trkpt>
      <trkpt lat="47.25796" lon="6.51923">
        <ele>848.79998779297</ele>
        <time>2018-05-01T13:53:14.000Z</time>
      </trkpt>
      <trkpt lat="47.25792" lon="6.51927">
        <ele>847.59997558594</ele>
        <time>2018-05-01T13:53:15.000Z</time>
      </trkpt>
      <trkpt lat="47.25788" lon="6.51931">
        <ele>846.40002441406</ele>
        <time>2018-05-01T13:53:16.000Z</time>
      </trkpt>
      <trkpt lat="47.2578" lon="6.51937">
        <ele>844.20001220703</ele>
        <time>2018-05-01T13:53:18.000Z</time>
      </trkpt>
      <trkpt lat="47.25772" lon="6.51945">
        <ele>842.20001220703</ele>
        <time>2018-05-01T13:53:20.000Z</time>
      </trkpt>
      <trkpt lat="47.25769" lon="6.51948">
        <ele>841.40002441406</ele>
        <time>2018-05-01T13:53:21.000Z</time>
      </trkpt>
      <trkpt lat="47.25766" lon="6.5195">
        <ele>840.59997558594</ele>
        <time>2018-05-01T13:53:22.000Z</time>
      </trkpt>
      <trkpt lat="47.2576" lon="6.51955">
        <ele>839.20001220703</ele>
        <time>2018-05-01T13:53:24.000Z</time>
      </trkpt>
      <trkpt lat="47.25758" lon="6.51958">
        <ele>838.40002441406</ele>
        <time>2018-05-01T13:53:25.000Z</time>
      </trkpt>
      <trkpt lat="47.25756" lon="6.5196">
        <ele>838</ele>
        <time>2018-05-01T13:53:26.000Z</time>
      </trkpt>
      <trkpt lat="47.25754" lon="6.51961">
        <ele>837.59997558594</ele>
        <time>2018-05-01T13:53:27.000Z</time>
      </trkpt>
      <trkpt lat="47.25752" lon="6.51961">
        <ele>837</ele>
        <time>2018-05-01T13:53:28.000Z</time>
      </trkpt>
      <trkpt lat="47.25748" lon="6.51962">
        <ele>836.40002441406</ele>
        <time>2018-05-01T13:53:29.000Z</time>
      </trkpt>
      <trkpt lat="47.25745" lon="6.51961">
        <ele>835.79998779297</ele>
        <time>2018-05-01T13:53:30.000Z</time>
      </trkpt>
      <trkpt lat="47.25742" lon="6.51961">
        <ele>835.40002441406</ele>
        <time>2018-05-01T13:53:31.000Z</time>
      </trkpt>
      <trkpt lat="47.25741" lon="6.51962">
        <ele>835</ele>
        <time>2018-05-01T13:53:32.000Z</time>
      </trkpt>
      <trkpt lat="47.25739" lon="6.51962">
        <ele>834.59997558594</ele>
        <time>2018-05-01T13:53:33.000Z</time>
      </trkpt>
      <trkpt lat="47.25738" lon="6.51962">
        <ele>834.40002441406</ele>
        <time>2018-05-01T13:53:34.000Z</time>
      </trkpt>
      <trkpt lat="47.25737" lon="6.51964">
        <ele>834</ele>
        <time>2018-05-01T13:53:35.000Z</time>
      </trkpt>
      <trkpt lat="47.25736" lon="6.51966">
        <ele>833.59997558594</ele>
        <time>2018-05-01T13:53:36.000Z</time>
      </trkpt>
      <trkpt lat="47.25736" lon="6.51968">
        <ele>833.40002441406</ele>
        <time>2018-05-01T13:53:37.000Z</time>
      </trkpt>
      <trkpt lat="47.25736" lon="6.5197">
        <ele>833.20001220703</ele>
        <time>2018-05-01T13:53:38.000Z</time>
      </trkpt>
      <trkpt lat="47.25736" lon="6.51974">
        <ele>833</ele>
        <time>2018-05-01T13:53:39.000Z</time>
      </trkpt>
      <trkpt lat="47.25737" lon="6.51978">
        <ele>832.59997558594</ele>
        <time>2018-05-01T13:53:40.000Z</time>
      </trkpt>
      <trkpt lat="47.25738" lon="6.51981">
        <ele>832.59997558594</ele>
        <time>2018-05-01T13:53:41.000Z</time>
      </trkpt>
      <trkpt lat="47.25739" lon="6.51984">
        <ele>832.59997558594</ele>
        <time>2018-05-01T13:53:42.000Z</time>
      </trkpt>
      <trkpt lat="47.2574" lon="6.51987">
        <ele>832.40002441406</ele>
        <time>2018-05-01T13:53:43.000Z</time>
      </trkpt>
      <trkpt lat="47.25741" lon="6.51991">
        <ele>832.20001220703</ele>
        <time>2018-05-01T13:53:44.000Z</time>
      </trkpt>
      <trkpt lat="47.25742" lon="6.51996">
        <ele>831.59997558594</ele>
        <time>2018-05-01T13:53:45.000Z</time>
      </trkpt>
      <trkpt lat="47.25742" lon="6.52001">
        <ele>831.20001220703</ele>
        <time>2018-05-01T13:53:46.000Z</time>
      </trkpt>
      <trkpt lat="47.25743" lon="6.52007">
        <ele>830.59997558594</ele>
        <time>2018-05-01T13:53:47.000Z</time>
      </trkpt>
      <trkpt lat="47.25744" lon="6.52013">
        <ele>830</ele>
        <time>2018-05-01T13:53:48.000Z</time>
      </trkpt>
      <trkpt lat="47.25745" lon="6.52019">
        <ele>829.40002441406</ele>
        <time>2018-05-01T13:53:49.000Z</time>
      </trkpt>
      <trkpt lat="47.25746" lon="6.52025">
        <ele>829</ele>
        <time>2018-05-01T13:53:50.000Z</time>
      </trkpt>
      <trkpt lat="47.25747" lon="6.52032">
        <ele>828.40002441406</ele>
        <time>2018-05-01T13:53:51.000Z</time>
      </trkpt>
      <trkpt lat="47.2575" lon="6.52038">
        <ele>828.20001220703</ele>
        <time>2018-05-01T13:53:52.000Z</time>
      </trkpt>
      <trkpt lat="47.25752" lon="6.52044">
        <ele>827.79998779297</ele>
        <time>2018-05-01T13:53:53.000Z</time>
      </trkpt>
      <trkpt lat="47.25754" lon="6.52051">
        <ele>827.20001220703</ele>
        <time>2018-05-01T13:53:54.000Z</time>
      </trkpt>
      <trkpt lat="47.25756" lon="6.52059">
        <ele>826.79998779297</ele>
        <time>2018-05-01T13:53:55.000Z</time>
      </trkpt>
      <trkpt lat="47.25758" lon="6.52066">
        <ele>826.20001220703</ele>
        <time>2018-05-01T13:53:56.000Z</time>
      </trkpt>
      <trkpt lat="47.2576" lon="6.52073">
        <ele>826.40002441406</ele>
        <time>2018-05-01T13:53:57.000Z</time>
      </trkpt>
      <trkpt lat="47.25762" lon="6.5208">
        <ele>826.40002441406</ele>
        <time>2018-05-01T13:53:58.000Z</time>
      </trkpt>
      <trkpt lat="47.25767" lon="6.52101">
        <ele>825.40002441406</ele>
        <time>2018-05-01T13:54:01.000Z</time>
      </trkpt>
      <trkpt lat="47.2577" lon="6.52108">
        <ele>825.20001220703</ele>
        <time>2018-05-01T13:54:02.000Z</time>
      </trkpt>
      <trkpt lat="47.25774" lon="6.52122">
        <ele>824.79998779297</ele>
        <time>2018-05-01T13:54:04.000Z</time>
      </trkpt>
      <trkpt lat="47.25778" lon="6.52136">
        <ele>824.20001220703</ele>
        <time>2018-05-01T13:54:06.000Z</time>
      </trkpt>
      <trkpt lat="47.25781" lon="6.52151">
        <ele>823.40002441406</ele>
        <time>2018-05-01T13:54:08.000Z</time>
      </trkpt>
      <trkpt lat="47.25783" lon="6.52158">
        <ele>823</ele>
        <time>2018-05-01T13:54:10.000Z</time>
      </trkpt>
      <trkpt lat="47.25782" lon="6.52159">
        <ele>822.40002441406</ele>
        <time>2018-05-01T13:54:14.000Z</time>
      </trkpt>
      <trkpt lat="47.25782" lon="6.52159">
        <ele>822.40002441406</ele>
        <time>2018-05-01T13:54:15.000Z</time>
      </trkpt>
      <trkpt lat="47.25781" lon="6.5216">
        <ele>822.20001220703</ele>
        <time>2018-05-01T13:54:20.000Z</time>
      </trkpt>
      <trkpt lat="47.25781" lon="6.5216">
        <ele>822.20001220703</ele>
        <time>2018-05-01T13:54:33.000Z</time>
      </trkpt>
      <trkpt lat="47.25781" lon="6.5216">
        <ele>822.20001220703</ele>
        <time>2018-05-01T13:54:52.000Z</time>
      </trkpt>
      <trkpt lat="47.25782" lon="6.52161">
        <ele>822.20001220703</ele>
        <time>2018-05-01T13:54:56.000Z</time>
      </trkpt>
      <trkpt lat="47.25782" lon="6.52161">
        <ele>822.20001220703</ele>
        <time>2018-05-01T13:55:07.000Z</time>
      </trkpt>
      <trkpt lat="47.25782" lon="6.52161">
        <ele>822.20001220703</ele>
        <time>2018-05-01T13:55:11.000Z</time>
      </trkpt>
      <trkpt lat="47.25782" lon="6.52163">
        <ele>822</ele>
        <time>2018-05-01T13:55:13.000Z</time>
      </trkpt>
      <trkpt lat="47.25784" lon="6.52169">
        <ele>821.59997558594</ele>
        <time>2018-05-01T13:55:16.000Z</time>
      </trkpt>
      <trkpt lat="47.25785" lon="6.52172">
        <ele>821.59997558594</ele>
        <time>2018-05-01T13:55:17.000Z</time>
      </trkpt>
      <trkpt lat="47.25788" lon="6.5218">
        <ele>821</ele>
        <time>2018-05-01T13:55:19.000Z</time>
      </trkpt>
      <trkpt lat="47.2579" lon="6.52187">
        <ele>820.79998779297</ele>
        <time>2018-05-01T13:55:21.000Z</time>
      </trkpt>
      <trkpt lat="47.25791" lon="6.52194">
        <ele>820.20001220703</ele>
        <time>2018-05-01T13:55:23.000Z</time>
      </trkpt>
      <trkpt lat="47.25793" lon="6.52197">
        <ele>820</ele>
        <time>2018-05-01T13:55:24.000Z</time>
      </trkpt>
      <trkpt lat="47.25795" lon="6.522">
        <ele>820.20001220703</ele>
        <time>2018-05-01T13:55:25.000Z</time>
      </trkpt>
      <trkpt lat="47.25798" lon="6.52206">
        <ele>820</ele>
        <time>2018-05-01T13:55:27.000Z</time>
      </trkpt>
      <trkpt lat="47.25799" lon="6.5221">
        <ele>819.59997558594</ele>
        <time>2018-05-01T13:55:28.000Z</time>
      </trkpt>
      <trkpt lat="47.25804" lon="6.52226">
        <ele>818.20001220703</ele>
        <time>2018-05-01T13:55:31.000Z</time>
      </trkpt>
      <trkpt lat="47.25805" lon="6.52232">
        <ele>817.40002441406</ele>
        <time>2018-05-01T13:55:32.000Z</time>
      </trkpt>
      <trkpt lat="47.25807" lon="6.52243">
        <ele>816.59997558594</ele>
        <time>2018-05-01T13:55:34.000Z</time>
      </trkpt>
      <trkpt lat="47.25808" lon="6.52253">
        <ele>815.40002441406</ele>
        <time>2018-05-01T13:55:36.000Z</time>
      </trkpt>
      <trkpt lat="47.25809" lon="6.52258">
        <ele>815</ele>
        <time>2018-05-01T13:55:37.000Z</time>
      </trkpt>
      <trkpt lat="47.25811" lon="6.52264">
        <ele>814.79998779297</ele>
        <time>2018-05-01T13:55:39.000Z</time>
      </trkpt>
      <trkpt lat="47.25815" lon="6.52272">
        <ele>814.40002441406</ele>
        <time>2018-05-01T13:55:41.000Z</time>
      </trkpt>
      <trkpt lat="47.25818" lon="6.52283">
        <ele>813.79998779297</ele>
        <time>2018-05-01T13:55:43.000Z</time>
      </trkpt>
      <trkpt lat="47.25824" lon="6.52311">
        <ele>811.40002441406</ele>
        <time>2018-05-01T13:55:47.000Z</time>
      </trkpt>
      <trkpt lat="47.25823" lon="6.52318">
        <ele>810.20001220703</ele>
        <time>2018-05-01T13:55:48.000Z</time>
      </trkpt>
      <trkpt lat="47.25816" lon="6.52349">
        <ele>805.79998779297</ele>
        <time>2018-05-01T13:55:52.000Z</time>
      </trkpt>
      <trkpt lat="47.25815" lon="6.52369">
        <ele>803.79998779297</ele>
        <time>2018-05-01T13:55:55.000Z</time>
      </trkpt>
      <trkpt lat="47.25814" lon="6.52401">
        <ele>800.59997558594</ele>
        <time>2018-05-01T13:56:00.000Z</time>
      </trkpt>
      <trkpt lat="47.25814" lon="6.52409">
        <ele>799.59997558594</ele>
        <time>2018-05-01T13:56:01.000Z</time>
      </trkpt>
      <trkpt lat="47.25814" lon="6.52432">
        <ele>797</ele>
        <time>2018-05-01T13:56:04.000Z</time>
      </trkpt>
      <trkpt lat="47.25815" lon="6.52443">
        <ele>795.79998779297</ele>
        <time>2018-05-01T13:56:06.000Z</time>
      </trkpt>
      <trkpt lat="47.25816" lon="6.52455">
        <ele>794.79998779297</ele>
        <time>2018-05-01T13:56:08.000Z</time>
      </trkpt>
      <trkpt lat="47.25818" lon="6.52467">
        <ele>794</ele>
        <time>2018-05-01T13:56:10.000Z</time>
      </trkpt>
      <trkpt lat="47.25819" lon="6.52472">
        <ele>793.59997558594</ele>
        <time>2018-05-01T13:56:11.000Z</time>
      </trkpt>
      <trkpt lat="47.2582" lon="6.52492">
        <ele>791.79998779297</ele>
        <time>2018-05-01T13:56:14.000Z</time>
      </trkpt>
      <trkpt lat="47.25824" lon="6.52507">
        <ele>791</ele>
        <time>2018-05-01T13:56:17.000Z</time>
      </trkpt>
      <trkpt lat="47.25826" lon="6.52513">
        <ele>790.59997558594</ele>
        <time>2018-05-01T13:56:18.000Z</time>
      </trkpt>
      <trkpt lat="47.25828" lon="6.52519">
        <ele>790.20001220703</ele>
        <time>2018-05-01T13:56:19.000Z</time>
      </trkpt>
      <trkpt lat="47.25835" lon="6.52544">
        <ele>789.20001220703</ele>
        <time>2018-05-01T13:56:23.000Z</time>
      </trkpt>
      <trkpt lat="47.25838" lon="6.52551">
        <ele>789</ele>
        <time>2018-05-01T13:56:24.000Z</time>
      </trkpt>
      <trkpt lat="47.25844" lon="6.52576">
        <ele>787.40002441406</ele>
        <time>2018-05-01T13:56:27.000Z</time>
      </trkpt>
      <trkpt lat="47.25849" lon="6.52591">
        <ele>786.20001220703</ele>
        <time>2018-05-01T13:56:29.000Z</time>
      </trkpt>
      <trkpt lat="47.25858" lon="6.52619">
        <ele>784.59997558594</ele>
        <time>2018-05-01T13:56:33.000Z</time>
      </trkpt>
      <trkpt lat="47.25867" lon="6.5264">
        <ele>784</ele>
        <time>2018-05-01T13:56:36.000Z</time>
      </trkpt>
      <trkpt lat="47.25869" lon="6.52646">
        <ele>783.79998779297</ele>
        <time>2018-05-01T13:56:37.000Z</time>
      </trkpt>
      <trkpt lat="47.25872" lon="6.52652">
        <ele>783.40002441406</ele>
        <time>2018-05-01T13:56:38.000Z</time>
      </trkpt>
      <trkpt lat="47.25878" lon="6.52665">
        <ele>782.20001220703</ele>
        <time>2018-05-01T13:56:40.000Z</time>
      </trkpt>
      <trkpt lat="47.25882" lon="6.52677">
        <ele>780.79998779297</ele>
        <time>2018-05-01T13:56:42.000Z</time>
      </trkpt>
      <trkpt lat="47.25886" lon="6.52684">
        <ele>780</ele>
        <time>2018-05-01T13:56:44.000Z</time>
      </trkpt>
      <trkpt lat="47.25889" lon="6.52689">
        <ele>779.79998779297</ele>
        <time>2018-05-01T13:56:46.000Z</time>
      </trkpt>
      <trkpt lat="47.25892" lon="6.52692">
        <ele>779.79998779297</ele>
        <time>2018-05-01T13:56:51.000Z</time>
      </trkpt>
      <trkpt lat="47.25892" lon="6.52692">
        <ele>779.79998779297</ele>
        <time>2018-05-01T13:57:09.000Z</time>
      </trkpt>
      <trkpt lat="47.25893" lon="6.52693">
        <ele>779.79998779297</ele>
        <time>2018-05-01T13:57:17.000Z</time>
      </trkpt>
      <trkpt lat="47.25897" lon="6.52697">
        <ele>780</ele>
        <time>2018-05-01T13:57:22.000Z</time>
      </trkpt>
      <trkpt lat="47.25898" lon="6.52698">
        <ele>779.79998779297</ele>
        <time>2018-05-01T13:57:28.000Z</time>
      </trkpt>
      <trkpt lat="47.25898" lon="6.52698">
        <ele>780</ele>
        <time>2018-05-01T13:57:29.000Z</time>
      </trkpt>
      <trkpt lat="47.259" lon="6.527">
        <ele>779.79998779297</ele>
        <time>2018-05-01T13:57:30.000Z</time>
      </trkpt>
      <trkpt lat="47.25906" lon="6.52705">
        <ele>780.20001220703</ele>
        <time>2018-05-01T13:57:33.000Z</time>
      </trkpt>
      <trkpt lat="47.2591" lon="6.52709">
        <ele>780</ele>
        <time>2018-05-01T13:57:35.000Z</time>
      </trkpt>
      <trkpt lat="47.25915" lon="6.52713">
        <ele>780.40002441406</ele>
        <time>2018-05-01T13:57:37.000Z</time>
      </trkpt>
      <trkpt lat="47.25919" lon="6.52718">
        <ele>780.79998779297</ele>
        <time>2018-05-01T13:57:39.000Z</time>
      </trkpt>
      <trkpt lat="47.25928" lon="6.52727">
        <ele>781.79998779297</ele>
        <time>2018-05-01T13:57:44.000Z</time>
      </trkpt>
      <trkpt lat="47.25929" lon="6.52729">
        <ele>781.59997558594</ele>
        <time>2018-05-01T13:57:45.000Z</time>
      </trkpt>
      <trkpt lat="47.2593" lon="6.5273">
        <ele>781.79998779297</ele>
        <time>2018-05-01T13:57:46.000Z</time>
      </trkpt>
      <trkpt lat="47.25933" lon="6.52733">
        <ele>782</ele>
        <time>2018-05-01T13:57:48.000Z</time>
      </trkpt>
      <trkpt lat="47.25937" lon="6.52736">
        <ele>782.79998779297</ele>
        <time>2018-05-01T13:57:50.000Z</time>
      </trkpt>
      <trkpt lat="47.25942" lon="6.52739">
        <ele>784</ele>
        <time>2018-05-01T13:57:53.000Z</time>
      </trkpt>
      <trkpt lat="47.25944" lon="6.52741">
        <ele>784.40002441406</ele>
        <time>2018-05-01T13:57:54.000Z</time>
      </trkpt>
      <trkpt lat="47.2595" lon="6.52747">
        <ele>785.40002441406</ele>
        <time>2018-05-01T13:57:58.000Z</time>
      </trkpt>
      <trkpt lat="47.25953" lon="6.5275">
        <ele>785.79998779297</ele>
        <time>2018-05-01T13:58:01.000Z</time>
      </trkpt>
      <trkpt lat="47.25956" lon="6.52753">
        <ele>786.20001220703</ele>
        <time>2018-05-01T13:58:03.000Z</time>
      </trkpt>
      <trkpt lat="47.25958" lon="6.52755">
        <ele>786.59997558594</ele>
        <time>2018-05-01T13:58:04.000Z</time>
      </trkpt>
      <trkpt lat="47.2596" lon="6.52756">
        <ele>787</ele>
        <time>2018-05-01T13:58:05.000Z</time>
      </trkpt>
      <trkpt lat="47.25963" lon="6.5276">
        <ele>787.79998779297</ele>
        <time>2018-05-01T13:58:07.000Z</time>
      </trkpt>
      <trkpt lat="47.25966" lon="6.52763">
        <ele>788.40002441406</ele>
        <time>2018-05-01T13:58:09.000Z</time>
      </trkpt>
      <trkpt lat="47.25968" lon="6.52764">
        <ele>788.59997558594</ele>
        <time>2018-05-01T13:58:10.000Z</time>
      </trkpt>
      <trkpt lat="47.25975" lon="6.52771">
        <ele>789.79998779297</ele>
        <time>2018-05-01T13:58:15.000Z</time>
      </trkpt>
      <trkpt lat="47.2598" lon="6.52774">
        <ele>791</ele>
        <time>2018-05-01T13:58:18.000Z</time>
      </trkpt>
      <trkpt lat="47.25984" lon="6.52777">
        <ele>791.79998779297</ele>
        <time>2018-05-01T13:58:20.000Z</time>
      </trkpt>
      <trkpt lat="47.25986" lon="6.52779">
        <ele>792.20001220703</ele>
        <time>2018-05-01T13:58:21.000Z</time>
      </trkpt>
      <trkpt lat="47.25989" lon="6.52782">
        <ele>792.79998779297</ele>
        <time>2018-05-01T13:58:23.000Z</time>
      </trkpt>
      <trkpt lat="47.25992" lon="6.52786">
        <ele>793.20001220703</ele>
        <time>2018-05-01T13:58:25.000Z</time>
      </trkpt>
      <trkpt lat="47.25993" lon="6.52787">
        <ele>793.40002441406</ele>
        <time>2018-05-01T13:58:26.000Z</time>
      </trkpt>
      <trkpt lat="47.25998" lon="6.52792">
        <ele>794.20001220703</ele>
        <time>2018-05-01T13:58:29.000Z</time>
      </trkpt>
      <trkpt lat="47.26" lon="6.52794">
        <ele>794.40002441406</ele>
        <time>2018-05-01T13:58:30.000Z</time>
      </trkpt>
      <trkpt lat="47.26002" lon="6.52798">
        <ele>794.79998779297</ele>
        <time>2018-05-01T13:58:32.000Z</time>
      </trkpt>
      <trkpt lat="47.26004" lon="6.528">
        <ele>795.20001220703</ele>
        <time>2018-05-01T13:58:34.000Z</time>
      </trkpt>
      <trkpt lat="47.26006" lon="6.52802">
        <ele>795.40002441406</ele>
        <time>2018-05-01T13:58:35.000Z</time>
      </trkpt>
      <trkpt lat="47.2601" lon="6.52805">
        <ele>796.20001220703</ele>
        <time>2018-05-01T13:58:37.000Z</time>
      </trkpt>
      <trkpt lat="47.26012" lon="6.52808">
        <ele>796.59997558594</ele>
        <time>2018-05-01T13:58:39.000Z</time>
      </trkpt>
      <trkpt lat="47.26016" lon="6.52811">
        <ele>797.20001220703</ele>
        <time>2018-05-01T13:58:41.000Z</time>
      </trkpt>
      <trkpt lat="47.2602" lon="6.52815">
        <ele>798</ele>
        <time>2018-05-01T13:58:44.000Z</time>
      </trkpt>
      <trkpt lat="47.26021" lon="6.52817">
        <ele>798.20001220703</ele>
        <time>2018-05-01T13:58:45.000Z</time>
      </trkpt>
      <trkpt lat="47.26026" lon="6.52821">
        <ele>799</ele>
        <time>2018-05-01T13:58:48.000Z</time>
      </trkpt>
      <trkpt lat="47.26027" lon="6.52823">
        <ele>799.20001220703</ele>
        <time>2018-05-01T13:58:49.000Z</time>
      </trkpt>
      <trkpt lat="47.26029" lon="6.52825">
        <ele>799.20001220703</ele>
        <time>2018-05-01T13:58:50.000Z</time>
      </trkpt>
      <trkpt lat="47.26031" lon="6.52827">
        <ele>799.59997558594</ele>
        <time>2018-05-01T13:58:51.000Z</time>
      </trkpt>
      <trkpt lat="47.26033" lon="6.5283">
        <ele>799.59997558594</ele>
        <time>2018-05-01T13:58:53.000Z</time>
      </trkpt>
      <trkpt lat="47.26038" lon="6.52834">
        <ele>800.40002441406</ele>
        <time>2018-05-01T13:58:56.000Z</time>
      </trkpt>
      <trkpt lat="47.26041" lon="6.52837">
        <ele>800.79998779297</ele>
        <time>2018-05-01T13:58:58.000Z</time>
      </trkpt>
      <trkpt lat="47.26043" lon="6.52839">
        <ele>801</ele>
        <time>2018-05-01T13:58:59.000Z</time>
      </trkpt>
      <trkpt lat="47.26046" lon="6.52842">
        <ele>801.59997558594</ele>
        <time>2018-05-01T13:59:01.000Z</time>
      </trkpt>
      <trkpt lat="47.2605" lon="6.52848">
        <ele>801.59997558594</ele>
        <time>2018-05-01T13:59:04.000Z</time>
      </trkpt>
      <trkpt lat="47.26052" lon="6.52851">
        <ele>802</ele>
        <time>2018-05-01T13:59:06.000Z</time>
      </trkpt>
      <trkpt lat="47.26058" lon="6.52857">
        <ele>802.79998779297</ele>
        <time>2018-05-01T13:59:09.000Z</time>
      </trkpt>
      <trkpt lat="47.26064" lon="6.52865">
        <ele>803.20001220703</ele>
        <time>2018-05-01T13:59:12.000Z</time>
      </trkpt>
      <trkpt lat="47.26071" lon="6.5288">
        <ele>802.79998779297</ele>
        <time>2018-05-01T13:59:17.000Z</time>
      </trkpt>
      <trkpt lat="47.26073" lon="6.52885">
        <ele>802.59997558594</ele>
        <time>2018-05-01T13:59:19.000Z</time>
      </trkpt>
      <trkpt lat="47.26075" lon="6.52889">
        <ele>802.79998779297</ele>
        <time>2018-05-01T13:59:20.000Z</time>
      </trkpt>
      <trkpt lat="47.26078" lon="6.52895">
        <ele>802.59997558594</ele>
        <time>2018-05-01T13:59:22.000Z</time>
      </trkpt>
      <trkpt lat="47.26081" lon="6.52901">
        <ele>802.40002441406</ele>
        <time>2018-05-01T13:59:24.000Z</time>
      </trkpt>
      <trkpt lat="47.26085" lon="6.52908">
        <ele>803.20001220703</ele>
        <time>2018-05-01T13:59:26.000Z</time>
      </trkpt>
      <trkpt lat="47.26089" lon="6.52915">
        <ele>804</ele>
        <time>2018-05-01T13:59:28.000Z</time>
      </trkpt>
      <trkpt lat="47.26091" lon="6.52918">
        <ele>804.40002441406</ele>
        <time>2018-05-01T13:59:29.000Z</time>
      </trkpt>
      <trkpt lat="47.26097" lon="6.52932">
        <ele>805.59997558594</ele>
        <time>2018-05-01T13:59:33.000Z</time>
      </trkpt>
      <trkpt lat="47.26099" lon="6.52934">
        <ele>806</ele>
        <time>2018-05-01T13:59:34.000Z</time>
      </trkpt>
      <trkpt lat="47.261" lon="6.52936">
        <ele>806.20001220703</ele>
        <time>2018-05-01T13:59:35.000Z</time>
      </trkpt>
      <trkpt lat="47.26101" lon="6.52939">
        <ele>806.59997558594</ele>
        <time>2018-05-01T13:59:37.000Z</time>
      </trkpt>
      <trkpt lat="47.26102" lon="6.52941">
        <ele>806.59997558594</ele>
        <time>2018-05-01T13:59:38.000Z</time>
      </trkpt>
      <trkpt lat="47.26103" lon="6.52943">
        <ele>806.79998779297</ele>
        <time>2018-05-01T13:59:42.000Z</time>
      </trkpt>
      <trkpt lat="47.26104" lon="6.52944">
        <ele>807</ele>
        <time>2018-05-01T13:59:45.000Z</time>
      </trkpt>
      <trkpt lat="47.26106" lon="6.52948">
        <ele>807.40002441406</ele>
        <time>2018-05-01T13:59:48.000Z</time>
      </trkpt>
      <trkpt lat="47.26106" lon="6.52949">
        <ele>807.40002441406</ele>
        <time>2018-05-01T13:59:49.000Z</time>
      </trkpt>
      <trkpt lat="47.26106" lon="6.5295">
        <ele>807.59997558594</ele>
        <time>2018-05-01T13:59:52.000Z</time>
      </trkpt>
      <trkpt lat="47.26106" lon="6.52952">
        <ele>807.40002441406</ele>
        <time>2018-05-01T13:59:53.000Z</time>
      </trkpt>
      <trkpt lat="47.26111" lon="6.52964">
        <ele>808.40002441406</ele>
        <time>2018-05-01T13:59:57.000Z</time>
      </trkpt>
      <trkpt lat="47.26113" lon="6.52973">
        <ele>808.79998779297</ele>
        <time>2018-05-01T14:00:01.000Z</time>
      </trkpt>
      <trkpt lat="47.2612" lon="6.52986">
        <ele>810.20001220703</ele>
        <time>2018-05-01T14:00:07.000Z</time>
      </trkpt>
      <trkpt lat="47.26127" lon="6.52999">
        <ele>809.79998779297</ele>
        <time>2018-05-01T14:00:13.000Z</time>
      </trkpt>
      <trkpt lat="47.26136" lon="6.53018">
        <ele>809.40002441406</ele>
        <time>2018-05-01T14:00:20.000Z</time>
      </trkpt>
      <trkpt lat="47.26136" lon="6.5302">
        <ele>809.20001220703</ele>
        <time>2018-05-01T14:00:21.000Z</time>
      </trkpt>
      <trkpt lat="47.26139" lon="6.53025">
        <ele>809.20001220703</ele>
        <time>2018-05-01T14:00:23.000Z</time>
      </trkpt>
      <trkpt lat="47.26143" lon="6.53031">
        <ele>809.20001220703</ele>
        <time>2018-05-01T14:00:25.000Z</time>
      </trkpt>
      <trkpt lat="47.26145" lon="6.53037">
        <ele>808.79998779297</ele>
        <time>2018-05-01T14:00:27.000Z</time>
      </trkpt>
      <trkpt lat="47.26148" lon="6.53044">
        <ele>808.59997558594</ele>
        <time>2018-05-01T14:00:29.000Z</time>
      </trkpt>
      <trkpt lat="47.26153" lon="6.53055">
        <ele>808.40002441406</ele>
        <time>2018-05-01T14:00:32.000Z</time>
      </trkpt>
      <trkpt lat="47.26154" lon="6.53058">
        <ele>808.20001220703</ele>
        <time>2018-05-01T14:00:33.000Z</time>
      </trkpt>
      <trkpt lat="47.26156" lon="6.53061">
        <ele>808.20001220703</ele>
        <time>2018-05-01T14:00:34.000Z</time>
      </trkpt>
      <trkpt lat="47.26162" lon="6.53073">
        <ele>808</ele>
        <time>2018-05-01T14:00:37.000Z</time>
      </trkpt>
      <trkpt lat="47.26168" lon="6.53092">
        <ele>807.20001220703</ele>
        <time>2018-05-01T14:00:41.000Z</time>
      </trkpt>
      <trkpt lat="47.26169" lon="6.53097">
        <ele>806.79998779297</ele>
        <time>2018-05-01T14:00:42.000Z</time>
      </trkpt>
      <trkpt lat="47.26173" lon="6.53106">
        <ele>806.40002441406</ele>
        <time>2018-05-01T14:00:44.000Z</time>
      </trkpt>
      <trkpt lat="47.26178" lon="6.53115">
        <ele>806.59997558594</ele>
        <time>2018-05-01T14:00:46.000Z</time>
      </trkpt>
      <trkpt lat="47.26181" lon="6.53123">
        <ele>806.20001220703</ele>
        <time>2018-05-01T14:00:48.000Z</time>
      </trkpt>
      <trkpt lat="47.26182" lon="6.53128">
        <ele>805.79998779297</ele>
        <time>2018-05-01T14:00:49.000Z</time>
      </trkpt>
      <trkpt lat="47.26185" lon="6.53138">
        <ele>805.40002441406</ele>
        <time>2018-05-01T14:00:51.000Z</time>
      </trkpt>
      <trkpt lat="47.26189" lon="6.53149">
        <ele>804.79998779297</ele>
        <time>2018-05-01T14:00:53.000Z</time>
      </trkpt>
      <trkpt lat="47.26191" lon="6.53154">
        <ele>804.79998779297</ele>
        <time>2018-05-01T14:00:54.000Z</time>
      </trkpt>
      <trkpt lat="47.26195" lon="6.53164">
        <ele>804.40002441406</ele>
        <time>2018-05-01T14:00:56.000Z</time>
      </trkpt>
      <trkpt lat="47.262" lon="6.5318">
        <ele>803.79998779297</ele>
        <time>2018-05-01T14:00:59.000Z</time>
      </trkpt>
      <trkpt lat="47.26202" lon="6.53185">
        <ele>803.79998779297</ele>
        <time>2018-05-01T14:01:00.000Z</time>
      </trkpt>
      <trkpt lat="47.26204" lon="6.5319">
        <ele>803.59997558594</ele>
        <time>2018-05-01T14:01:01.000Z</time>
      </trkpt>
      <trkpt lat="47.26207" lon="6.53199">
        <ele>803.40002441406</ele>
        <time>2018-05-01T14:01:03.000Z</time>
      </trkpt>
      <trkpt lat="47.26209" lon="6.53204">
        <ele>803.20001220703</ele>
        <time>2018-05-01T14:01:04.000Z</time>
      </trkpt>
      <trkpt lat="47.26212" lon="6.53209">
        <ele>803.20001220703</ele>
        <time>2018-05-01T14:01:05.000Z</time>
      </trkpt>
      <trkpt lat="47.26216" lon="6.53218">
        <ele>803.20001220703</ele>
        <time>2018-05-01T14:01:07.000Z</time>
      </trkpt>
      <trkpt lat="47.26222" lon="6.53229">
        <ele>803.20001220703</ele>
        <time>2018-05-01T14:01:09.000Z</time>
      </trkpt>
      <trkpt lat="47.26233" lon="6.5325">
        <ele>803.59997558594</ele>
        <time>2018-05-01T14:01:13.000Z</time>
      </trkpt>
      <trkpt lat="47.26237" lon="6.53261">
        <ele>803.79998779297</ele>
        <time>2018-05-01T14:01:15.000Z</time>
      </trkpt>
      <trkpt lat="47.26242" lon="6.53272">
        <ele>804</ele>
        <time>2018-05-01T14:01:17.000Z</time>
      </trkpt>
      <trkpt lat="47.26249" lon="6.53289">
        <ele>803.79998779297</ele>
        <time>2018-05-01T14:01:20.000Z</time>
      </trkpt>
      <trkpt lat="47.26254" lon="6.53302">
        <ele>803.59997558594</ele>
        <time>2018-05-01T14:01:22.000Z</time>
      </trkpt>
      <trkpt lat="47.26261" lon="6.53321">
        <ele>803.20001220703</ele>
        <time>2018-05-01T14:01:26.000Z</time>
      </trkpt>
      <trkpt lat="47.26263" lon="6.53328">
        <ele>803</ele>
        <time>2018-05-01T14:01:27.000Z</time>
      </trkpt>
      <trkpt lat="47.26265" lon="6.53335">
        <ele>802.40002441406</ele>
        <time>2018-05-01T14:01:28.000Z</time>
      </trkpt>
      <trkpt lat="47.26273" lon="6.53355">
        <ele>801.79998779297</ele>
        <time>2018-05-01T14:01:31.000Z</time>
      </trkpt>
      <trkpt lat="47.26276" lon="6.53362">
        <ele>801.79998779297</ele>
        <time>2018-05-01T14:01:32.000Z</time>
      </trkpt>
      <trkpt lat="47.26279" lon="6.53368">
        <ele>801.59997558594</ele>
        <time>2018-05-01T14:01:33.000Z</time>
      </trkpt>
      <trkpt lat="47.26283" lon="6.53382">
        <ele>800.59997558594</ele>
        <time>2018-05-01T14:01:35.000Z</time>
      </trkpt>
      <trkpt lat="47.26286" lon="6.53389">
        <ele>800.20001220703</ele>
        <time>2018-05-01T14:01:36.000Z</time>
      </trkpt>
      <trkpt lat="47.26294" lon="6.5341">
        <ele>799.40002441406</ele>
        <time>2018-05-01T14:01:39.000Z</time>
      </trkpt>
      <trkpt lat="47.263" lon="6.53424">
        <ele>799</ele>
        <time>2018-05-01T14:01:41.000Z</time>
      </trkpt>
      <trkpt lat="47.26314" lon="6.53455">
        <ele>798.20001220703</ele>
        <time>2018-05-01T14:01:46.000Z</time>
      </trkpt>
      <trkpt lat="47.26317" lon="6.5346">
        <ele>798.20001220703</ele>
        <time>2018-05-01T14:01:47.000Z</time>
      </trkpt>
      <trkpt lat="47.26332" lon="6.53493">
        <ele>797.20001220703</ele>
        <time>2018-05-01T14:01:53.000Z</time>
      </trkpt>
      <trkpt lat="47.26339" lon="6.53511">
        <ele>796.59997558594</ele>
        <time>2018-05-01T14:01:56.000Z</time>
      </trkpt>
      <trkpt lat="47.26344" lon="6.53525">
        <ele>795.79998779297</ele>
        <time>2018-05-01T14:01:58.000Z</time>
      </trkpt>
      <trkpt lat="47.26348" lon="6.53541">
        <ele>794.79998779297</ele>
        <time>2018-05-01T14:02:00.000Z</time>
      </trkpt>
      <trkpt lat="47.26353" lon="6.53556">
        <ele>793.79998779297</ele>
        <time>2018-05-01T14:02:02.000Z</time>
      </trkpt>
      <trkpt lat="47.26356" lon="6.53564">
        <ele>793.40002441406</ele>
        <time>2018-05-01T14:02:03.000Z</time>
      </trkpt>
      <trkpt lat="47.26358" lon="6.53572">
        <ele>792.40002441406</ele>
        <time>2018-05-01T14:02:04.000Z</time>
      </trkpt>
      <trkpt lat="47.26367" lon="6.53595">
        <ele>789.79998779297</ele>
        <time>2018-05-01T14:02:07.000Z</time>
      </trkpt>
      <trkpt lat="47.26376" lon="6.53619">
        <ele>787.20001220703</ele>
        <time>2018-05-01T14:02:10.000Z</time>
      </trkpt>
      <trkpt lat="47.26379" lon="6.53626">
        <ele>786.59997558594</ele>
        <time>2018-05-01T14:02:11.000Z</time>
      </trkpt>
      <trkpt lat="47.26392" lon="6.5366">
        <ele>783.59997558594</ele>
        <time>2018-05-01T14:02:16.000Z</time>
      </trkpt>
      <trkpt lat="47.26395" lon="6.53665">
        <ele>783.40002441406</ele>
        <time>2018-05-01T14:02:17.000Z</time>
      </trkpt>
      <trkpt lat="47.26396" lon="6.53675">
        <ele>782</ele>
        <time>2018-05-01T14:02:19.000Z</time>
      </trkpt>
      <trkpt lat="47.26394" lon="6.53681">
        <ele>780.59997558594</ele>
        <time>2018-05-01T14:02:20.000Z</time>
      </trkpt>
      <trkpt lat="47.26392" lon="6.53685">
        <ele>779.59997558594</ele>
        <time>2018-05-01T14:02:21.000Z</time>
      </trkpt>
      <trkpt lat="47.26389" lon="6.53688">
        <ele>778.79998779297</ele>
        <time>2018-05-01T14:02:22.000Z</time>
      </trkpt>
      <trkpt lat="47.26388" lon="6.53689">
        <ele>778.20001220703</ele>
        <time>2018-05-01T14:02:23.000Z</time>
      </trkpt>
      <trkpt lat="47.26384" lon="6.53691">
        <ele>777.20001220703</ele>
        <time>2018-05-01T14:02:26.000Z</time>
      </trkpt>
      <trkpt lat="47.26383" lon="6.53691">
        <ele>777</ele>
        <time>2018-05-01T14:02:27.000Z</time>
      </trkpt>
      <trkpt lat="47.26382" lon="6.53692">
        <ele>776.59997558594</ele>
        <time>2018-05-01T14:02:29.000Z</time>
      </trkpt>
      <trkpt lat="47.26382" lon="6.53692">
        <ele>776.59997558594</ele>
        <time>2018-05-01T14:02:32.000Z</time>
      </trkpt>
      <trkpt lat="47.26384" lon="6.53692">
        <ele>777.20001220703</ele>
        <time>2018-05-01T14:02:37.000Z</time>
      </trkpt>
      <trkpt lat="47.26386" lon="6.53693">
        <ele>777.20001220703</ele>
        <time>2018-05-01T14:02:41.000Z</time>
      </trkpt>
      <trkpt lat="47.26384" lon="6.53693">
        <ele>776.79998779297</ele>
        <time>2018-05-01T14:02:44.000Z</time>
      </trkpt>
      <trkpt lat="47.26382" lon="6.53694">
        <ele>776.40002441406</ele>
        <time>2018-05-01T14:02:46.000Z</time>
      </trkpt>
      <trkpt lat="47.26381" lon="6.53696">
        <ele>775.79998779297</ele>
        <time>2018-05-01T14:02:48.000Z</time>
      </trkpt>
      <trkpt lat="47.2638" lon="6.53697">
        <ele>775.40002441406</ele>
        <time>2018-05-01T14:02:50.000Z</time>
      </trkpt>
      <trkpt lat="47.26377" lon="6.53698">
        <ele>774.59997558594</ele>
        <time>2018-05-01T14:02:52.000Z</time>
      </trkpt>
      <trkpt lat="47.26374" lon="6.53699">
        <ele>774</ele>
        <time>2018-05-01T14:02:53.000Z</time>
      </trkpt>
      <trkpt lat="47.2637" lon="6.537">
        <ele>773.20001220703</ele>
        <time>2018-05-01T14:02:54.000Z</time>
      </trkpt>
      <trkpt lat="47.26367" lon="6.53701">
        <ele>772.40002441406</ele>
        <time>2018-05-01T14:02:55.000Z</time>
      </trkpt>
      <trkpt lat="47.26365" lon="6.537">
        <ele>772.20001220703</ele>
        <time>2018-05-01T14:02:56.000Z</time>
      </trkpt>
      <trkpt lat="47.26363" lon="6.537">
        <ele>771.79998779297</ele>
        <time>2018-05-01T14:02:57.000Z</time>
      </trkpt>
      <trkpt lat="47.26362" lon="6.53701">
        <ele>771.59997558594</ele>
        <time>2018-05-01T14:03:00.000Z</time>
      </trkpt>
      <trkpt lat="47.26362" lon="6.53701">
        <ele>771.59997558594</ele>
        <time>2018-05-01T14:03:17.000Z</time>
      </trkpt>
      <trkpt lat="47.26362" lon="6.53701">
        <ele>771.59997558594</ele>
        <time>2018-05-01T14:03:32.000Z</time>
      </trkpt>
      <trkpt lat="47.26362" lon="6.53702">
        <ele>771.40002441406</ele>
        <time>2018-05-01T14:03:44.000Z</time>
      </trkpt>
      <trkpt lat="47.26362" lon="6.53703">
        <ele>771.20001220703</ele>
        <time>2018-05-01T14:03:51.000Z</time>
      </trkpt>
      <trkpt lat="47.2636" lon="6.53707">
        <ele>770.40002441406</ele>
        <time>2018-05-01T14:03:52.000Z</time>
      </trkpt>
      <trkpt lat="47.26358" lon="6.53712">
        <ele>769.40002441406</ele>
        <time>2018-05-01T14:03:53.000Z</time>
      </trkpt>
      <trkpt lat="47.26351" lon="6.53723">
        <ele>766.40002441406</ele>
        <time>2018-05-01T14:03:55.000Z</time>
      </trkpt>
      <trkpt lat="47.26342" lon="6.53734">
        <ele>763.20001220703</ele>
        <time>2018-05-01T14:03:57.000Z</time>
      </trkpt>
      <trkpt lat="47.26332" lon="6.53745">
        <ele>760.79998779297</ele>
        <time>2018-05-01T14:03:59.000Z</time>
      </trkpt>
      <trkpt lat="47.26328" lon="6.5375">
        <ele>760</ele>
        <time>2018-05-01T14:04:00.000Z</time>
      </trkpt>
      <trkpt lat="47.26323" lon="6.53755">
        <ele>759.20001220703</ele>
        <time>2018-05-01T14:04:01.000Z</time>
      </trkpt>
      <trkpt lat="47.26312" lon="6.53772">
        <ele>757</ele>
        <time>2018-05-01T14:04:04.000Z</time>
      </trkpt>
      <trkpt lat="47.26306" lon="6.53791">
        <ele>755.20001220703</ele>
        <time>2018-05-01T14:04:07.000Z</time>
      </trkpt>
      <trkpt lat="47.26303" lon="6.53797">
        <ele>754.59997558594</ele>
        <time>2018-05-01T14:04:08.000Z</time>
      </trkpt>
      <trkpt lat="47.26296" lon="6.53813">
        <ele>753.20001220703</ele>
        <time>2018-05-01T14:04:11.000Z</time>
      </trkpt>
      <trkpt lat="47.26294" lon="6.5382">
        <ele>752.40002441406</ele>
        <time>2018-05-01T14:04:12.000Z</time>
      </trkpt>
      <trkpt lat="47.26292" lon="6.53827">
        <ele>751.40002441406</ele>
        <time>2018-05-01T14:04:13.000Z</time>
      </trkpt>
      <trkpt lat="47.26291" lon="6.53835">
        <ele>750.20001220703</ele>
        <time>2018-05-01T14:04:14.000Z</time>
      </trkpt>
      <trkpt lat="47.26291" lon="6.53843">
        <ele>749.20001220703</ele>
        <time>2018-05-01T14:04:15.000Z</time>
      </trkpt>
      <trkpt lat="47.26291" lon="6.53852">
        <ele>748.20001220703</ele>
        <time>2018-05-01T14:04:16.000Z</time>
      </trkpt>
      <trkpt lat="47.26293" lon="6.5386">
        <ele>747.40002441406</ele>
        <time>2018-05-01T14:04:17.000Z</time>
      </trkpt>
      <trkpt lat="47.26294" lon="6.53868">
        <ele>746.79998779297</ele>
        <time>2018-05-01T14:04:18.000Z</time>
      </trkpt>
      <trkpt lat="47.263" lon="6.53884">
        <ele>745.79998779297</ele>
        <time>2018-05-01T14:04:20.000Z</time>
      </trkpt>
      <trkpt lat="47.26303" lon="6.53892">
        <ele>745.40002441406</ele>
        <time>2018-05-01T14:04:21.000Z</time>
      </trkpt>
      <trkpt lat="47.26306" lon="6.53899">
        <ele>745</ele>
        <time>2018-05-01T14:04:22.000Z</time>
      </trkpt>
      <trkpt lat="47.2631" lon="6.53906">
        <ele>745</ele>
        <time>2018-05-01T14:04:23.000Z</time>
      </trkpt>
      <trkpt lat="47.26315" lon="6.53922">
        <ele>745.40002441406</ele>
        <time>2018-05-01T14:04:25.000Z</time>
      </trkpt>
      <trkpt lat="47.26313" lon="6.5394">
        <ele>745</ele>
        <time>2018-05-01T14:04:27.000Z</time>
      </trkpt>
      <trkpt lat="47.2631" lon="6.53949">
        <ele>744.59997558594</ele>
        <time>2018-05-01T14:04:28.000Z</time>
      </trkpt>
      <trkpt lat="47.26304" lon="6.53956">
        <ele>744</ele>
        <time>2018-05-01T14:04:29.000Z</time>
      </trkpt>
      <trkpt lat="47.26292" lon="6.53971">
        <ele>742.59997558594</ele>
        <time>2018-05-01T14:04:31.000Z</time>
      </trkpt>
      <trkpt lat="47.26263" lon="6.54006">
        <ele>741</ele>
        <time>2018-05-01T14:04:36.000Z</time>
      </trkpt>
      <trkpt lat="47.26257" lon="6.54011">
        <ele>740.79998779297</ele>
        <time>2018-05-01T14:04:37.000Z</time>
      </trkpt>
      <trkpt lat="47.26253" lon="6.54018">
        <ele>740.79998779297</ele>
        <time>2018-05-01T14:04:38.000Z</time>
      </trkpt>
      <trkpt lat="47.26241" lon="6.54037">
        <ele>741</ele>
        <time>2018-05-01T14:04:41.000Z</time>
      </trkpt>
      <trkpt lat="47.26234" lon="6.54052">
        <ele>741.40002441406</ele>
        <time>2018-05-01T14:04:43.000Z</time>
      </trkpt>
      <trkpt lat="47.26227" lon="6.54072">
        <ele>740.79998779297</ele>
        <time>2018-05-01T14:04:46.000Z</time>
      </trkpt>
      <trkpt lat="47.26227" lon="6.54094">
        <ele>740.40002441406</ele>
        <time>2018-05-01T14:04:50.000Z</time>
      </trkpt>
      <trkpt lat="47.26235" lon="6.541">
        <ele>741</ele>
        <time>2018-05-01T14:04:54.000Z</time>
      </trkpt>
      <trkpt lat="47.2624" lon="6.54095">
        <ele>741.79998779297</ele>
        <time>2018-05-01T14:04:57.000Z</time>
      </trkpt>
      <trkpt lat="47.26243" lon="6.54092">
        <ele>742</ele>
        <time>2018-05-01T14:04:59.000Z</time>
      </trkpt>
      <trkpt lat="47.26244" lon="6.5409">
        <ele>742.20001220703</ele>
        <time>2018-05-01T14:05:00.000Z</time>
      </trkpt>
      <trkpt lat="47.26249" lon="6.54083">
        <ele>743.20001220703</ele>
        <time>2018-05-01T14:05:03.000Z</time>
      </trkpt>
      <trkpt lat="47.26256" lon="6.54077">
        <ele>744.40002441406</ele>
        <time>2018-05-01T14:05:06.000Z</time>
      </trkpt>
      <trkpt lat="47.26261" lon="6.54073">
        <ele>744.79998779297</ele>
        <time>2018-05-01T14:05:08.000Z</time>
      </trkpt>
      <trkpt lat="47.26266" lon="6.54068">
        <ele>745.20001220703</ele>
        <time>2018-05-01T14:05:11.000Z</time>
      </trkpt>
      <trkpt lat="47.26269" lon="6.54067">
        <ele>745.40002441406</ele>
        <time>2018-05-01T14:05:12.000Z</time>
      </trkpt>
      <trkpt lat="47.26277" lon="6.54064">
        <ele>746</ele>
        <time>2018-05-01T14:05:15.000Z</time>
      </trkpt>
      <trkpt lat="47.26279" lon="6.54063">
        <ele>746.40002441406</ele>
        <time>2018-05-01T14:05:16.000Z</time>
      </trkpt>
      <trkpt lat="47.26284" lon="6.54062">
        <ele>746.79998779297</ele>
        <time>2018-05-01T14:05:18.000Z</time>
      </trkpt>
      <trkpt lat="47.26295" lon="6.54061">
        <ele>747.79998779297</ele>
        <time>2018-05-01T14:05:22.000Z</time>
      </trkpt>
      <trkpt lat="47.26297" lon="6.54062">
        <ele>748.20001220703</ele>
        <time>2018-05-01T14:05:23.000Z</time>
      </trkpt>
      <trkpt lat="47.26304" lon="6.54064">
        <ele>749</ele>
        <time>2018-05-01T14:05:26.000Z</time>
      </trkpt>
      <trkpt lat="47.26309" lon="6.54068">
        <ele>749.79998779297</ele>
        <time>2018-05-01T14:05:28.000Z</time>
      </trkpt>
      <trkpt lat="47.26315" lon="6.54076">
        <ele>750.79998779297</ele>
        <time>2018-05-01T14:05:32.000Z</time>
      </trkpt>
      <trkpt lat="47.26316" lon="6.54079">
        <ele>751</ele>
        <time>2018-05-01T14:05:33.000Z</time>
      </trkpt>
      <trkpt lat="47.26324" lon="6.54093">
        <ele>752.40002441406</ele>
        <time>2018-05-01T14:05:38.000Z</time>
      </trkpt>
      <trkpt lat="47.26333" lon="6.54109">
        <ele>753.79998779297</ele>
        <time>2018-05-01T14:05:44.000Z</time>
      </trkpt>
      <trkpt lat="47.26334" lon="6.54111">
        <ele>754</ele>
        <time>2018-05-01T14:05:45.000Z</time>
      </trkpt>
      <trkpt lat="47.26337" lon="6.54117">
        <ele>754.40002441406</ele>
        <time>2018-05-01T14:05:47.000Z</time>
      </trkpt>
      <trkpt lat="47.26343" lon="6.54125">
        <ele>755</ele>
        <time>2018-05-01T14:05:50.000Z</time>
      </trkpt>
      <trkpt lat="47.26344" lon="6.54128">
        <ele>755.20001220703</ele>
        <time>2018-05-01T14:05:51.000Z</time>
      </trkpt>
      <trkpt lat="47.26348" lon="6.54133">
        <ele>755.79998779297</ele>
        <time>2018-05-01T14:05:53.000Z</time>
      </trkpt>
      <trkpt lat="47.26352" lon="6.54138">
        <ele>756.20001220703</ele>
        <time>2018-05-01T14:05:55.000Z</time>
      </trkpt>
      <trkpt lat="47.26353" lon="6.5414">
        <ele>756.40002441406</ele>
        <time>2018-05-01T14:05:56.000Z</time>
      </trkpt>
      <trkpt lat="47.26355" lon="6.54143">
        <ele>756.59997558594</ele>
        <time>2018-05-01T14:05:57.000Z</time>
      </trkpt>
      <trkpt lat="47.26363" lon="6.54155">
        <ele>757.40002441406</ele>
        <time>2018-05-01T14:06:02.000Z</time>
      </trkpt>
      <trkpt lat="47.26372" lon="6.54163">
        <ele>758</ele>
        <time>2018-05-01T14:06:06.000Z</time>
      </trkpt>
      <trkpt lat="47.26375" lon="6.54165">
        <ele>758.20001220703</ele>
        <time>2018-05-01T14:06:07.000Z</time>
      </trkpt>
      <trkpt lat="47.26381" lon="6.5417">
        <ele>758.59997558594</ele>
        <time>2018-05-01T14:06:10.000Z</time>
      </trkpt>
      <trkpt lat="47.2639" lon="6.54173">
        <ele>759.40002441406</ele>
        <time>2018-05-01T14:06:14.000Z</time>
      </trkpt>
      <trkpt lat="47.26394" lon="6.54173">
        <ele>759.59997558594</ele>
        <time>2018-05-01T14:06:16.000Z</time>
      </trkpt>
      <trkpt lat="47.26404" lon="6.54173">
        <ele>760.40002441406</ele>
        <time>2018-05-01T14:06:20.000Z</time>
      </trkpt>
      <trkpt lat="47.26412" lon="6.5417">
        <ele>761</ele>
        <time>2018-05-01T14:06:24.000Z</time>
      </trkpt>
      <trkpt lat="47.26429" lon="6.54164">
        <ele>762</ele>
        <time>2018-05-01T14:06:31.000Z</time>
      </trkpt>
      <trkpt lat="47.26444" lon="6.54157">
        <ele>762.79998779297</ele>
        <time>2018-05-01T14:06:38.000Z</time>
      </trkpt>
      <trkpt lat="47.26452" lon="6.54154">
        <ele>763.40002441406</ele>
        <time>2018-05-01T14:06:41.000Z</time>
      </trkpt>
      <trkpt lat="47.26459" lon="6.5415">
        <ele>763.79998779297</ele>
        <time>2018-05-01T14:06:44.000Z</time>
      </trkpt>
      <trkpt lat="47.26464" lon="6.54147">
        <ele>764</ele>
        <time>2018-05-01T14:06:46.000Z</time>
      </trkpt>
      <trkpt lat="47.26468" lon="6.54144">
        <ele>764.20001220703</ele>
        <time>2018-05-01T14:06:48.000Z</time>
      </trkpt>
      <trkpt lat="47.26474" lon="6.54142">
        <ele>764.40002441406</ele>
        <time>2018-05-01T14:06:50.000Z</time>
      </trkpt>
      <trkpt lat="47.26481" lon="6.5414">
        <ele>764.79998779297</ele>
        <time>2018-05-01T14:06:53.000Z</time>
      </trkpt>
      <trkpt lat="47.26487" lon="6.54138">
        <ele>765</ele>
        <time>2018-05-01T14:06:55.000Z</time>
      </trkpt>
      <trkpt lat="47.26495" lon="6.54136">
        <ele>765.20001220703</ele>
        <time>2018-05-01T14:06:58.000Z</time>
      </trkpt>
      <trkpt lat="47.26504" lon="6.54135">
        <ele>765.79998779297</ele>
        <time>2018-05-01T14:07:01.000Z</time>
      </trkpt>
      <trkpt lat="47.26509" lon="6.54135">
        <ele>766.40002441406</ele>
        <time>2018-05-01T14:07:03.000Z</time>
      </trkpt>
      <trkpt lat="47.26525" lon="6.54134">
        <ele>767.59997558594</ele>
        <time>2018-05-01T14:07:09.000Z</time>
      </trkpt>
      <trkpt lat="47.26531" lon="6.54135">
        <ele>768.20001220703</ele>
        <time>2018-05-01T14:07:11.000Z</time>
      </trkpt>
      <trkpt lat="47.26536" lon="6.54138">
        <ele>768.79998779297</ele>
        <time>2018-05-01T14:07:13.000Z</time>
      </trkpt>
      <trkpt lat="47.26552" lon="6.54146">
        <ele>770.40002441406</ele>
        <time>2018-05-01T14:07:18.000Z</time>
      </trkpt>
      <trkpt lat="47.26554" lon="6.54148">
        <ele>770.79998779297</ele>
        <time>2018-05-01T14:07:19.000Z</time>
      </trkpt>
      <trkpt lat="47.26562" lon="6.54154">
        <ele>771.79998779297</ele>
        <time>2018-05-01T14:07:22.000Z</time>
      </trkpt>
      <trkpt lat="47.26569" lon="6.54161">
        <ele>772.79998779297</ele>
        <time>2018-05-01T14:07:25.000Z</time>
      </trkpt>
      <trkpt lat="47.26583" lon="6.5417">
        <ele>774.59997558594</ele>
        <time>2018-05-01T14:07:30.000Z</time>
      </trkpt>
      <trkpt lat="47.26587" lon="6.54173">
        <ele>775.59997558594</ele>
        <time>2018-05-01T14:07:32.000Z</time>
      </trkpt>
      <trkpt lat="47.26592" lon="6.54177">
        <ele>776.40002441406</ele>
        <time>2018-05-01T14:07:34.000Z</time>
      </trkpt>
      <trkpt lat="47.26602" lon="6.54183">
        <ele>778.40002441406</ele>
        <time>2018-05-01T14:07:38.000Z</time>
      </trkpt>
      <trkpt lat="47.26604" lon="6.54184">
        <ele>778.79998779297</ele>
        <time>2018-05-01T14:07:39.000Z</time>
      </trkpt>
      <trkpt lat="47.26617" lon="6.54184">
        <ele>780.79998779297</ele>
        <time>2018-05-01T14:07:44.000Z</time>
      </trkpt>
      <trkpt lat="47.26633" lon="6.54173">
        <ele>782.79998779297</ele>
        <time>2018-05-01T14:07:50.000Z</time>
      </trkpt>
      <trkpt lat="47.26644" lon="6.54149">
        <ele>783</ele>
        <time>2018-05-01T14:07:55.000Z</time>
      </trkpt>
      <trkpt lat="47.26666" lon="6.54104">
        <ele>784.40002441406</ele>
        <time>2018-05-01T14:08:05.000Z</time>
      </trkpt>
      <trkpt lat="47.26676" lon="6.54085">
        <ele>785.40002441406</ele>
        <time>2018-05-01T14:08:10.000Z</time>
      </trkpt>
      <trkpt lat="47.26678" lon="6.54081">
        <ele>785.59997558594</ele>
        <time>2018-05-01T14:08:11.000Z</time>
      </trkpt>
      <trkpt lat="47.26691" lon="6.54058">
        <ele>787.59997558594</ele>
        <time>2018-05-01T14:08:18.000Z</time>
      </trkpt>
      <trkpt lat="47.26704" lon="6.54043">
        <ele>790.59997558594</ele>
        <time>2018-05-01T14:08:24.000Z</time>
      </trkpt>
      <trkpt lat="47.26708" lon="6.5404">
        <ele>791.40002441406</ele>
        <time>2018-05-01T14:08:26.000Z</time>
      </trkpt>
      <trkpt lat="47.26714" lon="6.54037">
        <ele>792.59997558594</ele>
        <time>2018-05-01T14:08:29.000Z</time>
      </trkpt>
      <trkpt lat="47.26715" lon="6.54037">
        <ele>793</ele>
        <time>2018-05-01T14:08:30.000Z</time>
      </trkpt>
      <trkpt lat="47.26722" lon="6.54037">
        <ele>793.59997558594</ele>
        <time>2018-05-01T14:08:34.000Z</time>
      </trkpt>
      <trkpt lat="47.26726" lon="6.54038">
        <ele>794</ele>
        <time>2018-05-01T14:08:35.000Z</time>
      </trkpt>
      <trkpt lat="47.26734" lon="6.54044">
        <ele>795</ele>
        <time>2018-05-01T14:08:39.000Z</time>
      </trkpt>
      <trkpt lat="47.26742" lon="6.54051">
        <ele>796</ele>
        <time>2018-05-01T14:08:44.000Z</time>
      </trkpt>
      <trkpt lat="47.2675" lon="6.54062">
        <ele>796.79998779297</ele>
        <time>2018-05-01T14:08:52.000Z</time>
      </trkpt>
      <trkpt lat="47.26753" lon="6.54065">
        <ele>796.79998779297</ele>
        <time>2018-05-01T14:08:54.000Z</time>
      </trkpt>
      <trkpt lat="47.26759" lon="6.54068">
        <ele>796.59997558594</ele>
        <time>2018-05-01T14:08:59.000Z</time>
      </trkpt>
      <trkpt lat="47.26764" lon="6.54071">
        <ele>796.40002441406</ele>
        <time>2018-05-01T14:09:02.000Z</time>
      </trkpt>
      <trkpt lat="47.26766" lon="6.54071">
        <ele>796.40002441406</ele>
        <time>2018-05-01T14:09:03.000Z</time>
      </trkpt>
      <trkpt lat="47.26769" lon="6.5407">
        <ele>796.40002441406</ele>
        <time>2018-05-01T14:09:04.000Z</time>
      </trkpt>
      <trkpt lat="47.26777" lon="6.54067">
        <ele>796.20001220703</ele>
        <time>2018-05-01T14:09:07.000Z</time>
      </trkpt>
      <trkpt lat="47.26783" lon="6.54065">
        <ele>796</ele>
        <time>2018-05-01T14:09:09.000Z</time>
      </trkpt>
      <trkpt lat="47.26793" lon="6.54061">
        <ele>795.59997558594</ele>
        <time>2018-05-01T14:09:12.000Z</time>
      </trkpt>
      <trkpt lat="47.26795" lon="6.54059">
        <ele>795.59997558594</ele>
        <time>2018-05-01T14:09:14.000Z</time>
      </trkpt>
      <trkpt lat="47.26797" lon="6.5406">
        <ele>795.59997558594</ele>
        <time>2018-05-01T14:09:15.000Z</time>
      </trkpt>
      <trkpt lat="47.26804" lon="6.54076">
        <ele>795.40002441406</ele>
        <time>2018-05-01T14:09:19.000Z</time>
      </trkpt>
      <trkpt lat="47.26808" lon="6.54094">
        <ele>794.79998779297</ele>
        <time>2018-05-01T14:09:22.000Z</time>
      </trkpt>
      <trkpt lat="47.26808" lon="6.54101">
        <ele>794.59997558594</ele>
        <time>2018-05-01T14:09:23.000Z</time>
      </trkpt>
      <trkpt lat="47.26808" lon="6.54109">
        <ele>794.59997558594</ele>
        <time>2018-05-01T14:09:24.000Z</time>
      </trkpt>
      <trkpt lat="47.26808" lon="6.54145">
        <ele>795</ele>
        <time>2018-05-01T14:09:28.000Z</time>
      </trkpt>
      <trkpt lat="47.26809" lon="6.54183">
        <ele>795.20001220703</ele>
        <time>2018-05-01T14:09:32.000Z</time>
      </trkpt>
      <trkpt lat="47.2681" lon="6.54201">
        <ele>795</ele>
        <time>2018-05-01T14:09:34.000Z</time>
      </trkpt>
      <trkpt lat="47.26811" lon="6.54216">
        <ele>795</ele>
        <time>2018-05-01T14:09:36.000Z</time>
      </trkpt>
      <trkpt lat="47.26813" lon="6.54229">
        <ele>794.79998779297</ele>
        <time>2018-05-01T14:09:38.000Z</time>
      </trkpt>
      <trkpt lat="47.26814" lon="6.54236">
        <ele>794.59997558594</ele>
        <time>2018-05-01T14:09:39.000Z</time>
      </trkpt>
      <trkpt lat="47.26815" lon="6.54241">
        <ele>794.40002441406</ele>
        <time>2018-05-01T14:09:40.000Z</time>
      </trkpt>
      <trkpt lat="47.26816" lon="6.54247">
        <ele>794.20001220703</ele>
        <time>2018-05-01T14:09:41.000Z</time>
      </trkpt>
      <trkpt lat="47.26816" lon="6.54253">
        <ele>794</ele>
        <time>2018-05-01T14:09:42.000Z</time>
      </trkpt>
      <trkpt lat="47.26818" lon="6.54264">
        <ele>793.59997558594</ele>
        <time>2018-05-01T14:09:44.000Z</time>
      </trkpt>
      <trkpt lat="47.26819" lon="6.54274">
        <ele>793.20001220703</ele>
        <time>2018-05-01T14:09:46.000Z</time>
      </trkpt>
      <trkpt lat="47.2682" lon="6.54285">
        <ele>792.79998779297</ele>
        <time>2018-05-01T14:09:48.000Z</time>
      </trkpt>
      <trkpt lat="47.26821" lon="6.54296">
        <ele>792.40002441406</ele>
        <time>2018-05-01T14:09:50.000Z</time>
      </trkpt>
      <trkpt lat="47.26822" lon="6.54306">
        <ele>792</ele>
        <time>2018-05-01T14:09:52.000Z</time>
      </trkpt>
      <trkpt lat="47.26823" lon="6.54311">
        <ele>792</ele>
        <time>2018-05-01T14:09:53.000Z</time>
      </trkpt>
      <trkpt lat="47.26823" lon="6.54316">
        <ele>791.79998779297</ele>
        <time>2018-05-01T14:09:54.000Z</time>
      </trkpt>
      <trkpt lat="47.26824" lon="6.54324">
        <ele>792.20001220703</ele>
        <time>2018-05-01T14:09:56.000Z</time>
      </trkpt>
      <trkpt lat="47.26825" lon="6.54332">
        <ele>792.59997558594</ele>
        <time>2018-05-01T14:09:58.000Z</time>
      </trkpt>
      <trkpt lat="47.26826" lon="6.5434">
        <ele>793</ele>
        <time>2018-05-01T14:10:00.000Z</time>
      </trkpt>
      <trkpt lat="47.26826" lon="6.54344">
        <ele>793</ele>
        <time>2018-05-01T14:10:01.000Z</time>
      </trkpt>
      <trkpt lat="47.26827" lon="6.54356">
        <ele>793.59997558594</ele>
        <time>2018-05-01T14:10:04.000Z</time>
      </trkpt>
      <trkpt lat="47.26829" lon="6.54367">
        <ele>794</ele>
        <time>2018-05-01T14:10:07.000Z</time>
      </trkpt>
      <trkpt lat="47.2683" lon="6.54374">
        <ele>794.40002441406</ele>
        <time>2018-05-01T14:10:09.000Z</time>
      </trkpt>
      <trkpt lat="47.26831" lon="6.54385">
        <ele>794.79998779297</ele>
        <time>2018-05-01T14:10:12.000Z</time>
      </trkpt>
      <trkpt lat="47.26832" lon="6.54399">
        <ele>795.59997558594</ele>
        <time>2018-05-01T14:10:16.000Z</time>
      </trkpt>
      <trkpt lat="47.26833" lon="6.54414">
        <ele>796.40002441406</ele>
        <time>2018-05-01T14:10:20.000Z</time>
      </trkpt>
      <trkpt lat="47.26835" lon="6.54432">
        <ele>797.79998779297</ele>
        <time>2018-05-01T14:10:25.000Z</time>
      </trkpt>
      <trkpt lat="47.26836" lon="6.54439">
        <ele>798.20001220703</ele>
        <time>2018-05-01T14:10:27.000Z</time>
      </trkpt>
      <trkpt lat="47.26836" lon="6.54447">
        <ele>798.79998779297</ele>
        <time>2018-05-01T14:10:29.000Z</time>
      </trkpt>
      <trkpt lat="47.26838" lon="6.54458">
        <ele>799.59997558594</ele>
        <time>2018-05-01T14:10:32.000Z</time>
      </trkpt>
      <trkpt lat="47.26839" lon="6.54478">
        <ele>801</ele>
        <time>2018-05-01T14:10:37.000Z</time>
      </trkpt>
      <trkpt lat="47.26839" lon="6.54483">
        <ele>801.40002441406</ele>
        <time>2018-05-01T14:10:38.000Z</time>
      </trkpt>
      <trkpt lat="47.26841" lon="6.54499">
        <ele>802.20001220703</ele>
        <time>2018-05-01T14:10:42.000Z</time>
      </trkpt>
      <trkpt lat="47.26843" lon="6.54521">
        <ele>802.79998779297</ele>
        <time>2018-05-01T14:10:47.000Z</time>
      </trkpt>
      <trkpt lat="47.26843" lon="6.54542">
        <ele>803.40002441406</ele>
        <time>2018-05-01T14:10:52.000Z</time>
      </trkpt>
      <trkpt lat="47.26842" lon="6.54554">
        <ele>804</ele>
        <time>2018-05-01T14:10:55.000Z</time>
      </trkpt>
      <trkpt lat="47.2684" lon="6.54566">
        <ele>804.79998779297</ele>
        <time>2018-05-01T14:10:58.000Z</time>
      </trkpt>
      <trkpt lat="47.26837" lon="6.54586">
        <ele>806.20001220703</ele>
        <time>2018-05-01T14:11:03.000Z</time>
      </trkpt>
      <trkpt lat="47.26836" lon="6.54594">
        <ele>806.59997558594</ele>
        <time>2018-05-01T14:11:05.000Z</time>
      </trkpt>
      <trkpt lat="47.26835" lon="6.54598">
        <ele>806.79998779297</ele>
        <time>2018-05-01T14:11:06.000Z</time>
      </trkpt>
      <trkpt lat="47.2683" lon="6.5463">
        <ele>808.20001220703</ele>
        <time>2018-05-01T14:11:13.000Z</time>
      </trkpt>
      <trkpt lat="47.26828" lon="6.54639">
        <ele>808.59997558594</ele>
        <time>2018-05-01T14:11:15.000Z</time>
      </trkpt>
      <trkpt lat="47.26825" lon="6.54658">
        <ele>809.40002441406</ele>
        <time>2018-05-01T14:11:19.000Z</time>
      </trkpt>
      <trkpt lat="47.26822" lon="6.54682">
        <ele>810.40002441406</ele>
        <time>2018-05-01T14:11:24.000Z</time>
      </trkpt>
      <trkpt lat="47.2682" lon="6.54696">
        <ele>810.79998779297</ele>
        <time>2018-05-01T14:11:27.000Z</time>
      </trkpt>
      <trkpt lat="47.26819" lon="6.547">
        <ele>811</ele>
        <time>2018-05-01T14:11:28.000Z</time>
      </trkpt>
      <trkpt lat="47.26816" lon="6.54728">
        <ele>811.79998779297</ele>
        <time>2018-05-01T14:11:34.000Z</time>
      </trkpt>
      <trkpt lat="47.26815" lon="6.54737">
        <ele>812</ele>
        <time>2018-05-01T14:11:36.000Z</time>
      </trkpt>
      <trkpt lat="47.26811" lon="6.54767">
        <ele>812.59997558594</ele>
        <time>2018-05-01T14:11:42.000Z</time>
      </trkpt>
      <trkpt lat="47.26808" lon="6.54802">
        <ele>813.20001220703</ele>
        <time>2018-05-01T14:11:49.000Z</time>
      </trkpt>
      <trkpt lat="47.26807" lon="6.54812">
        <ele>813.20001220703</ele>
        <time>2018-05-01T14:11:51.000Z</time>
      </trkpt>
      <trkpt lat="47.26805" lon="6.54842">
        <ele>814</ele>
        <time>2018-05-01T14:11:57.000Z</time>
      </trkpt>
      <trkpt lat="47.26804" lon="6.54857">
        <ele>814.40002441406</ele>
        <time>2018-05-01T14:12:00.000Z</time>
      </trkpt>
      <trkpt lat="47.26804" lon="6.54878">
        <ele>815</ele>
        <time>2018-05-01T14:12:04.000Z</time>
      </trkpt>
      <trkpt lat="47.26803" lon="6.54903">
        <ele>815.79998779297</ele>
        <time>2018-05-01T14:12:09.000Z</time>
      </trkpt>
      <trkpt lat="47.26804" lon="6.54942">
        <ele>815.79998779297</ele>
        <time>2018-05-01T14:12:17.000Z</time>
      </trkpt>
      <trkpt lat="47.26803" lon="6.54962">
        <ele>816</ele>
        <time>2018-05-01T14:12:21.000Z</time>
      </trkpt>
      <trkpt lat="47.26803" lon="6.54968">
        <ele>816.20001220703</ele>
        <time>2018-05-01T14:12:22.000Z</time>
      </trkpt>
      <trkpt lat="47.26804" lon="6.55012">
        <ele>816.40002441406</ele>
        <time>2018-05-01T14:12:30.000Z</time>
      </trkpt>
      <trkpt lat="47.26805" lon="6.55042">
        <ele>816.40002441406</ele>
        <time>2018-05-01T14:12:35.000Z</time>
      </trkpt>
      <trkpt lat="47.26804" lon="6.55054">
        <ele>816.59997558594</ele>
        <time>2018-05-01T14:12:37.000Z</time>
      </trkpt>
      <trkpt lat="47.26804" lon="6.55066">
        <ele>816.79998779297</ele>
        <time>2018-05-01T14:12:39.000Z</time>
      </trkpt>
      <trkpt lat="47.26802" lon="6.55091">
        <ele>817.59997558594</ele>
        <time>2018-05-01T14:12:43.000Z</time>
      </trkpt>
      <trkpt lat="47.26802" lon="6.55134">
        <ele>818.40002441406</ele>
        <time>2018-05-01T14:12:50.000Z</time>
      </trkpt>
      <trkpt lat="47.26803" lon="6.5514">
        <ele>818.20001220703</ele>
        <time>2018-05-01T14:12:51.000Z</time>
      </trkpt>
      <trkpt lat="47.26808" lon="6.55166">
        <ele>818.59997558594</ele>
        <time>2018-05-01T14:12:56.000Z</time>
      </trkpt>
      <trkpt lat="47.2682" lon="6.55171">
        <ele>817.79998779297</ele>
        <time>2018-05-01T14:12:59.000Z</time>
      </trkpt>
      <trkpt lat="47.26829" lon="6.55177">
        <ele>817.20001220703</ele>
        <time>2018-05-01T14:13:01.000Z</time>
      </trkpt>
      <trkpt lat="47.26838" lon="6.55185">
        <ele>817</ele>
        <time>2018-05-01T14:13:03.000Z</time>
      </trkpt>
      <trkpt lat="47.26842" lon="6.5519">
        <ele>816.79998779297</ele>
        <time>2018-05-01T14:13:04.000Z</time>
      </trkpt>
      <trkpt lat="47.26849" lon="6.55221">
        <ele>817.79998779297</ele>
        <time>2018-05-01T14:13:08.000Z</time>
      </trkpt>
      <trkpt lat="47.26847" lon="6.55242">
        <ele>819</ele>
        <time>2018-05-01T14:13:11.000Z</time>
      </trkpt>
      <trkpt lat="47.26846" lon="6.55248">
        <ele>819.20001220703</ele>
        <time>2018-05-01T14:13:12.000Z</time>
      </trkpt>
      <trkpt lat="47.2684" lon="6.55261">
        <ele>820.40002441406</ele>
        <time>2018-05-01T14:13:16.000Z</time>
      </trkpt>
      <trkpt lat="47.26838" lon="6.55261">
        <ele>820.59997558594</ele>
        <time>2018-05-01T14:13:17.000Z</time>
      </trkpt>
      <trkpt lat="47.26834" lon="6.55269">
        <ele>821.20001220703</ele>
        <time>2018-05-01T14:13:20.000Z</time>
      </trkpt>
      <trkpt lat="47.26832" lon="6.55273">
        <ele>821.59997558594</ele>
        <time>2018-05-01T14:13:21.000Z</time>
      </trkpt>
      <trkpt lat="47.26821" lon="6.55293">
        <ele>823</ele>
        <time>2018-05-01T14:13:26.000Z</time>
      </trkpt>
      <trkpt lat="47.26818" lon="6.55298">
        <ele>823.20001220703</ele>
        <time>2018-05-01T14:13:27.000Z</time>
      </trkpt>
      <trkpt lat="47.26811" lon="6.5531">
        <ele>823.40002441406</ele>
        <time>2018-05-01T14:13:30.000Z</time>
      </trkpt>
      <trkpt lat="47.26806" lon="6.55317">
        <ele>823.20001220703</ele>
        <time>2018-05-01T14:13:32.000Z</time>
      </trkpt>
      <trkpt lat="47.26803" lon="6.55321">
        <ele>822.79998779297</ele>
        <time>2018-05-01T14:13:33.000Z</time>
      </trkpt>
      <trkpt lat="47.26796" lon="6.5533">
        <ele>821.79998779297</ele>
        <time>2018-05-01T14:13:36.000Z</time>
      </trkpt>
      <trkpt lat="47.26794" lon="6.55331">
        <ele>821.79998779297</ele>
        <time>2018-05-01T14:13:37.000Z</time>
      </trkpt>
      <trkpt lat="47.26789" lon="6.55334">
        <ele>821.40002441406</ele>
        <time>2018-05-01T14:13:39.000Z</time>
      </trkpt>
      <trkpt lat="47.26785" lon="6.55338">
        <ele>821</ele>
        <time>2018-05-01T14:13:41.000Z</time>
      </trkpt>
      <trkpt lat="47.26783" lon="6.55341">
        <ele>820.59997558594</ele>
        <time>2018-05-01T14:13:43.000Z</time>
      </trkpt>
      <trkpt lat="47.26781" lon="6.55343">
        <ele>820.40002441406</ele>
        <time>2018-05-01T14:13:44.000Z</time>
      </trkpt>
      <trkpt lat="47.26777" lon="6.55345">
        <ele>820.20001220703</ele>
        <time>2018-05-01T14:13:46.000Z</time>
      </trkpt>
      <trkpt lat="47.26773" lon="6.55349">
        <ele>820</ele>
        <time>2018-05-01T14:13:48.000Z</time>
      </trkpt>
      <trkpt lat="47.26769" lon="6.55354">
        <ele>819.79998779297</ele>
        <time>2018-05-01T14:13:50.000Z</time>
      </trkpt>
      <trkpt lat="47.26767" lon="6.55357">
        <ele>819.79998779297</ele>
        <time>2018-05-01T14:13:51.000Z</time>
      </trkpt>
      <trkpt lat="47.26762" lon="6.55364">
        <ele>819.59997558594</ele>
        <time>2018-05-01T14:13:53.000Z</time>
      </trkpt>
      <trkpt lat="47.26756" lon="6.55373">
        <ele>819.59997558594</ele>
        <time>2018-05-01T14:13:55.000Z</time>
      </trkpt>
      <trkpt lat="47.2675" lon="6.5538">
        <ele>819.40002441406</ele>
        <time>2018-05-01T14:13:57.000Z</time>
      </trkpt>
      <trkpt lat="47.26737" lon="6.55394">
        <ele>819.79998779297</ele>
        <time>2018-05-01T14:14:01.000Z</time>
      </trkpt>
      <trkpt lat="47.26728" lon="6.55399">
        <ele>819.79998779297</ele>
        <time>2018-05-01T14:14:05.000Z</time>
      </trkpt>
      <trkpt lat="47.26721" lon="6.55405">
        <ele>819</ele>
        <time>2018-05-01T14:14:09.000Z</time>
      </trkpt>
      <trkpt lat="47.26719" lon="6.55405">
        <ele>818.79998779297</ele>
        <time>2018-05-01T14:14:10.000Z</time>
      </trkpt>
      <trkpt lat="47.2671" lon="6.55408">
        <ele>818.59997558594</ele>
        <time>2018-05-01T14:14:15.000Z</time>
      </trkpt>
      <trkpt lat="47.26709" lon="6.55408">
        <ele>818.59997558594</ele>
        <time>2018-05-01T14:14:16.000Z</time>
      </trkpt>
      <trkpt lat="47.26706" lon="6.55406">
        <ele>819.20001220703</ele>
        <time>2018-05-01T14:14:23.000Z</time>
      </trkpt>
      <trkpt lat="47.26702" lon="6.55403">
        <ele>820.20001220703</ele>
        <time>2018-05-01T14:14:28.000Z</time>
      </trkpt>
      <trkpt lat="47.26701" lon="6.55402">
        <ele>820.20001220703</ele>
        <time>2018-05-01T14:14:29.000Z</time>
      </trkpt>
      <trkpt lat="47.26699" lon="6.55402">
        <ele>820.40002441406</ele>
        <time>2018-05-01T14:14:30.000Z</time>
      </trkpt>
      <trkpt lat="47.26698" lon="6.55403">
        <ele>820.40002441406</ele>
        <time>2018-05-01T14:14:35.000Z</time>
      </trkpt>
      <trkpt lat="47.26695" lon="6.554">
        <ele>821</ele>
        <time>2018-05-01T14:14:37.000Z</time>
      </trkpt>
      <trkpt lat="47.26694" lon="6.55399">
        <ele>821</ele>
        <time>2018-05-01T14:14:42.000Z</time>
      </trkpt>
      <trkpt lat="47.26694" lon="6.55399">
        <ele>821</ele>
        <time>2018-05-01T14:14:51.000Z</time>
      </trkpt>
      <trkpt lat="47.26694" lon="6.55399">
        <ele>821</ele>
        <time>2018-05-01T14:14:58.000Z</time>
      </trkpt>
      <trkpt lat="47.26694" lon="6.55399">
        <ele>821</ele>
        <time>2018-05-01T14:15:05.000Z</time>
      </trkpt>
      <trkpt lat="47.26694" lon="6.55399">
        <ele>821</ele>
        <time>2018-05-01T14:15:12.000Z</time>
      </trkpt>
      <trkpt lat="47.26693" lon="6.55398">
        <ele>821.20001220703</ele>
        <time>2018-05-01T14:15:18.000Z</time>
      </trkpt>
      <trkpt lat="47.26693" lon="6.55398">
        <ele>821.20001220703</ele>
        <time>2018-05-01T14:15:26.000Z</time>
      </trkpt>
      <trkpt lat="47.26693" lon="6.55398">
        <ele>821.20001220703</ele>
        <time>2018-05-01T14:15:32.000Z</time>
      </trkpt>
      <trkpt lat="47.26691" lon="6.5539">
        <ele>821.79998779297</ele>
        <time>2018-05-01T14:15:39.000Z</time>
      </trkpt>
      <trkpt lat="47.26687" lon="6.55386">
        <ele>822.20001220703</ele>
        <time>2018-05-01T14:15:40.000Z</time>
      </trkpt>
      <trkpt lat="47.26678" lon="6.55378">
        <ele>823</ele>
        <time>2018-05-01T14:15:42.000Z</time>
      </trkpt>
      <trkpt lat="47.26674" lon="6.55372">
        <ele>823.59997558594</ele>
        <time>2018-05-01T14:15:44.000Z</time>
      </trkpt>
      <trkpt lat="47.26671" lon="6.5537">
        <ele>824</ele>
        <time>2018-05-01T14:15:45.000Z</time>
      </trkpt>
      <trkpt lat="47.26667" lon="6.55363">
        <ele>824.59997558594</ele>
        <time>2018-05-01T14:15:48.000Z</time>
      </trkpt>
      <trkpt lat="47.26665" lon="6.55361">
        <ele>824.79998779297</ele>
        <time>2018-05-01T14:15:49.000Z</time>
      </trkpt>
      <trkpt lat="47.26664" lon="6.55359">
        <ele>825</ele>
        <time>2018-05-01T14:15:51.000Z</time>
      </trkpt>
      <trkpt lat="47.26662" lon="6.55357">
        <ele>825.40002441406</ele>
        <time>2018-05-01T14:15:59.000Z</time>
      </trkpt>
      <trkpt lat="47.26661" lon="6.55356">
        <ele>825.59997558594</ele>
        <time>2018-05-01T14:16:00.000Z</time>
      </trkpt>
      <trkpt lat="47.2666" lon="6.55354">
        <ele>826</ele>
        <time>2018-05-01T14:16:01.000Z</time>
      </trkpt>
      <trkpt lat="47.26658" lon="6.55351">
        <ele>826.59997558594</ele>
        <time>2018-05-01T14:16:02.000Z</time>
      </trkpt>
      <trkpt lat="47.26656" lon="6.55348">
        <ele>827</ele>
        <time>2018-05-01T14:16:03.000Z</time>
      </trkpt>
      <trkpt lat="47.26655" lon="6.55345">
        <ele>827.40002441406</ele>
        <time>2018-05-01T14:16:04.000Z</time>
      </trkpt>
      <trkpt lat="47.26654" lon="6.55342">
        <ele>827.79998779297</ele>
        <time>2018-05-01T14:16:05.000Z</time>
      </trkpt>
      <trkpt lat="47.26654" lon="6.5534">
        <ele>828.20001220703</ele>
        <time>2018-05-01T14:16:06.000Z</time>
      </trkpt>
      <trkpt lat="47.26653" lon="6.55338">
        <ele>828.40002441406</ele>
        <time>2018-05-01T14:16:07.000Z</time>
      </trkpt>
      <trkpt lat="47.26651" lon="6.55335">
        <ele>829</ele>
        <time>2018-05-01T14:16:09.000Z</time>
      </trkpt>
      <trkpt lat="47.2665" lon="6.55333">
        <ele>829.20001220703</ele>
        <time>2018-05-01T14:16:10.000Z</time>
      </trkpt>
      <trkpt lat="47.26649" lon="6.55329">
        <ele>829.79998779297</ele>
        <time>2018-05-01T14:16:12.000Z</time>
      </trkpt>
      <trkpt lat="47.26649" lon="6.55329">
        <ele>829.79998779297</ele>
        <time>2018-05-01T14:16:13.000Z</time>
      </trkpt>
      <trkpt lat="47.26648" lon="6.55328">
        <ele>830.20001220703</ele>
        <time>2018-05-01T14:16:14.000Z</time>
      </trkpt>
      <trkpt lat="47.26647" lon="6.55323">
        <ele>830.79998779297</ele>
        <time>2018-05-01T14:16:17.000Z</time>
      </trkpt>
      <trkpt lat="47.26645" lon="6.55322">
        <ele>831</ele>
        <time>2018-05-01T14:16:19.000Z</time>
      </trkpt>
      <trkpt lat="47.26644" lon="6.55319">
        <ele>831.40002441406</ele>
        <time>2018-05-01T14:16:21.000Z</time>
      </trkpt>
      <trkpt lat="47.26643" lon="6.55317">
        <ele>831.79998779297</ele>
        <time>2018-05-01T14:16:23.000Z</time>
      </trkpt>
      <trkpt lat="47.26642" lon="6.55314">
        <ele>832.40002441406</ele>
        <time>2018-05-01T14:16:26.000Z</time>
      </trkpt>
      <trkpt lat="47.26639" lon="6.55309">
        <ele>833.79998779297</ele>
        <time>2018-05-01T14:16:32.000Z</time>
      </trkpt>
      <trkpt lat="47.26639" lon="6.55309">
        <ele>833.79998779297</ele>
        <time>2018-05-01T14:16:33.000Z</time>
      </trkpt>
      <trkpt lat="47.26639" lon="6.55309">
        <ele>834</ele>
        <time>2018-05-01T14:16:41.000Z</time>
      </trkpt>
      <trkpt lat="47.26639" lon="6.55309">
        <ele>834</ele>
        <time>2018-05-01T14:16:50.000Z</time>
      </trkpt>
      <trkpt lat="47.26637" lon="6.55309">
        <ele>834.20001220703</ele>
        <time>2018-05-01T14:16:56.000Z</time>
      </trkpt>
      <trkpt lat="47.26637" lon="6.55309">
        <ele>834.20001220703</ele>
        <time>2018-05-01T14:17:00.000Z</time>
      </trkpt>
      <trkpt lat="47.26635" lon="6.55309">
        <ele>834.59997558594</ele>
        <time>2018-05-01T14:17:03.000Z</time>
      </trkpt>
      <trkpt lat="47.26632" lon="6.5531">
        <ele>835</ele>
        <time>2018-05-01T14:17:10.000Z</time>
      </trkpt>
      <trkpt lat="47.26631" lon="6.5531">
        <ele>835.20001220703</ele>
        <time>2018-05-01T14:17:18.000Z</time>
      </trkpt>
      <trkpt lat="47.26628" lon="6.55312">
        <ele>835.59997558594</ele>
        <time>2018-05-01T14:17:26.000Z</time>
      </trkpt>
      <trkpt lat="47.26625" lon="6.55313">
        <ele>836</ele>
        <time>2018-05-01T14:17:33.000Z</time>
      </trkpt>
      <trkpt lat="47.26624" lon="6.55313">
        <ele>836.20001220703</ele>
        <time>2018-05-01T14:17:40.000Z</time>
      </trkpt>
      <trkpt lat="47.26622" lon="6.55314">
        <ele>836.40002441406</ele>
        <time>2018-05-01T14:17:42.000Z</time>
      </trkpt>
      <trkpt lat="47.26622" lon="6.55314">
        <ele>836.40002441406</ele>
        <time>2018-05-01T14:17:44.000Z</time>
      </trkpt>
      <trkpt lat="47.2662" lon="6.55314">
        <ele>836.59997558594</ele>
        <time>2018-05-01T14:17:52.000Z</time>
      </trkpt>
      <trkpt lat="47.26619" lon="6.55315">
        <ele>836.79998779297</ele>
        <time>2018-05-01T14:17:53.000Z</time>
      </trkpt>
      <trkpt lat="47.26616" lon="6.55316">
        <ele>837.20001220703</ele>
        <time>2018-05-01T14:17:54.000Z</time>
      </trkpt>
      <trkpt lat="47.26614" lon="6.55316">
        <ele>837.59997558594</ele>
        <time>2018-05-01T14:17:55.000Z</time>
      </trkpt>
      <trkpt lat="47.26613" lon="6.55318">
        <ele>837.59997558594</ele>
        <time>2018-05-01T14:17:56.000Z</time>
      </trkpt>
      <trkpt lat="47.26613" lon="6.55319">
        <ele>837.59997558594</ele>
        <time>2018-05-01T14:17:57.000Z</time>
      </trkpt>
      <trkpt lat="47.26612" lon="6.5532">
        <ele>837.59997558594</ele>
        <time>2018-05-01T14:17:58.000Z</time>
      </trkpt>
      <trkpt lat="47.26612" lon="6.55322">
        <ele>837.40002441406</ele>
        <time>2018-05-01T14:18:00.000Z</time>
      </trkpt>
      <trkpt lat="47.26612" lon="6.55323">
        <ele>837.40002441406</ele>
        <time>2018-05-01T14:18:01.000Z</time>
      </trkpt>
      <trkpt lat="47.26611" lon="6.55326">
        <ele>837.40002441406</ele>
        <time>2018-05-01T14:18:03.000Z</time>
      </trkpt>
      <trkpt lat="47.2661" lon="6.55326">
        <ele>837.40002441406</ele>
        <time>2018-05-01T14:18:04.000Z</time>
      </trkpt>
      <trkpt lat="47.2661" lon="6.55327">
        <ele>837.40002441406</ele>
        <time>2018-05-01T14:18:05.000Z</time>
      </trkpt>
      <trkpt lat="47.26611" lon="6.55328">
        <ele>837.20001220703</ele>
        <time>2018-05-01T14:18:06.000Z</time>
      </trkpt>
      <trkpt lat="47.2661" lon="6.5533">
        <ele>837.20001220703</ele>
        <time>2018-05-01T14:18:08.000Z</time>
      </trkpt>
      <trkpt lat="47.2661" lon="6.55331">
        <ele>837.20001220703</ele>
        <time>2018-05-01T14:18:10.000Z</time>
      </trkpt>
      <trkpt lat="47.2661" lon="6.55332">
        <ele>837.20001220703</ele>
        <time>2018-05-01T14:18:11.000Z</time>
      </trkpt>
      <trkpt lat="47.2661" lon="6.55335">
        <ele>837</ele>
        <time>2018-05-01T14:18:13.000Z</time>
      </trkpt>
      <trkpt lat="47.26609" lon="6.55337">
        <ele>837</ele>
        <time>2018-05-01T14:18:17.000Z</time>
      </trkpt>
      <trkpt lat="47.26609" lon="6.55338">
        <ele>836.79998779297</ele>
        <time>2018-05-01T14:18:18.000Z</time>
      </trkpt>
      <trkpt lat="47.26608" lon="6.55341">
        <ele>836.79998779297</ele>
        <time>2018-05-01T14:18:22.000Z</time>
      </trkpt>
      <trkpt lat="47.26608" lon="6.55342">
        <ele>836.79998779297</ele>
        <time>2018-05-01T14:18:25.000Z</time>
      </trkpt>
      <trkpt lat="47.26611" lon="6.55347">
        <ele>835.79998779297</ele>
        <time>2018-05-01T14:18:32.000Z</time>
      </trkpt>
      <trkpt lat="47.26612" lon="6.55349">
        <ele>835.59997558594</ele>
        <time>2018-05-01T14:18:34.000Z</time>
      </trkpt>
      <trkpt lat="47.26612" lon="6.55349">
        <ele>835.59997558594</ele>
        <time>2018-05-01T14:18:39.000Z</time>
      </trkpt>
      <trkpt lat="47.26612" lon="6.55348">
        <ele>835.59997558594</ele>
        <time>2018-05-01T14:18:48.000Z</time>
      </trkpt>
      <trkpt lat="47.26612" lon="6.55348">
        <ele>835.59997558594</ele>
        <time>2018-05-01T14:19:04.000Z</time>
      </trkpt>
      <trkpt lat="47.26612" lon="6.55348">
        <ele>835.59997558594</ele>
        <time>2018-05-01T14:19:20.000Z</time>
      </trkpt>
      <trkpt lat="47.26612" lon="6.55348">
        <ele>835.59997558594</ele>
        <time>2018-05-01T14:19:28.000Z</time>
      </trkpt>
      <trkpt lat="47.26612" lon="6.55348">
        <ele>835.59997558594</ele>
        <time>2018-05-01T14:19:39.000Z</time>
      </trkpt>
      <trkpt lat="47.26612" lon="6.55348">
        <ele>835.59997558594</ele>
        <time>2018-05-01T14:19:49.000Z</time>
      </trkpt>
      <trkpt lat="47.26612" lon="6.55348">
        <ele>835.59997558594</ele>
        <time>2018-05-01T14:20:01.000Z</time>
      </trkpt>
      <trkpt lat="47.26612" lon="6.55348">
        <ele>835.59997558594</ele>
        <time>2018-05-01T14:20:13.000Z</time>
      </trkpt>
      <trkpt lat="47.26612" lon="6.55348">
        <ele>835.59997558594</ele>
        <time>2018-05-01T14:20:23.000Z</time>
      </trkpt>
      <trkpt lat="47.26612" lon="6.55348">
        <ele>835.59997558594</ele>
        <time>2018-05-01T14:20:36.000Z</time>
      </trkpt>
      <trkpt lat="47.26612" lon="6.55348">
        <ele>835.59997558594</ele>
        <time>2018-05-01T14:20:46.000Z</time>
      </trkpt>
      <trkpt lat="47.26612" lon="6.55348">
        <ele>835.59997558594</ele>
        <time>2018-05-01T14:20:55.000Z</time>
      </trkpt>
      <trkpt lat="47.26612" lon="6.55348">
        <ele>835.59997558594</ele>
        <time>2018-05-01T14:21:08.000Z</time>
      </trkpt>
      <trkpt lat="47.26611" lon="6.55348">
        <ele>835.59997558594</ele>
        <time>2018-05-01T14:21:21.000Z</time>
      </trkpt>
      <trkpt lat="47.26611" lon="6.55348">
        <ele>835.59997558594</ele>
        <time>2018-05-01T14:21:32.000Z</time>
      </trkpt>
      <trkpt lat="47.26611" lon="6.55348">
        <ele>835.59997558594</ele>
        <time>2018-05-01T14:21:43.000Z</time>
      </trkpt>
      <trkpt lat="47.26611" lon="6.55348">
        <ele>835.59997558594</ele>
        <time>2018-05-01T14:21:53.000Z</time>
      </trkpt>
      <trkpt lat="47.26612" lon="6.55348">
        <ele>835.59997558594</ele>
        <time>2018-05-01T14:22:08.000Z</time>
      </trkpt>
      <trkpt lat="47.26612" lon="6.55348">
        <ele>835.59997558594</ele>
        <time>2018-05-01T14:22:26.000Z</time>
      </trkpt>
      <trkpt lat="47.26611" lon="6.55349">
        <ele>835.59997558594</ele>
        <time>2018-05-01T14:22:40.000Z</time>
      </trkpt>
      <trkpt lat="47.26611" lon="6.55349">
        <ele>835.59997558594</ele>
        <time>2018-05-01T14:22:58.000Z</time>
      </trkpt>
      <trkpt lat="47.26611" lon="6.55347">
        <ele>835.79998779297</ele>
        <time>2018-05-01T14:23:12.000Z</time>
      </trkpt>
      <trkpt lat="47.2661" lon="6.55346">
        <ele>836</ele>
        <time>2018-05-01T14:23:13.000Z</time>
      </trkpt>
      <trkpt lat="47.26609" lon="6.55343">
        <ele>836.40002441406</ele>
        <time>2018-05-01T14:23:15.000Z</time>
      </trkpt>
      <trkpt lat="47.26609" lon="6.55343">
        <ele>836.59997558594</ele>
        <time>2018-05-01T14:23:18.000Z</time>
      </trkpt>
      <trkpt lat="47.26609" lon="6.55343">
        <ele>836.59997558594</ele>
        <time>2018-05-01T14:23:24.000Z</time>
      </trkpt>
      <trkpt lat="47.26608" lon="6.55342">
        <ele>836.79998779297</ele>
        <time>2018-05-01T14:23:27.000Z</time>
      </trkpt>
      <trkpt lat="47.26606" lon="6.55338">
        <ele>837.40002441406</ele>
        <time>2018-05-01T14:23:29.000Z</time>
      </trkpt>
      <trkpt lat="47.26605" lon="6.55332">
        <ele>838</ele>
        <time>2018-05-01T14:23:34.000Z</time>
      </trkpt>
      <trkpt lat="47.26603" lon="6.55328">
        <ele>838.79998779297</ele>
        <time>2018-05-01T14:23:41.000Z</time>
      </trkpt>
      <trkpt lat="47.26601" lon="6.55323">
        <ele>839.40002441406</ele>
        <time>2018-05-01T14:23:45.000Z</time>
      </trkpt>
      <trkpt lat="47.26601" lon="6.55321">
        <ele>839.59997558594</ele>
        <time>2018-05-01T14:23:47.000Z</time>
      </trkpt>
      <trkpt lat="47.26601" lon="6.55318">
        <ele>839.79998779297</ele>
        <time>2018-05-01T14:23:51.000Z</time>
      </trkpt>
      <trkpt lat="47.266" lon="6.55317">
        <ele>840</ele>
        <time>2018-05-01T14:23:52.000Z</time>
      </trkpt>
      <trkpt lat="47.266" lon="6.55312">
        <ele>840.79998779297</ele>
        <time>2018-05-01T14:23:54.000Z</time>
      </trkpt>
      <trkpt lat="47.26599" lon="6.55307">
        <ele>841.59997558594</ele>
        <time>2018-05-01T14:23:56.000Z</time>
      </trkpt>
      <trkpt lat="47.26599" lon="6.55304">
        <ele>842.20001220703</ele>
        <time>2018-05-01T14:23:57.000Z</time>
      </trkpt>
      <trkpt lat="47.26598" lon="6.55301">
        <ele>842.79998779297</ele>
        <time>2018-05-01T14:23:58.000Z</time>
      </trkpt>
      <trkpt lat="47.26597" lon="6.55291">
        <ele>844.40002441406</ele>
        <time>2018-05-01T14:24:01.000Z</time>
      </trkpt>
      <trkpt lat="47.26596" lon="6.55288">
        <ele>845</ele>
        <time>2018-05-01T14:24:02.000Z</time>
      </trkpt>
      <trkpt lat="47.26595" lon="6.55285">
        <ele>845.79998779297</ele>
        <time>2018-05-01T14:24:03.000Z</time>
      </trkpt>
      <trkpt lat="47.26591" lon="6.55275">
        <ele>848</ele>
        <time>2018-05-01T14:24:06.000Z</time>
      </trkpt>
      <trkpt lat="47.26589" lon="6.55272">
        <ele>848.59997558594</ele>
        <time>2018-05-01T14:24:07.000Z</time>
      </trkpt>
      <trkpt lat="47.26588" lon="6.55264">
        <ele>850</ele>
        <time>2018-05-01T14:24:09.000Z</time>
      </trkpt>
      <trkpt lat="47.26587" lon="6.55252">
        <ele>852</ele>
        <time>2018-05-01T14:24:12.000Z</time>
      </trkpt>
      <trkpt lat="47.26587" lon="6.55249">
        <ele>852.59997558594</ele>
        <time>2018-05-01T14:24:13.000Z</time>
      </trkpt>
      <trkpt lat="47.26584" lon="6.55233">
        <ele>854.40002441406</ele>
        <time>2018-05-01T14:24:17.000Z</time>
      </trkpt>
      <trkpt lat="47.26583" lon="6.5523">
        <ele>855</ele>
        <time>2018-05-01T14:24:18.000Z</time>
      </trkpt>
      <trkpt lat="47.26575" lon="6.55215">
        <ele>855.59997558594</ele>
        <time>2018-05-01T14:24:22.000Z</time>
      </trkpt>
      <trkpt lat="47.26569" lon="6.55201">
        <ele>855.20001220703</ele>
        <time>2018-05-01T14:24:26.000Z</time>
      </trkpt>
      <trkpt lat="47.2657" lon="6.55183">
        <ele>855.40002441406</ele>
        <time>2018-05-01T14:24:30.000Z</time>
      </trkpt>
      <trkpt lat="47.2657" lon="6.55163">
        <ele>855.40002441406</ele>
        <time>2018-05-01T14:24:34.000Z</time>
      </trkpt>
      <trkpt lat="47.26569" lon="6.55157">
        <ele>855.20001220703</ele>
        <time>2018-05-01T14:24:35.000Z</time>
      </trkpt>
      <trkpt lat="47.26562" lon="6.5513">
        <ele>854.40002441406</ele>
        <time>2018-05-01T14:24:40.000Z</time>
      </trkpt>
      <trkpt lat="47.26557" lon="6.55109">
        <ele>852.20001220703</ele>
        <time>2018-05-01T14:24:44.000Z</time>
      </trkpt>
      <trkpt lat="47.26555" lon="6.551">
        <ele>851.40002441406</ele>
        <time>2018-05-01T14:24:46.000Z</time>
      </trkpt>
      <trkpt lat="47.26555" lon="6.55096">
        <ele>851</ele>
        <time>2018-05-01T14:24:47.000Z</time>
      </trkpt>
      <trkpt lat="47.26552" lon="6.55077">
        <ele>849</ele>
        <time>2018-05-01T14:24:52.000Z</time>
      </trkpt>
      <trkpt lat="47.26551" lon="6.55068">
        <ele>848</ele>
        <time>2018-05-01T14:24:54.000Z</time>
      </trkpt>
      <trkpt lat="47.26548" lon="6.55052">
        <ele>847.40002441406</ele>
        <time>2018-05-01T14:24:57.000Z</time>
      </trkpt>
      <trkpt lat="47.26545" lon="6.55045">
        <ele>847.20001220703</ele>
        <time>2018-05-01T14:24:59.000Z</time>
      </trkpt>
      <trkpt lat="47.26545" lon="6.55044">
        <ele>847.20001220703</ele>
        <time>2018-05-01T14:25:03.000Z</time>
      </trkpt>
      <trkpt lat="47.26545" lon="6.55044">
        <ele>847.20001220703</ele>
        <time>2018-05-01T14:25:17.000Z</time>
      </trkpt>
      <trkpt lat="47.26545" lon="6.55044">
        <ele>847.20001220703</ele>
        <time>2018-05-01T14:25:46.000Z</time>
      </trkpt>
      <trkpt lat="47.26545" lon="6.55044">
        <ele>847.20001220703</ele>
        <time>2018-05-01T14:25:55.000Z</time>
      </trkpt>
      <trkpt lat="47.26545" lon="6.55044">
        <ele>847.20001220703</ele>
        <time>2018-05-01T14:25:57.000Z</time>
      </trkpt>
      <trkpt lat="47.26546" lon="6.55041">
        <ele>847</ele>
        <time>2018-05-01T14:26:00.000Z</time>
      </trkpt>
      <trkpt lat="47.26546" lon="6.55042">
        <ele>847</ele>
        <time>2018-05-01T14:26:03.000Z</time>
      </trkpt>
      <trkpt lat="47.26545" lon="6.55047">
        <ele>847.20001220703</ele>
        <time>2018-05-01T14:26:05.000Z</time>
      </trkpt>
      <trkpt lat="47.26547" lon="6.55064">
        <ele>848</ele>
        <time>2018-05-01T14:26:09.000Z</time>
      </trkpt>
      <trkpt lat="47.26548" lon="6.55068">
        <ele>848.20001220703</ele>
        <time>2018-05-01T14:26:10.000Z</time>
      </trkpt>
      <trkpt lat="47.26551" lon="6.55088">
        <ele>850.20001220703</ele>
        <time>2018-05-01T14:26:14.000Z</time>
      </trkpt>
      <trkpt lat="47.26555" lon="6.55105">
        <ele>852</ele>
        <time>2018-05-01T14:26:17.000Z</time>
      </trkpt>
      <trkpt lat="47.26557" lon="6.55116">
        <ele>853</ele>
        <time>2018-05-01T14:26:19.000Z</time>
      </trkpt>
      <trkpt lat="47.2656" lon="6.55127">
        <ele>854.20001220703</ele>
        <time>2018-05-01T14:26:21.000Z</time>
      </trkpt>
      <trkpt lat="47.26562" lon="6.55137">
        <ele>854.79998779297</ele>
        <time>2018-05-01T14:26:23.000Z</time>
      </trkpt>
      <trkpt lat="47.26563" lon="6.55142">
        <ele>854.79998779297</ele>
        <time>2018-05-01T14:26:24.000Z</time>
      </trkpt>
      <trkpt lat="47.26568" lon="6.55167">
        <ele>855.20001220703</ele>
        <time>2018-05-01T14:26:29.000Z</time>
      </trkpt>
      <trkpt lat="47.26572" lon="6.55183">
        <ele>855.40002441406</ele>
        <time>2018-05-01T14:26:33.000Z</time>
      </trkpt>
      <trkpt lat="47.26573" lon="6.55202">
        <ele>855.59997558594</ele>
        <time>2018-05-01T14:26:38.000Z</time>
      </trkpt>
      <trkpt lat="47.26573" lon="6.55214">
        <ele>855.59997558594</ele>
        <time>2018-05-01T14:26:40.000Z</time>
      </trkpt>
      <trkpt lat="47.26574" lon="6.55233">
        <ele>855.59997558594</ele>
        <time>2018-05-01T14:26:43.000Z</time>
      </trkpt>
      <trkpt lat="47.26577" lon="6.5525">
        <ele>853.59997558594</ele>
        <time>2018-05-01T14:26:46.000Z</time>
      </trkpt>
      <trkpt lat="47.26579" lon="6.55259">
        <ele>852.40002441406</ele>
        <time>2018-05-01T14:26:48.000Z</time>
      </trkpt>
      <trkpt lat="47.26583" lon="6.55276">
        <ele>849.40002441406</ele>
        <time>2018-05-01T14:26:51.000Z</time>
      </trkpt>
      <trkpt lat="47.26584" lon="6.55287">
        <ele>847.40002441406</ele>
        <time>2018-05-01T14:26:53.000Z</time>
      </trkpt>
      <trkpt lat="47.26586" lon="6.55296">
        <ele>845.79998779297</ele>
        <time>2018-05-01T14:26:55.000Z</time>
      </trkpt>
      <trkpt lat="47.26587" lon="6.55302">
        <ele>844.79998779297</ele>
        <time>2018-05-01T14:26:56.000Z</time>
      </trkpt>
      <trkpt lat="47.26588" lon="6.55306">
        <ele>844</ele>
        <time>2018-05-01T14:26:57.000Z</time>
      </trkpt>
      <trkpt lat="47.26589" lon="6.55311">
        <ele>843.20001220703</ele>
        <time>2018-05-01T14:26:58.000Z</time>
      </trkpt>
      <trkpt lat="47.26585" lon="6.55315">
        <ele>843.40002441406</ele>
        <time>2018-05-01T14:27:00.000Z</time>
      </trkpt>
      <trkpt lat="47.26582" lon="6.55315">
        <ele>844</ele>
        <time>2018-05-01T14:27:01.000Z</time>
      </trkpt>
      <trkpt lat="47.26578" lon="6.55314">
        <ele>844.40002441406</ele>
        <time>2018-05-01T14:27:02.000Z</time>
      </trkpt>
      <trkpt lat="47.26569" lon="6.55311">
        <ele>844</ele>
        <time>2018-05-01T14:27:04.000Z</time>
      </trkpt>
      <trkpt lat="47.26565" lon="6.55309">
        <ele>844</ele>
        <time>2018-05-01T14:27:05.000Z</time>
      </trkpt>
      <trkpt lat="47.26562" lon="6.55307">
        <ele>844</ele>
        <time>2018-05-01T14:27:06.000Z</time>
      </trkpt>
      <trkpt lat="47.26558" lon="6.55304">
        <ele>844.20001220703</ele>
        <time>2018-05-01T14:27:07.000Z</time>
      </trkpt>
      <trkpt lat="47.26555" lon="6.553">
        <ele>844.40002441406</ele>
        <time>2018-05-01T14:27:08.000Z</time>
      </trkpt>
      <trkpt lat="47.26552" lon="6.55297">
        <ele>844.59997558594</ele>
        <time>2018-05-01T14:27:09.000Z</time>
      </trkpt>
      <trkpt lat="47.26548" lon="6.55293">
        <ele>844.79998779297</ele>
        <time>2018-05-01T14:27:10.000Z</time>
      </trkpt>
      <trkpt lat="47.26544" lon="6.5529">
        <ele>845</ele>
        <time>2018-05-01T14:27:11.000Z</time>
      </trkpt>
      <trkpt lat="47.2654" lon="6.55287">
        <ele>845</ele>
        <time>2018-05-01T14:27:12.000Z</time>
      </trkpt>
      <trkpt lat="47.26536" lon="6.55284">
        <ele>845</ele>
        <time>2018-05-01T14:27:13.000Z</time>
      </trkpt>
      <trkpt lat="47.26531" lon="6.55281">
        <ele>845.20001220703</ele>
        <time>2018-05-01T14:27:14.000Z</time>
      </trkpt>
      <trkpt lat="47.26528" lon="6.55279">
        <ele>845.20001220703</ele>
        <time>2018-05-01T14:27:15.000Z</time>
      </trkpt>
      <trkpt lat="47.26525" lon="6.55277">
        <ele>845</ele>
        <time>2018-05-01T14:27:16.000Z</time>
      </trkpt>
      <trkpt lat="47.26523" lon="6.55276">
        <ele>845</ele>
        <time>2018-05-01T14:27:17.000Z</time>
      </trkpt>
      <trkpt lat="47.26522" lon="6.55276">
        <ele>845</ele>
        <time>2018-05-01T14:27:18.000Z</time>
      </trkpt>
      <trkpt lat="47.26521" lon="6.55274">
        <ele>845.20001220703</ele>
        <time>2018-05-01T14:27:19.000Z</time>
      </trkpt>
      <trkpt lat="47.26521" lon="6.55273">
        <ele>845.40002441406</ele>
        <time>2018-05-01T14:27:20.000Z</time>
      </trkpt>
      <trkpt lat="47.26521" lon="6.5527">
        <ele>845.79998779297</ele>
        <time>2018-05-01T14:27:22.000Z</time>
      </trkpt>
      <trkpt lat="47.26521" lon="6.5527">
        <ele>845.79998779297</ele>
        <time>2018-05-01T14:27:24.000Z</time>
      </trkpt>
      <trkpt lat="47.26519" lon="6.5527">
        <ele>845.59997558594</ele>
        <time>2018-05-01T14:27:27.000Z</time>
      </trkpt>
      <trkpt lat="47.26517" lon="6.5527">
        <ele>845.59997558594</ele>
        <time>2018-05-01T14:27:28.000Z</time>
      </trkpt>
      <trkpt lat="47.26511" lon="6.55264">
        <ele>845.79998779297</ele>
        <time>2018-05-01T14:27:31.000Z</time>
      </trkpt>
      <trkpt lat="47.26505" lon="6.55259">
        <ele>846</ele>
        <time>2018-05-01T14:27:33.000Z</time>
      </trkpt>
      <trkpt lat="47.26497" lon="6.55254">
        <ele>846</ele>
        <time>2018-05-01T14:27:35.000Z</time>
      </trkpt>
      <trkpt lat="47.26493" lon="6.55252">
        <ele>845.40002441406</ele>
        <time>2018-05-01T14:27:36.000Z</time>
      </trkpt>
      <trkpt lat="47.26489" lon="6.55251">
        <ele>844.79998779297</ele>
        <time>2018-05-01T14:27:37.000Z</time>
      </trkpt>
      <trkpt lat="47.26485" lon="6.55249">
        <ele>844.20001220703</ele>
        <time>2018-05-01T14:27:38.000Z</time>
      </trkpt>
      <trkpt lat="47.26481" lon="6.55246">
        <ele>843.79998779297</ele>
        <time>2018-05-01T14:27:39.000Z</time>
      </trkpt>
      <trkpt lat="47.26478" lon="6.55243">
        <ele>843.79998779297</ele>
        <time>2018-05-01T14:27:40.000Z</time>
      </trkpt>
      <trkpt lat="47.26475" lon="6.55238">
        <ele>843.79998779297</ele>
        <time>2018-05-01T14:27:41.000Z</time>
      </trkpt>
      <trkpt lat="47.26472" lon="6.55235">
        <ele>843.59997558594</ele>
        <time>2018-05-01T14:27:42.000Z</time>
      </trkpt>
      <trkpt lat="47.26464" lon="6.55229">
        <ele>842.40002441406</ele>
        <time>2018-05-01T14:27:44.000Z</time>
      </trkpt>
      <trkpt lat="47.26456" lon="6.55226">
        <ele>841</ele>
        <time>2018-05-01T14:27:46.000Z</time>
      </trkpt>
      <trkpt lat="47.2645" lon="6.55224">
        <ele>839.79998779297</ele>
        <time>2018-05-01T14:27:48.000Z</time>
      </trkpt>
      <trkpt lat="47.26446" lon="6.55221">
        <ele>839</ele>
        <time>2018-05-01T14:27:50.000Z</time>
      </trkpt>
      <trkpt lat="47.26442" lon="6.55219">
        <ele>838.40002441406</ele>
        <time>2018-05-01T14:27:51.000Z</time>
      </trkpt>
      <trkpt lat="47.26437" lon="6.55215">
        <ele>837.59997558594</ele>
        <time>2018-05-01T14:27:52.000Z</time>
      </trkpt>
      <trkpt lat="47.26431" lon="6.55211">
        <ele>836.59997558594</ele>
        <time>2018-05-01T14:27:53.000Z</time>
      </trkpt>
      <trkpt lat="47.26426" lon="6.55206">
        <ele>835.79998779297</ele>
        <time>2018-05-01T14:27:54.000Z</time>
      </trkpt>
      <trkpt lat="47.26417" lon="6.55194">
        <ele>834.79998779297</ele>
        <time>2018-05-01T14:27:56.000Z</time>
      </trkpt>
      <trkpt lat="47.26411" lon="6.55182">
        <ele>834.40002441406</ele>
        <time>2018-05-01T14:27:58.000Z</time>
      </trkpt>
      <trkpt lat="47.26409" lon="6.55178">
        <ele>834.20001220703</ele>
        <time>2018-05-01T14:27:59.000Z</time>
      </trkpt>
      <trkpt lat="47.26407" lon="6.55175">
        <ele>834</ele>
        <time>2018-05-01T14:28:00.000Z</time>
      </trkpt>
      <trkpt lat="47.26406" lon="6.55174">
        <ele>833.79998779297</ele>
        <time>2018-05-01T14:28:04.000Z</time>
      </trkpt>
      <trkpt lat="47.26406" lon="6.55174">
        <ele>833.59997558594</ele>
        <time>2018-05-01T14:28:11.000Z</time>
      </trkpt>
      <trkpt lat="47.26406" lon="6.55174">
        <ele>833.59997558594</ele>
        <time>2018-05-01T14:28:12.000Z</time>
      </trkpt>
      <trkpt lat="47.26404" lon="6.55173">
        <ele>833.20001220703</ele>
        <time>2018-05-01T14:28:13.000Z</time>
      </trkpt>
      <trkpt lat="47.264" lon="6.55172">
        <ele>832.40002441406</ele>
        <time>2018-05-01T14:28:16.000Z</time>
      </trkpt>
      <trkpt lat="47.26398" lon="6.55171">
        <ele>832</ele>
        <time>2018-05-01T14:28:17.000Z</time>
      </trkpt>
      <trkpt lat="47.26388" lon="6.55164">
        <ele>830</ele>
        <time>2018-05-01T14:28:21.000Z</time>
      </trkpt>
      <trkpt lat="47.26379" lon="6.55157">
        <ele>828.40002441406</ele>
        <time>2018-05-01T14:28:24.000Z</time>
      </trkpt>
      <trkpt lat="47.26373" lon="6.5515">
        <ele>827.40002441406</ele>
        <time>2018-05-01T14:28:26.000Z</time>
      </trkpt>
      <trkpt lat="47.26363" lon="6.55139">
        <ele>825.59997558594</ele>
        <time>2018-05-01T14:28:29.000Z</time>
      </trkpt>
      <trkpt lat="47.26353" lon="6.55129">
        <ele>824</ele>
        <time>2018-05-01T14:28:32.000Z</time>
      </trkpt>
      <trkpt lat="47.26342" lon="6.55114">
        <ele>822.20001220703</ele>
        <time>2018-05-01T14:28:36.000Z</time>
      </trkpt>
      <trkpt lat="47.26336" lon="6.5511">
        <ele>821</ele>
        <time>2018-05-01T14:28:38.000Z</time>
      </trkpt>
      <trkpt lat="47.26325" lon="6.55098">
        <ele>818.79998779297</ele>
        <time>2018-05-01T14:28:42.000Z</time>
      </trkpt>
      <trkpt lat="47.26323" lon="6.55095">
        <ele>818.40002441406</ele>
        <time>2018-05-01T14:28:43.000Z</time>
      </trkpt>
      <trkpt lat="47.26315" lon="6.55088">
        <ele>816.79998779297</ele>
        <time>2018-05-01T14:28:46.000Z</time>
      </trkpt>
      <trkpt lat="47.26314" lon="6.55088">
        <ele>816.20001220703</ele>
        <time>2018-05-01T14:28:47.000Z</time>
      </trkpt>
      <trkpt lat="47.2631" lon="6.55095">
        <ele>814.79998779297</ele>
        <time>2018-05-01T14:28:50.000Z</time>
      </trkpt>
      <trkpt lat="47.2631" lon="6.55097">
        <ele>814.40002441406</ele>
        <time>2018-05-01T14:28:51.000Z</time>
      </trkpt>
      <trkpt lat="47.26309" lon="6.55099">
        <ele>814.20001220703</ele>
        <time>2018-05-01T14:28:52.000Z</time>
      </trkpt>
      <trkpt lat="47.26308" lon="6.551">
        <ele>813.79998779297</ele>
        <time>2018-05-01T14:28:55.000Z</time>
      </trkpt>
      <trkpt lat="47.26308" lon="6.551">
        <ele>813.79998779297</ele>
        <time>2018-05-01T14:28:56.000Z</time>
      </trkpt>
      <trkpt lat="47.26308" lon="6.551">
        <ele>813.79998779297</ele>
        <time>2018-05-01T14:29:03.000Z</time>
      </trkpt>
      <trkpt lat="47.26308" lon="6.551">
        <ele>813.79998779297</ele>
        <time>2018-05-01T14:29:11.000Z</time>
      </trkpt>
      <trkpt lat="47.26308" lon="6.55101">
        <ele>813.79998779297</ele>
        <time>2018-05-01T14:29:13.000Z</time>
      </trkpt>
      <trkpt lat="47.26308" lon="6.55107">
        <ele>813.40002441406</ele>
        <time>2018-05-01T14:29:15.000Z</time>
      </trkpt>
      <trkpt lat="47.26307" lon="6.5511">
        <ele>813</ele>
        <time>2018-05-01T14:29:16.000Z</time>
      </trkpt>
      <trkpt lat="47.26305" lon="6.55113">
        <ele>812.40002441406</ele>
        <time>2018-05-01T14:29:17.000Z</time>
      </trkpt>
      <trkpt lat="47.26302" lon="6.55118">
        <ele>811</ele>
        <time>2018-05-01T14:29:19.000Z</time>
      </trkpt>
      <trkpt lat="47.26301" lon="6.55121">
        <ele>810.79998779297</ele>
        <time>2018-05-01T14:29:20.000Z</time>
      </trkpt>
      <trkpt lat="47.26302" lon="6.55123">
        <ele>810.79998779297</ele>
        <time>2018-05-01T14:29:21.000Z</time>
      </trkpt>
      <trkpt lat="47.26302" lon="6.55124">
        <ele>810.59997558594</ele>
        <time>2018-05-01T14:29:22.000Z</time>
      </trkpt>
      <trkpt lat="47.26301" lon="6.55126">
        <ele>810.20001220703</ele>
        <time>2018-05-01T14:29:23.000Z</time>
      </trkpt>
      <trkpt lat="47.26301" lon="6.55129">
        <ele>810</ele>
        <time>2018-05-01T14:29:24.000Z</time>
      </trkpt>
      <trkpt lat="47.26301" lon="6.55131">
        <ele>809.59997558594</ele>
        <time>2018-05-01T14:29:25.000Z</time>
      </trkpt>
      <trkpt lat="47.263" lon="6.55135">
        <ele>809.20001220703</ele>
        <time>2018-05-01T14:29:26.000Z</time>
      </trkpt>
      <trkpt lat="47.263" lon="6.55139">
        <ele>808.79998779297</ele>
        <time>2018-05-01T14:29:27.000Z</time>
      </trkpt>
      <trkpt lat="47.26301" lon="6.55143">
        <ele>808.40002441406</ele>
        <time>2018-05-01T14:29:28.000Z</time>
      </trkpt>
      <trkpt lat="47.26301" lon="6.55147">
        <ele>808.20001220703</ele>
        <time>2018-05-01T14:29:29.000Z</time>
      </trkpt>
      <trkpt lat="47.26302" lon="6.55152">
        <ele>808</ele>
        <time>2018-05-01T14:29:30.000Z</time>
      </trkpt>
      <trkpt lat="47.26302" lon="6.55157">
        <ele>807</ele>
        <time>2018-05-01T14:29:31.000Z</time>
      </trkpt>
      <trkpt lat="47.26301" lon="6.55162">
        <ele>806.20001220703</ele>
        <time>2018-05-01T14:29:32.000Z</time>
      </trkpt>
      <trkpt lat="47.26301" lon="6.55167">
        <ele>805.40002441406</ele>
        <time>2018-05-01T14:29:33.000Z</time>
      </trkpt>
      <trkpt lat="47.26302" lon="6.55175">
        <ele>804.20001220703</ele>
        <time>2018-05-01T14:29:35.000Z</time>
      </trkpt>
      <trkpt lat="47.26301" lon="6.55187">
        <ele>802.20001220703</ele>
        <time>2018-05-01T14:29:37.000Z</time>
      </trkpt>
      <trkpt lat="47.26301" lon="6.55192">
        <ele>801.40002441406</ele>
        <time>2018-05-01T14:29:38.000Z</time>
      </trkpt>
      <trkpt lat="47.26301" lon="6.55198">
        <ele>800.40002441406</ele>
        <time>2018-05-01T14:29:39.000Z</time>
      </trkpt>
      <trkpt lat="47.26301" lon="6.55205">
        <ele>799.20001220703</ele>
        <time>2018-05-01T14:29:40.000Z</time>
      </trkpt>
      <trkpt lat="47.26302" lon="6.55211">
        <ele>798.79998779297</ele>
        <time>2018-05-01T14:29:41.000Z</time>
      </trkpt>
      <trkpt lat="47.26304" lon="6.55215">
        <ele>798.79998779297</ele>
        <time>2018-05-01T14:29:42.000Z</time>
      </trkpt>
      <trkpt lat="47.26308" lon="6.55221">
        <ele>799</ele>
        <time>2018-05-01T14:29:44.000Z</time>
      </trkpt>
      <trkpt lat="47.26312" lon="6.55228">
        <ele>799.40002441406</ele>
        <time>2018-05-01T14:29:47.000Z</time>
      </trkpt>
      <trkpt lat="47.2632" lon="6.5524">
        <ele>799.59997558594</ele>
        <time>2018-05-01T14:29:50.000Z</time>
      </trkpt>
      <trkpt lat="47.2632" lon="6.5524">
        <ele>799.59997558594</ele>
        <time>2018-05-01T14:29:52.000Z</time>
      </trkpt>
      <trkpt lat="47.26325" lon="6.55247">
        <ele>799.59997558594</ele>
        <time>2018-05-01T14:29:55.000Z</time>
      </trkpt>
      <trkpt lat="47.26326" lon="6.55251">
        <ele>799</ele>
        <time>2018-05-01T14:29:56.000Z</time>
      </trkpt>
      <trkpt lat="47.2633" lon="6.55264">
        <ele>797.40002441406</ele>
        <time>2018-05-01T14:29:59.000Z</time>
      </trkpt>
      <trkpt lat="47.2633" lon="6.55268">
        <ele>796.59997558594</ele>
        <time>2018-05-01T14:30:00.000Z</time>
      </trkpt>
      <trkpt lat="47.26332" lon="6.55277">
        <ele>795.20001220703</ele>
        <time>2018-05-01T14:30:02.000Z</time>
      </trkpt>
      <trkpt lat="47.26334" lon="6.55291">
        <ele>792.40002441406</ele>
        <time>2018-05-01T14:30:05.000Z</time>
      </trkpt>
      <trkpt lat="47.26336" lon="6.55296">
        <ele>791.79998779297</ele>
        <time>2018-05-01T14:30:06.000Z</time>
      </trkpt>
      <trkpt lat="47.26338" lon="6.55301">
        <ele>791.40002441406</ele>
        <time>2018-05-01T14:30:07.000Z</time>
      </trkpt>
      <trkpt lat="47.26341" lon="6.55309">
        <ele>790.59997558594</ele>
        <time>2018-05-01T14:30:09.000Z</time>
      </trkpt>
      <trkpt lat="47.26343" lon="6.55313">
        <ele>790.40002441406</ele>
        <time>2018-05-01T14:30:10.000Z</time>
      </trkpt>
      <trkpt lat="47.26347" lon="6.55319">
        <ele>790.20001220703</ele>
        <time>2018-05-01T14:30:11.000Z</time>
      </trkpt>
      <trkpt lat="47.26352" lon="6.55332">
        <ele>788.20001220703</ele>
        <time>2018-05-01T14:30:13.000Z</time>
      </trkpt>
      <trkpt lat="47.26356" lon="6.55338">
        <ele>788</ele>
        <time>2018-05-01T14:30:14.000Z</time>
      </trkpt>
      <trkpt lat="47.26358" lon="6.55342">
        <ele>787.40002441406</ele>
        <time>2018-05-01T14:30:15.000Z</time>
      </trkpt>
      <trkpt lat="47.2636" lon="6.55347">
        <ele>786.79998779297</ele>
        <time>2018-05-01T14:30:16.000Z</time>
      </trkpt>
      <trkpt lat="47.26367" lon="6.55363">
        <ele>785</ele>
        <time>2018-05-01T14:30:18.000Z</time>
      </trkpt>
      <trkpt lat="47.2637" lon="6.55395">
        <ele>778.59997558594</ele>
        <time>2018-05-01T14:30:23.000Z</time>
      </trkpt>
      <trkpt lat="47.2637" lon="6.5541">
        <ele>774.79998779297</ele>
        <time>2018-05-01T14:30:27.000Z</time>
      </trkpt>
      <trkpt lat="47.26374" lon="6.55428">
        <ele>771</ele>
        <time>2018-05-01T14:30:31.000Z</time>
      </trkpt>
      <trkpt lat="47.26374" lon="6.55432">
        <ele>770</ele>
        <time>2018-05-01T14:30:32.000Z</time>
      </trkpt>
      <trkpt lat="47.26376" lon="6.55452">
        <ele>765.59997558594</ele>
        <time>2018-05-01T14:30:36.000Z</time>
      </trkpt>
      <trkpt lat="47.26377" lon="6.55458">
        <ele>765</ele>
        <time>2018-05-01T14:30:37.000Z</time>
      </trkpt>
      <trkpt lat="47.26377" lon="6.55462">
        <ele>764.20001220703</ele>
        <time>2018-05-01T14:30:38.000Z</time>
      </trkpt>
      <trkpt lat="47.26379" lon="6.55468">
        <ele>763.59997558594</ele>
        <time>2018-05-01T14:30:40.000Z</time>
      </trkpt>
      <trkpt lat="47.26379" lon="6.55468">
        <ele>763.79998779297</ele>
        <time>2018-05-01T14:30:41.000Z</time>
      </trkpt>
      <trkpt lat="47.2638" lon="6.55467">
        <ele>763.79998779297</ele>
        <time>2018-05-01T14:30:49.000Z</time>
      </trkpt>
      <trkpt lat="47.2638" lon="6.5547">
        <ele>763.40002441406</ele>
        <time>2018-05-01T14:31:08.000Z</time>
      </trkpt>
      <trkpt lat="47.2638" lon="6.55474">
        <ele>762.79998779297</ele>
        <time>2018-05-01T14:31:09.000Z</time>
      </trkpt>
      <trkpt lat="47.26381" lon="6.55479">
        <ele>762.20001220703</ele>
        <time>2018-05-01T14:31:10.000Z</time>
      </trkpt>
      <trkpt lat="47.2638" lon="6.55496">
        <ele>759.59997558594</ele>
        <time>2018-05-01T14:31:14.000Z</time>
      </trkpt>
      <trkpt lat="47.2638" lon="6.55512">
        <ele>757.40002441406</ele>
        <time>2018-05-01T14:31:17.000Z</time>
      </trkpt>
      <trkpt lat="47.26381" lon="6.55523">
        <ele>756.20001220703</ele>
        <time>2018-05-01T14:31:19.000Z</time>
      </trkpt>
      <trkpt lat="47.26381" lon="6.55529">
        <ele>755.40002441406</ele>
        <time>2018-05-01T14:31:20.000Z</time>
      </trkpt>
      <trkpt lat="47.26384" lon="6.55548">
        <ele>753.79998779297</ele>
        <time>2018-05-01T14:31:23.000Z</time>
      </trkpt>
      <trkpt lat="47.26385" lon="6.55553">
        <ele>753.40002441406</ele>
        <time>2018-05-01T14:31:24.000Z</time>
      </trkpt>
      <trkpt lat="47.26388" lon="6.55576">
        <ele>751.79998779297</ele>
        <time>2018-05-01T14:31:29.000Z</time>
      </trkpt>
      <trkpt lat="47.26389" lon="6.55592">
        <ele>750.79998779297</ele>
        <time>2018-05-01T14:31:32.000Z</time>
      </trkpt>
      <trkpt lat="47.26389" lon="6.55606">
        <ele>749.79998779297</ele>
        <time>2018-05-01T14:31:34.000Z</time>
      </trkpt>
      <trkpt lat="47.26389" lon="6.55613">
        <ele>749.40002441406</ele>
        <time>2018-05-01T14:31:35.000Z</time>
      </trkpt>
      <trkpt lat="47.26388" lon="6.5562">
        <ele>748.59997558594</ele>
        <time>2018-05-01T14:31:36.000Z</time>
      </trkpt>
      <trkpt lat="47.26384" lon="6.55632">
        <ele>747.20001220703</ele>
        <time>2018-05-01T14:31:38.000Z</time>
      </trkpt>
      <trkpt lat="47.26377" lon="6.5564">
        <ele>745.79998779297</ele>
        <time>2018-05-01T14:31:40.000Z</time>
      </trkpt>
      <trkpt lat="47.26372" lon="6.55649">
        <ele>744.20001220703</ele>
        <time>2018-05-01T14:31:42.000Z</time>
      </trkpt>
      <trkpt lat="47.2637" lon="6.55654">
        <ele>743.59997558594</ele>
        <time>2018-05-01T14:31:43.000Z</time>
      </trkpt>
      <trkpt lat="47.26368" lon="6.5566">
        <ele>742.79998779297</ele>
        <time>2018-05-01T14:31:44.000Z</time>
      </trkpt>
      <trkpt lat="47.26362" lon="6.55669">
        <ele>741.20001220703</ele>
        <time>2018-05-01T14:31:46.000Z</time>
      </trkpt>
      <trkpt lat="47.26354" lon="6.55676">
        <ele>739.40002441406</ele>
        <time>2018-05-01T14:31:48.000Z</time>
      </trkpt>
      <trkpt lat="47.26351" lon="6.55679">
        <ele>739</ele>
        <time>2018-05-01T14:31:49.000Z</time>
      </trkpt>
      <trkpt lat="47.26348" lon="6.55681">
        <ele>738.59997558594</ele>
        <time>2018-05-01T14:31:50.000Z</time>
      </trkpt>
      <trkpt lat="47.26345" lon="6.55683">
        <ele>738.40002441406</ele>
        <time>2018-05-01T14:31:51.000Z</time>
      </trkpt>
      <trkpt lat="47.26343" lon="6.55686">
        <ele>738</ele>
        <time>2018-05-01T14:31:52.000Z</time>
      </trkpt>
      <trkpt lat="47.2634" lon="6.55693">
        <ele>737.59997558594</ele>
        <time>2018-05-01T14:31:54.000Z</time>
      </trkpt>
      <trkpt lat="47.26339" lon="6.55696">
        <ele>737.20001220703</ele>
        <time>2018-05-01T14:31:55.000Z</time>
      </trkpt>
      <trkpt lat="47.26329" lon="6.55703">
        <ele>736</ele>
        <time>2018-05-01T14:31:59.000Z</time>
      </trkpt>
      <trkpt lat="47.26325" lon="6.55705">
        <ele>735.59997558594</ele>
        <time>2018-05-01T14:32:00.000Z</time>
      </trkpt>
      <trkpt lat="47.26319" lon="6.55713">
        <ele>734.79998779297</ele>
        <time>2018-05-01T14:32:02.000Z</time>
      </trkpt>
      <trkpt lat="47.26317" lon="6.55717">
        <ele>734.40002441406</ele>
        <time>2018-05-01T14:32:03.000Z</time>
      </trkpt>
      <trkpt lat="47.26316" lon="6.55728">
        <ele>734.20001220703</ele>
        <time>2018-05-01T14:32:05.000Z</time>
      </trkpt>
      <trkpt lat="47.26314" lon="6.55742">
        <ele>734.20001220703</ele>
        <time>2018-05-01T14:32:08.000Z</time>
      </trkpt>
      <trkpt lat="47.26314" lon="6.55747">
        <ele>734.20001220703</ele>
        <time>2018-05-01T14:32:09.000Z</time>
      </trkpt>
      <trkpt lat="47.26319" lon="6.55755">
        <ele>734.59997558594</ele>
        <time>2018-05-01T14:32:11.000Z</time>
      </trkpt>
      <trkpt lat="47.26324" lon="6.55763">
        <ele>735</ele>
        <time>2018-05-01T14:32:13.000Z</time>
      </trkpt>
      <trkpt lat="47.26333" lon="6.55773">
        <ele>735.59997558594</ele>
        <time>2018-05-01T14:32:16.000Z</time>
      </trkpt>
      <trkpt lat="47.26342" lon="6.55782">
        <ele>736.20001220703</ele>
        <time>2018-05-01T14:32:19.000Z</time>
      </trkpt>
      <trkpt lat="47.26351" lon="6.55792">
        <ele>736.79998779297</ele>
        <time>2018-05-01T14:32:22.000Z</time>
      </trkpt>
      <trkpt lat="47.26355" lon="6.55795">
        <ele>737</ele>
        <time>2018-05-01T14:32:23.000Z</time>
      </trkpt>
      <trkpt lat="47.26371" lon="6.5581">
        <ele>738</ele>
        <time>2018-05-01T14:32:28.000Z</time>
      </trkpt>
      <trkpt lat="47.26381" lon="6.55819">
        <ele>738.40002441406</ele>
        <time>2018-05-01T14:32:31.000Z</time>
      </trkpt>
      <trkpt lat="47.26384" lon="6.55821">
        <ele>738.59997558594</ele>
        <time>2018-05-01T14:32:32.000Z</time>
      </trkpt>
      <trkpt lat="47.26399" lon="6.55833">
        <ele>739.59997558594</ele>
        <time>2018-05-01T14:32:37.000Z</time>
      </trkpt>
      <trkpt lat="47.2641" lon="6.5585">
        <ele>740.20001220703</ele>
        <time>2018-05-01T14:32:42.000Z</time>
      </trkpt>
      <trkpt lat="47.26412" lon="6.55853">
        <ele>740.40002441406</ele>
        <time>2018-05-01T14:32:43.000Z</time>
      </trkpt>
      <trkpt lat="47.26423" lon="6.55874">
        <ele>741</ele>
        <time>2018-05-01T14:32:49.000Z</time>
      </trkpt>
      <trkpt lat="47.26428" lon="6.55885">
        <ele>741.40002441406</ele>
        <time>2018-05-01T14:32:52.000Z</time>
      </trkpt>
      <trkpt lat="47.2643" lon="6.55889">
        <ele>741.40002441406</ele>
        <time>2018-05-01T14:32:53.000Z</time>
      </trkpt>
      <trkpt lat="47.2644" lon="6.55905">
        <ele>742</ele>
        <time>2018-05-01T14:32:58.000Z</time>
      </trkpt>
      <trkpt lat="47.26443" lon="6.55912">
        <ele>742.40002441406</ele>
        <time>2018-05-01T14:33:00.000Z</time>
      </trkpt>
      <trkpt lat="47.26447" lon="6.55918">
        <ele>742.59997558594</ele>
        <time>2018-05-01T14:33:02.000Z</time>
      </trkpt>
      <trkpt lat="47.26456" lon="6.55931">
        <ele>743.20001220703</ele>
        <time>2018-05-01T14:33:06.000Z</time>
      </trkpt>
      <trkpt lat="47.26458" lon="6.55934">
        <ele>743.40002441406</ele>
        <time>2018-05-01T14:33:07.000Z</time>
      </trkpt>
      <trkpt lat="47.26466" lon="6.55947">
        <ele>744</ele>
        <time>2018-05-01T14:33:11.000Z</time>
      </trkpt>
      <trkpt lat="47.26474" lon="6.55959">
        <ele>744.59997558594</ele>
        <time>2018-05-01T14:33:15.000Z</time>
      </trkpt>
      <trkpt lat="47.26476" lon="6.55961">
        <ele>744.79998779297</ele>
        <time>2018-05-01T14:33:16.000Z</time>
      </trkpt>
      <trkpt lat="47.26485" lon="6.55976">
        <ele>745.40002441406</ele>
        <time>2018-05-01T14:33:21.000Z</time>
      </trkpt>
      <trkpt lat="47.26491" lon="6.55985">
        <ele>745.79998779297</ele>
        <time>2018-05-01T14:33:24.000Z</time>
      </trkpt>
      <trkpt lat="47.26498" lon="6.55995">
        <ele>746.59997558594</ele>
        <time>2018-05-01T14:33:27.000Z</time>
      </trkpt>
      <trkpt lat="47.26508" lon="6.56011">
        <ele>748</ele>
        <time>2018-05-01T14:33:32.000Z</time>
      </trkpt>
      <trkpt lat="47.26509" lon="6.56015">
        <ele>748.20001220703</ele>
        <time>2018-05-01T14:33:33.000Z</time>
      </trkpt>
      <trkpt lat="47.26513" lon="6.56022">
        <ele>748.79998779297</ele>
        <time>2018-05-01T14:33:35.000Z</time>
      </trkpt>
      <trkpt lat="47.2652" lon="6.56035">
        <ele>750</ele>
        <time>2018-05-01T14:33:39.000Z</time>
      </trkpt>
      <trkpt lat="47.26526" lon="6.56045">
        <ele>750.59997558594</ele>
        <time>2018-05-01T14:33:42.000Z</time>
      </trkpt>
      <trkpt lat="47.26532" lon="6.56054">
        <ele>751.40002441406</ele>
        <time>2018-05-01T14:33:45.000Z</time>
      </trkpt>
      <trkpt lat="47.26533" lon="6.56058">
        <ele>751.79998779297</ele>
        <time>2018-05-01T14:33:46.000Z</time>
      </trkpt>
      <trkpt lat="47.26541" lon="6.56072">
        <ele>752.79998779297</ele>
        <time>2018-05-01T14:33:50.000Z</time>
      </trkpt>
      <trkpt lat="47.26546" lon="6.56082">
        <ele>753.59997558594</ele>
        <time>2018-05-01T14:33:53.000Z</time>
      </trkpt>
      <trkpt lat="47.2655" lon="6.56089">
        <ele>754.20001220703</ele>
        <time>2018-05-01T14:33:55.000Z</time>
      </trkpt>
      <trkpt lat="47.26561" lon="6.5611">
        <ele>755.79998779297</ele>
        <time>2018-05-01T14:34:01.000Z</time>
      </trkpt>
      <trkpt lat="47.26563" lon="6.56117">
        <ele>756.40002441406</ele>
        <time>2018-05-01T14:34:03.000Z</time>
      </trkpt>
      <trkpt lat="47.26574" lon="6.56138">
        <ele>758</ele>
        <time>2018-05-01T14:34:09.000Z</time>
      </trkpt>
      <trkpt lat="47.26576" lon="6.56141">
        <ele>758.40002441406</ele>
        <time>2018-05-01T14:34:10.000Z</time>
      </trkpt>
      <trkpt lat="47.26583" lon="6.56155">
        <ele>759.20001220703</ele>
        <time>2018-05-01T14:34:14.000Z</time>
      </trkpt>
      <trkpt lat="47.2659" lon="6.56169">
        <ele>759.79998779297</ele>
        <time>2018-05-01T14:34:18.000Z</time>
      </trkpt>
      <trkpt lat="47.26592" lon="6.56173">
        <ele>760</ele>
        <time>2018-05-01T14:34:19.000Z</time>
      </trkpt>
      <trkpt lat="47.26603" lon="6.56193">
        <ele>760.79998779297</ele>
        <time>2018-05-01T14:34:25.000Z</time>
      </trkpt>
      <trkpt lat="47.26607" lon="6.562">
        <ele>761.20001220703</ele>
        <time>2018-05-01T14:34:27.000Z</time>
      </trkpt>
      <trkpt lat="47.26614" lon="6.5621">
        <ele>761.59997558594</ele>
        <time>2018-05-01T14:34:30.000Z</time>
      </trkpt>
      <trkpt lat="47.26624" lon="6.56224">
        <ele>762.40002441406</ele>
        <time>2018-05-01T14:34:34.000Z</time>
      </trkpt>
      <trkpt lat="47.26633" lon="6.56236">
        <ele>763</ele>
        <time>2018-05-01T14:34:38.000Z</time>
      </trkpt>
      <trkpt lat="47.26641" lon="6.56246">
        <ele>763.40002441406</ele>
        <time>2018-05-01T14:34:41.000Z</time>
      </trkpt>
      <trkpt lat="47.26657" lon="6.56265">
        <ele>764.20001220703</ele>
        <time>2018-05-01T14:34:47.000Z</time>
      </trkpt>
      <trkpt lat="47.2668" lon="6.56287">
        <ele>764.59997558594</ele>
        <time>2018-05-01T14:34:55.000Z</time>
      </trkpt>
      <trkpt lat="47.26708" lon="6.56317">
        <ele>765</ele>
        <time>2018-05-01T14:35:04.000Z</time>
      </trkpt>
      <trkpt lat="47.26726" lon="6.56341">
        <ele>765.20001220703</ele>
        <time>2018-05-01T14:35:10.000Z</time>
      </trkpt>
      <trkpt lat="47.26746" lon="6.56379">
        <ele>765.79998779297</ele>
        <time>2018-05-01T14:35:18.000Z</time>
      </trkpt>
      <trkpt lat="47.26761" lon="6.5641">
        <ele>765.59997558594</ele>
        <time>2018-05-01T14:35:24.000Z</time>
      </trkpt>
      <trkpt lat="47.26768" lon="6.56425">
        <ele>765.20001220703</ele>
        <time>2018-05-01T14:35:27.000Z</time>
      </trkpt>
      <trkpt lat="47.2679" lon="6.56467">
        <ele>764.20001220703</ele>
        <time>2018-05-01T14:35:35.000Z</time>
      </trkpt>
      <trkpt lat="47.26821" lon="6.56515">
        <ele>762.79998779297</ele>
        <time>2018-05-01T14:35:44.000Z</time>
      </trkpt>
      <trkpt lat="47.26828" lon="6.56526">
        <ele>762.59997558594</ele>
        <time>2018-05-01T14:35:46.000Z</time>
      </trkpt>
      <trkpt lat="47.26844" lon="6.56548">
        <ele>762.20001220703</ele>
        <time>2018-05-01T14:35:50.000Z</time>
      </trkpt>
      <trkpt lat="47.2686" lon="6.56571">
        <ele>761.79998779297</ele>
        <time>2018-05-01T14:35:54.000Z</time>
      </trkpt>
      <trkpt lat="47.26868" lon="6.56583">
        <ele>761</ele>
        <time>2018-05-01T14:35:56.000Z</time>
      </trkpt>
      <trkpt lat="47.26882" lon="6.56603">
        <ele>760</ele>
        <time>2018-05-01T14:35:59.000Z</time>
      </trkpt>
      <trkpt lat="47.26899" lon="6.56628">
        <ele>758.40002441406</ele>
        <time>2018-05-01T14:36:03.000Z</time>
      </trkpt>
      <trkpt lat="47.26907" lon="6.56652">
        <ele>757.20001220703</ele>
        <time>2018-05-01T14:36:06.000Z</time>
      </trkpt>
      <trkpt lat="47.26917" lon="6.56668">
        <ele>756.79998779297</ele>
        <time>2018-05-01T14:36:08.000Z</time>
      </trkpt>
      <trkpt lat="47.26925" lon="6.56685">
        <ele>756.59997558594</ele>
        <time>2018-05-01T14:36:10.000Z</time>
      </trkpt>
      <trkpt lat="47.26932" lon="6.56703">
        <ele>756.40002441406</ele>
        <time>2018-05-01T14:36:12.000Z</time>
      </trkpt>
      <trkpt lat="47.2694" lon="6.56721">
        <ele>756.20001220703</ele>
        <time>2018-05-01T14:36:14.000Z</time>
      </trkpt>
      <trkpt lat="47.26948" lon="6.5674">
        <ele>755.59997558594</ele>
        <time>2018-05-01T14:36:16.000Z</time>
      </trkpt>
      <trkpt lat="47.2696" lon="6.5677">
        <ele>753.40002441406</ele>
        <time>2018-05-01T14:36:19.000Z</time>
      </trkpt>
      <trkpt lat="47.26968" lon="6.56791">
        <ele>752</ele>
        <time>2018-05-01T14:36:21.000Z</time>
      </trkpt>
      <trkpt lat="47.26976" lon="6.56814">
        <ele>750.79998779297</ele>
        <time>2018-05-01T14:36:23.000Z</time>
      </trkpt>
      <trkpt lat="47.26985" lon="6.56837">
        <ele>748.79998779297</ele>
        <time>2018-05-01T14:36:25.000Z</time>
      </trkpt>
      <trkpt lat="47.26993" lon="6.56861">
        <ele>746.40002441406</ele>
        <time>2018-05-01T14:36:27.000Z</time>
      </trkpt>
      <trkpt lat="47.27002" lon="6.56885">
        <ele>744.79998779297</ele>
        <time>2018-05-01T14:36:29.000Z</time>
      </trkpt>
      <trkpt lat="47.27006" lon="6.56898">
        <ele>744.20001220703</ele>
        <time>2018-05-01T14:36:30.000Z</time>
      </trkpt>
      <trkpt lat="47.2701" lon="6.56911">
        <ele>742.79998779297</ele>
        <time>2018-05-01T14:36:31.000Z</time>
      </trkpt>
      <trkpt lat="47.27019" lon="6.56936">
        <ele>740.40002441406</ele>
        <time>2018-05-01T14:36:33.000Z</time>
      </trkpt>
      <trkpt lat="47.27029" lon="6.56961">
        <ele>738.40002441406</ele>
        <time>2018-05-01T14:36:35.000Z</time>
      </trkpt>
      <trkpt lat="47.27039" lon="6.56985">
        <ele>736.40002441406</ele>
        <time>2018-05-01T14:36:37.000Z</time>
      </trkpt>
      <trkpt lat="47.27049" lon="6.57007">
        <ele>734.79998779297</ele>
        <time>2018-05-01T14:36:39.000Z</time>
      </trkpt>
      <trkpt lat="47.27059" lon="6.57027">
        <ele>733.20001220703</ele>
        <time>2018-05-01T14:36:41.000Z</time>
      </trkpt>
      <trkpt lat="47.27065" lon="6.57037">
        <ele>732.40002441406</ele>
        <time>2018-05-01T14:36:42.000Z</time>
      </trkpt>
      <trkpt lat="47.27071" lon="6.57046">
        <ele>731.79998779297</ele>
        <time>2018-05-01T14:36:43.000Z</time>
      </trkpt>
      <trkpt lat="47.27084" lon="6.57061">
        <ele>731</ele>
        <time>2018-05-01T14:36:45.000Z</time>
      </trkpt>
      <trkpt lat="47.27092" lon="6.57068">
        <ele>731</ele>
        <time>2018-05-01T14:36:46.000Z</time>
      </trkpt>
      <trkpt lat="47.27099" lon="6.57076">
        <ele>730.40002441406</ele>
        <time>2018-05-01T14:36:47.000Z</time>
      </trkpt>
      <trkpt lat="47.2711" lon="6.57091">
        <ele>729.20001220703</ele>
        <time>2018-05-01T14:36:49.000Z</time>
      </trkpt>
      <trkpt lat="47.27116" lon="6.57098">
        <ele>728.59997558594</ele>
        <time>2018-05-01T14:36:51.000Z</time>
      </trkpt>
      <trkpt lat="47.27117" lon="6.57101">
        <ele>728.40002441406</ele>
        <time>2018-05-01T14:36:52.000Z</time>
      </trkpt>
      <trkpt lat="47.27118" lon="6.57104">
        <ele>728</ele>
        <time>2018-05-01T14:36:53.000Z</time>
      </trkpt>
      <trkpt lat="47.27123" lon="6.57113">
        <ele>727.20001220703</ele>
        <time>2018-05-01T14:36:55.000Z</time>
      </trkpt>
      <trkpt lat="47.27126" lon="6.57119">
        <ele>726.79998779297</ele>
        <time>2018-05-01T14:36:56.000Z</time>
      </trkpt>
      <trkpt lat="47.27129" lon="6.57126">
        <ele>726.40002441406</ele>
        <time>2018-05-01T14:36:57.000Z</time>
      </trkpt>
      <trkpt lat="47.27136" lon="6.57141">
        <ele>725.40002441406</ele>
        <time>2018-05-01T14:36:59.000Z</time>
      </trkpt>
      <trkpt lat="47.27143" lon="6.57157">
        <ele>724.40002441406</ele>
        <time>2018-05-01T14:37:01.000Z</time>
      </trkpt>
      <trkpt lat="47.27147" lon="6.57165">
        <ele>723.79998779297</ele>
        <time>2018-05-01T14:37:02.000Z</time>
      </trkpt>
      <trkpt lat="47.27151" lon="6.57174">
        <ele>723.20001220703</ele>
        <time>2018-05-01T14:37:03.000Z</time>
      </trkpt>
      <trkpt lat="47.27157" lon="6.57191">
        <ele>722</ele>
        <time>2018-05-01T14:37:05.000Z</time>
      </trkpt>
      <trkpt lat="47.27165" lon="6.57208">
        <ele>720.79998779297</ele>
        <time>2018-05-01T14:37:07.000Z</time>
      </trkpt>
      <trkpt lat="47.27175" lon="6.57227">
        <ele>719.20001220703</ele>
        <time>2018-05-01T14:37:09.000Z</time>
      </trkpt>
      <trkpt lat="47.27184" lon="6.57246">
        <ele>717.59997558594</ele>
        <time>2018-05-01T14:37:11.000Z</time>
      </trkpt>
      <trkpt lat="47.27193" lon="6.57266">
        <ele>716</ele>
        <time>2018-05-01T14:37:13.000Z</time>
      </trkpt>
      <trkpt lat="47.27202" lon="6.57285">
        <ele>714.79998779297</ele>
        <time>2018-05-01T14:37:15.000Z</time>
      </trkpt>
      <trkpt lat="47.27211" lon="6.57304">
        <ele>713.40002441406</ele>
        <time>2018-05-01T14:37:17.000Z</time>
      </trkpt>
      <trkpt lat="47.27219" lon="6.57322">
        <ele>712.20001220703</ele>
        <time>2018-05-01T14:37:19.000Z</time>
      </trkpt>
      <trkpt lat="47.27228" lon="6.5734">
        <ele>711.40002441406</ele>
        <time>2018-05-01T14:37:21.000Z</time>
      </trkpt>
      <trkpt lat="47.27236" lon="6.57355">
        <ele>710.59997558594</ele>
        <time>2018-05-01T14:37:23.000Z</time>
      </trkpt>
      <trkpt lat="47.2724" lon="6.57362">
        <ele>710.20001220703</ele>
        <time>2018-05-01T14:37:24.000Z</time>
      </trkpt>
      <trkpt lat="47.27245" lon="6.5737">
        <ele>709.79998779297</ele>
        <time>2018-05-01T14:37:25.000Z</time>
      </trkpt>
      <trkpt lat="47.27254" lon="6.57383">
        <ele>709.79998779297</ele>
        <time>2018-05-01T14:37:27.000Z</time>
      </trkpt>
      <trkpt lat="47.27265" lon="6.57396">
        <ele>710</ele>
        <time>2018-05-01T14:37:29.000Z</time>
      </trkpt>
      <trkpt lat="47.27271" lon="6.57401">
        <ele>710.20001220703</ele>
        <time>2018-05-01T14:37:30.000Z</time>
      </trkpt>
      <trkpt lat="47.27302" lon="6.5743">
        <ele>709.20001220703</ele>
        <time>2018-05-01T14:37:36.000Z</time>
      </trkpt>
      <trkpt lat="47.27335" lon="6.57458">
        <ele>708</ele>
        <time>2018-05-01T14:37:43.000Z</time>
      </trkpt>
      <trkpt lat="47.27343" lon="6.57465">
        <ele>707.20001220703</ele>
        <time>2018-05-01T14:37:45.000Z</time>
      </trkpt>
      <trkpt lat="47.27347" lon="6.57469">
        <ele>706.59997558594</ele>
        <time>2018-05-01T14:37:46.000Z</time>
      </trkpt>
      <trkpt lat="47.27357" lon="6.5748">
        <ele>705.40002441406</ele>
        <time>2018-05-01T14:37:49.000Z</time>
      </trkpt>
      <trkpt lat="47.27378" lon="6.57501">
        <ele>703.79998779297</ele>
        <time>2018-05-01T14:37:54.000Z</time>
      </trkpt>
      <trkpt lat="47.27399" lon="6.57518">
        <ele>702.59997558594</ele>
        <time>2018-05-01T14:37:58.000Z</time>
      </trkpt>
      <trkpt lat="47.27409" lon="6.5752">
        <ele>702.20001220703</ele>
        <time>2018-05-01T14:38:00.000Z</time>
      </trkpt>
      <trkpt lat="47.27414" lon="6.57519">
        <ele>702</ele>
        <time>2018-05-01T14:38:01.000Z</time>
      </trkpt>
      <trkpt lat="47.27422" lon="6.57509">
        <ele>701.40002441406</ele>
        <time>2018-05-01T14:38:03.000Z</time>
      </trkpt>
      <trkpt lat="47.27425" lon="6.57503">
        <ele>701.20001220703</ele>
        <time>2018-05-01T14:38:04.000Z</time>
      </trkpt>
      <trkpt lat="47.27431" lon="6.57485">
        <ele>701.59997558594</ele>
        <time>2018-05-01T14:38:06.000Z</time>
      </trkpt>
      <trkpt lat="47.27434" lon="6.57479">
        <ele>701.59997558594</ele>
        <time>2018-05-01T14:38:07.000Z</time>
      </trkpt>
      <trkpt lat="47.27437" lon="6.57473">
        <ele>701.40002441406</ele>
        <time>2018-05-01T14:38:08.000Z</time>
      </trkpt>
      <trkpt lat="47.2744" lon="6.57467">
        <ele>701.20001220703</ele>
        <time>2018-05-01T14:38:09.000Z</time>
      </trkpt>
      <trkpt lat="47.27445" lon="6.57463">
        <ele>701</ele>
        <time>2018-05-01T14:38:10.000Z</time>
      </trkpt>
      <trkpt lat="47.2745" lon="6.57463">
        <ele>700.59997558594</ele>
        <time>2018-05-01T14:38:11.000Z</time>
      </trkpt>
      <trkpt lat="47.2746" lon="6.57468">
        <ele>699.79998779297</ele>
        <time>2018-05-01T14:38:13.000Z</time>
      </trkpt>
      <trkpt lat="47.27468" lon="6.57479">
        <ele>699</ele>
        <time>2018-05-01T14:38:15.000Z</time>
      </trkpt>
      <trkpt lat="47.2748" lon="6.57497">
        <ele>697.40002441406</ele>
        <time>2018-05-01T14:38:18.000Z</time>
      </trkpt>
      <trkpt lat="47.27484" lon="6.57502">
        <ele>696.79998779297</ele>
        <time>2018-05-01T14:38:19.000Z</time>
      </trkpt>
      <trkpt lat="47.27499" lon="6.57519">
        <ele>695.59997558594</ele>
        <time>2018-05-01T14:38:23.000Z</time>
      </trkpt>
      <trkpt lat="47.27504" lon="6.57524">
        <ele>696.20001220703</ele>
        <time>2018-05-01T14:38:26.000Z</time>
      </trkpt>
      <trkpt lat="47.27505" lon="6.57526">
        <ele>696.40002441406</ele>
        <time>2018-05-01T14:38:30.000Z</time>
      </trkpt>
      <trkpt lat="47.27505" lon="6.57526">
        <ele>696.40002441406</ele>
        <time>2018-05-01T14:38:31.000Z</time>
      </trkpt>
      <trkpt lat="47.27504" lon="6.57526">
        <ele>696.20001220703</ele>
        <time>2018-05-01T14:38:36.000Z</time>
      </trkpt>
      <trkpt lat="47.27504" lon="6.57526">
        <ele>696.20001220703</ele>
        <time>2018-05-01T14:38:47.000Z</time>
      </trkpt>
      <trkpt lat="47.27505" lon="6.57526">
        <ele>696.40002441406</ele>
        <time>2018-05-01T14:39:03.000Z</time>
      </trkpt>
      <trkpt lat="47.27505" lon="6.57526">
        <ele>696.40002441406</ele>
        <time>2018-05-01T14:39:04.000Z</time>
      </trkpt>
      <trkpt lat="47.2751" lon="6.57531">
        <ele>697.20001220703</ele>
        <time>2018-05-01T14:39:07.000Z</time>
      </trkpt>
      <trkpt lat="47.27512" lon="6.57533">
        <ele>697.40002441406</ele>
        <time>2018-05-01T14:39:08.000Z</time>
      </trkpt>
      <trkpt lat="47.27516" lon="6.57537">
        <ele>698.20001220703</ele>
        <time>2018-05-01T14:39:10.000Z</time>
      </trkpt>
      <trkpt lat="47.27523" lon="6.57544">
        <ele>699.20001220703</ele>
        <time>2018-05-01T14:39:13.000Z</time>
      </trkpt>
      <trkpt lat="47.27536" lon="6.57556">
        <ele>701.20001220703</ele>
        <time>2018-05-01T14:39:18.000Z</time>
      </trkpt>
      <trkpt lat="47.27547" lon="6.5757">
        <ele>702.79998779297</ele>
        <time>2018-05-01T14:39:24.000Z</time>
      </trkpt>
      <trkpt lat="47.27553" lon="6.57583">
        <ele>703.20001220703</ele>
        <time>2018-05-01T14:39:29.000Z</time>
      </trkpt>
      <trkpt lat="47.27555" lon="6.57591">
        <ele>703.40002441406</ele>
        <time>2018-05-01T14:39:33.000Z</time>
      </trkpt>
      <trkpt lat="47.27556" lon="6.57594">
        <ele>703.40002441406</ele>
        <time>2018-05-01T14:39:34.000Z</time>
      </trkpt>
      <trkpt lat="47.27559" lon="6.57603">
        <ele>703.59997558594</ele>
        <time>2018-05-01T14:39:37.000Z</time>
      </trkpt>
      <trkpt lat="47.27561" lon="6.57608">
        <ele>703.40002441406</ele>
        <time>2018-05-01T14:39:39.000Z</time>
      </trkpt>
      <trkpt lat="47.27561" lon="6.57611">
        <ele>703.59997558594</ele>
        <time>2018-05-01T14:39:40.000Z</time>
      </trkpt>
      <trkpt lat="47.27564" lon="6.57619">
        <ele>703.59997558594</ele>
        <time>2018-05-01T14:39:43.000Z</time>
      </trkpt>
      <trkpt lat="47.27566" lon="6.57628">
        <ele>703.59997558594</ele>
        <time>2018-05-01T14:39:46.000Z</time>
      </trkpt>
      <trkpt lat="47.27567" lon="6.57631">
        <ele>703.40002441406</ele>
        <time>2018-05-01T14:39:47.000Z</time>
      </trkpt>
      <trkpt lat="47.27569" lon="6.57638">
        <ele>703.40002441406</ele>
        <time>2018-05-01T14:39:49.000Z</time>
      </trkpt>
      <trkpt lat="47.27572" lon="6.57647">
        <ele>703.40002441406</ele>
        <time>2018-05-01T14:39:52.000Z</time>
      </trkpt>
      <trkpt lat="47.27574" lon="6.57654">
        <ele>703.59997558594</ele>
        <time>2018-05-01T14:39:54.000Z</time>
      </trkpt>
      <trkpt lat="47.27579" lon="6.57659">
        <ele>704.20001220703</ele>
        <time>2018-05-01T14:39:56.000Z</time>
      </trkpt>
      <trkpt lat="47.27582" lon="6.57667">
        <ele>704.40002441406</ele>
        <time>2018-05-01T14:40:00.000Z</time>
      </trkpt>
      <trkpt lat="47.27585" lon="6.57671">
        <ele>704.79998779297</ele>
        <time>2018-05-01T14:40:03.000Z</time>
      </trkpt>
      <trkpt lat="47.27588" lon="6.57675">
        <ele>705</ele>
        <time>2018-05-01T14:40:06.000Z</time>
      </trkpt>
      <trkpt lat="47.2759" lon="6.57679">
        <ele>705</ele>
        <time>2018-05-01T14:40:08.000Z</time>
      </trkpt>
      <trkpt lat="47.27592" lon="6.57682">
        <ele>705</ele>
        <time>2018-05-01T14:40:10.000Z</time>
      </trkpt>
      <trkpt lat="47.27594" lon="6.57688">
        <ele>705</ele>
        <time>2018-05-01T14:40:13.000Z</time>
      </trkpt>
      <trkpt lat="47.27596" lon="6.57692">
        <ele>705.20001220703</ele>
        <time>2018-05-01T14:40:15.000Z</time>
      </trkpt>
      <trkpt lat="47.27602" lon="6.577">
        <ele>705.59997558594</ele>
        <time>2018-05-01T14:40:18.000Z</time>
      </trkpt>
      <trkpt lat="47.27607" lon="6.57704">
        <ele>706</ele>
        <time>2018-05-01T14:40:20.000Z</time>
      </trkpt>
      <trkpt lat="47.27618" lon="6.57712">
        <ele>707.20001220703</ele>
        <time>2018-05-01T14:40:24.000Z</time>
      </trkpt>
      <trkpt lat="47.27624" lon="6.57714">
        <ele>708.20001220703</ele>
        <time>2018-05-01T14:40:27.000Z</time>
      </trkpt>
      <trkpt lat="47.2763" lon="6.57714">
        <ele>709</ele>
        <time>2018-05-01T14:40:29.000Z</time>
      </trkpt>
      <trkpt lat="47.27642" lon="6.57711">
        <ele>711</ele>
        <time>2018-05-01T14:40:34.000Z</time>
      </trkpt>
      <trkpt lat="47.27647" lon="6.57705">
        <ele>711.40002441406</ele>
        <time>2018-05-01T14:40:36.000Z</time>
      </trkpt>
      <trkpt lat="47.27653" lon="6.57701">
        <ele>711.79998779297</ele>
        <time>2018-05-01T14:40:39.000Z</time>
      </trkpt>
      <trkpt lat="47.27656" lon="6.57697">
        <ele>712</ele>
        <time>2018-05-01T14:40:41.000Z</time>
      </trkpt>
      <trkpt lat="47.2766" lon="6.57696">
        <ele>712.20001220703</ele>
        <time>2018-05-01T14:40:43.000Z</time>
      </trkpt>
      <trkpt lat="47.27663" lon="6.57695">
        <ele>712.40002441406</ele>
        <time>2018-05-01T14:40:44.000Z</time>
      </trkpt>
      <trkpt lat="47.27666" lon="6.57695">
        <ele>712</ele>
        <time>2018-05-01T14:40:45.000Z</time>
      </trkpt>
      <trkpt lat="47.27674" lon="6.57693">
        <ele>710.20001220703</ele>
        <time>2018-05-01T14:40:48.000Z</time>
      </trkpt>
      <trkpt lat="47.2768" lon="6.57693">
        <ele>709</ele>
        <time>2018-05-01T14:40:50.000Z</time>
      </trkpt>
      <trkpt lat="47.27688" lon="6.57695">
        <ele>707.40002441406</ele>
        <time>2018-05-01T14:40:53.000Z</time>
      </trkpt>
      <trkpt lat="47.2769" lon="6.57695">
        <ele>707</ele>
        <time>2018-05-01T14:40:54.000Z</time>
      </trkpt>
      <trkpt lat="47.27692" lon="6.57694">
        <ele>706.59997558594</ele>
        <time>2018-05-01T14:40:55.000Z</time>
      </trkpt>
      <trkpt lat="47.27697" lon="6.5769">
        <ele>705.40002441406</ele>
        <time>2018-05-01T14:40:58.000Z</time>
      </trkpt>
      <trkpt lat="47.27698" lon="6.57689">
        <ele>705.40002441406</ele>
        <time>2018-05-01T14:40:59.000Z</time>
      </trkpt>
      <trkpt lat="47.27698" lon="6.57687">
        <ele>705.20001220703</ele>
        <time>2018-05-01T14:41:03.000Z</time>
      </trkpt>
      <trkpt lat="47.277" lon="6.57688">
        <ele>705</ele>
        <time>2018-05-01T14:41:08.000Z</time>
      </trkpt>
      <trkpt lat="47.27704" lon="6.57694">
        <ele>704.20001220703</ele>
        <time>2018-05-01T14:41:14.000Z</time>
      </trkpt>
      <trkpt lat="47.27704" lon="6.57695">
        <ele>704.20001220703</ele>
        <time>2018-05-01T14:41:15.000Z</time>
      </trkpt>
      <trkpt lat="47.27709" lon="6.57699">
        <ele>703.20001220703</ele>
        <time>2018-05-01T14:41:18.000Z</time>
      </trkpt>
      <trkpt lat="47.27717" lon="6.577">
        <ele>702</ele>
        <time>2018-05-01T14:41:22.000Z</time>
      </trkpt>
      <trkpt lat="47.27722" lon="6.57702">
        <ele>701.20001220703</ele>
        <time>2018-05-01T14:41:24.000Z</time>
      </trkpt>
      <trkpt lat="47.27725" lon="6.57701">
        <ele>700.79998779297</ele>
        <time>2018-05-01T14:41:26.000Z</time>
      </trkpt>
      <trkpt lat="47.27727" lon="6.57701">
        <ele>700.59997558594</ele>
        <time>2018-05-01T14:41:27.000Z</time>
      </trkpt>
      <trkpt lat="47.27731" lon="6.577">
        <ele>700</ele>
        <time>2018-05-01T14:41:29.000Z</time>
      </trkpt>
      <trkpt lat="47.27737" lon="6.57695">
        <ele>699.59997558594</ele>
        <time>2018-05-01T14:41:32.000Z</time>
      </trkpt>
      <trkpt lat="47.27742" lon="6.57694">
        <ele>699</ele>
        <time>2018-05-01T14:41:34.000Z</time>
      </trkpt>
      <trkpt lat="47.27747" lon="6.57691">
        <ele>698.40002441406</ele>
        <time>2018-05-01T14:41:36.000Z</time>
      </trkpt>
      <trkpt lat="47.27755" lon="6.57687">
        <ele>697</ele>
        <time>2018-05-01T14:41:39.000Z</time>
      </trkpt>
      <trkpt lat="47.27758" lon="6.57685">
        <ele>696.59997558594</ele>
        <time>2018-05-01T14:41:40.000Z</time>
      </trkpt>
      <trkpt lat="47.27763" lon="6.57682">
        <ele>695.79998779297</ele>
        <time>2018-05-01T14:41:42.000Z</time>
      </trkpt>
      <trkpt lat="47.27765" lon="6.57681">
        <ele>695.40002441406</ele>
        <time>2018-05-01T14:41:43.000Z</time>
      </trkpt>
      <trkpt lat="47.27768" lon="6.57679">
        <ele>695</ele>
        <time>2018-05-01T14:41:44.000Z</time>
      </trkpt>
      <trkpt lat="47.2777" lon="6.57679">
        <ele>694.59997558594</ele>
        <time>2018-05-01T14:41:45.000Z</time>
      </trkpt>
      <trkpt lat="47.27774" lon="6.57675">
        <ele>694</ele>
        <time>2018-05-01T14:41:47.000Z</time>
      </trkpt>
      <trkpt lat="47.27776" lon="6.57674">
        <ele>693.79998779297</ele>
        <time>2018-05-01T14:41:48.000Z</time>
      </trkpt>
      <trkpt lat="47.27777" lon="6.57672">
        <ele>693.59997558594</ele>
        <time>2018-05-01T14:41:50.000Z</time>
      </trkpt>
      <trkpt lat="47.27779" lon="6.5767">
        <ele>693.59997558594</ele>
        <time>2018-05-01T14:41:54.000Z</time>
      </trkpt>
      <trkpt lat="47.27783" lon="6.5767">
        <ele>692.79998779297</ele>
        <time>2018-05-01T14:41:57.000Z</time>
      </trkpt>
      <trkpt lat="47.27784" lon="6.5767">
        <ele>692.79998779297</ele>
        <time>2018-05-01T14:42:00.000Z</time>
      </trkpt>
      <trkpt lat="47.27785" lon="6.5767">
        <ele>692.59997558594</ele>
        <time>2018-05-01T14:42:08.000Z</time>
      </trkpt>
      <trkpt lat="47.27786" lon="6.57669">
        <ele>692.40002441406</ele>
        <time>2018-05-01T14:42:10.000Z</time>
      </trkpt>
      <trkpt lat="47.27786" lon="6.57669">
        <ele>692.40002441406</ele>
        <time>2018-05-01T14:42:11.000Z</time>
      </trkpt>
      <trkpt lat="47.2779" lon="6.57666">
        <ele>691.79998779297</ele>
        <time>2018-05-01T14:42:13.000Z</time>
      </trkpt>
      <trkpt lat="47.27793" lon="6.57665">
        <ele>691.59997558594</ele>
        <time>2018-05-01T14:42:14.000Z</time>
      </trkpt>
      <trkpt lat="47.27803" lon="6.57657">
        <ele>690.40002441406</ele>
        <time>2018-05-01T14:42:18.000Z</time>
      </trkpt>
      <trkpt lat="47.27805" lon="6.57656">
        <ele>690</ele>
        <time>2018-05-01T14:42:19.000Z</time>
      </trkpt>
      <trkpt lat="47.27819" lon="6.57652">
        <ele>687.79998779297</ele>
        <time>2018-05-01T14:42:23.000Z</time>
      </trkpt>
      <trkpt lat="47.27824" lon="6.5765">
        <ele>687</ele>
        <time>2018-05-01T14:42:25.000Z</time>
      </trkpt>
      <trkpt lat="47.27827" lon="6.57649">
        <ele>686.20001220703</ele>
        <time>2018-05-01T14:42:26.000Z</time>
      </trkpt>
      <trkpt lat="47.2783" lon="6.57649">
        <ele>685.59997558594</ele>
        <time>2018-05-01T14:42:27.000Z</time>
      </trkpt>
      <trkpt lat="47.27837" lon="6.57646">
        <ele>684</ele>
        <time>2018-05-01T14:42:29.000Z</time>
      </trkpt>
      <trkpt lat="47.27841" lon="6.57645">
        <ele>683</ele>
        <time>2018-05-01T14:42:30.000Z</time>
      </trkpt>
      <trkpt lat="47.27845" lon="6.57644">
        <ele>682</ele>
        <time>2018-05-01T14:42:31.000Z</time>
      </trkpt>
      <trkpt lat="47.27852" lon="6.57643">
        <ele>680.40002441406</ele>
        <time>2018-05-01T14:42:33.000Z</time>
      </trkpt>
      <trkpt lat="47.27855" lon="6.57644">
        <ele>679.79998779297</ele>
        <time>2018-05-01T14:42:34.000Z</time>
      </trkpt>
      <trkpt lat="47.27858" lon="6.57645">
        <ele>679.20001220703</ele>
        <time>2018-05-01T14:42:35.000Z</time>
      </trkpt>
      <trkpt lat="47.27867" lon="6.5765">
        <ele>677.79998779297</ele>
        <time>2018-05-01T14:42:37.000Z</time>
      </trkpt>
      <trkpt lat="47.27871" lon="6.57652">
        <ele>677</ele>
        <time>2018-05-01T14:42:38.000Z</time>
      </trkpt>
      <trkpt lat="47.27875" lon="6.57655">
        <ele>676</ele>
        <time>2018-05-01T14:42:39.000Z</time>
      </trkpt>
      <trkpt lat="47.2788" lon="6.57658">
        <ele>675</ele>
        <time>2018-05-01T14:42:40.000Z</time>
      </trkpt>
      <trkpt lat="47.27884" lon="6.57661">
        <ele>674</ele>
        <time>2018-05-01T14:42:41.000Z</time>
      </trkpt>
      <trkpt lat="47.27887" lon="6.57664">
        <ele>673.20001220703</ele>
        <time>2018-05-01T14:42:42.000Z</time>
      </trkpt>
      <trkpt lat="47.27891" lon="6.57666">
        <ele>672.20001220703</ele>
        <time>2018-05-01T14:42:43.000Z</time>
      </trkpt>
      <trkpt lat="47.27895" lon="6.57668">
        <ele>671.40002441406</ele>
        <time>2018-05-01T14:42:44.000Z</time>
      </trkpt>
      <trkpt lat="47.27898" lon="6.57669">
        <ele>670.59997558594</ele>
        <time>2018-05-01T14:42:45.000Z</time>
      </trkpt>
      <trkpt lat="47.27901" lon="6.57669">
        <ele>670</ele>
        <time>2018-05-01T14:42:46.000Z</time>
      </trkpt>
      <trkpt lat="47.27903" lon="6.57669">
        <ele>669.40002441406</ele>
        <time>2018-05-01T14:42:47.000Z</time>
      </trkpt>
      <trkpt lat="47.27904" lon="6.5767">
        <ele>669.20001220703</ele>
        <time>2018-05-01T14:42:48.000Z</time>
      </trkpt>
      <trkpt lat="47.27906" lon="6.57671">
        <ele>668.79998779297</ele>
        <time>2018-05-01T14:42:50.000Z</time>
      </trkpt>
      <trkpt lat="47.27907" lon="6.57672">
        <ele>668.40002441406</ele>
        <time>2018-05-01T14:42:52.000Z</time>
      </trkpt>
      <trkpt lat="47.27908" lon="6.57673">
        <ele>668.20001220703</ele>
        <time>2018-05-01T14:42:56.000Z</time>
      </trkpt>
      <trkpt lat="47.2791" lon="6.57672">
        <ele>668</ele>
        <time>2018-05-01T14:43:05.000Z</time>
      </trkpt>
      <trkpt lat="47.2791" lon="6.57672">
        <ele>668</ele>
        <time>2018-05-01T14:43:14.000Z</time>
      </trkpt>
      <trkpt lat="47.2792" lon="6.57672">
        <ele>666.40002441406</ele>
        <time>2018-05-01T14:43:20.000Z</time>
      </trkpt>
      <trkpt lat="47.27927" lon="6.5767">
        <ele>665.59997558594</ele>
        <time>2018-05-01T14:43:22.000Z</time>
      </trkpt>
      <trkpt lat="47.27934" lon="6.57668">
        <ele>664.79998779297</ele>
        <time>2018-05-01T14:43:24.000Z</time>
      </trkpt>
      <trkpt lat="47.2795" lon="6.5766">
        <ele>663.20001220703</ele>
        <time>2018-05-01T14:43:29.000Z</time>
      </trkpt>
      <trkpt lat="47.2797" lon="6.5765">
        <ele>661.20001220703</ele>
        <time>2018-05-01T14:43:35.000Z</time>
      </trkpt>
      <trkpt lat="47.27975" lon="6.5765">
        <ele>660.40002441406</ele>
        <time>2018-05-01T14:43:37.000Z</time>
      </trkpt>
      <trkpt lat="47.2798" lon="6.57647">
        <ele>659.59997558594</ele>
        <time>2018-05-01T14:43:39.000Z</time>
      </trkpt>
      <trkpt lat="47.27983" lon="6.57647">
        <ele>659.20001220703</ele>
        <time>2018-05-01T14:43:40.000Z</time>
      </trkpt>
      <trkpt lat="47.27985" lon="6.57649">
        <ele>659.20001220703</ele>
        <time>2018-05-01T14:43:41.000Z</time>
      </trkpt>
      <trkpt lat="47.27987" lon="6.57651">
        <ele>659.20001220703</ele>
        <time>2018-05-01T14:43:42.000Z</time>
      </trkpt>
      <trkpt lat="47.27987" lon="6.57652">
        <ele>659</ele>
        <time>2018-05-01T14:43:45.000Z</time>
      </trkpt>
      <trkpt lat="47.27987" lon="6.57654">
        <ele>659</ele>
        <time>2018-05-01T14:43:49.000Z</time>
      </trkpt>
      <trkpt lat="47.27987" lon="6.57654">
        <ele>659</ele>
        <time>2018-05-01T14:43:50.000Z</time>
      </trkpt>
      <trkpt lat="47.27991" lon="6.57656">
        <ele>658.40002441406</ele>
        <time>2018-05-01T14:43:57.000Z</time>
      </trkpt>
      <trkpt lat="47.27992" lon="6.57656">
        <ele>658.40002441406</ele>
        <time>2018-05-01T14:43:58.000Z</time>
      </trkpt>
      <trkpt lat="47.27994" lon="6.57655">
        <ele>658.20001220703</ele>
        <time>2018-05-01T14:43:59.000Z</time>
      </trkpt>
      <trkpt lat="47.27995" lon="6.57654">
        <ele>658</ele>
        <time>2018-05-01T14:44:00.000Z</time>
      </trkpt>
      <trkpt lat="47.27997" lon="6.57654">
        <ele>658</ele>
        <time>2018-05-01T14:44:02.000Z</time>
      </trkpt>
      <trkpt lat="47.27997" lon="6.57653">
        <ele>658</ele>
        <time>2018-05-01T14:44:04.000Z</time>
      </trkpt>
      <trkpt lat="47.28" lon="6.57654">
        <ele>658</ele>
        <time>2018-05-01T14:44:08.000Z</time>
      </trkpt>
      <trkpt lat="47.28002" lon="6.57654">
        <ele>658</ele>
        <time>2018-05-01T14:44:10.000Z</time>
      </trkpt>
      <trkpt lat="47.28003" lon="6.57655">
        <ele>658</ele>
        <time>2018-05-01T14:44:13.000Z</time>
      </trkpt>
      <trkpt lat="47.2801" lon="6.57655">
        <ele>658</ele>
        <time>2018-05-01T14:44:16.000Z</time>
      </trkpt>
      <trkpt lat="47.28012" lon="6.57655">
        <ele>658</ele>
        <time>2018-05-01T14:44:17.000Z</time>
      </trkpt>
      <trkpt lat="47.28019" lon="6.57654">
        <ele>658</ele>
        <time>2018-05-01T14:44:19.000Z</time>
      </trkpt>
      <trkpt lat="47.28023" lon="6.57653">
        <ele>658</ele>
        <time>2018-05-01T14:44:20.000Z</time>
      </trkpt>
      <trkpt lat="47.28026" lon="6.57653">
        <ele>658</ele>
        <time>2018-05-01T14:44:21.000Z</time>
      </trkpt>
      <trkpt lat="47.28029" lon="6.57653">
        <ele>658</ele>
        <time>2018-05-01T14:44:22.000Z</time>
      </trkpt>
      <trkpt lat="47.28031" lon="6.57654">
        <ele>658</ele>
        <time>2018-05-01T14:44:23.000Z</time>
      </trkpt>
      <trkpt lat="47.28034" lon="6.57654">
        <ele>658</ele>
        <time>2018-05-01T14:44:25.000Z</time>
      </trkpt>
      <trkpt lat="47.28039" lon="6.57654">
        <ele>658</ele>
        <time>2018-05-01T14:44:29.000Z</time>
      </trkpt>
      <trkpt lat="47.28039" lon="6.57654">
        <ele>658</ele>
        <time>2018-05-01T14:44:32.000Z</time>
      </trkpt>
      <trkpt lat="47.28041" lon="6.57655">
        <ele>658</ele>
        <time>2018-05-01T14:44:36.000Z</time>
      </trkpt>
      <trkpt lat="47.28041" lon="6.57655">
        <ele>658</ele>
        <time>2018-05-01T14:44:48.000Z</time>
      </trkpt>
      <trkpt lat="47.28041" lon="6.57655">
        <ele>658</ele>
        <time>2018-05-01T14:45:02.000Z</time>
      </trkpt>
      <trkpt lat="47.28042" lon="6.57655">
        <ele>658</ele>
        <time>2018-05-01T14:45:08.000Z</time>
      </trkpt>
      <trkpt lat="47.28046" lon="6.57654">
        <ele>658</ele>
        <time>2018-05-01T14:45:09.000Z</time>
      </trkpt>
      <trkpt lat="47.28053" lon="6.57652">
        <ele>658</ele>
        <time>2018-05-01T14:45:11.000Z</time>
      </trkpt>
      <trkpt lat="47.28067" lon="6.57654">
        <ele>658</ele>
        <time>2018-05-01T14:45:15.000Z</time>
      </trkpt>
      <trkpt lat="47.28076" lon="6.57657">
        <ele>657.79998779297</ele>
        <time>2018-05-01T14:45:17.000Z</time>
      </trkpt>
      <trkpt lat="47.2808" lon="6.57658">
        <ele>657.79998779297</ele>
        <time>2018-05-01T14:45:18.000Z</time>
      </trkpt>
      <trkpt lat="47.28087" lon="6.57662">
        <ele>657.59997558594</ele>
        <time>2018-05-01T14:45:20.000Z</time>
      </trkpt>
      <trkpt lat="47.28096" lon="6.57666">
        <ele>657.40002441406</ele>
        <time>2018-05-01T14:45:22.000Z</time>
      </trkpt>
      <trkpt lat="47.28107" lon="6.57668">
        <ele>656.59997558594</ele>
        <time>2018-05-01T14:45:24.000Z</time>
      </trkpt>
      <trkpt lat="47.28119" lon="6.57675">
        <ele>655.79998779297</ele>
        <time>2018-05-01T14:45:27.000Z</time>
      </trkpt>
      <trkpt lat="47.28123" lon="6.57676">
        <ele>655.59997558594</ele>
        <time>2018-05-01T14:45:28.000Z</time>
      </trkpt>
      <trkpt lat="47.28126" lon="6.57677">
        <ele>655.40002441406</ele>
        <time>2018-05-01T14:45:29.000Z</time>
      </trkpt>
      <trkpt lat="47.28133" lon="6.57675">
        <ele>654.59997558594</ele>
        <time>2018-05-01T14:45:32.000Z</time>
      </trkpt>
      <trkpt lat="47.28138" lon="6.57667">
        <ele>654</ele>
        <time>2018-05-01T14:45:34.000Z</time>
      </trkpt>
      <trkpt lat="47.28139" lon="6.57657">
        <ele>653.20001220703</ele>
        <time>2018-05-01T14:45:36.000Z</time>
      </trkpt>
      <trkpt lat="47.28139" lon="6.57649">
        <ele>652.79998779297</ele>
        <time>2018-05-01T14:45:38.000Z</time>
      </trkpt>
      <trkpt lat="47.28141" lon="6.57643">
        <ele>651.79998779297</ele>
        <time>2018-05-01T14:45:40.000Z</time>
      </trkpt>
      <trkpt lat="47.28143" lon="6.57631">
        <ele>650.40002441406</ele>
        <time>2018-05-01T14:45:44.000Z</time>
      </trkpt>
      <trkpt lat="47.28144" lon="6.5763">
        <ele>650.20001220703</ele>
        <time>2018-05-01T14:45:46.000Z</time>
      </trkpt>
      <trkpt lat="47.28146" lon="6.57629">
        <ele>649.79998779297</ele>
        <time>2018-05-01T14:45:48.000Z</time>
      </trkpt>
      <trkpt lat="47.28147" lon="6.57625">
        <ele>649.40002441406</ele>
        <time>2018-05-01T14:45:55.000Z</time>
      </trkpt>
      <trkpt lat="47.28152" lon="6.57622">
        <ele>648.79998779297</ele>
        <time>2018-05-01T14:46:00.000Z</time>
      </trkpt>
      <trkpt lat="47.28154" lon="6.57619">
        <ele>648.40002441406</ele>
        <time>2018-05-01T14:46:01.000Z</time>
      </trkpt>
      <trkpt lat="47.28156" lon="6.57615">
        <ele>648</ele>
        <time>2018-05-01T14:46:02.000Z</time>
      </trkpt>
      <trkpt lat="47.2816" lon="6.57608">
        <ele>647</ele>
        <time>2018-05-01T14:46:04.000Z</time>
      </trkpt>
      <trkpt lat="47.28162" lon="6.57605">
        <ele>646.59997558594</ele>
        <time>2018-05-01T14:46:05.000Z</time>
      </trkpt>
      <trkpt lat="47.28166" lon="6.57603">
        <ele>645.79998779297</ele>
        <time>2018-05-01T14:46:06.000Z</time>
      </trkpt>
      <trkpt lat="47.28179" lon="6.576">
        <ele>643</ele>
        <time>2018-05-01T14:46:09.000Z</time>
      </trkpt>
      <trkpt lat="47.28183" lon="6.57599">
        <ele>642</ele>
        <time>2018-05-01T14:46:10.000Z</time>
      </trkpt>
      <trkpt lat="47.28192" lon="6.57597">
        <ele>640.20001220703</ele>
        <time>2018-05-01T14:46:12.000Z</time>
      </trkpt>
      <trkpt lat="47.28202" lon="6.57594">
        <ele>638.79998779297</ele>
        <time>2018-05-01T14:46:14.000Z</time>
      </trkpt>
      <trkpt lat="47.28211" lon="6.57593">
        <ele>637.59997558594</ele>
        <time>2018-05-01T14:46:16.000Z</time>
      </trkpt>
      <trkpt lat="47.2823" lon="6.57597">
        <ele>635.20001220703</ele>
        <time>2018-05-01T14:46:21.000Z</time>
      </trkpt>
      <trkpt lat="47.28233" lon="6.57599">
        <ele>634.79998779297</ele>
        <time>2018-05-01T14:46:22.000Z</time>
      </trkpt>
      <trkpt lat="47.28238" lon="6.57604">
        <ele>634.40002441406</ele>
        <time>2018-05-01T14:46:24.000Z</time>
      </trkpt>
      <trkpt lat="47.2824" lon="6.57608">
        <ele>634.40002441406</ele>
        <time>2018-05-01T14:46:26.000Z</time>
      </trkpt>
      <trkpt lat="47.28242" lon="6.5761">
        <ele>634</ele>
        <time>2018-05-01T14:46:28.000Z</time>
      </trkpt>
      <trkpt lat="47.28244" lon="6.57613">
        <ele>634</ele>
        <time>2018-05-01T14:46:31.000Z</time>
      </trkpt>
      <trkpt lat="47.28244" lon="6.57614">
        <ele>634</ele>
        <time>2018-05-01T14:46:36.000Z</time>
      </trkpt>
      <trkpt lat="47.28244" lon="6.57614">
        <ele>634</ele>
        <time>2018-05-01T14:46:45.000Z</time>
      </trkpt>
      <trkpt lat="47.28248" lon="6.5762">
        <ele>633.79998779297</ele>
        <time>2018-05-01T14:46:51.000Z</time>
      </trkpt>
      <trkpt lat="47.28249" lon="6.57624">
        <ele>633.79998779297</ele>
        <time>2018-05-01T14:46:52.000Z</time>
      </trkpt>
      <trkpt lat="47.28261" lon="6.5764">
        <ele>633.79998779297</ele>
        <time>2018-05-01T14:46:56.000Z</time>
      </trkpt>
      <trkpt lat="47.28294" lon="6.57678">
        <ele>633.59997558594</ele>
        <time>2018-05-01T14:47:05.000Z</time>
      </trkpt>
      <trkpt lat="47.28326" lon="6.57713">
        <ele>633.40002441406</ele>
        <time>2018-05-01T14:47:13.000Z</time>
      </trkpt>
      <trkpt lat="47.28357" lon="6.57749">
        <ele>634.79998779297</ele>
        <time>2018-05-01T14:47:21.000Z</time>
      </trkpt>
      <trkpt lat="47.28391" lon="6.57786">
        <ele>637</ele>
        <time>2018-05-01T14:47:30.000Z</time>
      </trkpt>
      <trkpt lat="47.28405" lon="6.57802">
        <ele>638</ele>
        <time>2018-05-01T14:47:34.000Z</time>
      </trkpt>
      <trkpt lat="47.28411" lon="6.57811">
        <ele>638.59997558594</ele>
        <time>2018-05-01T14:47:36.000Z</time>
      </trkpt>
      <trkpt lat="47.28412" lon="6.57817">
        <ele>639</ele>
        <time>2018-05-01T14:47:37.000Z</time>
      </trkpt>
      <trkpt lat="47.28415" lon="6.57828">
        <ele>638.59997558594</ele>
        <time>2018-05-01T14:47:39.000Z</time>
      </trkpt>
      <trkpt lat="47.28417" lon="6.57833">
        <ele>638</ele>
        <time>2018-05-01T14:47:40.000Z</time>
      </trkpt>
      <trkpt lat="47.28419" lon="6.57844">
        <ele>637.40002441406</ele>
        <time>2018-05-01T14:47:42.000Z</time>
      </trkpt>
      <trkpt lat="47.28429" lon="6.57858">
        <ele>634.40002441406</ele>
        <time>2018-05-01T14:47:46.000Z</time>
      </trkpt>
      <trkpt lat="47.28439" lon="6.57865">
        <ele>631.20001220703</ele>
        <time>2018-05-01T14:47:50.000Z</time>
      </trkpt>
      <trkpt lat="47.28442" lon="6.57865">
        <ele>630.20001220703</ele>
        <time>2018-05-01T14:47:51.000Z</time>
      </trkpt>
      <trkpt lat="47.28461" lon="6.57865">
        <ele>624.40002441406</ele>
        <time>2018-05-01T14:47:56.000Z</time>
      </trkpt>
      <trkpt lat="47.28468" lon="6.57865">
        <ele>624.20001220703</ele>
        <time>2018-05-01T14:47:58.000Z</time>
      </trkpt>
      <trkpt lat="47.28476" lon="6.57866">
        <ele>624</ele>
        <time>2018-05-01T14:48:00.000Z</time>
      </trkpt>
      <trkpt lat="47.2849" lon="6.57868">
        <ele>623</ele>
        <time>2018-05-01T14:48:04.000Z</time>
      </trkpt>
      <trkpt lat="47.28492" lon="6.57868">
        <ele>623</ele>
        <time>2018-05-01T14:48:05.000Z</time>
      </trkpt>
      <trkpt lat="47.28496" lon="6.57868">
        <ele>623</ele>
        <time>2018-05-01T14:48:07.000Z</time>
      </trkpt>
      <trkpt lat="47.28498" lon="6.57868">
        <ele>622.59997558594</ele>
        <time>2018-05-01T14:48:10.000Z</time>
      </trkpt>
      <trkpt lat="47.28498" lon="6.57868">
        <ele>622.59997558594</ele>
        <time>2018-05-01T14:48:20.000Z</time>
      </trkpt>
      <trkpt lat="47.28498" lon="6.57868">
        <ele>622.59997558594</ele>
        <time>2018-05-01T14:48:36.000Z</time>
      </trkpt>
      <trkpt lat="47.28499" lon="6.57868">
        <ele>622.59997558594</ele>
        <time>2018-05-01T14:49:01.000Z</time>
      </trkpt>
      <trkpt lat="47.28499" lon="6.57868">
        <ele>622.59997558594</ele>
        <time>2018-05-01T14:49:27.000Z</time>
      </trkpt>
      <trkpt lat="47.285" lon="6.57868">
        <ele>622.40002441406</ele>
        <time>2018-05-01T14:49:49.000Z</time>
      </trkpt>
      <trkpt lat="47.285" lon="6.57868">
        <ele>622.40002441406</ele>
        <time>2018-05-01T14:50:09.000Z</time>
      </trkpt>
      <trkpt lat="47.285" lon="6.57868">
        <ele>622.20001220703</ele>
        <time>2018-05-01T14:50:30.000Z</time>
      </trkpt>
      <trkpt lat="47.285" lon="6.57868">
        <ele>622.20001220703</ele>
        <time>2018-05-01T14:50:53.000Z</time>
      </trkpt>
      <trkpt lat="47.285" lon="6.57868">
        <ele>622.20001220703</ele>
        <time>2018-05-01T14:51:16.000Z</time>
      </trkpt>
      <trkpt lat="47.28501" lon="6.57868">
        <ele>622</ele>
        <time>2018-05-01T14:51:37.000Z</time>
      </trkpt>
      <trkpt lat="47.28501" lon="6.57868">
        <ele>622</ele>
        <time>2018-05-01T14:51:58.000Z</time>
      </trkpt>
      <trkpt lat="47.28502" lon="6.57868">
        <ele>621.79998779297</ele>
        <time>2018-05-01T14:52:16.000Z</time>
      </trkpt>
      <trkpt lat="47.28501" lon="6.57868">
        <ele>622.20001220703</ele>
        <time>2018-05-01T14:52:23.000Z</time>
      </trkpt>
      <trkpt lat="47.285" lon="6.57866">
        <ele>622.79998779297</ele>
        <time>2018-05-01T14:52:25.000Z</time>
      </trkpt>
      <trkpt lat="47.285" lon="6.57867">
        <ele>622.79998779297</ele>
        <time>2018-05-01T14:52:26.000Z</time>
      </trkpt>
      <trkpt lat="47.28498" lon="6.57867">
        <ele>622.79998779297</ele>
        <time>2018-05-01T14:52:28.000Z</time>
      </trkpt>
      <trkpt lat="47.28494" lon="6.57868">
        <ele>623.20001220703</ele>
        <time>2018-05-01T14:52:30.000Z</time>
      </trkpt>
      <trkpt lat="47.2849" lon="6.57868">
        <ele>623.20001220703</ele>
        <time>2018-05-01T14:52:32.000Z</time>
      </trkpt>
      <trkpt lat="47.28479" lon="6.57866">
        <ele>623.79998779297</ele>
        <time>2018-05-01T14:52:35.000Z</time>
      </trkpt>
      <trkpt lat="47.28468" lon="6.57865">
        <ele>624</ele>
        <time>2018-05-01T14:52:38.000Z</time>
      </trkpt>
      <trkpt lat="47.28457" lon="6.57865">
        <ele>625.20001220703</ele>
        <time>2018-05-01T14:52:41.000Z</time>
      </trkpt>
      <trkpt lat="47.2845" lon="6.57864">
        <ele>627.59997558594</ele>
        <time>2018-05-01T14:52:43.000Z</time>
      </trkpt>
      <trkpt lat="47.28442" lon="6.57864">
        <ele>630.20001220703</ele>
        <time>2018-05-01T14:52:45.000Z</time>
      </trkpt>
      <trkpt lat="47.28435" lon="6.57869">
        <ele>632.40002441406</ele>
        <time>2018-05-01T14:52:47.000Z</time>
      </trkpt>
      <trkpt lat="47.2843" lon="6.57885">
        <ele>634.40002441406</ele>
        <time>2018-05-01T14:52:50.000Z</time>
      </trkpt>
      <trkpt lat="47.28419" lon="6.57914">
        <ele>636.79998779297</ele>
        <time>2018-05-01T14:52:56.000Z</time>
      </trkpt>
      <trkpt lat="47.28416" lon="6.57934">
        <ele>639.40002441406</ele>
        <time>2018-05-01T14:53:00.000Z</time>
      </trkpt>
      <trkpt lat="47.28415" lon="6.57955">
        <ele>640.59997558594</ele>
        <time>2018-05-01T14:53:04.000Z</time>
      </trkpt>
      <trkpt lat="47.28415" lon="6.57961">
        <ele>641.20001220703</ele>
        <time>2018-05-01T14:53:05.000Z</time>
      </trkpt>
      <trkpt lat="47.28416" lon="6.58004">
        <ele>643.40002441406</ele>
        <time>2018-05-01T14:53:11.000Z</time>
      </trkpt>
      <trkpt lat="47.28416" lon="6.58018">
        <ele>645</ele>
        <time>2018-05-01T14:53:14.000Z</time>
      </trkpt>
      <trkpt lat="47.28416" lon="6.58022">
        <ele>645.40002441406</ele>
        <time>2018-05-01T14:53:15.000Z</time>
      </trkpt>
      <trkpt lat="47.28418" lon="6.58045">
        <ele>646.59997558594</ele>
        <time>2018-05-01T14:53:19.000Z</time>
      </trkpt>
      <trkpt lat="47.28423" lon="6.5807">
        <ele>647.40002441406</ele>
        <time>2018-05-01T14:53:24.000Z</time>
      </trkpt>
      <trkpt lat="47.28429" lon="6.58083">
        <ele>649.40002441406</ele>
        <time>2018-05-01T14:53:27.000Z</time>
      </trkpt>
      <trkpt lat="47.28433" lon="6.58089">
        <ele>649.79998779297</ele>
        <time>2018-05-01T14:53:29.000Z</time>
      </trkpt>
      <trkpt lat="47.28437" lon="6.58097">
        <ele>649.59997558594</ele>
        <time>2018-05-01T14:53:31.000Z</time>
      </trkpt>
      <trkpt lat="47.2844" lon="6.58102">
        <ele>649.59997558594</ele>
        <time>2018-05-01T14:53:32.000Z</time>
      </trkpt>
      <trkpt lat="47.28445" lon="6.58111">
        <ele>649.79998779297</ele>
        <time>2018-05-01T14:53:34.000Z</time>
      </trkpt>
      <trkpt lat="47.28455" lon="6.58129">
        <ele>649.59997558594</ele>
        <time>2018-05-01T14:53:38.000Z</time>
      </trkpt>
      <trkpt lat="47.2846" lon="6.58135">
        <ele>649.40002441406</ele>
        <time>2018-05-01T14:53:40.000Z</time>
      </trkpt>
      <trkpt lat="47.2847" lon="6.5814">
        <ele>648.20001220703</ele>
        <time>2018-05-01T14:53:43.000Z</time>
      </trkpt>
      <trkpt lat="47.2848" lon="6.5815">
        <ele>647.40002441406</ele>
        <time>2018-05-01T14:53:47.000Z</time>
      </trkpt>
      <trkpt lat="47.28485" lon="6.58156">
        <ele>647.59997558594</ele>
        <time>2018-05-01T14:53:49.000Z</time>
      </trkpt>
      <trkpt lat="47.28492" lon="6.58165">
        <ele>647.79998779297</ele>
        <time>2018-05-01T14:53:52.000Z</time>
      </trkpt>
      <trkpt lat="47.28506" lon="6.58182">
        <ele>648.79998779297</ele>
        <time>2018-05-01T14:53:57.000Z</time>
      </trkpt>
      <trkpt lat="47.28522" lon="6.58198">
        <ele>649.79998779297</ele>
        <time>2018-05-01T14:54:02.000Z</time>
      </trkpt>
      <trkpt lat="47.28525" lon="6.58201">
        <ele>650</ele>
        <time>2018-05-01T14:54:03.000Z</time>
      </trkpt>
      <trkpt lat="47.28535" lon="6.58213">
        <ele>651</ele>
        <time>2018-05-01T14:54:06.000Z</time>
      </trkpt>
      <trkpt lat="47.28542" lon="6.58223">
        <ele>651.79998779297</ele>
        <time>2018-05-01T14:54:08.000Z</time>
      </trkpt>
      <trkpt lat="47.28552" lon="6.58234">
        <ele>652.59997558594</ele>
        <time>2018-05-01T14:54:11.000Z</time>
      </trkpt>
      <trkpt lat="47.28561" lon="6.58241">
        <ele>652.40002441406</ele>
        <time>2018-05-01T14:54:13.000Z</time>
      </trkpt>
      <trkpt lat="47.28563" lon="6.58245">
        <ele>652.40002441406</ele>
        <time>2018-05-01T14:54:14.000Z</time>
      </trkpt>
      <trkpt lat="47.28567" lon="6.58251">
        <ele>652.59997558594</ele>
        <time>2018-05-01T14:54:15.000Z</time>
      </trkpt>
      <trkpt lat="47.28572" lon="6.58255">
        <ele>652.40002441406</ele>
        <time>2018-05-01T14:54:16.000Z</time>
      </trkpt>
      <trkpt lat="47.28578" lon="6.58259">
        <ele>652.20001220703</ele>
        <time>2018-05-01T14:54:18.000Z</time>
      </trkpt>
      <trkpt lat="47.28586" lon="6.58265">
        <ele>651.79998779297</ele>
        <time>2018-05-01T14:54:22.000Z</time>
      </trkpt>
      <trkpt lat="47.28596" lon="6.5827">
        <ele>651</ele>
        <time>2018-05-01T14:54:25.000Z</time>
      </trkpt>
      <trkpt lat="47.28599" lon="6.58272">
        <ele>650.79998779297</ele>
        <time>2018-05-01T14:54:26.000Z</time>
      </trkpt>
      <trkpt lat="47.28621" lon="6.58287">
        <ele>649.40002441406</ele>
        <time>2018-05-01T14:54:32.000Z</time>
      </trkpt>
      <trkpt lat="47.28626" lon="6.58288">
        <ele>649</ele>
        <time>2018-05-01T14:54:33.000Z</time>
      </trkpt>
      <trkpt lat="47.28637" lon="6.58292">
        <ele>647.79998779297</ele>
        <time>2018-05-01T14:54:36.000Z</time>
      </trkpt>
      <trkpt lat="47.2864" lon="6.58294">
        <ele>647.59997558594</ele>
        <time>2018-05-01T14:54:37.000Z</time>
      </trkpt>
      <trkpt lat="47.28649" lon="6.58305">
        <ele>647.59997558594</ele>
        <time>2018-05-01T14:54:42.000Z</time>
      </trkpt>
      <trkpt lat="47.2865" lon="6.58306">
        <ele>647.59997558594</ele>
        <time>2018-05-01T14:54:43.000Z</time>
      </trkpt>
      <trkpt lat="47.28652" lon="6.58307">
        <ele>647.40002441406</ele>
        <time>2018-05-01T14:54:48.000Z</time>
      </trkpt>
      <trkpt lat="47.28653" lon="6.58307">
        <ele>647.40002441406</ele>
        <time>2018-05-01T14:54:56.000Z</time>
      </trkpt>
      <trkpt lat="47.28653" lon="6.58309">
        <ele>647.40002441406</ele>
        <time>2018-05-01T14:54:57.000Z</time>
      </trkpt>
      <trkpt lat="47.2866" lon="6.58311">
        <ele>646.20001220703</ele>
        <time>2018-05-01T14:55:01.000Z</time>
      </trkpt>
      <trkpt lat="47.28662" lon="6.58312">
        <ele>645.79998779297</ele>
        <time>2018-05-01T14:55:02.000Z</time>
      </trkpt>
      <trkpt lat="47.28667" lon="6.58313">
        <ele>645</ele>
        <time>2018-05-01T14:55:04.000Z</time>
      </trkpt>
      <trkpt lat="47.28669" lon="6.58313">
        <ele>644.59997558594</ele>
        <time>2018-05-01T14:55:06.000Z</time>
      </trkpt>
      <trkpt lat="47.28671" lon="6.58314">
        <ele>644.40002441406</ele>
        <time>2018-05-01T14:55:10.000Z</time>
      </trkpt>
      <trkpt lat="47.28675" lon="6.58314">
        <ele>643.59997558594</ele>
        <time>2018-05-01T14:55:12.000Z</time>
      </trkpt>
      <trkpt lat="47.28676" lon="6.58313">
        <ele>643.40002441406</ele>
        <time>2018-05-01T14:55:13.000Z</time>
      </trkpt>
      <trkpt lat="47.28677" lon="6.58313">
        <ele>643.20001220703</ele>
        <time>2018-05-01T14:55:19.000Z</time>
      </trkpt>
      <trkpt lat="47.28678" lon="6.58313">
        <ele>642.79998779297</ele>
        <time>2018-05-01T14:55:21.000Z</time>
      </trkpt>
      <trkpt lat="47.28678" lon="6.58313">
        <ele>642.79998779297</ele>
        <time>2018-05-01T14:55:27.000Z</time>
      </trkpt>
      <trkpt lat="47.28684" lon="6.58308">
        <ele>640.59997558594</ele>
        <time>2018-05-01T14:55:32.000Z</time>
      </trkpt>
      <trkpt lat="47.28689" lon="6.58306">
        <ele>639</ele>
        <time>2018-05-01T14:55:34.000Z</time>
      </trkpt>
      <trkpt lat="47.28692" lon="6.583">
        <ele>637</ele>
        <time>2018-05-01T14:55:37.000Z</time>
      </trkpt>
      <trkpt lat="47.28695" lon="6.58298">
        <ele>635.79998779297</ele>
        <time>2018-05-01T14:55:40.000Z</time>
      </trkpt>
      <trkpt lat="47.28698" lon="6.58296">
        <ele>634.79998779297</ele>
        <time>2018-05-01T14:55:44.000Z</time>
      </trkpt>
      <trkpt lat="47.287" lon="6.58294">
        <ele>634.20001220703</ele>
        <time>2018-05-01T14:55:46.000Z</time>
      </trkpt>
      <trkpt lat="47.28702" lon="6.58292">
        <ele>633.20001220703</ele>
        <time>2018-05-01T14:55:50.000Z</time>
      </trkpt>
      <trkpt lat="47.28704" lon="6.58292">
        <ele>632.79998779297</ele>
        <time>2018-05-01T14:55:53.000Z</time>
      </trkpt>
      <trkpt lat="47.28705" lon="6.58291">
        <ele>632.20001220703</ele>
        <time>2018-05-01T14:55:56.000Z</time>
      </trkpt>
      <trkpt lat="47.28705" lon="6.58291">
        <ele>632.20001220703</ele>
        <time>2018-05-01T14:56:03.000Z</time>
      </trkpt>
      <trkpt lat="47.28706" lon="6.58289">
        <ele>631.59997558594</ele>
        <time>2018-05-01T14:56:09.000Z</time>
      </trkpt>
      <trkpt lat="47.28707" lon="6.58289">
        <ele>631.59997558594</ele>
        <time>2018-05-01T14:56:15.000Z</time>
      </trkpt>
      <trkpt lat="47.28707" lon="6.58289">
        <ele>631.59997558594</ele>
        <time>2018-05-01T14:56:16.000Z</time>
      </trkpt>
      <trkpt lat="47.28707" lon="6.58288">
        <ele>631</ele>
        <time>2018-05-01T14:56:23.000Z</time>
      </trkpt>
      <trkpt lat="47.28708" lon="6.58287">
        <ele>630.79998779297</ele>
        <time>2018-05-01T14:56:27.000Z</time>
      </trkpt>
      <trkpt lat="47.28709" lon="6.58284">
        <ele>629.59997558594</ele>
        <time>2018-05-01T14:56:34.000Z</time>
      </trkpt>
      <trkpt lat="47.2871" lon="6.58282">
        <ele>629</ele>
        <time>2018-05-01T14:56:35.000Z</time>
      </trkpt>
      <trkpt lat="47.28711" lon="6.5828">
        <ele>627.79998779297</ele>
        <time>2018-05-01T14:56:38.000Z</time>
      </trkpt>
      <trkpt lat="47.28712" lon="6.58276">
        <ele>626</ele>
        <time>2018-05-01T14:56:40.000Z</time>
      </trkpt>
      <trkpt lat="47.28713" lon="6.58276">
        <ele>625.59997558594</ele>
        <time>2018-05-01T14:56:45.000Z</time>
      </trkpt>
      <trkpt lat="47.28716" lon="6.58274">
        <ele>624.20001220703</ele>
        <time>2018-05-01T14:56:46.000Z</time>
      </trkpt>
      <trkpt lat="47.28719" lon="6.58272">
        <ele>622.40002441406</ele>
        <time>2018-05-01T14:56:47.000Z</time>
      </trkpt>
      <trkpt lat="47.28726" lon="6.58265">
        <ele>617.59997558594</ele>
        <time>2018-05-01T14:56:50.000Z</time>
      </trkpt>
      <trkpt lat="47.28729" lon="6.58265">
        <ele>616.59997558594</ele>
        <time>2018-05-01T14:56:51.000Z</time>
      </trkpt>
      <trkpt lat="47.28735" lon="6.58264">
        <ele>614.40002441406</ele>
        <time>2018-05-01T14:56:54.000Z</time>
      </trkpt>
      <trkpt lat="47.28743" lon="6.58263">
        <ele>611.20001220703</ele>
        <time>2018-05-01T14:56:58.000Z</time>
      </trkpt>
      <trkpt lat="47.28745" lon="6.58262">
        <ele>610.20001220703</ele>
        <time>2018-05-01T14:56:59.000Z</time>
      </trkpt>
      <trkpt lat="47.28748" lon="6.5826">
        <ele>608.79998779297</ele>
        <time>2018-05-01T14:57:00.000Z</time>
      </trkpt>
      <trkpt lat="47.28753" lon="6.58259">
        <ele>606</ele>
        <time>2018-05-01T14:57:02.000Z</time>
      </trkpt>
      <trkpt lat="47.28758" lon="6.58259">
        <ele>604.40002441406</ele>
        <time>2018-05-01T14:57:04.000Z</time>
      </trkpt>
      <trkpt lat="47.28758" lon="6.58259">
        <ele>604.40002441406</ele>
        <time>2018-05-01T14:57:05.000Z</time>
      </trkpt>
      <trkpt lat="47.28762" lon="6.5826">
        <ele>603.40002441406</ele>
        <time>2018-05-01T14:57:09.000Z</time>
      </trkpt>
      <trkpt lat="47.28765" lon="6.58258">
        <ele>601.59997558594</ele>
        <time>2018-05-01T14:57:10.000Z</time>
      </trkpt>
      <trkpt lat="47.28768" lon="6.58256">
        <ele>599.59997558594</ele>
        <time>2018-05-01T14:57:12.000Z</time>
      </trkpt>
      <trkpt lat="47.2877" lon="6.58255">
        <ele>599</ele>
        <time>2018-05-01T14:57:13.000Z</time>
      </trkpt>
      <trkpt lat="47.28772" lon="6.58256">
        <ele>598.59997558594</ele>
        <time>2018-05-01T14:57:14.000Z</time>
      </trkpt>
      <trkpt lat="47.2878" lon="6.58251">
        <ele>594.79998779297</ele>
        <time>2018-05-01T14:57:16.000Z</time>
      </trkpt>
      <trkpt lat="47.28784" lon="6.58249">
        <ele>593.20001220703</ele>
        <time>2018-05-01T14:57:17.000Z</time>
      </trkpt>
      <trkpt lat="47.28789" lon="6.58249">
        <ele>591.79998779297</ele>
        <time>2018-05-01T14:57:18.000Z</time>
      </trkpt>
      <trkpt lat="47.28792" lon="6.58249">
        <ele>591.20001220703</ele>
        <time>2018-05-01T14:57:19.000Z</time>
      </trkpt>
      <trkpt lat="47.28794" lon="6.58252">
        <ele>591.20001220703</ele>
        <time>2018-05-01T14:57:20.000Z</time>
      </trkpt>
      <trkpt lat="47.28796" lon="6.58253">
        <ele>591</ele>
        <time>2018-05-01T14:57:21.000Z</time>
      </trkpt>
      <trkpt lat="47.28796" lon="6.58254">
        <ele>591.40002441406</ele>
        <time>2018-05-01T14:57:22.000Z</time>
      </trkpt>
      <trkpt lat="47.28799" lon="6.58257">
        <ele>591.40002441406</ele>
        <time>2018-05-01T14:57:23.000Z</time>
      </trkpt>
      <trkpt lat="47.28802" lon="6.58257">
        <ele>590.40002441406</ele>
        <time>2018-05-01T14:57:24.000Z</time>
      </trkpt>
      <trkpt lat="47.28806" lon="6.58257">
        <ele>589.59997558594</ele>
        <time>2018-05-01T14:57:25.000Z</time>
      </trkpt>
      <trkpt lat="47.28808" lon="6.58256">
        <ele>588.40002441406</ele>
        <time>2018-05-01T14:57:26.000Z</time>
      </trkpt>
      <trkpt lat="47.28811" lon="6.58254">
        <ele>587.20001220703</ele>
        <time>2018-05-01T14:57:27.000Z</time>
      </trkpt>
      <trkpt lat="47.28814" lon="6.58255">
        <ele>586.59997558594</ele>
        <time>2018-05-01T14:57:28.000Z</time>
      </trkpt>
      <trkpt lat="47.28817" lon="6.58255">
        <ele>585.79998779297</ele>
        <time>2018-05-01T14:57:29.000Z</time>
      </trkpt>
      <trkpt lat="47.2882" lon="6.58256">
        <ele>585.59997558594</ele>
        <time>2018-05-01T14:57:30.000Z</time>
      </trkpt>
      <trkpt lat="47.28822" lon="6.58257">
        <ele>585.20001220703</ele>
        <time>2018-05-01T14:57:31.000Z</time>
      </trkpt>
      <trkpt lat="47.28823" lon="6.58259">
        <ele>585.20001220703</ele>
        <time>2018-05-01T14:57:32.000Z</time>
      </trkpt>
      <trkpt lat="47.28824" lon="6.58259">
        <ele>585.20001220703</ele>
        <time>2018-05-01T14:57:33.000Z</time>
      </trkpt>
      <trkpt lat="47.2883" lon="6.58261">
        <ele>584.40002441406</ele>
        <time>2018-05-01T14:57:34.000Z</time>
      </trkpt>
      <trkpt lat="47.28833" lon="6.58262">
        <ele>583</ele>
        <time>2018-05-01T14:57:35.000Z</time>
      </trkpt>
      <trkpt lat="47.28836" lon="6.58262">
        <ele>581.59997558594</ele>
        <time>2018-05-01T14:57:36.000Z</time>
      </trkpt>
      <trkpt lat="47.2884" lon="6.5826">
        <ele>579.20001220703</ele>
        <time>2018-05-01T14:57:38.000Z</time>
      </trkpt>
      <trkpt lat="47.28839" lon="6.58257">
        <ele>578.59997558594</ele>
        <time>2018-05-01T14:57:40.000Z</time>
      </trkpt>
      <trkpt lat="47.28835" lon="6.5825">
        <ele>578.59997558594</ele>
        <time>2018-05-01T14:57:42.000Z</time>
      </trkpt>
      <trkpt lat="47.2883" lon="6.58242">
        <ele>578</ele>
        <time>2018-05-01T14:57:44.000Z</time>
      </trkpt>
      <trkpt lat="47.28824" lon="6.58232">
        <ele>576.59997558594</ele>
        <time>2018-05-01T14:57:46.000Z</time>
      </trkpt>
      <trkpt lat="47.28821" lon="6.58228">
        <ele>575.59997558594</ele>
        <time>2018-05-01T14:57:47.000Z</time>
      </trkpt>
      <trkpt lat="47.28816" lon="6.58222">
        <ele>574.59997558594</ele>
        <time>2018-05-01T14:57:48.000Z</time>
      </trkpt>
      <trkpt lat="47.28812" lon="6.58217">
        <ele>574</ele>
        <time>2018-05-01T14:57:49.000Z</time>
      </trkpt>
      <trkpt lat="47.28804" lon="6.5821">
        <ele>573</ele>
        <time>2018-05-01T14:57:51.000Z</time>
      </trkpt>
      <trkpt lat="47.28787" lon="6.58193">
        <ele>570.79998779297</ele>
        <time>2018-05-01T14:57:56.000Z</time>
      </trkpt>
      <trkpt lat="47.28772" lon="6.58171">
        <ele>566.40002441406</ele>
        <time>2018-05-01T14:58:01.000Z</time>
      </trkpt>
      <trkpt lat="47.28771" lon="6.58161">
        <ele>563.59997558594</ele>
        <time>2018-05-01T14:58:03.000Z</time>
      </trkpt>
      <trkpt lat="47.2877" lon="6.58153">
        <ele>561.40002441406</ele>
        <time>2018-05-01T14:58:04.000Z</time>
      </trkpt>
      <trkpt lat="47.28771" lon="6.58146">
        <ele>559.59997558594</ele>
        <time>2018-05-01T14:58:05.000Z</time>
      </trkpt>
      <trkpt lat="47.2877" lon="6.58137">
        <ele>558</ele>
        <time>2018-05-01T14:58:06.000Z</time>
      </trkpt>
      <trkpt lat="47.28768" lon="6.58131">
        <ele>557.20001220703</ele>
        <time>2018-05-01T14:58:07.000Z</time>
      </trkpt>
      <trkpt lat="47.28759" lon="6.58122">
        <ele>557.20001220703</ele>
        <time>2018-05-01T14:58:09.000Z</time>
      </trkpt>
      <trkpt lat="47.28751" lon="6.58116">
        <ele>557.40002441406</ele>
        <time>2018-05-01T14:58:10.000Z</time>
      </trkpt>
      <trkpt lat="47.28741" lon="6.5811">
        <ele>558</ele>
        <time>2018-05-01T14:58:11.000Z</time>
      </trkpt>
      <trkpt lat="47.28731" lon="6.58105">
        <ele>559.40002441406</ele>
        <time>2018-05-01T14:58:12.000Z</time>
      </trkpt>
      <trkpt lat="47.28722" lon="6.58101">
        <ele>560.40002441406</ele>
        <time>2018-05-01T14:58:13.000Z</time>
      </trkpt>
      <trkpt lat="47.28715" lon="6.58095">
        <ele>560.79998779297</ele>
        <time>2018-05-01T14:58:14.000Z</time>
      </trkpt>
      <trkpt lat="47.28707" lon="6.58083">
        <ele>559.79998779297</ele>
        <time>2018-05-01T14:58:16.000Z</time>
      </trkpt>
      <trkpt lat="47.28707" lon="6.58074">
        <ele>558.20001220703</ele>
        <time>2018-05-01T14:58:17.000Z</time>
      </trkpt>
      <trkpt lat="47.28706" lon="6.58067">
        <ele>557.20001220703</ele>
        <time>2018-05-01T14:58:18.000Z</time>
      </trkpt>
      <trkpt lat="47.28706" lon="6.58061">
        <ele>557.59997558594</ele>
        <time>2018-05-01T14:58:19.000Z</time>
      </trkpt>
      <trkpt lat="47.28708" lon="6.58056">
        <ele>557.59997558594</ele>
        <time>2018-05-01T14:58:20.000Z</time>
      </trkpt>
      <trkpt lat="47.28715" lon="6.58048">
        <ele>556.59997558594</ele>
        <time>2018-05-01T14:58:22.000Z</time>
      </trkpt>
      <trkpt lat="47.28729" lon="6.58047">
        <ele>554</ele>
        <time>2018-05-01T14:58:25.000Z</time>
      </trkpt>
      <trkpt lat="47.28743" lon="6.5805">
        <ele>552</ele>
        <time>2018-05-01T14:58:28.000Z</time>
      </trkpt>
      <trkpt lat="47.28748" lon="6.58052">
        <ele>551.20001220703</ele>
        <time>2018-05-01T14:58:29.000Z</time>
      </trkpt>
      <trkpt lat="47.28759" lon="6.58055">
        <ele>549</ele>
        <time>2018-05-01T14:58:31.000Z</time>
      </trkpt>
      <trkpt lat="47.28765" lon="6.58058">
        <ele>547.79998779297</ele>
        <time>2018-05-01T14:58:32.000Z</time>
      </trkpt>
      <trkpt lat="47.28771" lon="6.58059">
        <ele>546.79998779297</ele>
        <time>2018-05-01T14:58:33.000Z</time>
      </trkpt>
      <trkpt lat="47.28776" lon="6.58057">
        <ele>546.40002441406</ele>
        <time>2018-05-01T14:58:34.000Z</time>
      </trkpt>
      <trkpt lat="47.28782" lon="6.58056">
        <ele>545.59997558594</ele>
        <time>2018-05-01T14:58:35.000Z</time>
      </trkpt>
      <trkpt lat="47.28794" lon="6.58052">
        <ele>544.59997558594</ele>
        <time>2018-05-01T14:58:37.000Z</time>
      </trkpt>
      <trkpt lat="47.28806" lon="6.58046">
        <ele>543.79998779297</ele>
        <time>2018-05-01T14:58:39.000Z</time>
      </trkpt>
      <trkpt lat="47.28811" lon="6.58041">
        <ele>542.59997558594</ele>
        <time>2018-05-01T14:58:40.000Z</time>
      </trkpt>
      <trkpt lat="47.28817" lon="6.58036">
        <ele>541</ele>
        <time>2018-05-01T14:58:41.000Z</time>
      </trkpt>
      <trkpt lat="47.28828" lon="6.58027">
        <ele>538</ele>
        <time>2018-05-01T14:58:43.000Z</time>
      </trkpt>
      <trkpt lat="47.28835" lon="6.58023">
        <ele>537.20001220703</ele>
        <time>2018-05-01T14:58:44.000Z</time>
      </trkpt>
      <trkpt lat="47.28841" lon="6.58019">
        <ele>536.79998779297</ele>
        <time>2018-05-01T14:58:45.000Z</time>
      </trkpt>
      <trkpt lat="47.28848" lon="6.58018">
        <ele>536.20001220703</ele>
        <time>2018-05-01T14:58:46.000Z</time>
      </trkpt>
      <trkpt lat="47.28855" lon="6.58016">
        <ele>535.79998779297</ele>
        <time>2018-05-01T14:58:47.000Z</time>
      </trkpt>
      <trkpt lat="47.28863" lon="6.58015">
        <ele>535.20001220703</ele>
        <time>2018-05-01T14:58:48.000Z</time>
      </trkpt>
      <trkpt lat="47.28869" lon="6.58013">
        <ele>534.40002441406</ele>
        <time>2018-05-01T14:58:49.000Z</time>
      </trkpt>
      <trkpt lat="47.28883" lon="6.58007">
        <ele>532.79998779297</ele>
        <time>2018-05-01T14:58:51.000Z</time>
      </trkpt>
      <trkpt lat="47.28891" lon="6.58007">
        <ele>532</ele>
        <time>2018-05-01T14:58:52.000Z</time>
      </trkpt>
      <trkpt lat="47.28898" lon="6.58007">
        <ele>531.20001220703</ele>
        <time>2018-05-01T14:58:53.000Z</time>
      </trkpt>
      <trkpt lat="47.28911" lon="6.58009">
        <ele>529.79998779297</ele>
        <time>2018-05-01T14:58:55.000Z</time>
      </trkpt>
      <trkpt lat="47.28917" lon="6.58011">
        <ele>529.40002441406</ele>
        <time>2018-05-01T14:58:56.000Z</time>
      </trkpt>
      <trkpt lat="47.28928" lon="6.58015">
        <ele>528.59997558594</ele>
        <time>2018-05-01T14:58:58.000Z</time>
      </trkpt>
      <trkpt lat="47.28934" lon="6.58017">
        <ele>528.40002441406</ele>
        <time>2018-05-01T14:58:59.000Z</time>
      </trkpt>
      <trkpt lat="47.2894" lon="6.58018">
        <ele>528</ele>
        <time>2018-05-01T14:59:00.000Z</time>
      </trkpt>
      <trkpt lat="47.28949" lon="6.58019">
        <ele>527.20001220703</ele>
        <time>2018-05-01T14:59:02.000Z</time>
      </trkpt>
      <trkpt lat="47.28955" lon="6.58019">
        <ele>526.79998779297</ele>
        <time>2018-05-01T14:59:03.000Z</time>
      </trkpt>
      <trkpt lat="47.28982" lon="6.58026">
        <ele>525.40002441406</ele>
        <time>2018-05-01T14:59:07.000Z</time>
      </trkpt>
      <trkpt lat="47.29004" lon="6.58033">
        <ele>524.20001220703</ele>
        <time>2018-05-01T14:59:10.000Z</time>
      </trkpt>
      <trkpt lat="47.29011" lon="6.58036">
        <ele>524</ele>
        <time>2018-05-01T14:59:11.000Z</time>
      </trkpt>
      <trkpt lat="47.29018" lon="6.58042">
        <ele>523.59997558594</ele>
        <time>2018-05-01T14:59:12.000Z</time>
      </trkpt>
      <trkpt lat="47.29035" lon="6.58064">
        <ele>523.20001220703</ele>
        <time>2018-05-01T14:59:15.000Z</time>
      </trkpt>
      <trkpt lat="47.29039" lon="6.58074">
        <ele>523</ele>
        <time>2018-05-01T14:59:16.000Z</time>
      </trkpt>
      <trkpt lat="47.29054" lon="6.58103">
        <ele>522.20001220703</ele>
        <time>2018-05-01T14:59:19.000Z</time>
      </trkpt>
      <trkpt lat="47.29061" lon="6.5811">
        <ele>522</ele>
        <time>2018-05-01T14:59:20.000Z</time>
      </trkpt>
      <trkpt lat="47.29075" lon="6.58123">
        <ele>521.20001220703</ele>
        <time>2018-05-01T14:59:22.000Z</time>
      </trkpt>
      <trkpt lat="47.29083" lon="6.58127">
        <ele>520.79998779297</ele>
        <time>2018-05-01T14:59:23.000Z</time>
      </trkpt>
      <trkpt lat="47.29091" lon="6.58131">
        <ele>520.59997558594</ele>
        <time>2018-05-01T14:59:24.000Z</time>
      </trkpt>
      <trkpt lat="47.29114" lon="6.58142">
        <ele>519.79998779297</ele>
        <time>2018-05-01T14:59:27.000Z</time>
      </trkpt>
      <trkpt lat="47.29136" lon="6.58148">
        <ele>519</ele>
        <time>2018-05-01T14:59:30.000Z</time>
      </trkpt>
      <trkpt lat="47.29151" lon="6.58147">
        <ele>518.40002441406</ele>
        <time>2018-05-01T14:59:32.000Z</time>
      </trkpt>
      <trkpt lat="47.29173" lon="6.58148">
        <ele>517.59997558594</ele>
        <time>2018-05-01T14:59:35.000Z</time>
      </trkpt>
      <trkpt lat="47.29227" lon="6.58155">
        <ele>515.59997558594</ele>
        <time>2018-05-01T14:59:42.000Z</time>
      </trkpt>
      <trkpt lat="47.29234" lon="6.58157">
        <ele>515.40002441406</ele>
        <time>2018-05-01T14:59:43.000Z</time>
      </trkpt>
      <trkpt lat="47.29248" lon="6.58164">
        <ele>514.59997558594</ele>
        <time>2018-05-01T14:59:45.000Z</time>
      </trkpt>
      <trkpt lat="47.29255" lon="6.58169">
        <ele>514.20001220703</ele>
        <time>2018-05-01T14:59:46.000Z</time>
      </trkpt>
      <trkpt lat="47.29269" lon="6.58179">
        <ele>513.59997558594</ele>
        <time>2018-05-01T14:59:48.000Z</time>
      </trkpt>
      <trkpt lat="47.29305" lon="6.58204">
        <ele>511.39999389648</ele>
        <time>2018-05-01T14:59:53.000Z</time>
      </trkpt>
      <trkpt lat="47.29312" lon="6.58209">
        <ele>511</ele>
        <time>2018-05-01T14:59:54.000Z</time>
      </trkpt>
      <trkpt lat="47.29334" lon="6.58226">
        <ele>509.79998779297</ele>
        <time>2018-05-01T14:59:57.000Z</time>
      </trkpt>
      <trkpt lat="47.29348" lon="6.58237">
        <ele>509.39999389648</ele>
        <time>2018-05-01T14:59:59.000Z</time>
      </trkpt>
      <trkpt lat="47.29378" lon="6.58259">
        <ele>508</ele>
        <time>2018-05-01T15:00:03.000Z</time>
      </trkpt>
      <trkpt lat="47.29398" lon="6.58277">
        <ele>507</ele>
        <time>2018-05-01T15:00:06.000Z</time>
      </trkpt>
      <trkpt lat="47.29404" lon="6.58284">
        <ele>506.79998779297</ele>
        <time>2018-05-01T15:00:07.000Z</time>
      </trkpt>
      <trkpt lat="47.2942" lon="6.58309">
        <ele>505.79998779297</ele>
        <time>2018-05-01T15:00:10.000Z</time>
      </trkpt>
      <trkpt lat="47.29426" lon="6.58316">
        <ele>505.60000610352</ele>
        <time>2018-05-01T15:00:11.000Z</time>
      </trkpt>
      <trkpt lat="47.29456" lon="6.58348">
        <ele>504.20001220703</ele>
        <time>2018-05-01T15:00:16.000Z</time>
      </trkpt>
      <trkpt lat="47.29462" lon="6.58353">
        <ele>503.79998779297</ele>
        <time>2018-05-01T15:00:17.000Z</time>
      </trkpt>
      <trkpt lat="47.29473" lon="6.58364">
        <ele>503.39999389648</ele>
        <time>2018-05-01T15:00:19.000Z</time>
      </trkpt>
      <trkpt lat="47.29476" lon="6.58372">
        <ele>503.20001220703</ele>
        <time>2018-05-01T15:00:20.000Z</time>
      </trkpt>
      <trkpt lat="47.29478" lon="6.58402">
        <ele>502.60000610352</ele>
        <time>2018-05-01T15:00:23.000Z</time>
      </trkpt>
      <trkpt lat="47.2948" lon="6.58442">
        <ele>501.60000610352</ele>
        <time>2018-05-01T15:00:27.000Z</time>
      </trkpt>
      <trkpt lat="47.29481" lon="6.58474">
        <ele>500.79998779297</ele>
        <time>2018-05-01T15:00:30.000Z</time>
      </trkpt>
      <trkpt lat="47.29482" lon="6.58484">
        <ele>500.60000610352</ele>
        <time>2018-05-01T15:00:31.000Z</time>
      </trkpt>
      <trkpt lat="47.29484" lon="6.58514">
        <ele>499.39999389648</ele>
        <time>2018-05-01T15:00:35.000Z</time>
      </trkpt>
      <trkpt lat="47.29486" lon="6.58521">
        <ele>499</ele>
        <time>2018-05-01T15:00:36.000Z</time>
      </trkpt>
      <trkpt lat="47.29488" lon="6.58537">
        <ele>498.39999389648</ele>
        <time>2018-05-01T15:00:38.000Z</time>
      </trkpt>
      <trkpt lat="47.2949" lon="6.58554">
        <ele>497.79998779297</ele>
        <time>2018-05-01T15:00:40.000Z</time>
      </trkpt>
      <trkpt lat="47.29492" lon="6.58563">
        <ele>497.39999389648</ele>
        <time>2018-05-01T15:00:41.000Z</time>
      </trkpt>
      <trkpt lat="47.29499" lon="6.58619">
        <ele>495.79998779297</ele>
        <time>2018-05-01T15:00:47.000Z</time>
      </trkpt>
      <trkpt lat="47.295" lon="6.58639">
        <ele>495.39999389648</ele>
        <time>2018-05-01T15:00:49.000Z</time>
      </trkpt>
      <trkpt lat="47.29501" lon="6.58677">
        <ele>494.79998779297</ele>
        <time>2018-05-01T15:00:53.000Z</time>
      </trkpt>
      <trkpt lat="47.29504" lon="6.58696">
        <ele>494.79998779297</ele>
        <time>2018-05-01T15:00:55.000Z</time>
      </trkpt>
      <trkpt lat="47.29508" lon="6.58714">
        <ele>494.60000610352</ele>
        <time>2018-05-01T15:00:57.000Z</time>
      </trkpt>
      <trkpt lat="47.29509" lon="6.58724">
        <ele>494.60000610352</ele>
        <time>2018-05-01T15:00:58.000Z</time>
      </trkpt>
      <trkpt lat="47.29509" lon="6.58754">
        <ele>494.60000610352</ele>
        <time>2018-05-01T15:01:01.000Z</time>
      </trkpt>
      <trkpt lat="47.29509" lon="6.58775">
        <ele>494.79998779297</ele>
        <time>2018-05-01T15:01:03.000Z</time>
      </trkpt>
      <trkpt lat="47.29509" lon="6.58794">
        <ele>494.79998779297</ele>
        <time>2018-05-01T15:01:05.000Z</time>
      </trkpt>
      <trkpt lat="47.29508" lon="6.58814">
        <ele>494.79998779297</ele>
        <time>2018-05-01T15:01:07.000Z</time>
      </trkpt>
      <trkpt lat="47.29507" lon="6.58824">
        <ele>494.79998779297</ele>
        <time>2018-05-01T15:01:08.000Z</time>
      </trkpt>
      <trkpt lat="47.29506" lon="6.58871">
        <ele>494.20001220703</ele>
        <time>2018-05-01T15:01:13.000Z</time>
      </trkpt>
      <trkpt lat="47.29507" lon="6.58879">
        <ele>494.20001220703</ele>
        <time>2018-05-01T15:01:14.000Z</time>
      </trkpt>
      <trkpt lat="47.29511" lon="6.58916">
        <ele>494.39999389648</ele>
        <time>2018-05-01T15:01:19.000Z</time>
      </trkpt>
      <trkpt lat="47.29515" lon="6.58951">
        <ele>495.20001220703</ele>
        <time>2018-05-01T15:01:24.000Z</time>
      </trkpt>
      <trkpt lat="47.29517" lon="6.58964">
        <ele>495.39999389648</ele>
        <time>2018-05-01T15:01:26.000Z</time>
      </trkpt>
      <trkpt lat="47.29519" lon="6.58977">
        <ele>495.79998779297</ele>
        <time>2018-05-01T15:01:28.000Z</time>
      </trkpt>
      <trkpt lat="47.29524" lon="6.59023">
        <ele>497.79998779297</ele>
        <time>2018-05-01T15:01:36.000Z</time>
      </trkpt>
      <trkpt lat="47.29527" lon="6.5906">
        <ele>499</ele>
        <time>2018-05-01T15:01:43.000Z</time>
      </trkpt>
      <trkpt lat="47.29528" lon="6.59065">
        <ele>499.20001220703</ele>
        <time>2018-05-01T15:01:44.000Z</time>
      </trkpt>
      <trkpt lat="47.2953" lon="6.59079">
        <ele>500.20001220703</ele>
        <time>2018-05-01T15:01:47.000Z</time>
      </trkpt>
      <trkpt lat="47.29536" lon="6.59108">
        <ele>502.39999389648</ele>
        <time>2018-05-01T15:01:53.000Z</time>
      </trkpt>
      <trkpt lat="47.29538" lon="6.59112">
        <ele>502.60000610352</ele>
        <time>2018-05-01T15:01:54.000Z</time>
      </trkpt>
      <trkpt lat="47.29552" lon="6.59128">
        <ele>503.79998779297</ele>
        <time>2018-05-01T15:01:59.000Z</time>
      </trkpt>
      <trkpt lat="47.29555" lon="6.59129">
        <ele>504</ele>
        <time>2018-05-01T15:02:00.000Z</time>
      </trkpt>
      <trkpt lat="47.29568" lon="6.59132">
        <ele>504.39999389648</ele>
        <time>2018-05-01T15:02:04.000Z</time>
      </trkpt>
      <trkpt lat="47.29588" lon="6.59129">
        <ele>504.79998779297</ele>
        <time>2018-05-01T15:02:10.000Z</time>
      </trkpt>
      <trkpt lat="47.29614" lon="6.59122">
        <ele>506</ele>
        <time>2018-05-01T15:02:18.000Z</time>
      </trkpt>
      <trkpt lat="47.29625" lon="6.59121">
        <ele>506.39999389648</ele>
        <time>2018-05-01T15:02:21.000Z</time>
      </trkpt>
      <trkpt lat="47.29637" lon="6.59126">
        <ele>507.60000610352</ele>
        <time>2018-05-01T15:02:25.000Z</time>
      </trkpt>
      <trkpt lat="47.29642" lon="6.59132">
        <ele>508.39999389648</ele>
        <time>2018-05-01T15:02:27.000Z</time>
      </trkpt>
      <trkpt lat="47.29648" lon="6.59144">
        <ele>509.60000610352</ele>
        <time>2018-05-01T15:02:30.000Z</time>
      </trkpt>
      <trkpt lat="47.29649" lon="6.59167">
        <ele>511.79998779297</ele>
        <time>2018-05-01T15:02:35.000Z</time>
      </trkpt>
      <trkpt lat="47.29641" lon="6.59185">
        <ele>513.40002441406</ele>
        <time>2018-05-01T15:02:40.000Z</time>
      </trkpt>
      <trkpt lat="47.29621" lon="6.59204">
        <ele>514.20001220703</ele>
        <time>2018-05-01T15:02:48.000Z</time>
      </trkpt>
      <trkpt lat="47.29598" lon="6.59226">
        <ele>515.20001220703</ele>
        <time>2018-05-01T15:02:57.000Z</time>
      </trkpt>
      <trkpt lat="47.29585" lon="6.59247">
        <ele>516.59997558594</ele>
        <time>2018-05-01T15:03:03.000Z</time>
      </trkpt>
      <trkpt lat="47.29583" lon="6.5925">
        <ele>516.59997558594</ele>
        <time>2018-05-01T15:03:04.000Z</time>
      </trkpt>
      <trkpt lat="47.29575" lon="6.59265">
        <ele>517.20001220703</ele>
        <time>2018-05-01T15:03:08.000Z</time>
      </trkpt>
      <trkpt lat="47.2957" lon="6.59275">
        <ele>517.79998779297</ele>
        <time>2018-05-01T15:03:11.000Z</time>
      </trkpt>
      <trkpt lat="47.29568" lon="6.59279">
        <ele>518</ele>
        <time>2018-05-01T15:03:12.000Z</time>
      </trkpt>
      <trkpt lat="47.29563" lon="6.5929">
        <ele>518.59997558594</ele>
        <time>2018-05-01T15:03:15.000Z</time>
      </trkpt>
      <trkpt lat="47.29553" lon="6.59308">
        <ele>519.40002441406</ele>
        <time>2018-05-01T15:03:20.000Z</time>
      </trkpt>
      <trkpt lat="47.29551" lon="6.59311">
        <ele>519.40002441406</ele>
        <time>2018-05-01T15:03:21.000Z</time>
      </trkpt>
      <trkpt lat="47.29544" lon="6.59318">
        <ele>519.40002441406</ele>
        <time>2018-05-01T15:03:24.000Z</time>
      </trkpt>
      <trkpt lat="47.29543" lon="6.5932">
        <ele>519.59997558594</ele>
        <time>2018-05-01T15:03:26.000Z</time>
      </trkpt>
      <trkpt lat="47.29543" lon="6.5932">
        <ele>519.59997558594</ele>
        <time>2018-05-01T15:03:44.000Z</time>
      </trkpt>
      <trkpt lat="47.29543" lon="6.5932">
        <ele>519.59997558594</ele>
        <time>2018-05-01T15:04:00.000Z</time>
      </trkpt>
      <trkpt lat="47.29543" lon="6.59319">
        <ele>519.40002441406</ele>
        <time>2018-05-01T15:04:18.000Z</time>
      </trkpt>
      <trkpt lat="47.29541" lon="6.59323">
        <ele>520</ele>
        <time>2018-05-01T15:04:29.000Z</time>
      </trkpt>
      <trkpt lat="47.29533" lon="6.5933">
        <ele>520.59997558594</ele>
        <time>2018-05-01T15:04:33.000Z</time>
      </trkpt>
      <trkpt lat="47.2952" lon="6.59342">
        <ele>521.59997558594</ele>
        <time>2018-05-01T15:04:38.000Z</time>
      </trkpt>
      <trkpt lat="47.29515" lon="6.59346">
        <ele>521.59997558594</ele>
        <time>2018-05-01T15:04:40.000Z</time>
      </trkpt>
      <trkpt lat="47.29509" lon="6.59349">
        <ele>521.20001220703</ele>
        <time>2018-05-01T15:04:42.000Z</time>
      </trkpt>
      <trkpt lat="47.29504" lon="6.59352">
        <ele>521</ele>
        <time>2018-05-01T15:04:44.000Z</time>
      </trkpt>
      <trkpt lat="47.29499" lon="6.59355">
        <ele>520.79998779297</ele>
        <time>2018-05-01T15:04:46.000Z</time>
      </trkpt>
      <trkpt lat="47.29494" lon="6.59358">
        <ele>520.79998779297</ele>
        <time>2018-05-01T15:04:48.000Z</time>
      </trkpt>
      <trkpt lat="47.29488" lon="6.59362">
        <ele>521</ele>
        <time>2018-05-01T15:04:50.000Z</time>
      </trkpt>
      <trkpt lat="47.2948" lon="6.59367">
        <ele>521.20001220703</ele>
        <time>2018-05-01T15:04:53.000Z</time>
      </trkpt>
      <trkpt lat="47.29472" lon="6.59373">
        <ele>521.59997558594</ele>
        <time>2018-05-01T15:04:56.000Z</time>
      </trkpt>
      <trkpt lat="47.29448" lon="6.5939">
        <ele>523.79998779297</ele>
        <time>2018-05-01T15:05:05.000Z</time>
      </trkpt>
      <trkpt lat="47.2943" lon="6.59405">
        <ele>526</ele>
        <time>2018-05-01T15:05:12.000Z</time>
      </trkpt>
      <trkpt lat="47.29427" lon="6.59407">
        <ele>526.40002441406</ele>
        <time>2018-05-01T15:05:13.000Z</time>
      </trkpt>
      <trkpt lat="47.29409" lon="6.59424">
        <ele>528.59997558594</ele>
        <time>2018-05-01T15:05:20.000Z</time>
      </trkpt>
      <trkpt lat="47.29404" lon="6.59428">
        <ele>529.20001220703</ele>
        <time>2018-05-01T15:05:22.000Z</time>
      </trkpt>
      <trkpt lat="47.29394" lon="6.59438">
        <ele>530</ele>
        <time>2018-05-01T15:05:26.000Z</time>
      </trkpt>
      <trkpt lat="47.29388" lon="6.59444">
        <ele>530.79998779297</ele>
        <time>2018-05-01T15:05:28.000Z</time>
      </trkpt>
      <trkpt lat="47.29384" lon="6.5945">
        <ele>531.40002441406</ele>
        <time>2018-05-01T15:05:30.000Z</time>
      </trkpt>
      <trkpt lat="47.29373" lon="6.5946">
        <ele>532.59997558594</ele>
        <time>2018-05-01T15:05:34.000Z</time>
      </trkpt>
      <trkpt lat="47.29366" lon="6.59468">
        <ele>533.59997558594</ele>
        <time>2018-05-01T15:05:37.000Z</time>
      </trkpt>
      <trkpt lat="47.29363" lon="6.59471">
        <ele>534</ele>
        <time>2018-05-01T15:05:38.000Z</time>
      </trkpt>
      <trkpt lat="47.2936" lon="6.59474">
        <ele>534.20001220703</ele>
        <time>2018-05-01T15:05:39.000Z</time>
      </trkpt>
      <trkpt lat="47.29355" lon="6.5948">
        <ele>535</ele>
        <time>2018-05-01T15:05:41.000Z</time>
      </trkpt>
      <trkpt lat="47.29353" lon="6.59484">
        <ele>535.40002441406</ele>
        <time>2018-05-01T15:05:42.000Z</time>
      </trkpt>
      <trkpt lat="47.2935" lon="6.59487">
        <ele>536</ele>
        <time>2018-05-01T15:05:43.000Z</time>
      </trkpt>
      <trkpt lat="47.29345" lon="6.59492">
        <ele>537.40002441406</ele>
        <time>2018-05-01T15:05:45.000Z</time>
      </trkpt>
      <trkpt lat="47.2934" lon="6.59498">
        <ele>538.79998779297</ele>
        <time>2018-05-01T15:05:47.000Z</time>
      </trkpt>
      <trkpt lat="47.29333" lon="6.59506">
        <ele>540.59997558594</ele>
        <time>2018-05-01T15:05:50.000Z</time>
      </trkpt>
      <trkpt lat="47.2933" lon="6.59509">
        <ele>541.20001220703</ele>
        <time>2018-05-01T15:05:51.000Z</time>
      </trkpt>
      <trkpt lat="47.29328" lon="6.59512">
        <ele>541.59997558594</ele>
        <time>2018-05-01T15:05:52.000Z</time>
      </trkpt>
      <trkpt lat="47.29323" lon="6.59517">
        <ele>542.59997558594</ele>
        <time>2018-05-01T15:05:54.000Z</time>
      </trkpt>
      <trkpt lat="47.29316" lon="6.59525">
        <ele>543.79998779297</ele>
        <time>2018-05-01T15:05:57.000Z</time>
      </trkpt>
      <trkpt lat="47.29307" lon="6.59536">
        <ele>545.20001220703</ele>
        <time>2018-05-01T15:06:01.000Z</time>
      </trkpt>
      <trkpt lat="47.29304" lon="6.59538">
        <ele>545.79998779297</ele>
        <time>2018-05-01T15:06:02.000Z</time>
      </trkpt>
      <trkpt lat="47.29297" lon="6.59546">
        <ele>546</ele>
        <time>2018-05-01T15:06:05.000Z</time>
      </trkpt>
      <trkpt lat="47.2929" lon="6.59553">
        <ele>546</ele>
        <time>2018-05-01T15:06:08.000Z</time>
      </trkpt>
      <trkpt lat="47.29285" lon="6.59558">
        <ele>546</ele>
        <time>2018-05-01T15:06:10.000Z</time>
      </trkpt>
      <trkpt lat="47.29278" lon="6.59566">
        <ele>546</ele>
        <time>2018-05-01T15:06:13.000Z</time>
      </trkpt>
      <trkpt lat="47.29269" lon="6.59577">
        <ele>546.40002441406</ele>
        <time>2018-05-01T15:06:17.000Z</time>
      </trkpt>
      <trkpt lat="47.29264" lon="6.59582">
        <ele>546.59997558594</ele>
        <time>2018-05-01T15:06:19.000Z</time>
      </trkpt>
      <trkpt lat="47.2925" lon="6.59599">
        <ele>547.79998779297</ele>
        <time>2018-05-01T15:06:25.000Z</time>
      </trkpt>
      <trkpt lat="47.29241" lon="6.5961">
        <ele>548.79998779297</ele>
        <time>2018-05-01T15:06:29.000Z</time>
      </trkpt>
      <trkpt lat="47.29235" lon="6.59618">
        <ele>549.79998779297</ele>
        <time>2018-05-01T15:06:32.000Z</time>
      </trkpt>
      <trkpt lat="47.29226" lon="6.5963">
        <ele>551.59997558594</ele>
        <time>2018-05-01T15:06:36.000Z</time>
      </trkpt>
      <trkpt lat="47.29221" lon="6.59638">
        <ele>551.40002441406</ele>
        <time>2018-05-01T15:06:39.000Z</time>
      </trkpt>
      <trkpt lat="47.29219" lon="6.5964">
        <ele>551.40002441406</ele>
        <time>2018-05-01T15:06:40.000Z</time>
      </trkpt>
      <trkpt lat="47.29217" lon="6.59643">
        <ele>551.20001220703</ele>
        <time>2018-05-01T15:06:41.000Z</time>
      </trkpt>
      <trkpt lat="47.29212" lon="6.59649">
        <ele>551.20001220703</ele>
        <time>2018-05-01T15:06:43.000Z</time>
      </trkpt>
      <trkpt lat="47.29208" lon="6.59655">
        <ele>551</ele>
        <time>2018-05-01T15:06:45.000Z</time>
      </trkpt>
      <trkpt lat="47.29204" lon="6.5966">
        <ele>551</ele>
        <time>2018-05-01T15:06:47.000Z</time>
      </trkpt>
      <trkpt lat="47.29198" lon="6.5967">
        <ele>551.40002441406</ele>
        <time>2018-05-01T15:06:50.000Z</time>
      </trkpt>
      <trkpt lat="47.29193" lon="6.59677">
        <ele>551.79998779297</ele>
        <time>2018-05-01T15:06:52.000Z</time>
      </trkpt>
      <trkpt lat="47.29191" lon="6.5968">
        <ele>551.79998779297</ele>
        <time>2018-05-01T15:06:53.000Z</time>
      </trkpt>
      <trkpt lat="47.29181" lon="6.59698">
        <ele>552.79998779297</ele>
        <time>2018-05-01T15:06:58.000Z</time>
      </trkpt>
      <trkpt lat="47.29177" lon="6.59704">
        <ele>553</ele>
        <time>2018-05-01T15:07:00.000Z</time>
      </trkpt>
      <trkpt lat="47.29171" lon="6.59715">
        <ele>553.79998779297</ele>
        <time>2018-05-01T15:07:03.000Z</time>
      </trkpt>
      <trkpt lat="47.2916" lon="6.59736">
        <ele>555.59997558594</ele>
        <time>2018-05-01T15:07:09.000Z</time>
      </trkpt>
      <trkpt lat="47.29158" lon="6.5974">
        <ele>555.79998779297</ele>
        <time>2018-05-01T15:07:10.000Z</time>
      </trkpt>
      <trkpt lat="47.29153" lon="6.5975">
        <ele>556.79998779297</ele>
        <time>2018-05-01T15:07:13.000Z</time>
      </trkpt>
      <trkpt lat="47.29147" lon="6.59763">
        <ele>558.20001220703</ele>
        <time>2018-05-01T15:07:17.000Z</time>
      </trkpt>
      <trkpt lat="47.29145" lon="6.59766">
        <ele>558.40002441406</ele>
        <time>2018-05-01T15:07:18.000Z</time>
      </trkpt>
      <trkpt lat="47.29131" lon="6.59788">
        <ele>559.79998779297</ele>
        <time>2018-05-01T15:07:25.000Z</time>
      </trkpt>
      <trkpt lat="47.29127" lon="6.59794">
        <ele>560.20001220703</ele>
        <time>2018-05-01T15:07:27.000Z</time>
      </trkpt>
      <trkpt lat="47.29118" lon="6.59811">
        <ele>561</ele>
        <time>2018-05-01T15:07:32.000Z</time>
      </trkpt>
      <trkpt lat="47.29109" lon="6.59828">
        <ele>562.79998779297</ele>
        <time>2018-05-01T15:07:37.000Z</time>
      </trkpt>
      <trkpt lat="47.29097" lon="6.59855">
        <ele>564.40002441406</ele>
        <time>2018-05-01T15:07:45.000Z</time>
      </trkpt>
      <trkpt lat="47.29093" lon="6.59866">
        <ele>564.20001220703</ele>
        <time>2018-05-01T15:07:48.000Z</time>
      </trkpt>
      <trkpt lat="47.29091" lon="6.59874">
        <ele>564.20001220703</ele>
        <time>2018-05-01T15:07:50.000Z</time>
      </trkpt>
      <trkpt lat="47.29083" lon="6.59894">
        <ele>564.20001220703</ele>
        <time>2018-05-01T15:07:56.000Z</time>
      </trkpt>
      <trkpt lat="47.29079" lon="6.59906">
        <ele>564.59997558594</ele>
        <time>2018-05-01T15:08:00.000Z</time>
      </trkpt>
      <trkpt lat="47.29079" lon="6.59909">
        <ele>565.20001220703</ele>
        <time>2018-05-01T15:08:01.000Z</time>
      </trkpt>
      <trkpt lat="47.29079" lon="6.59912">
        <ele>565.59997558594</ele>
        <time>2018-05-01T15:08:02.000Z</time>
      </trkpt>
      <trkpt lat="47.29081" lon="6.59918">
        <ele>567.59997558594</ele>
        <time>2018-05-01T15:08:05.000Z</time>
      </trkpt>
      <trkpt lat="47.29081" lon="6.59924">
        <ele>568.59997558594</ele>
        <time>2018-05-01T15:08:08.000Z</time>
      </trkpt>
      <trkpt lat="47.29081" lon="6.5993">
        <ele>569.59997558594</ele>
        <time>2018-05-01T15:08:11.000Z</time>
      </trkpt>
      <trkpt lat="47.29081" lon="6.59941">
        <ele>571.59997558594</ele>
        <time>2018-05-01T15:08:16.000Z</time>
      </trkpt>
      <trkpt lat="47.29079" lon="6.59952">
        <ele>572.79998779297</ele>
        <time>2018-05-01T15:08:22.000Z</time>
      </trkpt>
      <trkpt lat="47.29079" lon="6.59955">
        <ele>573.40002441406</ele>
        <time>2018-05-01T15:08:23.000Z</time>
      </trkpt>
      <trkpt lat="47.29078" lon="6.59961">
        <ele>574.40002441406</ele>
        <time>2018-05-01T15:08:26.000Z</time>
      </trkpt>
      <trkpt lat="47.29078" lon="6.5997">
        <ele>575.59997558594</ele>
        <time>2018-05-01T15:08:29.000Z</time>
      </trkpt>
      <trkpt lat="47.29077" lon="6.59978">
        <ele>577</ele>
        <time>2018-05-01T15:08:32.000Z</time>
      </trkpt>
      <trkpt lat="47.29076" lon="6.59986">
        <ele>578</ele>
        <time>2018-05-01T15:08:35.000Z</time>
      </trkpt>
      <trkpt lat="47.29076" lon="6.59993">
        <ele>579</ele>
        <time>2018-05-01T15:08:38.000Z</time>
      </trkpt>
      <trkpt lat="47.29075" lon="6.59995">
        <ele>579.40002441406</ele>
        <time>2018-05-01T15:08:39.000Z</time>
      </trkpt>
      <trkpt lat="47.29074" lon="6.6">
        <ele>579.79998779297</ele>
        <time>2018-05-01T15:08:41.000Z</time>
      </trkpt>
      <trkpt lat="47.2907" lon="6.6001">
        <ele>580.40002441406</ele>
        <time>2018-05-01T15:08:45.000Z</time>
      </trkpt>
      <trkpt lat="47.29066" lon="6.60025">
        <ele>581.59997558594</ele>
        <time>2018-05-01T15:08:50.000Z</time>
      </trkpt>
      <trkpt lat="47.29065" lon="6.60028">
        <ele>581.79998779297</ele>
        <time>2018-05-01T15:08:51.000Z</time>
      </trkpt>
      <trkpt lat="47.29064" lon="6.60036">
        <ele>582.79998779297</ele>
        <time>2018-05-01T15:08:55.000Z</time>
      </trkpt>
      <trkpt lat="47.29061" lon="6.60043">
        <ele>583.40002441406</ele>
        <time>2018-05-01T15:08:58.000Z</time>
      </trkpt>
      <trkpt lat="47.29061" lon="6.60045">
        <ele>583.59997558594</ele>
        <time>2018-05-01T15:09:01.000Z</time>
      </trkpt>
      <trkpt lat="47.29061" lon="6.60046">
        <ele>584</ele>
        <time>2018-05-01T15:09:02.000Z</time>
      </trkpt>
      <trkpt lat="47.29062" lon="6.60047">
        <ele>584.40002441406</ele>
        <time>2018-05-01T15:09:03.000Z</time>
      </trkpt>
      <trkpt lat="47.29065" lon="6.60047">
        <ele>585.20001220703</ele>
        <time>2018-05-01T15:09:05.000Z</time>
      </trkpt>
      <trkpt lat="47.29066" lon="6.60047">
        <ele>585.79998779297</ele>
        <time>2018-05-01T15:09:07.000Z</time>
      </trkpt>
      <trkpt lat="47.29068" lon="6.60046">
        <ele>586</ele>
        <time>2018-05-01T15:09:08.000Z</time>
      </trkpt>
      <trkpt lat="47.29071" lon="6.60043">
        <ele>586.40002441406</ele>
        <time>2018-05-01T15:09:13.000Z</time>
      </trkpt>
      <trkpt lat="47.29077" lon="6.60038">
        <ele>587.59997558594</ele>
        <time>2018-05-01T15:09:18.000Z</time>
      </trkpt>
      <trkpt lat="47.29081" lon="6.60033">
        <ele>588</ele>
        <time>2018-05-01T15:09:21.000Z</time>
      </trkpt>
      <trkpt lat="47.29083" lon="6.60029">
        <ele>588.20001220703</ele>
        <time>2018-05-01T15:09:23.000Z</time>
      </trkpt>
      <trkpt lat="47.29084" lon="6.60028">
        <ele>588.40002441406</ele>
        <time>2018-05-01T15:09:24.000Z</time>
      </trkpt>
      <trkpt lat="47.29085" lon="6.60027">
        <ele>588.79998779297</ele>
        <time>2018-05-01T15:09:25.000Z</time>
      </trkpt>
      <trkpt lat="47.29091" lon="6.60022">
        <ele>590.40002441406</ele>
        <time>2018-05-01T15:09:30.000Z</time>
      </trkpt>
      <trkpt lat="47.29093" lon="6.60019">
        <ele>590.59997558594</ele>
        <time>2018-05-01T15:09:32.000Z</time>
      </trkpt>
      <trkpt lat="47.29096" lon="6.60014">
        <ele>591.20001220703</ele>
        <time>2018-05-01T15:09:35.000Z</time>
      </trkpt>
      <trkpt lat="47.29098" lon="6.60014">
        <ele>591.59997558594</ele>
        <time>2018-05-01T15:09:36.000Z</time>
      </trkpt>
      <trkpt lat="47.29106" lon="6.60003">
        <ele>593.40002441406</ele>
        <time>2018-05-01T15:09:44.000Z</time>
      </trkpt>
      <trkpt lat="47.2911" lon="6.59996">
        <ele>594.40002441406</ele>
        <time>2018-05-01T15:09:47.000Z</time>
      </trkpt>
      <trkpt lat="47.29113" lon="6.59992">
        <ele>594.79998779297</ele>
        <time>2018-05-01T15:09:49.000Z</time>
      </trkpt>
      <trkpt lat="47.29117" lon="6.59985">
        <ele>595.40002441406</ele>
        <time>2018-05-01T15:09:52.000Z</time>
      </trkpt>
      <trkpt lat="47.29122" lon="6.59979">
        <ele>596.40002441406</ele>
        <time>2018-05-01T15:09:55.000Z</time>
      </trkpt>
      <trkpt lat="47.29123" lon="6.59977">
        <ele>596.79998779297</ele>
        <time>2018-05-01T15:09:56.000Z</time>
      </trkpt>
      <trkpt lat="47.29128" lon="6.59969">
        <ele>597.40002441406</ele>
        <time>2018-05-01T15:09:59.000Z</time>
      </trkpt>
      <trkpt lat="47.2913" lon="6.59966">
        <ele>597.59997558594</ele>
        <time>2018-05-01T15:10:00.000Z</time>
      </trkpt>
      <trkpt lat="47.29136" lon="6.59953">
        <ele>598.20001220703</ele>
        <time>2018-05-01T15:10:04.000Z</time>
      </trkpt>
      <trkpt lat="47.2914" lon="6.59949">
        <ele>598.79998779297</ele>
        <time>2018-05-01T15:10:06.000Z</time>
      </trkpt>
      <trkpt lat="47.29148" lon="6.59937">
        <ele>599.59997558594</ele>
        <time>2018-05-01T15:10:10.000Z</time>
      </trkpt>
      <trkpt lat="47.29151" lon="6.59933">
        <ele>599.79998779297</ele>
        <time>2018-05-01T15:10:11.000Z</time>
      </trkpt>
      <trkpt lat="47.29159" lon="6.59917">
        <ele>599.59997558594</ele>
        <time>2018-05-01T15:10:15.000Z</time>
      </trkpt>
      <trkpt lat="47.29162" lon="6.59911">
        <ele>599.40002441406</ele>
        <time>2018-05-01T15:10:17.000Z</time>
      </trkpt>
      <trkpt lat="47.29166" lon="6.59905">
        <ele>600</ele>
        <time>2018-05-01T15:10:19.000Z</time>
      </trkpt>
      <trkpt lat="47.29176" lon="6.59891">
        <ele>599.59997558594</ele>
        <time>2018-05-01T15:10:24.000Z</time>
      </trkpt>
      <trkpt lat="47.29179" lon="6.59888">
        <ele>599.40002441406</ele>
        <time>2018-05-01T15:10:25.000Z</time>
      </trkpt>
      <trkpt lat="47.29197" lon="6.59865">
        <ele>599</ele>
        <time>2018-05-01T15:10:32.000Z</time>
      </trkpt>
      <trkpt lat="47.2921" lon="6.59848">
        <ele>598.79998779297</ele>
        <time>2018-05-01T15:10:36.000Z</time>
      </trkpt>
      <trkpt lat="47.29213" lon="6.59845">
        <ele>598.79998779297</ele>
        <time>2018-05-01T15:10:37.000Z</time>
      </trkpt>
      <trkpt lat="47.29236" lon="6.59821">
        <ele>599.40002441406</ele>
        <time>2018-05-01T15:10:45.000Z</time>
      </trkpt>
      <trkpt lat="47.29239" lon="6.59818">
        <ele>599.40002441406</ele>
        <time>2018-05-01T15:10:46.000Z</time>
      </trkpt>
      <trkpt lat="47.29248" lon="6.59807">
        <ele>599.40002441406</ele>
        <time>2018-05-01T15:10:49.000Z</time>
      </trkpt>
      <trkpt lat="47.29251" lon="6.59804">
        <ele>599.59997558594</ele>
        <time>2018-05-01T15:10:50.000Z</time>
      </trkpt>
      <trkpt lat="47.29254" lon="6.59801">
        <ele>600</ele>
        <time>2018-05-01T15:10:51.000Z</time>
      </trkpt>
      <trkpt lat="47.29263" lon="6.59793">
        <ele>601</ele>
        <time>2018-05-01T15:10:54.000Z</time>
      </trkpt>
      <trkpt lat="47.29271" lon="6.59785">
        <ele>601.59997558594</ele>
        <time>2018-05-01T15:10:57.000Z</time>
      </trkpt>
      <trkpt lat="47.29273" lon="6.59782">
        <ele>601.79998779297</ele>
        <time>2018-05-01T15:10:58.000Z</time>
      </trkpt>
      <trkpt lat="47.29276" lon="6.59779">
        <ele>602</ele>
        <time>2018-05-01T15:10:59.000Z</time>
      </trkpt>
      <trkpt lat="47.29282" lon="6.59773">
        <ele>602.20001220703</ele>
        <time>2018-05-01T15:11:01.000Z</time>
      </trkpt>
      <trkpt lat="47.29288" lon="6.59768">
        <ele>602.40002441406</ele>
        <time>2018-05-01T15:11:03.000Z</time>
      </trkpt>
      <trkpt lat="47.29294" lon="6.59762">
        <ele>602.40002441406</ele>
        <time>2018-05-01T15:11:05.000Z</time>
      </trkpt>
      <trkpt lat="47.29297" lon="6.59759">
        <ele>602.20001220703</ele>
        <time>2018-05-01T15:11:06.000Z</time>
      </trkpt>
      <trkpt lat="47.29306" lon="6.5975">
        <ele>602</ele>
        <time>2018-05-01T15:11:09.000Z</time>
      </trkpt>
      <trkpt lat="47.29313" lon="6.59743">
        <ele>601.79998779297</ele>
        <time>2018-05-01T15:11:11.000Z</time>
      </trkpt>
      <trkpt lat="47.2932" lon="6.59737">
        <ele>601.79998779297</ele>
        <time>2018-05-01T15:11:13.000Z</time>
      </trkpt>
      <trkpt lat="47.29326" lon="6.59731">
        <ele>602.20001220703</ele>
        <time>2018-05-01T15:11:15.000Z</time>
      </trkpt>
      <trkpt lat="47.29333" lon="6.59727">
        <ele>602.20001220703</ele>
        <time>2018-05-01T15:11:17.000Z</time>
      </trkpt>
      <trkpt lat="47.2934" lon="6.5972">
        <ele>601.79998779297</ele>
        <time>2018-05-01T15:11:19.000Z</time>
      </trkpt>
      <trkpt lat="47.29347" lon="6.59711">
        <ele>601</ele>
        <time>2018-05-01T15:11:21.000Z</time>
      </trkpt>
      <trkpt lat="47.29355" lon="6.59704">
        <ele>600.59997558594</ele>
        <time>2018-05-01T15:11:23.000Z</time>
      </trkpt>
      <trkpt lat="47.29363" lon="6.59698">
        <ele>600.20001220703</ele>
        <time>2018-05-01T15:11:25.000Z</time>
      </trkpt>
      <trkpt lat="47.29366" lon="6.59694">
        <ele>600.20001220703</ele>
        <time>2018-05-01T15:11:26.000Z</time>
      </trkpt>
      <trkpt lat="47.29388" lon="6.59678">
        <ele>598.20001220703</ele>
        <time>2018-05-01T15:11:31.000Z</time>
      </trkpt>
      <trkpt lat="47.29403" lon="6.59671">
        <ele>598.20001220703</ele>
        <time>2018-05-01T15:11:34.000Z</time>
      </trkpt>
      <trkpt lat="47.29419" lon="6.59665">
        <ele>596.79998779297</ele>
        <time>2018-05-01T15:11:37.000Z</time>
      </trkpt>
      <trkpt lat="47.29425" lon="6.59663">
        <ele>595.79998779297</ele>
        <time>2018-05-01T15:11:38.000Z</time>
      </trkpt>
      <trkpt lat="47.29452" lon="6.59654">
        <ele>591.79998779297</ele>
        <time>2018-05-01T15:11:43.000Z</time>
      </trkpt>
      <trkpt lat="47.2947" lon="6.59648">
        <ele>589</ele>
        <time>2018-05-01T15:11:46.000Z</time>
      </trkpt>
      <trkpt lat="47.29476" lon="6.59645">
        <ele>587.79998779297</ele>
        <time>2018-05-01T15:11:47.000Z</time>
      </trkpt>
      <trkpt lat="47.29482" lon="6.59642">
        <ele>586.59997558594</ele>
        <time>2018-05-01T15:11:48.000Z</time>
      </trkpt>
      <trkpt lat="47.29501" lon="6.59636">
        <ele>585</ele>
        <time>2018-05-01T15:11:51.000Z</time>
      </trkpt>
      <trkpt lat="47.29513" lon="6.59632">
        <ele>585</ele>
        <time>2018-05-01T15:11:53.000Z</time>
      </trkpt>
      <trkpt lat="47.2952" lon="6.59629">
        <ele>584.79998779297</ele>
        <time>2018-05-01T15:11:54.000Z</time>
      </trkpt>
      <trkpt lat="47.29534" lon="6.59621">
        <ele>583.79998779297</ele>
        <time>2018-05-01T15:11:56.000Z</time>
      </trkpt>
      <trkpt lat="47.29541" lon="6.59617">
        <ele>583</ele>
        <time>2018-05-01T15:11:57.000Z</time>
      </trkpt>
      <trkpt lat="47.29548" lon="6.59614">
        <ele>583</ele>
        <time>2018-05-01T15:11:58.000Z</time>
      </trkpt>
      <trkpt lat="47.29556" lon="6.59611">
        <ele>583.20001220703</ele>
        <time>2018-05-01T15:11:59.000Z</time>
      </trkpt>
      <trkpt lat="47.29563" lon="6.59609">
        <ele>583.40002441406</ele>
        <time>2018-05-01T15:12:00.000Z</time>
      </trkpt>
      <trkpt lat="47.2957" lon="6.59607">
        <ele>583.79998779297</ele>
        <time>2018-05-01T15:12:01.000Z</time>
      </trkpt>
      <trkpt lat="47.29582" lon="6.59604">
        <ele>584.40002441406</ele>
        <time>2018-05-01T15:12:03.000Z</time>
      </trkpt>
      <trkpt lat="47.29588" lon="6.59601">
        <ele>585.20001220703</ele>
        <time>2018-05-01T15:12:04.000Z</time>
      </trkpt>
      <trkpt lat="47.29594" lon="6.59599">
        <ele>586</ele>
        <time>2018-05-01T15:12:05.000Z</time>
      </trkpt>
      <trkpt lat="47.296" lon="6.59594">
        <ele>586.20001220703</ele>
        <time>2018-05-01T15:12:06.000Z</time>
      </trkpt>
      <trkpt lat="47.2961" lon="6.59584">
        <ele>585.40002441406</ele>
        <time>2018-05-01T15:12:08.000Z</time>
      </trkpt>
      <trkpt lat="47.29616" lon="6.59579">
        <ele>585</ele>
        <time>2018-05-01T15:12:09.000Z</time>
      </trkpt>
      <trkpt lat="47.29642" lon="6.59551">
        <ele>581.79998779297</ele>
        <time>2018-05-01T15:12:14.000Z</time>
      </trkpt>
      <trkpt lat="47.29652" lon="6.59546">
        <ele>582.20001220703</ele>
        <time>2018-05-01T15:12:17.000Z</time>
      </trkpt>
      <trkpt lat="47.29654" lon="6.59545">
        <ele>582.40002441406</ele>
        <time>2018-05-01T15:12:18.000Z</time>
      </trkpt>
      <trkpt lat="47.29655" lon="6.59544">
        <ele>582.40002441406</ele>
        <time>2018-05-01T15:12:19.000Z</time>
      </trkpt>
      <trkpt lat="47.2966" lon="6.59542">
        <ele>582.40002441406</ele>
        <time>2018-05-01T15:12:21.000Z</time>
      </trkpt>
      <trkpt lat="47.29675" lon="6.59536">
        <ele>584</ele>
        <time>2018-05-01T15:12:26.000Z</time>
      </trkpt>
      <trkpt lat="47.29678" lon="6.59534">
        <ele>584.20001220703</ele>
        <time>2018-05-01T15:12:27.000Z</time>
      </trkpt>
      <trkpt lat="47.29689" lon="6.59525">
        <ele>584.20001220703</ele>
        <time>2018-05-01T15:12:31.000Z</time>
      </trkpt>
      <trkpt lat="47.29708" lon="6.59517">
        <ele>585.20001220703</ele>
        <time>2018-05-01T15:12:37.000Z</time>
      </trkpt>
      <trkpt lat="47.29713" lon="6.59515">
        <ele>585.20001220703</ele>
        <time>2018-05-01T15:12:39.000Z</time>
      </trkpt>
      <trkpt lat="47.2972" lon="6.59513">
        <ele>585.79998779297</ele>
        <time>2018-05-01T15:12:41.000Z</time>
      </trkpt>
      <trkpt lat="47.29741" lon="6.59512">
        <ele>588.40002441406</ele>
        <time>2018-05-01T15:12:47.000Z</time>
      </trkpt>
      <trkpt lat="47.29744" lon="6.59511">
        <ele>588.79998779297</ele>
        <time>2018-05-01T15:12:48.000Z</time>
      </trkpt>
      <trkpt lat="47.29748" lon="6.5951">
        <ele>588.59997558594</ele>
        <time>2018-05-01T15:12:49.000Z</time>
      </trkpt>
      <trkpt lat="47.29765" lon="6.59505">
        <ele>586.59997558594</ele>
        <time>2018-05-01T15:12:53.000Z</time>
      </trkpt>
      <trkpt lat="47.29781" lon="6.59502">
        <ele>584.79998779297</ele>
        <time>2018-05-01T15:12:57.000Z</time>
      </trkpt>
      <trkpt lat="47.29785" lon="6.59502">
        <ele>584.40002441406</ele>
        <time>2018-05-01T15:12:58.000Z</time>
      </trkpt>
      <trkpt lat="47.29802" lon="6.595">
        <ele>583.20001220703</ele>
        <time>2018-05-01T15:13:02.000Z</time>
      </trkpt>
      <trkpt lat="47.29808" lon="6.59502">
        <ele>583.79998779297</ele>
        <time>2018-05-01T15:13:04.000Z</time>
      </trkpt>
      <trkpt lat="47.29816" lon="6.59505">
        <ele>584.79998779297</ele>
        <time>2018-05-01T15:13:07.000Z</time>
      </trkpt>
      <trkpt lat="47.29823" lon="6.59509">
        <ele>586.20001220703</ele>
        <time>2018-05-01T15:13:10.000Z</time>
      </trkpt>
      <trkpt lat="47.2983" lon="6.59513">
        <ele>587.59997558594</ele>
        <time>2018-05-01T15:13:13.000Z</time>
      </trkpt>
      <trkpt lat="47.29836" lon="6.59516">
        <ele>587.40002441406</ele>
        <time>2018-05-01T15:13:15.000Z</time>
      </trkpt>
      <trkpt lat="47.29843" lon="6.59519">
        <ele>587.20001220703</ele>
        <time>2018-05-01T15:13:17.000Z</time>
      </trkpt>
      <trkpt lat="47.29848" lon="6.59522">
        <ele>587</ele>
        <time>2018-05-01T15:13:18.000Z</time>
      </trkpt>
      <trkpt lat="47.29852" lon="6.59523">
        <ele>586.79998779297</ele>
        <time>2018-05-01T15:13:19.000Z</time>
      </trkpt>
      <trkpt lat="47.29867" lon="6.59532">
        <ele>587.20001220703</ele>
        <time>2018-05-01T15:13:23.000Z</time>
      </trkpt>
      <trkpt lat="47.29871" lon="6.59534">
        <ele>587.40002441406</ele>
        <time>2018-05-01T15:13:24.000Z</time>
      </trkpt>
      <trkpt lat="47.29886" lon="6.59544">
        <ele>588</ele>
        <time>2018-05-01T15:13:29.000Z</time>
      </trkpt>
      <trkpt lat="47.29893" lon="6.59549">
        <ele>588.40002441406</ele>
        <time>2018-05-01T15:13:31.000Z</time>
      </trkpt>
      <trkpt lat="47.29895" lon="6.59551">
        <ele>589</ele>
        <time>2018-05-01T15:13:32.000Z</time>
      </trkpt>
      <trkpt lat="47.29909" lon="6.59559">
        <ele>589.59997558594</ele>
        <time>2018-05-01T15:13:36.000Z</time>
      </trkpt>
      <trkpt lat="47.29924" lon="6.59571">
        <ele>591.40002441406</ele>
        <time>2018-05-01T15:13:41.000Z</time>
      </trkpt>
      <trkpt lat="47.2993" lon="6.59577">
        <ele>592.20001220703</ele>
        <time>2018-05-01T15:13:43.000Z</time>
      </trkpt>
      <trkpt lat="47.29938" lon="6.59581">
        <ele>592.59997558594</ele>
        <time>2018-05-01T15:13:45.000Z</time>
      </trkpt>
      <trkpt lat="47.29942" lon="6.59584">
        <ele>593</ele>
        <time>2018-05-01T15:13:46.000Z</time>
      </trkpt>
      <trkpt lat="47.29944" lon="6.59586">
        <ele>593.40002441406</ele>
        <time>2018-05-01T15:13:47.000Z</time>
      </trkpt>
      <trkpt lat="47.29955" lon="6.5959">
        <ele>592.79998779297</ele>
        <time>2018-05-01T15:13:49.000Z</time>
      </trkpt>
      <trkpt lat="47.29959" lon="6.59592">
        <ele>592.59997558594</ele>
        <time>2018-05-01T15:13:50.000Z</time>
      </trkpt>
      <trkpt lat="47.29963" lon="6.59593">
        <ele>592.59997558594</ele>
        <time>2018-05-01T15:13:51.000Z</time>
      </trkpt>
      <trkpt lat="47.29974" lon="6.59593">
        <ele>591</ele>
        <time>2018-05-01T15:13:53.000Z</time>
      </trkpt>
      <trkpt lat="47.29983" lon="6.59594">
        <ele>589.79998779297</ele>
        <time>2018-05-01T15:13:55.000Z</time>
      </trkpt>
      <trkpt lat="47.29987" lon="6.59597">
        <ele>590.20001220703</ele>
        <time>2018-05-01T15:13:56.000Z</time>
      </trkpt>
      <trkpt lat="47.2999" lon="6.59601">
        <ele>591</ele>
        <time>2018-05-01T15:13:57.000Z</time>
      </trkpt>
      <trkpt lat="47.29993" lon="6.59604">
        <ele>591.79998779297</ele>
        <time>2018-05-01T15:13:58.000Z</time>
      </trkpt>
      <trkpt lat="47.29996" lon="6.59609">
        <ele>592.79998779297</ele>
        <time>2018-05-01T15:13:59.000Z</time>
      </trkpt>
      <trkpt lat="47.3" lon="6.59609">
        <ele>591.79998779297</ele>
        <time>2018-05-01T15:14:00.000Z</time>
      </trkpt>
      <trkpt lat="47.30004" lon="6.59607">
        <ele>590.20001220703</ele>
        <time>2018-05-01T15:14:01.000Z</time>
      </trkpt>
      <trkpt lat="47.30009" lon="6.59605">
        <ele>588.59997558594</ele>
        <time>2018-05-01T15:14:02.000Z</time>
      </trkpt>
      <trkpt lat="47.30014" lon="6.59603">
        <ele>586.79998779297</ele>
        <time>2018-05-01T15:14:03.000Z</time>
      </trkpt>
      <trkpt lat="47.30024" lon="6.59598">
        <ele>582.59997558594</ele>
        <time>2018-05-01T15:14:05.000Z</time>
      </trkpt>
      <trkpt lat="47.30029" lon="6.59596">
        <ele>581.20001220703</ele>
        <time>2018-05-01T15:14:06.000Z</time>
      </trkpt>
      <trkpt lat="47.30032" lon="6.59594">
        <ele>579.79998779297</ele>
        <time>2018-05-01T15:14:07.000Z</time>
      </trkpt>
      <trkpt lat="47.30034" lon="6.59591">
        <ele>578.59997558594</ele>
        <time>2018-05-01T15:14:08.000Z</time>
      </trkpt>
      <trkpt lat="47.30036" lon="6.59588">
        <ele>577.40002441406</ele>
        <time>2018-05-01T15:14:09.000Z</time>
      </trkpt>
      <trkpt lat="47.30038" lon="6.59586">
        <ele>576.40002441406</ele>
        <time>2018-05-01T15:14:10.000Z</time>
      </trkpt>
      <trkpt lat="47.3004" lon="6.59585">
        <ele>575.59997558594</ele>
        <time>2018-05-01T15:14:11.000Z</time>
      </trkpt>
      <trkpt lat="47.30049" lon="6.59587">
        <ele>574.59997558594</ele>
        <time>2018-05-01T15:14:13.000Z</time>
      </trkpt>
      <trkpt lat="47.30052" lon="6.5959">
        <ele>574.79998779297</ele>
        <time>2018-05-01T15:14:14.000Z</time>
      </trkpt>
      <trkpt lat="47.30055" lon="6.59592">
        <ele>574.79998779297</ele>
        <time>2018-05-01T15:14:15.000Z</time>
      </trkpt>
      <trkpt lat="47.30057" lon="6.59595">
        <ele>575.40002441406</ele>
        <time>2018-05-01T15:14:16.000Z</time>
      </trkpt>
      <trkpt lat="47.30062" lon="6.59602">
        <ele>576.40002441406</ele>
        <time>2018-05-01T15:14:18.000Z</time>
      </trkpt>
      <trkpt lat="47.30067" lon="6.59609">
        <ele>577.59997558594</ele>
        <time>2018-05-01T15:14:20.000Z</time>
      </trkpt>
      <trkpt lat="47.30071" lon="6.59616">
        <ele>579</ele>
        <time>2018-05-01T15:14:22.000Z</time>
      </trkpt>
      <trkpt lat="47.30085" lon="6.5963">
        <ele>579.59997558594</ele>
        <time>2018-05-01T15:14:27.000Z</time>
      </trkpt>
      <trkpt lat="47.30091" lon="6.59633">
        <ele>579</ele>
        <time>2018-05-01T15:14:29.000Z</time>
      </trkpt>
      <trkpt lat="47.30099" lon="6.59636">
        <ele>577.20001220703</ele>
        <time>2018-05-01T15:14:32.000Z</time>
      </trkpt>
      <trkpt lat="47.30105" lon="6.59639">
        <ele>576</ele>
        <time>2018-05-01T15:14:34.000Z</time>
      </trkpt>
      <trkpt lat="47.30108" lon="6.59641">
        <ele>575.59997558594</ele>
        <time>2018-05-01T15:14:35.000Z</time>
      </trkpt>
      <trkpt lat="47.30117" lon="6.59646">
        <ele>574.40002441406</ele>
        <time>2018-05-01T15:14:37.000Z</time>
      </trkpt>
      <trkpt lat="47.30119" lon="6.59647">
        <ele>573.79998779297</ele>
        <time>2018-05-01T15:14:38.000Z</time>
      </trkpt>
      <trkpt lat="47.30134" lon="6.59662">
        <ele>572.20001220703</ele>
        <time>2018-05-01T15:14:43.000Z</time>
      </trkpt>
      <trkpt lat="47.30142" lon="6.59674">
        <ele>571.59997558594</ele>
        <time>2018-05-01T15:14:46.000Z</time>
      </trkpt>
      <trkpt lat="47.30149" lon="6.59685">
        <ele>571.20001220703</ele>
        <time>2018-05-01T15:14:49.000Z</time>
      </trkpt>
      <trkpt lat="47.30152" lon="6.5969">
        <ele>571</ele>
        <time>2018-05-01T15:14:50.000Z</time>
      </trkpt>
      <trkpt lat="47.30155" lon="6.59693">
        <ele>570.59997558594</ele>
        <time>2018-05-01T15:14:51.000Z</time>
      </trkpt>
      <trkpt lat="47.30159" lon="6.597">
        <ele>570.59997558594</ele>
        <time>2018-05-01T15:14:53.000Z</time>
      </trkpt>
      <trkpt lat="47.30162" lon="6.59706">
        <ele>570.59997558594</ele>
        <time>2018-05-01T15:14:55.000Z</time>
      </trkpt>
      <trkpt lat="47.30167" lon="6.59716">
        <ele>570.40002441406</ele>
        <time>2018-05-01T15:14:58.000Z</time>
      </trkpt>
      <trkpt lat="47.30173" lon="6.59735">
        <ele>570.59997558594</ele>
        <time>2018-05-01T15:15:03.000Z</time>
      </trkpt>
      <trkpt lat="47.3018" lon="6.5976">
        <ele>570.20001220703</ele>
        <time>2018-05-01T15:15:08.000Z</time>
      </trkpt>
      <trkpt lat="47.3018" lon="6.59773">
        <ele>571.59997558594</ele>
        <time>2018-05-01T15:15:10.000Z</time>
      </trkpt>
      <trkpt lat="47.30184" lon="6.59784">
        <ele>571</ele>
        <time>2018-05-01T15:15:12.000Z</time>
      </trkpt>
      <trkpt lat="47.30187" lon="6.59794">
        <ele>570.79998779297</ele>
        <time>2018-05-01T15:15:14.000Z</time>
      </trkpt>
      <trkpt lat="47.30187" lon="6.598">
        <ele>571.40002441406</ele>
        <time>2018-05-01T15:15:15.000Z</time>
      </trkpt>
      <trkpt lat="47.30192" lon="6.59819">
        <ele>571.59997558594</ele>
        <time>2018-05-01T15:15:19.000Z</time>
      </trkpt>
      <trkpt lat="47.30194" lon="6.59824">
        <ele>570.59997558594</ele>
        <time>2018-05-01T15:15:20.000Z</time>
      </trkpt>
      <trkpt lat="47.30199" lon="6.59838">
        <ele>569</ele>
        <time>2018-05-01T15:15:23.000Z</time>
      </trkpt>
      <trkpt lat="47.30201" lon="6.59843">
        <ele>568.20001220703</ele>
        <time>2018-05-01T15:15:24.000Z</time>
      </trkpt>
      <trkpt lat="47.30204" lon="6.59849">
        <ele>567.20001220703</ele>
        <time>2018-05-01T15:15:25.000Z</time>
      </trkpt>
      <trkpt lat="47.30208" lon="6.59861">
        <ele>565.59997558594</ele>
        <time>2018-05-01T15:15:27.000Z</time>
      </trkpt>
      <trkpt lat="47.30211" lon="6.59869">
        <ele>564.40002441406</ele>
        <time>2018-05-01T15:15:28.000Z</time>
      </trkpt>
      <trkpt lat="47.30216" lon="6.59885">
        <ele>562.20001220703</ele>
        <time>2018-05-01T15:15:30.000Z</time>
      </trkpt>
      <trkpt lat="47.30218" lon="6.59893">
        <ele>561.40002441406</ele>
        <time>2018-05-01T15:15:31.000Z</time>
      </trkpt>
      <trkpt lat="47.30219" lon="6.59907">
        <ele>561</ele>
        <time>2018-05-01T15:15:33.000Z</time>
      </trkpt>
      <trkpt lat="47.3022" lon="6.59917">
        <ele>561.20001220703</ele>
        <time>2018-05-01T15:15:35.000Z</time>
      </trkpt>
      <trkpt lat="47.30225" lon="6.59939">
        <ele>559.59997558594</ele>
        <time>2018-05-01T15:15:40.000Z</time>
      </trkpt>
      <trkpt lat="47.30227" lon="6.59961">
        <ele>559.20001220703</ele>
        <time>2018-05-01T15:15:43.000Z</time>
      </trkpt>
      <trkpt lat="47.30228" lon="6.5997">
        <ele>559.40002441406</ele>
        <time>2018-05-01T15:15:44.000Z</time>
      </trkpt>
      <trkpt lat="47.30229" lon="6.59983">
        <ele>559.40002441406</ele>
        <time>2018-05-01T15:15:46.000Z</time>
      </trkpt>
      <trkpt lat="47.30232" lon="6.60004">
        <ele>557</ele>
        <time>2018-05-01T15:15:49.000Z</time>
      </trkpt>
      <trkpt lat="47.30234" lon="6.60016">
        <ele>555.20001220703</ele>
        <time>2018-05-01T15:15:52.000Z</time>
      </trkpt>
      <trkpt lat="47.30234" lon="6.60016">
        <ele>555.20001220703</ele>
        <time>2018-05-01T15:15:54.000Z</time>
      </trkpt>
      <trkpt lat="47.30236" lon="6.60018">
        <ele>554</ele>
        <time>2018-05-01T15:16:01.000Z</time>
      </trkpt>
      <trkpt lat="47.30239" lon="6.60023">
        <ele>552.20001220703</ele>
        <time>2018-05-01T15:16:05.000Z</time>
      </trkpt>
      <trkpt lat="47.3024" lon="6.60025">
        <ele>551.79998779297</ele>
        <time>2018-05-01T15:16:06.000Z</time>
      </trkpt>
      <trkpt lat="47.3024" lon="6.60027">
        <ele>551.40002441406</ele>
        <time>2018-05-01T15:16:07.000Z</time>
      </trkpt>
      <trkpt lat="47.30242" lon="6.60029">
        <ele>550.79998779297</ele>
        <time>2018-05-01T15:16:08.000Z</time>
      </trkpt>
      <trkpt lat="47.30243" lon="6.60034">
        <ele>549.59997558594</ele>
        <time>2018-05-01T15:16:10.000Z</time>
      </trkpt>
      <trkpt lat="47.30245" lon="6.60036">
        <ele>548.59997558594</ele>
        <time>2018-05-01T15:16:11.000Z</time>
      </trkpt>
      <trkpt lat="47.30246" lon="6.60038">
        <ele>548</ele>
        <time>2018-05-01T15:16:12.000Z</time>
      </trkpt>
      <trkpt lat="47.3025" lon="6.60044">
        <ele>546.20001220703</ele>
        <time>2018-05-01T15:16:16.000Z</time>
      </trkpt>
      <trkpt lat="47.30256" lon="6.60053">
        <ele>543.79998779297</ele>
        <time>2018-05-01T15:16:21.000Z</time>
      </trkpt>
      <trkpt lat="47.30256" lon="6.60055">
        <ele>543.79998779297</ele>
        <time>2018-05-01T15:16:26.000Z</time>
      </trkpt>
      <trkpt lat="47.30255" lon="6.60057">
        <ele>543.79998779297</ele>
        <time>2018-05-01T15:16:27.000Z</time>
      </trkpt>
      <trkpt lat="47.30255" lon="6.60061">
        <ele>543.59997558594</ele>
        <time>2018-05-01T15:16:29.000Z</time>
      </trkpt>
      <trkpt lat="47.30254" lon="6.60067">
        <ele>543.59997558594</ele>
        <time>2018-05-01T15:16:31.000Z</time>
      </trkpt>
      <trkpt lat="47.30251" lon="6.60074">
        <ele>544.20001220703</ele>
        <time>2018-05-01T15:16:33.000Z</time>
      </trkpt>
      <trkpt lat="47.30246" lon="6.60086">
        <ele>544</ele>
        <time>2018-05-01T15:16:36.000Z</time>
      </trkpt>
      <trkpt lat="47.30244" lon="6.6009">
        <ele>544.20001220703</ele>
        <time>2018-05-01T15:16:37.000Z</time>
      </trkpt>
      <trkpt lat="47.30239" lon="6.60105">
        <ele>544.20001220703</ele>
        <time>2018-05-01T15:16:42.000Z</time>
      </trkpt>
      <trkpt lat="47.30235" lon="6.60121">
        <ele>544</ele>
        <time>2018-05-01T15:16:46.000Z</time>
      </trkpt>
      <trkpt lat="47.30234" lon="6.60124">
        <ele>544</ele>
        <time>2018-05-01T15:16:47.000Z</time>
      </trkpt>
      <trkpt lat="47.30227" lon="6.60146">
        <ele>544</ele>
        <time>2018-05-01T15:16:52.000Z</time>
      </trkpt>
      <trkpt lat="47.30221" lon="6.60172">
        <ele>543.79998779297</ele>
        <time>2018-05-01T15:16:57.000Z</time>
      </trkpt>
      <trkpt lat="47.30211" lon="6.602">
        <ele>544.40002441406</ele>
        <time>2018-05-01T15:17:02.000Z</time>
      </trkpt>
      <trkpt lat="47.30196" lon="6.60238">
        <ele>545.40002441406</ele>
        <time>2018-05-01T15:17:09.000Z</time>
      </trkpt>
      <trkpt lat="47.30186" lon="6.60265">
        <ele>546.40002441406</ele>
        <time>2018-05-01T15:17:15.000Z</time>
      </trkpt>
      <trkpt lat="47.3018" lon="6.60283">
        <ele>545.59997558594</ele>
        <time>2018-05-01T15:17:19.000Z</time>
      </trkpt>
      <trkpt lat="47.30169" lon="6.60309">
        <ele>544.79998779297</ele>
        <time>2018-05-01T15:17:24.000Z</time>
      </trkpt>
      <trkpt lat="47.30159" lon="6.60325">
        <ele>545.59997558594</ele>
        <time>2018-05-01T15:17:28.000Z</time>
      </trkpt>
      <trkpt lat="47.30145" lon="6.60345">
        <ele>547</ele>
        <time>2018-05-01T15:17:33.000Z</time>
      </trkpt>
      <trkpt lat="47.30135" lon="6.60358">
        <ele>548.40002441406</ele>
        <time>2018-05-01T15:17:38.000Z</time>
      </trkpt>
      <trkpt lat="47.30125" lon="6.60368">
        <ele>550</ele>
        <time>2018-05-01T15:17:43.000Z</time>
      </trkpt>
      <trkpt lat="47.3012" lon="6.60376">
        <ele>550</ele>
        <time>2018-05-01T15:17:46.000Z</time>
      </trkpt>
      <trkpt lat="47.30112" lon="6.60382">
        <ele>551.20001220703</ele>
        <time>2018-05-01T15:17:49.000Z</time>
      </trkpt>
      <trkpt lat="47.3011" lon="6.60384">
        <ele>551.59997558594</ele>
        <time>2018-05-01T15:17:50.000Z</time>
      </trkpt>
      <trkpt lat="47.30102" lon="6.60391">
        <ele>552.59997558594</ele>
        <time>2018-05-01T15:17:54.000Z</time>
      </trkpt>
      <trkpt lat="47.30098" lon="6.60394">
        <ele>553.20001220703</ele>
        <time>2018-05-01T15:17:56.000Z</time>
      </trkpt>
      <trkpt lat="47.30094" lon="6.60396">
        <ele>554.40002441406</ele>
        <time>2018-05-01T15:17:59.000Z</time>
      </trkpt>
      <trkpt lat="47.30092" lon="6.60397">
        <ele>554.59997558594</ele>
        <time>2018-05-01T15:18:00.000Z</time>
      </trkpt>
      <trkpt lat="47.30087" lon="6.60401">
        <ele>555.59997558594</ele>
        <time>2018-05-01T15:18:02.000Z</time>
      </trkpt>
      <trkpt lat="47.30082" lon="6.60405">
        <ele>556.40002441406</ele>
        <time>2018-05-01T15:18:04.000Z</time>
      </trkpt>
      <trkpt lat="47.30079" lon="6.60408">
        <ele>556.40002441406</ele>
        <time>2018-05-01T15:18:05.000Z</time>
      </trkpt>
      <trkpt lat="47.30068" lon="6.6042">
        <ele>555.79998779297</ele>
        <time>2018-05-01T15:18:08.000Z</time>
      </trkpt>
      <trkpt lat="47.30065" lon="6.60424">
        <ele>555.40002441406</ele>
        <time>2018-05-01T15:18:09.000Z</time>
      </trkpt>
      <trkpt lat="47.30053" lon="6.60435">
        <ele>555.59997558594</ele>
        <time>2018-05-01T15:18:13.000Z</time>
      </trkpt>
      <trkpt lat="47.30038" lon="6.60446">
        <ele>556.20001220703</ele>
        <time>2018-05-01T15:18:18.000Z</time>
      </trkpt>
      <trkpt lat="47.3002" lon="6.60457">
        <ele>558.20001220703</ele>
        <time>2018-05-01T15:18:23.000Z</time>
      </trkpt>
      <trkpt lat="47.30005" lon="6.60467">
        <ele>559</ele>
        <time>2018-05-01T15:18:28.000Z</time>
      </trkpt>
      <trkpt lat="47.30002" lon="6.6047">
        <ele>559</ele>
        <time>2018-05-01T15:18:29.000Z</time>
      </trkpt>
      <trkpt lat="47.29988" lon="6.60479">
        <ele>559.20001220703</ele>
        <time>2018-05-01T15:18:34.000Z</time>
      </trkpt>
      <trkpt lat="47.29977" lon="6.60483">
        <ele>559.40002441406</ele>
        <time>2018-05-01T15:18:38.000Z</time>
      </trkpt>
      <trkpt lat="47.29972" lon="6.60487">
        <ele>558.59997558594</ele>
        <time>2018-05-01T15:18:39.000Z</time>
      </trkpt>
      <trkpt lat="47.29961" lon="6.60496">
        <ele>557.40002441406</ele>
        <time>2018-05-01T15:18:42.000Z</time>
      </trkpt>
      <trkpt lat="47.29957" lon="6.60497">
        <ele>557.40002441406</ele>
        <time>2018-05-01T15:18:43.000Z</time>
      </trkpt>
      <trkpt lat="47.29947" lon="6.60503">
        <ele>557</ele>
        <time>2018-05-01T15:18:46.000Z</time>
      </trkpt>
      <trkpt lat="47.29942" lon="6.60507">
        <ele>556.59997558594</ele>
        <time>2018-05-01T15:18:47.000Z</time>
      </trkpt>
      <trkpt lat="47.29937" lon="6.60509">
        <ele>556.40002441406</ele>
        <time>2018-05-01T15:18:48.000Z</time>
      </trkpt>
      <trkpt lat="47.2993" lon="6.60512">
        <ele>556.40002441406</ele>
        <time>2018-05-01T15:18:50.000Z</time>
      </trkpt>
      <trkpt lat="47.2992" lon="6.60517">
        <ele>555.79998779297</ele>
        <time>2018-05-01T15:18:53.000Z</time>
      </trkpt>
      <trkpt lat="47.29914" lon="6.6052">
        <ele>555.59997558594</ele>
        <time>2018-05-01T15:18:55.000Z</time>
      </trkpt>
      <trkpt lat="47.29901" lon="6.60524">
        <ele>555.79998779297</ele>
        <time>2018-05-01T15:18:59.000Z</time>
      </trkpt>
      <trkpt lat="47.29898" lon="6.60526">
        <ele>555.59997558594</ele>
        <time>2018-05-01T15:19:00.000Z</time>
      </trkpt>
      <trkpt lat="47.29894" lon="6.60527">
        <ele>555.79998779297</ele>
        <time>2018-05-01T15:19:01.000Z</time>
      </trkpt>
      <trkpt lat="47.29888" lon="6.60529">
        <ele>555.79998779297</ele>
        <time>2018-05-01T15:19:03.000Z</time>
      </trkpt>
      <trkpt lat="47.29884" lon="6.60531">
        <ele>555.79998779297</ele>
        <time>2018-05-01T15:19:04.000Z</time>
      </trkpt>
      <trkpt lat="47.29876" lon="6.60534">
        <ele>555.40002441406</ele>
        <time>2018-05-01T15:19:06.000Z</time>
      </trkpt>
      <trkpt lat="47.29863" lon="6.60542">
        <ele>554.59997558594</ele>
        <time>2018-05-01T15:19:09.000Z</time>
      </trkpt>
      <trkpt lat="47.29854" lon="6.60547">
        <ele>553.59997558594</ele>
        <time>2018-05-01T15:19:11.000Z</time>
      </trkpt>
      <trkpt lat="47.29849" lon="6.6055">
        <ele>553.20001220703</ele>
        <time>2018-05-01T15:19:12.000Z</time>
      </trkpt>
      <trkpt lat="47.29834" lon="6.60558">
        <ele>552.20001220703</ele>
        <time>2018-05-01T15:19:16.000Z</time>
      </trkpt>
      <trkpt lat="47.29827" lon="6.60562">
        <ele>552</ele>
        <time>2018-05-01T15:19:18.000Z</time>
      </trkpt>
      <trkpt lat="47.29818" lon="6.60565">
        <ele>552.40002441406</ele>
        <time>2018-05-01T15:19:20.000Z</time>
      </trkpt>
      <trkpt lat="47.29809" lon="6.60571">
        <ele>552.59997558594</ele>
        <time>2018-05-01T15:19:22.000Z</time>
      </trkpt>
      <trkpt lat="47.29805" lon="6.60572">
        <ele>553</ele>
        <time>2018-05-01T15:19:23.000Z</time>
      </trkpt>
      <trkpt lat="47.29796" lon="6.60576">
        <ele>553.79998779297</ele>
        <time>2018-05-01T15:19:25.000Z</time>
      </trkpt>
      <trkpt lat="47.29783" lon="6.60587">
        <ele>553.79998779297</ele>
        <time>2018-05-01T15:19:28.000Z</time>
      </trkpt>
      <trkpt lat="47.29779" lon="6.6059">
        <ele>553.79998779297</ele>
        <time>2018-05-01T15:19:29.000Z</time>
      </trkpt>
      <trkpt lat="47.29774" lon="6.60594">
        <ele>553.59997558594</ele>
        <time>2018-05-01T15:19:30.000Z</time>
      </trkpt>
      <trkpt lat="47.29768" lon="6.60599">
        <ele>553.40002441406</ele>
        <time>2018-05-01T15:19:32.000Z</time>
      </trkpt>
      <trkpt lat="47.29767" lon="6.606">
        <ele>553.40002441406</ele>
        <time>2018-05-01T15:19:33.000Z</time>
      </trkpt>
      <trkpt lat="47.29765" lon="6.60601">
        <ele>553.20001220703</ele>
        <time>2018-05-01T15:19:34.000Z</time>
      </trkpt>
      <trkpt lat="47.29761" lon="6.60604">
        <ele>553.40002441406</ele>
        <time>2018-05-01T15:19:36.000Z</time>
      </trkpt>
      <trkpt lat="47.29757" lon="6.60607">
        <ele>553.20001220703</ele>
        <time>2018-05-01T15:19:38.000Z</time>
      </trkpt>
      <trkpt lat="47.29756" lon="6.60613">
        <ele>552</ele>
        <time>2018-05-01T15:19:40.000Z</time>
      </trkpt>
      <trkpt lat="47.29755" lon="6.60625">
        <ele>549</ele>
        <time>2018-05-01T15:19:43.000Z</time>
      </trkpt>
      <trkpt lat="47.29754" lon="6.6063">
        <ele>547.59997558594</ele>
        <time>2018-05-01T15:19:44.000Z</time>
      </trkpt>
      <trkpt lat="47.29751" lon="6.60637">
        <ele>546.40002441406</ele>
        <time>2018-05-01T15:19:45.000Z</time>
      </trkpt>
      <trkpt lat="47.29745" lon="6.60648">
        <ele>544.40002441406</ele>
        <time>2018-05-01T15:19:47.000Z</time>
      </trkpt>
      <trkpt lat="47.29728" lon="6.60687">
        <ele>546</ele>
        <time>2018-05-01T15:19:53.000Z</time>
      </trkpt>
      <trkpt lat="47.2971" lon="6.6073">
        <ele>544.79998779297</ele>
        <time>2018-05-01T15:19:59.000Z</time>
      </trkpt>
      <trkpt lat="47.29701" lon="6.60747">
        <ele>545.59997558594</ele>
        <time>2018-05-01T15:20:02.000Z</time>
      </trkpt>
      <trkpt lat="47.29696" lon="6.60757">
        <ele>546.20001220703</ele>
        <time>2018-05-01T15:20:04.000Z</time>
      </trkpt>
      <trkpt lat="47.29688" lon="6.60774">
        <ele>546</ele>
        <time>2018-05-01T15:20:07.000Z</time>
      </trkpt>
      <trkpt lat="47.29676" lon="6.60796">
        <ele>544.79998779297</ele>
        <time>2018-05-01T15:20:11.000Z</time>
      </trkpt>
      <trkpt lat="47.29671" lon="6.60804">
        <ele>544.79998779297</ele>
        <time>2018-05-01T15:20:13.000Z</time>
      </trkpt>
      <trkpt lat="47.29664" lon="6.60815">
        <ele>544.59997558594</ele>
        <time>2018-05-01T15:20:16.000Z</time>
      </trkpt>
      <trkpt lat="47.29658" lon="6.60823">
        <ele>545.20001220703</ele>
        <time>2018-05-01T15:20:18.000Z</time>
      </trkpt>
      <trkpt lat="47.2965" lon="6.60835">
        <ele>546.20001220703</ele>
        <time>2018-05-01T15:20:21.000Z</time>
      </trkpt>
      <trkpt lat="47.29641" lon="6.60846">
        <ele>547.79998779297</ele>
        <time>2018-05-01T15:20:24.000Z</time>
      </trkpt>
      <trkpt lat="47.29635" lon="6.60851">
        <ele>549</ele>
        <time>2018-05-01T15:20:26.000Z</time>
      </trkpt>
      <trkpt lat="47.2963" lon="6.60855">
        <ele>550.20001220703</ele>
        <time>2018-05-01T15:20:28.000Z</time>
      </trkpt>
      <trkpt lat="47.29622" lon="6.60863">
        <ele>551.40002441406</ele>
        <time>2018-05-01T15:20:31.000Z</time>
      </trkpt>
      <trkpt lat="47.29608" lon="6.60877">
        <ele>550.40002441406</ele>
        <time>2018-05-01T15:20:35.000Z</time>
      </trkpt>
      <trkpt lat="47.29604" lon="6.60881">
        <ele>550</ele>
        <time>2018-05-01T15:20:36.000Z</time>
      </trkpt>
      <trkpt lat="47.29591" lon="6.6089">
        <ele>550</ele>
        <time>2018-05-01T15:20:39.000Z</time>
      </trkpt>
      <trkpt lat="47.29571" lon="6.60902">
        <ele>550.79998779297</ele>
        <time>2018-05-01T15:20:44.000Z</time>
      </trkpt>
      <trkpt lat="47.29561" lon="6.60909">
        <ele>551.40002441406</ele>
        <time>2018-05-01T15:20:46.000Z</time>
      </trkpt>
      <trkpt lat="47.29551" lon="6.60915">
        <ele>552.20001220703</ele>
        <time>2018-05-01T15:20:49.000Z</time>
      </trkpt>
      <trkpt lat="47.29536" lon="6.60925">
        <ele>553.20001220703</ele>
        <time>2018-05-01T15:20:54.000Z</time>
      </trkpt>
      <trkpt lat="47.29528" lon="6.60932">
        <ele>553.40002441406</ele>
        <time>2018-05-01T15:20:57.000Z</time>
      </trkpt>
      <trkpt lat="47.29523" lon="6.60935">
        <ele>553.40002441406</ele>
        <time>2018-05-01T15:20:59.000Z</time>
      </trkpt>
      <trkpt lat="47.29518" lon="6.60934">
        <ele>554.20001220703</ele>
        <time>2018-05-01T15:21:01.000Z</time>
      </trkpt>
      <trkpt lat="47.29512" lon="6.60936">
        <ele>554.59997558594</ele>
        <time>2018-05-01T15:21:04.000Z</time>
      </trkpt>
      <trkpt lat="47.29509" lon="6.60936">
        <ele>555.40002441406</ele>
        <time>2018-05-01T15:21:06.000Z</time>
      </trkpt>
      <trkpt lat="47.29506" lon="6.60935">
        <ele>556</ele>
        <time>2018-05-01T15:21:08.000Z</time>
      </trkpt>
      <trkpt lat="47.29503" lon="6.60935">
        <ele>556.20001220703</ele>
        <time>2018-05-01T15:21:09.000Z</time>
      </trkpt>
      <trkpt lat="47.29501" lon="6.60935">
        <ele>556.79998779297</ele>
        <time>2018-05-01T15:21:10.000Z</time>
      </trkpt>
      <trkpt lat="47.29499" lon="6.60934">
        <ele>557.20001220703</ele>
        <time>2018-05-01T15:21:11.000Z</time>
      </trkpt>
      <trkpt lat="47.29495" lon="6.60935">
        <ele>557.40002441406</ele>
        <time>2018-05-01T15:21:13.000Z</time>
      </trkpt>
      <trkpt lat="47.29491" lon="6.60936">
        <ele>557.40002441406</ele>
        <time>2018-05-01T15:21:15.000Z</time>
      </trkpt>
      <trkpt lat="47.29487" lon="6.60936">
        <ele>557.40002441406</ele>
        <time>2018-05-01T15:21:17.000Z</time>
      </trkpt>
      <trkpt lat="47.29486" lon="6.60935">
        <ele>557.59997558594</ele>
        <time>2018-05-01T15:21:18.000Z</time>
      </trkpt>
      <trkpt lat="47.29476" lon="6.60932">
        <ele>558.59997558594</ele>
        <time>2018-05-01T15:21:24.000Z</time>
      </trkpt>
      <trkpt lat="47.29464" lon="6.60928">
        <ele>560.20001220703</ele>
        <time>2018-05-01T15:21:30.000Z</time>
      </trkpt>
      <trkpt lat="47.29452" lon="6.60923">
        <ele>562.20001220703</ele>
        <time>2018-05-01T15:21:35.000Z</time>
      </trkpt>
      <trkpt lat="47.2944" lon="6.60918">
        <ele>563.79998779297</ele>
        <time>2018-05-01T15:21:39.000Z</time>
      </trkpt>
      <trkpt lat="47.29438" lon="6.60918">
        <ele>563.79998779297</ele>
        <time>2018-05-01T15:21:40.000Z</time>
      </trkpt>
      <trkpt lat="47.2942" lon="6.6091">
        <ele>566.59997558594</ele>
        <time>2018-05-01T15:21:46.000Z</time>
      </trkpt>
      <trkpt lat="47.29405" lon="6.60905">
        <ele>569.20001220703</ele>
        <time>2018-05-01T15:21:51.000Z</time>
      </trkpt>
      <trkpt lat="47.29402" lon="6.60904">
        <ele>569.79998779297</ele>
        <time>2018-05-01T15:21:52.000Z</time>
      </trkpt>
      <trkpt lat="47.29396" lon="6.60903">
        <ele>571</ele>
        <time>2018-05-01T15:21:54.000Z</time>
      </trkpt>
      <trkpt lat="47.29389" lon="6.609">
        <ele>572.40002441406</ele>
        <time>2018-05-01T15:21:57.000Z</time>
      </trkpt>
      <trkpt lat="47.29387" lon="6.609">
        <ele>572.79998779297</ele>
        <time>2018-05-01T15:21:58.000Z</time>
      </trkpt>
      <trkpt lat="47.29375" lon="6.60898">
        <ele>574.59997558594</ele>
        <time>2018-05-01T15:22:04.000Z</time>
      </trkpt>
      <trkpt lat="47.29371" lon="6.60896">
        <ele>575.40002441406</ele>
        <time>2018-05-01T15:22:06.000Z</time>
      </trkpt>
      <trkpt lat="47.29365" lon="6.60895">
        <ele>576.40002441406</ele>
        <time>2018-05-01T15:22:09.000Z</time>
      </trkpt>
      <trkpt lat="47.29364" lon="6.60895">
        <ele>576.79998779297</ele>
        <time>2018-05-01T15:22:10.000Z</time>
      </trkpt>
      <trkpt lat="47.29355" lon="6.60892">
        <ele>578.40002441406</ele>
        <time>2018-05-01T15:22:16.000Z</time>
      </trkpt>
      <trkpt lat="47.29346" lon="6.60888">
        <ele>580.20001220703</ele>
        <time>2018-05-01T15:22:22.000Z</time>
      </trkpt>
      <trkpt lat="47.29338" lon="6.60887">
        <ele>581.40002441406</ele>
        <time>2018-05-01T15:22:27.000Z</time>
      </trkpt>
      <trkpt lat="47.29335" lon="6.60888">
        <ele>581.59997558594</ele>
        <time>2018-05-01T15:22:29.000Z</time>
      </trkpt>
      <trkpt lat="47.29333" lon="6.6089">
        <ele>581.40002441406</ele>
        <time>2018-05-01T15:22:31.000Z</time>
      </trkpt>
      <trkpt lat="47.29327" lon="6.60898">
        <ele>581</ele>
        <time>2018-05-01T15:22:34.000Z</time>
      </trkpt>
      <trkpt lat="47.29326" lon="6.60901">
        <ele>581.20001220703</ele>
        <time>2018-05-01T15:22:35.000Z</time>
      </trkpt>
      <trkpt lat="47.29324" lon="6.60906">
        <ele>581.20001220703</ele>
        <time>2018-05-01T15:22:37.000Z</time>
      </trkpt>
      <trkpt lat="47.29323" lon="6.6092">
        <ele>579.59997558594</ele>
        <time>2018-05-01T15:22:40.000Z</time>
      </trkpt>
      <trkpt lat="47.29325" lon="6.60944">
        <ele>575</ele>
        <time>2018-05-01T15:22:45.000Z</time>
      </trkpt>
      <trkpt lat="47.29325" lon="6.60958">
        <ele>573</ele>
        <time>2018-05-01T15:22:47.000Z</time>
      </trkpt>
      <trkpt lat="47.29325" lon="6.60965">
        <ele>571.79998779297</ele>
        <time>2018-05-01T15:22:48.000Z</time>
      </trkpt>
      <trkpt lat="47.29326" lon="6.60977">
        <ele>569.59997558594</ele>
        <time>2018-05-01T15:22:50.000Z</time>
      </trkpt>
      <trkpt lat="47.29327" lon="6.6101">
        <ele>568.59997558594</ele>
        <time>2018-05-01T15:22:56.000Z</time>
      </trkpt>
      <trkpt lat="47.29326" lon="6.61041">
        <ele>570.20001220703</ele>
        <time>2018-05-01T15:23:00.000Z</time>
      </trkpt>
      <trkpt lat="47.29327" lon="6.61046">
        <ele>569.79998779297</ele>
        <time>2018-05-01T15:23:01.000Z</time>
      </trkpt>
      <trkpt lat="47.29332" lon="6.61056">
        <ele>568.20001220703</ele>
        <time>2018-05-01T15:23:04.000Z</time>
      </trkpt>
      <trkpt lat="47.29344" lon="6.61064">
        <ele>564.79998779297</ele>
        <time>2018-05-01T15:23:09.000Z</time>
      </trkpt>
      <trkpt lat="47.29347" lon="6.61065">
        <ele>563.79998779297</ele>
        <time>2018-05-01T15:23:10.000Z</time>
      </trkpt>
      <trkpt lat="47.29348" lon="6.61065">
        <ele>563.40002441406</ele>
        <time>2018-05-01T15:23:11.000Z</time>
      </trkpt>
      <trkpt lat="47.29352" lon="6.61067">
        <ele>562.20001220703</ele>
        <time>2018-05-01T15:23:15.000Z</time>
      </trkpt>
      <trkpt lat="47.29352" lon="6.61067">
        <ele>562.20001220703</ele>
        <time>2018-05-01T15:23:26.000Z</time>
      </trkpt>
      <trkpt lat="47.29352" lon="6.61067">
        <ele>562.20001220703</ele>
        <time>2018-05-01T15:23:45.000Z</time>
      </trkpt>
      <trkpt lat="47.29352" lon="6.61066">
        <ele>562.20001220703</ele>
        <time>2018-05-01T15:24:02.000Z</time>
      </trkpt>
      <trkpt lat="47.29353" lon="6.61067">
        <ele>562.20001220703</ele>
        <time>2018-05-01T15:24:04.000Z</time>
      </trkpt>
      <trkpt lat="47.29365" lon="6.61067">
        <ele>558.59997558594</ele>
        <time>2018-05-01T15:24:07.000Z</time>
      </trkpt>
      <trkpt lat="47.29373" lon="6.6107">
        <ele>556</ele>
        <time>2018-05-01T15:24:09.000Z</time>
      </trkpt>
      <trkpt lat="47.29384" lon="6.61075">
        <ele>553.20001220703</ele>
        <time>2018-05-01T15:24:12.000Z</time>
      </trkpt>
      <trkpt lat="47.29388" lon="6.61077">
        <ele>552</ele>
        <time>2018-05-01T15:24:13.000Z</time>
      </trkpt>
      <trkpt lat="47.29403" lon="6.61085">
        <ele>547.79998779297</ele>
        <time>2018-05-01T15:24:17.000Z</time>
      </trkpt>
      <trkpt lat="47.29408" lon="6.61087">
        <ele>546.40002441406</ele>
        <time>2018-05-01T15:24:18.000Z</time>
      </trkpt>
      <trkpt lat="47.29418" lon="6.61091">
        <ele>544.20001220703</ele>
        <time>2018-05-01T15:24:20.000Z</time>
      </trkpt>
      <trkpt lat="47.29423" lon="6.61093">
        <ele>543.40002441406</ele>
        <time>2018-05-01T15:24:21.000Z</time>
      </trkpt>
      <trkpt lat="47.29429" lon="6.61093">
        <ele>542.20001220703</ele>
        <time>2018-05-01T15:24:22.000Z</time>
      </trkpt>
      <trkpt lat="47.29443" lon="6.61091">
        <ele>540.20001220703</ele>
        <time>2018-05-01T15:24:24.000Z</time>
      </trkpt>
      <trkpt lat="47.29449" lon="6.61089">
        <ele>539.59997558594</ele>
        <time>2018-05-01T15:24:25.000Z</time>
      </trkpt>
      <trkpt lat="47.29455" lon="6.61088">
        <ele>539</ele>
        <time>2018-05-01T15:24:26.000Z</time>
      </trkpt>
      <trkpt lat="47.29469" lon="6.61084">
        <ele>537.59997558594</ele>
        <time>2018-05-01T15:24:28.000Z</time>
      </trkpt>
      <trkpt lat="47.29484" lon="6.6108">
        <ele>536.20001220703</ele>
        <time>2018-05-01T15:24:30.000Z</time>
      </trkpt>
      <trkpt lat="47.29491" lon="6.61078">
        <ele>535.40002441406</ele>
        <time>2018-05-01T15:24:31.000Z</time>
      </trkpt>
      <trkpt lat="47.29498" lon="6.61076">
        <ele>534.79998779297</ele>
        <time>2018-05-01T15:24:32.000Z</time>
      </trkpt>
      <trkpt lat="47.29513" lon="6.61071">
        <ele>533.40002441406</ele>
        <time>2018-05-01T15:24:34.000Z</time>
      </trkpt>
      <trkpt lat="47.29527" lon="6.61066">
        <ele>532.20001220703</ele>
        <time>2018-05-01T15:24:36.000Z</time>
      </trkpt>
      <trkpt lat="47.29541" lon="6.61063">
        <ele>531.40002441406</ele>
        <time>2018-05-01T15:24:38.000Z</time>
      </trkpt>
      <trkpt lat="47.29555" lon="6.61059">
        <ele>530.40002441406</ele>
        <time>2018-05-01T15:24:40.000Z</time>
      </trkpt>
      <trkpt lat="47.29565" lon="6.61054">
        <ele>530</ele>
        <time>2018-05-01T15:24:42.000Z</time>
      </trkpt>
      <trkpt lat="47.29576" lon="6.61046">
        <ele>529</ele>
        <time>2018-05-01T15:24:44.000Z</time>
      </trkpt>
      <trkpt lat="47.29588" lon="6.61035">
        <ele>528.40002441406</ele>
        <time>2018-05-01T15:24:46.000Z</time>
      </trkpt>
      <trkpt lat="47.29599" lon="6.61023">
        <ele>528.20001220703</ele>
        <time>2018-05-01T15:24:48.000Z</time>
      </trkpt>
      <trkpt lat="47.2961" lon="6.61009">
        <ele>527.79998779297</ele>
        <time>2018-05-01T15:24:50.000Z</time>
      </trkpt>
      <trkpt lat="47.29622" lon="6.60996">
        <ele>526.79998779297</ele>
        <time>2018-05-01T15:24:52.000Z</time>
      </trkpt>
      <trkpt lat="47.29643" lon="6.60977">
        <ele>526.20001220703</ele>
        <time>2018-05-01T15:24:55.000Z</time>
      </trkpt>
      <trkpt lat="47.29662" lon="6.60956">
        <ele>525</ele>
        <time>2018-05-01T15:24:58.000Z</time>
      </trkpt>
      <trkpt lat="47.29669" lon="6.60949">
        <ele>525.20001220703</ele>
        <time>2018-05-01T15:24:59.000Z</time>
      </trkpt>
      <trkpt lat="47.297" lon="6.60916">
        <ele>525.40002441406</ele>
        <time>2018-05-01T15:25:04.000Z</time>
      </trkpt>
      <trkpt lat="47.29706" lon="6.6091">
        <ele>524.59997558594</ele>
        <time>2018-05-01T15:25:05.000Z</time>
      </trkpt>
      <trkpt lat="47.29723" lon="6.60893">
        <ele>523.59997558594</ele>
        <time>2018-05-01T15:25:08.000Z</time>
      </trkpt>
      <trkpt lat="47.29747" lon="6.60875">
        <ele>519.40002441406</ele>
        <time>2018-05-01T15:25:12.000Z</time>
      </trkpt>
      <trkpt lat="47.29776" lon="6.60858">
        <ele>519.20001220703</ele>
        <time>2018-05-01T15:25:17.000Z</time>
      </trkpt>
      <trkpt lat="47.29781" lon="6.60856">
        <ele>519.20001220703</ele>
        <time>2018-05-01T15:25:18.000Z</time>
      </trkpt>
      <trkpt lat="47.29794" lon="6.60853">
        <ele>518.40002441406</ele>
        <time>2018-05-01T15:25:20.000Z</time>
      </trkpt>
      <trkpt lat="47.29812" lon="6.60856">
        <ele>517.40002441406</ele>
        <time>2018-05-01T15:25:23.000Z</time>
      </trkpt>
      <trkpt lat="47.2984" lon="6.60863">
        <ele>516.59997558594</ele>
        <time>2018-05-01T15:25:28.000Z</time>
      </trkpt>
      <trkpt lat="47.29877" lon="6.60863">
        <ele>516.59997558594</ele>
        <time>2018-05-01T15:25:34.000Z</time>
      </trkpt>
      <trkpt lat="47.29883" lon="6.60862">
        <ele>516.40002441406</ele>
        <time>2018-05-01T15:25:35.000Z</time>
      </trkpt>
      <trkpt lat="47.29914" lon="6.60852">
        <ele>515.59997558594</ele>
        <time>2018-05-01T15:25:40.000Z</time>
      </trkpt>
      <trkpt lat="47.29926" lon="6.60848">
        <ele>515.59997558594</ele>
        <time>2018-05-01T15:25:42.000Z</time>
      </trkpt>
      <trkpt lat="47.29968" lon="6.60831">
        <ele>514.20001220703</ele>
        <time>2018-05-01T15:25:49.000Z</time>
      </trkpt>
      <trkpt lat="47.29991" lon="6.60823">
        <ele>513.40002441406</ele>
        <time>2018-05-01T15:25:53.000Z</time>
      </trkpt>
      <trkpt lat="47.30008" lon="6.60817">
        <ele>512.59997558594</ele>
        <time>2018-05-01T15:25:56.000Z</time>
      </trkpt>
      <trkpt lat="47.3006" lon="6.608">
        <ele>511</ele>
        <time>2018-05-01T15:26:05.000Z</time>
      </trkpt>
      <trkpt lat="47.30066" lon="6.60797">
        <ele>511</ele>
        <time>2018-05-01T15:26:06.000Z</time>
      </trkpt>
      <trkpt lat="47.30081" lon="6.60782">
        <ele>510.60000610352</ele>
        <time>2018-05-01T15:26:09.000Z</time>
      </trkpt>
      <trkpt lat="47.30101" lon="6.6076">
        <ele>510.79998779297</ele>
        <time>2018-05-01T15:26:13.000Z</time>
      </trkpt>
      <trkpt lat="47.30122" lon="6.6074">
        <ele>510.20001220703</ele>
        <time>2018-05-01T15:26:17.000Z</time>
      </trkpt>
      <trkpt lat="47.30127" lon="6.60736">
        <ele>510</ele>
        <time>2018-05-01T15:26:18.000Z</time>
      </trkpt>
      <trkpt lat="47.30148" lon="6.60718">
        <ele>510.20001220703</ele>
        <time>2018-05-01T15:26:22.000Z</time>
      </trkpt>
      <trkpt lat="47.30188" lon="6.60695">
        <ele>508.20001220703</ele>
        <time>2018-05-01T15:26:29.000Z</time>
      </trkpt>
      <trkpt lat="47.30194" lon="6.60692">
        <ele>508.20001220703</ele>
        <time>2018-05-01T15:26:30.000Z</time>
      </trkpt>
      <trkpt lat="47.30227" lon="6.60671">
        <ele>507.39999389648</ele>
        <time>2018-05-01T15:26:36.000Z</time>
      </trkpt>
      <trkpt lat="47.30271" lon="6.60638">
        <ele>507</ele>
        <time>2018-05-01T15:26:44.000Z</time>
      </trkpt>
      <trkpt lat="47.30305" lon="6.6061">
        <ele>506.79998779297</ele>
        <time>2018-05-01T15:26:51.000Z</time>
      </trkpt>
      <trkpt lat="47.30319" lon="6.60595">
        <ele>506.39999389648</ele>
        <time>2018-05-01T15:26:55.000Z</time>
      </trkpt>
      <trkpt lat="47.30322" lon="6.60589">
        <ele>506.39999389648</ele>
        <time>2018-05-01T15:26:56.000Z</time>
      </trkpt>
      <trkpt lat="47.30324" lon="6.60568">
        <ele>506</ele>
        <time>2018-05-01T15:26:59.000Z</time>
      </trkpt>
      <trkpt lat="47.30326" lon="6.6056">
        <ele>506</ele>
        <time>2018-05-01T15:27:00.000Z</time>
      </trkpt>
      <trkpt lat="47.30334" lon="6.60542">
        <ele>506.20001220703</ele>
        <time>2018-05-01T15:27:03.000Z</time>
      </trkpt>
      <trkpt lat="47.30339" lon="6.60538">
        <ele>506.20001220703</ele>
        <time>2018-05-01T15:27:04.000Z</time>
      </trkpt>
      <trkpt lat="47.30343" lon="6.60534">
        <ele>506.20001220703</ele>
        <time>2018-05-01T15:27:05.000Z</time>
      </trkpt>
      <trkpt lat="47.30362" lon="6.6052">
        <ele>506.20001220703</ele>
        <time>2018-05-01T15:27:09.000Z</time>
      </trkpt>
      <trkpt lat="47.30386" lon="6.60503">
        <ele>505.20001220703</ele>
        <time>2018-05-01T15:27:14.000Z</time>
      </trkpt>
      <trkpt lat="47.30391" lon="6.60501">
        <ele>505</ele>
        <time>2018-05-01T15:27:15.000Z</time>
      </trkpt>
      <trkpt lat="47.30412" lon="6.6049">
        <ele>504.20001220703</ele>
        <time>2018-05-01T15:27:19.000Z</time>
      </trkpt>
      <trkpt lat="47.30416" lon="6.60486">
        <ele>504</ele>
        <time>2018-05-01T15:27:20.000Z</time>
      </trkpt>
      <trkpt lat="47.3042" lon="6.60482">
        <ele>504</ele>
        <time>2018-05-01T15:27:21.000Z</time>
      </trkpt>
      <trkpt lat="47.30428" lon="6.60475">
        <ele>504.20001220703</ele>
        <time>2018-05-01T15:27:23.000Z</time>
      </trkpt>
      <trkpt lat="47.3044" lon="6.60484">
        <ele>504</ele>
        <time>2018-05-01T15:27:26.000Z</time>
      </trkpt>
      <trkpt lat="47.30444" lon="6.60487">
        <ele>504</ele>
        <time>2018-05-01T15:27:27.000Z</time>
      </trkpt>
      <trkpt lat="47.30454" lon="6.60488">
        <ele>504</ele>
        <time>2018-05-01T15:27:29.000Z</time>
      </trkpt>
      <trkpt lat="47.30465" lon="6.60474">
        <ele>504.20001220703</ele>
        <time>2018-05-01T15:27:32.000Z</time>
      </trkpt>
      <trkpt lat="47.30489" lon="6.60436">
        <ele>504</ele>
        <time>2018-05-01T15:27:39.000Z</time>
      </trkpt>
      <trkpt lat="47.30496" lon="6.60426">
        <ele>504</ele>
        <time>2018-05-01T15:27:41.000Z</time>
      </trkpt>
      <trkpt lat="47.30505" lon="6.60411">
        <ele>504.20001220703</ele>
        <time>2018-05-01T15:27:44.000Z</time>
      </trkpt>
      <trkpt lat="47.30509" lon="6.60408">
        <ele>504.20001220703</ele>
        <time>2018-05-01T15:27:45.000Z</time>
      </trkpt>
      <trkpt lat="47.30517" lon="6.60408">
        <ele>504</ele>
        <time>2018-05-01T15:27:47.000Z</time>
      </trkpt>
      <trkpt lat="47.30529" lon="6.60414">
        <ele>504.20001220703</ele>
        <time>2018-05-01T15:27:50.000Z</time>
      </trkpt>
      <trkpt lat="47.30536" lon="6.60417">
        <ele>504.20001220703</ele>
        <time>2018-05-01T15:27:52.000Z</time>
      </trkpt>
      <trkpt lat="47.30552" lon="6.60425">
        <ele>504.39999389648</ele>
        <time>2018-05-01T15:27:57.000Z</time>
      </trkpt>
      <trkpt lat="47.30561" lon="6.60427">
        <ele>504.39999389648</ele>
        <time>2018-05-01T15:28:00.000Z</time>
      </trkpt>
      <trkpt lat="47.30563" lon="6.60424">
        <ele>504.20001220703</ele>
        <time>2018-05-01T15:28:01.000Z</time>
      </trkpt>
      <trkpt lat="47.30565" lon="6.6042">
        <ele>504</ele>
        <time>2018-05-01T15:28:03.000Z</time>
      </trkpt>
      <trkpt lat="47.30567" lon="6.6042">
        <ele>504</ele>
        <time>2018-05-01T15:28:05.000Z</time>
      </trkpt>
      <trkpt lat="47.30568" lon="6.60421">
        <ele>504</ele>
        <time>2018-05-01T15:28:07.000Z</time>
      </trkpt>
      <trkpt lat="47.30569" lon="6.60421">
        <ele>504</ele>
        <time>2018-05-01T15:28:11.000Z</time>
      </trkpt>
      <trkpt lat="47.30569" lon="6.60421">
        <ele>504</ele>
        <time>2018-05-01T15:28:30.000Z</time>
      </trkpt>
      <trkpt lat="47.3057" lon="6.60422">
        <ele>504</ele>
        <time>2018-05-01T15:28:49.000Z</time>
      </trkpt>
      <trkpt lat="47.3057" lon="6.60422">
        <ele>504</ele>
        <time>2018-05-01T15:29:06.000Z</time>
      </trkpt>
      <trkpt lat="47.3057" lon="6.60422">
        <ele>504</ele>
        <time>2018-05-01T15:29:22.000Z</time>
      </trkpt>
      <trkpt lat="47.3057" lon="6.60422">
        <ele>504</ele>
        <time>2018-05-01T15:29:40.000Z</time>
      </trkpt>
      <trkpt lat="47.3057" lon="6.60422">
        <ele>504</ele>
        <time>2018-05-01T15:29:59.000Z</time>
      </trkpt>
      <trkpt lat="47.30569" lon="6.60421">
        <ele>504</ele>
        <time>2018-05-01T15:30:18.000Z</time>
      </trkpt>
      <trkpt lat="47.30569" lon="6.60421">
        <ele>504</ele>
        <time>2018-05-01T15:30:39.000Z</time>
      </trkpt>
      <trkpt lat="47.3057" lon="6.60421">
        <ele>504</ele>
        <time>2018-05-01T15:30:52.000Z</time>
      </trkpt>
      <trkpt lat="47.3057" lon="6.60421">
        <ele>504</ele>
        <time>2018-05-01T15:31:07.000Z</time>
      </trkpt>
      <trkpt lat="47.3057" lon="6.60421">
        <ele>504</ele>
        <time>2018-05-01T15:31:28.000Z</time>
      </trkpt>
      <trkpt lat="47.3057" lon="6.60421">
        <ele>504</ele>
        <time>2018-05-01T15:31:44.000Z</time>
      </trkpt>
      <trkpt lat="47.3057" lon="6.60421">
        <ele>504</ele>
        <time>2018-05-01T15:32:00.000Z</time>
      </trkpt>
      <trkpt lat="47.3057" lon="6.6042">
        <ele>504</ele>
        <time>2018-05-01T15:32:15.000Z</time>
      </trkpt>
      <trkpt lat="47.3057" lon="6.6042">
        <ele>504</ele>
        <time>2018-05-01T15:32:28.000Z</time>
      </trkpt>
      <trkpt lat="47.3057" lon="6.6042">
        <ele>504</ele>
        <time>2018-05-01T15:32:45.000Z</time>
      </trkpt>
      <trkpt lat="47.3057" lon="6.60421">
        <ele>504</ele>
        <time>2018-05-01T15:32:49.000Z</time>
      </trkpt>
      <trkpt lat="47.3057" lon="6.60421">
        <ele>504</ele>
        <time>2018-05-01T15:33:01.000Z</time>
      </trkpt>
      <trkpt lat="47.3057" lon="6.60419">
        <ele>504</ele>
        <time>2018-05-01T15:33:03.000Z</time>
      </trkpt>
      <trkpt lat="47.30569" lon="6.60417">
        <ele>503.79998779297</ele>
        <time>2018-05-01T15:33:05.000Z</time>
      </trkpt>
      <trkpt lat="47.30563" lon="6.60416">
        <ele>503.79998779297</ele>
        <time>2018-05-01T15:33:09.000Z</time>
      </trkpt>
      <trkpt lat="47.30561" lon="6.60428">
        <ele>504.60000610352</ele>
        <time>2018-05-01T15:33:13.000Z</time>
      </trkpt>
      <trkpt lat="47.30568" lon="6.60433">
        <ele>504.60000610352</ele>
        <time>2018-05-01T15:33:16.000Z</time>
      </trkpt>
      <trkpt lat="47.30571" lon="6.60434">
        <ele>504.60000610352</ele>
        <time>2018-05-01T15:33:17.000Z</time>
      </trkpt>
      <trkpt lat="47.3058" lon="6.60441">
        <ele>504.79998779297</ele>
        <time>2018-05-01T15:33:21.000Z</time>
      </trkpt>
      <trkpt lat="47.30583" lon="6.60442">
        <ele>505</ele>
        <time>2018-05-01T15:33:22.000Z</time>
      </trkpt>
      <trkpt lat="47.30586" lon="6.60444">
        <ele>505.39999389648</ele>
        <time>2018-05-01T15:33:23.000Z</time>
      </trkpt>
      <trkpt lat="47.30596" lon="6.60449">
        <ele>506</ele>
        <time>2018-05-01T15:33:26.000Z</time>
      </trkpt>
      <trkpt lat="47.30605" lon="6.60453">
        <ele>506.60000610352</ele>
        <time>2018-05-01T15:33:29.000Z</time>
      </trkpt>
      <trkpt lat="47.3061" lon="6.60456">
        <ele>507</ele>
        <time>2018-05-01T15:33:31.000Z</time>
      </trkpt>
      <trkpt lat="47.30619" lon="6.60465">
        <ele>508</ele>
        <time>2018-05-01T15:33:35.000Z</time>
      </trkpt>
      <trkpt lat="47.30632" lon="6.6048">
        <ele>509.20001220703</ele>
        <time>2018-05-01T15:33:42.000Z</time>
      </trkpt>
      <trkpt lat="47.30638" lon="6.60487">
        <ele>510</ele>
        <time>2018-05-01T15:33:46.000Z</time>
      </trkpt>
      <trkpt lat="47.30643" lon="6.60492">
        <ele>510.60000610352</ele>
        <time>2018-05-01T15:33:49.000Z</time>
      </trkpt>
      <trkpt lat="47.30644" lon="6.60494">
        <ele>511</ele>
        <time>2018-05-01T15:33:50.000Z</time>
      </trkpt>
      <trkpt lat="47.3065" lon="6.60504">
        <ele>512.20001220703</ele>
        <time>2018-05-01T15:33:55.000Z</time>
      </trkpt>
      <trkpt lat="47.30651" lon="6.60506">
        <ele>512.40002441406</ele>
        <time>2018-05-01T15:33:56.000Z</time>
      </trkpt>
      <trkpt lat="47.30655" lon="6.6051">
        <ele>513</ele>
        <time>2018-05-01T15:33:59.000Z</time>
      </trkpt>
      <trkpt lat="47.30659" lon="6.60513">
        <ele>513.40002441406</ele>
        <time>2018-05-01T15:34:02.000Z</time>
      </trkpt>
      <trkpt lat="47.30666" lon="6.60517">
        <ele>514.20001220703</ele>
        <time>2018-05-01T15:34:07.000Z</time>
      </trkpt>
      <trkpt lat="47.30667" lon="6.60519">
        <ele>514.40002441406</ele>
        <time>2018-05-01T15:34:08.000Z</time>
      </trkpt>
      <trkpt lat="47.30672" lon="6.60523">
        <ele>514.79998779297</ele>
        <time>2018-05-01T15:34:11.000Z</time>
      </trkpt>
      <trkpt lat="47.30677" lon="6.60526">
        <ele>515.20001220703</ele>
        <time>2018-05-01T15:34:14.000Z</time>
      </trkpt>
      <trkpt lat="47.30684" lon="6.60532">
        <ele>516</ele>
        <time>2018-05-01T15:34:18.000Z</time>
      </trkpt>
      <trkpt lat="47.30686" lon="6.60534">
        <ele>516.20001220703</ele>
        <time>2018-05-01T15:34:19.000Z</time>
      </trkpt>
      <trkpt lat="47.3069" lon="6.60538">
        <ele>516.79998779297</ele>
        <time>2018-05-01T15:34:22.000Z</time>
      </trkpt>
      <trkpt lat="47.30698" lon="6.60545">
        <ele>517.59997558594</ele>
        <time>2018-05-01T15:34:27.000Z</time>
      </trkpt>
      <trkpt lat="47.30703" lon="6.60549">
        <ele>518.20001220703</ele>
        <time>2018-05-01T15:34:30.000Z</time>
      </trkpt>
      <trkpt lat="47.3071" lon="6.60552">
        <ele>518.59997558594</ele>
        <time>2018-05-01T15:34:34.000Z</time>
      </trkpt>
      <trkpt lat="47.30712" lon="6.60553">
        <ele>518.79998779297</ele>
        <time>2018-05-01T15:34:35.000Z</time>
      </trkpt>
      <trkpt lat="47.3072" lon="6.60555">
        <ele>519</ele>
        <time>2018-05-01T15:34:40.000Z</time>
      </trkpt>
      <trkpt lat="47.30723" lon="6.60553">
        <ele>519</ele>
        <time>2018-05-01T15:34:42.000Z</time>
      </trkpt>
      <trkpt lat="47.30723" lon="6.60552">
        <ele>518.79998779297</ele>
        <time>2018-05-01T15:34:45.000Z</time>
      </trkpt>
      <trkpt lat="47.30723" lon="6.60552">
        <ele>518.79998779297</ele>
        <time>2018-05-01T15:35:04.000Z</time>
      </trkpt>
      <trkpt lat="47.30723" lon="6.60552">
        <ele>518.79998779297</ele>
        <time>2018-05-01T15:35:23.000Z</time>
      </trkpt>
      <trkpt lat="47.30722" lon="6.60553">
        <ele>519</ele>
        <time>2018-05-01T15:35:27.000Z</time>
      </trkpt>
      <trkpt lat="47.30724" lon="6.60563">
        <ele>520</ele>
        <time>2018-05-01T15:35:32.000Z</time>
      </trkpt>
      <trkpt lat="47.30733" lon="6.60567">
        <ele>520.59997558594</ele>
        <time>2018-05-01T15:35:37.000Z</time>
      </trkpt>
      <trkpt lat="47.30734" lon="6.60569">
        <ele>520.79998779297</ele>
        <time>2018-05-01T15:35:38.000Z</time>
      </trkpt>
      <trkpt lat="47.30741" lon="6.60574">
        <ele>521.59997558594</ele>
        <time>2018-05-01T15:35:42.000Z</time>
      </trkpt>
      <trkpt lat="47.30746" lon="6.60579">
        <ele>522.40002441406</ele>
        <time>2018-05-01T15:35:45.000Z</time>
      </trkpt>
      <trkpt lat="47.30749" lon="6.60581">
        <ele>523</ele>
        <time>2018-05-01T15:35:47.000Z</time>
      </trkpt>
      <trkpt lat="47.30759" lon="6.60589">
        <ele>524.40002441406</ele>
        <time>2018-05-01T15:35:53.000Z</time>
      </trkpt>
      <trkpt lat="47.30763" lon="6.60593">
        <ele>525.20001220703</ele>
        <time>2018-05-01T15:35:56.000Z</time>
      </trkpt>
      <trkpt lat="47.30768" lon="6.60597">
        <ele>526</ele>
        <time>2018-05-01T15:35:59.000Z</time>
      </trkpt>
      <trkpt lat="47.30776" lon="6.60603">
        <ele>527</ele>
        <time>2018-05-01T15:36:03.000Z</time>
      </trkpt>
      <trkpt lat="47.30777" lon="6.60605">
        <ele>527.20001220703</ele>
        <time>2018-05-01T15:36:04.000Z</time>
      </trkpt>
      <trkpt lat="47.3079" lon="6.60615">
        <ele>529.20001220703</ele>
        <time>2018-05-01T15:36:12.000Z</time>
      </trkpt>
      <trkpt lat="47.30794" lon="6.60618">
        <ele>529.79998779297</ele>
        <time>2018-05-01T15:36:15.000Z</time>
      </trkpt>
      <trkpt lat="47.30795" lon="6.60618">
        <ele>530</ele>
        <time>2018-05-01T15:36:17.000Z</time>
      </trkpt>
      <trkpt lat="47.30796" lon="6.60618">
        <ele>529.79998779297</ele>
        <time>2018-05-01T15:36:24.000Z</time>
      </trkpt>
      <trkpt lat="47.30796" lon="6.60618">
        <ele>529.79998779297</ele>
        <time>2018-05-01T15:36:41.000Z</time>
      </trkpt>
      <trkpt lat="47.30796" lon="6.60619">
        <ele>530</ele>
        <time>2018-05-01T15:36:54.000Z</time>
      </trkpt>
      <trkpt lat="47.30796" lon="6.60619">
        <ele>530.20001220703</ele>
        <time>2018-05-01T15:36:56.000Z</time>
      </trkpt>
      <trkpt lat="47.30797" lon="6.60621">
        <ele>530.40002441406</ele>
        <time>2018-05-01T15:36:57.000Z</time>
      </trkpt>
      <trkpt lat="47.30798" lon="6.60622">
        <ele>530.59997558594</ele>
        <time>2018-05-01T15:36:58.000Z</time>
      </trkpt>
      <trkpt lat="47.30804" lon="6.60626">
        <ele>531.20001220703</ele>
        <time>2018-05-01T15:37:01.000Z</time>
      </trkpt>
      <trkpt lat="47.30809" lon="6.6063">
        <ele>532.20001220703</ele>
        <time>2018-05-01T15:37:04.000Z</time>
      </trkpt>
      <trkpt lat="47.30818" lon="6.60639">
        <ele>533.59997558594</ele>
        <time>2018-05-01T15:37:09.000Z</time>
      </trkpt>
      <trkpt lat="47.3082" lon="6.6064">
        <ele>534</ele>
        <time>2018-05-01T15:37:10.000Z</time>
      </trkpt>
      <trkpt lat="47.30829" lon="6.60648">
        <ele>535.40002441406</ele>
        <time>2018-05-01T15:37:15.000Z</time>
      </trkpt>
      <trkpt lat="47.3083" lon="6.6065">
        <ele>535.79998779297</ele>
        <time>2018-05-01T15:37:16.000Z</time>
      </trkpt>
      <trkpt lat="47.30839" lon="6.60659">
        <ele>536.59997558594</ele>
        <time>2018-05-01T15:37:22.000Z</time>
      </trkpt>
      <trkpt lat="47.30846" lon="6.60667">
        <ele>537.59997558594</ele>
        <time>2018-05-01T15:37:27.000Z</time>
      </trkpt>
      <trkpt lat="47.30846" lon="6.60669">
        <ele>537.79998779297</ele>
        <time>2018-05-01T15:37:28.000Z</time>
      </trkpt>
      <trkpt lat="47.30852" lon="6.60674">
        <ele>538.59997558594</ele>
        <time>2018-05-01T15:37:33.000Z</time>
      </trkpt>
      <trkpt lat="47.30853" lon="6.60676">
        <ele>538.59997558594</ele>
        <time>2018-05-01T15:37:34.000Z</time>
      </trkpt>
      <trkpt lat="47.30862" lon="6.60682">
        <ele>539.20001220703</ele>
        <time>2018-05-01T15:37:39.000Z</time>
      </trkpt>
      <trkpt lat="47.30864" lon="6.60684">
        <ele>539.40002441406</ele>
        <time>2018-05-01T15:37:41.000Z</time>
      </trkpt>
      <trkpt lat="47.30872" lon="6.6069">
        <ele>540</ele>
        <time>2018-05-01T15:37:45.000Z</time>
      </trkpt>
      <trkpt lat="47.30873" lon="6.60692">
        <ele>540.20001220703</ele>
        <time>2018-05-01T15:37:46.000Z</time>
      </trkpt>
      <trkpt lat="47.30886" lon="6.60702">
        <ele>541.20001220703</ele>
        <time>2018-05-01T15:37:52.000Z</time>
      </trkpt>
      <trkpt lat="47.30888" lon="6.60703">
        <ele>541.20001220703</ele>
        <time>2018-05-01T15:37:53.000Z</time>
      </trkpt>
      <trkpt lat="47.30894" lon="6.60708">
        <ele>541.59997558594</ele>
        <time>2018-05-01T15:37:57.000Z</time>
      </trkpt>
      <trkpt lat="47.30895" lon="6.6071">
        <ele>542</ele>
        <time>2018-05-01T15:37:59.000Z</time>
      </trkpt>
      <trkpt lat="47.30897" lon="6.60717">
        <ele>543</ele>
        <time>2018-05-01T15:38:02.000Z</time>
      </trkpt>
      <trkpt lat="47.30898" lon="6.60724">
        <ele>544</ele>
        <time>2018-05-01T15:38:05.000Z</time>
      </trkpt>
      <trkpt lat="47.30898" lon="6.60732">
        <ele>545.79998779297</ele>
        <time>2018-05-01T15:38:11.000Z</time>
      </trkpt>
      <trkpt lat="47.30897" lon="6.60733">
        <ele>546</ele>
        <time>2018-05-01T15:38:12.000Z</time>
      </trkpt>
      <trkpt lat="47.30892" lon="6.60737">
        <ele>547.40002441406</ele>
        <time>2018-05-01T15:38:16.000Z</time>
      </trkpt>
      <trkpt lat="47.30889" lon="6.60739">
        <ele>548.40002441406</ele>
        <time>2018-05-01T15:38:18.000Z</time>
      </trkpt>
      <trkpt lat="47.30883" lon="6.60744">
        <ele>550.20001220703</ele>
        <time>2018-05-01T15:38:22.000Z</time>
      </trkpt>
      <trkpt lat="47.30882" lon="6.60744">
        <ele>550.40002441406</ele>
        <time>2018-05-01T15:38:23.000Z</time>
      </trkpt>
      <trkpt lat="47.30875" lon="6.60748">
        <ele>552.20001220703</ele>
        <time>2018-05-01T15:38:28.000Z</time>
      </trkpt>
      <trkpt lat="47.30873" lon="6.60749">
        <ele>552.59997558594</ele>
        <time>2018-05-01T15:38:29.000Z</time>
      </trkpt>
      <trkpt lat="47.30865" lon="6.60754">
        <ele>554.79998779297</ele>
        <time>2018-05-01T15:38:35.000Z</time>
      </trkpt>
      <trkpt lat="47.30864" lon="6.60755">
        <ele>555.20001220703</ele>
        <time>2018-05-01T15:38:36.000Z</time>
      </trkpt>
      <trkpt lat="47.30859" lon="6.60758">
        <ele>556.40002441406</ele>
        <time>2018-05-01T15:38:39.000Z</time>
      </trkpt>
      <trkpt lat="47.30854" lon="6.60761">
        <ele>557.79998779297</ele>
        <time>2018-05-01T15:38:42.000Z</time>
      </trkpt>
      <trkpt lat="47.30851" lon="6.60764">
        <ele>558.59997558594</ele>
        <time>2018-05-01T15:38:44.000Z</time>
      </trkpt>
      <trkpt lat="47.30844" lon="6.60768">
        <ele>560.20001220703</ele>
        <time>2018-05-01T15:38:48.000Z</time>
      </trkpt>
      <trkpt lat="47.30838" lon="6.60773">
        <ele>562</ele>
        <time>2018-05-01T15:38:52.000Z</time>
      </trkpt>
      <trkpt lat="47.30836" lon="6.60773">
        <ele>562</ele>
        <time>2018-05-01T15:38:53.000Z</time>
      </trkpt>
      <trkpt lat="47.30835" lon="6.60774">
        <ele>562.40002441406</ele>
        <time>2018-05-01T15:38:54.000Z</time>
      </trkpt>
      <trkpt lat="47.30832" lon="6.60775">
        <ele>563</ele>
        <time>2018-05-01T15:38:56.000Z</time>
      </trkpt>
      <trkpt lat="47.30824" lon="6.60781">
        <ele>564.20001220703</ele>
        <time>2018-05-01T15:39:01.000Z</time>
      </trkpt>
      <trkpt lat="47.30821" lon="6.60782">
        <ele>564.40002441406</ele>
        <time>2018-05-01T15:39:02.000Z</time>
      </trkpt>
      <trkpt lat="47.30815" lon="6.60785">
        <ele>565</ele>
        <time>2018-05-01T15:39:05.000Z</time>
      </trkpt>
      <trkpt lat="47.30812" lon="6.60788">
        <ele>565.40002441406</ele>
        <time>2018-05-01T15:39:07.000Z</time>
      </trkpt>
      <trkpt lat="47.30805" lon="6.60794">
        <ele>566.79998779297</ele>
        <time>2018-05-01T15:39:12.000Z</time>
      </trkpt>
      <trkpt lat="47.30803" lon="6.60796">
        <ele>567.40002441406</ele>
        <time>2018-05-01T15:39:13.000Z</time>
      </trkpt>
      <trkpt lat="47.30801" lon="6.60798">
        <ele>568</ele>
        <time>2018-05-01T15:39:15.000Z</time>
      </trkpt>
      <trkpt lat="47.30798" lon="6.608">
        <ele>568.59997558594</ele>
        <time>2018-05-01T15:39:18.000Z</time>
      </trkpt>
      <trkpt lat="47.30789" lon="6.60807">
        <ele>570.59997558594</ele>
        <time>2018-05-01T15:39:24.000Z</time>
      </trkpt>
      <trkpt lat="47.30787" lon="6.60808">
        <ele>571.20001220703</ele>
        <time>2018-05-01T15:39:26.000Z</time>
      </trkpt>
      <trkpt lat="47.30781" lon="6.60815">
        <ele>573.20001220703</ele>
        <time>2018-05-01T15:39:30.000Z</time>
      </trkpt>
      <trkpt lat="47.3078" lon="6.60821">
        <ele>575.40002441406</ele>
        <time>2018-05-01T15:39:35.000Z</time>
      </trkpt>
      <trkpt lat="47.30781" lon="6.60822">
        <ele>575.59997558594</ele>
        <time>2018-05-01T15:39:36.000Z</time>
      </trkpt>
      <trkpt lat="47.30781" lon="6.60822">
        <ele>575.59997558594</ele>
        <time>2018-05-01T15:39:37.000Z</time>
      </trkpt>
      <trkpt lat="47.30782" lon="6.60823">
        <ele>576.20001220703</ele>
        <time>2018-05-01T15:39:39.000Z</time>
      </trkpt>
      <trkpt lat="47.30785" lon="6.60823">
        <ele>576.20001220703</ele>
        <time>2018-05-01T15:39:40.000Z</time>
      </trkpt>
      <trkpt lat="47.30787" lon="6.60823">
        <ele>576.20001220703</ele>
        <time>2018-05-01T15:39:41.000Z</time>
      </trkpt>
      <trkpt lat="47.30792" lon="6.60824">
        <ele>576.40002441406</ele>
        <time>2018-05-01T15:39:43.000Z</time>
      </trkpt>
      <trkpt lat="47.30796" lon="6.60823">
        <ele>576.20001220703</ele>
        <time>2018-05-01T15:39:45.000Z</time>
      </trkpt>
      <trkpt lat="47.30811" lon="6.60823">
        <ele>576.59997558594</ele>
        <time>2018-05-01T15:39:52.000Z</time>
      </trkpt>
      <trkpt lat="47.30813" lon="6.60823">
        <ele>576.59997558594</ele>
        <time>2018-05-01T15:39:53.000Z</time>
      </trkpt>
      <trkpt lat="47.30818" lon="6.60825">
        <ele>577.40002441406</ele>
        <time>2018-05-01T15:39:55.000Z</time>
      </trkpt>
      <trkpt lat="47.30826" lon="6.60824">
        <ele>577</ele>
        <time>2018-05-01T15:39:58.000Z</time>
      </trkpt>
      <trkpt lat="47.30839" lon="6.60826">
        <ele>576.59997558594</ele>
        <time>2018-05-01T15:40:02.000Z</time>
      </trkpt>
      <trkpt lat="47.30849" lon="6.60828">
        <ele>576.59997558594</ele>
        <time>2018-05-01T15:40:05.000Z</time>
      </trkpt>
      <trkpt lat="47.30861" lon="6.60832">
        <ele>577.59997558594</ele>
        <time>2018-05-01T15:40:09.000Z</time>
      </trkpt>
      <trkpt lat="47.30866" lon="6.60834">
        <ele>577.59997558594</ele>
        <time>2018-05-01T15:40:11.000Z</time>
      </trkpt>
      <trkpt lat="47.30874" lon="6.60837">
        <ele>578</ele>
        <time>2018-05-01T15:40:14.000Z</time>
      </trkpt>
      <trkpt lat="47.30882" lon="6.60838">
        <ele>578</ele>
        <time>2018-05-01T15:40:17.000Z</time>
      </trkpt>
      <trkpt lat="47.30895" lon="6.60841">
        <ele>578.20001220703</ele>
        <time>2018-05-01T15:40:20.000Z</time>
      </trkpt>
      <trkpt lat="47.30903" lon="6.60842">
        <ele>577.79998779297</ele>
        <time>2018-05-01T15:40:22.000Z</time>
      </trkpt>
      <trkpt lat="47.30907" lon="6.60843">
        <ele>578</ele>
        <time>2018-05-01T15:40:23.000Z</time>
      </trkpt>
      <trkpt lat="47.30929" lon="6.60849">
        <ele>576.59997558594</ele>
        <time>2018-05-01T15:40:28.000Z</time>
      </trkpt>
      <trkpt lat="47.3095" lon="6.60857">
        <ele>575.20001220703</ele>
        <time>2018-05-01T15:40:34.000Z</time>
      </trkpt>
      <trkpt lat="47.30964" lon="6.6086">
        <ele>573.40002441406</ele>
        <time>2018-05-01T15:40:38.000Z</time>
      </trkpt>
      <trkpt lat="47.30974" lon="6.60861">
        <ele>572.20001220703</ele>
        <time>2018-05-01T15:40:43.000Z</time>
      </trkpt>
      <trkpt lat="47.30974" lon="6.60861">
        <ele>572.20001220703</ele>
        <time>2018-05-01T15:40:55.000Z</time>
      </trkpt>
      <trkpt lat="47.30975" lon="6.6086">
        <ele>572</ele>
        <time>2018-05-01T15:41:09.000Z</time>
      </trkpt>
      <trkpt lat="47.30979" lon="6.6086">
        <ele>571.20001220703</ele>
        <time>2018-05-01T15:41:10.000Z</time>
      </trkpt>
      <trkpt lat="47.30993" lon="6.60863">
        <ele>569.79998779297</ele>
        <time>2018-05-01T15:41:14.000Z</time>
      </trkpt>
      <trkpt lat="47.31007" lon="6.60866">
        <ele>569</ele>
        <time>2018-05-01T15:41:18.000Z</time>
      </trkpt>
      <trkpt lat="47.31025" lon="6.60872">
        <ele>569</ele>
        <time>2018-05-01T15:41:24.000Z</time>
      </trkpt>
      <trkpt lat="47.31027" lon="6.60872">
        <ele>568.79998779297</ele>
        <time>2018-05-01T15:41:30.000Z</time>
      </trkpt>
      <trkpt lat="47.31027" lon="6.60872">
        <ele>568.79998779297</ele>
        <time>2018-05-01T15:41:50.000Z</time>
      </trkpt>
      <trkpt lat="47.31028" lon="6.60872">
        <ele>568.79998779297</ele>
        <time>2018-05-01T15:42:08.000Z</time>
      </trkpt>
      <trkpt lat="47.31028" lon="6.60872">
        <ele>568.59997558594</ele>
        <time>2018-05-01T15:42:22.000Z</time>
      </trkpt>
      <trkpt lat="47.31036" lon="6.60874">
        <ele>568.59997558594</ele>
        <time>2018-05-01T15:42:26.000Z</time>
      </trkpt>
      <trkpt lat="47.3105" lon="6.60876">
        <ele>567.79998779297</ele>
        <time>2018-05-01T15:42:30.000Z</time>
      </trkpt>
      <trkpt lat="47.31054" lon="6.60877">
        <ele>567.79998779297</ele>
        <time>2018-05-01T15:42:31.000Z</time>
      </trkpt>
      <trkpt lat="47.31062" lon="6.60877">
        <ele>567.20001220703</ele>
        <time>2018-05-01T15:42:33.000Z</time>
      </trkpt>
      <trkpt lat="47.31071" lon="6.60879">
        <ele>567.20001220703</ele>
        <time>2018-05-01T15:42:35.000Z</time>
      </trkpt>
      <trkpt lat="47.31075" lon="6.60878">
        <ele>566.79998779297</ele>
        <time>2018-05-01T15:42:36.000Z</time>
      </trkpt>
      <trkpt lat="47.3108" lon="6.60879">
        <ele>566.79998779297</ele>
        <time>2018-05-01T15:42:37.000Z</time>
      </trkpt>
      <trkpt lat="47.31088" lon="6.60878">
        <ele>566.59997558594</ele>
        <time>2018-05-01T15:42:39.000Z</time>
      </trkpt>
      <trkpt lat="47.311" lon="6.6088">
        <ele>567</ele>
        <time>2018-05-01T15:42:42.000Z</time>
      </trkpt>
      <trkpt lat="47.31108" lon="6.6088">
        <ele>567.20001220703</ele>
        <time>2018-05-01T15:42:44.000Z</time>
      </trkpt>
      <trkpt lat="47.31118" lon="6.60882">
        <ele>567.40002441406</ele>
        <time>2018-05-01T15:42:47.000Z</time>
      </trkpt>
      <trkpt lat="47.31122" lon="6.60882">
        <ele>567.40002441406</ele>
        <time>2018-05-01T15:42:48.000Z</time>
      </trkpt>
      <trkpt lat="47.31135" lon="6.60883">
        <ele>567.79998779297</ele>
        <time>2018-05-01T15:42:51.000Z</time>
      </trkpt>
      <trkpt lat="47.31142" lon="6.60885">
        <ele>568</ele>
        <time>2018-05-01T15:42:53.000Z</time>
      </trkpt>
      <trkpt lat="47.31157" lon="6.60886">
        <ele>568.20001220703</ele>
        <time>2018-05-01T15:42:57.000Z</time>
      </trkpt>
      <trkpt lat="47.31163" lon="6.60887">
        <ele>568.20001220703</ele>
        <time>2018-05-01T15:43:02.000Z</time>
      </trkpt>
      <trkpt lat="47.31169" lon="6.60889">
        <ele>568.40002441406</ele>
        <time>2018-05-01T15:43:06.000Z</time>
      </trkpt>
      <trkpt lat="47.31171" lon="6.6089">
        <ele>568.59997558594</ele>
        <time>2018-05-01T15:43:07.000Z</time>
      </trkpt>
      <trkpt lat="47.31172" lon="6.6089">
        <ele>568.59997558594</ele>
        <time>2018-05-01T15:43:09.000Z</time>
      </trkpt>
      <trkpt lat="47.31173" lon="6.6089">
        <ele>568.59997558594</ele>
        <time>2018-05-01T15:43:11.000Z</time>
      </trkpt>
      <trkpt lat="47.31177" lon="6.6089">
        <ele>568.40002441406</ele>
        <time>2018-05-01T15:43:13.000Z</time>
      </trkpt>
      <trkpt lat="47.31178" lon="6.6089">
        <ele>568.40002441406</ele>
        <time>2018-05-01T15:43:14.000Z</time>
      </trkpt>
      <trkpt lat="47.31181" lon="6.60891">
        <ele>568.40002441406</ele>
        <time>2018-05-01T15:43:16.000Z</time>
      </trkpt>
      <trkpt lat="47.31186" lon="6.60892">
        <ele>568.40002441406</ele>
        <time>2018-05-01T15:43:18.000Z</time>
      </trkpt>
      <trkpt lat="47.3119" lon="6.60892">
        <ele>568.40002441406</ele>
        <time>2018-05-01T15:43:19.000Z</time>
      </trkpt>
      <trkpt lat="47.31204" lon="6.60893">
        <ele>567.79998779297</ele>
        <time>2018-05-01T15:43:24.000Z</time>
      </trkpt>
      <trkpt lat="47.31211" lon="6.60892">
        <ele>567.20001220703</ele>
        <time>2018-05-01T15:43:26.000Z</time>
      </trkpt>
      <trkpt lat="47.31218" lon="6.60892">
        <ele>567</ele>
        <time>2018-05-01T15:43:28.000Z</time>
      </trkpt>
      <trkpt lat="47.31228" lon="6.60891">
        <ele>566</ele>
        <time>2018-05-01T15:43:31.000Z</time>
      </trkpt>
      <trkpt lat="47.31248" lon="6.60891">
        <ele>566</ele>
        <time>2018-05-01T15:43:36.000Z</time>
      </trkpt>
      <trkpt lat="47.31264" lon="6.60891">
        <ele>566.20001220703</ele>
        <time>2018-05-01T15:43:41.000Z</time>
      </trkpt>
      <trkpt lat="47.3128" lon="6.6089">
        <ele>566.20001220703</ele>
        <time>2018-05-01T15:43:46.000Z</time>
      </trkpt>
      <trkpt lat="47.31298" lon="6.60889">
        <ele>566</ele>
        <time>2018-05-01T15:43:51.000Z</time>
      </trkpt>
      <trkpt lat="47.3132" lon="6.60889">
        <ele>566.40002441406</ele>
        <time>2018-05-01T15:43:56.000Z</time>
      </trkpt>
      <trkpt lat="47.31328" lon="6.6089">
        <ele>566.40002441406</ele>
        <time>2018-05-01T15:43:57.000Z</time>
      </trkpt>
      <trkpt lat="47.31331" lon="6.6089">
        <ele>566.59997558594</ele>
        <time>2018-05-01T15:43:58.000Z</time>
      </trkpt>
      <trkpt lat="47.31338" lon="6.6089">
        <ele>566.79998779297</ele>
        <time>2018-05-01T15:43:59.000Z</time>
      </trkpt>
      <trkpt lat="47.31355" lon="6.60891">
        <ele>567.40002441406</ele>
        <time>2018-05-01T15:44:02.000Z</time>
      </trkpt>
      <trkpt lat="47.31362" lon="6.60893">
        <ele>567.79998779297</ele>
        <time>2018-05-01T15:44:03.000Z</time>
      </trkpt>
      <trkpt lat="47.31367" lon="6.60893">
        <ele>568</ele>
        <time>2018-05-01T15:44:04.000Z</time>
      </trkpt>
      <trkpt lat="47.31371" lon="6.60894">
        <ele>568.40002441406</ele>
        <time>2018-05-01T15:44:05.000Z</time>
      </trkpt>
      <trkpt lat="47.31379" lon="6.60894">
        <ele>568.59997558594</ele>
        <time>2018-05-01T15:44:07.000Z</time>
      </trkpt>
      <trkpt lat="47.31385" lon="6.60893">
        <ele>568.59997558594</ele>
        <time>2018-05-01T15:44:09.000Z</time>
      </trkpt>
      <trkpt lat="47.31391" lon="6.60893">
        <ele>568.59997558594</ele>
        <time>2018-05-01T15:44:11.000Z</time>
      </trkpt>
      <trkpt lat="47.31396" lon="6.60893">
        <ele>568.59997558594</ele>
        <time>2018-05-01T15:44:12.000Z</time>
      </trkpt>
      <trkpt lat="47.31402" lon="6.60893">
        <ele>568.79998779297</ele>
        <time>2018-05-01T15:44:14.000Z</time>
      </trkpt>
      <trkpt lat="47.31409" lon="6.60895">
        <ele>569.40002441406</ele>
        <time>2018-05-01T15:44:17.000Z</time>
      </trkpt>
      <trkpt lat="47.31414" lon="6.60896">
        <ele>569.79998779297</ele>
        <time>2018-05-01T15:44:19.000Z</time>
      </trkpt>
      <trkpt lat="47.31419" lon="6.60897">
        <ele>570</ele>
        <time>2018-05-01T15:44:21.000Z</time>
      </trkpt>
      <trkpt lat="47.31422" lon="6.60897">
        <ele>570</ele>
        <time>2018-05-01T15:44:22.000Z</time>
      </trkpt>
      <trkpt lat="47.31429" lon="6.60899">
        <ele>570.79998779297</ele>
        <time>2018-05-01T15:44:25.000Z</time>
      </trkpt>
      <trkpt lat="47.31435" lon="6.609">
        <ele>571</ele>
        <time>2018-05-01T15:44:27.000Z</time>
      </trkpt>
      <trkpt lat="47.31437" lon="6.609">
        <ele>571.20001220703</ele>
        <time>2018-05-01T15:44:28.000Z</time>
      </trkpt>
      <trkpt lat="47.31442" lon="6.60902">
        <ele>571.59997558594</ele>
        <time>2018-05-01T15:44:30.000Z</time>
      </trkpt>
      <trkpt lat="47.3145" lon="6.60901">
        <ele>571.59997558594</ele>
        <time>2018-05-01T15:44:33.000Z</time>
      </trkpt>
      <trkpt lat="47.31459" lon="6.609">
        <ele>571.79998779297</ele>
        <time>2018-05-01T15:44:36.000Z</time>
      </trkpt>
      <trkpt lat="47.31465" lon="6.609">
        <ele>571.79998779297</ele>
        <time>2018-05-01T15:44:38.000Z</time>
      </trkpt>
      <trkpt lat="47.31476" lon="6.60901">
        <ele>572.40002441406</ele>
        <time>2018-05-01T15:44:42.000Z</time>
      </trkpt>
      <trkpt lat="47.31487" lon="6.60901">
        <ele>572.59997558594</ele>
        <time>2018-05-01T15:44:46.000Z</time>
      </trkpt>
      <trkpt lat="47.31494" lon="6.60902">
        <ele>572.79998779297</ele>
        <time>2018-05-01T15:44:49.000Z</time>
      </trkpt>
      <trkpt lat="47.315" lon="6.60903">
        <ele>573.59997558594</ele>
        <time>2018-05-01T15:44:52.000Z</time>
      </trkpt>
      <trkpt lat="47.31512" lon="6.60905">
        <ele>574.59997558594</ele>
        <time>2018-05-01T15:44:58.000Z</time>
      </trkpt>
      <trkpt lat="47.31519" lon="6.60904">
        <ele>574.40002441406</ele>
        <time>2018-05-01T15:45:03.000Z</time>
      </trkpt>
      <trkpt lat="47.3152" lon="6.60904">
        <ele>574.40002441406</ele>
        <time>2018-05-01T15:45:10.000Z</time>
      </trkpt>
      <trkpt lat="47.31521" lon="6.60905">
        <ele>575</ele>
        <time>2018-05-01T15:45:13.000Z</time>
      </trkpt>
      <trkpt lat="47.31527" lon="6.60908">
        <ele>576.20001220703</ele>
        <time>2018-05-01T15:45:16.000Z</time>
      </trkpt>
      <trkpt lat="47.31528" lon="6.60908">
        <ele>576.20001220703</ele>
        <time>2018-05-01T15:45:18.000Z</time>
      </trkpt>
      <trkpt lat="47.31537" lon="6.60907">
        <ele>576.40002441406</ele>
        <time>2018-05-01T15:45:22.000Z</time>
      </trkpt>
      <trkpt lat="47.31547" lon="6.60906">
        <ele>576.40002441406</ele>
        <time>2018-05-01T15:45:26.000Z</time>
      </trkpt>
      <trkpt lat="47.31565" lon="6.60904">
        <ele>576.20001220703</ele>
        <time>2018-05-01T15:45:32.000Z</time>
      </trkpt>
      <trkpt lat="47.3158" lon="6.60904">
        <ele>576.79998779297</ele>
        <time>2018-05-01T15:45:37.000Z</time>
      </trkpt>
      <trkpt lat="47.31589" lon="6.60904">
        <ele>577</ele>
        <time>2018-05-01T15:45:41.000Z</time>
      </trkpt>
      <trkpt lat="47.31591" lon="6.60903">
        <ele>577</ele>
        <time>2018-05-01T15:45:42.000Z</time>
      </trkpt>
      <trkpt lat="47.31601" lon="6.60903">
        <ele>577.20001220703</ele>
        <time>2018-05-01T15:45:45.000Z</time>
      </trkpt>
      <trkpt lat="47.31608" lon="6.60904">
        <ele>577.59997558594</ele>
        <time>2018-05-01T15:45:47.000Z</time>
      </trkpt>
      <trkpt lat="47.31617" lon="6.60905">
        <ele>578.40002441406</ele>
        <time>2018-05-01T15:45:50.000Z</time>
      </trkpt>
      <trkpt lat="47.31626" lon="6.60905">
        <ele>578.79998779297</ele>
        <time>2018-05-01T15:45:53.000Z</time>
      </trkpt>
      <trkpt lat="47.31635" lon="6.60905">
        <ele>578.79998779297</ele>
        <time>2018-05-01T15:45:56.000Z</time>
      </trkpt>
      <trkpt lat="47.31641" lon="6.60906">
        <ele>579.59997558594</ele>
        <time>2018-05-01T15:45:58.000Z</time>
      </trkpt>
      <trkpt lat="47.31644" lon="6.60906">
        <ele>579.79998779297</ele>
        <time>2018-05-01T15:45:59.000Z</time>
      </trkpt>
      <trkpt lat="47.31649" lon="6.60907">
        <ele>580.40002441406</ele>
        <time>2018-05-01T15:46:01.000Z</time>
      </trkpt>
      <trkpt lat="47.31655" lon="6.60909">
        <ele>581.40002441406</ele>
        <time>2018-05-01T15:46:03.000Z</time>
      </trkpt>
      <trkpt lat="47.3166" lon="6.60911">
        <ele>582.20001220703</ele>
        <time>2018-05-01T15:46:05.000Z</time>
      </trkpt>
      <trkpt lat="47.31669" lon="6.60914">
        <ele>583</ele>
        <time>2018-05-01T15:46:09.000Z</time>
      </trkpt>
      <trkpt lat="47.31687" lon="6.60918">
        <ele>583.40002441406</ele>
        <time>2018-05-01T15:46:14.000Z</time>
      </trkpt>
      <trkpt lat="47.31696" lon="6.6092">
        <ele>583.59997558594</ele>
        <time>2018-05-01T15:46:17.000Z</time>
      </trkpt>
      <trkpt lat="47.31704" lon="6.60922">
        <ele>583.79998779297</ele>
        <time>2018-05-01T15:46:20.000Z</time>
      </trkpt>
      <trkpt lat="47.31713" lon="6.60924">
        <ele>583.79998779297</ele>
        <time>2018-05-01T15:46:23.000Z</time>
      </trkpt>
      <trkpt lat="47.3172" lon="6.60925">
        <ele>583.79998779297</ele>
        <time>2018-05-01T15:46:25.000Z</time>
      </trkpt>
      <trkpt lat="47.31723" lon="6.60925">
        <ele>583.79998779297</ele>
        <time>2018-05-01T15:46:26.000Z</time>
      </trkpt>
      <trkpt lat="47.31729" lon="6.60926">
        <ele>583.59997558594</ele>
        <time>2018-05-01T15:46:28.000Z</time>
      </trkpt>
      <trkpt lat="47.31735" lon="6.60927">
        <ele>583.59997558594</ele>
        <time>2018-05-01T15:46:30.000Z</time>
      </trkpt>
      <trkpt lat="47.31737" lon="6.60927">
        <ele>583.59997558594</ele>
        <time>2018-05-01T15:46:31.000Z</time>
      </trkpt>
      <trkpt lat="47.3175" lon="6.6093">
        <ele>584.20001220703</ele>
        <time>2018-05-01T15:46:36.000Z</time>
      </trkpt>
      <trkpt lat="47.31758" lon="6.60932">
        <ele>584.40002441406</ele>
        <time>2018-05-01T15:46:39.000Z</time>
      </trkpt>
      <trkpt lat="47.31764" lon="6.60933">
        <ele>584.40002441406</ele>
        <time>2018-05-01T15:46:41.000Z</time>
      </trkpt>
      <trkpt lat="47.31766" lon="6.60934">
        <ele>584.59997558594</ele>
        <time>2018-05-01T15:46:42.000Z</time>
      </trkpt>
      <trkpt lat="47.31778" lon="6.60938">
        <ele>585.59997558594</ele>
        <time>2018-05-01T15:46:47.000Z</time>
      </trkpt>
      <trkpt lat="47.31792" lon="6.60941">
        <ele>586.59997558594</ele>
        <time>2018-05-01T15:46:53.000Z</time>
      </trkpt>
      <trkpt lat="47.31803" lon="6.60946">
        <ele>588</ele>
        <time>2018-05-01T15:46:58.000Z</time>
      </trkpt>
      <trkpt lat="47.3181" lon="6.60948">
        <ele>589</ele>
        <time>2018-05-01T15:47:02.000Z</time>
      </trkpt>
      <trkpt lat="47.31815" lon="6.60949">
        <ele>589.59997558594</ele>
        <time>2018-05-01T15:47:04.000Z</time>
      </trkpt>
      <trkpt lat="47.31824" lon="6.60953">
        <ele>590.79998779297</ele>
        <time>2018-05-01T15:47:08.000Z</time>
      </trkpt>
      <trkpt lat="47.31828" lon="6.60954">
        <ele>591.40002441406</ele>
        <time>2018-05-01T15:47:10.000Z</time>
      </trkpt>
      <trkpt lat="47.31831" lon="6.60956">
        <ele>592</ele>
        <time>2018-05-01T15:47:11.000Z</time>
      </trkpt>
      <trkpt lat="47.3184" lon="6.60959">
        <ele>593</ele>
        <time>2018-05-01T15:47:16.000Z</time>
      </trkpt>
      <trkpt lat="47.31845" lon="6.6096">
        <ele>593.40002441406</ele>
        <time>2018-05-01T15:47:18.000Z</time>
      </trkpt>
      <trkpt lat="47.31854" lon="6.60963">
        <ele>594.40002441406</ele>
        <time>2018-05-01T15:47:22.000Z</time>
      </trkpt>
      <trkpt lat="47.31864" lon="6.60965">
        <ele>595.20001220703</ele>
        <time>2018-05-01T15:47:27.000Z</time>
      </trkpt>
      <trkpt lat="47.31865" lon="6.60965">
        <ele>595.40002441406</ele>
        <time>2018-05-01T15:47:28.000Z</time>
      </trkpt>
      <trkpt lat="47.31877" lon="6.60971">
        <ele>597.20001220703</ele>
        <time>2018-05-01T15:47:35.000Z</time>
      </trkpt>
      <trkpt lat="47.31885" lon="6.60974">
        <ele>598.40002441406</ele>
        <time>2018-05-01T15:47:40.000Z</time>
      </trkpt>
      <trkpt lat="47.31887" lon="6.60975">
        <ele>598.40002441406</ele>
        <time>2018-05-01T15:47:41.000Z</time>
      </trkpt>
      <trkpt lat="47.31889" lon="6.60975">
        <ele>598.59997558594</ele>
        <time>2018-05-01T15:47:42.000Z</time>
      </trkpt>
      <trkpt lat="47.31896" lon="6.60976">
        <ele>599</ele>
        <time>2018-05-01T15:47:46.000Z</time>
      </trkpt>
      <trkpt lat="47.31906" lon="6.60976">
        <ele>599.40002441406</ele>
        <time>2018-05-01T15:47:51.000Z</time>
      </trkpt>
      <trkpt lat="47.31922" lon="6.6097">
        <ele>601</ele>
        <time>2018-05-01T15:47:58.000Z</time>
      </trkpt>
      <trkpt lat="47.31927" lon="6.60967">
        <ele>601.59997558594</ele>
        <time>2018-05-01T15:48:00.000Z</time>
      </trkpt>
      <trkpt lat="47.31931" lon="6.60962">
        <ele>601.40002441406</ele>
        <time>2018-05-01T15:48:02.000Z</time>
      </trkpt>
      <trkpt lat="47.31933" lon="6.60959">
        <ele>601.20001220703</ele>
        <time>2018-05-01T15:48:03.000Z</time>
      </trkpt>
      <trkpt lat="47.31936" lon="6.60953">
        <ele>600.79998779297</ele>
        <time>2018-05-01T15:48:05.000Z</time>
      </trkpt>
      <trkpt lat="47.3194" lon="6.60944">
        <ele>600.20001220703</ele>
        <time>2018-05-01T15:48:08.000Z</time>
      </trkpt>
      <trkpt lat="47.31942" lon="6.60942">
        <ele>600</ele>
        <time>2018-05-01T15:48:09.000Z</time>
      </trkpt>
      <trkpt lat="47.31943" lon="6.60939">
        <ele>599.79998779297</ele>
        <time>2018-05-01T15:48:10.000Z</time>
      </trkpt>
      <trkpt lat="47.31945" lon="6.60931">
        <ele>599.40002441406</ele>
        <time>2018-05-01T15:48:12.000Z</time>
      </trkpt>
      <trkpt lat="47.31946" lon="6.60927">
        <ele>599.79998779297</ele>
        <time>2018-05-01T15:48:13.000Z</time>
      </trkpt>
      <trkpt lat="47.31948" lon="6.60919">
        <ele>600.40002441406</ele>
        <time>2018-05-01T15:48:15.000Z</time>
      </trkpt>
      <trkpt lat="47.31949" lon="6.60909">
        <ele>600.79998779297</ele>
        <time>2018-05-01T15:48:18.000Z</time>
      </trkpt>
      <trkpt lat="47.31951" lon="6.60901">
        <ele>601.40002441406</ele>
        <time>2018-05-01T15:48:21.000Z</time>
      </trkpt>
      <trkpt lat="47.31952" lon="6.60899">
        <ele>601.40002441406</ele>
        <time>2018-05-01T15:48:22.000Z</time>
      </trkpt>
      <trkpt lat="47.31953" lon="6.60893">
        <ele>601.40002441406</ele>
        <time>2018-05-01T15:48:24.000Z</time>
      </trkpt>
      <trkpt lat="47.31954" lon="6.60885">
        <ele>601</ele>
        <time>2018-05-01T15:48:26.000Z</time>
      </trkpt>
      <trkpt lat="47.31956" lon="6.60865">
        <ele>600</ele>
        <time>2018-05-01T15:48:30.000Z</time>
      </trkpt>
      <trkpt lat="47.31958" lon="6.60831">
        <ele>599.79998779297</ele>
        <time>2018-05-01T15:48:36.000Z</time>
      </trkpt>
      <trkpt lat="47.31956" lon="6.608">
        <ele>598.79998779297</ele>
        <time>2018-05-01T15:48:41.000Z</time>
      </trkpt>
      <trkpt lat="47.31955" lon="6.60794">
        <ele>598.59997558594</ele>
        <time>2018-05-01T15:48:42.000Z</time>
      </trkpt>
      <trkpt lat="47.31952" lon="6.60776">
        <ele>597.20001220703</ele>
        <time>2018-05-01T15:48:45.000Z</time>
      </trkpt>
      <trkpt lat="47.31949" lon="6.60766">
        <ele>596</ele>
        <time>2018-05-01T15:48:47.000Z</time>
      </trkpt>
      <trkpt lat="47.31946" lon="6.60751">
        <ele>594.40002441406</ele>
        <time>2018-05-01T15:48:51.000Z</time>
      </trkpt>
      <trkpt lat="47.31944" lon="6.60734">
        <ele>593.40002441406</ele>
        <time>2018-05-01T15:48:57.000Z</time>
      </trkpt>
      <trkpt lat="47.31944" lon="6.60733">
        <ele>593.59997558594</ele>
        <time>2018-05-01T15:48:58.000Z</time>
      </trkpt>
      <trkpt lat="47.31946" lon="6.60727">
        <ele>594.59997558594</ele>
        <time>2018-05-01T15:49:02.000Z</time>
      </trkpt>
      <trkpt lat="47.31945" lon="6.60724">
        <ele>594.20001220703</ele>
        <time>2018-05-01T15:49:05.000Z</time>
      </trkpt>
      <trkpt lat="47.31939" lon="6.60715">
        <ele>592.20001220703</ele>
        <time>2018-05-01T15:49:08.000Z</time>
      </trkpt>
      <trkpt lat="47.31935" lon="6.60703">
        <ele>591.40002441406</ele>
        <time>2018-05-01T15:49:10.000Z</time>
      </trkpt>
      <trkpt lat="47.31933" lon="6.60697">
        <ele>590.79998779297</ele>
        <time>2018-05-01T15:49:11.000Z</time>
      </trkpt>
      <trkpt lat="47.31931" lon="6.6069">
        <ele>590.40002441406</ele>
        <time>2018-05-01T15:49:12.000Z</time>
      </trkpt>
      <trkpt lat="47.31925" lon="6.60669">
        <ele>588.79998779297</ele>
        <time>2018-05-01T15:49:15.000Z</time>
      </trkpt>
      <trkpt lat="47.31918" lon="6.60656">
        <ele>586.40002441406</ele>
        <time>2018-05-01T15:49:17.000Z</time>
      </trkpt>
      <trkpt lat="47.31908" lon="6.60645">
        <ele>584.59997558594</ele>
        <time>2018-05-01T15:49:19.000Z</time>
      </trkpt>
      <trkpt lat="47.31896" lon="6.60635">
        <ele>583.59997558594</ele>
        <time>2018-05-01T15:49:21.000Z</time>
      </trkpt>
      <trkpt lat="47.31889" lon="6.6063">
        <ele>582.79998779297</ele>
        <time>2018-05-01T15:49:22.000Z</time>
      </trkpt>
      <trkpt lat="47.31875" lon="6.60621">
        <ele>581.40002441406</ele>
        <time>2018-05-01T15:49:24.000Z</time>
      </trkpt>
      <trkpt lat="47.31863" lon="6.60609">
        <ele>580.40002441406</ele>
        <time>2018-05-01T15:49:26.000Z</time>
      </trkpt>
      <trkpt lat="47.31853" lon="6.60597">
        <ele>580</ele>
        <time>2018-05-01T15:49:28.000Z</time>
      </trkpt>
      <trkpt lat="47.31844" lon="6.60589">
        <ele>579.20001220703</ele>
        <time>2018-05-01T15:49:30.000Z</time>
      </trkpt>
      <trkpt lat="47.3184" lon="6.60585">
        <ele>579</ele>
        <time>2018-05-01T15:49:31.000Z</time>
      </trkpt>
      <trkpt lat="47.31829" lon="6.60572">
        <ele>578.40002441406</ele>
        <time>2018-05-01T15:49:35.000Z</time>
      </trkpt>
      <trkpt lat="47.31818" lon="6.6056">
        <ele>579.40002441406</ele>
        <time>2018-05-01T15:49:39.000Z</time>
      </trkpt>
      <trkpt lat="47.31811" lon="6.60553">
        <ele>580</ele>
        <time>2018-05-01T15:49:42.000Z</time>
      </trkpt>
      <trkpt lat="47.31802" lon="6.60543">
        <ele>581</ele>
        <time>2018-05-01T15:49:47.000Z</time>
      </trkpt>
      <trkpt lat="47.31788" lon="6.60525">
        <ele>582.79998779297</ele>
        <time>2018-05-01T15:49:54.000Z</time>
      </trkpt>
      <trkpt lat="47.31776" lon="6.60501">
        <ele>586</ele>
        <time>2018-05-01T15:50:02.000Z</time>
      </trkpt>
      <trkpt lat="47.31763" lon="6.60483">
        <ele>588.20001220703</ele>
        <time>2018-05-01T15:50:09.000Z</time>
      </trkpt>
      <trkpt lat="47.31752" lon="6.60473">
        <ele>588.59997558594</ele>
        <time>2018-05-01T15:50:14.000Z</time>
      </trkpt>
      <trkpt lat="47.31748" lon="6.60467">
        <ele>589.20001220703</ele>
        <time>2018-05-01T15:50:17.000Z</time>
      </trkpt>
      <trkpt lat="47.31741" lon="6.60458">
        <ele>589.79998779297</ele>
        <time>2018-05-01T15:50:21.000Z</time>
      </trkpt>
      <trkpt lat="47.31736" lon="6.60453">
        <ele>590</ele>
        <time>2018-05-01T15:50:23.000Z</time>
      </trkpt>
      <trkpt lat="47.31728" lon="6.60444">
        <ele>590.40002441406</ele>
        <time>2018-05-01T15:50:27.000Z</time>
      </trkpt>
      <trkpt lat="47.31721" lon="6.60436">
        <ele>591</ele>
        <time>2018-05-01T15:50:30.000Z</time>
      </trkpt>
      <trkpt lat="47.31719" lon="6.60433">
        <ele>591</ele>
        <time>2018-05-01T15:50:31.000Z</time>
      </trkpt>
      <trkpt lat="47.31714" lon="6.60429">
        <ele>591.20001220703</ele>
        <time>2018-05-01T15:50:33.000Z</time>
      </trkpt>
      <trkpt lat="47.31705" lon="6.60417">
        <ele>591.79998779297</ele>
        <time>2018-05-01T15:50:38.000Z</time>
      </trkpt>
      <trkpt lat="47.31703" lon="6.60415">
        <ele>592</ele>
        <time>2018-05-01T15:50:39.000Z</time>
      </trkpt>
      <trkpt lat="47.31692" lon="6.60403">
        <ele>592.59997558594</ele>
        <time>2018-05-01T15:50:44.000Z</time>
      </trkpt>
      <trkpt lat="47.3169" lon="6.604">
        <ele>592.79998779297</ele>
        <time>2018-05-01T15:50:45.000Z</time>
      </trkpt>
      <trkpt lat="47.31682" lon="6.60389">
        <ele>593.40002441406</ele>
        <time>2018-05-01T15:50:50.000Z</time>
      </trkpt>
      <trkpt lat="47.31665" lon="6.60366">
        <ele>594.79998779297</ele>
        <time>2018-05-01T15:50:58.000Z</time>
      </trkpt>
      <trkpt lat="47.31667" lon="6.60357">
        <ele>596.40002441406</ele>
        <time>2018-05-01T15:51:01.000Z</time>
      </trkpt>
      <trkpt lat="47.31669" lon="6.60356">
        <ele>596.79998779297</ele>
        <time>2018-05-01T15:51:02.000Z</time>
      </trkpt>
      <trkpt lat="47.31676" lon="6.60356">
        <ele>597.79998779297</ele>
        <time>2018-05-01T15:51:08.000Z</time>
      </trkpt>
      <trkpt lat="47.31679" lon="6.60356">
        <ele>598.20001220703</ele>
        <time>2018-05-01T15:51:10.000Z</time>
      </trkpt>
      <trkpt lat="47.31685" lon="6.60357">
        <ele>598.79998779297</ele>
        <time>2018-05-01T15:51:14.000Z</time>
      </trkpt>
      <trkpt lat="47.31686" lon="6.60357">
        <ele>599</ele>
        <time>2018-05-01T15:51:15.000Z</time>
      </trkpt>
      <trkpt lat="47.31689" lon="6.60359">
        <ele>599.20001220703</ele>
        <time>2018-05-01T15:51:18.000Z</time>
      </trkpt>
      <trkpt lat="47.31694" lon="6.60362">
        <ele>599.20001220703</ele>
        <time>2018-05-01T15:51:22.000Z</time>
      </trkpt>
      <trkpt lat="47.31695" lon="6.60362">
        <ele>599.40002441406</ele>
        <time>2018-05-01T15:51:23.000Z</time>
      </trkpt>
      <trkpt lat="47.317" lon="6.60365">
        <ele>599.59997558594</ele>
        <time>2018-05-01T15:51:27.000Z</time>
      </trkpt>
      <trkpt lat="47.31704" lon="6.60368">
        <ele>599.59997558594</ele>
        <time>2018-05-01T15:51:30.000Z</time>
      </trkpt>
      <trkpt lat="47.31711" lon="6.60371">
        <ele>600</ele>
        <time>2018-05-01T15:51:35.000Z</time>
      </trkpt>
      <trkpt lat="47.31715" lon="6.60373">
        <ele>600.20001220703</ele>
        <time>2018-05-01T15:51:38.000Z</time>
      </trkpt>
      <trkpt lat="47.31719" lon="6.60377">
        <ele>600</ele>
        <time>2018-05-01T15:51:41.000Z</time>
      </trkpt>
      <trkpt lat="47.31726" lon="6.60382">
        <ele>600.20001220703</ele>
        <time>2018-05-01T15:51:46.000Z</time>
      </trkpt>
      <trkpt lat="47.31728" lon="6.60383">
        <ele>600.40002441406</ele>
        <time>2018-05-01T15:51:47.000Z</time>
      </trkpt>
      <trkpt lat="47.31736" lon="6.60389">
        <ele>601</ele>
        <time>2018-05-01T15:51:52.000Z</time>
      </trkpt>
      <trkpt lat="47.3174" lon="6.6039">
        <ele>601.59997558594</ele>
        <time>2018-05-01T15:51:54.000Z</time>
      </trkpt>
      <trkpt lat="47.31752" lon="6.60396">
        <ele>603</ele>
        <time>2018-05-01T15:52:01.000Z</time>
      </trkpt>
      <trkpt lat="47.31768" lon="6.604">
        <ele>606</ele>
        <time>2018-05-01T15:52:09.000Z</time>
      </trkpt>
      <trkpt lat="47.31769" lon="6.604">
        <ele>606.40002441406</ele>
        <time>2018-05-01T15:52:10.000Z</time>
      </trkpt>
      <trkpt lat="47.31774" lon="6.60401">
        <ele>607.20001220703</ele>
        <time>2018-05-01T15:52:13.000Z</time>
      </trkpt>
      <trkpt lat="47.31777" lon="6.60402">
        <ele>608</ele>
        <time>2018-05-01T15:52:16.000Z</time>
      </trkpt>
      <trkpt lat="47.3178" lon="6.60403">
        <ele>608.59997558594</ele>
        <time>2018-05-01T15:52:18.000Z</time>
      </trkpt>
      <trkpt lat="47.31785" lon="6.60403">
        <ele>609.40002441406</ele>
        <time>2018-05-01T15:52:21.000Z</time>
      </trkpt>
      <trkpt lat="47.31787" lon="6.60404">
        <ele>610</ele>
        <time>2018-05-01T15:52:23.000Z</time>
      </trkpt>
      <trkpt lat="47.31788" lon="6.60404">
        <ele>610.20001220703</ele>
        <time>2018-05-01T15:52:24.000Z</time>
      </trkpt>
      <trkpt lat="47.31796" lon="6.60408">
        <ele>610.79998779297</ele>
        <time>2018-05-01T15:52:30.000Z</time>
      </trkpt>
      <trkpt lat="47.31798" lon="6.60408">
        <ele>611.40002441406</ele>
        <time>2018-05-01T15:52:32.000Z</time>
      </trkpt>
      <trkpt lat="47.318" lon="6.60409">
        <ele>611.59997558594</ele>
        <time>2018-05-01T15:52:33.000Z</time>
      </trkpt>
      <trkpt lat="47.3181" lon="6.60414">
        <ele>612.79998779297</ele>
        <time>2018-05-01T15:52:41.000Z</time>
      </trkpt>
      <trkpt lat="47.31812" lon="6.60415">
        <ele>613</ele>
        <time>2018-05-01T15:52:42.000Z</time>
      </trkpt>
      <trkpt lat="47.31819" lon="6.60418">
        <ele>613.79998779297</ele>
        <time>2018-05-01T15:52:47.000Z</time>
      </trkpt>
      <trkpt lat="47.3182" lon="6.60418">
        <ele>614.20001220703</ele>
        <time>2018-05-01T15:52:48.000Z</time>
      </trkpt>
      <trkpt lat="47.31827" lon="6.6042">
        <ele>615.20001220703</ele>
        <time>2018-05-01T15:52:53.000Z</time>
      </trkpt>
      <trkpt lat="47.31829" lon="6.60421">
        <ele>615.59997558594</ele>
        <time>2018-05-01T15:52:55.000Z</time>
      </trkpt>
      <trkpt lat="47.31831" lon="6.60422">
        <ele>615.59997558594</ele>
        <time>2018-05-01T15:52:56.000Z</time>
      </trkpt>
      <trkpt lat="47.31838" lon="6.60422">
        <ele>617.40002441406</ele>
        <time>2018-05-01T15:53:02.000Z</time>
      </trkpt>
      <trkpt lat="47.31835" lon="6.60416">
        <ele>618.59997558594</ele>
        <time>2018-05-01T15:53:06.000Z</time>
      </trkpt>
      <trkpt lat="47.31825" lon="6.60409">
        <ele>618</ele>
        <time>2018-05-01T15:53:11.000Z</time>
      </trkpt>
      <trkpt lat="47.3181" lon="6.60393">
        <ele>619.20001220703</ele>
        <time>2018-05-01T15:53:19.000Z</time>
      </trkpt>
      <trkpt lat="47.31802" lon="6.60384">
        <ele>619.79998779297</ele>
        <time>2018-05-01T15:53:23.000Z</time>
      </trkpt>
      <trkpt lat="47.31799" lon="6.6038">
        <ele>620.20001220703</ele>
        <time>2018-05-01T15:53:25.000Z</time>
      </trkpt>
      <trkpt lat="47.31792" lon="6.60369">
        <ele>622</ele>
        <time>2018-05-01T15:53:31.000Z</time>
      </trkpt>
      <trkpt lat="47.31788" lon="6.60364">
        <ele>622</ele>
        <time>2018-05-01T15:53:35.000Z</time>
      </trkpt>
      <trkpt lat="47.31784" lon="6.60358">
        <ele>622.79998779297</ele>
        <time>2018-05-01T15:53:39.000Z</time>
      </trkpt>
      <trkpt lat="47.3178" lon="6.60352">
        <ele>623.59997558594</ele>
        <time>2018-05-01T15:53:43.000Z</time>
      </trkpt>
      <trkpt lat="47.31777" lon="6.60348">
        <ele>624</ele>
        <time>2018-05-01T15:53:46.000Z</time>
      </trkpt>
      <trkpt lat="47.31777" lon="6.60347">
        <ele>624.20001220703</ele>
        <time>2018-05-01T15:53:47.000Z</time>
      </trkpt>
      <trkpt lat="47.3177" lon="6.6034">
        <ele>624.59997558594</ele>
        <time>2018-05-01T15:53:53.000Z</time>
      </trkpt>
      <trkpt lat="47.31769" lon="6.60338">
        <ele>624.59997558594</ele>
        <time>2018-05-01T15:53:54.000Z</time>
      </trkpt>
      <trkpt lat="47.31763" lon="6.60332">
        <ele>624.79998779297</ele>
        <time>2018-05-01T15:54:00.000Z</time>
      </trkpt>
      <trkpt lat="47.31759" lon="6.60328">
        <ele>625</ele>
        <time>2018-05-01T15:54:03.000Z</time>
      </trkpt>
      <trkpt lat="47.31754" lon="6.60323">
        <ele>625.40002441406</ele>
        <time>2018-05-01T15:54:07.000Z</time>
      </trkpt>
      <trkpt lat="47.31751" lon="6.6032">
        <ele>625.40002441406</ele>
        <time>2018-05-01T15:54:09.000Z</time>
      </trkpt>
      <trkpt lat="47.31736" lon="6.60307">
        <ele>623</ele>
        <time>2018-05-01T15:54:19.000Z</time>
      </trkpt>
      <trkpt lat="47.31732" lon="6.60304">
        <ele>622.40002441406</ele>
        <time>2018-05-01T15:54:21.000Z</time>
      </trkpt>
      <trkpt lat="47.31725" lon="6.60295">
        <ele>621.40002441406</ele>
        <time>2018-05-01T15:54:26.000Z</time>
      </trkpt>
      <trkpt lat="47.31718" lon="6.60284">
        <ele>620.59997558594</ele>
        <time>2018-05-01T15:54:32.000Z</time>
      </trkpt>
      <trkpt lat="47.31717" lon="6.60282">
        <ele>620.59997558594</ele>
        <time>2018-05-01T15:54:34.000Z</time>
      </trkpt>
      <trkpt lat="47.31716" lon="6.60281">
        <ele>620.40002441406</ele>
        <time>2018-05-01T15:54:38.000Z</time>
      </trkpt>
      <trkpt lat="47.31716" lon="6.60281">
        <ele>620.40002441406</ele>
        <time>2018-05-01T15:54:55.000Z</time>
      </trkpt>
      <trkpt lat="47.31715" lon="6.60281">
        <ele>620.20001220703</ele>
        <time>2018-05-01T15:55:23.000Z</time>
      </trkpt>
      <trkpt lat="47.31715" lon="6.60281">
        <ele>620.20001220703</ele>
        <time>2018-05-01T15:55:45.000Z</time>
      </trkpt>
      <trkpt lat="47.31715" lon="6.60281">
        <ele>620.20001220703</ele>
        <time>2018-05-01T15:55:58.000Z</time>
      </trkpt>
      <trkpt lat="47.31715" lon="6.60281">
        <ele>620.20001220703</ele>
        <time>2018-05-01T15:56:04.000Z</time>
      </trkpt>
      <trkpt lat="47.31715" lon="6.60281">
        <ele>620.20001220703</ele>
        <time>2018-05-01T15:56:26.000Z</time>
      </trkpt>
      <trkpt lat="47.31716" lon="6.60281">
        <ele>620.59997558594</ele>
        <time>2018-05-01T15:56:33.000Z</time>
      </trkpt>
      <trkpt lat="47.31718" lon="6.60281">
        <ele>620.79998779297</ele>
        <time>2018-05-01T15:56:35.000Z</time>
      </trkpt>
      <trkpt lat="47.3172" lon="6.6028">
        <ele>621.59997558594</ele>
        <time>2018-05-01T15:56:40.000Z</time>
      </trkpt>
      <trkpt lat="47.31723" lon="6.60279">
        <ele>622.40002441406</ele>
        <time>2018-05-01T15:56:42.000Z</time>
      </trkpt>
      <trkpt lat="47.31728" lon="6.60282">
        <ele>623.40002441406</ele>
        <time>2018-05-01T15:56:45.000Z</time>
      </trkpt>
      <trkpt lat="47.31731" lon="6.60286">
        <ele>624</ele>
        <time>2018-05-01T15:56:47.000Z</time>
      </trkpt>
      <trkpt lat="47.31738" lon="6.60293">
        <ele>625</ele>
        <time>2018-05-01T15:56:51.000Z</time>
      </trkpt>
      <trkpt lat="47.31742" lon="6.60297">
        <ele>625.59997558594</ele>
        <time>2018-05-01T15:56:53.000Z</time>
      </trkpt>
      <trkpt lat="47.31755" lon="6.60306">
        <ele>627.59997558594</ele>
        <time>2018-05-01T15:57:00.000Z</time>
      </trkpt>
      <trkpt lat="47.31758" lon="6.60307">
        <ele>628</ele>
        <time>2018-05-01T15:57:02.000Z</time>
      </trkpt>
      <trkpt lat="47.31762" lon="6.60307">
        <ele>628.59997558594</ele>
        <time>2018-05-01T15:57:04.000Z</time>
      </trkpt>
      <trkpt lat="47.31766" lon="6.60308">
        <ele>629.20001220703</ele>
        <time>2018-05-01T15:57:07.000Z</time>
      </trkpt>
      <trkpt lat="47.31772" lon="6.60309">
        <ele>630.20001220703</ele>
        <time>2018-05-01T15:57:11.000Z</time>
      </trkpt>
      <trkpt lat="47.31777" lon="6.6031">
        <ele>630.79998779297</ele>
        <time>2018-05-01T15:57:14.000Z</time>
      </trkpt>
      <trkpt lat="47.31778" lon="6.6031">
        <ele>631</ele>
        <time>2018-05-01T15:57:15.000Z</time>
      </trkpt>
      <trkpt lat="47.31784" lon="6.60311">
        <ele>632</ele>
        <time>2018-05-01T15:57:20.000Z</time>
      </trkpt>
      <trkpt lat="47.31787" lon="6.60311">
        <ele>632.40002441406</ele>
        <time>2018-05-01T15:57:22.000Z</time>
      </trkpt>
      <trkpt lat="47.31788" lon="6.60311">
        <ele>632.59997558594</ele>
        <time>2018-05-01T15:57:23.000Z</time>
      </trkpt>
      <trkpt lat="47.3179" lon="6.60309">
        <ele>633.20001220703</ele>
        <time>2018-05-01T15:57:25.000Z</time>
      </trkpt>
      <trkpt lat="47.31792" lon="6.60306">
        <ele>633.79998779297</ele>
        <time>2018-05-01T15:57:27.000Z</time>
      </trkpt>
      <trkpt lat="47.31792" lon="6.60303">
        <ele>634</ele>
        <time>2018-05-01T15:57:29.000Z</time>
      </trkpt>
      <trkpt lat="47.31791" lon="6.60301">
        <ele>634.20001220703</ele>
        <time>2018-05-01T15:57:31.000Z</time>
      </trkpt>
      <trkpt lat="47.31788" lon="6.60299">
        <ele>633.79998779297</ele>
        <time>2018-05-01T15:57:33.000Z</time>
      </trkpt>
      <trkpt lat="47.31775" lon="6.60288">
        <ele>632.59997558594</ele>
        <time>2018-05-01T15:57:40.000Z</time>
      </trkpt>
      <trkpt lat="47.31774" lon="6.60286">
        <ele>632.79998779297</ele>
        <time>2018-05-01T15:57:41.000Z</time>
      </trkpt>
      <trkpt lat="47.31771" lon="6.60284">
        <ele>632.20001220703</ele>
        <time>2018-05-01T15:57:44.000Z</time>
      </trkpt>
      <trkpt lat="47.31772" lon="6.60292">
        <ele>631.79998779297</ele>
        <time>2018-05-01T15:57:47.000Z</time>
      </trkpt>
      <trkpt lat="47.31779" lon="6.60294">
        <ele>632.59997558594</ele>
        <time>2018-05-01T15:57:50.000Z</time>
      </trkpt>
      <trkpt lat="47.31786" lon="6.60297">
        <ele>633.59997558594</ele>
        <time>2018-05-01T15:57:53.000Z</time>
      </trkpt>
      <trkpt lat="47.3181" lon="6.60306">
        <ele>636.79998779297</ele>
        <time>2018-05-01T15:58:02.000Z</time>
      </trkpt>
      <trkpt lat="47.31813" lon="6.60307">
        <ele>637.20001220703</ele>
        <time>2018-05-01T15:58:03.000Z</time>
      </trkpt>
      <trkpt lat="47.3183" lon="6.60315">
        <ele>638.59997558594</ele>
        <time>2018-05-01T15:58:10.000Z</time>
      </trkpt>
      <trkpt lat="47.31843" lon="6.60322">
        <ele>638.79998779297</ele>
        <time>2018-05-01T15:58:15.000Z</time>
      </trkpt>
      <trkpt lat="47.31849" lon="6.60324">
        <ele>638.79998779297</ele>
        <time>2018-05-01T15:58:17.000Z</time>
      </trkpt>
      <trkpt lat="47.31862" lon="6.60332">
        <ele>638.79998779297</ele>
        <time>2018-05-01T15:58:22.000Z</time>
      </trkpt>
      <trkpt lat="47.31874" lon="6.60343">
        <ele>638.79998779297</ele>
        <time>2018-05-01T15:58:27.000Z</time>
      </trkpt>
      <trkpt lat="47.31876" lon="6.60345">
        <ele>638.79998779297</ele>
        <time>2018-05-01T15:58:28.000Z</time>
      </trkpt>
      <trkpt lat="47.31891" lon="6.60361">
        <ele>639</ele>
        <time>2018-05-01T15:58:34.000Z</time>
      </trkpt>
      <trkpt lat="47.31906" lon="6.60373">
        <ele>639.20001220703</ele>
        <time>2018-05-01T15:58:39.000Z</time>
      </trkpt>
      <trkpt lat="47.31914" lon="6.6038">
        <ele>639.20001220703</ele>
        <time>2018-05-01T15:58:42.000Z</time>
      </trkpt>
      <trkpt lat="47.31933" lon="6.60396">
        <ele>640.20001220703</ele>
        <time>2018-05-01T15:58:49.000Z</time>
      </trkpt>
      <trkpt lat="47.31939" lon="6.60399">
        <ele>640.59997558594</ele>
        <time>2018-05-01T15:58:51.000Z</time>
      </trkpt>
      <trkpt lat="47.31952" lon="6.60408">
        <ele>640.59997558594</ele>
        <time>2018-05-01T15:58:55.000Z</time>
      </trkpt>
      <trkpt lat="47.31956" lon="6.60411">
        <ele>640.59997558594</ele>
        <time>2018-05-01T15:58:56.000Z</time>
      </trkpt>
      <trkpt lat="47.31971" lon="6.60423">
        <ele>640.40002441406</ele>
        <time>2018-05-01T15:59:00.000Z</time>
      </trkpt>
      <trkpt lat="47.31981" lon="6.60432">
        <ele>640.20001220703</ele>
        <time>2018-05-01T15:59:03.000Z</time>
      </trkpt>
      <trkpt lat="47.31988" lon="6.60435">
        <ele>640.20001220703</ele>
        <time>2018-05-01T15:59:05.000Z</time>
      </trkpt>
      <trkpt lat="47.32009" lon="6.60432">
        <ele>642.20001220703</ele>
        <time>2018-05-01T15:59:10.000Z</time>
      </trkpt>
      <trkpt lat="47.32014" lon="6.60432">
        <ele>643</ele>
        <time>2018-05-01T15:59:11.000Z</time>
      </trkpt>
      <trkpt lat="47.32031" lon="6.60434">
        <ele>645.20001220703</ele>
        <time>2018-05-01T15:59:14.000Z</time>
      </trkpt>
      <trkpt lat="47.32043" lon="6.60436">
        <ele>645.20001220703</ele>
        <time>2018-05-01T15:59:16.000Z</time>
      </trkpt>
      <trkpt lat="47.32049" lon="6.60437">
        <ele>645.40002441406</ele>
        <time>2018-05-01T15:59:17.000Z</time>
      </trkpt>
      <trkpt lat="47.32061" lon="6.60438">
        <ele>645.40002441406</ele>
        <time>2018-05-01T15:59:19.000Z</time>
      </trkpt>
      <trkpt lat="47.32073" lon="6.60439">
        <ele>645.59997558594</ele>
        <time>2018-05-01T15:59:21.000Z</time>
      </trkpt>
      <trkpt lat="47.32085" lon="6.60438">
        <ele>645.79998779297</ele>
        <time>2018-05-01T15:59:23.000Z</time>
      </trkpt>
      <trkpt lat="47.3209" lon="6.60436">
        <ele>645.79998779297</ele>
        <time>2018-05-01T15:59:24.000Z</time>
      </trkpt>
      <trkpt lat="47.32095" lon="6.60434">
        <ele>646</ele>
        <time>2018-05-01T15:59:25.000Z</time>
      </trkpt>
      <trkpt lat="47.32101" lon="6.60432">
        <ele>646</ele>
        <time>2018-05-01T15:59:26.000Z</time>
      </trkpt>
      <trkpt lat="47.32106" lon="6.6043">
        <ele>646.20001220703</ele>
        <time>2018-05-01T15:59:27.000Z</time>
      </trkpt>
      <trkpt lat="47.3211" lon="6.60428">
        <ele>646.59997558594</ele>
        <time>2018-05-01T15:59:28.000Z</time>
      </trkpt>
      <trkpt lat="47.32115" lon="6.60426">
        <ele>647.40002441406</ele>
        <time>2018-05-01T15:59:29.000Z</time>
      </trkpt>
      <trkpt lat="47.3212" lon="6.60422">
        <ele>648</ele>
        <time>2018-05-01T15:59:30.000Z</time>
      </trkpt>
      <trkpt lat="47.32123" lon="6.60418">
        <ele>648.20001220703</ele>
        <time>2018-05-01T15:59:31.000Z</time>
      </trkpt>
      <trkpt lat="47.32125" lon="6.60414">
        <ele>648.59997558594</ele>
        <time>2018-05-01T15:59:32.000Z</time>
      </trkpt>
      <trkpt lat="47.32128" lon="6.60411">
        <ele>649</ele>
        <time>2018-05-01T15:59:33.000Z</time>
      </trkpt>
      <trkpt lat="47.32131" lon="6.60407">
        <ele>649.20001220703</ele>
        <time>2018-05-01T15:59:34.000Z</time>
      </trkpt>
      <trkpt lat="47.32132" lon="6.60403">
        <ele>649.59997558594</ele>
        <time>2018-05-01T15:59:35.000Z</time>
      </trkpt>
      <trkpt lat="47.32134" lon="6.60399">
        <ele>649.40002441406</ele>
        <time>2018-05-01T15:59:36.000Z</time>
      </trkpt>
      <trkpt lat="47.32136" lon="6.60395">
        <ele>649.20001220703</ele>
        <time>2018-05-01T15:59:37.000Z</time>
      </trkpt>
      <trkpt lat="47.32137" lon="6.60391">
        <ele>648.79998779297</ele>
        <time>2018-05-01T15:59:38.000Z</time>
      </trkpt>
      <trkpt lat="47.32141" lon="6.60384">
        <ele>648.40002441406</ele>
        <time>2018-05-01T15:59:40.000Z</time>
      </trkpt>
      <trkpt lat="47.32145" lon="6.60377">
        <ele>648.59997558594</ele>
        <time>2018-05-01T15:59:42.000Z</time>
      </trkpt>
      <trkpt lat="47.32148" lon="6.6037">
        <ele>649</ele>
        <time>2018-05-01T15:59:44.000Z</time>
      </trkpt>
      <trkpt lat="47.32152" lon="6.60364">
        <ele>649.79998779297</ele>
        <time>2018-05-01T15:59:46.000Z</time>
      </trkpt>
      <trkpt lat="47.32156" lon="6.60354">
        <ele>650.40002441406</ele>
        <time>2018-05-01T15:59:49.000Z</time>
      </trkpt>
      <trkpt lat="47.32158" lon="6.60348">
        <ele>650.79998779297</ele>
        <time>2018-05-01T15:59:51.000Z</time>
      </trkpt>
      <trkpt lat="47.3216" lon="6.60344">
        <ele>651</ele>
        <time>2018-05-01T15:59:52.000Z</time>
      </trkpt>
      <trkpt lat="47.32163" lon="6.6033">
        <ele>651.20001220703</ele>
        <time>2018-05-01T15:59:55.000Z</time>
      </trkpt>
      <trkpt lat="47.32164" lon="6.60322">
        <ele>651.20001220703</ele>
        <time>2018-05-01T15:59:57.000Z</time>
      </trkpt>
      <trkpt lat="47.32174" lon="6.6029">
        <ele>649.59997558594</ele>
        <time>2018-05-01T16:00:04.000Z</time>
      </trkpt>
      <trkpt lat="47.32176" lon="6.60281">
        <ele>649</ele>
        <time>2018-05-01T16:00:06.000Z</time>
      </trkpt>
      <trkpt lat="47.3218" lon="6.60267">
        <ele>648.20001220703</ele>
        <time>2018-05-01T16:00:09.000Z</time>
      </trkpt>
      <trkpt lat="47.32183" lon="6.60257">
        <ele>647.59997558594</ele>
        <time>2018-05-01T16:00:11.000Z</time>
      </trkpt>
      <trkpt lat="47.32184" lon="6.60253">
        <ele>647.59997558594</ele>
        <time>2018-05-01T16:00:12.000Z</time>
      </trkpt>
      <trkpt lat="47.32186" lon="6.60238">
        <ele>647.79998779297</ele>
        <time>2018-05-01T16:00:15.000Z</time>
      </trkpt>
      <trkpt lat="47.32189" lon="6.60225">
        <ele>647</ele>
        <time>2018-05-01T16:00:18.000Z</time>
      </trkpt>
      <trkpt lat="47.3219" lon="6.60221">
        <ele>646.79998779297</ele>
        <time>2018-05-01T16:00:19.000Z</time>
      </trkpt>
      <trkpt lat="47.32193" lon="6.60209">
        <ele>645.79998779297</ele>
        <time>2018-05-01T16:00:22.000Z</time>
      </trkpt>
      <trkpt lat="47.32196" lon="6.60198">
        <ele>645</ele>
        <time>2018-05-01T16:00:25.000Z</time>
      </trkpt>
      <trkpt lat="47.32197" lon="6.60195">
        <ele>644.59997558594</ele>
        <time>2018-05-01T16:00:26.000Z</time>
      </trkpt>
      <trkpt lat="47.32198" lon="6.60191">
        <ele>644.40002441406</ele>
        <time>2018-05-01T16:00:27.000Z</time>
      </trkpt>
      <trkpt lat="47.32198" lon="6.60187">
        <ele>644</ele>
        <time>2018-05-01T16:00:28.000Z</time>
      </trkpt>
      <trkpt lat="47.322" lon="6.60181">
        <ele>644.20001220703</ele>
        <time>2018-05-01T16:00:30.000Z</time>
      </trkpt>
      <trkpt lat="47.32201" lon="6.60174">
        <ele>644.20001220703</ele>
        <time>2018-05-01T16:00:32.000Z</time>
      </trkpt>
      <trkpt lat="47.32202" lon="6.60166">
        <ele>644.20001220703</ele>
        <time>2018-05-01T16:00:34.000Z</time>
      </trkpt>
      <trkpt lat="47.32203" lon="6.60162">
        <ele>644.20001220703</ele>
        <time>2018-05-01T16:00:35.000Z</time>
      </trkpt>
      <trkpt lat="47.32203" lon="6.60159">
        <ele>644.20001220703</ele>
        <time>2018-05-01T16:00:36.000Z</time>
      </trkpt>
      <trkpt lat="47.32204" lon="6.60154">
        <ele>644.20001220703</ele>
        <time>2018-05-01T16:00:37.000Z</time>
      </trkpt>
      <trkpt lat="47.32205" lon="6.6015">
        <ele>644.20001220703</ele>
        <time>2018-05-01T16:00:38.000Z</time>
      </trkpt>
      <trkpt lat="47.32205" lon="6.60145">
        <ele>644</ele>
        <time>2018-05-01T16:00:39.000Z</time>
      </trkpt>
      <trkpt lat="47.32205" lon="6.6014">
        <ele>643.59997558594</ele>
        <time>2018-05-01T16:00:40.000Z</time>
      </trkpt>
      <trkpt lat="47.32207" lon="6.60133">
        <ele>643.59997558594</ele>
        <time>2018-05-01T16:00:42.000Z</time>
      </trkpt>
      <trkpt lat="47.32208" lon="6.60127">
        <ele>643.40002441406</ele>
        <time>2018-05-01T16:00:44.000Z</time>
      </trkpt>
      <trkpt lat="47.3221" lon="6.60121">
        <ele>643.40002441406</ele>
        <time>2018-05-01T16:00:46.000Z</time>
      </trkpt>
      <trkpt lat="47.32212" lon="6.60116">
        <ele>643.59997558594</ele>
        <time>2018-05-01T16:00:48.000Z</time>
      </trkpt>
      <trkpt lat="47.32216" lon="6.60109">
        <ele>644.59997558594</ele>
        <time>2018-05-01T16:00:51.000Z</time>
      </trkpt>
      <trkpt lat="47.32218" lon="6.60101">
        <ele>645.20001220703</ele>
        <time>2018-05-01T16:00:54.000Z</time>
      </trkpt>
      <trkpt lat="47.3222" lon="6.60095">
        <ele>645.59997558594</ele>
        <time>2018-05-01T16:00:56.000Z</time>
      </trkpt>
      <trkpt lat="47.32221" lon="6.60093">
        <ele>645.79998779297</ele>
        <time>2018-05-01T16:00:57.000Z</time>
      </trkpt>
      <trkpt lat="47.32222" lon="6.6009">
        <ele>645.79998779297</ele>
        <time>2018-05-01T16:00:58.000Z</time>
      </trkpt>
      <trkpt lat="47.32223" lon="6.60084">
        <ele>646</ele>
        <time>2018-05-01T16:01:00.000Z</time>
      </trkpt>
      <trkpt lat="47.32225" lon="6.60077">
        <ele>646.59997558594</ele>
        <time>2018-05-01T16:01:03.000Z</time>
      </trkpt>
      <trkpt lat="47.32228" lon="6.60068">
        <ele>647.40002441406</ele>
        <time>2018-05-01T16:01:07.000Z</time>
      </trkpt>
      <trkpt lat="47.32231" lon="6.6006">
        <ele>647.20001220703</ele>
        <time>2018-05-01T16:01:10.000Z</time>
      </trkpt>
      <trkpt lat="47.32233" lon="6.60056">
        <ele>647.20001220703</ele>
        <time>2018-05-01T16:01:12.000Z</time>
      </trkpt>
      <trkpt lat="47.32235" lon="6.60046">
        <ele>647.20001220703</ele>
        <time>2018-05-01T16:01:16.000Z</time>
      </trkpt>
      <trkpt lat="47.32237" lon="6.60037">
        <ele>647.20001220703</ele>
        <time>2018-05-01T16:01:19.000Z</time>
      </trkpt>
      <trkpt lat="47.3224" lon="6.60029">
        <ele>647.20001220703</ele>
        <time>2018-05-01T16:01:22.000Z</time>
      </trkpt>
      <trkpt lat="47.32244" lon="6.60017">
        <ele>647.59997558594</ele>
        <time>2018-05-01T16:01:27.000Z</time>
      </trkpt>
      <trkpt lat="47.32244" lon="6.60014">
        <ele>647.40002441406</ele>
        <time>2018-05-01T16:01:28.000Z</time>
      </trkpt>
      <trkpt lat="47.32246" lon="6.60009">
        <ele>647.59997558594</ele>
        <time>2018-05-01T16:01:30.000Z</time>
      </trkpt>
      <trkpt lat="47.32246" lon="6.60005">
        <ele>647.40002441406</ele>
        <time>2018-05-01T16:01:32.000Z</time>
      </trkpt>
      <trkpt lat="47.32247" lon="6.60001">
        <ele>647.20001220703</ele>
        <time>2018-05-01T16:01:34.000Z</time>
      </trkpt>
      <trkpt lat="47.32248" lon="6.6">
        <ele>647.20001220703</ele>
        <time>2018-05-01T16:01:37.000Z</time>
      </trkpt>
      <trkpt lat="47.32248" lon="6.6">
        <ele>647.20001220703</ele>
        <time>2018-05-01T16:01:48.000Z</time>
      </trkpt>
      <trkpt lat="47.32248" lon="6.6">
        <ele>647.20001220703</ele>
        <time>2018-05-01T16:02:00.000Z</time>
      </trkpt>
      <trkpt lat="47.32248" lon="6.6">
        <ele>647.20001220703</ele>
        <time>2018-05-01T16:02:18.000Z</time>
      </trkpt>
      <trkpt lat="47.32248" lon="6.6">
        <ele>647.20001220703</ele>
        <time>2018-05-01T16:02:32.000Z</time>
      </trkpt>
      <trkpt lat="47.32248" lon="6.6">
        <ele>647.20001220703</ele>
        <time>2018-05-01T16:02:48.000Z</time>
      </trkpt>
      <trkpt lat="47.32248" lon="6.6">
        <ele>647.20001220703</ele>
        <time>2018-05-01T16:03:02.000Z</time>
      </trkpt>
      <trkpt lat="47.32248" lon="6.6">
        <ele>647.20001220703</ele>
        <time>2018-05-01T16:03:18.000Z</time>
      </trkpt>
      <trkpt lat="47.32248" lon="6.6">
        <ele>647.20001220703</ele>
        <time>2018-05-01T16:03:36.000Z</time>
      </trkpt>
      <trkpt lat="47.32248" lon="6.6">
        <ele>647.20001220703</ele>
        <time>2018-05-01T16:03:54.000Z</time>
      </trkpt>
      <trkpt lat="47.32248" lon="6.6">
        <ele>647.20001220703</ele>
        <time>2018-05-01T16:04:09.000Z</time>
      </trkpt>
      <trkpt lat="47.32248" lon="6.6">
        <ele>647.20001220703</ele>
        <time>2018-05-01T16:04:28.000Z</time>
      </trkpt>
      <trkpt lat="47.32248" lon="6.6">
        <ele>647.20001220703</ele>
        <time>2018-05-01T16:04:43.000Z</time>
      </trkpt>
      <trkpt lat="47.32248" lon="6.6">
        <ele>647.20001220703</ele>
        <time>2018-05-01T16:05:07.000Z</time>
      </trkpt>
      <trkpt lat="47.32246" lon="6.59999">
        <ele>646.79998779297</ele>
        <time>2018-05-01T16:05:24.000Z</time>
      </trkpt>
      <trkpt lat="47.32245" lon="6.59997">
        <ele>646.40002441406</ele>
        <time>2018-05-01T16:05:28.000Z</time>
      </trkpt>
      <trkpt lat="47.32245" lon="6.59997">
        <ele>646.40002441406</ele>
        <time>2018-05-01T16:05:50.000Z</time>
      </trkpt>
      <trkpt lat="47.32246" lon="6.59998">
        <ele>646.79998779297</ele>
        <time>2018-05-01T16:06:17.000Z</time>
      </trkpt>
      <trkpt lat="47.32248" lon="6.60003">
        <ele>647.59997558594</ele>
        <time>2018-05-01T16:06:22.000Z</time>
      </trkpt>
      <trkpt lat="47.32254" lon="6.60008">
        <ele>648.20001220703</ele>
        <time>2018-05-01T16:06:28.000Z</time>
      </trkpt>
      <trkpt lat="47.32255" lon="6.60007">
        <ele>648.20001220703</ele>
        <time>2018-05-01T16:06:29.000Z</time>
      </trkpt>
      <trkpt lat="47.32259" lon="6.60003">
        <ele>648</ele>
        <time>2018-05-01T16:06:32.000Z</time>
      </trkpt>
      <trkpt lat="47.32264" lon="6.59999">
        <ele>647.79998779297</ele>
        <time>2018-05-01T16:06:37.000Z</time>
      </trkpt>
      <trkpt lat="47.3227" lon="6.59999">
        <ele>647.79998779297</ele>
        <time>2018-05-01T16:06:43.000Z</time>
      </trkpt>
      <trkpt lat="47.32269" lon="6.59998">
        <ele>647.79998779297</ele>
        <time>2018-05-01T16:06:44.000Z</time>
      </trkpt>
      <trkpt lat="47.32271" lon="6.59996">
        <ele>647.59997558594</ele>
        <time>2018-05-01T16:06:48.000Z</time>
      </trkpt>
      <trkpt lat="47.32273" lon="6.59995">
        <ele>647.40002441406</ele>
        <time>2018-05-01T16:06:52.000Z</time>
      </trkpt>
      <trkpt lat="47.32272" lon="6.59995">
        <ele>647.40002441406</ele>
        <time>2018-05-01T16:06:58.000Z</time>
      </trkpt>
      <trkpt lat="47.32278" lon="6.59995">
        <ele>647.59997558594</ele>
        <time>2018-05-01T16:07:03.000Z</time>
      </trkpt>
      <trkpt lat="47.32282" lon="6.59995">
        <ele>647.59997558594</ele>
        <time>2018-05-01T16:07:04.000Z</time>
      </trkpt>
      <trkpt lat="47.32288" lon="6.59995">
        <ele>647.79998779297</ele>
        <time>2018-05-01T16:07:06.000Z</time>
      </trkpt>
      <trkpt lat="47.32295" lon="6.59995">
        <ele>647.79998779297</ele>
        <time>2018-05-01T16:07:08.000Z</time>
      </trkpt>
      <trkpt lat="47.32299" lon="6.59994">
        <ele>647.79998779297</ele>
        <time>2018-05-01T16:07:09.000Z</time>
      </trkpt>
      <trkpt lat="47.32302" lon="6.59994">
        <ele>647.79998779297</ele>
        <time>2018-05-01T16:07:10.000Z</time>
      </trkpt>
      <trkpt lat="47.3231" lon="6.59994">
        <ele>647.79998779297</ele>
        <time>2018-05-01T16:07:12.000Z</time>
      </trkpt>
      <trkpt lat="47.32318" lon="6.59996">
        <ele>648.20001220703</ele>
        <time>2018-05-01T16:07:14.000Z</time>
      </trkpt>
      <trkpt lat="47.32322" lon="6.59996">
        <ele>648.20001220703</ele>
        <time>2018-05-01T16:07:15.000Z</time>
      </trkpt>
      <trkpt lat="47.32329" lon="6.59998">
        <ele>648.59997558594</ele>
        <time>2018-05-01T16:07:18.000Z</time>
      </trkpt>
      <trkpt lat="47.32331" lon="6.59998">
        <ele>648.59997558594</ele>
        <time>2018-05-01T16:07:19.000Z</time>
      </trkpt>
      <trkpt lat="47.32341" lon="6.6">
        <ele>648.59997558594</ele>
        <time>2018-05-01T16:07:24.000Z</time>
      </trkpt>
      <trkpt lat="47.32341" lon="6.6">
        <ele>648.59997558594</ele>
        <time>2018-05-01T16:07:25.000Z</time>
      </trkpt>
      <trkpt lat="47.32341" lon="6.6">
        <ele>648.59997558594</ele>
        <time>2018-05-01T16:07:28.000Z</time>
      </trkpt>
      <trkpt lat="47.32344" lon="6.59998">
        <ele>648.40002441406</ele>
        <time>2018-05-01T16:07:35.000Z</time>
      </trkpt>
      <trkpt lat="47.32343" lon="6.59999">
        <ele>648.59997558594</ele>
        <time>2018-05-01T16:07:40.000Z</time>
      </trkpt>
      <trkpt lat="47.32344" lon="6.59999">
        <ele>648.59997558594</ele>
        <time>2018-05-01T16:07:41.000Z</time>
      </trkpt>
      <trkpt lat="47.32345" lon="6.59999">
        <ele>648.59997558594</ele>
        <time>2018-05-01T16:07:44.000Z</time>
      </trkpt>
      <trkpt lat="47.32356" lon="6.6">
        <ele>648.79998779297</ele>
        <time>2018-05-01T16:07:49.000Z</time>
      </trkpt>
      <trkpt lat="47.32368" lon="6.60002">
        <ele>649.40002441406</ele>
        <time>2018-05-01T16:07:54.000Z</time>
      </trkpt>
      <trkpt lat="47.32386" lon="6.60003">
        <ele>649.79998779297</ele>
        <time>2018-05-01T16:08:00.000Z</time>
      </trkpt>
      <trkpt lat="47.324" lon="6.60005">
        <ele>650.40002441406</ele>
        <time>2018-05-01T16:08:05.000Z</time>
      </trkpt>
      <trkpt lat="47.32406" lon="6.60005">
        <ele>650.40002441406</ele>
        <time>2018-05-01T16:08:07.000Z</time>
      </trkpt>
      <trkpt lat="47.32421" lon="6.60005">
        <ele>651</ele>
        <time>2018-05-01T16:08:12.000Z</time>
      </trkpt>
      <trkpt lat="47.32435" lon="6.60008">
        <ele>652</ele>
        <time>2018-05-01T16:08:17.000Z</time>
      </trkpt>
      <trkpt lat="47.32446" lon="6.60008">
        <ele>653.20001220703</ele>
        <time>2018-05-01T16:08:22.000Z</time>
      </trkpt>
      <trkpt lat="47.32449" lon="6.60007">
        <ele>653.40002441406</ele>
        <time>2018-05-01T16:08:23.000Z</time>
      </trkpt>
      <trkpt lat="47.32457" lon="6.6">
        <ele>654.40002441406</ele>
        <time>2018-05-01T16:08:26.000Z</time>
      </trkpt>
      <trkpt lat="47.32462" lon="6.59992">
        <ele>655</ele>
        <time>2018-05-01T16:08:29.000Z</time>
      </trkpt>
      <trkpt lat="47.32464" lon="6.59988">
        <ele>655</ele>
        <time>2018-05-01T16:08:30.000Z</time>
      </trkpt>
      <trkpt lat="47.32468" lon="6.59968">
        <ele>652.59997558594</ele>
        <time>2018-05-01T16:08:36.000Z</time>
      </trkpt>
      <trkpt lat="47.3247" lon="6.59959">
        <ele>651.40002441406</ele>
        <time>2018-05-01T16:08:39.000Z</time>
      </trkpt>
      <trkpt lat="47.32472" lon="6.5995">
        <ele>651.20001220703</ele>
        <time>2018-05-01T16:08:42.000Z</time>
      </trkpt>
      <trkpt lat="47.32473" lon="6.59947">
        <ele>651.20001220703</ele>
        <time>2018-05-01T16:08:43.000Z</time>
      </trkpt>
      <trkpt lat="47.32476" lon="6.59938">
        <ele>651.40002441406</ele>
        <time>2018-05-01T16:08:46.000Z</time>
      </trkpt>
      <trkpt lat="47.32477" lon="6.59932">
        <ele>651.20001220703</ele>
        <time>2018-05-01T16:08:48.000Z</time>
      </trkpt>
      <trkpt lat="47.32478" lon="6.59928">
        <ele>651.20001220703</ele>
        <time>2018-05-01T16:08:49.000Z</time>
      </trkpt>
      <trkpt lat="47.32482" lon="6.59905">
        <ele>650.79998779297</ele>
        <time>2018-05-01T16:08:55.000Z</time>
      </trkpt>
      <trkpt lat="47.32485" lon="6.59898">
        <ele>650.59997558594</ele>
        <time>2018-05-01T16:08:59.000Z</time>
      </trkpt>
      <trkpt lat="47.32485" lon="6.59898">
        <ele>650.59997558594</ele>
        <time>2018-05-01T16:09:08.000Z</time>
      </trkpt>
      <trkpt lat="47.32485" lon="6.59898">
        <ele>650.59997558594</ele>
        <time>2018-05-01T16:09:22.000Z</time>
      </trkpt>
      <trkpt lat="47.32485" lon="6.59898">
        <ele>650.59997558594</ele>
        <time>2018-05-01T16:09:35.000Z</time>
      </trkpt>
      <trkpt lat="47.32489" lon="6.59887">
        <ele>649.79998779297</ele>
        <time>2018-05-01T16:09:41.000Z</time>
      </trkpt>
      <trkpt lat="47.32497" lon="6.59869">
        <ele>650</ele>
        <time>2018-05-01T16:09:46.000Z</time>
      </trkpt>
      <trkpt lat="47.32499" lon="6.59865">
        <ele>649.79998779297</ele>
        <time>2018-05-01T16:09:47.000Z</time>
      </trkpt>
      <trkpt lat="47.32501" lon="6.59857">
        <ele>649</ele>
        <time>2018-05-01T16:09:50.000Z</time>
      </trkpt>
      <trkpt lat="47.32502" lon="6.59857">
        <ele>649</ele>
        <time>2018-05-01T16:09:52.000Z</time>
      </trkpt>
      <trkpt lat="47.32502" lon="6.59857">
        <ele>649</ele>
        <time>2018-05-01T16:10:04.000Z</time>
      </trkpt>
      <trkpt lat="47.32502" lon="6.59857">
        <ele>649</ele>
        <time>2018-05-01T16:10:25.000Z</time>
      </trkpt>
      <trkpt lat="47.32503" lon="6.5985">
        <ele>648.40002441406</ele>
        <time>2018-05-01T16:10:32.000Z</time>
      </trkpt>
      <trkpt lat="47.32507" lon="6.59841">
        <ele>647.59997558594</ele>
        <time>2018-05-01T16:10:34.000Z</time>
      </trkpt>
      <trkpt lat="47.32511" lon="6.59829">
        <ele>646.79998779297</ele>
        <time>2018-05-01T16:10:36.000Z</time>
      </trkpt>
      <trkpt lat="47.32513" lon="6.59824">
        <ele>647</ele>
        <time>2018-05-01T16:10:37.000Z</time>
      </trkpt>
      <trkpt lat="47.32517" lon="6.59811">
        <ele>646.40002441406</ele>
        <time>2018-05-01T16:10:39.000Z</time>
      </trkpt>
      <trkpt lat="47.32519" lon="6.59804">
        <ele>645.40002441406</ele>
        <time>2018-05-01T16:10:40.000Z</time>
      </trkpt>
      <trkpt lat="47.32521" lon="6.59797">
        <ele>644.79998779297</ele>
        <time>2018-05-01T16:10:41.000Z</time>
      </trkpt>
      <trkpt lat="47.32523" lon="6.59791">
        <ele>644</ele>
        <time>2018-05-01T16:10:42.000Z</time>
      </trkpt>
      <trkpt lat="47.32527" lon="6.59777">
        <ele>642.40002441406</ele>
        <time>2018-05-01T16:10:44.000Z</time>
      </trkpt>
      <trkpt lat="47.3253" lon="6.59765">
        <ele>641.40002441406</ele>
        <time>2018-05-01T16:10:46.000Z</time>
      </trkpt>
      <trkpt lat="47.32534" lon="6.59754">
        <ele>642</ele>
        <time>2018-05-01T16:10:48.000Z</time>
      </trkpt>
      <trkpt lat="47.32537" lon="6.59746">
        <ele>642.40002441406</ele>
        <time>2018-05-01T16:10:50.000Z</time>
      </trkpt>
      <trkpt lat="47.3254" lon="6.59736">
        <ele>642.79998779297</ele>
        <time>2018-05-01T16:10:52.000Z</time>
      </trkpt>
      <trkpt lat="47.32542" lon="6.59729">
        <ele>642.40002441406</ele>
        <time>2018-05-01T16:10:53.000Z</time>
      </trkpt>
      <trkpt lat="47.32544" lon="6.59723">
        <ele>642</ele>
        <time>2018-05-01T16:10:54.000Z</time>
      </trkpt>
      <trkpt lat="47.3255" lon="6.59704">
        <ele>641</ele>
        <time>2018-05-01T16:10:57.000Z</time>
      </trkpt>
      <trkpt lat="47.32554" lon="6.59691">
        <ele>640.40002441406</ele>
        <time>2018-05-01T16:10:59.000Z</time>
      </trkpt>
      <trkpt lat="47.32555" lon="6.59685">
        <ele>639.59997558594</ele>
        <time>2018-05-01T16:11:00.000Z</time>
      </trkpt>
      <trkpt lat="47.32558" lon="6.59671">
        <ele>638.40002441406</ele>
        <time>2018-05-01T16:11:02.000Z</time>
      </trkpt>
      <trkpt lat="47.32564" lon="6.59652">
        <ele>637.20001220703</ele>
        <time>2018-05-01T16:11:05.000Z</time>
      </trkpt>
      <trkpt lat="47.32567" lon="6.5964">
        <ele>636.20001220703</ele>
        <time>2018-05-01T16:11:07.000Z</time>
      </trkpt>
      <trkpt lat="47.32569" lon="6.59634">
        <ele>635.59997558594</ele>
        <time>2018-05-01T16:11:08.000Z</time>
      </trkpt>
      <trkpt lat="47.32572" lon="6.59627">
        <ele>634.40002441406</ele>
        <time>2018-05-01T16:11:09.000Z</time>
      </trkpt>
      <trkpt lat="47.32576" lon="6.59618">
        <ele>633.20001220703</ele>
        <time>2018-05-01T16:11:11.000Z</time>
      </trkpt>
      <trkpt lat="47.32582" lon="6.59613">
        <ele>633</ele>
        <time>2018-05-01T16:11:13.000Z</time>
      </trkpt>
      <trkpt lat="47.32587" lon="6.59608">
        <ele>632.40002441406</ele>
        <time>2018-05-01T16:11:15.000Z</time>
      </trkpt>
      <trkpt lat="47.32589" lon="6.59606">
        <ele>632.40002441406</ele>
        <time>2018-05-01T16:11:17.000Z</time>
      </trkpt>
      <trkpt lat="47.32589" lon="6.59606">
        <ele>632.40002441406</ele>
        <time>2018-05-01T16:11:18.000Z</time>
      </trkpt>
      <trkpt lat="47.32589" lon="6.59607">
        <ele>632.59997558594</ele>
        <time>2018-05-01T16:11:20.000Z</time>
      </trkpt>
      <trkpt lat="47.3259" lon="6.59606">
        <ele>632.59997558594</ele>
        <time>2018-05-01T16:11:23.000Z</time>
      </trkpt>
      <trkpt lat="47.32591" lon="6.59605">
        <ele>632.40002441406</ele>
        <time>2018-05-01T16:11:24.000Z</time>
      </trkpt>
      <trkpt lat="47.32593" lon="6.59599">
        <ele>631.40002441406</ele>
        <time>2018-05-01T16:11:29.000Z</time>
      </trkpt>
      <trkpt lat="47.32593" lon="6.59599">
        <ele>631.40002441406</ele>
        <time>2018-05-01T16:11:30.000Z</time>
      </trkpt>
      <trkpt lat="47.32593" lon="6.59596">
        <ele>630.59997558594</ele>
        <time>2018-05-01T16:11:33.000Z</time>
      </trkpt>
      <trkpt lat="47.32593" lon="6.59595">
        <ele>630.20001220703</ele>
        <time>2018-05-01T16:11:34.000Z</time>
      </trkpt>
      <trkpt lat="47.32592" lon="6.59589">
        <ele>628.59997558594</ele>
        <time>2018-05-01T16:11:39.000Z</time>
      </trkpt>
      <trkpt lat="47.32591" lon="6.59587">
        <ele>628</ele>
        <time>2018-05-01T16:11:41.000Z</time>
      </trkpt>
      <trkpt lat="47.3259" lon="6.59584">
        <ele>627.20001220703</ele>
        <time>2018-05-01T16:11:43.000Z</time>
      </trkpt>
      <trkpt lat="47.32589" lon="6.59581">
        <ele>626.40002441406</ele>
        <time>2018-05-01T16:11:45.000Z</time>
      </trkpt>
      <trkpt lat="47.32588" lon="6.5958">
        <ele>626</ele>
        <time>2018-05-01T16:11:46.000Z</time>
      </trkpt>
      <trkpt lat="47.32588" lon="6.5958">
        <ele>626</ele>
        <time>2018-05-01T16:11:50.000Z</time>
      </trkpt>
      <trkpt lat="47.32587" lon="6.59577">
        <ele>625</ele>
        <time>2018-05-01T16:11:53.000Z</time>
      </trkpt>
      <trkpt lat="47.32586" lon="6.59573">
        <ele>624.20001220703</ele>
        <time>2018-05-01T16:11:54.000Z</time>
      </trkpt>
      <trkpt lat="47.32586" lon="6.5957">
        <ele>623.20001220703</ele>
        <time>2018-05-01T16:11:55.000Z</time>
      </trkpt>
      <trkpt lat="47.32584" lon="6.59566">
        <ele>622</ele>
        <time>2018-05-01T16:11:56.000Z</time>
      </trkpt>
      <trkpt lat="47.32582" lon="6.59557">
        <ele>619.79998779297</ele>
        <time>2018-05-01T16:11:58.000Z</time>
      </trkpt>
      <trkpt lat="47.32581" lon="6.59552">
        <ele>618.59997558594</ele>
        <time>2018-05-01T16:11:59.000Z</time>
      </trkpt>
      <trkpt lat="47.32579" lon="6.59548">
        <ele>617.59997558594</ele>
        <time>2018-05-01T16:12:00.000Z</time>
      </trkpt>
      <trkpt lat="47.32578" lon="6.59544">
        <ele>616.59997558594</ele>
        <time>2018-05-01T16:12:01.000Z</time>
      </trkpt>
      <trkpt lat="47.32577" lon="6.59539">
        <ele>615.40002441406</ele>
        <time>2018-05-01T16:12:02.000Z</time>
      </trkpt>
      <trkpt lat="47.32577" lon="6.59535">
        <ele>614.59997558594</ele>
        <time>2018-05-01T16:12:03.000Z</time>
      </trkpt>
      <trkpt lat="47.32576" lon="6.59532">
        <ele>613.79998779297</ele>
        <time>2018-05-01T16:12:04.000Z</time>
      </trkpt>
      <trkpt lat="47.32576" lon="6.5953">
        <ele>613.59997558594</ele>
        <time>2018-05-01T16:12:05.000Z</time>
      </trkpt>
      <trkpt lat="47.32577" lon="6.5953">
        <ele>613.59997558594</ele>
        <time>2018-05-01T16:12:06.000Z</time>
      </trkpt>
      <trkpt lat="47.32577" lon="6.59529">
        <ele>613.40002441406</ele>
        <time>2018-05-01T16:12:07.000Z</time>
      </trkpt>
      <trkpt lat="47.32577" lon="6.59527">
        <ele>613.20001220703</ele>
        <time>2018-05-01T16:12:09.000Z</time>
      </trkpt>
      <trkpt lat="47.32578" lon="6.59526">
        <ele>613</ele>
        <time>2018-05-01T16:12:11.000Z</time>
      </trkpt>
      <trkpt lat="47.3258" lon="6.59524">
        <ele>612.79998779297</ele>
        <time>2018-05-01T16:12:14.000Z</time>
      </trkpt>
      <trkpt lat="47.32579" lon="6.59524">
        <ele>612.79998779297</ele>
        <time>2018-05-01T16:12:15.000Z</time>
      </trkpt>
      <trkpt lat="47.3258" lon="6.59523">
        <ele>612.59997558594</ele>
        <time>2018-05-01T16:12:18.000Z</time>
      </trkpt>
      <trkpt lat="47.3258" lon="6.59523">
        <ele>612.59997558594</ele>
        <time>2018-05-01T16:12:21.000Z</time>
      </trkpt>
      <trkpt lat="47.32583" lon="6.59521">
        <ele>612.59997558594</ele>
        <time>2018-05-01T16:12:26.000Z</time>
      </trkpt>
      <trkpt lat="47.32585" lon="6.5952">
        <ele>612.79998779297</ele>
        <time>2018-05-01T16:12:27.000Z</time>
      </trkpt>
      <trkpt lat="47.32589" lon="6.59517">
        <ele>612.79998779297</ele>
        <time>2018-05-01T16:12:29.000Z</time>
      </trkpt>
      <trkpt lat="47.32595" lon="6.59515">
        <ele>613</ele>
        <time>2018-05-01T16:12:32.000Z</time>
      </trkpt>
      <trkpt lat="47.32597" lon="6.59513">
        <ele>612.79998779297</ele>
        <time>2018-05-01T16:12:33.000Z</time>
      </trkpt>
      <trkpt lat="47.32602" lon="6.59511">
        <ele>613</ele>
        <time>2018-05-01T16:12:35.000Z</time>
      </trkpt>
      <trkpt lat="47.32607" lon="6.59509">
        <ele>613.40002441406</ele>
        <time>2018-05-01T16:12:37.000Z</time>
      </trkpt>
      <trkpt lat="47.3261" lon="6.59509">
        <ele>613.20001220703</ele>
        <time>2018-05-01T16:12:38.000Z</time>
      </trkpt>
      <trkpt lat="47.32612" lon="6.59508">
        <ele>613.20001220703</ele>
        <time>2018-05-01T16:12:39.000Z</time>
      </trkpt>
      <trkpt lat="47.3262" lon="6.59506">
        <ele>613</ele>
        <time>2018-05-01T16:12:42.000Z</time>
      </trkpt>
      <trkpt lat="47.32622" lon="6.59505">
        <ele>612.79998779297</ele>
        <time>2018-05-01T16:12:43.000Z</time>
      </trkpt>
      <trkpt lat="47.32633" lon="6.59503">
        <ele>612.79998779297</ele>
        <time>2018-05-01T16:12:47.000Z</time>
      </trkpt>
      <trkpt lat="47.32634" lon="6.59504">
        <ele>613</ele>
        <time>2018-05-01T16:12:48.000Z</time>
      </trkpt>
      <trkpt lat="47.32637" lon="6.59505">
        <ele>613.59997558594</ele>
        <time>2018-05-01T16:12:53.000Z</time>
      </trkpt>
      <trkpt lat="47.32639" lon="6.59505">
        <ele>613.59997558594</ele>
        <time>2018-05-01T16:12:56.000Z</time>
      </trkpt>
      <trkpt lat="47.3264" lon="6.59505">
        <ele>613.59997558594</ele>
        <time>2018-05-01T16:13:00.000Z</time>
      </trkpt>
      <trkpt lat="47.32642" lon="6.59502">
        <ele>612.79998779297</ele>
        <time>2018-05-01T16:13:03.000Z</time>
      </trkpt>
      <trkpt lat="47.32645" lon="6.59495">
        <ele>611</ele>
        <time>2018-05-01T16:13:05.000Z</time>
      </trkpt>
      <trkpt lat="47.32647" lon="6.59487">
        <ele>608.79998779297</ele>
        <time>2018-05-01T16:13:08.000Z</time>
      </trkpt>
      <trkpt lat="47.32647" lon="6.59486">
        <ele>608.40002441406</ele>
        <time>2018-05-01T16:13:09.000Z</time>
      </trkpt>
      <trkpt lat="47.32648" lon="6.59477">
        <ele>607</ele>
        <time>2018-05-01T16:13:12.000Z</time>
      </trkpt>
      <trkpt lat="47.32649" lon="6.59468">
        <ele>605.59997558594</ele>
        <time>2018-05-01T16:13:14.000Z</time>
      </trkpt>
      <trkpt lat="47.3265" lon="6.59463">
        <ele>604.59997558594</ele>
        <time>2018-05-01T16:13:15.000Z</time>
      </trkpt>
      <trkpt lat="47.32653" lon="6.59443">
        <ele>600.79998779297</ele>
        <time>2018-05-01T16:13:19.000Z</time>
      </trkpt>
      <trkpt lat="47.32654" lon="6.59432">
        <ele>598.79998779297</ele>
        <time>2018-05-01T16:13:22.000Z</time>
      </trkpt>
      <trkpt lat="47.32656" lon="6.59428">
        <ele>598</ele>
        <time>2018-05-01T16:13:24.000Z</time>
      </trkpt>
      <trkpt lat="47.32656" lon="6.59426">
        <ele>597.59997558594</ele>
        <time>2018-05-01T16:13:26.000Z</time>
      </trkpt>
      <trkpt lat="47.32657" lon="6.59426">
        <ele>597.59997558594</ele>
        <time>2018-05-01T16:13:27.000Z</time>
      </trkpt>
      <trkpt lat="47.3266" lon="6.59424">
        <ele>597.20001220703</ele>
        <time>2018-05-01T16:13:29.000Z</time>
      </trkpt>
      <trkpt lat="47.32663" lon="6.59422">
        <ele>597</ele>
        <time>2018-05-01T16:13:31.000Z</time>
      </trkpt>
      <trkpt lat="47.32664" lon="6.59417">
        <ele>595.79998779297</ele>
        <time>2018-05-01T16:13:34.000Z</time>
      </trkpt>
      <trkpt lat="47.32659" lon="6.5941">
        <ele>594.59997558594</ele>
        <time>2018-05-01T16:13:38.000Z</time>
      </trkpt>
      <trkpt lat="47.32657" lon="6.59409">
        <ele>594.40002441406</ele>
        <time>2018-05-01T16:13:39.000Z</time>
      </trkpt>
      <trkpt lat="47.32657" lon="6.59409">
        <ele>594.40002441406</ele>
        <time>2018-05-01T16:13:41.000Z</time>
      </trkpt>
      <trkpt lat="47.32657" lon="6.59409">
        <ele>594.40002441406</ele>
        <time>2018-05-01T16:13:42.000Z</time>
      </trkpt>
      <trkpt lat="47.32657" lon="6.59409">
        <ele>594.40002441406</ele>
        <time>2018-05-01T16:13:48.000Z</time>
      </trkpt>
      <trkpt lat="47.32656" lon="6.59407">
        <ele>594</ele>
        <time>2018-05-01T16:13:53.000Z</time>
      </trkpt>
      <trkpt lat="47.32655" lon="6.59402">
        <ele>593</ele>
        <time>2018-05-01T16:13:55.000Z</time>
      </trkpt>
      <trkpt lat="47.32648" lon="6.59389">
        <ele>591.20001220703</ele>
        <time>2018-05-01T16:13:59.000Z</time>
      </trkpt>
      <trkpt lat="47.32644" lon="6.59372">
        <ele>588.79998779297</ele>
        <time>2018-05-01T16:14:04.000Z</time>
      </trkpt>
      <trkpt lat="47.3264" lon="6.5936">
        <ele>587.20001220703</ele>
        <time>2018-05-01T16:14:07.000Z</time>
      </trkpt>
      <trkpt lat="47.32635" lon="6.59353">
        <ele>586.20001220703</ele>
        <time>2018-05-01T16:14:09.000Z</time>
      </trkpt>
      <trkpt lat="47.3263" lon="6.5934">
        <ele>584.40002441406</ele>
        <time>2018-05-01T16:14:13.000Z</time>
      </trkpt>
      <trkpt lat="47.32625" lon="6.59326">
        <ele>582.59997558594</ele>
        <time>2018-05-01T16:14:17.000Z</time>
      </trkpt>
      <trkpt lat="47.32621" lon="6.59319">
        <ele>581.59997558594</ele>
        <time>2018-05-01T16:14:19.000Z</time>
      </trkpt>
      <trkpt lat="47.32619" lon="6.59315">
        <ele>581.20001220703</ele>
        <time>2018-05-01T16:14:20.000Z</time>
      </trkpt>
      <trkpt lat="47.32616" lon="6.59301">
        <ele>580</ele>
        <time>2018-05-01T16:14:23.000Z</time>
      </trkpt>
      <trkpt lat="47.32614" lon="6.59296">
        <ele>579.59997558594</ele>
        <time>2018-05-01T16:14:24.000Z</time>
      </trkpt>
      <trkpt lat="47.32613" lon="6.59287">
        <ele>578.79998779297</ele>
        <time>2018-05-01T16:14:26.000Z</time>
      </trkpt>
      <trkpt lat="47.3261" lon="6.59279">
        <ele>578</ele>
        <time>2018-05-01T16:14:29.000Z</time>
      </trkpt>
      <trkpt lat="47.3261" lon="6.59279">
        <ele>578</ele>
        <time>2018-05-01T16:14:30.000Z</time>
      </trkpt>
      <trkpt lat="47.3261" lon="6.59278">
        <ele>578</ele>
        <time>2018-05-01T16:14:33.000Z</time>
      </trkpt>
      <trkpt lat="47.3261" lon="6.59276">
        <ele>577.79998779297</ele>
        <time>2018-05-01T16:14:38.000Z</time>
      </trkpt>
      <trkpt lat="47.3261" lon="6.59274">
        <ele>577.59997558594</ele>
        <time>2018-05-01T16:14:45.000Z</time>
      </trkpt>
      <trkpt lat="47.32609" lon="6.59268">
        <ele>577.20001220703</ele>
        <time>2018-05-01T16:14:53.000Z</time>
      </trkpt>
      <trkpt lat="47.3261" lon="6.5926">
        <ele>576.40002441406</ele>
        <time>2018-05-01T16:14:59.000Z</time>
      </trkpt>
      <trkpt lat="47.32611" lon="6.59259">
        <ele>576.40002441406</ele>
        <time>2018-05-01T16:15:04.000Z</time>
      </trkpt>
      <trkpt lat="47.32611" lon="6.59258">
        <ele>576.20001220703</ele>
        <time>2018-05-01T16:15:06.000Z</time>
      </trkpt>
      <trkpt lat="47.3261" lon="6.59252">
        <ele>575.59997558594</ele>
        <time>2018-05-01T16:15:08.000Z</time>
      </trkpt>
      <trkpt lat="47.32608" lon="6.59241">
        <ele>574.59997558594</ele>
        <time>2018-05-01T16:15:11.000Z</time>
      </trkpt>
      <trkpt lat="47.32605" lon="6.59233">
        <ele>573.79998779297</ele>
        <time>2018-05-01T16:15:13.000Z</time>
      </trkpt>
      <trkpt lat="47.32603" lon="6.59222">
        <ele>573</ele>
        <time>2018-05-01T16:15:15.000Z</time>
      </trkpt>
      <trkpt lat="47.326" lon="6.59213">
        <ele>572.20001220703</ele>
        <time>2018-05-01T16:15:17.000Z</time>
      </trkpt>
      <trkpt lat="47.32597" lon="6.59203">
        <ele>571.40002441406</ele>
        <time>2018-05-01T16:15:19.000Z</time>
      </trkpt>
      <trkpt lat="47.32595" lon="6.59196">
        <ele>570.79998779297</ele>
        <time>2018-05-01T16:15:21.000Z</time>
      </trkpt>
      <trkpt lat="47.32595" lon="6.59194">
        <ele>570.59997558594</ele>
        <time>2018-05-01T16:15:22.000Z</time>
      </trkpt>
      <trkpt lat="47.32599" lon="6.59189">
        <ele>570.20001220703</ele>
        <time>2018-05-01T16:15:26.000Z</time>
      </trkpt>
      <trkpt lat="47.32599" lon="6.59189">
        <ele>570.20001220703</ele>
        <time>2018-05-01T16:15:30.000Z</time>
      </trkpt>
      <trkpt lat="47.32599" lon="6.59187">
        <ele>570</ele>
        <time>2018-05-01T16:15:35.000Z</time>
      </trkpt>
      <trkpt lat="47.32598" lon="6.59184">
        <ele>569.79998779297</ele>
        <time>2018-05-01T16:15:36.000Z</time>
      </trkpt>
      <trkpt lat="47.32596" lon="6.59181">
        <ele>569.40002441406</ele>
        <time>2018-05-01T16:15:38.000Z</time>
      </trkpt>
      <trkpt lat="47.32592" lon="6.59174">
        <ele>568.79998779297</ele>
        <time>2018-05-01T16:15:40.000Z</time>
      </trkpt>
      <trkpt lat="47.32585" lon="6.59166">
        <ele>568.20001220703</ele>
        <time>2018-05-01T16:15:43.000Z</time>
      </trkpt>
      <trkpt lat="47.32582" lon="6.59155">
        <ele>567.40002441406</ele>
        <time>2018-05-01T16:15:46.000Z</time>
      </trkpt>
      <trkpt lat="47.32579" lon="6.59146">
        <ele>566.40002441406</ele>
        <time>2018-05-01T16:15:50.000Z</time>
      </trkpt>
      <trkpt lat="47.32578" lon="6.59144">
        <ele>566.20001220703</ele>
        <time>2018-05-01T16:15:51.000Z</time>
      </trkpt>
      <trkpt lat="47.32578" lon="6.59142">
        <ele>566</ele>
        <time>2018-05-01T16:15:52.000Z</time>
      </trkpt>
      <trkpt lat="47.32576" lon="6.59139">
        <ele>565.79998779297</ele>
        <time>2018-05-01T16:15:54.000Z</time>
      </trkpt>
      <trkpt lat="47.32575" lon="6.59138">
        <ele>565.59997558594</ele>
        <time>2018-05-01T16:15:55.000Z</time>
      </trkpt>
      <trkpt lat="47.32573" lon="6.59138">
        <ele>565.59997558594</ele>
        <time>2018-05-01T16:15:56.000Z</time>
      </trkpt>
      <trkpt lat="47.3257" lon="6.59139">
        <ele>565.40002441406</ele>
        <time>2018-05-01T16:15:57.000Z</time>
      </trkpt>
      <trkpt lat="47.3256" lon="6.59143">
        <ele>565.20001220703</ele>
        <time>2018-05-01T16:16:00.000Z</time>
      </trkpt>
      <trkpt lat="47.32552" lon="6.59146">
        <ele>565.20001220703</ele>
        <time>2018-05-01T16:16:02.000Z</time>
      </trkpt>
      <trkpt lat="47.32547" lon="6.59144">
        <ele>564.79998779297</ele>
        <time>2018-05-01T16:16:03.000Z</time>
      </trkpt>
      <trkpt lat="47.32544" lon="6.59138">
        <ele>564.20001220703</ele>
        <time>2018-05-01T16:16:04.000Z</time>
      </trkpt>
      <trkpt lat="47.32538" lon="6.59123">
        <ele>562.59997558594</ele>
        <time>2018-05-01T16:16:06.000Z</time>
      </trkpt>
      <trkpt lat="47.32535" lon="6.59115">
        <ele>561.79998779297</ele>
        <time>2018-05-01T16:16:07.000Z</time>
      </trkpt>
      <trkpt lat="47.32531" lon="6.59109">
        <ele>561</ele>
        <time>2018-05-01T16:16:08.000Z</time>
      </trkpt>
      <trkpt lat="47.32525" lon="6.59094">
        <ele>559.40002441406</ele>
        <time>2018-05-01T16:16:10.000Z</time>
      </trkpt>
      <trkpt lat="47.32518" lon="6.59078">
        <ele>557.79998779297</ele>
        <time>2018-05-01T16:16:12.000Z</time>
      </trkpt>
      <trkpt lat="47.32509" lon="6.59064">
        <ele>556.40002441406</ele>
        <time>2018-05-01T16:16:14.000Z</time>
      </trkpt>
      <trkpt lat="47.32498" lon="6.59055">
        <ele>555.40002441406</ele>
        <time>2018-05-01T16:16:16.000Z</time>
      </trkpt>
      <trkpt lat="47.32486" lon="6.59049">
        <ele>554.59997558594</ele>
        <time>2018-05-01T16:16:18.000Z</time>
      </trkpt>
      <trkpt lat="47.32478" lon="6.59044">
        <ele>554</ele>
        <time>2018-05-01T16:16:20.000Z</time>
      </trkpt>
      <trkpt lat="47.32474" lon="6.5904">
        <ele>553.59997558594</ele>
        <time>2018-05-01T16:16:21.000Z</time>
      </trkpt>
      <trkpt lat="47.32471" lon="6.59036">
        <ele>553.20001220703</ele>
        <time>2018-05-01T16:16:22.000Z</time>
      </trkpt>
      <trkpt lat="47.32465" lon="6.59032">
        <ele>552.79998779297</ele>
        <time>2018-05-01T16:16:24.000Z</time>
      </trkpt>
      <trkpt lat="47.32455" lon="6.59041">
        <ele>552</ele>
        <time>2018-05-01T16:16:27.000Z</time>
      </trkpt>
      <trkpt lat="47.32452" lon="6.59059">
        <ele>551.59997558594</ele>
        <time>2018-05-01T16:16:30.000Z</time>
      </trkpt>
      <trkpt lat="47.3245" lon="6.59066">
        <ele>551.59997558594</ele>
        <time>2018-05-01T16:16:31.000Z</time>
      </trkpt>
      <trkpt lat="47.32443" lon="6.59098">
        <ele>553.20001220703</ele>
        <time>2018-05-01T16:16:36.000Z</time>
      </trkpt>
      <trkpt lat="47.3244" lon="6.59109">
        <ele>553.40002441406</ele>
        <time>2018-05-01T16:16:38.000Z</time>
      </trkpt>
      <trkpt lat="47.32434" lon="6.59109">
        <ele>552.40002441406</ele>
        <time>2018-05-01T16:16:41.000Z</time>
      </trkpt>
      <trkpt lat="47.3243" lon="6.59093">
        <ele>551.20001220703</ele>
        <time>2018-05-01T16:16:44.000Z</time>
      </trkpt>
      <trkpt lat="47.32428" lon="6.59078">
        <ele>550.20001220703</ele>
        <time>2018-05-01T16:16:46.000Z</time>
      </trkpt>
      <trkpt lat="47.32426" lon="6.59063">
        <ele>549.20001220703</ele>
        <time>2018-05-01T16:16:48.000Z</time>
      </trkpt>
      <trkpt lat="47.32423" lon="6.59047">
        <ele>548.79998779297</ele>
        <time>2018-05-01T16:16:50.000Z</time>
      </trkpt>
      <trkpt lat="47.3242" lon="6.59022">
        <ele>548.59997558594</ele>
        <time>2018-05-01T16:16:53.000Z</time>
      </trkpt>
      <trkpt lat="47.32418" lon="6.59004">
        <ele>548.40002441406</ele>
        <time>2018-05-01T16:16:55.000Z</time>
      </trkpt>
      <trkpt lat="47.32416" lon="6.58996">
        <ele>548.20001220703</ele>
        <time>2018-05-01T16:16:56.000Z</time>
      </trkpt>
      <trkpt lat="47.32414" lon="6.58989">
        <ele>548</ele>
        <time>2018-05-01T16:16:57.000Z</time>
      </trkpt>
      <trkpt lat="47.32413" lon="6.58975">
        <ele>548</ele>
        <time>2018-05-01T16:17:00.000Z</time>
      </trkpt>
      <trkpt lat="47.32413" lon="6.58973">
        <ele>548</ele>
        <time>2018-05-01T16:17:03.000Z</time>
      </trkpt>
    </trkseg>
  </trk>
</gpx>